<?xml version="1.0" encoding="UTF-8"?>
<gpx version="1.1" creator=" " xmlns="http://www.topografix.com/GPX/1/1" xmlns:xsi="http://www.w3.org/2001/XMLSchema-instance" xsi:schemaLocation="http://www.topografix.com/GPX/1/1 http://www.topografix.com/GPX/1/1/gpx.xsd">
<metadata>
<name>TL Bartholomä - Güglingen</name>
<desc></desc>
<link href="">
<text>  </text>
</link>
<time>2023-05-16T08:07:37Z</time>
</metadata>
<trk>
<trkseg>
<trkpt lat="48.753821924328804" lon="9.980147955939174">
<ele>642.8</ele>
</trkpt>
<trkpt lat="48.753821924328804" lon="9.980147955939174">
<ele>642.8</ele>
<time>2023-05-16T08:07:37Z</time>
</trkpt>
<trkpt lat="48.75385293737054" lon="9.980261949822307">
<ele>642.5999999999999</ele>
<time>2023-05-16T08:07:39Z</time>
</trkpt>
<trkpt lat="48.753861989825964" lon="9.980312995612621">
<ele>642.5999999999999</ele>
<time>2023-05-16T08:07:40Z</time>
</trkpt>
<trkpt lat="48.75386995263398" lon="9.980371920391917">
<ele>642.5999999999999</ele>
<time>2023-05-16T08:07:41Z</time>
</trkpt>
<trkpt lat="48.75388193875551" lon="9.980434952303767">
<ele>642.5999999999999</ele>
<time>2023-05-16T08:07:42Z</time>
</trkpt>
<trkpt lat="48.75388998538256" lon="9.980497984215617">
<ele>642.5999999999999</ele>
<time>2023-05-16T08:07:43Z</time>
</trkpt>
<trkpt lat="48.75389493070543" lon="9.980566967278719">
<ele>642.5999999999999</ele>
<time>2023-05-16T08:07:44Z</time>
</trkpt>
<trkpt lat="48.75389995984733" lon="9.980637961998582">
<ele>642.5999999999999</ele>
<time>2023-05-16T08:07:45Z</time>
</trkpt>
<trkpt lat="48.753904988989234" lon="9.980709962546825">
<ele>642.5999999999999</ele>
<time>2023-05-16T08:07:46Z</time>
</trkpt>
<trkpt lat="48.753909934312105" lon="9.980779951438308">
<ele>642.5999999999999</ele>
<time>2023-05-16T08:07:47Z</time>
</trkpt>
<trkpt lat="48.75392192043364" lon="9.980837954208255">
<ele>642.5999999999999</ele>
<time>2023-05-16T08:07:48Z</time>
</trkpt>
<trkpt lat="48.75393298454583" lon="9.980882965028286">
<ele>642.4000000000001</ele>
<time>2023-05-16T08:07:49Z</time>
</trkpt>
<trkpt lat="48.75393692404032" lon="9.98091297224164">
<ele>642.4000000000001</ele>
<time>2023-05-16T08:07:50Z</time>
</trkpt>
<trkpt lat="48.753949999809265" lon="9.980937950313091">
<ele>642.4000000000001</ele>
<time>2023-05-16T08:07:51Z</time>
</trkpt>
<trkpt lat="48.75396491959691" lon="9.980952953919768">
<ele>642.2</ele>
<time>2023-05-16T08:07:52Z</time>
</trkpt>
<trkpt lat="48.753992998972535" lon="9.980959994718432">
<ele>642.2</ele>
<time>2023-05-16T08:07:53Z</time>
</trkpt>
<trkpt lat="48.75402694568038" lon="9.980959994718432">
<ele>642.2</ele>
<time>2023-05-16T08:07:54Z</time>
</trkpt>
<trkpt lat="48.754059970378876" lon="9.980952953919768">
<ele>642.2</ele>
<time>2023-05-16T08:07:55Z</time>
</trkpt>
<trkpt lat="48.75409198924899" lon="9.980941973626614">
<ele>642.2</ele>
<time>2023-05-16T08:07:56Z</time>
</trkpt>
<trkpt lat="48.754124930128455" lon="9.980929987505078">
<ele>642.2</ele>
<time>2023-05-16T08:07:57Z</time>
</trkpt>
<trkpt lat="48.75415493734181" lon="9.980919929221272">
<ele>642.2</ele>
<time>2023-05-16T08:07:58Z</time>
</trkpt>
<trkpt lat="48.75417999923229" lon="9.980909954756498">
<ele>642.2</ele>
<time>2023-05-16T08:07:59Z</time>
</trkpt>
<trkpt lat="48.75420497730374" lon="9.980897968634963">
<ele>642.2</ele>
<time>2023-05-16T08:08:00Z</time>
</trkpt>
<trkpt lat="48.754231967031956" lon="9.98089193366468">
<ele>642.2</ele>
<time>2023-05-16T08:08:01Z</time>
</trkpt>
<trkpt lat="48.75426298007369" lon="9.980887994170189">
<ele>642.4000000000001</ele>
<time>2023-05-16T08:08:02Z</time>
</trkpt>
<trkpt lat="48.754297932609916" lon="9.980896962806582">
<ele>642.4000000000001</ele>
<time>2023-05-16T08:08:03Z</time>
</trkpt>
<trkpt lat="48.75433296896517" lon="9.980914983898401">
<ele>642.4000000000001</ele>
<time>2023-05-16T08:08:04Z</time>
</trkpt>
<trkpt lat="48.7543679215014" lon="9.980949936434627">
<ele>642.5999999999999</ele>
<time>2023-05-16T08:08:05Z</time>
</trkpt>
<trkpt lat="48.754401952028275" lon="9.981001988053322">
<ele>642.5999999999999</ele>
<time>2023-05-16T08:08:06Z</time>
</trkpt>
<trkpt lat="48.75442994758487" lon="9.981061918660998">
<ele>642.8</ele>
<time>2023-05-16T08:08:07Z</time>
</trkpt>
<trkpt lat="48.75445693731308" lon="9.981122938916087">
<ele>643</ele>
<time>2023-05-16T08:08:08Z</time>
</trkpt>
<trkpt lat="48.75447797589004" lon="9.981186976656318">
<ele>643</ele>
<time>2023-05-16T08:08:09Z</time>
</trkpt>
<trkpt lat="48.75450194813311" lon="9.981249924749136">
<ele>643.2</ele>
<time>2023-05-16T08:08:10Z</time>
</trkpt>
<trkpt lat="48.75451996922493" lon="9.98132192529738">
<ele>643.2</ele>
<time>2023-05-16T08:08:11Z</time>
</trkpt>
<trkpt lat="48.75453497283161" lon="9.981397949159145">
<ele>643.4000000000001</ele>
<time>2023-05-16T08:08:12Z</time>
</trkpt>
<trkpt lat="48.75454796478152" lon="9.981476990506053">
<ele>643.4000000000001</ele>
<time>2023-05-16T08:08:13Z</time>
</trkpt>
<trkpt lat="48.75455995090306" lon="9.98155695386231">
<ele>643.4000000000001</ele>
<time>2023-05-16T08:08:14Z</time>
</trkpt>
<trkpt lat="48.7545679975301" lon="9.981637923046947">
<ele>643.4000000000001</ele>
<time>2023-05-16T08:08:15Z</time>
</trkpt>
<trkpt lat="48.75456498004496" lon="9.981722999364138">
<ele>643.5999999999999</ele>
<time>2023-05-16T08:08:16Z</time>
</trkpt>
<trkpt lat="48.75454796478152" lon="9.981806986033916">
<ele>643.5999999999999</ele>
<time>2023-05-16T08:08:17Z</time>
</trkpt>
<trkpt lat="48.75452499836683" lon="9.981886949390173">
<ele>643.5999999999999</ele>
<time>2023-05-16T08:08:18Z</time>
</trkpt>
<trkpt lat="48.75449499115348" lon="9.9819649849087">
<ele>643.5999999999999</ele>
<time>2023-05-16T08:08:19Z</time>
</trkpt>
<trkpt lat="48.754466995596886" lon="9.982041930779815">
<ele>643.5999999999999</ele>
<time>2023-05-16T08:08:20Z</time>
</trkpt>
<trkpt lat="48.7544419337064" lon="9.982121977955103">
<ele>643.5999999999999</ele>
<time>2023-05-16T08:08:21Z</time>
</trkpt>
<trkpt lat="48.75441796146333" lon="9.98220194131136">
<ele>643.5999999999999</ele>
<time>2023-05-16T08:08:22Z</time>
</trkpt>
<trkpt lat="48.75439298339188" lon="9.982279976829886">
<ele>643.5999999999999</ele>
<time>2023-05-16T08:08:23Z</time>
</trkpt>
<trkpt lat="48.75436699949205" lon="9.982357928529382">
<ele>643.5999999999999</ele>
<time>2023-05-16T08:08:24Z</time>
</trkpt>
<trkpt lat="48.754339925944805" lon="9.98243696987629">
<ele>643.5999999999999</ele>
<time>2023-05-16T08:08:25Z</time>
</trkpt>
<trkpt lat="48.75431193038821" lon="9.982516933232546">
<ele>643.5999999999999</ele>
<time>2023-05-16T08:08:26Z</time>
</trkpt>
<trkpt lat="48.75428192317486" lon="9.982596980407834">
<ele>643.5999999999999</ele>
<time>2023-05-16T08:08:27Z</time>
</trkpt>
<trkpt lat="48.754254933446646" lon="9.982679961249232">
<ele>643.5999999999999</ele>
<time>2023-05-16T08:08:28Z</time>
</trkpt>
<trkpt lat="48.75422492623329" lon="9.982759924605489">
<ele>643.5999999999999</ele>
<time>2023-05-16T08:08:29Z</time>
</trkpt>
<trkpt lat="48.75419491901994" lon="9.982841983437538">
<ele>643.4000000000001</ele>
<time>2023-05-16T08:08:30Z</time>
</trkpt>
<trkpt lat="48.754164995625615" lon="9.982922952622175">
<ele>643.4000000000001</ele>
<time>2023-05-16T08:08:31Z</time>
</trkpt>
<trkpt lat="48.75414194539189" lon="9.983006939291954">
<ele>643.4000000000001</ele>
<time>2023-05-16T08:08:32Z</time>
</trkpt>
<trkpt lat="48.75411696732044" lon="9.983089920133352">
<ele>643.2</ele>
<time>2023-05-16T08:08:33Z</time>
</trkpt>
<trkpt lat="48.75409299507737" lon="9.983174996450543">
<ele>643.2</ele>
<time>2023-05-16T08:08:34Z</time>
</trkpt>
<trkpt lat="48.75406793318689" lon="9.983257977291942">
<ele>643.2</ele>
<time>2023-05-16T08:08:35Z</time>
</trkpt>
<trkpt lat="48.754039937630296" lon="9.98333995230496">
<ele>643</ele>
<time>2023-05-16T08:08:36Z</time>
</trkpt>
<trkpt lat="48.7540119420737" lon="9.983421927317977">
<ele>643</ele>
<time>2023-05-16T08:08:37Z</time>
</trkpt>
<trkpt lat="48.75398193486035" lon="9.983501974493265">
<ele>642.8</ele>
<time>2023-05-16T08:08:38Z</time>
</trkpt>
<trkpt lat="48.753951927646995" lon="9.983581937849522">
<ele>642.8</ele>
<time>2023-05-16T08:08:39Z</time>
</trkpt>
<trkpt lat="48.75391999259591" lon="9.983659973368049">
<ele>642.5999999999999</ele>
<time>2023-05-16T08:08:40Z</time>
</trkpt>
<trkpt lat="48.75388998538256" lon="9.983739936724305">
<ele>642.5999999999999</ele>
<time>2023-05-16T08:08:41Z</time>
</trkpt>
<trkpt lat="48.753861989825964" lon="9.983821995556355">
<ele>642.4000000000001</ele>
<time>2023-05-16T08:08:42Z</time>
</trkpt>
<trkpt lat="48.75383692793548" lon="9.983907993882895">
<ele>642.2</ele>
<time>2023-05-16T08:08:43Z</time>
</trkpt>
<trkpt lat="48.75381496734917" lon="9.983996925875545">
<ele>642.2</ele>
<time>2023-05-16T08:08:44Z</time>
</trkpt>
<trkpt lat="48.75379694625735" lon="9.984086947515607">
<ele>642</ele>
<time>2023-05-16T08:08:45Z</time>
</trkpt>
<trkpt lat="48.753781942650676" lon="9.984179986640811">
<ele>641.8</ele>
<time>2023-05-16T08:08:46Z</time>
</trkpt>
<trkpt lat="48.75376794487238" lon="9.984272941946983">
<ele>641.5999999999999</ele>
<time>2023-05-16T08:08:47Z</time>
</trkpt>
<trkpt lat="48.753756964579225" lon="9.984367992728949">
<ele>641.4000000000001</ele>
<time>2023-05-16T08:08:48Z</time>
</trkpt>
<trkpt lat="48.75374296680093" lon="9.984461953863502">
<ele>641.2</ele>
<time>2023-05-16T08:08:49Z</time>
</trkpt>
<trkpt lat="48.75372997485101" lon="9.984554992988706">
<ele>641.2</ele>
<time>2023-05-16T08:08:50Z</time>
</trkpt>
<trkpt lat="48.75372192822397" lon="9.98464995995164">
<ele>641</ele>
<time>2023-05-16T08:08:51Z</time>
</trkpt>
<trkpt lat="48.753714971244335" lon="9.984742999076843">
<ele>640.8</ele>
<time>2023-05-16T08:08:52Z</time>
</trkpt>
<trkpt lat="48.7537029851228" lon="9.984832936897874">
<ele>640.5999999999999</ele>
<time>2023-05-16T08:08:53Z</time>
</trkpt>
<trkpt lat="48.75367993488908" lon="9.98490795493126">
<ele>640.4000000000001</ele>
<time>2023-05-16T08:08:54Z</time>
</trkpt>
<trkpt lat="48.753646994009614" lon="9.984957994893193">
<ele>640.2</ele>
<time>2023-05-16T08:08:55Z</time>
</trkpt>
<trkpt lat="48.75360298901796" lon="9.984979955479503">
<ele>640</ele>
<time>2023-05-16T08:08:56Z</time>
</trkpt>
<trkpt lat="48.75355998985469" lon="9.98497199267149">
<ele>640</ele>
<time>2023-05-16T08:08:57Z</time>
</trkpt>
<trkpt lat="48.753504920750856" lon="9.984959922730923">
<ele>639.8</ele>
<time>2023-05-16T08:08:58Z</time>
</trkpt>
<trkpt lat="48.75345194712281" lon="9.984956989064813">
<ele>639.5999999999999</ele>
<time>2023-05-16T08:08:59Z</time>
</trkpt>
<trkpt lat="48.75340492464602" lon="9.984976937994361">
<ele>639.4000000000001</ele>
<time>2023-05-16T08:09:00Z</time>
</trkpt>
<trkpt lat="48.75336695462465" lon="9.98501792550087">
<ele>639.2</ele>
<time>2023-05-16T08:09:01Z</time>
</trkpt>
<trkpt lat="48.7533419765532" lon="9.9850819632411">
<ele>639</ele>
<time>2023-05-16T08:09:02Z</time>
</trkpt>
<trkpt lat="48.753327978774905" lon="9.985159998759627">
<ele>638.5999999999999</ele>
<time>2023-05-16T08:09:03Z</time>
</trkpt>
<trkpt lat="48.753322949633" lon="9.985247924923897">
<ele>638.4000000000001</ele>
<time>2023-05-16T08:09:04Z</time>
</trkpt>
<trkpt lat="48.753326972946525" lon="9.985341969877481">
<ele>638.2</ele>
<time>2023-05-16T08:09:05Z</time>
</trkpt>
<trkpt lat="48.753332924097776" lon="9.985436936840415">
<ele>638</ele>
<time>2023-05-16T08:09:06Z</time>
</trkpt>
<trkpt lat="48.7533369474113" lon="9.985537938773632">
<ele>637.8</ele>
<time>2023-05-16T08:09:07Z</time>
</trkpt>
<trkpt lat="48.75333996489644" lon="9.98563994653523">
<ele>637.5999999999999</ele>
<time>2023-05-16T08:09:08Z</time>
</trkpt>
<trkpt lat="48.75334298238158" lon="9.985741954296827">
<ele>637.5999999999999</ele>
<time>2023-05-16T08:09:09Z</time>
</trkpt>
<trkpt lat="48.75334499403834" lon="9.985842956230044">
<ele>637.4000000000001</ele>
<time>2023-05-16T08:09:10Z</time>
</trkpt>
<trkpt lat="48.753351951017976" lon="9.985946975648403">
<ele>637.2</ele>
<time>2023-05-16T08:09:11Z</time>
</trkpt>
<trkpt lat="48.75336494296789" lon="9.986044960096478">
<ele>637.2</ele>
<time>2023-05-16T08:09:12Z</time>
</trkpt>
<trkpt lat="48.75338799320161" lon="9.986137999221683">
<ele>637</ele>
<time>2023-05-16T08:09:13Z</time>
</trkpt>
<trkpt lat="48.753417916595936" lon="9.986217962577939">
<ele>636.8</ele>
<time>2023-05-16T08:09:14Z</time>
</trkpt>
<trkpt lat="48.753456976264715" lon="9.986277977004647">
<ele>636.8</ele>
<time>2023-05-16T08:09:15Z</time>
</trkpt>
<trkpt lat="48.753501987084746" lon="9.986312929540873">
<ele>636.8</ele>
<time>2023-05-16T08:09:16Z</time>
</trkpt>
<trkpt lat="48.753541968762875" lon="9.98632994480431">
<ele>636.8</ele>
<time>2023-05-16T08:09:17Z</time>
</trkpt>
<trkpt lat="48.75356996431947" lon="9.986346960067749">
<ele>636.8</ele>
<time>2023-05-16T08:09:18Z</time>
</trkpt>
<trkpt lat="48.753581950441" lon="9.986374955624342">
<ele>636.8</ele>
<time>2023-05-16T08:09:19Z</time>
</trkpt>
<trkpt lat="48.753581950441" lon="9.98641493730247">
<ele>636.8</ele>
<time>2023-05-16T08:09:20Z</time>
</trkpt>
<trkpt lat="48.75357792712748" lon="9.986466988921165">
<ele>637</ele>
<time>2023-05-16T08:09:21Z</time>
</trkpt>
<trkpt lat="48.7535769212991" lon="9.98652197420597">
<ele>637</ele>
<time>2023-05-16T08:09:22Z</time>
</trkpt>
<trkpt lat="48.75357298180461" lon="9.98658299446106">
<ele>637</ele>
<time>2023-05-16T08:09:23Z</time>
</trkpt>
<trkpt lat="48.75357197597623" lon="9.986646948382258">
<ele>637</ele>
<time>2023-05-16T08:09:24Z</time>
</trkpt>
<trkpt lat="48.75357298180461" lon="9.986707968637347">
<ele>637</ele>
<time>2023-05-16T08:09:25Z</time>
</trkpt>
<trkpt lat="48.753581950441" lon="9.986771922558546">
<ele>637</ele>
<time>2023-05-16T08:09:26Z</time>
</trkpt>
<trkpt lat="48.75360198318958" lon="9.986819950863719">
<ele>637</ele>
<time>2023-05-16T08:09:27Z</time>
</trkpt>
<trkpt lat="48.75363199040294" lon="9.986851969733834">
<ele>637</ele>
<time>2023-05-16T08:09:28Z</time>
</trkpt>
<trkpt lat="48.75366794876754" lon="9.986862950026989">
<ele>637.2</ele>
<time>2023-05-16T08:09:29Z</time>
</trkpt>
<trkpt lat="48.75370793044567" lon="9.986866973340511">
<ele>637.2</ele>
<time>2023-05-16T08:09:30Z</time>
</trkpt>
<trkpt lat="48.75374497845769" lon="9.986862950026989">
<ele>637.4000000000001</ele>
<time>2023-05-16T08:09:31Z</time>
</trkpt>
<trkpt lat="48.753782948479056" lon="9.986861944198608">
<ele>637.4000000000001</ele>
<time>2023-05-16T08:09:32Z</time>
</trkpt>
<trkpt lat="48.75381697900593" lon="9.986857920885086">
<ele>637.5999999999999</ele>
<time>2023-05-16T08:09:33Z</time>
</trkpt>
<trkpt lat="48.75384799204767" lon="9.986851969733834">
<ele>637.8</ele>
<time>2023-05-16T08:09:34Z</time>
</trkpt>
<trkpt lat="48.75388294458389" lon="9.98684492893517">
<ele>638</ele>
<time>2023-05-16T08:09:35Z</time>
</trkpt>
<trkpt lat="48.75391295179725" lon="9.986836966127157">
<ele>638</ele>
<time>2023-05-16T08:09:36Z</time>
</trkpt>
<trkpt lat="48.7539379298687" lon="9.986826991662383">
<ele>638.2</ele>
<time>2023-05-16T08:09:37Z</time>
</trkpt>
<trkpt lat="48.75396299175918" lon="9.986816933378577">
<ele>638.4000000000001</ele>
<time>2023-05-16T08:09:38Z</time>
</trkpt>
<trkpt lat="48.75398796983063" lon="9.986807964742184">
<ele>638.5999999999999</ele>
<time>2023-05-16T08:09:39Z</time>
</trkpt>
<trkpt lat="48.75401294790208" lon="9.986796984449029">
<ele>638.5999999999999</ele>
<time>2023-05-16T08:09:40Z</time>
</trkpt>
<trkpt lat="48.75403197482228" lon="9.986782986670732">
<ele>638.8</ele>
<time>2023-05-16T08:09:41Z</time>
</trkpt>
<trkpt lat="48.75404697842896" lon="9.986772928386927">
<ele>639</ele>
<time>2023-05-16T08:09:42Z</time>
</trkpt>
<trkpt lat="48.75405192375183" lon="9.986769994720817">
<ele>639</ele>
<time>2023-05-16T08:09:43Z</time>
</trkpt>
<trkpt lat="48.75405292958021" lon="9.986769994720817">
<ele>639.2</ele>
<time>2023-05-16T08:09:44Z</time>
</trkpt>
<trkpt lat="48.75405494123697" lon="9.98675993643701">
<ele>639.8</ele>
<time>2023-05-16T08:09:44Z</time>
</trkpt>
<trkpt lat="48.75406793318689" lon="9.986684918403625">
<ele>639.8</ele>
<time>2023-05-16T08:09:47Z</time>
</trkpt>
<trkpt lat="48.75407497398555" lon="9.986651977524161">
<ele>639.8</ele>
<time>2023-05-16T08:09:48Z</time>
</trkpt>
<trkpt lat="48.754082936793566" lon="9.986609984189272">
<ele>639.8</ele>
<time>2023-05-16T08:09:49Z</time>
</trkpt>
<trkpt lat="48.7540949229151" lon="9.98656497336924">
<ele>639.8</ele>
<time>2023-05-16T08:09:50Z</time>
</trkpt>
<trkpt lat="48.75410799868405" lon="9.986522980034351">
<ele>639.8</ele>
<time>2023-05-16T08:09:51Z</time>
</trkpt>
<trkpt lat="48.75411696732044" lon="9.986474951729178">
<ele>639.8</ele>
<time>2023-05-16T08:09:52Z</time>
</trkpt>
<trkpt lat="48.754126941785216" lon="9.986422983929515">
<ele>639.8</ele>
<time>2023-05-16T08:09:53Z</time>
</trkpt>
<trkpt lat="48.75413792207837" lon="9.986369926482439">
<ele>639.8</ele>
<time>2023-05-16T08:09:54Z</time>
</trkpt>
<trkpt lat="48.75415191985667" lon="9.986316952854395">
<ele>640</ele>
<time>2023-05-16T08:09:55Z</time>
</trkpt>
<trkpt lat="48.754166923463345" lon="9.98626297339797">
<ele>640</ele>
<time>2023-05-16T08:09:56Z</time>
</trkpt>
<trkpt lat="48.75418192707002" lon="9.986211927607656">
<ele>640.2</ele>
<time>2023-05-16T08:09:57Z</time>
</trkpt>
<trkpt lat="48.7541969306767" lon="9.98615794815123">
<ele>640.4000000000001</ele>
<time>2023-05-16T08:09:58Z</time>
</trkpt>
<trkpt lat="48.754212940111756" lon="9.986104974523187">
<ele>640.4000000000001</ele>
<time>2023-05-16T08:09:59Z</time>
</trkpt>
<trkpt lat="48.754229955375195" lon="9.986049989238381">
<ele>640.5999999999999</ele>
<time>2023-05-16T08:10:00Z</time>
</trkpt>
<trkpt lat="48.75424495898187" lon="9.985989974811673">
<ele>640.8</ele>
<time>2023-05-16T08:10:01Z</time>
</trkpt>
<trkpt lat="48.75425996258855" lon="9.985929960384965">
<ele>641</ele>
<time>2023-05-16T08:10:02Z</time>
</trkpt>
<trkpt lat="48.75427798368037" lon="9.985871957615018">
<ele>641.2</ele>
<time>2023-05-16T08:10:03Z</time>
</trkpt>
<trkpt lat="48.754296926781535" lon="9.985816972330213">
<ele>641.2</ele>
<time>2023-05-16T08:10:04Z</time>
</trkpt>
<trkpt lat="48.75430991873145" lon="9.985766932368279">
<ele>641.4000000000001</ele>
<time>2023-05-16T08:10:05Z</time>
</trkpt>
<trkpt lat="48.75432793982327" lon="9.985716976225376">
<ele>641.5999999999999</ele>
<time>2023-05-16T08:10:06Z</time>
</trkpt>
<trkpt lat="48.75434696674347" lon="9.985669953748584">
<ele>641.8</ele>
<time>2023-05-16T08:10:07Z</time>
</trkpt>
<trkpt lat="48.75436498783529" lon="9.98561798594892">
<ele>641.8</ele>
<time>2023-05-16T08:10:08Z</time>
</trkpt>
<trkpt lat="48.754382925108075" lon="9.985567945986986">
<ele>642</ele>
<time>2023-05-16T08:10:09Z</time>
</trkpt>
<trkpt lat="48.754402957856655" lon="9.985519917681813">
<ele>642.2</ele>
<time>2023-05-16T08:10:10Z</time>
</trkpt>
<trkpt lat="48.754421984776855" lon="9.985474990680814">
<ele>642.4000000000001</ele>
<time>2023-05-16T08:10:11Z</time>
</trkpt>
<trkpt lat="48.7544419337064" lon="9.985429979860783">
<ele>642.5999999999999</ele>
<time>2023-05-16T08:10:12Z</time>
</trkpt>
<trkpt lat="48.75446196645498" lon="9.98538195155561">
<ele>642.5999999999999</ele>
<time>2023-05-16T08:10:13Z</time>
</trkpt>
<trkpt lat="48.75448292121291" lon="9.985334929078817">
<ele>642.8</ele>
<time>2023-05-16T08:10:14Z</time>
</trkpt>
<trkpt lat="48.75450295396149" lon="9.985286984592676">
<ele>642.8</ele>
<time>2023-05-16T08:10:15Z</time>
</trkpt>
<trkpt lat="48.75452298671007" lon="9.985237950459123">
<ele>643</ele>
<time>2023-05-16T08:10:16Z</time>
</trkpt>
<trkpt lat="48.75454494729638" lon="9.98518992215395">
<ele>643.2</ele>
<time>2023-05-16T08:10:17Z</time>
</trkpt>
<trkpt lat="48.75456699170172" lon="9.985141977667809">
<ele>643.2</ele>
<time>2023-05-16T08:10:18Z</time>
</trkpt>
<trkpt lat="48.75458794645965" lon="9.985096966847777">
<ele>643.4000000000001</ele>
<time>2023-05-16T08:10:19Z</time>
</trkpt>
<trkpt lat="48.75460697337985" lon="9.985049944370985">
<ele>643.5999999999999</ele>
<time>2023-05-16T08:10:20Z</time>
</trkpt>
<trkpt lat="48.75462792813778" lon="9.985004933550954">
<ele>643.5999999999999</ele>
<time>2023-05-16T08:10:21Z</time>
</trkpt>
<trkpt lat="48.75465299002826" lon="9.984961934387684">
<ele>643.8</ele>
<time>2023-05-16T08:10:22Z</time>
</trkpt>
<trkpt lat="48.75467495061457" lon="9.984919941052794">
<ele>644</ele>
<time>2023-05-16T08:10:23Z</time>
</trkpt>
<trkpt lat="48.75469791702926" lon="9.984876941889524">
<ele>644.2</ele>
<time>2023-05-16T08:10:24Z</time>
</trkpt>
<trkpt lat="48.7547199614346" lon="9.984834948554635">
<ele>644.2</ele>
<time>2023-05-16T08:10:25Z</time>
</trkpt>
<trkpt lat="48.75474192202091" lon="9.984792955219746">
<ele>644.4000000000001</ele>
<time>2023-05-16T08:10:26Z</time>
</trkpt>
<trkpt lat="48.754764972254634" lon="9.984754985198379">
<ele>644.5999999999999</ele>
<time>2023-05-16T08:10:27Z</time>
</trkpt>
<trkpt lat="48.754789950326085" lon="9.984719948843122">
<ele>644.8</ele>
<time>2023-05-16T08:10:28Z</time>
</trkpt>
<trkpt lat="48.754812916740775" lon="9.984686924144626">
<ele>644.8</ele>
<time>2023-05-16T08:10:29Z</time>
</trkpt>
<trkpt lat="48.75483697280288" lon="9.9846519716084">
<ele>645</ele>
<time>2023-05-16T08:10:30Z</time>
</trkpt>
<trkpt lat="48.75485993921757" lon="9.984612995758653">
<ele>645.2</ele>
<time>2023-05-16T08:10:31Z</time>
</trkpt>
<trkpt lat="48.75488198362291" lon="9.984574941918254">
<ele>645.2</ele>
<time>2023-05-16T08:10:32Z</time>
</trkpt>
<trkpt lat="48.7549049500376" lon="9.984536971896887">
<ele>645.4000000000001</ele>
<time>2023-05-16T08:10:33Z</time>
</trkpt>
<trkpt lat="48.75492992810905" lon="9.984499923884869">
<ele>645.5999999999999</ele>
<time>2023-05-16T08:10:34Z</time>
</trkpt>
<trkpt lat="48.75495691783726" lon="9.984467988833785">
<ele>645.8</ele>
<time>2023-05-16T08:10:35Z</time>
</trkpt>
<trkpt lat="48.754982985556126" lon="9.98443496413529">
<ele>645.8</ele>
<time>2023-05-16T08:10:36Z</time>
</trkpt>
<trkpt lat="48.75500796362758" lon="9.984397999942303">
<ele>646</ele>
<time>2023-05-16T08:10:37Z</time>
</trkpt>
<trkpt lat="48.75503193587065" lon="9.984357934445143">
<ele>646.2</ele>
<time>2023-05-16T08:10:38Z</time>
</trkpt>
<trkpt lat="48.75505498610437" lon="9.984317952767015">
<ele>646.4000000000001</ele>
<time>2023-05-16T08:10:39Z</time>
</trkpt>
<trkpt lat="48.75507795251906" lon="9.984276965260506">
<ele>646.4000000000001</ele>
<time>2023-05-16T08:10:40Z</time>
</trkpt>
<trkpt lat="48.75510293059051" lon="9.984231954440475">
<ele>646.5999999999999</ele>
<time>2023-05-16T08:10:41Z</time>
</trkpt>
<trkpt lat="48.75512799248099" lon="9.984191972762346">
<ele>646.8</ele>
<time>2023-05-16T08:10:42Z</time>
</trkpt>
<trkpt lat="48.7551499530673" lon="9.984152996912599">
<ele>647</ele>
<time>2023-05-16T08:10:43Z</time>
</trkpt>
<trkpt lat="48.75516998581588" lon="9.984116954728961">
<ele>647.2</ele>
<time>2023-05-16T08:10:44Z</time>
</trkpt>
<trkpt lat="48.75518993474543" lon="9.984076973050833">
<ele>647.2</ele>
<time>2023-05-16T08:10:45Z</time>
</trkpt>
<trkpt lat="48.75520996749401" lon="9.984036991372705">
<ele>647.4000000000001</ele>
<time>2023-05-16T08:10:46Z</time>
</trkpt>
<trkpt lat="48.75523192808032" lon="9.983994998037815">
<ele>647.5999999999999</ele>
<time>2023-05-16T08:10:47Z</time>
</trkpt>
<trkpt lat="48.75525497831404" lon="9.983954932540655">
<ele>647.5999999999999</ele>
<time>2023-05-16T08:10:48Z</time>
</trkpt>
<trkpt lat="48.75527794472873" lon="9.983911933377385">
<ele>647.8</ele>
<time>2023-05-16T08:10:49Z</time>
</trkpt>
<trkpt lat="48.7553019169718" lon="9.983869940042496">
<ele>648</ele>
<time>2023-05-16T08:10:50Z</time>
</trkpt>
<trkpt lat="48.75532295554876" lon="9.983822917565703">
<ele>648</ele>
<time>2023-05-16T08:10:51Z</time>
</trkpt>
<trkpt lat="48.755346927791834" lon="9.983777990564704">
<ele>648.2</ele>
<time>2023-05-16T08:10:52Z</time>
</trkpt>
<trkpt lat="48.755366960540414" lon="9.983734991401434">
<ele>648.2</ele>
<time>2023-05-16T08:10:53Z</time>
</trkpt>
<trkpt lat="48.75538498163223" lon="9.983692998066545">
<ele>648.4000000000001</ele>
<time>2023-05-16T08:10:54Z</time>
</trkpt>
<trkpt lat="48.75540493056178" lon="9.983651926741004">
<ele>648.4000000000001</ele>
<time>2023-05-16T08:10:55Z</time>
</trkpt>
<trkpt lat="48.7554229516536" lon="9.983607921749353">
<ele>648.5999999999999</ele>
<time>2023-05-16T08:10:56Z</time>
</trkpt>
<trkpt lat="48.75544298440218" lon="9.983566934242845">
<ele>648.5999999999999</ele>
<time>2023-05-16T08:10:57Z</time>
</trkpt>
<trkpt lat="48.75546293333173" lon="9.983524940907955">
<ele>648.8</ele>
<time>2023-05-16T08:10:58Z</time>
</trkpt>
<trkpt lat="48.75548296608031" lon="9.983477918431163">
<ele>648.8</ele>
<time>2023-05-16T08:10:59Z</time>
</trkpt>
<trkpt lat="48.755499981343746" lon="9.983434919267893">
<ele>648.8</ele>
<time>2023-05-16T08:11:00Z</time>
</trkpt>
<trkpt lat="48.75551498495042" lon="9.983392925933003">
<ele>649</ele>
<time>2023-05-16T08:11:01Z</time>
</trkpt>
<trkpt lat="48.75552797690034" lon="9.983356967568398">
<ele>649</ele>
<time>2023-05-16T08:11:02Z</time>
</trkpt>
<trkpt lat="48.755541974678636" lon="9.98331991955638">
<ele>649.2</ele>
<time>2023-05-16T08:11:03Z</time>
</trkpt>
<trkpt lat="48.75555496662855" lon="9.983286978676915">
<ele>649.2</ele>
<time>2023-05-16T08:11:04Z</time>
</trkpt>
<trkpt lat="48.75556795857847" lon="9.983246996998787">
<ele>649.2</ele>
<time>2023-05-16T08:11:05Z</time>
</trkpt>
<trkpt lat="48.7555799447" lon="9.983204919844866">
<ele>649.4000000000001</ele>
<time>2023-05-16T08:11:06Z</time>
</trkpt>
<trkpt lat="48.75559193082154" lon="9.983159992843866">
<ele>649.4000000000001</ele>
<time>2023-05-16T08:11:07Z</time>
</trkpt>
<trkpt lat="48.755604922771454" lon="9.983117999508977">
<ele>649.4000000000001</ele>
<time>2023-05-16T08:11:08Z</time>
</trkpt>
<trkpt lat="48.75562193803489" lon="9.983079945668578">
<ele>649.5999999999999</ele>
<time>2023-05-16T08:11:09Z</time>
</trkpt>
<trkpt lat="48.75563492998481" lon="9.983041975647211">
<ele>649.5999999999999</ele>
<time>2023-05-16T08:11:10Z</time>
</trkpt>
<trkpt lat="48.755644988268614" lon="9.983006939291954">
<ele>649.5999999999999</ele>
<time>2023-05-16T08:11:11Z</time>
</trkpt>
<trkpt lat="48.755651945248246" lon="9.982971986755729">
<ele>649.8</ele>
<time>2023-05-16T08:11:12Z</time>
</trkpt>
<trkpt lat="48.75566191971302" lon="9.982937956228852">
<ele>649.8</ele>
<time>2023-05-16T08:11:13Z</time>
</trkpt>
<trkpt lat="48.75567298382521" lon="9.982904931530356">
<ele>649.8</ele>
<time>2023-05-16T08:11:14Z</time>
</trkpt>
<trkpt lat="48.755687987431884" lon="9.982871990650892">
<ele>650</ele>
<time>2023-05-16T08:11:15Z</time>
</trkpt>
<trkpt lat="48.75570198521018" lon="9.982834942638874">
<ele>650</ele>
<time>2023-05-16T08:11:16Z</time>
</trkpt>
<trkpt lat="48.755714977160096" lon="9.982794960960746">
<ele>650</ele>
<time>2023-05-16T08:11:17Z</time>
</trkpt>
<trkpt lat="48.75572495162487" lon="9.98275799676776">
<ele>650.2</ele>
<time>2023-05-16T08:11:18Z</time>
</trkpt>
<trkpt lat="48.755736937746406" lon="9.982722960412502">
<ele>650.2</ele>
<time>2023-05-16T08:11:19Z</time>
</trkpt>
<trkpt lat="48.75574699603021" lon="9.982684990391135">
<ele>650.2</ele>
<time>2023-05-16T08:11:20Z</time>
</trkpt>
<trkpt lat="48.755754958838224" lon="9.982647942379117">
<ele>650.4000000000001</ele>
<time>2023-05-16T08:11:21Z</time>
</trkpt>
<trkpt lat="48.75576199963689" lon="9.982611984014511">
<ele>650.4000000000001</ele>
<time>2023-05-16T08:11:22Z</time>
</trkpt>
<trkpt lat="48.75577197410166" lon="9.982572924345732">
<ele>650.4000000000001</ele>
<time>2023-05-16T08:11:23Z</time>
</trkpt>
<trkpt lat="48.755779936909676" lon="9.982529925182462">
<ele>650.4000000000001</ele>
<time>2023-05-16T08:11:24Z</time>
</trkpt>
<trkpt lat="48.75578999519348" lon="9.982486926019192">
<ele>650.5999999999999</ele>
<time>2023-05-16T08:11:25Z</time>
</trkpt>
<trkpt lat="48.755799969658256" lon="9.982444932684302">
<ele>650.5999999999999</ele>
<time>2023-05-16T08:11:26Z</time>
</trkpt>
<trkpt lat="48.75580994412303" lon="9.982401933521032">
<ele>650.5999999999999</ele>
<time>2023-05-16T08:11:27Z</time>
</trkpt>
<trkpt lat="48.755819918587804" lon="9.982361951842904">
<ele>650.5999999999999</ele>
<time>2023-05-16T08:11:28Z</time>
</trkpt>
<trkpt lat="48.75582796521485" lon="9.982319958508015">
<ele>650.8</ele>
<time>2023-05-16T08:11:29Z</time>
</trkpt>
<trkpt lat="48.75583793967962" lon="9.982277965173125">
<ele>650.8</ele>
<time>2023-05-16T08:11:30Z</time>
</trkpt>
<trkpt lat="48.75584699213505" lon="9.982234966009855">
<ele>650.8</ele>
<time>2023-05-16T08:11:31Z</time>
</trkpt>
<trkpt lat="48.75585696659982" lon="9.982191966846585">
<ele>650.8</ele>
<time>2023-05-16T08:11:32Z</time>
</trkpt>
<trkpt lat="48.755866941064596" lon="9.982147961854935">
<ele>651</ele>
<time>2023-05-16T08:11:33Z</time>
</trkpt>
<trkpt lat="48.7558769993484" lon="9.982101945206523">
<ele>651</ele>
<time>2023-05-16T08:11:34Z</time>
</trkpt>
<trkpt lat="48.755886973813176" lon="9.982052994892001">
<ele>651</ele>
<time>2023-05-16T08:11:35Z</time>
</trkpt>
<trkpt lat="48.75589795410633" lon="9.98200697824359">
<ele>651.2</ele>
<time>2023-05-16T08:11:36Z</time>
</trkpt>
<trkpt lat="48.755909940227866" lon="9.981959955766797">
<ele>651.2</ele>
<time>2023-05-16T08:11:37Z</time>
</trkpt>
<trkpt lat="48.7559219263494" lon="9.981912933290005">
<ele>651.2</ele>
<time>2023-05-16T08:11:38Z</time>
</trkpt>
<trkpt lat="48.75593198463321" lon="9.981866916641593">
<ele>651.4000000000001</ele>
<time>2023-05-16T08:11:39Z</time>
</trkpt>
<trkpt lat="48.75594296492636" lon="9.981817966327071">
<ele>651.4000000000001</ele>
<time>2023-05-16T08:11:40Z</time>
</trkpt>
<trkpt lat="48.7559549510479" lon="9.981769938021898">
<ele>651.4000000000001</ele>
<time>2023-05-16T08:11:41Z</time>
</trkpt>
<trkpt lat="48.75596693716943" lon="9.981719981878996">
<ele>651.5999999999999</ele>
<time>2023-05-16T08:11:42Z</time>
</trkpt>
<trkpt lat="48.75597791746259" lon="9.9816679302603">
<ele>651.5999999999999</ele>
<time>2023-05-16T08:11:43Z</time>
</trkpt>
<trkpt lat="48.75598797574639" lon="9.981616968289018">
<ele>651.5999999999999</ele>
<time>2023-05-16T08:11:44Z</time>
</trkpt>
<trkpt lat="48.75599996186793" lon="9.981566928327084">
<ele>651.5999999999999</ele>
<time>2023-05-16T08:11:45Z</time>
</trkpt>
<trkpt lat="48.756011947989464" lon="9.981516972184181">
<ele>651.5999999999999</ele>
<time>2023-05-16T08:11:46Z</time>
</trkpt>
<trkpt lat="48.75602292828262" lon="9.981466932222247">
<ele>651.5999999999999</ele>
<time>2023-05-16T08:11:47Z</time>
</trkpt>
<trkpt lat="48.756032986566424" lon="9.981414964422584">
<ele>651.5999999999999</ele>
<time>2023-05-16T08:11:48Z</time>
</trkpt>
<trkpt lat="48.75604497268796" lon="9.98136492446065">
<ele>651.5999999999999</ele>
<time>2023-05-16T08:11:49Z</time>
</trkpt>
<trkpt lat="48.756054947152734" lon="9.981314968317747">
<ele>651.8</ele>
<time>2023-05-16T08:11:50Z</time>
</trkpt>
<trkpt lat="48.75606299377978" lon="9.981264928355813">
<ele>651.8</ele>
<time>2023-05-16T08:11:51Z</time>
</trkpt>
<trkpt lat="48.75606995075941" lon="9.98121497221291">
<ele>652</ele>
<time>2023-05-16T08:11:52Z</time>
</trkpt>
<trkpt lat="48.756077997386456" lon="9.981166943907738">
<ele>652</ele>
<time>2023-05-16T08:11:53Z</time>
</trkpt>
<trkpt lat="48.75608998350799" lon="9.981117993593216">
<ele>652.2</ele>
<time>2023-05-16T08:11:54Z</time>
</trkpt>
<trkpt lat="48.756099957972765" lon="9.981076922267675">
<ele>652.2</ele>
<time>2023-05-16T08:11:55Z</time>
</trkpt>
<trkpt lat="48.75610993243754" lon="9.981029983609915">
<ele>652.2</ele>
<time>2023-05-16T08:11:56Z</time>
</trkpt>
<trkpt lat="48.7561169732362" lon="9.980987990275025">
<ele>652.4000000000001</ele>
<time>2023-05-16T08:11:57Z</time>
</trkpt>
<trkpt lat="48.756121918559074" lon="9.980947924777865">
<ele>652.4000000000001</ele>
<time>2023-05-16T08:11:58Z</time>
</trkpt>
<trkpt lat="48.756124936044216" lon="9.98091196641326">
<ele>652.4000000000001</ele>
<time>2023-05-16T08:11:59Z</time>
</trkpt>
<trkpt lat="48.75612996518612" lon="9.980877935886383">
<ele>652.4000000000001</ele>
<time>2023-05-16T08:12:00Z</time>
</trkpt>
<trkpt lat="48.75613499432802" lon="9.980842983350158">
<ele>652.4000000000001</ele>
<time>2023-05-16T08:12:01Z</time>
</trkpt>
<trkpt lat="48.756141951307654" lon="9.98080694116652">
<ele>652.4000000000001</ele>
<time>2023-05-16T08:12:02Z</time>
</trkpt>
<trkpt lat="48.75614698044956" lon="9.980766959488392">
<ele>652.4000000000001</ele>
<time>2023-05-16T08:12:03Z</time>
</trkpt>
<trkpt lat="48.7561499979347" lon="9.980727983638644">
<ele>652.4000000000001</ele>
<time>2023-05-16T08:12:04Z</time>
</trkpt>
<trkpt lat="48.7561499979347" lon="9.980692947283387">
<ele>652.4000000000001</ele>
<time>2023-05-16T08:12:05Z</time>
</trkpt>
<trkpt lat="48.75614798627794" lon="9.980661934241652">
<ele>652.5999999999999</ele>
<time>2023-05-16T08:12:06Z</time>
</trkpt>
<trkpt lat="48.756144968792796" lon="9.980631927028298">
<ele>652.5999999999999</ele>
<time>2023-05-16T08:12:07Z</time>
</trkpt>
<trkpt lat="48.756144968792796" lon="9.98061197809875">
<ele>652.5999999999999</ele>
<time>2023-05-16T08:12:08Z</time>
</trkpt>
<trkpt lat="48.756144968792796" lon="9.980599991977215">
<ele>652.5999999999999</ele>
<time>2023-05-16T08:12:09Z</time>
</trkpt>
<trkpt lat="48.756144968792796" lon="9.980597980320454">
<ele>652.5999999999999</ele>
<time>2023-05-16T08:12:10Z</time>
</trkpt>
<trkpt lat="48.75614798627794" lon="9.980594962835312">
<ele>652.5999999999999</ele>
<time>2023-05-16T08:12:11Z</time>
</trkpt>
<trkpt lat="48.75615997239947" lon="9.980574930086732">
<ele>652.8</ele>
<time>2023-05-16T08:12:11Z</time>
</trkpt>
<trkpt lat="48.756162989884615" lon="9.980559926480055">
<ele>652.8</ele>
<time>2023-05-16T08:12:12Z</time>
</trkpt>
<trkpt lat="48.756162989884615" lon="9.980541989207268">
<ele>652.8</ele>
<time>2023-05-16T08:12:13Z</time>
</trkpt>
<trkpt lat="48.75616994686425" lon="9.980517933145165">
<ele>652.8</ele>
<time>2023-05-16T08:12:14Z</time>
</trkpt>
<trkpt lat="48.75617698766291" lon="9.980491949245334">
<ele>652.8</ele>
<time>2023-05-16T08:12:15Z</time>
</trkpt>
<trkpt lat="48.756184950470924" lon="9.980466971173882">
<ele>652.8</ele>
<time>2023-05-16T08:12:16Z</time>
</trkpt>
<trkpt lat="48.7561999540776" lon="9.980446938425303">
<ele>652.8</ele>
<time>2023-05-16T08:12:17Z</time>
</trkpt>
<trkpt lat="48.75621194019914" lon="9.980426989495754">
<ele>652.8</ele>
<time>2023-05-16T08:12:18Z</time>
</trkpt>
<trkpt lat="48.75621797516942" lon="9.980402933433652">
<ele>652.8</ele>
<time>2023-05-16T08:12:19Z</time>
</trkpt>
<trkpt lat="48.756226943805814" lon="9.9803779553622">
<ele>652.8</ele>
<time>2023-05-16T08:12:20Z</time>
</trkpt>
<trkpt lat="48.75623197294772" lon="9.980351971462369">
<ele>652.8</ele>
<time>2023-05-16T08:12:21Z</time>
</trkpt>
<trkpt lat="48.75623792409897" lon="9.980324981734157">
<ele>652.8</ele>
<time>2023-05-16T08:12:22Z</time>
</trkpt>
<trkpt lat="48.75624295324087" lon="9.980296986177564">
<ele>653</ele>
<time>2023-05-16T08:12:23Z</time>
</trkpt>
<trkpt lat="48.756246976554394" lon="9.980269996449351">
<ele>653</ele>
<time>2023-05-16T08:12:24Z</time>
</trkpt>
<trkpt lat="48.756249994039536" lon="9.98024795204401">
<ele>653</ele>
<time>2023-05-16T08:12:25Z</time>
</trkpt>
<trkpt lat="48.756249994039536" lon="9.980236971750855">
<ele>653.2</ele>
<time>2023-05-16T08:12:26Z</time>
</trkpt>
<trkpt lat="48.756247982382774" lon="9.980234960094094">
<ele>653.2</ele>
<time>2023-05-16T08:12:27Z</time>
</trkpt>
<trkpt lat="48.756246976554394" lon="9.980234960094094">
<ele>653.8</ele>
<time>2023-05-16T08:12:27Z</time>
</trkpt>
<trkpt lat="48.75625996850431" lon="9.980171928182244">
<ele>653.4000000000001</ele>
<time>2023-05-16T08:12:33Z</time>
</trkpt>
<trkpt lat="48.75626793131232" lon="9.980144938454032">
<ele>653.4000000000001</ele>
<time>2023-05-16T08:12:34Z</time>
</trkpt>
<trkpt lat="48.75627798959613" lon="9.980116942897439">
<ele>653.5999999999999</ele>
<time>2023-05-16T08:12:35Z</time>
</trkpt>
<trkpt lat="48.7562879640609" lon="9.980082996189594">
<ele>653.5999999999999</ele>
<time>2023-05-16T08:12:36Z</time>
</trkpt>
<trkpt lat="48.75629793852568" lon="9.980044942349195">
<ele>653.5999999999999</ele>
<time>2023-05-16T08:12:37Z</time>
</trkpt>
<trkpt lat="48.7563069909811" lon="9.979999931529164">
<ele>653.5999999999999</ele>
<time>2023-05-16T08:12:38Z</time>
</trkpt>
<trkpt lat="48.75631193630397" lon="9.979952992871404">
<ele>653.5999999999999</ele>
<time>2023-05-16T08:12:39Z</time>
</trkpt>
<trkpt lat="48.756316965445876" lon="9.979901947081089">
<ele>653.8</ele>
<time>2023-05-16T08:12:40Z</time>
</trkpt>
<trkpt lat="48.75632199458778" lon="9.979842938482761">
<ele>653.8</ele>
<time>2023-05-16T08:12:41Z</time>
</trkpt>
<trkpt lat="48.75632794573903" lon="9.979782924056053">
<ele>654</ele>
<time>2023-05-16T08:12:42Z</time>
</trkpt>
<trkpt lat="48.756334986537695" lon="9.979721987619996">
<ele>654.2</ele>
<time>2023-05-16T08:12:43Z</time>
</trkpt>
<trkpt lat="48.75634496100247" lon="9.979662979021668">
<ele>654.4000000000001</ele>
<time>2023-05-16T08:12:44Z</time>
</trkpt>
<trkpt lat="48.75635493546724" lon="9.979606987908483">
<ele>654.5999999999999</ele>
<time>2023-05-16T08:12:45Z</time>
</trkpt>
<trkpt lat="48.75636298209429" lon="9.979551918804646">
<ele>654.8</ele>
<time>2023-05-16T08:12:46Z</time>
</trkpt>
<trkpt lat="48.75637295655906" lon="9.97949793934822">
<ele>655</ele>
<time>2023-05-16T08:12:47Z</time>
</trkpt>
<trkpt lat="48.756381925195456" lon="9.979442954063416">
<ele>655.2</ele>
<time>2023-05-16T08:12:48Z</time>
</trkpt>
<trkpt lat="48.7563899718225" lon="9.979391992092133">
<ele>655.4000000000001</ele>
<time>2023-05-16T08:12:49Z</time>
</trkpt>
<trkpt lat="48.75639491714537" lon="9.979336922988296">
<ele>655.5999999999999</ele>
<time>2023-05-16T08:12:50Z</time>
</trkpt>
<trkpt lat="48.756399946287274" lon="9.97928193770349">
<ele>656</ele>
<time>2023-05-16T08:12:51Z</time>
</trkpt>
<trkpt lat="48.75640698708594" lon="9.979226952418685">
<ele>656.2</ele>
<time>2023-05-16T08:12:52Z</time>
</trkpt>
<trkpt lat="48.75641193240881" lon="9.979169955477118">
<ele>656.4000000000001</ele>
<time>2023-05-16T08:12:53Z</time>
</trkpt>
<trkpt lat="48.75641696155071" lon="9.979114970192313">
<ele>656.5999999999999</ele>
<time>2023-05-16T08:12:54Z</time>
</trkpt>
<trkpt lat="48.75641696155071" lon="9.979059984907508">
<ele>656.8</ele>
<time>2023-05-16T08:12:55Z</time>
</trkpt>
<trkpt lat="48.75641494989395" lon="9.979004999622703">
<ele>657</ele>
<time>2023-05-16T08:12:56Z</time>
</trkpt>
<trkpt lat="48.75641696155071" lon="9.978949930518866">
<ele>657.2</ele>
<time>2023-05-16T08:12:57Z</time>
</trkpt>
<trkpt lat="48.756419979035854" lon="9.978891927748919">
<ele>657.4000000000001</ele>
<time>2023-05-16T08:12:58Z</time>
</trkpt>
<trkpt lat="48.756419979035854" lon="9.978831997141242">
<ele>657.5999999999999</ele>
<time>2023-05-16T08:12:59Z</time>
</trkpt>
<trkpt lat="48.75641696155071" lon="9.978767959401011">
<ele>657.5999999999999</ele>
<time>2023-05-16T08:13:00Z</time>
</trkpt>
<trkpt lat="48.75641494989395" lon="9.978709956631064">
<ele>657.8</ele>
<time>2023-05-16T08:13:01Z</time>
</trkpt>
<trkpt lat="48.75641193240881" lon="9.9786579888314">
<ele>657.8</ele>
<time>2023-05-16T08:13:02Z</time>
</trkpt>
<trkpt lat="48.75640992075205" lon="9.978606943041086">
<ele>658</ele>
<time>2023-05-16T08:13:03Z</time>
</trkpt>
<trkpt lat="48.75641193240881" lon="9.978556986898184">
<ele>658</ele>
<time>2023-05-16T08:13:04Z</time>
</trkpt>
<trkpt lat="48.75641193240881" lon="9.97850694693625">
<ele>658.2</ele>
<time>2023-05-16T08:13:05Z</time>
</trkpt>
<trkpt lat="48.75641193240881" lon="9.978451961651444">
<ele>658.2</ele>
<time>2023-05-16T08:13:06Z</time>
</trkpt>
<trkpt lat="48.75641494989395" lon="9.978389935567975">
<ele>658.2</ele>
<time>2023-05-16T08:13:07Z</time>
</trkpt>
<trkpt lat="48.75641193240881" lon="9.978324975818396">
<ele>658.4000000000001</ele>
<time>2023-05-16T08:13:08Z</time>
</trkpt>
<trkpt lat="48.75641193240881" lon="9.978259932249784">
<ele>658.4000000000001</ele>
<time>2023-05-16T08:13:09Z</time>
</trkpt>
<trkpt lat="48.75640992075205" lon="9.978189943358302">
<ele>658.4000000000001</ele>
<time>2023-05-16T08:13:10Z</time>
</trkpt>
<trkpt lat="48.75640799291432" lon="9.978117942810059">
<ele>658.5999999999999</ele>
<time>2023-05-16T08:13:11Z</time>
</trkpt>
<trkpt lat="48.75640497542918" lon="9.978046948090196">
<ele>658.5999999999999</ele>
<time>2023-05-16T08:13:12Z</time>
</trkpt>
<trkpt lat="48.756399946287274" lon="9.977976959198713">
<ele>658.5999999999999</ele>
<time>2023-05-16T08:13:13Z</time>
</trkpt>
<trkpt lat="48.75639491714537" lon="9.977902946993709">
<ele>658.5999999999999</ele>
<time>2023-05-16T08:13:14Z</time>
</trkpt>
<trkpt lat="48.75638796016574" lon="9.977832958102226">
<ele>658.8</ele>
<time>2023-05-16T08:13:15Z</time>
</trkpt>
<trkpt lat="48.756382931023836" lon="9.977761963382363">
<ele>658.8</ele>
<time>2023-05-16T08:13:16Z</time>
</trkpt>
<trkpt lat="48.756377985700965" lon="9.977691974490881">
<ele>658.8</ele>
<time>2023-05-16T08:13:17Z</time>
</trkpt>
<trkpt lat="48.75637496821582" lon="9.977619973942637">
<ele>659</ele>
<time>2023-05-16T08:13:18Z</time>
</trkpt>
<trkpt lat="48.75637195073068" lon="9.97754193842411">
<ele>659</ele>
<time>2023-05-16T08:13:19Z</time>
</trkpt>
<trkpt lat="48.75636499375105" lon="9.977461975067854">
<ele>659</ele>
<time>2023-05-16T08:13:20Z</time>
</trkpt>
<trkpt lat="48.756357952952385" lon="9.977371953427792">
<ele>659</ele>
<time>2023-05-16T08:13:21Z</time>
</trkpt>
<trkpt lat="48.75635493546724" lon="9.97728193178773">
<ele>659</ele>
<time>2023-05-16T08:13:22Z</time>
</trkpt>
<trkpt lat="48.75635292381048" lon="9.977191993966699">
<ele>659.2</ele>
<time>2023-05-16T08:13:23Z</time>
</trkpt>
<trkpt lat="48.7563519179821" lon="9.977102978155017">
<ele>659.2</ele>
<time>2023-05-16T08:13:24Z</time>
</trkpt>
<trkpt lat="48.75634999014437" lon="9.977012956514955">
<ele>659.2</ele>
<time>2023-05-16T08:13:25Z</time>
</trkpt>
<trkpt lat="48.75634697265923" lon="9.976921929046512">
<ele>659.2</ele>
<time>2023-05-16T08:13:26Z</time>
</trkpt>
<trkpt lat="48.75634496100247" lon="9.976834924891591">
<ele>659.4000000000001</ele>
<time>2023-05-16T08:13:27Z</time>
</trkpt>
<trkpt lat="48.75634697265923" lon="9.976751944050193">
<ele>659.4000000000001</ele>
<time>2023-05-16T08:13:28Z</time>
</trkpt>
<trkpt lat="48.75634496100247" lon="9.976667957380414">
<ele>659.4000000000001</ele>
<time>2023-05-16T08:13:29Z</time>
</trkpt>
<trkpt lat="48.75634294934571" lon="9.976587994024158">
<ele>659.4000000000001</ele>
<time>2023-05-16T08:13:30Z</time>
</trkpt>
<trkpt lat="48.75634294934571" lon="9.97650995850563">
<ele>659.4000000000001</ele>
<time>2023-05-16T08:13:31Z</time>
</trkpt>
<trkpt lat="48.75634294934571" lon="9.976432928815484">
<ele>659.4000000000001</ele>
<time>2023-05-16T08:13:32Z</time>
</trkpt>
<trkpt lat="48.75634496100247" lon="9.97635698877275">
<ele>659.4000000000001</ele>
<time>2023-05-16T08:13:33Z</time>
</trkpt>
<trkpt lat="48.75634697265923" lon="9.976286999881268">
<ele>659.4000000000001</ele>
<time>2023-05-16T08:13:34Z</time>
</trkpt>
<trkpt lat="48.75634797848761" lon="9.976217932999134">
<ele>659.4000000000001</ele>
<time>2023-05-16T08:13:35Z</time>
</trkpt>
<trkpt lat="48.7563519179821" lon="9.976152973249555">
<ele>659.4000000000001</ele>
<time>2023-05-16T08:13:36Z</time>
</trkpt>
<trkpt lat="48.756356947124004" lon="9.976086923852563">
<ele>659.4000000000001</ele>
<time>2023-05-16T08:13:37Z</time>
</trkpt>
<trkpt lat="48.75636499375105" lon="9.976019952446222">
<ele>659.5999999999999</ele>
<time>2023-05-16T08:13:38Z</time>
</trkpt>
<trkpt lat="48.75636993907392" lon="9.975956920534372">
<ele>659.5999999999999</ele>
<time>2023-05-16T08:13:39Z</time>
</trkpt>
<trkpt lat="48.75637295655906" lon="9.975897995755076">
<ele>659.5999999999999</ele>
<time>2023-05-16T08:13:40Z</time>
</trkpt>
<trkpt lat="48.756376979872584" lon="9.975841920822859">
<ele>659.5999999999999</ele>
<time>2023-05-16T08:13:41Z</time>
</trkpt>
<trkpt lat="48.756379997357726" lon="9.975787941366434">
<ele>659.5999999999999</ele>
<time>2023-05-16T08:13:42Z</time>
</trkpt>
<trkpt lat="48.756382931023836" lon="9.97573496773839">
<ele>659.8</ele>
<time>2023-05-16T08:13:43Z</time>
</trkpt>
<trkpt lat="48.75639198347926" lon="9.975674953311682">
<ele>659.8</ele>
<time>2023-05-16T08:13:44Z</time>
</trkpt>
<trkpt lat="48.756399946287274" lon="9.975611921399832">
<ele>659.8</ele>
<time>2023-05-16T08:13:45Z</time>
</trkpt>
<trkpt lat="48.75640992075205" lon="9.975544949993491">
<ele>660</ele>
<time>2023-05-16T08:13:46Z</time>
</trkpt>
<trkpt lat="48.756419979035854" lon="9.975479990243912">
<ele>660</ele>
<time>2023-05-16T08:13:47Z</time>
</trkpt>
<trkpt lat="48.75643297098577" lon="9.975419975817204">
<ele>660</ele>
<time>2023-05-16T08:13:48Z</time>
</trkpt>
<trkpt lat="48.75644696876407" lon="9.975362978875637">
<ele>660.2</ele>
<time>2023-05-16T08:13:49Z</time>
</trkpt>
<trkpt lat="48.756461972370744" lon="9.975309921428561">
<ele>660.2</ele>
<time>2023-05-16T08:13:50Z</time>
</trkpt>
<trkpt lat="48.75647999346256" lon="9.97526197694242">
<ele>660.2</ele>
<time>2023-05-16T08:13:51Z</time>
</trkpt>
<trkpt lat="48.75649793073535" lon="9.975214954465628">
<ele>660.4000000000001</ele>
<time>2023-05-16T08:13:52Z</time>
</trkpt>
<trkpt lat="48.75651997514069" lon="9.975169943645597">
<ele>660.4000000000001</ele>
<time>2023-05-16T08:13:53Z</time>
</trkpt>
<trkpt lat="48.756541935727" lon="9.975126944482327">
<ele>660.4000000000001</ele>
<time>2023-05-16T08:13:54Z</time>
</trkpt>
<trkpt lat="48.75656297430396" lon="9.975082939490676">
<ele>660.4000000000001</ele>
<time>2023-05-16T08:13:55Z</time>
</trkpt>
<trkpt lat="48.75658292323351" lon="9.975042957812548">
<ele>660.4000000000001</ele>
<time>2023-05-16T08:13:56Z</time>
</trkpt>
<trkpt lat="48.75660496763885" lon="9.97500792145729">
<ele>660.5999999999999</ele>
<time>2023-05-16T08:13:57Z</time>
</trkpt>
<trkpt lat="48.75662298873067" lon="9.974971963092685">
<ele>660.5999999999999</ele>
<time>2023-05-16T08:13:58Z</time>
</trkpt>
<trkpt lat="48.75664293766022" lon="9.974934998899698">
<ele>660.5999999999999</ele>
<time>2023-05-16T08:13:59Z</time>
</trkpt>
<trkpt lat="48.75666498206556" lon="9.9748969450593">
<ele>660.8</ele>
<time>2023-05-16T08:14:00Z</time>
</trkpt>
<trkpt lat="48.75668694265187" lon="9.974856963381171">
<ele>660.8</ele>
<time>2023-05-16T08:14:01Z</time>
</trkpt>
<trkpt lat="48.75670798122883" lon="9.974819999188185">
<ele>660.8</ele>
<time>2023-05-16T08:14:02Z</time>
</trkpt>
<trkpt lat="48.75672994181514" lon="9.974779933691025">
<ele>661</ele>
<time>2023-05-16T08:14:03Z</time>
</trkpt>
<trkpt lat="48.75674997456372" lon="9.974741963669658">
<ele>661</ele>
<time>2023-05-16T08:14:04Z</time>
</trkpt>
<trkpt lat="48.756766989827156" lon="9.97470298781991">
<ele>661.2</ele>
<time>2023-05-16T08:14:05Z</time>
</trkpt>
<trkpt lat="48.75678492709994" lon="9.974664933979511">
<ele>661.2</ele>
<time>2023-05-16T08:14:06Z</time>
</trkpt>
<trkpt lat="48.75680294819176" lon="9.974626963958144">
<ele>661.4000000000001</ele>
<time>2023-05-16T08:14:07Z</time>
</trkpt>
<trkpt lat="48.7568249925971" lon="9.974584970623255">
<ele>661.4000000000001</ele>
<time>2023-05-16T08:14:08Z</time>
</trkpt>
<trkpt lat="48.75684192404151" lon="9.97453493066132">
<ele>661.4000000000001</ele>
<time>2023-05-16T08:14:09Z</time>
</trkpt>
<trkpt lat="48.75685692764819" lon="9.97448799200356">
<ele>661.5999999999999</ele>
<time>2023-05-16T08:14:10Z</time>
</trkpt>
<trkpt lat="48.756872937083244" lon="9.974432922899723">
<ele>661.5999999999999</ele>
<time>2023-05-16T08:14:11Z</time>
</trkpt>
<trkpt lat="48.75688693486154" lon="9.974376931786537">
<ele>661.5999999999999</ele>
<time>2023-05-16T08:14:12Z</time>
</trkpt>
<trkpt lat="48.75689799897373" lon="9.97431792318821">
<ele>661.5999999999999</ele>
<time>2023-05-16T08:14:13Z</time>
</trkpt>
<trkpt lat="48.7569079734385" lon="9.974261932075024">
<ele>661.5999999999999</ele>
<time>2023-05-16T08:14:14Z</time>
</trkpt>
<trkpt lat="48.75691995956004" lon="9.974202923476696">
<ele>661.8</ele>
<time>2023-05-16T08:14:15Z</time>
</trkpt>
<trkpt lat="48.75693295150995" lon="9.974144920706749">
<ele>661.8</ele>
<time>2023-05-16T08:14:16Z</time>
</trkpt>
<trkpt lat="48.75694694928825" lon="9.974086917936802">
<ele>661.8</ele>
<time>2023-05-16T08:14:17Z</time>
</trkpt>
<trkpt lat="48.75696295872331" lon="9.974027993157506">
<ele>661.8</ele>
<time>2023-05-16T08:14:18Z</time>
</trkpt>
<trkpt lat="48.756977962329984" lon="9.973969990387559">
<ele>662</ele>
<time>2023-05-16T08:14:19Z</time>
</trkpt>
<trkpt lat="48.75699296593666" lon="9.97390997596085">
<ele>662</ele>
<time>2023-05-16T08:14:20Z</time>
</trkpt>
<trkpt lat="48.75701199285686" lon="9.973847949877381">
<ele>662</ele>
<time>2023-05-16T08:14:21Z</time>
</trkpt>
<trkpt lat="48.75702993012965" lon="9.973782990127802">
<ele>662</ele>
<time>2023-05-16T08:14:22Z</time>
</trkpt>
<trkpt lat="48.757046945393085" lon="9.97371794655919">
<ele>662</ele>
<time>2023-05-16T08:14:23Z</time>
</trkpt>
<trkpt lat="48.757067983970046" lon="9.973657932132483">
<ele>662</ele>
<time>2023-05-16T08:14:24Z</time>
</trkpt>
<trkpt lat="48.75709195621312" lon="9.973597917705774">
<ele>662</ele>
<time>2023-05-16T08:14:25Z</time>
</trkpt>
<trkpt lat="48.7571119889617" lon="9.973539998754859">
<ele>662.2</ele>
<time>2023-05-16T08:14:26Z</time>
</trkpt>
<trkpt lat="48.757129926234484" lon="9.97348291799426">
<ele>662.2</ele>
<time>2023-05-16T08:14:27Z</time>
</trkpt>
<trkpt lat="48.75714694149792" lon="9.973424999043345">
<ele>662.2</ele>
<time>2023-05-16T08:14:28Z</time>
</trkpt>
<trkpt lat="48.75716496258974" lon="9.973367918282747">
<ele>662.2</ele>
<time>2023-05-16T08:14:29Z</time>
</trkpt>
<trkpt lat="48.75717996619642" lon="9.973309999331832">
<ele>662.2</ele>
<time>2023-05-16T08:14:30Z</time>
</trkpt>
<trkpt lat="48.757194969803095" lon="9.973249984905124">
<ele>662.4000000000001</ele>
<time>2023-05-16T08:14:31Z</time>
</trkpt>
<trkpt lat="48.75721198506653" lon="9.973191982135177">
<ele>662.4000000000001</ele>
<time>2023-05-16T08:14:32Z</time>
</trkpt>
<trkpt lat="48.75722799450159" lon="9.97313498519361">
<ele>662.4000000000001</ele>
<time>2023-05-16T08:14:33Z</time>
</trkpt>
<trkpt lat="48.75724693760276" lon="9.973076982423663">
<ele>662.4000000000001</ele>
<time>2023-05-16T08:14:34Z</time>
</trkpt>
<trkpt lat="48.757261941209435" lon="9.973017973825336">
<ele>662.4000000000001</ele>
<time>2023-05-16T08:14:35Z</time>
</trkpt>
<trkpt lat="48.75727694481611" lon="9.972956953570247">
<ele>662.4000000000001</ele>
<time>2023-05-16T08:14:36Z</time>
</trkpt>
<trkpt lat="48.75728993676603" lon="9.972896939143538">
<ele>662.4000000000001</ele>
<time>2023-05-16T08:14:37Z</time>
</trkpt>
<trkpt lat="48.75730795785785" lon="9.9728349968791">
<ele>662.4000000000001</ele>
<time>2023-05-16T08:14:38Z</time>
</trkpt>
<trkpt lat="48.757322961464524" lon="9.972774982452393">
<ele>662.4000000000001</ele>
<time>2023-05-16T08:14:39Z</time>
</trkpt>
<trkpt lat="48.7573379650712" lon="9.972717985510826">
<ele>662.4000000000001</ele>
<time>2023-05-16T08:14:40Z</time>
</trkpt>
<trkpt lat="48.75735498033464" lon="9.972662916406989">
<ele>662.4000000000001</ele>
<time>2023-05-16T08:14:41Z</time>
</trkpt>
<trkpt lat="48.75737199559808" lon="9.972604997456074">
<ele>662.4000000000001</ele>
<time>2023-05-16T08:14:42Z</time>
</trkpt>
<trkpt lat="48.757389932870865" lon="9.972546994686127">
<ele>662.4000000000001</ele>
<time>2023-05-16T08:14:43Z</time>
</trkpt>
<trkpt lat="48.757409965619445" lon="9.972486980259418">
<ele>662.4000000000001</ele>
<time>2023-05-16T08:14:44Z</time>
</trkpt>
<trkpt lat="48.757427986711264" lon="9.97242696583271">
<ele>662.4000000000001</ele>
<time>2023-05-16T08:14:45Z</time>
</trkpt>
<trkpt lat="48.75744994729757" lon="9.97236493974924">
<ele>662.4000000000001</ele>
<time>2023-05-16T08:14:46Z</time>
</trkpt>
<trkpt lat="48.757471991702914" lon="9.972306936979294">
<ele>662.4000000000001</ele>
<time>2023-05-16T08:14:47Z</time>
</trkpt>
<trkpt lat="48.75749194063246" lon="9.972247928380966">
<ele>662.4000000000001</ele>
<time>2023-05-16T08:14:48Z</time>
</trkpt>
<trkpt lat="48.75750996172428" lon="9.972192943096161">
<ele>662.4000000000001</ele>
<time>2023-05-16T08:14:49Z</time>
</trkpt>
<trkpt lat="48.75752697698772" lon="9.97214499861002">
<ele>662.4000000000001</ele>
<time>2023-05-16T08:14:50Z</time>
</trkpt>
<trkpt lat="48.7575419805944" lon="9.972097976133227">
<ele>662.5999999999999</ele>
<time>2023-05-16T08:14:51Z</time>
</trkpt>
<trkpt lat="48.75755296088755" lon="9.972042990848422">
<ele>662.5999999999999</ele>
<time>2023-05-16T08:14:52Z</time>
</trkpt>
<trkpt lat="48.75756695866585" lon="9.971982976421714">
<ele>662.5999999999999</ele>
<time>2023-05-16T08:14:53Z</time>
</trkpt>
<trkpt lat="48.757577938959" lon="9.971919944509864">
<ele>662.5999999999999</ele>
<time>2023-05-16T08:14:54Z</time>
</trkpt>
<trkpt lat="48.75759294256568" lon="9.971862947568297">
<ele>662.5999999999999</ele>
<time>2023-05-16T08:14:55Z</time>
</trkpt>
<trkpt lat="48.75760995782912" lon="9.971807962283492">
<ele>662.5999999999999</ele>
<time>2023-05-16T08:14:56Z</time>
</trkpt>
<trkpt lat="48.757626973092556" lon="9.971751971170306">
<ele>662.5999999999999</ele>
<time>2023-05-16T08:14:57Z</time>
</trkpt>
<trkpt lat="48.75764197669923" lon="9.971691956743598">
<ele>662.8</ele>
<time>2023-05-16T08:14:58Z</time>
</trkpt>
<trkpt lat="48.75765295699239" lon="9.97163194231689">
<ele>662.8</ele>
<time>2023-05-16T08:14:59Z</time>
</trkpt>
<trkpt lat="48.75765798613429" lon="9.971576957032084">
<ele>662.8</ele>
<time>2023-05-16T08:15:00Z</time>
</trkpt>
<trkpt lat="48.757666954770684" lon="9.97152297757566">
<ele>662.8</ele>
<time>2023-05-16T08:15:01Z</time>
</trkpt>
<trkpt lat="48.7576749175787" lon="9.971474949270487">
<ele>662.8</ele>
<time>2023-05-16T08:15:02Z</time>
</trkpt>
<trkpt lat="48.757686987519264" lon="9.971429938450456">
<ele>663</ele>
<time>2023-05-16T08:15:03Z</time>
</trkpt>
<trkpt lat="48.75769997946918" lon="9.971382999792695">
<ele>663</ele>
<time>2023-05-16T08:15:04Z</time>
</trkpt>
<trkpt lat="48.75771992839873" lon="9.971334971487522">
<ele>663</ele>
<time>2023-05-16T08:15:05Z</time>
</trkpt>
<trkpt lat="48.75773996114731" lon="9.971289960667491">
<ele>663</ele>
<time>2023-05-16T08:15:06Z</time>
</trkpt>
<trkpt lat="48.75775798223913" lon="9.97124494984746">
<ele>663</ele>
<time>2023-05-16T08:15:07Z</time>
</trkpt>
<trkpt lat="48.757777931168675" lon="9.971197927370667">
<ele>663.2</ele>
<time>2023-05-16T08:15:08Z</time>
</trkpt>
<trkpt lat="48.75779997557402" lon="9.971156939864159">
<ele>663.2</ele>
<time>2023-05-16T08:15:09Z</time>
</trkpt>
<trkpt lat="48.757821936160326" lon="9.97111695818603">
<ele>663.2</ele>
<time>2023-05-16T08:15:10Z</time>
</trkpt>
<trkpt lat="48.75784297473729" lon="9.97107295319438">
<ele>663.2</ele>
<time>2023-05-16T08:15:11Z</time>
</trkpt>
<trkpt lat="48.757864935323596" lon="9.971031965687871">
<ele>663.4000000000001</ele>
<time>2023-05-16T08:15:12Z</time>
</trkpt>
<trkpt lat="48.75788697972894" lon="9.97098796069622">
<ele>663.4000000000001</ele>
<time>2023-05-16T08:15:13Z</time>
</trkpt>
<trkpt lat="48.757907934486866" lon="9.970946973189712">
<ele>663.5999999999999</ele>
<time>2023-05-16T08:15:14Z</time>
</trkpt>
<trkpt lat="48.75792997889221" lon="9.970904979854822">
<ele>663.5999999999999</ele>
<time>2023-05-16T08:15:15Z</time>
</trkpt>
<trkpt lat="48.75795193947852" lon="9.970862986519933">
<ele>663.8</ele>
<time>2023-05-16T08:15:16Z</time>
</trkpt>
<trkpt lat="48.75797297805548" lon="9.970817975699902">
<ele>664</ele>
<time>2023-05-16T08:15:17Z</time>
</trkpt>
<trkpt lat="48.757992926985025" lon="9.97077296487987">
<ele>664.2</ele>
<time>2023-05-16T08:15:18Z</time>
</trkpt>
<trkpt lat="48.758009942248464" lon="9.970736922696233">
<ele>664.2</ele>
<time>2023-05-16T08:15:19Z</time>
</trkpt>
<trkpt lat="48.75802293419838" lon="9.970696941018105">
<ele>664.4000000000001</ele>
<time>2023-05-16T08:15:20Z</time>
</trkpt>
<trkpt lat="48.758036931976676" lon="9.970659976825118">
<ele>664.5999999999999</ele>
<time>2023-05-16T08:15:21Z</time>
</trkpt>
<trkpt lat="48.758052941411734" lon="9.9706229288131">
<ele>664.5999999999999</ele>
<time>2023-05-16T08:15:22Z</time>
</trkpt>
<trkpt lat="48.758074985817075" lon="9.970587976276875">
<ele>664.8</ele>
<time>2023-05-16T08:15:23Z</time>
</trkpt>
<trkpt lat="48.75809191726148" lon="9.970552939921618">
<ele>665</ele>
<time>2023-05-16T08:15:24Z</time>
</trkpt>
<trkpt lat="48.75810692086816" lon="9.970517987385392">
<ele>665.2</ele>
<time>2023-05-16T08:15:25Z</time>
</trkpt>
<trkpt lat="48.758122930303216" lon="9.970482951030135">
<ele>665.4000000000001</ele>
<time>2023-05-16T08:15:26Z</time>
</trkpt>
<trkpt lat="48.758139945566654" lon="9.970444981008768">
<ele>665.5999999999999</ele>
<time>2023-05-16T08:15:27Z</time>
</trkpt>
<trkpt lat="48.758159978315234" lon="9.970409944653511">
<ele>665.8</ele>
<time>2023-05-16T08:15:28Z</time>
</trkpt>
<trkpt lat="48.75817799940705" lon="9.970371974632144">
<ele>665.8</ele>
<time>2023-05-16T08:15:29Z</time>
</trkpt>
<trkpt lat="48.7581979483366" lon="9.970332998782396">
<ele>666</ele>
<time>2023-05-16T08:15:30Z</time>
</trkpt>
<trkpt lat="48.7582169752568" lon="9.970294944941998">
<ele>666.2</ele>
<time>2023-05-16T08:15:31Z</time>
</trkpt>
<trkpt lat="48.75823793001473" lon="9.970252951607108">
<ele>666.2</ele>
<time>2023-05-16T08:15:32Z</time>
</trkpt>
<trkpt lat="48.75825695693493" lon="9.9702119641006">
<ele>666.4000000000001</ele>
<time>2023-05-16T08:15:33Z</time>
</trkpt>
<trkpt lat="48.75827698968351" lon="9.970167959108949">
<ele>666.5999999999999</ele>
<time>2023-05-16T08:15:34Z</time>
</trkpt>
<trkpt lat="48.75829299911857" lon="9.970129989087582">
<ele>666.5999999999999</ele>
<time>2023-05-16T08:15:35Z</time>
</trkpt>
<trkpt lat="48.758312948048115" lon="9.970087995752692">
<ele>666.5999999999999</ele>
<time>2023-05-16T08:15:36Z</time>
</trkpt>
<trkpt lat="48.758331974968314" lon="9.970051953569055">
<ele>666.5999999999999</ele>
<time>2023-05-16T08:15:37Z</time>
</trkpt>
<trkpt lat="48.75834697857499" lon="9.970012977719307">
<ele>666.5999999999999</ele>
<time>2023-05-16T08:15:38Z</time>
</trkpt>
<trkpt lat="48.75836198218167" lon="9.969969978556037">
<ele>666.5999999999999</ele>
<time>2023-05-16T08:15:39Z</time>
</trkpt>
<trkpt lat="48.758377991616726" lon="9.969931924715638">
<ele>666.5999999999999</ele>
<time>2023-05-16T08:15:40Z</time>
</trkpt>
<trkpt lat="48.758397940546274" lon="9.96989294886589">
<ele>666.5999999999999</ele>
<time>2023-05-16T08:15:41Z</time>
</trkpt>
<trkpt lat="48.758416967466474" lon="9.96984994970262">
<ele>666.4000000000001</ele>
<time>2023-05-16T08:15:42Z</time>
</trkpt>
<trkpt lat="48.75843197107315" lon="9.96980493888259">
<ele>666.4000000000001</ele>
<time>2023-05-16T08:15:43Z</time>
</trkpt>
<trkpt lat="48.75844999216497" lon="9.969752971082926">
<ele>666.4000000000001</ele>
<time>2023-05-16T08:15:44Z</time>
</trkpt>
<trkpt lat="48.75847195275128" lon="9.969702931120992">
<ele>666.2</ele>
<time>2023-05-16T08:15:45Z</time>
</trkpt>
<trkpt lat="48.75849198549986" lon="9.969646940007806">
<ele>666</ele>
<time>2023-05-16T08:15:46Z</time>
</trkpt>
<trkpt lat="48.75851193442941" lon="9.969591954723">
<ele>666</ele>
<time>2023-05-16T08:15:47Z</time>
</trkpt>
<trkpt lat="48.75853699631989" lon="9.969532946124673">
<ele>665.8</ele>
<time>2023-05-16T08:15:48Z</time>
</trkpt>
<trkpt lat="48.75855795107782" lon="9.969474943354726">
<ele>665.8</ele>
<time>2023-05-16T08:15:49Z</time>
</trkpt>
<trkpt lat="48.75857999548316" lon="9.96941794641316">
<ele>665.5999999999999</ele>
<time>2023-05-16T08:15:50Z</time>
</trkpt>
<trkpt lat="48.75860497355461" lon="9.969359943643212">
<ele>665.4000000000001</ele>
<time>2023-05-16T08:15:51Z</time>
</trkpt>
<trkpt lat="48.758631963282824" lon="9.969304958358407">
<ele>665.2</ele>
<time>2023-05-16T08:15:52Z</time>
</trkpt>
<trkpt lat="48.758656941354275" lon="9.969251984730363">
<ele>665</ele>
<time>2023-05-16T08:15:53Z</time>
</trkpt>
<trkpt lat="48.75868493691087" lon="9.969196999445558">
<ele>664.8</ele>
<time>2023-05-16T08:15:54Z</time>
</trkpt>
<trkpt lat="48.75871293246746" lon="9.969142936170101">
<ele>664.8</ele>
<time>2023-05-16T08:15:55Z</time>
</trkpt>
<trkpt lat="48.75873992219567" lon="9.969091974198818">
<ele>664.5999999999999</ele>
<time>2023-05-16T08:15:56Z</time>
</trkpt>
<trkpt lat="48.75876699574292" lon="9.969039922580123">
<ele>664.4000000000001</ele>
<time>2023-05-16T08:15:57Z</time>
</trkpt>
<trkpt lat="48.75879691913724" lon="9.968991978093982">
<ele>664.4000000000001</ele>
<time>2023-05-16T08:15:58Z</time>
</trkpt>
<trkpt lat="48.758824998512864" lon="9.96894696727395">
<ele>664.2</ele>
<time>2023-05-16T08:15:59Z</time>
</trkpt>
<trkpt lat="48.75885198824108" lon="9.96890195645392">
<ele>664.2</ele>
<time>2023-05-16T08:16:00Z</time>
</trkpt>
<trkpt lat="48.75887998379767" lon="9.96885996311903">
<ele>664</ele>
<time>2023-05-16T08:16:01Z</time>
</trkpt>
<trkpt lat="48.75890797935426" lon="9.968819981440902">
<ele>664</ele>
<time>2023-05-16T08:16:02Z</time>
</trkpt>
<trkpt lat="48.75893798656762" lon="9.968782933428884">
<ele>664</ele>
<time>2023-05-16T08:16:03Z</time>
</trkpt>
<trkpt lat="48.75896698795259" lon="9.968751920387149">
<ele>663.8</ele>
<time>2023-05-16T08:16:04Z</time>
</trkpt>
<trkpt lat="48.75899498350918" lon="9.968717973679304">
<ele>663.8</ele>
<time>2023-05-16T08:16:05Z</time>
</trkpt>
<trkpt lat="48.759019961580634" lon="9.96868696063757">
<ele>663.8</ele>
<time>2023-05-16T08:16:06Z</time>
</trkpt>
<trkpt lat="48.759044939652085" lon="9.968659970909357">
<ele>663.8</ele>
<time>2023-05-16T08:16:07Z</time>
</trkpt>
<trkpt lat="48.759064972400665" lon="9.968629963696003">
<ele>663.8</ele>
<time>2023-05-16T08:16:08Z</time>
</trkpt>
<trkpt lat="48.75909296795726" lon="9.96860196813941">
<ele>663.8</ele>
<time>2023-05-16T08:16:09Z</time>
</trkpt>
<trkpt lat="48.75911794602871" lon="9.968566931784153">
<ele>663.8</ele>
<time>2023-05-16T08:16:10Z</time>
</trkpt>
<trkpt lat="48.75914292410016" lon="9.968527955934405">
<ele>663.8</ele>
<time>2023-05-16T08:16:11Z</time>
</trkpt>
<trkpt lat="48.759169997647405" lon="9.968489985913038">
<ele>663.8</ele>
<time>2023-05-16T08:16:12Z</time>
</trkpt>
<trkpt lat="48.759192964062095" lon="9.96845293790102">
<ele>663.8</ele>
<time>2023-05-16T08:16:13Z</time>
</trkpt>
<trkpt lat="48.759212996810675" lon="9.968417985364795">
<ele>663.8</ele>
<time>2023-05-16T08:16:14Z</time>
</trkpt>
<trkpt lat="48.759236969053745" lon="9.968381943181157">
<ele>663.8</ele>
<time>2023-05-16T08:16:15Z</time>
</trkpt>
<trkpt lat="48.759259935468435" lon="9.968341961503029">
<ele>663.8</ele>
<time>2023-05-16T08:16:16Z</time>
</trkpt>
<trkpt lat="48.759279968217015" lon="9.968302985653281">
<ele>663.8</ele>
<time>2023-05-16T08:16:17Z</time>
</trkpt>
<trkpt lat="48.759297989308834" lon="9.968264931812882">
<ele>663.8</ele>
<time>2023-05-16T08:16:18Z</time>
</trkpt>
<trkpt lat="48.75931299291551" lon="9.968231990933418">
<ele>664</ele>
<time>2023-05-16T08:16:19Z</time>
</trkpt>
<trkpt lat="48.75932699069381" lon="9.968202989548445">
<ele>664</ele>
<time>2023-05-16T08:16:20Z</time>
</trkpt>
<trkpt lat="48.759344927966595" lon="9.968169964849949">
<ele>664</ele>
<time>2023-05-16T08:16:21Z</time>
</trkpt>
<trkpt lat="48.75935993157327" lon="9.968136940151453">
<ele>664</ele>
<time>2023-05-16T08:16:22Z</time>
</trkpt>
<trkpt lat="48.75937996432185" lon="9.968096958473325">
<ele>664</ele>
<time>2023-05-16T08:16:23Z</time>
</trkpt>
<trkpt lat="48.75939798541367" lon="9.968049935996532">
<ele>664</ele>
<time>2023-05-16T08:16:24Z</time>
</trkpt>
<trkpt lat="48.75942296348512" lon="9.967992939054966">
<ele>664</ele>
<time>2023-05-16T08:16:25Z</time>
</trkpt>
<trkpt lat="48.75944693572819" lon="9.967934936285019">
<ele>664</ele>
<time>2023-05-16T08:16:26Z</time>
</trkpt>
<trkpt lat="48.759469985961914" lon="9.967879951000214">
<ele>664</ele>
<time>2023-05-16T08:16:27Z</time>
</trkpt>
<trkpt lat="48.759494964033365" lon="9.967821948230267">
<ele>664</ele>
<time>2023-05-16T08:16:28Z</time>
</trkpt>
<trkpt lat="48.759516924619675" lon="9.967767968773842">
<ele>664</ele>
<time>2023-05-16T08:16:29Z</time>
</trkpt>
<trkpt lat="48.759539974853396" lon="9.967717928811908">
<ele>664</ele>
<time>2023-05-16T08:16:30Z</time>
</trkpt>
<trkpt lat="48.759561935439706" lon="9.967666966840625">
<ele>664.2</ele>
<time>2023-05-16T08:16:31Z</time>
</trkpt>
<trkpt lat="48.759581968188286" lon="9.967617932707071">
<ele>664.2</ele>
<time>2023-05-16T08:16:32Z</time>
</trkpt>
<trkpt lat="48.759602922946215" lon="9.96757292188704">
<ele>664.2</ele>
<time>2023-05-16T08:16:33Z</time>
</trkpt>
<trkpt lat="48.759622955694795" lon="9.967524977400899">
<ele>664.4000000000001</ele>
<time>2023-05-16T08:16:34Z</time>
</trkpt>
<trkpt lat="48.759646927937865" lon="9.967477954924107">
<ele>664.5999999999999</ele>
<time>2023-05-16T08:16:35Z</time>
</trkpt>
<trkpt lat="48.759667966514826" lon="9.967434955760837">
<ele>664.5999999999999</ele>
<time>2023-05-16T08:16:36Z</time>
</trkpt>
<trkpt lat="48.759687999263406" lon="9.967391956597567">
<ele>664.8</ele>
<time>2023-05-16T08:16:37Z</time>
</trkpt>
<trkpt lat="48.759707948192954" lon="9.967344934120774">
<ele>665</ele>
<time>2023-05-16T08:16:38Z</time>
</trkpt>
<trkpt lat="48.75972697511315" lon="9.967304952442646">
<ele>665</ele>
<time>2023-05-16T08:16:39Z</time>
</trkpt>
<trkpt lat="48.75974298454821" lon="9.96726999990642">
<ele>665.2</ele>
<time>2023-05-16T08:16:40Z</time>
</trkpt>
<trkpt lat="48.75976192764938" lon="9.967236975207925">
<ele>665.2</ele>
<time>2023-05-16T08:16:41Z</time>
</trkpt>
<trkpt lat="48.759777937084436" lon="9.967197999358177">
<ele>665.4000000000001</ele>
<time>2023-05-16T08:16:42Z</time>
</trkpt>
<trkpt lat="48.759797969833016" lon="9.967159945517778">
<ele>665.5999999999999</ele>
<time>2023-05-16T08:16:43Z</time>
</trkpt>
<trkpt lat="48.75981297343969" lon="9.967117952182889">
<ele>665.5999999999999</ele>
<time>2023-05-16T08:16:44Z</time>
</trkpt>
<trkpt lat="48.75983292236924" lon="9.967082999646664">
<ele>665.8</ele>
<time>2023-05-16T08:16:45Z</time>
</trkpt>
<trkpt lat="48.75984993763268" lon="9.967051986604929">
<ele>666</ele>
<time>2023-05-16T08:16:46Z</time>
</trkpt>
<trkpt lat="48.7598679587245" lon="9.96701493859291">
<ele>666</ele>
<time>2023-05-16T08:16:47Z</time>
</trkpt>
<trkpt lat="48.75988497398794" lon="9.966976968571544">
<ele>666.2</ele>
<time>2023-05-16T08:16:48Z</time>
</trkpt>
<trkpt lat="48.759901989251375" lon="9.966941932216287">
<ele>666.4000000000001</ele>
<time>2023-05-16T08:16:49Z</time>
</trkpt>
<trkpt lat="48.75991799868643" lon="9.966901950538158">
<ele>666.4000000000001</ele>
<time>2023-05-16T08:16:50Z</time>
</trkpt>
<trkpt lat="48.75993493013084" lon="9.966866998001933">
<ele>666.5999999999999</ele>
<time>2023-05-16T08:16:51Z</time>
</trkpt>
<trkpt lat="48.75995295122266" lon="9.966829949989915">
<ele>666.5999999999999</ele>
<time>2023-05-16T08:16:52Z</time>
</trkpt>
<trkpt lat="48.75997298397124" lon="9.966791979968548">
<ele>666.8</ele>
<time>2023-05-16T08:16:53Z</time>
</trkpt>
<trkpt lat="48.759989999234676" lon="9.966757949441671">
<ele>666.8</ele>
<time>2023-05-16T08:16:54Z</time>
</trkpt>
<trkpt lat="48.76000299118459" lon="9.966727942228317">
<ele>667</ele>
<time>2023-05-16T08:16:55Z</time>
</trkpt>
<trkpt lat="48.760011959820986" lon="9.966701958328485">
<ele>667.2</ele>
<time>2023-05-16T08:16:56Z</time>
</trkpt>
<trkpt lat="48.760019922629" lon="9.966671951115131">
<ele>667.2</ele>
<time>2023-05-16T08:16:57Z</time>
</trkpt>
<trkpt lat="48.76002796925604" lon="9.966642949730158">
<ele>667.4000000000001</ele>
<time>2023-05-16T08:16:58Z</time>
</trkpt>
<trkpt lat="48.760032998397946" lon="9.966614954173565">
<ele>667.5999999999999</ele>
<time>2023-05-16T08:16:59Z</time>
</trkpt>
<trkpt lat="48.760032998397946" lon="9.966587964445353">
<ele>667.5999999999999</ele>
<time>2023-05-16T08:17:00Z</time>
</trkpt>
<trkpt lat="48.76002796925604" lon="9.966562986373901">
<ele>667.8</ele>
<time>2023-05-16T08:17:01Z</time>
</trkpt>
<trkpt lat="48.76001799479127" lon="9.966536918655038">
<ele>667.8</ele>
<time>2023-05-16T08:17:02Z</time>
</trkpt>
<trkpt lat="48.760011959820986" lon="9.966512946411967">
<ele>668</ele>
<time>2023-05-16T08:17:03Z</time>
</trkpt>
<trkpt lat="48.75999997369945" lon="9.96649693697691">
<ele>668</ele>
<time>2023-05-16T08:17:04Z</time>
</trkpt>
<trkpt lat="48.75997792929411" lon="9.966477993875742">
<ele>668</ele>
<time>2023-05-16T08:17:05Z</time>
</trkpt>
<trkpt lat="48.75995295122266" lon="9.966456955298781">
<ele>668</ele>
<time>2023-05-16T08:17:06Z</time>
</trkpt>
<trkpt lat="48.75991992652416" lon="9.96643197722733">
<ele>668</ele>
<time>2023-05-16T08:17:07Z</time>
</trkpt>
<trkpt lat="48.75988799147308" lon="9.966407921165228">
<ele>668</ele>
<time>2023-05-16T08:17:08Z</time>
</trkpt>
<trkpt lat="48.759857984259725" lon="9.966382943093777">
<ele>668</ele>
<time>2023-05-16T08:17:09Z</time>
</trkpt>
<trkpt lat="48.75983292236924" lon="9.966361988335848">
<ele>668</ele>
<time>2023-05-16T08:17:10Z</time>
</trkpt>
<trkpt lat="48.75981196761131" lon="9.966337932273746">
<ele>668</ele>
<time>2023-05-16T08:17:11Z</time>
</trkpt>
<trkpt lat="48.759796964004636" lon="9.966312954202294">
<ele>668</ele>
<time>2023-05-16T08:17:12Z</time>
</trkpt>
<trkpt lat="48.75978992320597" lon="9.966284958645701">
<ele>668</ele>
<time>2023-05-16T08:17:13Z</time>
</trkpt>
<trkpt lat="48.759796964004636" lon="9.966254951432347">
<ele>668</ele>
<time>2023-05-16T08:17:14Z</time>
</trkpt>
<trkpt lat="48.759814985096455" lon="9.966226955875754">
<ele>668</ele>
<time>2023-05-16T08:17:15Z</time>
</trkpt>
<trkpt lat="48.75984298065305" lon="9.96619795449078">
<ele>668</ele>
<time>2023-05-16T08:17:16Z</time>
</trkpt>
<trkpt lat="48.75987793318927" lon="9.966169958934188">
<ele>668</ele>
<time>2023-05-16T08:17:17Z</time>
</trkpt>
<trkpt lat="48.75991196371615" lon="9.966139951720834">
<ele>668</ele>
<time>2023-05-16T08:17:18Z</time>
</trkpt>
<trkpt lat="48.759946916252375" lon="9.96610994450748">
<ele>668</ele>
<time>2023-05-16T08:17:19Z</time>
</trkpt>
<trkpt lat="48.75998195260763" lon="9.966081948950887">
<ele>668</ele>
<time>2023-05-16T08:17:20Z</time>
</trkpt>
<trkpt lat="48.76001799479127" lon="9.966051941737533">
<ele>668</ele>
<time>2023-05-16T08:17:21Z</time>
</trkpt>
<trkpt lat="48.760054958984256" lon="9.966019922867417">
<ele>668</ele>
<time>2023-05-16T08:17:22Z</time>
</trkpt>
<trkpt lat="48.76009292900562" lon="9.965987987816334">
<ele>668</ele>
<time>2023-05-16T08:17:23Z</time>
</trkpt>
<trkpt lat="48.7601319886744" lon="9.965956974774599">
<ele>668</ele>
<time>2023-05-16T08:17:24Z</time>
</trkpt>
<trkpt lat="48.76016995869577" lon="9.965921938419342">
<ele>668.2</ele>
<time>2023-05-16T08:17:25Z</time>
</trkpt>
<trkpt lat="48.760206922888756" lon="9.965882962569594">
<ele>668.2</ele>
<time>2023-05-16T08:17:26Z</time>
</trkpt>
<trkpt lat="48.760244976729155" lon="9.965846920385957">
<ele>668.4000000000001</ele>
<time>2023-05-16T08:17:27Z</time>
</trkpt>
<trkpt lat="48.76028294675052" lon="9.965807944536209">
<ele>668.4000000000001</ele>
<time>2023-05-16T08:17:28Z</time>
</trkpt>
<trkpt lat="48.76032192260027" lon="9.96576796285808">
<ele>668.4000000000001</ele>
<time>2023-05-16T08:17:29Z</time>
</trkpt>
<trkpt lat="48.76035997644067" lon="9.965726975351572">
<ele>668.5999999999999</ele>
<time>2023-05-16T08:17:30Z</time>
</trkpt>
<trkpt lat="48.760399958118796" lon="9.965686993673444">
<ele>668.5999999999999</ele>
<time>2023-05-16T08:17:31Z</time>
</trkpt>
<trkpt lat="48.760439939796925" lon="9.965646928176284">
<ele>668.5999999999999</ele>
<time>2023-05-16T08:17:32Z</time>
</trkpt>
<trkpt lat="48.760481933131814" lon="9.965602923184633">
<ele>668.5999999999999</ele>
<time>2023-05-16T08:17:33Z</time>
</trkpt>
<trkpt lat="48.760524932295084" lon="9.965557996183634">
<ele>668.5999999999999</ele>
<time>2023-05-16T08:17:34Z</time>
</trkpt>
<trkpt lat="48.760569943115115" lon="9.965512985363603">
<ele>668.5999999999999</ele>
<time>2023-05-16T08:17:35Z</time>
</trkpt>
<trkpt lat="48.760614953935146" lon="9.96546696871519">
<ele>668.5999999999999</ele>
<time>2023-05-16T08:17:36Z</time>
</trkpt>
<trkpt lat="48.760657953098416" lon="9.965417934581637">
<ele>668.5999999999999</ele>
<time>2023-05-16T08:17:37Z</time>
</trkpt>
<trkpt lat="48.76070296391845" lon="9.965369990095496">
<ele>668.5999999999999</ele>
<time>2023-05-16T08:17:38Z</time>
</trkpt>
<trkpt lat="48.7607469689101" lon="9.965321961790323">
<ele>668.4000000000001</ele>
<time>2023-05-16T08:17:39Z</time>
</trkpt>
<trkpt lat="48.76079197973013" lon="9.965274939313531">
<ele>668.4000000000001</ele>
<time>2023-05-16T08:17:40Z</time>
</trkpt>
<trkpt lat="48.76083699055016" lon="9.96522699482739">
<ele>668.2</ele>
<time>2023-05-16T08:17:41Z</time>
</trkpt>
<trkpt lat="48.76088292337954" lon="9.965176954865456">
<ele>668.2</ele>
<time>2023-05-16T08:17:42Z</time>
</trkpt>
<trkpt lat="48.760931957513094" lon="9.965124987065792">
<ele>668</ele>
<time>2023-05-16T08:17:43Z</time>
</trkpt>
<trkpt lat="48.76098199747503" lon="9.965072935447097">
<ele>667.8</ele>
<time>2023-05-16T08:17:44Z</time>
</trkpt>
<trkpt lat="48.76102994196117" lon="9.965017950162292">
<ele>667.4000000000001</ele>
<time>2023-05-16T08:17:45Z</time>
</trkpt>
<trkpt lat="48.76107797026634" lon="9.964959947392344">
<ele>667.2</ele>
<time>2023-05-16T08:17:46Z</time>
</trkpt>
<trkpt lat="48.761124992743134" lon="9.964897921308875">
<ele>667</ele>
<time>2023-05-16T08:17:47Z</time>
</trkpt>
<trkpt lat="48.761169919744134" lon="9.964832961559296">
<ele>666.8</ele>
<time>2023-05-16T08:17:48Z</time>
</trkpt>
<trkpt lat="48.761214930564165" lon="9.964764984324574">
<ele>666.5999999999999</ele>
<time>2023-05-16T08:17:49Z</time>
</trkpt>
<trkpt lat="48.761259941384196" lon="9.96468996629119">
<ele>666.5999999999999</ele>
<time>2023-05-16T08:17:50Z</time>
</trkpt>
<trkpt lat="48.761302940547466" lon="9.964614948257804">
<ele>666.4000000000001</ele>
<time>2023-05-16T08:17:51Z</time>
</trkpt>
<trkpt lat="48.761344933882356" lon="9.96454194188118">
<ele>666.2</ele>
<time>2023-05-16T08:17:52Z</time>
</trkpt>
<trkpt lat="48.761384999379516" lon="9.964466923847795">
<ele>666.2</ele>
<time>2023-05-16T08:17:53Z</time>
</trkpt>
<trkpt lat="48.761424981057644" lon="9.964391989633441">
<ele>666</ele>
<time>2023-05-16T08:17:54Z</time>
</trkpt>
<trkpt lat="48.76146295107901" lon="9.964317977428436">
<ele>666</ele>
<time>2023-05-16T08:17:55Z</time>
</trkpt>
<trkpt lat="48.76149999909103" lon="9.964247988536954">
<ele>665.8</ele>
<time>2023-05-16T08:17:56Z</time>
</trkpt>
<trkpt lat="48.761536963284016" lon="9.96417498216033">
<ele>665.8</ele>
<time>2023-05-16T08:17:57Z</time>
</trkpt>
<trkpt lat="48.76157199963927" lon="9.964102981612086">
<ele>665.8</ele>
<time>2023-05-16T08:17:58Z</time>
</trkpt>
<trkpt lat="48.7616069521755" lon="9.964032992720604">
<ele>665.5999999999999</ele>
<time>2023-05-16T08:17:59Z</time>
</trkpt>
<trkpt lat="48.761639976873994" lon="9.963966943323612">
<ele>665.5999999999999</ele>
<time>2023-05-16T08:18:00Z</time>
</trkpt>
<trkpt lat="48.76167199574411" lon="9.963902989402413">
<ele>665.5999999999999</ele>
<time>2023-05-16T08:18:01Z</time>
</trkpt>
<trkpt lat="48.76170292496681" lon="9.963842974975705">
<ele>665.5999999999999</ele>
<time>2023-05-16T08:18:02Z</time>
</trkpt>
<trkpt lat="48.761732932180166" lon="9.963782960548997">
<ele>665.8</ele>
<time>2023-05-16T08:18:03Z</time>
</trkpt>
<trkpt lat="48.76175992190838" lon="9.963722946122289">
<ele>665.8</ele>
<time>2023-05-16T08:18:04Z</time>
</trkpt>
<trkpt lat="48.76178791746497" lon="9.96366293169558">
<ele>665.8</ele>
<time>2023-05-16T08:18:05Z</time>
</trkpt>
<trkpt lat="48.761817924678326" lon="9.963602917268872">
<ele>665.8</ele>
<time>2023-05-16T08:18:06Z</time>
</trkpt>
<trkpt lat="48.7618469260633" lon="9.963546926155686">
<ele>665.8</ele>
<time>2023-05-16T08:18:07Z</time>
</trkpt>
<trkpt lat="48.76187299378216" lon="9.96348992921412">
<ele>665.8</ele>
<time>2023-05-16T08:18:08Z</time>
</trkpt>
<trkpt lat="48.761901995167136" lon="9.963434943929315">
<ele>665.8</ele>
<time>2023-05-16T08:18:09Z</time>
</trkpt>
<trkpt lat="48.76192797906697" lon="9.963377946987748">
<ele>665.8</ele>
<time>2023-05-16T08:18:10Z</time>
</trkpt>
<trkpt lat="48.76195496879518" lon="9.963322961702943">
<ele>666</ele>
<time>2023-05-16T08:18:11Z</time>
</trkpt>
<trkpt lat="48.76198195852339" lon="9.96327199973166">
<ele>666</ele>
<time>2023-05-16T08:18:12Z</time>
</trkpt>
<trkpt lat="48.762009954079986" lon="9.963217936456203">
<ele>666.2</ele>
<time>2023-05-16T08:18:13Z</time>
</trkpt>
<trkpt lat="48.76203493215144" lon="9.96316496282816">
<ele>666.2</ele>
<time>2023-05-16T08:18:14Z</time>
</trkpt>
<trkpt lat="48.76206192187965" lon="9.963109977543354">
<ele>666.4000000000001</ele>
<time>2023-05-16T08:18:15Z</time>
</trkpt>
<trkpt lat="48.76208698377013" lon="9.963056920096278">
<ele>666.4000000000001</ele>
<time>2023-05-16T08:18:16Z</time>
</trkpt>
<trkpt lat="48.76210995018482" lon="9.963004952296615">
<ele>666.5999999999999</ele>
<time>2023-05-16T08:18:17Z</time>
</trkpt>
<trkpt lat="48.762136939913034" lon="9.962952984496951">
<ele>666.5999999999999</ele>
<time>2023-05-16T08:18:18Z</time>
</trkpt>
<trkpt lat="48.762161917984486" lon="9.962904956191778">
<ele>666.5999999999999</ele>
<time>2023-05-16T08:18:19Z</time>
</trkpt>
<trkpt lat="48.76218697987497" lon="9.962854916229844">
<ele>666.8</ele>
<time>2023-05-16T08:18:20Z</time>
</trkpt>
<trkpt lat="48.76220994628966" lon="9.962804960086942">
<ele>666.8</ele>
<time>2023-05-16T08:18:21Z</time>
</trkpt>
<trkpt lat="48.76223299652338" lon="9.962756931781769">
<ele>667</ele>
<time>2023-05-16T08:18:22Z</time>
</trkpt>
<trkpt lat="48.76225797459483" lon="9.962707981467247">
<ele>667</ele>
<time>2023-05-16T08:18:23Z</time>
</trkpt>
<trkpt lat="48.7622819468379" lon="9.962659953162074">
<ele>667.2</ele>
<time>2023-05-16T08:18:24Z</time>
</trkpt>
<trkpt lat="48.76230692490935" lon="9.962609997019172">
<ele>667.2</ele>
<time>2023-05-16T08:18:25Z</time>
</trkpt>
<trkpt lat="48.762331986799836" lon="9.962559957057238">
<ele>667.4000000000001</ele>
<time>2023-05-16T08:18:26Z</time>
</trkpt>
<trkpt lat="48.76235696487129" lon="9.962507989257574">
<ele>667.4000000000001</ele>
<time>2023-05-16T08:18:27Z</time>
</trkpt>
<trkpt lat="48.76237993128598" lon="9.96245694346726">
<ele>667.5999999999999</ele>
<time>2023-05-16T08:18:28Z</time>
</trkpt>
<trkpt lat="48.76240692101419" lon="9.962404975667596">
<ele>667.5999999999999</ele>
<time>2023-05-16T08:18:29Z</time>
</trkpt>
<trkpt lat="48.76243198290467" lon="9.9623529240489">
<ele>667.8</ele>
<time>2023-05-16T08:18:30Z</time>
</trkpt>
<trkpt lat="48.762456960976124" lon="9.962299950420856">
<ele>667.8</ele>
<time>2023-05-16T08:18:31Z</time>
</trkpt>
<trkpt lat="48.762482944875956" lon="9.962246976792812">
<ele>668</ele>
<time>2023-05-16T08:18:32Z</time>
</trkpt>
<trkpt lat="48.76250792294741" lon="9.962196936830878">
<ele>668</ele>
<time>2023-05-16T08:18:33Z</time>
</trkpt>
<trkpt lat="48.76253298483789" lon="9.962147986516356">
<ele>668.2</ele>
<time>2023-05-16T08:18:34Z</time>
</trkpt>
<trkpt lat="48.76255695708096" lon="9.962099958211184">
<ele>668.2</ele>
<time>2023-05-16T08:18:35Z</time>
</trkpt>
<trkpt lat="48.76258193515241" lon="9.96205192990601">
<ele>668.4000000000001</ele>
<time>2023-05-16T08:18:36Z</time>
</trkpt>
<trkpt lat="48.762606997042894" lon="9.961999962106347">
<ele>668.4000000000001</ele>
<time>2023-05-16T08:18:37Z</time>
</trkpt>
<trkpt lat="48.762631975114346" lon="9.961947994306684">
<ele>668.5999999999999</ele>
<time>2023-05-16T08:18:38Z</time>
</trkpt>
<trkpt lat="48.7626569531858" lon="9.961894936859608">
<ele>668.5999999999999</ele>
<time>2023-05-16T08:18:39Z</time>
</trkpt>
<trkpt lat="48.76268193125725" lon="9.961844980716705">
<ele>668.8</ele>
<time>2023-05-16T08:18:40Z</time>
</trkpt>
<trkpt lat="48.76270699314773" lon="9.961794940754771">
<ele>668.8</ele>
<time>2023-05-16T08:18:41Z</time>
</trkpt>
<trkpt lat="48.76273197121918" lon="9.961742972955108">
<ele>668.8</ele>
<time>2023-05-16T08:18:42Z</time>
</trkpt>
<trkpt lat="48.76275694929063" lon="9.961691927164793">
<ele>669</ele>
<time>2023-05-16T08:18:43Z</time>
</trkpt>
<trkpt lat="48.762781927362084" lon="9.961637947708368">
<ele>669</ele>
<time>2023-05-16T08:18:44Z</time>
</trkpt>
<trkpt lat="48.76280799508095" lon="9.961586985737085">
<ele>669.2</ele>
<time>2023-05-16T08:18:45Z</time>
</trkpt>
<trkpt lat="48.7628329731524" lon="9.961536945775151">
<ele>669.2</ele>
<time>2023-05-16T08:18:46Z</time>
</trkpt>
<trkpt lat="48.76285996288061" lon="9.96148799546063">
<ele>669.4000000000001</ele>
<time>2023-05-16T08:18:47Z</time>
</trkpt>
<trkpt lat="48.76288494095206" lon="9.961437955498695">
<ele>669.4000000000001</ele>
<time>2023-05-16T08:18:48Z</time>
</trkpt>
<trkpt lat="48.762909919023514" lon="9.961387999355793">
<ele>669.5999999999999</ele>
<time>2023-05-16T08:18:49Z</time>
</trkpt>
<trkpt lat="48.762934980914" lon="9.961337959393859">
<ele>669.5999999999999</ele>
<time>2023-05-16T08:18:50Z</time>
</trkpt>
<trkpt lat="48.76295794732869" lon="9.961289931088686">
<ele>669.5999999999999</ele>
<time>2023-05-16T08:18:51Z</time>
</trkpt>
<trkpt lat="48.76298191957176" lon="9.961237963289022">
<ele>669.8</ele>
<time>2023-05-16T08:18:52Z</time>
</trkpt>
<trkpt lat="48.76300798729062" lon="9.961186917498708">
<ele>669.8</ele>
<time>2023-05-16T08:18:53Z</time>
</trkpt>
<trkpt lat="48.76303195953369" lon="9.961132938042283">
<ele>669.8</ele>
<time>2023-05-16T08:18:54Z</time>
</trkpt>
<trkpt lat="48.76305693760514" lon="9.961081976071">
<ele>670</ele>
<time>2023-05-16T08:18:55Z</time>
</trkpt>
<trkpt lat="48.763082921504974" lon="9.961027996614575">
<ele>670</ele>
<time>2023-05-16T08:18:56Z</time>
</trkpt>
<trkpt lat="48.76310999505222" lon="9.960979968309402">
<ele>670.2</ele>
<time>2023-05-16T08:18:57Z</time>
</trkpt>
<trkpt lat="48.76313698478043" lon="9.96093194000423">
<ele>670.2</ele>
<time>2023-05-16T08:18:58Z</time>
</trkpt>
<trkpt lat="48.76316196285188" lon="9.960881983861327">
<ele>670.4000000000001</ele>
<time>2023-05-16T08:18:59Z</time>
</trkpt>
<trkpt lat="48.76318694092333" lon="9.960831943899393">
<ele>670.4000000000001</ele>
<time>2023-05-16T08:19:00Z</time>
</trkpt>
<trkpt lat="48.763211918994784" lon="9.960777964442968">
<ele>670.5999999999999</ele>
<time>2023-05-16T08:19:01Z</time>
</trkpt>
<trkpt lat="48.76323798671365" lon="9.960726918652654">
<ele>670.5999999999999</ele>
<time>2023-05-16T08:19:02Z</time>
</trkpt>
<trkpt lat="48.76326497644186" lon="9.96067495085299">
<ele>670.8</ele>
<time>2023-05-16T08:19:03Z</time>
</trkpt>
<trkpt lat="48.76328995451331" lon="9.960626922547817">
<ele>671</ele>
<time>2023-05-16T08:19:04Z</time>
</trkpt>
<trkpt lat="48.76331493258476" lon="9.960576966404915">
<ele>671</ele>
<time>2023-05-16T08:19:05Z</time>
</trkpt>
<trkpt lat="48.763337982818484" lon="9.96052692644298">
<ele>671.2</ele>
<time>2023-05-16T08:19:06Z</time>
</trkpt>
<trkpt lat="48.763362960889935" lon="9.960474958643317">
<ele>671.2</ele>
<time>2023-05-16T08:19:07Z</time>
</trkpt>
<trkpt lat="48.763386933133006" lon="9.960422990843654">
<ele>671.4000000000001</ele>
<time>2023-05-16T08:19:08Z</time>
</trkpt>
<trkpt lat="48.76340998336673" lon="9.96037496253848">
<ele>671.4000000000001</ele>
<time>2023-05-16T08:19:09Z</time>
</trkpt>
<trkpt lat="48.76343496143818" lon="9.960326934233308">
<ele>671.5999999999999</ele>
<time>2023-05-16T08:19:10Z</time>
</trkpt>
<trkpt lat="48.76345792785287" lon="9.960277983918786">
<ele>671.5999999999999</ele>
<time>2023-05-16T08:19:11Z</time>
</trkpt>
<trkpt lat="48.76348198391497" lon="9.960229955613613">
<ele>671.8</ele>
<time>2023-05-16T08:19:12Z</time>
</trkpt>
<trkpt lat="48.76350495032966" lon="9.96018192730844">
<ele>672</ele>
<time>2023-05-16T08:19:13Z</time>
</trkpt>
<trkpt lat="48.76352791674435" lon="9.960132976993918">
<ele>672</ele>
<time>2023-05-16T08:19:14Z</time>
</trkpt>
<trkpt lat="48.763552978634834" lon="9.960087966173887">
<ele>672.2</ele>
<time>2023-05-16T08:19:15Z</time>
</trkpt>
<trkpt lat="48.763577956706285" lon="9.960039937868714">
<ele>672.2</ele>
<time>2023-05-16T08:19:16Z</time>
</trkpt>
<trkpt lat="48.76360293477774" lon="9.959991993382573">
<ele>672.4000000000001</ele>
<time>2023-05-16T08:19:17Z</time>
</trkpt>
<trkpt lat="48.76362699083984" lon="9.95994295924902">
<ele>672.4000000000001</ele>
<time>2023-05-16T08:19:18Z</time>
</trkpt>
<trkpt lat="48.76364995725453" lon="9.959894930943847">
<ele>672.5999999999999</ele>
<time>2023-05-16T08:19:19Z</time>
</trkpt>
<trkpt lat="48.76367292366922" lon="9.959847992286086">
<ele>672.5999999999999</ele>
<time>2023-05-16T08:19:20Z</time>
</trkpt>
<trkpt lat="48.76369697973132" lon="9.959801975637674">
<ele>672.8</ele>
<time>2023-05-16T08:19:21Z</time>
</trkpt>
<trkpt lat="48.76371994614601" lon="9.959757970646024">
<ele>672.8</ele>
<time>2023-05-16T08:19:22Z</time>
</trkpt>
<trkpt lat="48.76374199055135" lon="9.959712959825993">
<ele>672.8</ele>
<time>2023-05-16T08:19:23Z</time>
</trkpt>
<trkpt lat="48.763766968622804" lon="9.95966694317758">
<ele>673</ele>
<time>2023-05-16T08:19:24Z</time>
</trkpt>
<trkpt lat="48.763789935037494" lon="9.959619920700788">
<ele>673.2</ele>
<time>2023-05-16T08:19:25Z</time>
</trkpt>
<trkpt lat="48.763812985271215" lon="9.959574993699789">
<ele>673.2</ele>
<time>2023-05-16T08:19:26Z</time>
</trkpt>
<trkpt lat="48.76383796334267" lon="9.959527971222997">
<ele>673.4000000000001</ele>
<time>2023-05-16T08:19:27Z</time>
</trkpt>
<trkpt lat="48.76386193558574" lon="9.959481954574585">
<ele>673.4000000000001</ele>
<time>2023-05-16T08:19:28Z</time>
</trkpt>
<trkpt lat="48.76388498581946" lon="9.959436943754554">
<ele>673.5999999999999</ele>
<time>2023-05-16T08:19:29Z</time>
</trkpt>
<trkpt lat="48.76390694640577" lon="9.959389921277761">
<ele>673.8</ele>
<time>2023-05-16T08:19:30Z</time>
</trkpt>
<trkpt lat="48.76392697915435" lon="9.959344994276762">
<ele>673.8</ele>
<time>2023-05-16T08:19:31Z</time>
</trkpt>
<trkpt lat="48.76394793391228" lon="9.959296965971589">
<ele>674</ele>
<time>2023-05-16T08:19:32Z</time>
</trkpt>
<trkpt lat="48.76397198997438" lon="9.959247931838036">
<ele>674</ele>
<time>2023-05-16T08:19:33Z</time>
</trkpt>
<trkpt lat="48.76399696804583" lon="9.959201999008656">
<ele>674</ele>
<time>2023-05-16T08:19:34Z</time>
</trkpt>
<trkpt lat="48.76401993446052" lon="9.959154976531863">
<ele>674.2</ele>
<time>2023-05-16T08:19:35Z</time>
</trkpt>
<trkpt lat="48.76404298469424" lon="9.95910795405507">
<ele>674.2</ele>
<time>2023-05-16T08:19:36Z</time>
</trkpt>
<trkpt lat="48.76406695693731" lon="9.95906294323504">
<ele>674.4000000000001</ele>
<time>2023-05-16T08:19:37Z</time>
</trkpt>
<trkpt lat="48.764087995514274" lon="9.959017932415009">
<ele>674.4000000000001</ele>
<time>2023-05-16T08:19:38Z</time>
</trkpt>
<trkpt lat="48.76410995610058" lon="9.958971999585629">
<ele>674.4000000000001</ele>
<time>2023-05-16T08:19:39Z</time>
</trkpt>
<trkpt lat="48.76413191668689" lon="9.958924977108836">
<ele>674.5999999999999</ele>
<time>2023-05-16T08:19:40Z</time>
</trkpt>
<trkpt lat="48.764154966920614" lon="9.958881977945566">
<ele>674.5999999999999</ele>
<time>2023-05-16T08:19:41Z</time>
</trkpt>
<trkpt lat="48.764174999669194" lon="9.958836967125535">
<ele>674.8</ele>
<time>2023-05-16T08:19:42Z</time>
</trkpt>
<trkpt lat="48.764196960255504" lon="9.958791956305504">
<ele>674.8</ele>
<time>2023-05-16T08:19:43Z</time>
</trkpt>
<trkpt lat="48.764217998832464" lon="9.958746945485473">
<ele>675</ele>
<time>2023-05-16T08:19:44Z</time>
</trkpt>
<trkpt lat="48.764239959418774" lon="9.958701934665442">
<ele>675</ele>
<time>2023-05-16T08:19:45Z</time>
</trkpt>
<trkpt lat="48.76426192000508" lon="9.95865692384541">
<ele>675.2</ele>
<time>2023-05-16T08:19:46Z</time>
</trkpt>
<trkpt lat="48.764282958582044" lon="9.958611996844411">
<ele>675.2</ele>
<time>2023-05-16T08:19:47Z</time>
</trkpt>
<trkpt lat="48.764306930825114" lon="9.95856799185276">
<ele>675.4000000000001</ele>
<time>2023-05-16T08:19:48Z</time>
</trkpt>
<trkpt lat="48.764327969402075" lon="9.958521975204349">
<ele>675.4000000000001</ele>
<time>2023-05-16T08:19:49Z</time>
</trkpt>
<trkpt lat="48.764349929988384" lon="9.958477970212698">
<ele>675.5999999999999</ele>
<time>2023-05-16T08:19:50Z</time>
</trkpt>
<trkpt lat="48.764372980222106" lon="9.95843798853457">
<ele>675.5999999999999</ele>
<time>2023-05-16T08:19:51Z</time>
</trkpt>
<trkpt lat="48.76439695246518" lon="9.958392977714539">
<ele>675.5999999999999</ele>
<time>2023-05-16T08:19:52Z</time>
</trkpt>
<trkpt lat="48.76441799104214" lon="9.958347966894507">
<ele>675.8</ele>
<time>2023-05-16T08:19:53Z</time>
</trkpt>
<trkpt lat="48.76443995162845" lon="9.958301950246096">
<ele>675.8</ele>
<time>2023-05-16T08:19:54Z</time>
</trkpt>
<trkpt lat="48.76446199603379" lon="9.958259956911206">
<ele>675.8</ele>
<time>2023-05-16T08:19:55Z</time>
</trkpt>
<trkpt lat="48.76448295079172" lon="9.958216957747936">
<ele>676</ele>
<time>2023-05-16T08:19:56Z</time>
</trkpt>
<trkpt lat="48.76450499519706" lon="9.958171946927905">
<ele>676</ele>
<time>2023-05-16T08:19:57Z</time>
</trkpt>
<trkpt lat="48.76452695578337" lon="9.958124924451113">
<ele>676.2</ele>
<time>2023-05-16T08:19:58Z</time>
</trkpt>
<trkpt lat="48.76454799436033" lon="9.958081925287843">
<ele>676.2</ele>
<time>2023-05-16T08:19:59Z</time>
</trkpt>
<trkpt lat="48.76456995494664" lon="9.958034986630082">
<ele>676.4000000000001</ele>
<time>2023-05-16T08:20:00Z</time>
</trkpt>
<trkpt lat="48.76459292136133" lon="9.957982935011387">
<ele>676.4000000000001</ele>
<time>2023-05-16T08:20:01Z</time>
</trkpt>
<trkpt lat="48.76461496576667" lon="9.957931973040104">
<ele>676.5999999999999</ele>
<time>2023-05-16T08:20:02Z</time>
</trkpt>
<trkpt lat="48.76463793218136" lon="9.957876987755299">
<ele>676.5999999999999</ele>
<time>2023-05-16T08:20:03Z</time>
</trkpt>
<trkpt lat="48.76466198824346" lon="9.957827953621745">
<ele>676.8</ele>
<time>2023-05-16T08:20:04Z</time>
</trkpt>
<trkpt lat="48.76468495465815" lon="9.957784954458475">
<ele>676.8</ele>
<time>2023-05-16T08:20:05Z</time>
</trkpt>
<trkpt lat="48.76470792107284" lon="9.957744972780347">
<ele>677</ele>
<time>2023-05-16T08:20:06Z</time>
</trkpt>
<trkpt lat="48.76473197713494" lon="9.957702979445457">
<ele>677</ele>
<time>2023-05-16T08:20:07Z</time>
</trkpt>
<trkpt lat="48.76475293189287" lon="9.957657968625426">
<ele>677.2</ele>
<time>2023-05-16T08:20:08Z</time>
</trkpt>
<trkpt lat="48.76477497629821" lon="9.957612957805395">
<ele>677.2</ele>
<time>2023-05-16T08:20:09Z</time>
</trkpt>
<trkpt lat="48.76479693688452" lon="9.957569958642125">
<ele>677.4000000000001</ele>
<time>2023-05-16T08:20:10Z</time>
</trkpt>
<trkpt lat="48.76481797546148" lon="9.957526959478855">
<ele>677.5999999999999</ele>
<time>2023-05-16T08:20:11Z</time>
</trkpt>
<trkpt lat="48.76483993604779" lon="9.957482954487205">
<ele>677.5999999999999</ele>
<time>2023-05-16T08:20:12Z</time>
</trkpt>
<trkpt lat="48.764861980453134" lon="9.957439955323935">
<ele>677.8</ele>
<time>2023-05-16T08:20:13Z</time>
</trkpt>
<trkpt lat="48.76488293521106" lon="9.957394944503903">
<ele>677.8</ele>
<time>2023-05-16T08:20:14Z</time>
</trkpt>
<trkpt lat="48.76490296795964" lon="9.957351945340633">
<ele>678</ele>
<time>2023-05-16T08:20:15Z</time>
</trkpt>
<trkpt lat="48.76492492854595" lon="9.957307940348983">
<ele>678</ele>
<time>2023-05-16T08:20:16Z</time>
</trkpt>
<trkpt lat="48.764949990436435" lon="9.957261923700571">
<ele>678.2</ele>
<time>2023-05-16T08:20:17Z</time>
</trkpt>
<trkpt lat="48.764971951022744" lon="9.957216996699572">
<ele>678.2</ele>
<time>2023-05-16T08:20:18Z</time>
</trkpt>
<trkpt lat="48.764992989599705" lon="9.957176931202412">
<ele>678.4000000000001</ele>
<time>2023-05-16T08:20:19Z</time>
</trkpt>
<trkpt lat="48.76501293852925" lon="9.957134937867522">
<ele>678.4000000000001</ele>
<time>2023-05-16T08:20:20Z</time>
</trkpt>
<trkpt lat="48.765034982934594" lon="9.957094956189394">
<ele>678.5999999999999</ele>
<time>2023-05-16T08:20:21Z</time>
</trkpt>
<trkpt lat="48.765056943520904" lon="9.957052962854505">
<ele>678.8</ele>
<time>2023-05-16T08:20:22Z</time>
</trkpt>
<trkpt lat="48.765076976269484" lon="9.957011975347996">
<ele>678.8</ele>
<time>2023-05-16T08:20:23Z</time>
</trkpt>
<trkpt lat="48.76509692519903" lon="9.956971993669868">
<ele>679</ele>
<time>2023-05-16T08:20:24Z</time>
</trkpt>
<trkpt lat="48.76511494629085" lon="9.956932934001088">
<ele>679.2</ele>
<time>2023-05-16T08:20:25Z</time>
</trkpt>
<trkpt lat="48.76513296738267" lon="9.95689194649458">
<ele>679.2</ele>
<time>2023-05-16T08:20:26Z</time>
</trkpt>
<trkpt lat="48.76515199430287" lon="9.95684995315969">
<ele>679.2</ele>
<time>2023-05-16T08:20:27Z</time>
</trkpt>
<trkpt lat="48.76517194323242" lon="9.956809971481562">
<ele>679.4000000000001</ele>
<time>2023-05-16T08:20:28Z</time>
</trkpt>
<trkpt lat="48.765191975981" lon="9.956771917641163">
<ele>679.5999999999999</ele>
<time>2023-05-16T08:20:29Z</time>
</trkpt>
<trkpt lat="48.765207985416055" lon="9.956731935963035">
<ele>679.8</ele>
<time>2023-05-16T08:20:30Z</time>
</trkpt>
<trkpt lat="48.76522692851722" lon="9.956692960113287">
<ele>679.8</ele>
<time>2023-05-16T08:20:31Z</time>
</trkpt>
<trkpt lat="48.76524494960904" lon="9.95665499009192">
<ele>680</ele>
<time>2023-05-16T08:20:32Z</time>
</trkpt>
<trkpt lat="48.76526498235762" lon="9.956617942079902">
<ele>680.2</ele>
<time>2023-05-16T08:20:33Z</time>
</trkpt>
<trkpt lat="48.76528291963041" lon="9.956577960401773">
<ele>680.4000000000001</ele>
<time>2023-05-16T08:20:34Z</time>
</trkpt>
<trkpt lat="48.76530194655061" lon="9.956537978723645">
<ele>680.5999999999999</ele>
<time>2023-05-16T08:20:35Z</time>
</trkpt>
<trkpt lat="48.76531996764243" lon="9.956499924883246">
<ele>680.8</ele>
<time>2023-05-16T08:20:36Z</time>
</trkpt>
<trkpt lat="48.765337988734245" lon="9.95646296069026">
<ele>681</ele>
<time>2023-05-16T08:20:37Z</time>
</trkpt>
<trkpt lat="48.76535693183541" lon="9.956427924335003">
<ele>681</ele>
<time>2023-05-16T08:20:38Z</time>
</trkpt>
<trkpt lat="48.76537495292723" lon="9.956392971798778">
<ele>681.2</ele>
<time>2023-05-16T08:20:39Z</time>
</trkpt>
<trkpt lat="48.76539498567581" lon="9.95635692961514">
<ele>681.4000000000001</ele>
<time>2023-05-16T08:20:40Z</time>
</trkpt>
<trkpt lat="48.76541694626212" lon="9.956317953765392">
<ele>681.5999999999999</ele>
<time>2023-05-16T08:20:41Z</time>
</trkpt>
<trkpt lat="48.7654369790107" lon="9.956279983744025">
<ele>681.8</ele>
<time>2023-05-16T08:20:42Z</time>
</trkpt>
<trkpt lat="48.76545491628349" lon="9.956244947388768">
<ele>682</ele>
<time>2023-05-16T08:20:43Z</time>
</trkpt>
<trkpt lat="48.76547293737531" lon="9.956207983195782">
<ele>682.2</ele>
<time>2023-05-16T08:20:44Z</time>
</trkpt>
<trkpt lat="48.76549196429551" lon="9.956174958497286">
<ele>682.4000000000001</ele>
<time>2023-05-16T08:20:45Z</time>
</trkpt>
<trkpt lat="48.765507973730564" lon="9.956139922142029">
<ele>682.5999999999999</ele>
<time>2023-05-16T08:20:46Z</time>
</trkpt>
<trkpt lat="48.765524988994" lon="9.956102957949042">
<ele>682.8</ele>
<time>2023-05-16T08:20:47Z</time>
</trkpt>
<trkpt lat="48.76554192043841" lon="9.956066999584436">
<ele>683</ele>
<time>2023-05-16T08:20:48Z</time>
</trkpt>
<trkpt lat="48.76555792987347" lon="9.956029951572418">
<ele>683.2</ele>
<time>2023-05-16T08:20:49Z</time>
</trkpt>
<trkpt lat="48.765576956793666" lon="9.955992987379432">
<ele>683.4000000000001</ele>
<time>2023-05-16T08:20:50Z</time>
</trkpt>
<trkpt lat="48.765596989542246" lon="9.955957951024175">
<ele>683.5999999999999</ele>
<time>2023-05-16T08:20:51Z</time>
</trkpt>
<trkpt lat="48.76561492681503" lon="9.955921992659569">
<ele>683.8</ele>
<time>2023-05-16T08:20:52Z</time>
</trkpt>
<trkpt lat="48.76563495956361" lon="9.95588494464755">
<ele>684.2</ele>
<time>2023-05-16T08:20:53Z</time>
</trkpt>
<trkpt lat="48.76565197482705" lon="9.955847980454564">
<ele>684.4000000000001</ele>
<time>2023-05-16T08:20:54Z</time>
</trkpt>
<trkpt lat="48.76566798426211" lon="9.955812944099307">
<ele>684.5999999999999</ele>
<time>2023-05-16T08:20:55Z</time>
</trkpt>
<trkpt lat="48.76568499952555" lon="9.955779919400811">
<ele>684.8</ele>
<time>2023-05-16T08:20:56Z</time>
</trkpt>
<trkpt lat="48.76570193096995" lon="9.955746978521347">
<ele>685</ele>
<time>2023-05-16T08:20:57Z</time>
</trkpt>
<trkpt lat="48.76571794040501" lon="9.95571194216609">
<ele>685.4000000000001</ele>
<time>2023-05-16T08:20:58Z</time>
</trkpt>
<trkpt lat="48.76573696732521" lon="9.955671960487962">
<ele>685.5999999999999</ele>
<time>2023-05-16T08:20:59Z</time>
</trkpt>
<trkpt lat="48.76575691625476" lon="9.955631978809834">
<ele>685.8</ele>
<time>2023-05-16T08:21:00Z</time>
</trkpt>
<trkpt lat="48.76577493734658" lon="9.955594930797815">
<ele>686.2</ele>
<time>2023-05-16T08:21:01Z</time>
</trkpt>
<trkpt lat="48.765791952610016" lon="9.955557966604829">
<ele>686.4000000000001</ele>
<time>2023-05-16T08:21:02Z</time>
</trkpt>
<trkpt lat="48.76580695621669" lon="9.955526953563094">
<ele>686.5999999999999</ele>
<time>2023-05-16T08:21:03Z</time>
</trkpt>
<trkpt lat="48.76582296565175" lon="9.955494934692979">
<ele>686.8</ele>
<time>2023-05-16T08:21:04Z</time>
</trkpt>
<trkpt lat="48.76583998091519" lon="9.955459982156754">
<ele>687.2</ele>
<time>2023-05-16T08:21:05Z</time>
</trkpt>
<trkpt lat="48.76585699617863" lon="9.955426957458258">
<ele>687.4000000000001</ele>
<time>2023-05-16T08:21:06Z</time>
</trkpt>
<trkpt lat="48.765874933451414" lon="9.955392926931381">
<ele>687.5999999999999</ele>
<time>2023-05-16T08:21:07Z</time>
</trkpt>
<trkpt lat="48.76589295454323" lon="9.955359986051917">
<ele>687.8</ele>
<time>2023-05-16T08:21:08Z</time>
</trkpt>
<trkpt lat="48.76591298729181" lon="9.955326961353421">
<ele>688.2</ele>
<time>2023-05-16T08:21:09Z</time>
</trkpt>
<trkpt lat="48.76593293622136" lon="9.955291924998164">
<ele>688.4000000000001</ele>
<time>2023-05-16T08:21:10Z</time>
</trkpt>
<trkpt lat="48.76595196314156" lon="9.955256972461939">
<ele>688.5999999999999</ele>
<time>2023-05-16T08:21:11Z</time>
</trkpt>
<trkpt lat="48.76596797257662" lon="9.955217996612191">
<ele>688.8</ele>
<time>2023-05-16T08:21:12Z</time>
</trkpt>
<trkpt lat="48.76598699949682" lon="9.955179942771792">
<ele>689</ele>
<time>2023-05-16T08:21:13Z</time>
</trkpt>
<trkpt lat="48.766004936769605" lon="9.955144990235567">
<ele>689.2</ele>
<time>2023-05-16T08:21:14Z</time>
</trkpt>
<trkpt lat="48.76601792871952" lon="9.955107942223549">
<ele>689.5999999999999</ele>
<time>2023-05-16T08:21:15Z</time>
</trkpt>
<trkpt lat="48.76603494398296" lon="9.955071983858943">
<ele>689.8</ele>
<time>2023-05-16T08:21:16Z</time>
</trkpt>
<trkpt lat="48.76605497673154" lon="9.955031918361783">
<ele>690</ele>
<time>2023-05-16T08:21:17Z</time>
</trkpt>
<trkpt lat="48.76607299782336" lon="9.954992942512035">
<ele>690.4000000000001</ele>
<time>2023-05-16T08:21:18Z</time>
</trkpt>
<trkpt lat="48.766089929267764" lon="9.95495698414743">
<ele>690.5999999999999</ele>
<time>2023-05-16T08:21:19Z</time>
</trkpt>
<trkpt lat="48.7661069445312" lon="9.954921947792172">
<ele>690.8</ele>
<time>2023-05-16T08:21:20Z</time>
</trkpt>
<trkpt lat="48.76612295396626" lon="9.954891940578818">
<ele>691.2</ele>
<time>2023-05-16T08:21:21Z</time>
</trkpt>
<trkpt lat="48.76613795757294" lon="9.954859921708703">
<ele>691.4000000000001</ele>
<time>2023-05-16T08:21:22Z</time>
</trkpt>
<trkpt lat="48.766156984493136" lon="9.954822957515717">
<ele>691.5999999999999</ele>
<time>2023-05-16T08:21:23Z</time>
</trkpt>
<trkpt lat="48.766172993928194" lon="9.95478993281722">
<ele>692</ele>
<time>2023-05-16T08:21:24Z</time>
</trkpt>
<trkpt lat="48.76619193702936" lon="9.954757997766137">
<ele>692.2</ele>
<time>2023-05-16T08:21:25Z</time>
</trkpt>
<trkpt lat="48.76621196977794" lon="9.954724973067641">
<ele>692.4000000000001</ele>
<time>2023-05-16T08:21:26Z</time>
</trkpt>
<trkpt lat="48.76622999086976" lon="9.954691948369145">
<ele>692.8</ele>
<time>2023-05-16T08:21:27Z</time>
</trkpt>
<trkpt lat="48.76624692231417" lon="9.95465992949903">
<ele>693</ele>
<time>2023-05-16T08:21:28Z</time>
</trkpt>
<trkpt lat="48.766262931749225" lon="9.954627994447947">
<ele>693.4000000000001</ele>
<time>2023-05-16T08:21:29Z</time>
</trkpt>
<trkpt lat="48.766281958669424" lon="9.95459295809269">
<ele>693.5999999999999</ele>
<time>2023-05-16T08:21:30Z</time>
</trkpt>
<trkpt lat="48.76629997976124" lon="9.954557921737432">
<ele>693.8</ele>
<time>2023-05-16T08:21:31Z</time>
</trkpt>
<trkpt lat="48.76631498336792" lon="9.954522969201207">
<ele>694</ele>
<time>2023-05-16T08:21:32Z</time>
</trkpt>
<trkpt lat="48.76633199863136" lon="9.954491956159472">
<ele>694.4000000000001</ele>
<time>2023-05-16T08:21:33Z</time>
</trkpt>
<trkpt lat="48.766347924247384" lon="9.954461948946118">
<ele>694.5999999999999</ele>
<time>2023-05-16T08:21:34Z</time>
</trkpt>
<trkpt lat="48.76636695116758" lon="9.954429930076003">
<ele>694.8</ele>
<time>2023-05-16T08:21:35Z</time>
</trkpt>
<trkpt lat="48.7663799431175" lon="9.954394977539778">
<ele>695.2</ele>
<time>2023-05-16T08:21:36Z</time>
</trkpt>
<trkpt lat="48.76639695838094" lon="9.95435994118452">
<ele>695.4000000000001</ele>
<time>2023-05-16T08:21:37Z</time>
</trkpt>
<trkpt lat="48.766412967815995" lon="9.954326916486025">
<ele>695.5999999999999</ele>
<time>2023-05-16T08:21:38Z</time>
</trkpt>
<trkpt lat="48.76642797142267" lon="9.9542919639498">
<ele>696</ele>
<time>2023-05-16T08:21:39Z</time>
</trkpt>
<trkpt lat="48.76644297502935" lon="9.954256927594543">
<ele>696.2</ele>
<time>2023-05-16T08:21:40Z</time>
</trkpt>
<trkpt lat="48.766457978636026" lon="9.954221975058317">
<ele>696.4000000000001</ele>
<time>2023-05-16T08:21:41Z</time>
</trkpt>
<trkpt lat="48.766474993899465" lon="9.95418693870306">
<ele>696.5999999999999</ele>
<time>2023-05-16T08:21:42Z</time>
</trkpt>
<trkpt lat="48.76649494282901" lon="9.954149974510074">
<ele>697</ele>
<time>2023-05-16T08:21:43Z</time>
</trkpt>
<trkpt lat="48.766516987234354" lon="9.954116949811578">
<ele>697.2</ele>
<time>2023-05-16T08:21:44Z</time>
</trkpt>
<trkpt lat="48.76653794199228" lon="9.954081997275352">
<ele>697.4000000000001</ele>
<time>2023-05-16T08:21:45Z</time>
</trkpt>
<trkpt lat="48.76655696891248" lon="9.954047966748476">
<ele>697.8</ele>
<time>2023-05-16T08:21:46Z</time>
</trkpt>
<trkpt lat="48.76657297834754" lon="9.954012930393219">
<ele>698</ele>
<time>2023-05-16T08:21:47Z</time>
</trkpt>
<trkpt lat="48.76659192144871" lon="9.953977977856994">
<ele>698.2</ele>
<time>2023-05-16T08:21:48Z</time>
</trkpt>
<trkpt lat="48.76661497168243" lon="9.953939924016595">
<ele>698.4000000000001</ele>
<time>2023-05-16T08:21:49Z</time>
</trkpt>
<trkpt lat="48.76663299277425" lon="9.953901953995228">
<ele>698.5999999999999</ele>
<time>2023-05-16T08:21:50Z</time>
</trkpt>
<trkpt lat="48.766649924218655" lon="9.9538619723171">
<ele>698.8</ele>
<time>2023-05-16T08:21:51Z</time>
</trkpt>
<trkpt lat="48.76666794531047" lon="9.953824924305081">
<ele>699</ele>
<time>2023-05-16T08:21:52Z</time>
</trkpt>
<trkpt lat="48.76668697223067" lon="9.953789971768856">
<ele>699.2</ele>
<time>2023-05-16T08:21:53Z</time>
</trkpt>
<trkpt lat="48.76670499332249" lon="9.953754935413599">
<ele>699.4000000000001</ele>
<time>2023-05-16T08:21:54Z</time>
</trkpt>
<trkpt lat="48.76672293059528" lon="9.953719982877374">
<ele>699.8</ele>
<time>2023-05-16T08:21:55Z</time>
</trkpt>
<trkpt lat="48.76674195751548" lon="9.953684946522117">
<ele>700</ele>
<time>2023-05-16T08:21:56Z</time>
</trkpt>
<trkpt lat="48.7667599786073" lon="9.953649993985891">
<ele>700.2</ele>
<time>2023-05-16T08:21:57Z</time>
</trkpt>
<trkpt lat="48.766774982213974" lon="9.953614957630634">
<ele>700.4000000000001</ele>
<time>2023-05-16T08:21:58Z</time>
</trkpt>
<trkpt lat="48.76679199747741" lon="9.953581932932138">
<ele>700.5999999999999</ele>
<time>2023-05-16T08:21:59Z</time>
</trkpt>
<trkpt lat="48.76680792309344" lon="9.95354295708239">
<ele>701</ele>
<time>2023-05-16T08:22:00Z</time>
</trkpt>
<trkpt lat="48.766824938356876" lon="9.953507920727134">
<ele>701.2</ele>
<time>2023-05-16T08:22:01Z</time>
</trkpt>
<trkpt lat="48.766844971105456" lon="9.95347497984767">
<ele>701.4000000000001</ele>
<time>2023-05-16T08:22:02Z</time>
</trkpt>
<trkpt lat="48.766862992197275" lon="9.953439943492413">
<ele>701.5999999999999</ele>
<time>2023-05-16T08:22:03Z</time>
</trkpt>
<trkpt lat="48.76688193529844" lon="9.953404990956187">
<ele>701.8</ele>
<time>2023-05-16T08:22:04Z</time>
</trkpt>
<trkpt lat="48.7668979447335" lon="9.95336995460093">
<ele>702</ele>
<time>2023-05-16T08:22:05Z</time>
</trkpt>
<trkpt lat="48.76691495999694" lon="9.953332990407944">
<ele>702.2</ele>
<time>2023-05-16T08:22:06Z</time>
</trkpt>
<trkpt lat="48.766929963603616" lon="9.953299965709448">
<ele>702.5999999999999</ele>
<time>2023-05-16T08:22:07Z</time>
</trkpt>
<trkpt lat="48.76694295555353" lon="9.953267946839333">
<ele>702.8</ele>
<time>2023-05-16T08:22:08Z</time>
</trkpt>
<trkpt lat="48.76695695333183" lon="9.953234922140837">
<ele>703</ele>
<time>2023-05-16T08:22:09Z</time>
</trkpt>
<trkpt lat="48.766972962766886" lon="9.953201981261373">
<ele>703.2</ele>
<time>2023-05-16T08:22:10Z</time>
</trkpt>
<trkpt lat="48.76698796637356" lon="9.953169962391257">
<ele>703.4000000000001</ele>
<time>2023-05-16T08:22:11Z</time>
</trkpt>
<trkpt lat="48.767004981637" lon="9.953137943521142">
<ele>703.5999999999999</ele>
<time>2023-05-16T08:22:12Z</time>
</trkpt>
<trkpt lat="48.76702291890979" lon="9.953107936307788">
<ele>703.8</ele>
<time>2023-05-16T08:22:13Z</time>
</trkpt>
<trkpt lat="48.76704194582999" lon="9.953077929094434">
<ele>704</ele>
<time>2023-05-16T08:22:14Z</time>
</trkpt>
<trkpt lat="48.767057955265045" lon="9.95304699987173">
<ele>704.2</ele>
<time>2023-05-16T08:22:15Z</time>
</trkpt>
<trkpt lat="48.767076982185245" lon="9.953014981001616">
<ele>704.4000000000001</ele>
<time>2023-05-16T08:22:16Z</time>
</trkpt>
<trkpt lat="48.76709693111479" lon="9.9529829621315">
<ele>704.5999999999999</ele>
<time>2023-05-16T08:22:17Z</time>
</trkpt>
<trkpt lat="48.76711495220661" lon="9.952949937433004">
<ele>704.8</ele>
<time>2023-05-16T08:22:18Z</time>
</trkpt>
<trkpt lat="48.76712995581329" lon="9.952914984896779">
<ele>705</ele>
<time>2023-05-16T08:22:19Z</time>
</trkpt>
<trkpt lat="48.76714797690511" lon="9.952884977683425">
<ele>705.2</ele>
<time>2023-05-16T08:22:20Z</time>
</trkpt>
<trkpt lat="48.767164992168546" lon="9.95285497047007">
<ele>705.4000000000001</ele>
<time>2023-05-16T08:22:21Z</time>
</trkpt>
<trkpt lat="48.76717999577522" lon="9.952821945771575">
<ele>705.5999999999999</ele>
<time>2023-05-16T08:22:22Z</time>
</trkpt>
<trkpt lat="48.76719692721963" lon="9.95278699323535">
<ele>705.8</ele>
<time>2023-05-16T08:22:23Z</time>
</trkpt>
<trkpt lat="48.76721293665469" lon="9.952751956880093">
<ele>706</ele>
<time>2023-05-16T08:22:24Z</time>
</trkpt>
<trkpt lat="48.767229951918125" lon="9.952716920524836">
<ele>706.2</ele>
<time>2023-05-16T08:22:25Z</time>
</trkpt>
<trkpt lat="48.767249984666705" lon="9.95268297381699">
<ele>706.4000000000001</ele>
<time>2023-05-16T08:22:26Z</time>
</trkpt>
<trkpt lat="48.76726792193949" lon="9.952647937461734">
<ele>706.5999999999999</ele>
<time>2023-05-16T08:22:27Z</time>
</trkpt>
<trkpt lat="48.76728694885969" lon="9.952612984925508">
<ele>706.8</ele>
<time>2023-05-16T08:22:28Z</time>
</trkpt>
<trkpt lat="48.76730496995151" lon="9.952577948570251">
<ele>707</ele>
<time>2023-05-16T08:22:29Z</time>
</trkpt>
<trkpt lat="48.76732299104333" lon="9.952544923871756">
<ele>707.2</ele>
<time>2023-05-16T08:22:30Z</time>
</trkpt>
<trkpt lat="48.7673419341445" lon="9.95250997133553">
<ele>707.2</ele>
<time>2023-05-16T08:22:31Z</time>
</trkpt>
<trkpt lat="48.76736196689308" lon="9.952474934980273">
<ele>707.4000000000001</ele>
<time>2023-05-16T08:22:32Z</time>
</trkpt>
<trkpt lat="48.76738199964166" lon="9.952436964958906">
<ele>707.5999999999999</ele>
<time>2023-05-16T08:22:33Z</time>
</trkpt>
<trkpt lat="48.76739792525768" lon="9.95240192860365">
<ele>707.8</ele>
<time>2023-05-16T08:22:34Z</time>
</trkpt>
<trkpt lat="48.76741695217788" lon="9.952364964410663">
<ele>708</ele>
<time>2023-05-16T08:22:35Z</time>
</trkpt>
<trkpt lat="48.7674349732697" lon="9.952327916398644">
<ele>708</ele>
<time>2023-05-16T08:22:36Z</time>
</trkpt>
<trkpt lat="48.76745299436152" lon="9.952287934720516">
<ele>708.2</ele>
<time>2023-05-16T08:22:37Z</time>
</trkpt>
<trkpt lat="48.76747193746269" lon="9.952247953042388">
<ele>708.4000000000001</ele>
<time>2023-05-16T08:22:38Z</time>
</trkpt>
<trkpt lat="48.767487946897745" lon="9.952209983021021">
<ele>708.5999999999999</ele>
<time>2023-05-16T08:22:39Z</time>
</trkpt>
<trkpt lat="48.767506973817945" lon="9.952171929180622">
<ele>708.8</ele>
<time>2023-05-16T08:22:40Z</time>
</trkpt>
<trkpt lat="48.76752692274749" lon="9.952132953330874">
<ele>708.8</ele>
<time>2023-05-16T08:22:41Z</time>
</trkpt>
<trkpt lat="48.76754796132445" lon="9.952089954167604">
<ele>709</ele>
<time>2023-05-16T08:22:42Z</time>
</trkpt>
<trkpt lat="48.76756992191076" lon="9.952044943347573">
<ele>709</ele>
<time>2023-05-16T08:22:43Z</time>
</trkpt>
<trkpt lat="48.767591966316104" lon="9.951999932527542">
<ele>709</ele>
<time>2023-05-16T08:22:44Z</time>
</trkpt>
<trkpt lat="48.76761292107403" lon="9.951957939192653">
<ele>709.2</ele>
<time>2023-05-16T08:22:45Z</time>
</trkpt>
<trkpt lat="48.767634965479374" lon="9.951916951686144">
<ele>709.2</ele>
<time>2023-05-16T08:22:46Z</time>
</trkpt>
<trkpt lat="48.767657931894064" lon="9.951877975836396">
<ele>709.2</ele>
<time>2023-05-16T08:22:47Z</time>
</trkpt>
<trkpt lat="48.767679976299405" lon="9.951841933652759">
<ele>709.4000000000001</ele>
<time>2023-05-16T08:22:48Z</time>
</trkpt>
<trkpt lat="48.767701936885715" lon="9.95179994031787">
<ele>709.4000000000001</ele>
<time>2023-05-16T08:22:49Z</time>
</trkpt>
<trkpt lat="48.767722975462675" lon="9.95175794698298">
<ele>709.4000000000001</ele>
<time>2023-05-16T08:22:50Z</time>
</trkpt>
<trkpt lat="48.767744936048985" lon="9.95171494781971">
<ele>709.4000000000001</ele>
<time>2023-05-16T08:22:51Z</time>
</trkpt>
<trkpt lat="48.767766980454326" lon="9.95167194865644">
<ele>709.4000000000001</ele>
<time>2023-05-16T08:22:52Z</time>
</trkpt>
<trkpt lat="48.767787935212255" lon="9.951631966978312">
<ele>709.4000000000001</ele>
<time>2023-05-16T08:22:53Z</time>
</trkpt>
<trkpt lat="48.76781199127436" lon="9.951589973643422">
<ele>709.4000000000001</ele>
<time>2023-05-16T08:22:54Z</time>
</trkpt>
<trkpt lat="48.76783696934581" lon="9.951544962823391">
<ele>709.4000000000001</ele>
<time>2023-05-16T08:22:55Z</time>
</trkpt>
<trkpt lat="48.76786295324564" lon="9.951501963660121">
<ele>709.4000000000001</ele>
<time>2023-05-16T08:22:56Z</time>
</trkpt>
<trkpt lat="48.76788793131709" lon="9.951451923698187">
<ele>709.4000000000001</ele>
<time>2023-05-16T08:22:57Z</time>
</trkpt>
<trkpt lat="48.76791198737919" lon="9.951397944241762">
<ele>709.4000000000001</ele>
<time>2023-05-16T08:22:58Z</time>
</trkpt>
<trkpt lat="48.767937971279025" lon="9.951337929815054">
<ele>709.2</ele>
<time>2023-05-16T08:22:59Z</time>
</trkpt>
<trkpt lat="48.767966972664" lon="9.951276993378997">
<ele>709.2</ele>
<time>2023-05-16T08:23:00Z</time>
</trkpt>
<trkpt lat="48.76799697987735" lon="9.951212955638766">
<ele>709</ele>
<time>2023-05-16T08:23:01Z</time>
</trkpt>
<trkpt lat="48.76802992075682" lon="9.951142966747284">
<ele>708.8</ele>
<time>2023-05-16T08:23:02Z</time>
</trkpt>
<trkpt lat="48.76806193962693" lon="9.95106996037066">
<ele>708.5999999999999</ele>
<time>2023-05-16T08:23:03Z</time>
</trkpt>
<trkpt lat="48.76809798181057" lon="9.950989997014403">
<ele>708.2</ele>
<time>2023-05-16T08:23:04Z</time>
</trkpt>
<trkpt lat="48.76812991686165" lon="9.950902992859483">
<ele>708</ele>
<time>2023-05-16T08:23:05Z</time>
</trkpt>
<trkpt lat="48.76816193573177" lon="9.95081297121942">
<ele>707.8</ele>
<time>2023-05-16T08:23:06Z</time>
</trkpt>
<trkpt lat="48.7681929487735" lon="9.950721943750978">
<ele>707.4000000000001</ele>
<time>2023-05-16T08:23:07Z</time>
</trkpt>
<trkpt lat="48.76822697930038" lon="9.950622953474522">
<ele>707</ele>
<time>2023-05-16T08:23:08Z</time>
</trkpt>
<trkpt lat="48.768259920179844" lon="9.95052999816835">
<ele>706.4000000000001</ele>
<time>2023-05-16T08:23:09Z</time>
</trkpt>
<trkpt lat="48.768299985677004" lon="9.950434947386384">
<ele>706</ele>
<time>2023-05-16T08:23:10Z</time>
</trkpt>
<trkpt lat="48.76833795569837" lon="9.950332939624786">
<ele>705.5999999999999</ele>
<time>2023-05-16T08:23:11Z</time>
</trkpt>
<trkpt lat="48.768367962911725" lon="9.950226992368698">
<ele>705</ele>
<time>2023-05-16T08:23:12Z</time>
</trkpt>
<trkpt lat="48.76839998178184" lon="9.950116937980056">
<ele>704.5999999999999</ele>
<time>2023-05-16T08:23:13Z</time>
</trkpt>
<trkpt lat="48.768429988995194" lon="9.950009984895587">
<ele>704</ele>
<time>2023-05-16T08:23:14Z</time>
</trkpt>
<trkpt lat="48.76846192404628" lon="9.94988995604217">
<ele>703.5999999999999</ele>
<time>2023-05-16T08:23:15Z</time>
</trkpt>
<trkpt lat="48.768497966229916" lon="9.949781997129321">
<ele>703</ele>
<time>2023-05-16T08:23:16Z</time>
</trkpt>
<trkpt lat="48.76853291876614" lon="9.949689963832498">
<ele>702.2</ele>
<time>2023-05-16T08:23:17Z</time>
</trkpt>
<trkpt lat="48.76856996677816" lon="9.949582926928997">
<ele>701.5999999999999</ele>
<time>2023-05-16T08:23:18Z</time>
</trkpt>
<trkpt lat="48.768606930971146" lon="9.94948192499578">
<ele>701</ele>
<time>2023-05-16T08:23:19Z</time>
</trkpt>
<trkpt lat="48.768649930134416" lon="9.94937296025455">
<ele>700.4000000000001</ele>
<time>2023-05-16T08:23:20Z</time>
</trkpt>
<trkpt lat="48.768691923469305" lon="9.94926793500781">
<ele>699.5999999999999</ele>
<time>2023-05-16T08:23:21Z</time>
</trkpt>
<trkpt lat="48.76872293651104" lon="9.949166933074594">
<ele>699</ele>
<time>2023-05-16T08:23:22Z</time>
</trkpt>
<trkpt lat="48.76875998452306" lon="9.949064925312996">
<ele>698.4000000000001</ele>
<time>2023-05-16T08:23:23Z</time>
</trkpt>
<trkpt lat="48.768799966201186" lon="9.948954954743385">
<ele>697.8</ele>
<time>2023-05-16T08:23:24Z</time>
</trkpt>
<trkpt lat="48.76883491873741" lon="9.948834925889969">
<ele>697.2</ele>
<time>2023-05-16T08:23:25Z</time>
</trkpt>
<trkpt lat="48.76885796897113" lon="9.948731996119022">
<ele>696.5999999999999</ele>
<time>2023-05-16T08:23:26Z</time>
</trkpt>
<trkpt lat="48.76887699589133" lon="9.948616996407509">
<ele>696</ele>
<time>2023-05-16T08:23:27Z</time>
</trkpt>
<trkpt lat="48.76889694482088" lon="9.948507947847247">
<ele>695.4000000000001</ele>
<time>2023-05-16T08:23:28Z</time>
</trkpt>
<trkpt lat="48.76892192289233" lon="9.948419937863946">
<ele>694.8</ele>
<time>2023-05-16T08:23:29Z</time>
</trkpt>
<trkpt lat="48.76895494759083" lon="9.94834491983056">
<ele>694.2</ele>
<time>2023-05-16T08:23:30Z</time>
</trkpt>
<trkpt lat="48.76900699920952" lon="9.948291946202517">
<ele>693.5999999999999</ele>
<time>2023-05-16T08:23:31Z</time>
</trkpt>
<trkpt lat="48.7690669298172" lon="9.948262944817543">
<ele>692.8</ele>
<time>2023-05-16T08:23:32Z</time>
</trkpt>
<trkpt lat="48.769122920930386" lon="9.948266968131065">
<ele>692.2</ele>
<time>2023-05-16T08:23:33Z</time>
</trkpt>
<trkpt lat="48.769184947013855" lon="9.948322959244251">
<ele>691.5999999999999</ele>
<time>2023-05-16T08:23:34Z</time>
</trkpt>
<trkpt lat="48.76923196949065" lon="9.948411975055933">
<ele>690.8</ele>
<time>2023-05-16T08:23:35Z</time>
</trkpt>
<trkpt lat="48.769261976704" lon="9.94851297698915">
<ele>690.2</ele>
<time>2023-05-16T08:23:36Z</time>
</trkpt>
<trkpt lat="48.769271951168776" lon="9.948626970872283">
<ele>689.5999999999999</ele>
<time>2023-05-16T08:23:37Z</time>
</trkpt>
<trkpt lat="48.76926499418914" lon="9.948766948655248">
<ele>688.8</ele>
<time>2023-05-16T08:23:38Z</time>
</trkpt>
<trkpt lat="48.76924496144056" lon="9.948906926438212">
<ele>688.2</ele>
<time>2023-05-16T08:23:39Z</time>
</trkpt>
<trkpt lat="48.76922199502587" lon="9.94904799386859">
<ele>687.4000000000001</ele>
<time>2023-05-16T08:23:40Z</time>
</trkpt>
<trkpt lat="48.76919198781252" lon="9.94919995777309">
<ele>686.5999999999999</ele>
<time>2023-05-16T08:23:41Z</time>
</trkpt>
<trkpt lat="48.76917991787195" lon="9.949334990233183">
<ele>685.8</ele>
<time>2023-05-16T08:23:42Z</time>
</trkpt>
<trkpt lat="48.769182935357094" lon="9.949456946924329">
<ele>685</ele>
<time>2023-05-16T08:23:43Z</time>
</trkpt>
<trkpt lat="48.7691929936409" lon="9.9495879560709">
<ele>684.2</ele>
<time>2023-05-16T08:23:44Z</time>
</trkpt>
<trkpt lat="48.76920799724758" lon="9.949721982702613">
<ele>683.5999999999999</ele>
<time>2023-05-16T08:23:45Z</time>
</trkpt>
<trkpt lat="48.769229957833886" lon="9.949851986020803">
<ele>682.8</ele>
<time>2023-05-16T08:23:46Z</time>
</trkpt>
<trkpt lat="48.76925795339048" lon="9.94997494854033">
<ele>682</ele>
<time>2023-05-16T08:23:47Z</time>
</trkpt>
<trkpt lat="48.76928494311869" lon="9.950099922716618">
<ele>681.2</ele>
<time>2023-05-16T08:23:48Z</time>
</trkpt>
<trkpt lat="48.76930992119014" lon="9.950222969055176">
<ele>680.4000000000001</ele>
<time>2023-05-16T08:23:49Z</time>
</trkpt>
<trkpt lat="48.769337916746736" lon="9.950354984030128">
<ele>679.5999999999999</ele>
<time>2023-05-16T08:23:50Z</time>
</trkpt>
<trkpt lat="48.76936297863722" lon="9.950487921014428">
<ele>679</ele>
<time>2023-05-16T08:23:51Z</time>
</trkpt>
<trkpt lat="48.76939298585057" lon="9.950617924332619">
<ele>678.2</ele>
<time>2023-05-16T08:23:52Z</time>
</trkpt>
<trkpt lat="48.769421987235546" lon="9.95074792765081">
<ele>677.4000000000001</ele>
<time>2023-05-16T08:23:53Z</time>
</trkpt>
<trkpt lat="48.76944998279214" lon="9.950871979817748">
<ele>676.5999999999999</ele>
<time>2023-05-16T08:23:54Z</time>
</trkpt>
<trkpt lat="48.76947194337845" lon="9.950991924852133">
<ele>675.8</ele>
<time>2023-05-16T08:23:55Z</time>
</trkpt>
<trkpt lat="48.76949993893504" lon="9.951107930392027">
<ele>675</ele>
<time>2023-05-16T08:23:56Z</time>
</trkpt>
<trkpt lat="48.76953195780516" lon="9.951224941760302">
<ele>674.2</ele>
<time>2023-05-16T08:23:57Z</time>
</trkpt>
<trkpt lat="48.76956297084689" lon="9.951337929815054">
<ele>673.5999999999999</ele>
<time>2023-05-16T08:23:58Z</time>
</trkpt>
<trkpt lat="48.76959993503988" lon="9.951452929526567">
<ele>672.8</ele>
<time>2023-05-16T08:23:59Z</time>
</trkpt>
<trkpt lat="48.76963798888028" lon="9.951559966430068">
<ele>672.2</ele>
<time>2023-05-16T08:24:00Z</time>
</trkpt>
<trkpt lat="48.76968299970031" lon="9.951654933393002">
<ele>671.4000000000001</ele>
<time>2023-05-16T08:24:01Z</time>
</trkpt>
<trkpt lat="48.76972692087293" lon="9.951751995831728">
<ele>670.5999999999999</ele>
<time>2023-05-16T08:24:02Z</time>
</trkpt>
<trkpt lat="48.76977796666324" lon="9.951832965016365">
<ele>670</ele>
<time>2023-05-16T08:24:03Z</time>
</trkpt>
<trkpt lat="48.769827922806144" lon="9.95188795030117">
<ele>669.2</ele>
<time>2023-05-16T08:24:04Z</time>
</trkpt>
<trkpt lat="48.76990294083953" lon="9.951919969171286">
<ele>668.4000000000001</ele>
<time>2023-05-16T08:24:05Z</time>
</trkpt>
<trkpt lat="48.76998994499445" lon="9.951941929757595">
<ele>667.8</ele>
<time>2023-05-16T08:24:06Z</time>
</trkpt>
<trkpt lat="48.770084995776415" lon="9.951959950849414">
<ele>667</ele>
<time>2023-05-16T08:24:07Z</time>
</trkpt>
<trkpt lat="48.77017795108259" lon="9.951981995254755">
<ele>666.2</ele>
<time>2023-05-16T08:24:08Z</time>
</trkpt>
<trkpt lat="48.77027694135904" lon="9.952006973326206">
<ele>665.4000000000001</ele>
<time>2023-05-16T08:24:09Z</time>
</trkpt>
<trkpt lat="48.770367968827486" lon="9.9520349688828">
<ele>664.4000000000001</ele>
<time>2023-05-16T08:24:10Z</time>
</trkpt>
<trkpt lat="48.77045799046755" lon="9.952056929469109">
<ele>663.5999999999999</ele>
<time>2023-05-16T08:24:11Z</time>
</trkpt>
<trkpt lat="48.77054197713733" lon="9.952074950560927">
<ele>662.8</ele>
<time>2023-05-16T08:24:12Z</time>
</trkpt>
<trkpt lat="48.77061992883682" lon="9.95207997970283">
<ele>662</ele>
<time>2023-05-16T08:24:13Z</time>
</trkpt>
<trkpt lat="48.770689917728305" lon="9.952076962217689">
<ele>661.2</ele>
<time>2023-05-16T08:24:14Z</time>
</trkpt>
<trkpt lat="48.77075697295368" lon="9.952044943347573">
<ele>660.4000000000001</ele>
<time>2023-05-16T08:24:15Z</time>
</trkpt>
<trkpt lat="48.77081195823848" lon="9.952006973326206">
<ele>659.8</ele>
<time>2023-05-16T08:24:16Z</time>
</trkpt>
<trkpt lat="48.770879935473204" lon="9.95194997638464">
<ele>659</ele>
<time>2023-05-16T08:24:17Z</time>
</trkpt>
<trkpt lat="48.77094196155667" lon="9.951876970008016">
<ele>658.2</ele>
<time>2023-05-16T08:24:18Z</time>
</trkpt>
<trkpt lat="48.77100197598338" lon="9.951774962246418">
<ele>657.4000000000001</ele>
<time>2023-05-16T08:24:19Z</time>
</trkpt>
<trkpt lat="48.771071964874864" lon="9.951664991676807">
<ele>656.5999999999999</ele>
<time>2023-05-16T08:24:20Z</time>
</trkpt>
<trkpt lat="48.77114698290825" lon="9.951521996408701">
<ele>655.8</ele>
<time>2023-05-16T08:24:21Z</time>
</trkpt>
<trkpt lat="48.77123792655766" lon="9.951386963948607">
<ele>655</ele>
<time>2023-05-16T08:24:22Z</time>
</trkpt>
<trkpt lat="48.771311938762665" lon="9.951279927045107">
<ele>654.2</ele>
<time>2023-05-16T08:24:23Z</time>
</trkpt>
<trkpt lat="48.77139198593795" lon="9.951164927333593">
<ele>653.2</ele>
<time>2023-05-16T08:24:24Z</time>
</trkpt>
<trkpt lat="48.77147798426449" lon="9.951086975634098">
<ele>652.2</ele>
<time>2023-05-16T08:24:25Z</time>
</trkpt>
<trkpt lat="48.7715519964695" lon="9.951001983135939">
<ele>651.2</ele>
<time>2023-05-16T08:24:26Z</time>
</trkpt>
<trkpt lat="48.77162299118936" lon="9.950922941789031">
<ele>650</ele>
<time>2023-05-16T08:24:27Z</time>
</trkpt>
<trkpt lat="48.77169197425246" lon="9.950859993696213">
<ele>648.8</ele>
<time>2023-05-16T08:24:28Z</time>
</trkpt>
<trkpt lat="48.77177193760872" lon="9.950776929035783">
<ele>647.5999999999999</ele>
<time>2023-05-16T08:24:29Z</time>
</trkpt>
<trkpt lat="48.77183798700571" lon="9.950692942366004">
<ele>646.5999999999999</ele>
<time>2023-05-16T08:24:30Z</time>
</trkpt>
<trkpt lat="48.771914932876825" lon="9.950606944039464">
<ele>645.4000000000001</ele>
<time>2023-05-16T08:24:31Z</time>
</trkpt>
<trkpt lat="48.77198299393058" lon="9.950537960976362">
<ele>644.4000000000001</ele>
<time>2023-05-16T08:24:32Z</time>
</trkpt>
<trkpt lat="48.77205499447882" lon="9.95046797208488">
<ele>643.4000000000001</ele>
<time>2023-05-16T08:24:33Z</time>
</trkpt>
<trkpt lat="48.772129928693175" lon="9.950406951829791">
<ele>642.2</ele>
<time>2023-05-16T08:24:34Z</time>
</trkpt>
<trkpt lat="48.77220997586846" lon="9.950346937403083">
<ele>641.2</ele>
<time>2023-05-16T08:24:35Z</time>
</trkpt>
<trkpt lat="48.77229496836662" lon="9.95029698126018">
<ele>640.2</ele>
<time>2023-05-16T08:24:36Z</time>
</trkpt>
<trkpt lat="48.77237199805677" lon="9.950247947126627">
<ele>639</ele>
<time>2023-05-16T08:24:37Z</time>
</trkpt>
<trkpt lat="48.772449949756265" lon="9.95020997710526">
<ele>638</ele>
<time>2023-05-16T08:24:38Z</time>
</trkpt>
<trkpt lat="48.77252798527479" lon="9.950182987377048">
<ele>637</ele>
<time>2023-05-16T08:24:39Z</time>
</trkpt>
<trkpt lat="48.77260794863105" lon="9.950164966285229">
<ele>636</ele>
<time>2023-05-16T08:24:40Z</time>
</trkpt>
<trkpt lat="48.772684978321195" lon="9.950149962678552">
<ele>635</ele>
<time>2023-05-16T08:24:41Z</time>
</trkpt>
<trkpt lat="48.77275999635458" lon="9.950142921879888">
<ele>634</ele>
<time>2023-05-16T08:24:42Z</time>
</trkpt>
<trkpt lat="48.77282998524606" lon="9.9501249846071">
<ele>633</ele>
<time>2023-05-16T08:24:43Z</time>
</trkpt>
<trkpt lat="48.77291196025908" lon="9.950111992657185">
<ele>632</ele>
<time>2023-05-16T08:24:44Z</time>
</trkpt>
<trkpt lat="48.77299695275724" lon="9.950107969343662">
<ele>631</ele>
<time>2023-05-16T08:24:45Z</time>
</trkpt>
<trkpt lat="48.77307699993253" lon="9.950096989050508">
<ele>630.2</ele>
<time>2023-05-16T08:24:46Z</time>
</trkpt>
<trkpt lat="48.77315293997526" lon="9.950089948251843">
<ele>629.2</ele>
<time>2023-05-16T08:24:47Z</time>
</trkpt>
<trkpt lat="48.77323198132217" lon="9.950076956301928">
<ele>628.4000000000001</ele>
<time>2023-05-16T08:24:48Z</time>
</trkpt>
<trkpt lat="48.77330197021365" lon="9.95006195269525">
<ele>627.5999999999999</ele>
<time>2023-05-16T08:24:49Z</time>
</trkpt>
<trkpt lat="48.77336299046874" lon="9.950029933825135">
<ele>626.8</ele>
<time>2023-05-16T08:24:50Z</time>
</trkpt>
<trkpt lat="48.773414958268404" lon="9.949979977682233">
<ele>626</ele>
<time>2023-05-16T08:24:51Z</time>
</trkpt>
<trkpt lat="48.77345493994653" lon="9.94991292245686">
<ele>625.4000000000001</ele>
<time>2023-05-16T08:24:52Z</time>
</trkpt>
<trkpt lat="48.773482935503125" lon="9.949839999899268">
<ele>624.5999999999999</ele>
<time>2023-05-16T08:24:53Z</time>
</trkpt>
<trkpt lat="48.77349299378693" lon="9.949757941067219">
<ele>624</ele>
<time>2023-05-16T08:24:54Z</time>
</trkpt>
<trkpt lat="48.77347698435187" lon="9.949666997417808">
<ele>623.4000000000001</ele>
<time>2023-05-16T08:24:55Z</time>
</trkpt>
<trkpt lat="48.77344496548176" lon="9.949577981606126">
<ele>622.8</ele>
<time>2023-05-16T08:24:56Z</time>
</trkpt>
<trkpt lat="48.773391991853714" lon="9.949464993551373">
<ele>622.2</ele>
<time>2023-05-16T08:24:57Z</time>
</trkpt>
<trkpt lat="48.77333692274988" lon="9.949369942769408">
<ele>621.4000000000001</ele>
<time>2023-05-16T08:24:58Z</time>
</trkpt>
<trkpt lat="48.773269951343536" lon="9.949282938614488">
<ele>620.8</ele>
<time>2023-05-16T08:24:59Z</time>
</trkpt>
<trkpt lat="48.773206919431686" lon="9.94918193668127">
<ele>620</ele>
<time>2023-05-16T08:25:00Z</time>
</trkpt>
<trkpt lat="48.77314296551049" lon="9.949082946404815">
<ele>619</ele>
<time>2023-05-16T08:25:01Z</time>
</trkpt>
<trkpt lat="48.773077921941876" lon="9.948992924764752">
<ele>618</ele>
<time>2023-05-16T08:25:02Z</time>
</trkpt>
<trkpt lat="48.77301497384906" lon="9.948902986943722">
<ele>617</ele>
<time>2023-05-16T08:25:03Z</time>
</trkpt>
<trkpt lat="48.772947918623686" lon="9.948807936161757">
<ele>616</ele>
<time>2023-05-16T08:25:04Z</time>
</trkpt>
<trkpt lat="48.77288497053087" lon="9.948721937835217">
<ele>615</ele>
<time>2023-05-16T08:25:05Z</time>
</trkpt>
<trkpt lat="48.7728279735893" lon="9.948631916195154">
<ele>614</ele>
<time>2023-05-16T08:25:06Z</time>
</trkpt>
<trkpt lat="48.772772988304496" lon="9.948547929525375">
<ele>613</ele>
<time>2023-05-16T08:25:07Z</time>
</trkpt>
<trkpt lat="48.77272294834256" lon="9.948472995311022">
<ele>612</ele>
<time>2023-05-16T08:25:08Z</time>
</trkpt>
<trkpt lat="48.77267198637128" lon="9.94838297367096">
<ele>611</ele>
<time>2023-05-16T08:25:09Z</time>
</trkpt>
<trkpt lat="48.77262697555125" lon="9.948279960080981">
<ele>610</ele>
<time>2023-05-16T08:25:10Z</time>
</trkpt>
<trkpt lat="48.77258992753923" lon="9.948156997561455">
<ele>609.2</ele>
<time>2023-05-16T08:25:11Z</time>
</trkpt>
<trkpt lat="48.772559920325875" lon="9.948027916252613">
<ele>608.2</ele>
<time>2023-05-16T08:25:12Z</time>
</trkpt>
<trkpt lat="48.77254793420434" lon="9.947886932641268">
<ele>607.2</ele>
<time>2023-05-16T08:25:13Z</time>
</trkpt>
<trkpt lat="48.77254298888147" lon="9.94774293154478">
<ele>606.2</ele>
<time>2023-05-16T08:25:14Z</time>
</trkpt>
<trkpt lat="48.772559920325875" lon="9.947596918791533">
<ele>605.4000000000001</ele>
<time>2023-05-16T08:25:15Z</time>
</trkpt>
<trkpt lat="48.77258498221636" lon="9.947447972372174">
<ele>604.4000000000001</ele>
<time>2023-05-16T08:25:16Z</time>
</trkpt>
<trkpt lat="48.77261297777295" lon="9.947304977104068">
<ele>603.5999999999999</ele>
<time>2023-05-16T08:25:17Z</time>
</trkpt>
<trkpt lat="48.772642984986305" lon="9.947161981835961">
<ele>602.8</ele>
<time>2023-05-16T08:25:18Z</time>
</trkpt>
<trkpt lat="48.77267299219966" lon="9.947012951597571">
<ele>602</ele>
<time>2023-05-16T08:25:19Z</time>
</trkpt>
<trkpt lat="48.772706938907504" lon="9.94685797020793">
<ele>601.2</ele>
<time>2023-05-16T08:25:20Z</time>
</trkpt>
<trkpt lat="48.77274197526276" lon="9.946702988818288">
<ele>600.4000000000001</ele>
<time>2023-05-16T08:25:21Z</time>
</trkpt>
<trkpt lat="48.77277793362737" lon="9.946544989943504">
<ele>599.4000000000001</ele>
<time>2023-05-16T08:25:22Z</time>
</trkpt>
<trkpt lat="48.77282696776092" lon="9.946379950270057">
<ele>598.5999999999999</ele>
<time>2023-05-16T08:25:23Z</time>
</trkpt>
<trkpt lat="48.772881953045726" lon="9.946202924475074">
<ele>597.8</ele>
<time>2023-05-16T08:25:24Z</time>
</trkpt>
<trkpt lat="48.77293299883604" lon="9.94604199193418">
<ele>597</ele>
<time>2023-05-16T08:25:25Z</time>
</trkpt>
<trkpt lat="48.77298295497894" lon="9.945899918675423">
<ele>596</ele>
<time>2023-05-16T08:25:26Z</time>
</trkpt>
<trkpt lat="48.77303299494088" lon="9.94576497003436">
<ele>595.2</ele>
<time>2023-05-16T08:25:27Z</time>
</trkpt>
<trkpt lat="48.773077921941876" lon="9.94563295505941">
<ele>594.4000000000001</ele>
<time>2023-05-16T08:25:28Z</time>
</trkpt>
<trkpt lat="48.77312695607543" lon="9.945497922599316">
<ele>593.5999999999999</ele>
<time>2023-05-16T08:25:29Z</time>
</trkpt>
<trkpt lat="48.773181941360235" lon="9.94535492733121">
<ele>592.5999999999999</ele>
<time>2023-05-16T08:25:30Z</time>
</trkpt>
<trkpt lat="48.773242961615324" lon="9.945231964811683">
<ele>591.8</ele>
<time>2023-05-16T08:25:31Z</time>
</trkpt>
<trkpt lat="48.77330197021365" lon="9.945089975371957">
<ele>591</ele>
<time>2023-05-16T08:25:32Z</time>
</trkpt>
<trkpt lat="48.7733599729836" lon="9.944966929033399">
<ele>590.2</ele>
<time>2023-05-16T08:25:33Z</time>
</trkpt>
<trkpt lat="48.77341294661164" lon="9.94483994320035">
<ele>589.4000000000001</ele>
<time>2023-05-16T08:25:34Z</time>
</trkpt>
<trkpt lat="48.77346793189645" lon="9.944716980680823">
<ele>588.5999999999999</ele>
<time>2023-05-16T08:25:35Z</time>
</trkpt>
<trkpt lat="48.773527946323156" lon="9.944594940170646">
<ele>587.8</ele>
<time>2023-05-16T08:25:36Z</time>
</trkpt>
<trkpt lat="48.773586954921484" lon="9.9444729834795">
<ele>586.8</ele>
<time>2023-05-16T08:25:37Z</time>
</trkpt>
<trkpt lat="48.77364194020629" lon="9.944339962676167">
<ele>586</ele>
<time>2023-05-16T08:25:38Z</time>
</trkpt>
<trkpt lat="48.773696925491095" lon="9.944247929379344">
<ele>585</ele>
<time>2023-05-16T08:25:39Z</time>
</trkpt>
<trkpt lat="48.7737569399178" lon="9.944164948537946">
<ele>584</ele>
<time>2023-05-16T08:25:40Z</time>
</trkpt>
<trkpt lat="48.77383497543633" lon="9.944097977131605">
<ele>583.2</ele>
<time>2023-05-16T08:25:41Z</time>
</trkpt>
<trkpt lat="48.77391996793449" lon="9.9440429918468">
<ele>582.4000000000001</ele>
<time>2023-05-16T08:25:42Z</time>
</trkpt>
<trkpt lat="48.77401191741228" lon="9.944006949663162">
<ele>581.4000000000001</ele>
<time>2023-05-16T08:25:43Z</time>
</trkpt>
<trkpt lat="48.77409992739558" lon="9.943969985470176">
<ele>580.5999999999999</ele>
<time>2023-05-16T08:25:44Z</time>
</trkpt>
<trkpt lat="48.77417796291411" lon="9.943932937458158">
<ele>579.8</ele>
<time>2023-05-16T08:25:45Z</time>
</trkpt>
<trkpt lat="48.77425993792713" lon="9.943877952173352">
<ele>579</ele>
<time>2023-05-16T08:25:46Z</time>
</trkpt>
<trkpt lat="48.77432296983898" lon="9.943812992423773">
<ele>578.2</ele>
<time>2023-05-16T08:25:47Z</time>
</trkpt>
<trkpt lat="48.7743719201535" lon="9.943727999925613">
<ele>577.5999999999999</ele>
<time>2023-05-16T08:25:48Z</time>
</trkpt>
<trkpt lat="48.77439798787236" lon="9.94363496080041">
<ele>576.8</ele>
<time>2023-05-16T08:25:49Z</time>
</trkpt>
<trkpt lat="48.77439295873046" lon="9.943517949432135">
<ele>576.2</ele>
<time>2023-05-16T08:25:50Z</time>
</trkpt>
<trkpt lat="48.77437292598188" lon="9.943411918357015">
<ele>575.5999999999999</ele>
<time>2023-05-16T08:25:51Z</time>
</trkpt>
<trkpt lat="48.77432799898088" lon="9.943317957222462">
<ele>575.2</ele>
<time>2023-05-16T08:25:52Z</time>
</trkpt>
<trkpt lat="48.77426999621093" lon="9.943239921703935">
<ele>574.4000000000001</ele>
<time>2023-05-16T08:25:53Z</time>
</trkpt>
<trkpt lat="48.77420193515718" lon="9.943156940862536">
<ele>573.8</ele>
<time>2023-05-16T08:25:54Z</time>
</trkpt>
<trkpt lat="48.77413798123598" lon="9.943059962242842">
<ele>573</ele>
<time>2023-05-16T08:25:55Z</time>
</trkpt>
<trkpt lat="48.774086935445666" lon="9.94294798001647">
<ele>572.2</ele>
<time>2023-05-16T08:25:56Z</time>
</trkpt>
<trkpt lat="48.774034967646" lon="9.942851923406124">
<ele>571.4000000000001</ele>
<time>2023-05-16T08:25:57Z</time>
</trkpt>
<trkpt lat="48.77402197569609" lon="9.942709933966398">
<ele>570.5999999999999</ele>
<time>2023-05-16T08:25:58Z</time>
</trkpt>
<trkpt lat="48.774016946554184" lon="9.942549923434854">
<ele>569.8</ele>
<time>2023-05-16T08:25:59Z</time>
</trkpt>
<trkpt lat="48.77400797791779" lon="9.942401982843876">
<ele>569</ele>
<time>2023-05-16T08:26:00Z</time>
</trkpt>
<trkpt lat="48.77400797791779" lon="9.942227974534035">
<ele>568.2</ele>
<time>2023-05-16T08:26:01Z</time>
</trkpt>
<trkpt lat="48.774019964039326" lon="9.942054972052574">
<ele>567.4000000000001</ele>
<time>2023-05-16T08:26:02Z</time>
</trkpt>
<trkpt lat="48.77402692101896" lon="9.941872917115688">
<ele>566.5999999999999</ele>
<time>2023-05-16T08:26:03Z</time>
</trkpt>
<trkpt lat="48.774037985131145" lon="9.941684994846582">
<ele>565.8</ele>
<time>2023-05-16T08:26:04Z</time>
</trkpt>
<trkpt lat="48.77404795959592" lon="9.941517943516374">
<ele>565.2</ele>
<time>2023-05-16T08:26:05Z</time>
</trkpt>
<trkpt lat="48.77407293766737" lon="9.941344941034913">
<ele>564.5999999999999</ele>
<time>2023-05-16T08:26:06Z</time>
</trkpt>
<trkpt lat="48.77411996014416" lon="9.941182918846607">
<ele>563.8</ele>
<time>2023-05-16T08:26:07Z</time>
</trkpt>
<trkpt lat="48.77415499649942" lon="9.941004971042275">
<ele>563.2</ele>
<time>2023-05-16T08:26:08Z</time>
</trkpt>
<trkpt lat="48.77420797012746" lon="9.940852923318744">
<ele>562.5999999999999</ele>
<time>2023-05-16T08:26:09Z</time>
</trkpt>
<trkpt lat="48.77424191683531" lon="9.94071495719254">
<ele>562</ele>
<time>2023-05-16T08:26:10Z</time>
</trkpt>
<trkpt lat="48.77426999621093" lon="9.940572967752814">
<ele>561.4000000000001</ele>
<time>2023-05-16T08:26:11Z</time>
</trkpt>
<trkpt lat="48.7743129953742" lon="9.94041295722127">
<ele>561</ele>
<time>2023-05-16T08:26:12Z</time>
</trkpt>
<trkpt lat="48.77435498870909" lon="9.940262921154499">
<ele>560.5999999999999</ele>
<time>2023-05-16T08:26:13Z</time>
</trkpt>
<trkpt lat="48.77440293319523" lon="9.940124955028296">
<ele>560.2</ele>
<time>2023-05-16T08:26:14Z</time>
</trkpt>
<trkpt lat="48.77444492653012" lon="9.93996494449675">
<ele>559.8</ele>
<time>2023-05-16T08:26:15Z</time>
</trkpt>
<trkpt lat="48.77448298037052" lon="9.939816920086741">
<ele>559.4000000000001</ele>
<time>2023-05-16T08:26:16Z</time>
</trkpt>
<trkpt lat="48.77452799119055" lon="9.939701920375228">
<ele>559.2</ele>
<time>2023-05-16T08:26:17Z</time>
</trkpt>
<trkpt lat="48.7745669670403" lon="9.93957694619894">
<ele>558.8</ele>
<time>2023-05-16T08:26:18Z</time>
</trkpt>
<trkpt lat="48.774599991738796" lon="9.939452977851033">
<ele>558.4000000000001</ele>
<time>2023-05-16T08:26:19Z</time>
</trkpt>
<trkpt lat="48.77462999895215" lon="9.939332948997617">
<ele>558.2</ele>
<time>2023-05-16T08:26:20Z</time>
</trkpt>
<trkpt lat="48.774661934003234" lon="9.939221972599626">
<ele>558</ele>
<time>2023-05-16T08:26:21Z</time>
</trkpt>
<trkpt lat="48.77469495870173" lon="9.939109990373254">
<ele>557.5999999999999</ele>
<time>2023-05-16T08:26:22Z</time>
</trkpt>
<trkpt lat="48.774726977571845" lon="9.93899691849947">
<ele>557.4000000000001</ele>
<time>2023-05-16T08:26:23Z</time>
</trkpt>
<trkpt lat="48.7747569847852" lon="9.93888694792986">
<ele>557.2</ele>
<time>2023-05-16T08:26:24Z</time>
</trkpt>
<trkpt lat="48.77478699199855" lon="9.938772954046726">
<ele>557</ele>
<time>2023-05-16T08:26:25Z</time>
</trkpt>
<trkpt lat="48.77481699921191" lon="9.938662983477116">
<ele>556.5999999999999</ele>
<time>2023-05-16T08:26:26Z</time>
</trkpt>
<trkpt lat="48.77485195174813" lon="9.938552929088473">
<ele>556.4000000000001</ele>
<time>2023-05-16T08:26:27Z</time>
</trkpt>
<trkpt lat="48.77488799393177" lon="9.938442958518863">
<ele>556.2</ele>
<time>2023-05-16T08:26:28Z</time>
</trkpt>
<trkpt lat="48.774922946467996" lon="9.93832997046411">
<ele>555.8</ele>
<time>2023-05-16T08:26:29Z</time>
</trkpt>
<trkpt lat="48.774959994480014" lon="9.938216982409358">
<ele>555.4000000000001</ele>
<time>2023-05-16T08:26:30Z</time>
</trkpt>
<trkpt lat="48.7750019878149" lon="9.938106928020716">
<ele>555</ele>
<time>2023-05-16T08:26:31Z</time>
</trkpt>
<trkpt lat="48.77504196949303" lon="9.937997963279486">
<ele>554.5999999999999</ele>
<time>2023-05-16T08:26:32Z</time>
</trkpt>
<trkpt lat="48.7750849686563" lon="9.937891932204366">
<ele>554.2</ele>
<time>2023-05-16T08:26:33Z</time>
</trkpt>
<trkpt lat="48.77512796781957" lon="9.937782967463136">
<ele>553.5999999999999</ele>
<time>2023-05-16T08:26:34Z</time>
</trkpt>
<trkpt lat="48.7751729786396" lon="9.937671991065145">
<ele>553</ele>
<time>2023-05-16T08:26:35Z</time>
</trkpt>
<trkpt lat="48.775221928954124" lon="9.937556991353631">
<ele>552.5999999999999</ele>
<time>2023-05-16T08:26:36Z</time>
</trkpt>
<trkpt lat="48.77527196891606" lon="9.937439979985356">
<ele>552</ele>
<time>2023-05-16T08:26:37Z</time>
</trkpt>
<trkpt lat="48.77532192505896" lon="9.937307965010405">
<ele>551.4000000000001</ele>
<time>2023-05-16T08:26:38Z</time>
</trkpt>
<trkpt lat="48.77537498250604" lon="9.937194976955652">
<ele>551</ele>
<time>2023-05-16T08:26:39Z</time>
</trkpt>
<trkpt lat="48.77542996779084" lon="9.937089951708913">
<ele>550.4000000000001</ele>
<time>2023-05-16T08:26:40Z</time>
</trkpt>
<trkpt lat="48.775482941418886" lon="9.936981992796063">
<ele>549.8</ele>
<time>2023-05-16T08:26:41Z</time>
</trkpt>
<trkpt lat="48.77553993836045" lon="9.936879985034466">
<ele>549.2</ele>
<time>2023-05-16T08:26:42Z</time>
</trkpt>
<trkpt lat="48.77559693530202" lon="9.936777977272868">
<ele>548.5999999999999</ele>
<time>2023-05-16T08:26:43Z</time>
</trkpt>
<trkpt lat="48.775652926415205" lon="9.936681920662522">
<ele>548</ele>
<time>2023-05-16T08:26:44Z</time>
</trkpt>
<trkpt lat="48.77571193501353" lon="9.936579996719956">
<ele>547.4000000000001</ele>
<time>2023-05-16T08:26:45Z</time>
</trkpt>
<trkpt lat="48.77576792612672" lon="9.936479916796088">
<ele>546.8</ele>
<time>2023-05-16T08:26:46Z</time>
</trkpt>
<trkpt lat="48.77582794055343" lon="9.936376987025142">
<ele>546.2</ele>
<time>2023-05-16T08:26:47Z</time>
</trkpt>
<trkpt lat="48.77589298412204" lon="9.9362669326365">
<ele>545.4000000000001</ele>
<time>2023-05-16T08:26:48Z</time>
</trkpt>
<trkpt lat="48.775954926386476" lon="9.936154950410128">
<ele>544.8</ele>
<time>2023-05-16T08:26:49Z</time>
</trkpt>
<trkpt lat="48.77602499909699" lon="9.936042968183756">
<ele>544</ele>
<time>2023-05-16T08:26:50Z</time>
</trkpt>
<trkpt lat="48.77609297633171" lon="9.935934925451875">
<ele>543.2</ele>
<time>2023-05-16T08:26:51Z</time>
</trkpt>
<trkpt lat="48.776164976879954" lon="9.935817997902632">
<ele>542.5999999999999</ele>
<time>2023-05-16T08:26:52Z</time>
</trkpt>
<trkpt lat="48.77623798325658" lon="9.935721941292286">
<ele>541.8</ele>
<time>2023-05-16T08:26:53Z</time>
</trkpt>
<trkpt lat="48.77630998380482" lon="9.935592943802476">
<ele>541.2</ele>
<time>2023-05-16T08:26:54Z</time>
</trkpt>
<trkpt lat="48.77638692967594" lon="9.93546998128295">
<ele>540.4000000000001</ele>
<time>2023-05-16T08:26:55Z</time>
</trkpt>
<trkpt lat="48.776471922174096" lon="9.93534492328763">
<ele>539.4000000000001</ele>
<time>2023-05-16T08:26:56Z</time>
</trkpt>
<trkpt lat="48.776551969349384" lon="9.93521491996944">
<ele>538.5999999999999</ele>
<time>2023-05-16T08:26:57Z</time>
</trkpt>
<trkpt lat="48.77665196545422" lon="9.935112996026874">
<ele>537.5999999999999</ele>
<time>2023-05-16T08:26:58Z</time>
</trkpt>
<trkpt lat="48.77675992436707" lon="9.935002941638231">
<ele>536.5999999999999</ele>
<time>2023-05-16T08:26:59Z</time>
</trkpt>
<trkpt lat="48.77686796709895" lon="9.934912919998169">
<ele>535.5999999999999</ele>
<time>2023-05-16T08:27:00Z</time>
</trkpt>
<trkpt lat="48.776981960982084" lon="9.934812923893332">
<ele>534.5999999999999</ele>
<time>2023-05-16T08:27:01Z</time>
</trkpt>
<trkpt lat="48.777089919894934" lon="9.934711921960115">
<ele>533.5999999999999</ele>
<time>2023-05-16T08:27:02Z</time>
</trkpt>
<trkpt lat="48.777199974283576" lon="9.934596922248602">
<ele>532.5999999999999</ele>
<time>2023-05-16T08:27:03Z</time>
</trkpt>
<trkpt lat="48.77730994485319" lon="9.934494998306036">
<ele>531.5999999999999</ele>
<time>2023-05-16T08:27:04Z</time>
</trkpt>
<trkpt lat="48.77740994095802" lon="9.934391984716058">
<ele>530.5999999999999</ele>
<time>2023-05-16T08:27:05Z</time>
</trkpt>
<trkpt lat="48.777519995346665" lon="9.934297939762473">
<ele>529.8</ele>
<time>2023-05-16T08:27:06Z</time>
</trkpt>
<trkpt lat="48.77761797979474" lon="9.934212947264314">
<ele>529</ele>
<time>2023-05-16T08:27:07Z</time>
</trkpt>
<trkpt lat="48.777712946757674" lon="9.934134995564818">
<ele>528.2</ele>
<time>2023-05-16T08:27:08Z</time>
</trkpt>
<trkpt lat="48.777799950912595" lon="9.93405494838953">
<ele>527.4000000000001</ele>
<time>2023-05-16T08:27:09Z</time>
</trkpt>
<trkpt lat="48.777886955067515" lon="9.933972973376513">
<ele>527</ele>
<time>2023-05-16T08:27:10Z</time>
</trkpt>
<trkpt lat="48.777972953394055" lon="9.933887980878353">
<ele>526.4000000000001</ele>
<time>2023-05-16T08:27:11Z</time>
</trkpt>
<trkpt lat="48.77806297503412" lon="9.933809945359826">
<ele>526.2</ele>
<time>2023-05-16T08:27:12Z</time>
</trkpt>
<trkpt lat="48.778142938390374" lon="9.93372998200357">
<ele>525.8</ele>
<time>2023-05-16T08:27:13Z</time>
</trkpt>
<trkpt lat="48.77821292728186" lon="9.933652952313423">
<ele>525.4000000000001</ele>
<time>2023-05-16T08:27:14Z</time>
</trkpt>
<trkpt lat="48.778291968628764" lon="9.933569971472025">
<ele>525.2</ele>
<time>2023-05-16T08:27:15Z</time>
</trkpt>
<trkpt lat="48.778376961126924" lon="9.933489924296737">
<ele>525</ele>
<time>2023-05-16T08:27:16Z</time>
</trkpt>
<trkpt lat="48.77845793031156" lon="9.933419935405254">
<ele>524.5999999999999</ele>
<time>2023-05-16T08:27:17Z</time>
</trkpt>
<trkpt lat="48.778531942516565" lon="9.933349946513772">
<ele>524.5999999999999</ele>
<time>2023-05-16T08:27:18Z</time>
</trkpt>
<trkpt lat="48.77860293723643" lon="9.933284986764193">
<ele>524.4000000000001</ele>
<time>2023-05-16T08:27:19Z</time>
</trkpt>
<trkpt lat="48.77867292612791" lon="9.93321793153882">
<ele>524.2</ele>
<time>2023-05-16T08:27:20Z</time>
</trkpt>
<trkpt lat="48.778741993010044" lon="9.933154983446002">
<ele>524</ele>
<time>2023-05-16T08:27:21Z</time>
</trkpt>
<trkpt lat="48.77880494110286" lon="9.933092957362533">
<ele>524</ele>
<time>2023-05-16T08:27:22Z</time>
</trkpt>
<trkpt lat="48.77886696718633" lon="9.933032942935824">
<ele>524</ele>
<time>2023-05-16T08:27:23Z</time>
</trkpt>
<trkpt lat="48.77892698161304" lon="9.932976951822639">
<ele>523.8</ele>
<time>2023-05-16T08:27:24Z</time>
</trkpt>
<trkpt lat="48.77898699603975" lon="9.932922972366214">
<ele>523.8</ele>
<time>2023-05-16T08:27:25Z</time>
</trkpt>
<trkpt lat="48.77904198132455" lon="9.93286999873817">
<ele>523.8</ele>
<time>2023-05-16T08:27:26Z</time>
</trkpt>
<trkpt lat="48.77909797243774" lon="9.932817947119474">
<ele>523.8</ele>
<time>2023-05-16T08:27:27Z</time>
</trkpt>
<trkpt lat="48.77914792858064" lon="9.932771930471063">
<ele>523.8</ele>
<time>2023-05-16T08:27:28Z</time>
</trkpt>
<trkpt lat="48.779196962714195" lon="9.932726919651031">
<ele>523.6</ele>
<time>2023-05-16T08:27:29Z</time>
</trkpt>
<trkpt lat="48.779241973534226" lon="9.932687943801284">
<ele>523.6</ele>
<time>2023-05-16T08:27:30Z</time>
</trkpt>
<trkpt lat="48.77929494716227" lon="9.932647962123156">
<ele>523.6</ele>
<time>2023-05-16T08:27:31Z</time>
</trkpt>
<trkpt lat="48.77935496158898" lon="9.932611919939518">
<ele>523.4</ele>
<time>2023-05-16T08:27:32Z</time>
</trkpt>
<trkpt lat="48.77941799350083" lon="9.932579984888434">
<ele>523.4</ele>
<time>2023-05-16T08:27:33Z</time>
</trkpt>
<trkpt lat="48.77948295325041" lon="9.932546960189939">
<ele>523.2</ele>
<time>2023-05-16T08:27:34Z</time>
</trkpt>
<trkpt lat="48.77955495379865" lon="9.932511923834682">
<ele>523.2</ele>
<time>2023-05-16T08:27:35Z</time>
</trkpt>
<trkpt lat="48.7796319834888" lon="9.932477977126837">
<ele>522.8</ele>
<time>2023-05-16T08:27:36Z</time>
</trkpt>
<trkpt lat="48.779712952673435" lon="9.93244294077158">
<ele>522.4</ele>
<time>2023-05-16T08:27:37Z</time>
</trkpt>
<trkpt lat="48.77979492768645" lon="9.932404970750213">
<ele>522</ele>
<time>2023-05-16T08:27:38Z</time>
</trkpt>
<trkpt lat="48.77987799234688" lon="9.932366916909814">
<ele>521.6</ele>
<time>2023-05-16T08:27:39Z</time>
</trkpt>
<trkpt lat="48.77996298484504" lon="9.932331964373589">
<ele>521</ele>
<time>2023-05-16T08:27:40Z</time>
</trkpt>
<trkpt lat="48.78005191683769" lon="9.932296928018332">
<ele>520.6</ele>
<time>2023-05-16T08:27:41Z</time>
</trkpt>
<trkpt lat="48.7801499851048" lon="9.932264992967248">
<ele>520</ele>
<time>2023-05-16T08:27:42Z</time>
</trkpt>
<trkpt lat="48.78025299869478" lon="9.932211935520172">
<ele>519.4</ele>
<time>2023-05-16T08:27:43Z</time>
</trkpt>
<trkpt lat="48.78034796565771" lon="9.932179916650057">
<ele>518.6</ele>
<time>2023-05-16T08:27:44Z</time>
</trkpt>
<trkpt lat="48.78044796176255" lon="9.932137923315167">
<ele>518</ele>
<time>2023-05-16T08:27:45Z</time>
</trkpt>
<trkpt lat="48.78053697757423" lon="9.93209794163704">
<ele>517.2</ele>
<time>2023-05-16T08:27:46Z</time>
</trkpt>
<trkpt lat="48.78062699921429" lon="9.932059971615672">
<ele>516.4</ele>
<time>2023-05-16T08:27:47Z</time>
</trkpt>
<trkpt lat="48.78071199171245" lon="9.932026946917176">
<ele>515.6</ele>
<time>2023-05-16T08:27:48Z</time>
</trkpt>
<trkpt lat="48.780806958675385" lon="9.931996939703822">
<ele>514.8</ele>
<time>2023-05-16T08:27:49Z</time>
</trkpt>
<trkpt lat="48.780914917588234" lon="9.93196994997561">
<ele>514</ele>
<time>2023-05-16T08:27:50Z</time>
</trkpt>
<trkpt lat="48.78101793117821" lon="9.93192795664072">
<ele>513.4</ele>
<time>2023-05-16T08:27:51Z</time>
</trkpt>
<trkpt lat="48.78111298196018" lon="9.93190691806376">
<ele>512.6</ele>
<time>2023-05-16T08:27:52Z</time>
</trkpt>
<trkpt lat="48.781217923387885" lon="9.931886969134212">
<ele>511.79999999999995</ele>
<time>2023-05-16T08:27:53Z</time>
</trkpt>
<trkpt lat="48.781324960291386" lon="9.931872971355915">
<ele>511</ele>
<time>2023-05-16T08:27:54Z</time>
</trkpt>
<trkpt lat="48.781431997194886" lon="9.931866936385632">
<ele>510.20000000000005</ele>
<time>2023-05-16T08:27:55Z</time>
</trkpt>
<trkpt lat="48.7815419677645" lon="9.931866936385632">
<ele>509.20000000000005</ele>
<time>2023-05-16T08:27:56Z</time>
</trkpt>
<trkpt lat="48.78165696747601" lon="9.93186492472887">
<ele>508.20000000000005</ele>
<time>2023-05-16T08:27:57Z</time>
</trkpt>
<trkpt lat="48.781772973015904" lon="9.931866936385632">
<ele>507.4</ele>
<time>2023-05-16T08:27:58Z</time>
</trkpt>
<trkpt lat="48.78188797272742" lon="9.931869953870773">
<ele>506.4</ele>
<time>2023-05-16T08:27:59Z</time>
</trkpt>
<trkpt lat="48.782009929418564" lon="9.931871965527534">
<ele>505.4</ele>
<time>2023-05-16T08:28:00Z</time>
</trkpt>
<trkpt lat="48.78212694078684" lon="9.931879928335547">
<ele>504.4</ele>
<time>2023-05-16T08:28:01Z</time>
</trkpt>
<trkpt lat="48.782244957983494" lon="9.93190499022603">
<ele>503.4</ele>
<time>2023-05-16T08:28:02Z</time>
</trkpt>
<trkpt lat="48.78237294964492" lon="9.931944971904159">
<ele>502.4</ele>
<time>2023-05-16T08:28:03Z</time>
</trkpt>
<trkpt lat="48.782479986548424" lon="9.931991994380951">
<ele>501.6</ele>
<time>2023-05-16T08:28:04Z</time>
</trkpt>
<trkpt lat="48.78258291631937" lon="9.932044968008995">
<ele>500.6</ele>
<time>2023-05-16T08:28:05Z</time>
</trkpt>
<trkpt lat="48.782694982364774" lon="9.93211998604238">
<ele>499.6</ele>
<time>2023-05-16T08:28:06Z</time>
</trkpt>
<trkpt lat="48.782806964591146" lon="9.932196931913495">
<ele>498.6</ele>
<time>2023-05-16T08:28:07Z</time>
</trkpt>
<trkpt lat="48.78292297013104" lon="9.932284941896796">
<ele>497.79999999999995</ele>
<time>2023-05-16T08:28:08Z</time>
</trkpt>
<trkpt lat="48.78302992321551" lon="9.932374963536859">
<ele>496.79999999999995</ele>
<time>2023-05-16T08:28:09Z</time>
</trkpt>
<trkpt lat="48.783129919320345" lon="9.932466996833682">
<ele>496.20000000000005</ele>
<time>2023-05-16T08:28:10Z</time>
</trkpt>
<trkpt lat="48.78322497010231" lon="9.932557940483093">
<ele>495.4</ele>
<time>2023-05-16T08:28:11Z</time>
</trkpt>
<trkpt lat="48.78331792540848" lon="9.932669922709465">
<ele>494.79999999999995</ele>
<time>2023-05-16T08:28:12Z</time>
</trkpt>
<trkpt lat="48.783406941220164" lon="9.932772936299443">
<ele>494.20000000000005</ele>
<time>2023-05-16T08:28:13Z</time>
</trkpt>
<trkpt lat="48.783491933718324" lon="9.93287293240428">
<ele>493.6</ele>
<time>2023-05-16T08:28:14Z</time>
</trkpt>
<trkpt lat="48.78357298672199" lon="9.932974940165877">
<ele>493.20000000000005</ele>
<time>2023-05-16T08:28:15Z</time>
</trkpt>
<trkpt lat="48.783646998927" lon="9.93306496180594">
<ele>492.79999999999995</ele>
<time>2023-05-16T08:28:16Z</time>
</trkpt>
<trkpt lat="48.78371497616172" lon="9.933142997324467">
<ele>492.4</ele>
<time>2023-05-16T08:28:17Z</time>
</trkpt>
<trkpt lat="48.7837799359113" lon="9.933231929317117">
<ele>492.20000000000005</ele>
<time>2023-05-16T08:28:18Z</time>
</trkpt>
<trkpt lat="48.78385294228792" lon="9.93332496844232">
<ele>491.79999999999995</ele>
<time>2023-05-16T08:28:19Z</time>
</trkpt>
<trkpt lat="48.78391496837139" lon="9.933412978425622">
<ele>491.6</ele>
<time>2023-05-16T08:28:20Z</time>
</trkpt>
<trkpt lat="48.78397791646421" lon="9.933499982580543">
<ele>491.6</ele>
<time>2023-05-16T08:28:21Z</time>
</trkpt>
<trkpt lat="48.78404195420444" lon="9.93358195759356">
<ele>491.4</ele>
<time>2023-05-16T08:28:22Z</time>
</trkpt>
<trkpt lat="48.78410196863115" lon="9.933659993112087">
<ele>491.20000000000005</ele>
<time>2023-05-16T08:28:23Z</time>
</trkpt>
<trkpt lat="48.784156953915954" lon="9.93373492732644">
<ele>491.20000000000005</ele>
<time>2023-05-16T08:28:24Z</time>
</trkpt>
<trkpt lat="48.78421193920076" lon="9.933804916217923">
<ele>491</ele>
<time>2023-05-16T08:28:25Z</time>
</trkpt>
<trkpt lat="48.78426197916269" lon="9.933867948129773">
<ele>490.79999999999995</ele>
<time>2023-05-16T08:28:26Z</time>
</trkpt>
<trkpt lat="48.784309923648834" lon="9.933934919536114">
<ele>490.79999999999995</ele>
<time>2023-05-16T08:28:27Z</time>
</trkpt>
<trkpt lat="48.78435996361077" lon="9.933999963104725">
<ele>490.6</ele>
<time>2023-05-16T08:28:28Z</time>
</trkpt>
<trkpt lat="48.78440799191594" lon="9.934064922854304">
<ele>490.6</ele>
<time>2023-05-16T08:28:29Z</time>
</trkpt>
<trkpt lat="48.78445291891694" lon="9.934131978079677">
<ele>490.4</ele>
<time>2023-05-16T08:28:30Z</time>
</trkpt>
<trkpt lat="48.78449792973697" lon="9.934196937829256">
<ele>490.20000000000005</ele>
<time>2023-05-16T08:28:31Z</time>
</trkpt>
<trkpt lat="48.784542940557" lon="9.934261981397867">
<ele>490.20000000000005</ele>
<time>2023-05-16T08:28:32Z</time>
</trkpt>
<trkpt lat="48.784589963033795" lon="9.934326941147447">
<ele>490</ele>
<time>2023-05-16T08:28:33Z</time>
</trkpt>
<trkpt lat="48.784632962197065" lon="9.934391984716058">
<ele>490</ele>
<time>2023-05-16T08:28:34Z</time>
</trkpt>
<trkpt lat="48.784674955531955" lon="9.934454932808876">
<ele>489.79999999999995</ele>
<time>2023-05-16T08:28:35Z</time>
</trkpt>
<trkpt lat="48.784716948866844" lon="9.934521988034248">
<ele>489.6</ele>
<time>2023-05-16T08:28:36Z</time>
</trkpt>
<trkpt lat="48.78475491888821" lon="9.93458996526897">
<ele>489.6</ele>
<time>2023-05-16T08:28:37Z</time>
</trkpt>
<trkpt lat="48.78479699604213" lon="9.93465693667531">
<ele>489.4</ele>
<time>2023-05-16T08:28:38Z</time>
</trkpt>
<trkpt lat="48.78483798354864" lon="9.934722986072302">
<ele>489.20000000000005</ele>
<time>2023-05-16T08:28:39Z</time>
</trkpt>
<trkpt lat="48.78488198854029" lon="9.934791969135404">
<ele>489.20000000000005</ele>
<time>2023-05-16T08:28:40Z</time>
</trkpt>
<trkpt lat="48.78491995856166" lon="9.934862963855267">
<ele>489</ele>
<time>2023-05-16T08:28:41Z</time>
</trkpt>
<trkpt lat="48.784957928583026" lon="9.93493496440351">
<ele>488.79999999999995</ele>
<time>2023-05-16T08:28:42Z</time>
</trkpt>
<trkpt lat="48.784997994080186" lon="9.935007970780134">
<ele>488.6</ele>
<time>2023-05-16T08:28:43Z</time>
</trkpt>
<trkpt lat="48.785037975758314" lon="9.935081982985139">
<ele>488.4</ele>
<time>2023-05-16T08:28:44Z</time>
</trkpt>
<trkpt lat="48.78507795743644" lon="9.935152977705002">
<ele>488.20000000000005</ele>
<time>2023-05-16T08:28:45Z</time>
</trkpt>
<trkpt lat="48.78511693328619" lon="9.935226989910007">
<ele>488</ele>
<time>2023-05-16T08:28:46Z</time>
</trkpt>
<trkpt lat="48.78515498712659" lon="9.93530192412436">
<ele>487.79999999999995</ele>
<time>2023-05-16T08:28:47Z</time>
</trkpt>
<trkpt lat="48.78519496880472" lon="9.935374930500984">
<ele>487.6</ele>
<time>2023-05-16T08:28:48Z</time>
</trkpt>
<trkpt lat="48.785232938826084" lon="9.93545196019113">
<ele>487.20000000000005</ele>
<time>2023-05-16T08:28:49Z</time>
</trkpt>
<trkpt lat="48.78527292050421" lon="9.935527984052896">
<ele>487</ele>
<time>2023-05-16T08:28:50Z</time>
</trkpt>
<trkpt lat="48.78531499765813" lon="9.935604929924011">
<ele>486.6</ele>
<time>2023-05-16T08:28:51Z</time>
</trkpt>
<trkpt lat="48.78535699099302" lon="9.935681959614158">
<ele>486.20000000000005</ele>
<time>2023-05-16T08:28:52Z</time>
</trkpt>
<trkpt lat="48.78539999015629" lon="9.935761922970414">
<ele>485.79999999999995</ele>
<time>2023-05-16T08:28:53Z</time>
</trkpt>
<trkpt lat="48.78544198349118" lon="9.935842975974083">
<ele>485.4</ele>
<time>2023-05-16T08:28:54Z</time>
</trkpt>
<trkpt lat="48.78547995351255" lon="9.9359249509871">
<ele>485</ele>
<time>2023-05-16T08:28:55Z</time>
</trkpt>
<trkpt lat="48.785516917705536" lon="9.936002986505628">
<ele>484.6</ele>
<time>2023-05-16T08:28:56Z</time>
</trkpt>
<trkpt lat="48.785554971545935" lon="9.93607297539711">
<ele>484.20000000000005</ele>
<time>2023-05-16T08:28:57Z</time>
</trkpt>
<trkpt lat="48.78559495322406" lon="9.936142964288592">
<ele>483.79999999999995</ele>
<time>2023-05-16T08:28:58Z</time>
</trkpt>
<trkpt lat="48.78563795238733" lon="9.936217982321978">
<ele>483.20000000000005</ele>
<time>2023-05-16T08:28:59Z</time>
</trkpt>
<trkpt lat="48.78568195737898" lon="9.936292916536331">
<ele>482.79999999999995</ele>
<time>2023-05-16T08:29:00Z</time>
</trkpt>
<trkpt lat="48.78572294488549" lon="9.93637296371162">
<ele>482.20000000000005</ele>
<time>2023-05-16T08:29:01Z</time>
</trkpt>
<trkpt lat="48.78575999289751" lon="9.936454938724637">
<ele>481.79999999999995</ele>
<time>2023-05-16T08:29:02Z</time>
</trkpt>
<trkpt lat="48.785794945433736" lon="9.936539931222796">
<ele>481.4</ele>
<time>2023-05-16T08:29:03Z</time>
</trkpt>
<trkpt lat="48.785837944597006" lon="9.936627941206098">
<ele>480.79999999999995</ele>
<time>2023-05-16T08:29:04Z</time>
</trkpt>
<trkpt lat="48.78588798455894" lon="9.93671796284616">
<ele>480.20000000000005</ele>
<time>2023-05-16T08:29:05Z</time>
</trkpt>
<trkpt lat="48.78593198955059" lon="9.936807984486222">
<ele>479.6</ele>
<time>2023-05-16T08:29:06Z</time>
</trkpt>
<trkpt lat="48.78596995957196" lon="9.936897922307253">
<ele>478.79999999999995</ele>
<time>2023-05-16T08:29:07Z</time>
</trkpt>
<trkpt lat="48.78601195290685" lon="9.936986938118935">
<ele>478.20000000000005</ele>
<time>2023-05-16T08:29:08Z</time>
</trkpt>
<trkpt lat="48.786051934584975" lon="9.937074948102236">
<ele>477.6</ele>
<time>2023-05-16T08:29:09Z</time>
</trkpt>
<trkpt lat="48.786094933748245" lon="9.937159940600395">
<ele>477</ele>
<time>2023-05-16T08:29:10Z</time>
</trkpt>
<trkpt lat="48.78614698536694" lon="9.937239987775683">
<ele>476.20000000000005</ele>
<time>2023-05-16T08:29:11Z</time>
</trkpt>
<trkpt lat="48.78620699979365" lon="9.937307965010405">
<ele>475.79999999999995</ele>
<time>2023-05-16T08:29:12Z</time>
</trkpt>
<trkpt lat="48.78627497702837" lon="9.937366973608732">
<ele>475.20000000000005</ele>
<time>2023-05-16T08:29:13Z</time>
</trkpt>
<trkpt lat="48.78633993677795" lon="9.937409972772002">
<ele>474.6</ele>
<time>2023-05-16T08:29:14Z</time>
</trkpt>
<trkpt lat="48.7864079978317" lon="9.93742698803544">
<ele>474.20000000000005</ele>
<time>2023-05-16T08:29:15Z</time>
</trkpt>
<trkpt lat="48.786477986723185" lon="9.937421958893538">
<ele>473.6</ele>
<time>2023-05-16T08:29:16Z</time>
</trkpt>
<trkpt lat="48.786544958129525" lon="9.937409972772002">
<ele>473</ele>
<time>2023-05-16T08:29:17Z</time>
</trkpt>
<trkpt lat="48.78661997616291" lon="9.937384994700551">
<ele>472.6</ele>
<time>2023-05-16T08:29:18Z</time>
</trkpt>
<trkpt lat="48.786691976711154" lon="9.937359932810068">
<ele>472</ele>
<time>2023-05-16T08:29:19Z</time>
</trkpt>
<trkpt lat="48.78676791675389" lon="9.937341995537281">
<ele>471.4</ele>
<time>2023-05-16T08:29:20Z</time>
</trkpt>
<trkpt lat="48.786827931180596" lon="9.937321962788701">
<ele>470.79999999999995</ele>
<time>2023-05-16T08:29:21Z</time>
</trkpt>
<trkpt lat="48.78689297474921" lon="9.93729799054563">
<ele>470.20000000000005</ele>
<time>2023-05-16T08:29:22Z</time>
</trkpt>
<trkpt lat="48.78696698695421" lon="9.937267983332276">
<ele>469.6</ele>
<time>2023-05-16T08:29:23Z</time>
</trkpt>
<trkpt lat="48.78704695031047" lon="9.93721199221909">
<ele>469</ele>
<time>2023-05-16T08:29:24Z</time>
</trkpt>
<trkpt lat="48.78711995668709" lon="9.937137980014086">
<ele>468.4</ele>
<time>2023-05-16T08:29:25Z</time>
</trkpt>
<trkpt lat="48.787189945578575" lon="9.93703999556601">
<ele>467.79999999999995</ele>
<time>2023-05-16T08:29:26Z</time>
</trkpt>
<trkpt lat="48.787251971662045" lon="9.936947962269187">
<ele>467</ele>
<time>2023-05-16T08:29:27Z</time>
</trkpt>
<trkpt lat="48.78730997443199" lon="9.936854923143983">
<ele>466.4</ele>
<time>2023-05-16T08:29:28Z</time>
</trkpt>
<trkpt lat="48.78735791891813" lon="9.936756938695908">
<ele>465.79999999999995</ele>
<time>2023-05-16T08:29:29Z</time>
</trkpt>
<trkpt lat="48.78741198219359" lon="9.936657948419452">
<ele>465</ele>
<time>2023-05-16T08:29:30Z</time>
</trkpt>
<trkpt lat="48.78746193833649" lon="9.936566920951009">
<ele>464.4</ele>
<time>2023-05-16T08:29:31Z</time>
</trkpt>
<trkpt lat="48.787502925843" lon="9.93648293428123">
<ele>464</ele>
<time>2023-05-16T08:29:32Z</time>
</trkpt>
<trkpt lat="48.78754198551178" lon="9.936387967318296">
<ele>463.4</ele>
<time>2023-05-16T08:29:33Z</time>
</trkpt>
<trkpt lat="48.78758196718991" lon="9.936297945678234">
<ele>462.79999999999995</ele>
<time>2023-05-16T08:29:34Z</time>
</trkpt>
<trkpt lat="48.787619937211275" lon="9.936217982321978">
<ele>462.20000000000005</ele>
<time>2023-05-16T08:29:35Z</time>
</trkpt>
<trkpt lat="48.78765698522329" lon="9.93613994680345">
<ele>461.79999999999995</ele>
<time>2023-05-16T08:29:36Z</time>
</trkpt>
<trkpt lat="48.78769193775952" lon="9.936061995103955">
<ele>461.4</ele>
<time>2023-05-16T08:29:37Z</time>
</trkpt>
<trkpt lat="48.787727979943156" lon="9.935984965413809">
<ele>460.79999999999995</ele>
<time>2023-05-16T08:29:38Z</time>
</trkpt>
<trkpt lat="48.787766955792904" lon="9.935912964865565">
<ele>460.4</ele>
<time>2023-05-16T08:29:39Z</time>
</trkpt>
<trkpt lat="48.78780199214816" lon="9.935831995680928">
<ele>460</ele>
<time>2023-05-16T08:29:40Z</time>
</trkpt>
<trkpt lat="48.787836944684386" lon="9.93575295433402">
<ele>459.6</ele>
<time>2023-05-16T08:29:41Z</time>
</trkpt>
<trkpt lat="48.78786996938288" lon="9.935677936300635">
<ele>459.20000000000005</ele>
<time>2023-05-16T08:29:42Z</time>
</trkpt>
<trkpt lat="48.78790492191911" lon="9.935601996257901">
<ele>459</ele>
<time>2023-05-16T08:29:43Z</time>
</trkpt>
<trkpt lat="48.787941969931126" lon="9.935521949082613">
<ele>458.6</ele>
<time>2023-05-16T08:29:44Z</time>
</trkpt>
<trkpt lat="48.787981951609254" lon="9.935442991554737">
<ele>458.20000000000005</ele>
<time>2023-05-16T08:29:45Z</time>
</trkpt>
<trkpt lat="48.788024950772524" lon="9.935374930500984">
<ele>458</ele>
<time>2023-05-16T08:29:46Z</time>
</trkpt>
<trkpt lat="48.788071973249316" lon="9.935316927731037">
<ele>457.6</ele>
<time>2023-05-16T08:29:47Z</time>
</trkpt>
<trkpt lat="48.7881229352206" lon="9.93525699712336">
<ele>457.4</ele>
<time>2023-05-16T08:29:48Z</time>
</trkpt>
<trkpt lat="48.788174986839294" lon="9.935194971039891">
<ele>457.20000000000005</ele>
<time>2023-05-16T08:29:49Z</time>
</trkpt>
<trkpt lat="48.788222931325436" lon="9.935134956613183">
<ele>457</ele>
<time>2023-05-16T08:29:50Z</time>
</trkpt>
<trkpt lat="48.78827196545899" lon="9.935081982985139">
<ele>456.79999999999995</ele>
<time>2023-05-16T08:29:51Z</time>
</trkpt>
<trkpt lat="48.7883179821074" lon="9.935026997700334">
<ele>456.6</ele>
<time>2023-05-16T08:29:52Z</time>
</trkpt>
<trkpt lat="48.78836693242192" lon="9.934971928596497">
<ele>456.4</ele>
<time>2023-05-16T08:29:53Z</time>
</trkpt>
<trkpt lat="48.788412949070334" lon="9.934921972453594">
<ele>456.20000000000005</ele>
<time>2023-05-16T08:29:54Z</time>
</trkpt>
<trkpt lat="48.788457959890366" lon="9.934877967461944">
<ele>456</ele>
<time>2023-05-16T08:29:55Z</time>
</trkpt>
<trkpt lat="48.7885029707104" lon="9.93482792750001">
<ele>455.79999999999995</ele>
<time>2023-05-16T08:29:56Z</time>
</trkpt>
<trkpt lat="48.788542952388525" lon="9.93478492833674">
<ele>455.6</ele>
<time>2023-05-16T08:29:57Z</time>
</trkpt>
<trkpt lat="48.788587963208556" lon="9.934739917516708">
<ele>455.4</ele>
<time>2023-05-16T08:29:58Z</time>
</trkpt>
<trkpt lat="48.78863699734211" lon="9.934702953323722">
<ele>455.4</ele>
<time>2023-05-16T08:29:59Z</time>
</trkpt>
<trkpt lat="48.788689970970154" lon="9.934681998565793">
<ele>455.20000000000005</ele>
<time>2023-05-16T08:30:00Z</time>
</trkpt>
<trkpt lat="48.78874495625496" lon="9.934674957767129">
<ele>455</ele>
<time>2023-05-16T08:30:01Z</time>
</trkpt>
<trkpt lat="48.78879499621689" lon="9.934686943888664">
<ele>454.79999999999995</ele>
<time>2023-05-16T08:30:02Z</time>
</trkpt>
<trkpt lat="48.788844952359796" lon="9.934717956930399">
<ele>454.79999999999995</ele>
<time>2023-05-16T08:30:03Z</time>
</trkpt>
<trkpt lat="48.78889499232173" lon="9.934754921123385">
<ele>454.6</ele>
<time>2023-05-16T08:30:04Z</time>
</trkpt>
<trkpt lat="48.78895794041455" lon="9.9347869399935">
<ele>454.6</ele>
<time>2023-05-16T08:30:05Z</time>
</trkpt>
<trkpt lat="48.789036981761456" lon="9.934816947206855">
<ele>454.4</ele>
<time>2023-05-16T08:30:06Z</time>
</trkpt>
<trkpt lat="48.78909297287464" lon="9.93484997190535">
<ele>454.20000000000005</ele>
<time>2023-05-16T08:30:07Z</time>
</trkpt>
<trkpt lat="48.78915499895811" lon="9.934882996603847">
<ele>454.20000000000005</ele>
<time>2023-05-16T08:30:08Z</time>
</trkpt>
<trkpt lat="48.78921694122255" lon="9.934896994382143">
<ele>454</ele>
<time>2023-05-16T08:30:09Z</time>
</trkpt>
<trkpt lat="48.78928299061954" lon="9.934916943311691">
<ele>453.79999999999995</ele>
<time>2023-05-16T08:30:10Z</time>
</trkpt>
<trkpt lat="48.78934199921787" lon="9.934939993545413">
<ele>453.79999999999995</ele>
<time>2023-05-16T08:30:11Z</time>
</trkpt>
<trkpt lat="48.789397990331054" lon="9.934959942474961">
<ele>453.6</ele>
<time>2023-05-16T08:30:12Z</time>
</trkpt>
<trkpt lat="48.78945699892938" lon="9.934971928596497">
<ele>453.4</ele>
<time>2023-05-16T08:30:13Z</time>
</trkpt>
<trkpt lat="48.7895149178803" lon="9.934979975223541">
<ele>453.20000000000005</ele>
<time>2023-05-16T08:30:14Z</time>
</trkpt>
<trkpt lat="48.789572920650244" lon="9.934986932203174">
<ele>453.20000000000005</ele>
<time>2023-05-16T08:30:15Z</time>
</trkpt>
<trkpt lat="48.78963293507695" lon="9.934987938031554">
<ele>453</ele>
<time>2023-05-16T08:30:16Z</time>
</trkpt>
<trkpt lat="48.78968792036176" lon="9.934992967173457">
<ele>452.79999999999995</ele>
<time>2023-05-16T08:30:17Z</time>
</trkpt>
<trkpt lat="48.78975799307227" lon="9.93499699048698">
<ele>452.6</ele>
<time>2023-05-16T08:30:18Z</time>
</trkpt>
<trkpt lat="48.78982496447861" lon="9.935002941638231">
<ele>452.4</ele>
<time>2023-05-16T08:30:19Z</time>
</trkpt>
<trkpt lat="48.789897970855236" lon="9.935011994093657">
<ele>452.20000000000005</ele>
<time>2023-05-16T08:30:20Z</time>
</trkpt>
<trkpt lat="48.789979945868254" lon="9.93499992415309">
<ele>451.79999999999995</ele>
<time>2023-05-16T08:30:21Z</time>
</trkpt>
<trkpt lat="48.7900569755584" lon="9.934989949688315">
<ele>451.6</ele>
<time>2023-05-16T08:30:22Z</time>
</trkpt>
<trkpt lat="48.79012495279312" lon="9.9349769577384">
<ele>451.4</ele>
<time>2023-05-16T08:30:23Z</time>
</trkpt>
<trkpt lat="48.790197959169745" lon="9.934959942474961">
<ele>451</ele>
<time>2023-05-16T08:30:24Z</time>
</trkpt>
<trkpt lat="48.79026694223285" lon="9.934937981888652">
<ele>450.6</ele>
<time>2023-05-16T08:30:25Z</time>
</trkpt>
<trkpt lat="48.79033299162984" lon="9.934907974675298">
<ele>450.4</ele>
<time>2023-05-16T08:30:26Z</time>
</trkpt>
<trkpt lat="48.79039694555104" lon="9.934879979118705">
<ele>450</ele>
<time>2023-05-16T08:30:27Z</time>
</trkpt>
<trkpt lat="48.79044991917908" lon="9.934857934713364">
<ele>449.6</ele>
<time>2023-05-16T08:30:28Z</time>
</trkpt>
<trkpt lat="48.790497947484255" lon="9.934839997440577">
<ele>449.20000000000005</ele>
<time>2023-05-16T08:30:29Z</time>
</trkpt>
<trkpt lat="48.790541952475905" lon="9.934826921671629">
<ele>449</ele>
<time>2023-05-16T08:30:30Z</time>
</trkpt>
<trkpt lat="48.79058796912432" lon="9.934811918064952">
<ele>448.6</ele>
<time>2023-05-16T08:30:31Z</time>
</trkpt>
<trkpt lat="48.79063197411597" lon="9.934794986620545">
<ele>448.4</ele>
<time>2023-05-16T08:30:32Z</time>
</trkpt>
<trkpt lat="48.79067296162248" lon="9.934787945821881">
<ele>448.20000000000005</ele>
<time>2023-05-16T08:30:33Z</time>
</trkpt>
<trkpt lat="48.790711937472224" lon="9.934776965528727">
<ele>447.79999999999995</ele>
<time>2023-05-16T08:30:34Z</time>
</trkpt>
<trkpt lat="48.79074797965586" lon="9.93476196192205">
<ele>447.6</ele>
<time>2023-05-16T08:30:35Z</time>
</trkpt>
<trkpt lat="48.79078293219209" lon="9.93474293500185">
<ele>447.4</ele>
<time>2023-05-16T08:30:36Z</time>
</trkpt>
<trkpt lat="48.790817968547344" lon="9.934726925566792">
<ele>447.20000000000005</ele>
<time>2023-05-16T08:30:37Z</time>
</trkpt>
<trkpt lat="48.79085493274033" lon="9.934711921960115">
<ele>447</ele>
<time>2023-05-16T08:30:38Z</time>
</trkpt>
<trkpt lat="48.79089298658073" lon="9.934694990515709">
<ele>446.79999999999995</ele>
<time>2023-05-16T08:30:39Z</time>
</trkpt>
<trkpt lat="48.790929950773716" lon="9.934681998565793">
<ele>446.6</ele>
<time>2023-05-16T08:30:40Z</time>
</trkpt>
<trkpt lat="48.79096498712897" lon="9.934667916968465">
<ele>446.4</ele>
<time>2023-05-16T08:30:41Z</time>
</trkpt>
<trkpt lat="48.79100195132196" lon="9.93465299718082">
<ele>446.20000000000005</ele>
<time>2023-05-16T08:30:42Z</time>
</trkpt>
<trkpt lat="48.79103992134333" lon="9.934644950553775">
<ele>446</ele>
<time>2023-05-16T08:30:43Z</time>
</trkpt>
<trkpt lat="48.791077975183725" lon="9.934631958603859">
<ele>445.79999999999995</ele>
<time>2023-05-16T08:30:44Z</time>
</trkpt>
<trkpt lat="48.791119968518615" lon="9.934616954997182">
<ele>445.6</ele>
<time>2023-05-16T08:30:45Z</time>
</trkpt>
<trkpt lat="48.791162967681885" lon="9.934601951390505">
<ele>445.4</ele>
<time>2023-05-16T08:30:46Z</time>
</trkpt>
<trkpt lat="48.791206972673535" lon="9.934586947783828">
<ele>445.20000000000005</ele>
<time>2023-05-16T08:30:47Z</time>
</trkpt>
<trkpt lat="48.79125298932195" lon="9.934572950005531">
<ele>445</ele>
<time>2023-05-16T08:30:48Z</time>
</trkpt>
<trkpt lat="48.79129992797971" lon="9.934557946398854">
<ele>444.79999999999995</ele>
<time>2023-05-16T08:30:49Z</time>
</trkpt>
<trkpt lat="48.7913519795984" lon="9.934536991640925">
<ele>444.6</ele>
<time>2023-05-16T08:30:50Z</time>
</trkpt>
<trkpt lat="48.791402941569686" lon="9.934516958892345">
<ele>444.6</ele>
<time>2023-05-16T08:30:51Z</time>
</trkpt>
<trkpt lat="48.79145499318838" lon="9.934501955285668">
<ele>444.4</ele>
<time>2023-05-16T08:30:52Z</time>
</trkpt>
<trkpt lat="48.79151199012995" lon="9.934489969164133">
<ele>444.20000000000005</ele>
<time>2023-05-16T08:30:53Z</time>
</trkpt>
<trkpt lat="48.79156496375799" lon="9.934479994699359">
<ele>444</ele>
<time>2023-05-16T08:30:54Z</time>
</trkpt>
<trkpt lat="48.7916199490428" lon="9.93446197360754">
<ele>443.79999999999995</ele>
<time>2023-05-16T08:30:55Z</time>
</trkpt>
<trkpt lat="48.79167292267084" lon="9.934444958344102">
<ele>443.6</ele>
<time>2023-05-16T08:30:56Z</time>
</trkpt>
<trkpt lat="48.79172497428954" lon="9.934432972222567">
<ele>443.6</ele>
<time>2023-05-16T08:30:57Z</time>
</trkpt>
<trkpt lat="48.7917769420892" lon="9.93441998027265">
<ele>443.4</ele>
<time>2023-05-16T08:30:58Z</time>
</trkpt>
<trkpt lat="48.791826982051134" lon="9.934411933645606">
<ele>443.20000000000005</ele>
<time>2023-05-16T08:30:59Z</time>
</trkpt>
<trkpt lat="48.791874926537275" lon="9.93439994752407">
<ele>443</ele>
<time>2023-05-16T08:31:00Z</time>
</trkpt>
<trkpt lat="48.79192194901407" lon="9.934384943917394">
<ele>442.79999999999995</ele>
<time>2023-05-16T08:31:01Z</time>
</trkpt>
<trkpt lat="48.7919669598341" lon="9.934372957795858">
<ele>442.6</ele>
<time>2023-05-16T08:31:02Z</time>
</trkpt>
<trkpt lat="48.79200694151223" lon="9.934361977502704">
<ele>442.4</ele>
<time>2023-05-16T08:31:03Z</time>
</trkpt>
<trkpt lat="48.792042983695865" lon="9.934351919218898">
<ele>442.20000000000005</ele>
<time>2023-05-16T08:31:04Z</time>
</trkpt>
<trkpt lat="48.79207793623209" lon="9.934334987774491">
<ele>442</ele>
<time>2023-05-16T08:31:05Z</time>
</trkpt>
<trkpt lat="48.792107943445444" lon="9.934321995824575">
<ele>442</ele>
<time>2023-05-16T08:31:06Z</time>
</trkpt>
<trkpt lat="48.7921429798007" lon="9.934301963075995">
<ele>441.79999999999995</ele>
<time>2023-05-16T08:31:07Z</time>
</trkpt>
<trkpt lat="48.79216996952891" lon="9.934306992217898">
<ele>441.79999999999995</ele>
<time>2023-05-16T08:31:08Z</time>
</trkpt>
<trkpt lat="48.792194947600365" lon="9.934316966682673">
<ele>441.6</ele>
<time>2023-05-16T08:31:09Z</time>
</trkpt>
<trkpt lat="48.79222495481372" lon="9.934321995824575">
<ele>441.6</ele>
<time>2023-05-16T08:31:10Z</time>
</trkpt>
<trkpt lat="48.7922449875623" lon="9.934324929490685">
<ele>441.4</ele>
<time>2023-05-16T08:31:11Z</time>
</trkpt>
<trkpt lat="48.792257979512215" lon="9.934324929490685">
<ele>441.4</ele>
<time>2023-05-16T08:31:12Z</time>
</trkpt>
<trkpt lat="48.792262924835086" lon="9.934324929490685">
<ele>441.20000000000005</ele>
<time>2023-05-16T08:31:13Z</time>
</trkpt>
<trkpt lat="48.792262924835086" lon="9.934326941147447">
<ele>441.20000000000005</ele>
<time>2023-05-16T08:31:14Z</time>
</trkpt>
<trkpt lat="48.792279940098524" lon="9.934272961691022">
<ele>440.79999999999995</ele>
<time>2023-05-16T08:31:14Z</time>
</trkpt>
<trkpt lat="48.792301984503865" lon="9.934267932549119">
<ele>440.79999999999995</ele>
<time>2023-05-16T08:31:15Z</time>
</trkpt>
<trkpt lat="48.79232193343341" lon="9.934261981397867">
<ele>440.79999999999995</ele>
<time>2023-05-16T08:31:16Z</time>
</trkpt>
<trkpt lat="48.792344983667135" lon="9.934249995276332">
<ele>440.79999999999995</ele>
<time>2023-05-16T08:31:17Z</time>
</trkpt>
<trkpt lat="48.792369961738586" lon="9.934234991669655">
<ele>440.79999999999995</ele>
<time>2023-05-16T08:31:18Z</time>
</trkpt>
<trkpt lat="48.79240298643708" lon="9.934229962527752">
<ele>440.79999999999995</ele>
<time>2023-05-16T08:31:19Z</time>
</trkpt>
<trkpt lat="48.79244992509484" lon="9.934231974184513">
<ele>440.79999999999995</ele>
<time>2023-05-16T08:31:20Z</time>
</trkpt>
<trkpt lat="48.792497953400016" lon="9.934224933385849">
<ele>440.6</ele>
<time>2023-05-16T08:31:21Z</time>
</trkpt>
<trkpt lat="48.79254698753357" lon="9.934219988062978">
<ele>440.6</ele>
<time>2023-05-16T08:31:22Z</time>
</trkpt>
<trkpt lat="48.79259694367647" lon="9.93420297279954">
<ele>440.6</ele>
<time>2023-05-16T08:31:23Z</time>
</trkpt>
<trkpt lat="48.792649917304516" lon="9.934197943657637">
<ele>440.4</ele>
<time>2023-05-16T08:31:24Z</time>
</trkpt>
<trkpt lat="48.79270196892321" lon="9.93418495170772">
<ele>440.4</ele>
<time>2023-05-16T08:31:25Z</time>
</trkpt>
<trkpt lat="48.792752930894494" lon="9.934191992506385">
<ele>440.20000000000005</ele>
<time>2023-05-16T08:31:26Z</time>
</trkpt>
<trkpt lat="48.79280699416995" lon="9.934219988062978">
<ele>440</ele>
<time>2023-05-16T08:31:27Z</time>
</trkpt>
<trkpt lat="48.79285292699933" lon="9.934232980012894">
<ele>440</ele>
<time>2023-05-16T08:31:28Z</time>
</trkpt>
<trkpt lat="48.79289198666811" lon="9.93422795087099">
<ele>439.79999999999995</ele>
<time>2023-05-16T08:31:29Z</time>
</trkpt>
<trkpt lat="48.792926939204335" lon="9.934199955314398">
<ele>439.6</ele>
<time>2023-05-16T08:31:30Z</time>
</trkpt>
<trkpt lat="48.79295292310417" lon="9.934156956151128">
<ele>439.6</ele>
<time>2023-05-16T08:31:31Z</time>
</trkpt>
<trkpt lat="48.79297798499465" lon="9.934106916189194">
<ele>439.4</ele>
<time>2023-05-16T08:31:32Z</time>
</trkpt>
<trkpt lat="48.79300992004573" lon="9.934052936732769">
<ele>439.4</ele>
<time>2023-05-16T08:31:33Z</time>
</trkpt>
<trkpt lat="48.79304797388613" lon="9.934007925912738">
<ele>439.20000000000005</ele>
<time>2023-05-16T08:31:34Z</time>
</trkpt>
<trkpt lat="48.79308795556426" lon="9.933974985033274">
<ele>439</ele>
<time>2023-05-16T08:31:35Z</time>
</trkpt>
<trkpt lat="48.79313296638429" lon="9.933954952284694">
<ele>439</ele>
<time>2023-05-16T08:31:36Z</time>
</trkpt>
<trkpt lat="48.79318191669881" lon="9.933936931192875">
<ele>439</ele>
<time>2023-05-16T08:31:37Z</time>
</trkpt>
<trkpt lat="48.793227933347225" lon="9.933914970606565">
<ele>438.79999999999995</ele>
<time>2023-05-16T08:31:38Z</time>
</trkpt>
<trkpt lat="48.79327495582402" lon="9.933892926201224">
<ele>438.79999999999995</ele>
<time>2023-05-16T08:31:39Z</time>
</trkpt>
<trkpt lat="48.79332197830081" lon="9.933869959786534">
<ele>438.79999999999995</ele>
<time>2023-05-16T08:31:40Z</time>
</trkpt>
<trkpt lat="48.79336992278695" lon="9.933844981715083">
<ele>438.6</ele>
<time>2023-05-16T08:31:41Z</time>
</trkpt>
<trkpt lat="48.793419962748885" lon="9.933824948966503">
<ele>438.6</ele>
<time>2023-05-16T08:31:42Z</time>
</trkpt>
<trkpt lat="48.79346991889179" lon="9.933802988380194">
<ele>438.4</ele>
<time>2023-05-16T08:31:43Z</time>
</trkpt>
<trkpt lat="48.79352197051048" lon="9.9337749928236">
<ele>438.4</ele>
<time>2023-05-16T08:31:44Z</time>
</trkpt>
<trkpt lat="48.793569998815656" lon="9.933746997267008">
<ele>438.20000000000005</ele>
<time>2023-05-16T08:31:45Z</time>
</trkpt>
<trkpt lat="48.79362196661532" lon="9.933719923719764">
<ele>438.20000000000005</ele>
<time>2023-05-16T08:31:46Z</time>
</trkpt>
<trkpt lat="48.79367494024336" lon="9.933696957305074">
<ele>438</ele>
<time>2023-05-16T08:31:47Z</time>
</trkpt>
<trkpt lat="48.79372992552817" lon="9.933674996718764">
<ele>437.79999999999995</ele>
<time>2023-05-16T08:31:48Z</time>
</trkpt>
<trkpt lat="48.793786922469735" lon="9.933657981455326">
<ele>437.6</ele>
<time>2023-05-16T08:31:49Z</time>
</trkpt>
<trkpt lat="48.79384299740195" lon="9.93364498950541">
<ele>437.4</ele>
<time>2023-05-16T08:31:50Z</time>
</trkpt>
<trkpt lat="48.79390493966639" lon="9.933632919564843">
<ele>437.20000000000005</ele>
<time>2023-05-16T08:31:51Z</time>
</trkpt>
<trkpt lat="48.79396696574986" lon="9.933629985898733">
<ele>437</ele>
<time>2023-05-16T08:31:52Z</time>
</trkpt>
<trkpt lat="48.79402999766171" lon="9.933631997555494">
<ele>436.79999999999995</ele>
<time>2023-05-16T08:31:53Z</time>
</trkpt>
<trkpt lat="48.79409696906805" lon="9.933632919564843">
<ele>436.6</ele>
<time>2023-05-16T08:31:54Z</time>
</trkpt>
<trkpt lat="48.79416293464601" lon="9.933639960363507">
<ele>436.20000000000005</ele>
<time>2023-05-16T08:31:55Z</time>
</trkpt>
<trkpt lat="48.79422998987138" lon="9.93364792317152">
<ele>436</ele>
<time>2023-05-16T08:31:56Z</time>
</trkpt>
<trkpt lat="48.794299978762865" lon="9.933657981455326">
<ele>435.6</ele>
<time>2023-05-16T08:31:57Z</time>
</trkpt>
<trkpt lat="48.79436996765435" lon="9.9336679559201">
<ele>435.4</ele>
<time>2023-05-16T08:31:58Z</time>
</trkpt>
<trkpt lat="48.79444297403097" lon="9.933677930384874">
<ele>435</ele>
<time>2023-05-16T08:31:59Z</time>
</trkpt>
<trkpt lat="48.794519919902086" lon="9.933684971183538">
<ele>434.79999999999995</ele>
<time>2023-05-16T08:32:00Z</time>
</trkpt>
<trkpt lat="48.79459694959223" lon="9.933704920113087">
<ele>434.4</ele>
<time>2023-05-16T08:32:01Z</time>
</trkpt>
<trkpt lat="48.79467699676752" lon="9.933726964518428">
<ele>434</ele>
<time>2023-05-16T08:32:02Z</time>
</trkpt>
<trkpt lat="48.79475796595216" lon="9.933742973953485">
<ele>433.6</ele>
<time>2023-05-16T08:32:03Z</time>
</trkpt>
<trkpt lat="48.794839940965176" lon="9.933751942589879">
<ele>433.20000000000005</ele>
<time>2023-05-16T08:32:04Z</time>
</trkpt>
<trkpt lat="48.794919988140464" lon="9.933759989216924">
<ele>432.79999999999995</ele>
<time>2023-05-16T08:32:05Z</time>
</trkpt>
<trkpt lat="48.79499995149672" lon="9.93377298116684">
<ele>432.4</ele>
<time>2023-05-16T08:32:06Z</time>
</trkpt>
<trkpt lat="48.795074969530106" lon="9.933782955631614">
<ele>432.20000000000005</ele>
<time>2023-05-16T08:32:07Z</time>
</trkpt>
<trkpt lat="48.79514495842159" lon="9.93379795923829">
<ele>431.79999999999995</ele>
<time>2023-05-16T08:32:08Z</time>
</trkpt>
<trkpt lat="48.79521293565631" lon="9.933812962844968">
<ele>431.6</ele>
<time>2023-05-16T08:32:09Z</time>
</trkpt>
<trkpt lat="48.79528191871941" lon="9.933831989765167">
<ele>431.20000000000005</ele>
<time>2023-05-16T08:32:10Z</time>
</trkpt>
<trkpt lat="48.7953479681164" lon="9.933857973664999">
<ele>431</ele>
<time>2023-05-16T08:32:11Z</time>
</trkpt>
<trkpt lat="48.79541292786598" lon="9.93388194590807">
<ele>430.79999999999995</ele>
<time>2023-05-16T08:32:12Z</time>
</trkpt>
<trkpt lat="48.79547696560621" lon="9.933904996141791">
<ele>430.79999999999995</ele>
<time>2023-05-16T08:32:13Z</time>
</trkpt>
<trkpt lat="48.79553698003292" lon="9.933929974213243">
<ele>430.6</ele>
<time>2023-05-16T08:32:14Z</time>
</trkpt>
<trkpt lat="48.79559297114611" lon="9.933952940627933">
<ele>430.4</ele>
<time>2023-05-16T08:32:15Z</time>
</trkpt>
<trkpt lat="48.795652985572815" lon="9.933974985033274">
<ele>430.4</ele>
<time>2023-05-16T08:32:16Z</time>
</trkpt>
<trkpt lat="48.79570998251438" lon="9.93398797698319">
<ele>430.4</ele>
<time>2023-05-16T08:32:17Z</time>
</trkpt>
<trkpt lat="48.79576496779919" lon="9.933974985033274">
<ele>430.20000000000005</ele>
<time>2023-05-16T08:32:18Z</time>
</trkpt>
<trkpt lat="48.795806961134076" lon="9.93394497781992">
<ele>430.20000000000005</ele>
<time>2023-05-16T08:32:19Z</time>
</trkpt>
<trkpt lat="48.79583696834743" lon="9.933897955343127">
<ele>430.20000000000005</ele>
<time>2023-05-16T08:32:20Z</time>
</trkpt>
<trkpt lat="48.795867981389165" lon="9.933842970058322">
<ele>430.20000000000005</ele>
<time>2023-05-16T08:32:21Z</time>
</trkpt>
<trkpt lat="48.79589798860252" lon="9.933787984773517">
<ele>430.20000000000005</ele>
<time>2023-05-16T08:32:22Z</time>
</trkpt>
<trkpt lat="48.79592799581587" lon="9.93372998200357">
<ele>430.20000000000005</ele>
<time>2023-05-16T08:32:23Z</time>
</trkpt>
<trkpt lat="48.795957919210196" lon="9.933674996718764">
<ele>430.4</ele>
<time>2023-05-16T08:32:24Z</time>
</trkpt>
<trkpt lat="48.7959819752723" lon="9.933617999777198">
<ele>430.4</ele>
<time>2023-05-16T08:32:25Z</time>
</trkpt>
<trkpt lat="48.79600293003023" lon="9.933554967865348">
<ele>430.6</ele>
<time>2023-05-16T08:32:26Z</time>
</trkpt>
<trkpt lat="48.79602799192071" lon="9.93349495343864">
<ele>430.79999999999995</ele>
<time>2023-05-16T08:32:27Z</time>
</trkpt>
<trkpt lat="48.79605498164892" lon="9.933436950668693">
<ele>430.79999999999995</ele>
<time>2023-05-16T08:32:28Z</time>
</trkpt>
<trkpt lat="48.79607995972037" lon="9.933374924585223">
<ele>431</ele>
<time>2023-05-16T08:32:29Z</time>
</trkpt>
<trkpt lat="48.79610292613506" lon="9.933312982320786">
<ele>431.20000000000005</ele>
<time>2023-05-16T08:32:30Z</time>
</trkpt>
<trkpt lat="48.796126982197165" lon="9.933249950408936">
<ele>431.20000000000005</ele>
<time>2023-05-16T08:32:31Z</time>
</trkpt>
<trkpt lat="48.79615196026862" lon="9.933186918497086">
<ele>431.4</ele>
<time>2023-05-16T08:32:32Z</time>
</trkpt>
<trkpt lat="48.79617794416845" lon="9.933122964575887">
<ele>431.6</ele>
<time>2023-05-16T08:32:33Z</time>
</trkpt>
<trkpt lat="48.79620191641152" lon="9.933056998997927">
<ele>431.79999999999995</ele>
<time>2023-05-16T08:32:34Z</time>
</trkpt>
<trkpt lat="48.79622798413038" lon="9.932989943772554">
<ele>431.79999999999995</ele>
<time>2023-05-16T08:32:35Z</time>
</trkpt>
<trkpt lat="48.796254973858595" lon="9.932926995679736">
<ele>432</ele>
<time>2023-05-16T08:32:36Z</time>
</trkpt>
<trkpt lat="48.796279951930046" lon="9.932861952111125">
<ele>432.20000000000005</ele>
<time>2023-05-16T08:32:37Z</time>
</trkpt>
<trkpt lat="48.7963049300015" lon="9.932799926027656">
<ele>432.20000000000005</ele>
<time>2023-05-16T08:32:38Z</time>
</trkpt>
<trkpt lat="48.79632999189198" lon="9.93274494074285">
<ele>432.4</ele>
<time>2023-05-16T08:32:39Z</time>
</trkpt>
<trkpt lat="48.79635295830667" lon="9.932689955458045">
<ele>432.6</ele>
<time>2023-05-16T08:32:40Z</time>
</trkpt>
<trkpt lat="48.79637491889298" lon="9.932637987658381">
<ele>432.6</ele>
<time>2023-05-16T08:32:41Z</time>
</trkpt>
<trkpt lat="48.79639495164156" lon="9.932586941868067">
<ele>432.79999999999995</ele>
<time>2023-05-16T08:32:42Z</time>
</trkpt>
<trkpt lat="48.79641297273338" lon="9.932536985725164">
<ele>432.79999999999995</ele>
<time>2023-05-16T08:32:43Z</time>
</trkpt>
<trkpt lat="48.79643199965358" lon="9.93248493410647">
<ele>433</ele>
<time>2023-05-16T08:32:44Z</time>
</trkpt>
<trkpt lat="48.796451948583126" lon="9.932427937164903">
<ele>433.20000000000005</ele>
<time>2023-05-16T08:32:45Z</time>
</trkpt>
<trkpt lat="48.796469969674945" lon="9.932371946051717">
<ele>433.20000000000005</ele>
<time>2023-05-16T08:32:46Z</time>
</trkpt>
<trkpt lat="48.796491930261254" lon="9.932319978252053">
<ele>433.4</ele>
<time>2023-05-16T08:32:47Z</time>
</trkpt>
<trkpt lat="48.796514980494976" lon="9.932266920804977">
<ele>433.6</ele>
<time>2023-05-16T08:32:48Z</time>
</trkpt>
<trkpt lat="48.79654197022319" lon="9.932214953005314">
<ele>433.79999999999995</ele>
<time>2023-05-16T08:32:49Z</time>
</trkpt>
<trkpt lat="48.79656996577978" lon="9.932164996862411">
<ele>433.79999999999995</ele>
<time>2023-05-16T08:32:50Z</time>
</trkpt>
<trkpt lat="48.7966019846499" lon="9.932116968557239">
<ele>434</ele>
<time>2023-05-16T08:32:51Z</time>
</trkpt>
<trkpt lat="48.79662998020649" lon="9.932062989100814">
<ele>434.20000000000005</ele>
<time>2023-05-16T08:32:52Z</time>
</trkpt>
<trkpt lat="48.79665294662118" lon="9.932009931653738">
<ele>434.4</ele>
<time>2023-05-16T08:32:53Z</time>
</trkpt>
<trkpt lat="48.79667499102652" lon="9.931951928883791">
<ele>434.6</ele>
<time>2023-05-16T08:32:54Z</time>
</trkpt>
<trkpt lat="48.796702986583114" lon="9.931899961084127">
<ele>434.79999999999995</ele>
<time>2023-05-16T08:32:55Z</time>
</trkpt>
<trkpt lat="48.796727964654565" lon="9.93186199106276">
<ele>435</ele>
<time>2023-05-16T08:32:56Z</time>
</trkpt>
<trkpt lat="48.79675696603954" lon="9.931819997727871">
<ele>435.20000000000005</ele>
<time>2023-05-16T08:32:57Z</time>
</trkpt>
<trkpt lat="48.79678697325289" lon="9.931784961372614">
<ele>435.20000000000005</ele>
<time>2023-05-16T08:32:58Z</time>
</trkpt>
<trkpt lat="48.796814968809485" lon="9.931744979694486">
<ele>435.4</ele>
<time>2023-05-16T08:32:59Z</time>
</trkpt>
<trkpt lat="48.79684296436608" lon="9.931704998016357">
<ele>435.6</ele>
<time>2023-05-16T08:33:00Z</time>
</trkpt>
<trkpt lat="48.79686995409429" lon="9.931666944175959">
<ele>435.79999999999995</ele>
<time>2023-05-16T08:33:01Z</time>
</trkpt>
<trkpt lat="48.79689493216574" lon="9.931627968326211">
<ele>435.79999999999995</ele>
<time>2023-05-16T08:33:02Z</time>
</trkpt>
<trkpt lat="48.796921921893954" lon="9.931587986648083">
<ele>436</ele>
<time>2023-05-16T08:33:03Z</time>
</trkpt>
<trkpt lat="48.79694991745055" lon="9.931544987484813">
<ele>436</ele>
<time>2023-05-16T08:33:04Z</time>
</trkpt>
<trkpt lat="48.7969799246639" lon="9.93149796500802">
<ele>436.20000000000005</ele>
<time>2023-05-16T08:33:05Z</time>
</trkpt>
<trkpt lat="48.79701194353402" lon="9.931457983329892">
<ele>436.20000000000005</ele>
<time>2023-05-16T08:33:06Z</time>
</trkpt>
<trkpt lat="48.79704295657575" lon="9.931422946974635">
<ele>436.4</ele>
<time>2023-05-16T08:33:07Z</time>
</trkpt>
<trkpt lat="48.79707497544587" lon="9.931384976953268">
<ele>436.4</ele>
<time>2023-05-16T08:33:08Z</time>
</trkpt>
<trkpt lat="48.79710992798209" lon="9.93134499527514">
<ele>436.4</ele>
<time>2023-05-16T08:33:09Z</time>
</trkpt>
<trkpt lat="48.79714697599411" lon="9.93130492977798">
<ele>436.6</ele>
<time>2023-05-16T08:33:10Z</time>
</trkpt>
<trkpt lat="48.797182934358716" lon="9.931266959756613">
<ele>436.6</ele>
<time>2023-05-16T08:33:11Z</time>
</trkpt>
<trkpt lat="48.79721797071397" lon="9.931227983906865">
<ele>436.6</ele>
<time>2023-05-16T08:33:12Z</time>
</trkpt>
<trkpt lat="48.79725191742182" lon="9.931191941723228">
<ele>436.6</ele>
<time>2023-05-16T08:33:13Z</time>
</trkpt>
<trkpt lat="48.797286953777075" lon="9.931156989187002">
<ele>436.79999999999995</ele>
<time>2023-05-16T08:33:14Z</time>
</trkpt>
<trkpt lat="48.79732299596071" lon="9.931119941174984">
<ele>436.79999999999995</ele>
<time>2023-05-16T08:33:15Z</time>
</trkpt>
<trkpt lat="48.7973599601537" lon="9.931079959496856">
<ele>436.79999999999995</ele>
<time>2023-05-16T08:33:16Z</time>
</trkpt>
<trkpt lat="48.797397930175066" lon="9.931037966161966">
<ele>436.79999999999995</ele>
<time>2023-05-16T08:33:17Z</time>
</trkpt>
<trkpt lat="48.79743296653032" lon="9.9309999961406">
<ele>436.79999999999995</ele>
<time>2023-05-16T08:33:18Z</time>
</trkpt>
<trkpt lat="48.79746791906655" lon="9.930964959785342">
<ele>436.79999999999995</ele>
<time>2023-05-16T08:33:19Z</time>
</trkpt>
<trkpt lat="48.797501949593425" lon="9.930927995592356">
<ele>436.79999999999995</ele>
<time>2023-05-16T08:33:20Z</time>
</trkpt>
<trkpt lat="48.79753497429192" lon="9.930889941751957">
<ele>436.79999999999995</ele>
<time>2023-05-16T08:33:21Z</time>
</trkpt>
<trkpt lat="48.79756799899042" lon="9.93085197173059">
<ele>436.79999999999995</ele>
<time>2023-05-16T08:33:22Z</time>
</trkpt>
<trkpt lat="48.79759792238474" lon="9.930812995880842">
<ele>436.79999999999995</ele>
<time>2023-05-16T08:33:23Z</time>
</trkpt>
<trkpt lat="48.797631952911615" lon="9.930772930383682">
<ele>436.79999999999995</ele>
<time>2023-05-16T08:33:24Z</time>
</trkpt>
<trkpt lat="48.79766698926687" lon="9.930731942877173">
<ele>436.79999999999995</ele>
<time>2023-05-16T08:33:25Z</time>
</trkpt>
<trkpt lat="48.797697918489575" lon="9.930686932057142">
<ele>436.6</ele>
<time>2023-05-16T08:33:26Z</time>
</trkpt>
<trkpt lat="48.79772691987455" lon="9.93063697591424">
<ele>436.6</ele>
<time>2023-05-16T08:33:27Z</time>
</trkpt>
<trkpt lat="48.7977569270879" lon="9.930581990629435">
<ele>436.6</ele>
<time>2023-05-16T08:33:28Z</time>
</trkpt>
<trkpt lat="48.79778299480677" lon="9.930522982031107">
<ele>436.6</ele>
<time>2023-05-16T08:33:29Z</time>
</trkpt>
<trkpt lat="48.79780998453498" lon="9.930457938462496">
<ele>436.6</ele>
<time>2023-05-16T08:33:30Z</time>
</trkpt>
<trkpt lat="48.79783496260643" lon="9.930389961227775">
<ele>436.6</ele>
<time>2023-05-16T08:33:31Z</time>
</trkpt>
<trkpt lat="48.79785994067788" lon="9.930322989821434">
<ele>436.4</ele>
<time>2023-05-16T08:33:32Z</time>
</trkpt>
<trkpt lat="48.7978829909116" lon="9.930251995101571">
<ele>436.4</ele>
<time>2023-05-16T08:33:33Z</time>
</trkpt>
<trkpt lat="48.797907968983054" lon="9.930174965411425">
<ele>436.4</ele>
<time>2023-05-16T08:33:34Z</time>
</trkpt>
<trkpt lat="48.797932947054505" lon="9.93009994737804">
<ele>436.20000000000005</ele>
<time>2023-05-16T08:33:35Z</time>
</trkpt>
<trkpt lat="48.79795993678272" lon="9.930022917687893">
<ele>436</ele>
<time>2023-05-16T08:33:36Z</time>
</trkpt>
<trkpt lat="48.79798298701644" lon="9.929946977645159">
<ele>436</ele>
<time>2023-05-16T08:33:37Z</time>
</trkpt>
<trkpt lat="48.79800997674465" lon="9.92986693046987">
<ele>435.79999999999995</ele>
<time>2023-05-16T08:33:38Z</time>
</trkpt>
<trkpt lat="48.798036966472864" lon="9.929782943800092">
<ele>435.6</ele>
<time>2023-05-16T08:33:39Z</time>
</trkpt>
<trkpt lat="48.798059932887554" lon="9.929696945473552">
<ele>435.4</ele>
<time>2023-05-16T08:33:40Z</time>
</trkpt>
<trkpt lat="48.79807493649423" lon="9.929601978510618">
<ele>435.20000000000005</ele>
<time>2023-05-16T08:33:41Z</time>
</trkpt>
<trkpt lat="48.79808792844415" lon="9.929502988234162">
<ele>435</ele>
<time>2023-05-16T08:33:42Z</time>
</trkpt>
<trkpt lat="48.79809698089957" lon="9.929401986300945">
<ele>434.6</ele>
<time>2023-05-16T08:33:43Z</time>
</trkpt>
<trkpt lat="48.79809798672795" lon="9.929299978539348">
<ele>434.4</ele>
<time>2023-05-16T08:33:44Z</time>
</trkpt>
<trkpt lat="48.79809496924281" lon="9.92919696494937">
<ele>434.20000000000005</ele>
<time>2023-05-16T08:33:45Z</time>
</trkpt>
<trkpt lat="48.79808499477804" lon="9.92909294553101">
<ele>434</ele>
<time>2023-05-16T08:33:46Z</time>
</trkpt>
<trkpt lat="48.79806697368622" lon="9.928991943597794">
<ele>433.6</ele>
<time>2023-05-16T08:33:47Z</time>
</trkpt>
<trkpt lat="48.798042917624116" lon="9.92889697663486">
<ele>433.4</ele>
<time>2023-05-16T08:33:48Z</time>
</trkpt>
<trkpt lat="48.798016933724284" lon="9.928806954994798">
<ele>433.20000000000005</ele>
<time>2023-05-16T08:33:49Z</time>
</trkpt>
<trkpt lat="48.79798994399607" lon="9.928716933354735">
<ele>433.20000000000005</ele>
<time>2023-05-16T08:33:50Z</time>
</trkpt>
<trkpt lat="48.79795792512596" lon="9.928632946684957">
<ele>433</ele>
<time>2023-05-16T08:33:51Z</time>
</trkpt>
<trkpt lat="48.79792297258973" lon="9.928557928651571">
<ele>432.79999999999995</ele>
<time>2023-05-16T08:33:52Z</time>
</trkpt>
<trkpt lat="48.797886930406094" lon="9.92848995141685">
<ele>432.79999999999995</ele>
<time>2023-05-16T08:33:53Z</time>
</trkpt>
<trkpt lat="48.79785197786987" lon="9.928419962525368">
<ele>432.6</ele>
<time>2023-05-16T08:33:54Z</time>
</trkpt>
<trkpt lat="48.79781794734299" lon="9.928352991119027">
<ele>432.6</ele>
<time>2023-05-16T08:33:55Z</time>
</trkpt>
<trkpt lat="48.79778299480677" lon="9.928287947550416">
<ele>432.6</ele>
<time>2023-05-16T08:33:56Z</time>
</trkpt>
<trkpt lat="48.79775198176503" lon="9.928224999457598">
<ele>432.6</ele>
<time>2023-05-16T08:33:57Z</time>
</trkpt>
<trkpt lat="48.79771996289492" lon="9.928159955888987">
<ele>432.4</ele>
<time>2023-05-16T08:33:58Z</time>
</trkpt>
<trkpt lat="48.79768693819642" lon="9.928092984482646">
<ele>432.4</ele>
<time>2023-05-16T08:33:59Z</time>
</trkpt>
<trkpt lat="48.797654919326305" lon="9.928026935085654">
<ele>432.4</ele>
<time>2023-05-16T08:34:00Z</time>
</trkpt>
<trkpt lat="48.79762298427522" lon="9.927957952022552">
<ele>432.4</ele>
<time>2023-05-16T08:34:01Z</time>
</trkpt>
<trkpt lat="48.79759197123349" lon="9.92788695730269">
<ele>432.4</ele>
<time>2023-05-16T08:34:02Z</time>
</trkpt>
<trkpt lat="48.797562969848514" lon="9.927814956754446">
<ele>432.20000000000005</ele>
<time>2023-05-16T08:34:03Z</time>
</trkpt>
<trkpt lat="48.79753296263516" lon="9.927741950377822">
<ele>432.20000000000005</ele>
<time>2023-05-16T08:34:04Z</time>
</trkpt>
<trkpt lat="48.797501949593425" lon="9.927669949829578">
<ele>432.20000000000005</ele>
<time>2023-05-16T08:34:05Z</time>
</trkpt>
<trkpt lat="48.79747294820845" lon="9.927596943452954">
<ele>432.20000000000005</ele>
<time>2023-05-16T08:34:06Z</time>
</trkpt>
<trkpt lat="48.797447970137" lon="9.927517985925078">
<ele>432</ele>
<time>2023-05-16T08:34:07Z</time>
</trkpt>
<trkpt lat="48.79742693156004" lon="9.92743793874979">
<ele>432</ele>
<time>2023-05-16T08:34:08Z</time>
</trkpt>
<trkpt lat="48.7974099162966" lon="9.927357975393534">
<ele>431.79999999999995</ele>
<time>2023-05-16T08:34:09Z</time>
</trkpt>
<trkpt lat="48.797396924346685" lon="9.927274994552135">
<ele>431.6</ele>
<time>2023-05-16T08:34:10Z</time>
</trkpt>
<trkpt lat="48.79737999290228" lon="9.927191929891706">
<ele>431.4</ele>
<time>2023-05-16T08:34:11Z</time>
</trkpt>
<trkpt lat="48.7973649892956" lon="9.927106937393546">
<ele>431.20000000000005</ele>
<time>2023-05-16T08:34:12Z</time>
</trkpt>
<trkpt lat="48.79735694266856" lon="9.927017921581864">
<ele>431</ele>
<time>2023-05-16T08:34:13Z</time>
</trkpt>
<trkpt lat="48.797349985688925" lon="9.926927983760834">
<ele>430.79999999999995</ele>
<time>2023-05-16T08:34:14Z</time>
</trkpt>
<trkpt lat="48.79734696820378" lon="9.92683695629239">
<ele>430.6</ele>
<time>2023-05-16T08:34:15Z</time>
</trkpt>
<trkpt lat="48.79733992740512" lon="9.926744922995567">
<ele>430.4</ele>
<time>2023-05-16T08:34:16Z</time>
</trkpt>
<trkpt lat="48.797331964597106" lon="9.926654985174537">
<ele>430.20000000000005</ele>
<time>2023-05-16T08:34:17Z</time>
</trkpt>
<trkpt lat="48.79731494933367" lon="9.926571920514107">
<ele>430</ele>
<time>2023-05-16T08:34:18Z</time>
</trkpt>
<trkpt lat="48.79729198291898" lon="9.926494974642992">
<ele>430</ele>
<time>2023-05-16T08:34:19Z</time>
</trkpt>
<trkpt lat="48.797266921028495" lon="9.92642498575151">
<ele>429.79999999999995</ele>
<time>2023-05-16T08:34:20Z</time>
</trkpt>
<trkpt lat="48.797241942957044" lon="9.926354996860027">
<ele>429.79999999999995</ele>
<time>2023-05-16T08:34:21Z</time>
</trkpt>
<trkpt lat="48.79721797071397" lon="9.926286935806274">
<ele>429.79999999999995</ele>
<time>2023-05-16T08:34:22Z</time>
</trkpt>
<trkpt lat="48.79719299264252" lon="9.926216946914792">
<ele>430</ele>
<time>2023-05-16T08:34:23Z</time>
</trkpt>
<trkpt lat="48.79716692492366" lon="9.926142934709787">
<ele>430</ele>
<time>2023-05-16T08:34:24Z</time>
</trkpt>
<trkpt lat="48.797139935195446" lon="9.926069928333163">
<ele>430</ele>
<time>2023-05-16T08:34:25Z</time>
</trkpt>
<trkpt lat="48.797114957123995" lon="9.92599499411881">
<ele>430</ele>
<time>2023-05-16T08:34:26Z</time>
</trkpt>
<trkpt lat="48.797094924375415" lon="9.925916958600283">
<ele>430</ele>
<time>2023-05-16T08:34:27Z</time>
</trkpt>
<trkpt lat="48.797072963789105" lon="9.925836995244026">
<ele>430</ele>
<time>2023-05-16T08:34:28Z</time>
</trkpt>
<trkpt lat="48.797052931040525" lon="9.92575996555388">
<ele>430</ele>
<time>2023-05-16T08:34:29Z</time>
</trkpt>
<trkpt lat="48.797029964625835" lon="9.925682935863733">
<ele>430</ele>
<time>2023-05-16T08:34:30Z</time>
</trkpt>
<trkpt lat="48.797006998211145" lon="9.925607917830348">
<ele>430</ele>
<time>2023-05-16T08:34:31Z</time>
</trkpt>
<trkpt lat="48.796984953805804" lon="9.925532983615994">
<ele>430</ele>
<time>2023-05-16T08:34:32Z</time>
</trkpt>
<trkpt lat="48.796961987391114" lon="9.92545796558261">
<ele>430</ele>
<time>2023-05-16T08:34:33Z</time>
</trkpt>
<trkpt lat="48.79693994298577" lon="9.925382947549224">
<ele>430</ele>
<time>2023-05-16T08:34:34Z</time>
</trkpt>
<trkpt lat="48.79691496491432" lon="9.925307929515839">
<ele>429.79999999999995</ele>
<time>2023-05-16T08:34:35Z</time>
</trkpt>
<trkpt lat="48.79689199849963" lon="9.925234923139215">
<ele>429.79999999999995</ele>
<time>2023-05-16T08:34:36Z</time>
</trkpt>
<trkpt lat="48.79686693660915" lon="9.925164934247732">
<ele>429.79999999999995</ele>
<time>2023-05-16T08:34:37Z</time>
</trkpt>
<trkpt lat="48.7968419585377" lon="9.925096957013011">
<ele>429.79999999999995</ele>
<time>2023-05-16T08:34:38Z</time>
</trkpt>
<trkpt lat="48.79681798629463" lon="9.92502797394991">
<ele>429.6</ele>
<time>2023-05-16T08:34:39Z</time>
</trkpt>
<trkpt lat="48.79679694771767" lon="9.924959996715188">
<ele>429.6</ele>
<time>2023-05-16T08:34:40Z</time>
</trkpt>
<trkpt lat="48.79677699878812" lon="9.924891935661435">
<ele>429.6</ele>
<time>2023-05-16T08:34:41Z</time>
</trkpt>
<trkpt lat="48.79675495438278" lon="9.924824964255095">
<ele>429.4</ele>
<time>2023-05-16T08:34:42Z</time>
</trkpt>
<trkpt lat="48.7967349216342" lon="9.924759920686483">
<ele>429.4</ele>
<time>2023-05-16T08:34:43Z</time>
</trkpt>
<trkpt lat="48.79671195521951" lon="9.924699990078807">
<ele>429.4</ele>
<time>2023-05-16T08:34:44Z</time>
</trkpt>
<trkpt lat="48.79668798297644" lon="9.924636958166957">
<ele>429.20000000000005</ele>
<time>2023-05-16T08:34:45Z</time>
</trkpt>
<trkpt lat="48.796666944399476" lon="9.924572920426726">
<ele>429.20000000000005</ele>
<time>2023-05-16T08:34:46Z</time>
</trkpt>
<trkpt lat="48.79664699546993" lon="9.924507960677147">
<ele>429.20000000000005</ele>
<time>2023-05-16T08:34:47Z</time>
</trkpt>
<trkpt lat="48.79662796854973" lon="9.924441995099187">
<ele>429.20000000000005</ele>
<time>2023-05-16T08:34:48Z</time>
</trkpt>
<trkpt lat="48.79660994745791" lon="9.924374939873815">
<ele>429</ele>
<time>2023-05-16T08:34:49Z</time>
</trkpt>
<trkpt lat="48.79659192636609" lon="9.924307968467474">
<ele>429</ele>
<time>2023-05-16T08:34:50Z</time>
</trkpt>
<trkpt lat="48.79657197743654" lon="9.924242924898863">
<ele>429</ele>
<time>2023-05-16T08:34:51Z</time>
</trkpt>
<trkpt lat="48.79655194468796" lon="9.924176959320903">
<ele>429</ele>
<time>2023-05-16T08:34:52Z</time>
</trkpt>
<trkpt lat="48.79653291776776" lon="9.924112921580672">
<ele>429</ele>
<time>2023-05-16T08:34:53Z</time>
</trkpt>
<trkpt lat="48.796514980494976" lon="9.924057936295867">
<ele>429</ele>
<time>2023-05-16T08:34:54Z</time>
</trkpt>
<trkpt lat="48.7964999768883" lon="9.924006974324584">
<ele>429</ele>
<time>2023-05-16T08:34:55Z</time>
</trkpt>
<trkpt lat="48.796487990766764" lon="9.92395794019103">
<ele>429</ele>
<time>2023-05-16T08:34:56Z</time>
</trkpt>
<trkpt lat="48.79647298716009" lon="9.923907984048128">
<ele>429</ele>
<time>2023-05-16T08:34:57Z</time>
</trkpt>
<trkpt lat="48.79645798355341" lon="9.923852998763323">
<ele>429</ele>
<time>2023-05-16T08:34:58Z</time>
</trkpt>
<trkpt lat="48.79644197411835" lon="9.923794995993376">
<ele>429</ele>
<time>2023-05-16T08:34:59Z</time>
</trkpt>
<trkpt lat="48.796427976340055" lon="9.923731964081526">
<ele>429</ele>
<time>2023-05-16T08:35:00Z</time>
</trkpt>
<trkpt lat="48.79641498439014" lon="9.923664992675185">
<ele>429</ele>
<time>2023-05-16T08:35:01Z</time>
</trkpt>
<trkpt lat="48.796404926106334" lon="9.923592992126942">
<ele>429</ele>
<time>2023-05-16T08:35:02Z</time>
</trkpt>
<trkpt lat="48.7963929399848" lon="9.923522919416428">
<ele>429</ele>
<time>2023-05-16T08:35:03Z</time>
</trkpt>
<trkpt lat="48.796382965520024" lon="9.923452930524945">
<ele>429</ele>
<time>2023-05-16T08:35:04Z</time>
</trkpt>
<trkpt lat="48.79637299105525" lon="9.923382941633463">
<ele>429</ele>
<time>2023-05-16T08:35:05Z</time>
</trkpt>
<trkpt lat="48.79636695608497" lon="9.923316976055503">
<ele>429</ele>
<time>2023-05-16T08:35:06Z</time>
</trkpt>
<trkpt lat="48.796361926943064" lon="9.92324992083013">
<ele>429</ele>
<time>2023-05-16T08:35:07Z</time>
</trkpt>
<trkpt lat="48.79635496996343" lon="9.92318294942379">
<ele>429.20000000000005</ele>
<time>2023-05-16T08:35:08Z</time>
</trkpt>
<trkpt lat="48.79635295830667" lon="9.923114972189069">
<ele>429.20000000000005</ele>
<time>2023-05-16T08:35:09Z</time>
</trkpt>
<trkpt lat="48.79634994082153" lon="9.923041965812445">
<ele>429.20000000000005</ele>
<time>2023-05-16T08:35:10Z</time>
</trkpt>
<trkpt lat="48.796342983841896" lon="9.922969965264201">
<ele>429.20000000000005</ele>
<time>2023-05-16T08:35:11Z</time>
</trkpt>
<trkpt lat="48.79633694887161" lon="9.922897964715958">
<ele>429.20000000000005</ele>
<time>2023-05-16T08:35:12Z</time>
</trkpt>
<trkpt lat="48.79632798023522" lon="9.922821940854192">
<ele>429.20000000000005</ele>
<time>2023-05-16T08:35:13Z</time>
</trkpt>
<trkpt lat="48.796321945264935" lon="9.922746922820807">
<ele>429.20000000000005</ele>
<time>2023-05-16T08:35:14Z</time>
</trkpt>
<trkpt lat="48.796316999942064" lon="9.922669976949692">
<ele>429.20000000000005</ele>
<time>2023-05-16T08:35:15Z</time>
</trkpt>
<trkpt lat="48.796302918344736" lon="9.922596970573068">
<ele>429.20000000000005</ele>
<time>2023-05-16T08:35:16Z</time>
</trkpt>
<trkpt lat="48.79628699272871" lon="9.922521952539682">
<ele>429.20000000000005</ele>
<time>2023-05-16T08:35:17Z</time>
</trkpt>
<trkpt lat="48.79626695998013" lon="9.922456992790103">
<ele>429.20000000000005</ele>
<time>2023-05-16T08:35:18Z</time>
</trkpt>
<trkpt lat="48.79624198190868" lon="9.922396978363395">
<ele>429</ele>
<time>2023-05-16T08:35:19Z</time>
</trkpt>
<trkpt lat="48.7962079513818" lon="9.922339981421828">
<ele>429</ele>
<time>2023-05-16T08:35:20Z</time>
</trkpt>
<trkpt lat="48.7961719930172" lon="9.922291953116655">
<ele>429</ele>
<time>2023-05-16T08:35:21Z</time>
</trkpt>
<trkpt lat="48.79613494500518" lon="9.922252977266908">
<ele>429</ele>
<time>2023-05-16T08:35:22Z</time>
</trkpt>
<trkpt lat="48.79609798081219" lon="9.922222970053554">
<ele>429</ele>
<time>2023-05-16T08:35:23Z</time>
</trkpt>
<trkpt lat="48.796064956113696" lon="9.9221929628402">
<ele>429</ele>
<time>2023-05-16T08:35:24Z</time>
</trkpt>
<trkpt lat="48.7960319314152" lon="9.922162955626845">
<ele>429</ele>
<time>2023-05-16T08:35:25Z</time>
</trkpt>
<trkpt lat="48.79600293003023" lon="9.922127919271588">
<ele>429.20000000000005</ele>
<time>2023-05-16T08:35:26Z</time>
</trkpt>
<trkpt lat="48.7959819752723" lon="9.92208693176508">
<ele>429.20000000000005</ele>
<time>2023-05-16T08:35:27Z</time>
</trkpt>
<trkpt lat="48.795967977494" lon="9.922034963965416">
<ele>429.20000000000005</ele>
<time>2023-05-16T08:35:28Z</time>
</trkpt>
<trkpt lat="48.795957919210196" lon="9.921981990337372">
<ele>429.20000000000005</ele>
<time>2023-05-16T08:35:29Z</time>
</trkpt>
<trkpt lat="48.79595699720085" lon="9.921927927061915">
<ele>429.20000000000005</ele>
<time>2023-05-16T08:35:30Z</time>
</trkpt>
<trkpt lat="48.79596496000886" lon="9.921876965090632">
<ele>429.4</ele>
<time>2023-05-16T08:35:31Z</time>
</trkpt>
<trkpt lat="48.79597191698849" lon="9.921819968149066">
<ele>429.4</ele>
<time>2023-05-16T08:35:32Z</time>
</trkpt>
<trkpt lat="48.79597996361554" lon="9.92176498286426">
<ele>429.4</ele>
<time>2023-05-16T08:35:33Z</time>
</trkpt>
<trkpt lat="48.79599194973707" lon="9.921702956780791">
<ele>429.4</ele>
<time>2023-05-16T08:35:34Z</time>
</trkpt>
<trkpt lat="48.79600795917213" lon="9.921639924868941">
<ele>429.4</ele>
<time>2023-05-16T08:35:35Z</time>
</trkpt>
<trkpt lat="48.79602799192071" lon="9.921576976776123">
<ele>429.6</ele>
<time>2023-05-16T08:35:36Z</time>
</trkpt>
<trkpt lat="48.79604794085026" lon="9.921502964571118">
<ele>429.6</ele>
<time>2023-05-16T08:35:37Z</time>
</trkpt>
<trkpt lat="48.7960699852556" lon="9.921434987336397">
<ele>429.4</ele>
<time>2023-05-16T08:35:38Z</time>
</trkpt>
<trkpt lat="48.79609496332705" lon="9.921362986788154">
<ele>429.4</ele>
<time>2023-05-16T08:35:39Z</time>
</trkpt>
<trkpt lat="48.79612195305526" lon="9.921297943219543">
<ele>429.4</ele>
<time>2023-05-16T08:35:40Z</time>
</trkpt>
<trkpt lat="48.79615196026862" lon="9.921234995126724">
<ele>429.4</ele>
<time>2023-05-16T08:35:41Z</time>
</trkpt>
<trkpt lat="48.79618498496711" lon="9.921172969043255">
<ele>429.4</ele>
<time>2023-05-16T08:35:42Z</time>
</trkpt>
<trkpt lat="48.79622295498848" lon="9.921112954616547">
<ele>429.4</ele>
<time>2023-05-16T08:35:43Z</time>
</trkpt>
<trkpt lat="48.796259919181466" lon="9.921049922704697">
<ele>429.4</ele>
<time>2023-05-16T08:35:44Z</time>
</trkpt>
<trkpt lat="48.79630199633539" lon="9.920987980440259">
<ele>429.4</ele>
<time>2023-05-16T08:35:45Z</time>
</trkpt>
<trkpt lat="48.796341978013515" lon="9.920929977670312">
<ele>429.20000000000005</ele>
<time>2023-05-16T08:35:46Z</time>
</trkpt>
<trkpt lat="48.796384977176785" lon="9.920869963243604">
<ele>429.20000000000005</ele>
<time>2023-05-16T08:35:47Z</time>
</trkpt>
<trkpt lat="48.796426970511675" lon="9.920802991837263">
<ele>429</ele>
<time>2023-05-16T08:35:48Z</time>
</trkpt>
<trkpt lat="48.79646292887628" lon="9.920724956318736">
<ele>428.79999999999995</ele>
<time>2023-05-16T08:35:49Z</time>
</trkpt>
<trkpt lat="48.7964999768883" lon="9.920636946335435">
<ele>428.4</ele>
<time>2023-05-16T08:35:50Z</time>
</trkpt>
<trkpt lat="48.796536941081285" lon="9.920541979372501">
<ele>428.20000000000005</ele>
<time>2023-05-16T08:35:51Z</time>
</trkpt>
<trkpt lat="48.79656795412302" lon="9.920436954125762">
<ele>427.79999999999995</ele>
<time>2023-05-16T08:35:52Z</time>
</trkpt>
<trkpt lat="48.796597961336374" lon="9.920326983556151">
<ele>427.4</ele>
<time>2023-05-16T08:35:53Z</time>
</trkpt>
<trkpt lat="48.796621933579445" lon="9.920212989673018">
<ele>427</ele>
<time>2023-05-16T08:35:54Z</time>
</trkpt>
<trkpt lat="48.79663693718612" lon="9.920087931677699">
<ele>426.6</ele>
<time>2023-05-16T08:35:55Z</time>
</trkpt>
<trkpt lat="48.796639954671264" lon="9.919962957501411">
<ele>426.20000000000005</ele>
<time>2023-05-16T08:35:56Z</time>
</trkpt>
<trkpt lat="48.796639954671264" lon="9.919834965839982">
<ele>426</ele>
<time>2023-05-16T08:35:57Z</time>
</trkpt>
<trkpt lat="48.7966379430145" lon="9.919712925329804">
<ele>425.79999999999995</ele>
<time>2023-05-16T08:35:58Z</time>
</trkpt>
<trkpt lat="48.79663693718612" lon="9.919597925618291">
<ele>425.6</ele>
<time>2023-05-16T08:35:59Z</time>
</trkpt>
<trkpt lat="48.79663693718612" lon="9.9194869492203">
<ele>425.4</ele>
<time>2023-05-16T08:36:00Z</time>
</trkpt>
<trkpt lat="48.7966379430145" lon="9.91938192397356">
<ele>425.20000000000005</ele>
<time>2023-05-16T08:36:01Z</time>
</trkpt>
<trkpt lat="48.796641966328025" lon="9.919284945353866">
<ele>425.20000000000005</ele>
<time>2023-05-16T08:36:02Z</time>
</trkpt>
<trkpt lat="48.79664699546993" lon="9.919192995876074">
<ele>425.20000000000005</ele>
<time>2023-05-16T08:36:03Z</time>
</trkpt>
<trkpt lat="48.7966519407928" lon="9.919107919558883">
<ele>425.20000000000005</ele>
<time>2023-05-16T08:36:04Z</time>
</trkpt>
<trkpt lat="48.7966569699347" lon="9.919031979516149">
<ele>425.20000000000005</ele>
<time>2023-05-16T08:36:05Z</time>
</trkpt>
<trkpt lat="48.796662921085954" lon="9.918957967311144">
<ele>425.20000000000005</ele>
<time>2023-05-16T08:36:06Z</time>
</trkpt>
<trkpt lat="48.79666996188462" lon="9.91888496093452">
<ele>425.20000000000005</ele>
<time>2023-05-16T08:36:07Z</time>
</trkpt>
<trkpt lat="48.79667499102652" lon="9.91881798952818">
<ele>425.20000000000005</ele>
<time>2023-05-16T08:36:08Z</time>
</trkpt>
<trkpt lat="48.79667993634939" lon="9.918752945959568">
<ele>425.20000000000005</ele>
<time>2023-05-16T08:36:09Z</time>
</trkpt>
<trkpt lat="48.796682953834534" lon="9.91868999786675">
<ele>425.20000000000005</ele>
<time>2023-05-16T08:36:10Z</time>
</trkpt>
<trkpt lat="48.796686977148056" lon="9.91862797178328">
<ele>425.4</ele>
<time>2023-05-16T08:36:11Z</time>
</trkpt>
<trkpt lat="48.79669192247093" lon="9.918566951528192">
<ele>425.4</ele>
<time>2023-05-16T08:36:12Z</time>
</trkpt>
<trkpt lat="48.79669493995607" lon="9.918506937101483">
<ele>425.4</ele>
<time>2023-05-16T08:36:13Z</time>
</trkpt>
<trkpt lat="48.796704998239875" lon="9.918442983180285">
<ele>425.4</ele>
<time>2023-05-16T08:36:14Z</time>
</trkpt>
<trkpt lat="48.79671296104789" lon="9.918374922126532">
<ele>425.6</ele>
<time>2023-05-16T08:36:15Z</time>
</trkpt>
<trkpt lat="48.79672293551266" lon="9.918312979862094">
<ele>425.6</ele>
<time>2023-05-16T08:36:16Z</time>
</trkpt>
<trkpt lat="48.7967349216342" lon="9.918252965435386">
<ele>425.6</ele>
<time>2023-05-16T08:36:17Z</time>
</trkpt>
<trkpt lat="48.796746991574764" lon="9.918192951008677">
<ele>425.79999999999995</ele>
<time>2023-05-16T08:36:18Z</time>
</trkpt>
<trkpt lat="48.79675797186792" lon="9.91813494823873">
<ele>425.79999999999995</ele>
<time>2023-05-16T08:36:19Z</time>
</trkpt>
<trkpt lat="48.796769957989454" lon="9.918069988489151">
<ele>426</ele>
<time>2023-05-16T08:36:20Z</time>
</trkpt>
<trkpt lat="48.79677993245423" lon="9.918002933263779">
<ele>426</ele>
<time>2023-05-16T08:36:21Z</time>
</trkpt>
<trkpt lat="48.79678697325289" lon="9.917934956029058">
<ele>426</ele>
<time>2023-05-16T08:36:22Z</time>
</trkpt>
<trkpt lat="48.796792924404144" lon="9.917862955480814">
<ele>426</ele>
<time>2023-05-16T08:36:23Z</time>
</trkpt>
<trkpt lat="48.79680298268795" lon="9.91778994910419">
<ele>426.20000000000005</ele>
<time>2023-05-16T08:36:24Z</time>
</trkpt>
<trkpt lat="48.796814968809485" lon="9.917719960212708">
<ele>426.20000000000005</ele>
<time>2023-05-16T08:36:25Z</time>
</trkpt>
<trkpt lat="48.796831984072924" lon="9.917647959664464">
<ele>426.20000000000005</ele>
<time>2023-05-16T08:36:26Z</time>
</trkpt>
<trkpt lat="48.79684799350798" lon="9.91757495328784">
<ele>426</ele>
<time>2023-05-16T08:36:27Z</time>
</trkpt>
<trkpt lat="48.79686492495239" lon="9.917497923597693">
<ele>426</ele>
<time>2023-05-16T08:36:28Z</time>
</trkpt>
<trkpt lat="48.79688495770097" lon="9.917419971898198">
<ele>426</ele>
<time>2023-05-16T08:36:29Z</time>
</trkpt>
<trkpt lat="48.79690691828728" lon="9.91733992472291">
<ele>426</ele>
<time>2023-05-16T08:36:30Z</time>
</trkpt>
<trkpt lat="48.79692695103586" lon="9.917259961366653">
<ele>426</ele>
<time>2023-05-16T08:36:31Z</time>
</trkpt>
<trkpt lat="48.79694991745055" lon="9.917179998010397">
<ele>426</ele>
<time>2023-05-16T08:36:32Z</time>
</trkpt>
<trkpt lat="48.79697699099779" lon="9.917099950835109">
<ele>425.79999999999995</ele>
<time>2023-05-16T08:36:33Z</time>
</trkpt>
<trkpt lat="48.797004986554384" lon="9.91701696999371">
<ele>425.6</ele>
<time>2023-05-16T08:36:34Z</time>
</trkpt>
<trkpt lat="48.79703692160547" lon="9.916934994980693">
<ele>425.4</ele>
<time>2023-05-16T08:36:35Z</time>
</trkpt>
<trkpt lat="48.79706692881882" lon="9.916852936148643">
<ele>425.20000000000005</ele>
<time>2023-05-16T08:36:36Z</time>
</trkpt>
<trkpt lat="48.79709794186056" lon="9.91677699610591">
<ele>425</ele>
<time>2023-05-16T08:36:37Z</time>
</trkpt>
<trkpt lat="48.797132978215814" lon="9.916706923395395">
<ele>424.79999999999995</ele>
<time>2023-05-16T08:36:38Z</time>
</trkpt>
<trkpt lat="48.79716692492366" lon="9.916637940332294">
<ele>424.4</ele>
<time>2023-05-16T08:36:39Z</time>
</trkpt>
<trkpt lat="48.79719693213701" lon="9.916577925905585">
<ele>424.20000000000005</ele>
<time>2023-05-16T08:36:40Z</time>
</trkpt>
<trkpt lat="48.79722995683551" lon="9.916519923135638">
<ele>424</ele>
<time>2023-05-16T08:36:41Z</time>
</trkpt>
<trkpt lat="48.79725996404886" lon="9.916461920365691">
<ele>423.79999999999995</ele>
<time>2023-05-16T08:36:42Z</time>
</trkpt>
<trkpt lat="48.79728997126222" lon="9.916404923424125">
<ele>423.6</ele>
<time>2023-05-16T08:36:43Z</time>
</trkpt>
<trkpt lat="48.79731997847557" lon="9.91634993813932">
<ele>423.20000000000005</ele>
<time>2023-05-16T08:36:44Z</time>
</trkpt>
<trkpt lat="48.797347974032164" lon="9.916296964511275">
<ele>423</ele>
<time>2023-05-16T08:36:45Z</time>
</trkpt>
<trkpt lat="48.797374963760376" lon="9.91624197922647">
<ele>422.79999999999995</ele>
<time>2023-05-16T08:36:46Z</time>
</trkpt>
<trkpt lat="48.79739994183183" lon="9.916191939264536">
<ele>422.6</ele>
<time>2023-05-16T08:36:47Z</time>
</trkpt>
<trkpt lat="48.79742793738842" lon="9.916144916787744">
<ele>422.6</ele>
<time>2023-05-16T08:36:48Z</time>
</trkpt>
<trkpt lat="48.79745492711663" lon="9.916099989786744">
<ele>422.4</ele>
<time>2023-05-16T08:36:49Z</time>
</trkpt>
<trkpt lat="48.797482922673225" lon="9.91604994982481">
<ele>422.20000000000005</ele>
<time>2023-05-16T08:36:50Z</time>
</trkpt>
<trkpt lat="48.79750999622047" lon="9.915997982025146">
<ele>422</ele>
<time>2023-05-16T08:36:51Z</time>
</trkpt>
<trkpt lat="48.79753698594868" lon="9.91594199091196">
<ele>421.79999999999995</ele>
<time>2023-05-16T08:36:52Z</time>
</trkpt>
<trkpt lat="48.797564981505275" lon="9.915881976485252">
<ele>421.79999999999995</ele>
<time>2023-05-16T08:36:53Z</time>
</trkpt>
<trkpt lat="48.79759498871863" lon="9.915821962058544">
<ele>421.6</ele>
<time>2023-05-16T08:36:54Z</time>
</trkpt>
<trkpt lat="48.79762792959809" lon="9.915757924318314">
<ele>421.4</ele>
<time>2023-05-16T08:36:55Z</time>
</trkpt>
<trkpt lat="48.79766196012497" lon="9.915696987882257">
<ele>421.20000000000005</ele>
<time>2023-05-16T08:36:56Z</time>
</trkpt>
<trkpt lat="48.797697918489575" lon="9.915627921000123">
<ele>421</ele>
<time>2023-05-16T08:36:57Z</time>
</trkpt>
<trkpt lat="48.79772993735969" lon="9.91555499844253">
<ele>420.79999999999995</ele>
<time>2023-05-16T08:36:58Z</time>
</trkpt>
<trkpt lat="48.797757932916284" lon="9.915477968752384">
<ele>420.6</ele>
<time>2023-05-16T08:36:59Z</time>
</trkpt>
<trkpt lat="48.797784922644496" lon="9.915399933233857">
<ele>420.4</ele>
<time>2023-05-16T08:37:00Z</time>
</trkpt>
<trkpt lat="48.79781199619174" lon="9.9153199698776">
<ele>420</ele>
<time>2023-05-16T08:37:01Z</time>
</trkpt>
<trkpt lat="48.79783295094967" lon="9.915244951844215">
<ele>419.79999999999995</ele>
<time>2023-05-16T08:37:02Z</time>
</trkpt>
<trkpt lat="48.79785692319274" lon="9.915171945467591">
<ele>419.6</ele>
<time>2023-05-16T08:37:03Z</time>
</trkpt>
<trkpt lat="48.79787695594132" lon="9.915096927434206">
<ele>419.4</ele>
<time>2023-05-16T08:37:04Z</time>
</trkpt>
<trkpt lat="48.79789497703314" lon="9.915022999048233">
<ele>419.20000000000005</ele>
<time>2023-05-16T08:37:05Z</time>
</trkpt>
<trkpt lat="48.797909980639815" lon="9.914949992671609">
<ele>419</ele>
<time>2023-05-16T08:37:06Z</time>
</trkpt>
<trkpt lat="48.79792498424649" lon="9.91486793383956">
<ele>418.79999999999995</ele>
<time>2023-05-16T08:37:07Z</time>
</trkpt>
<trkpt lat="48.79793495871127" lon="9.91478193551302">
<ele>418.6</ele>
<time>2023-05-16T08:37:08Z</time>
</trkpt>
<trkpt lat="48.79794493317604" lon="9.914691997691989">
<ele>418.4</ele>
<time>2023-05-16T08:37:09Z</time>
</trkpt>
<trkpt lat="48.797949962317944" lon="9.914599964395165">
<ele>418.20000000000005</ele>
<time>2023-05-16T08:37:10Z</time>
</trkpt>
<trkpt lat="48.7979469448328" lon="9.914507931098342">
<ele>418.20000000000005</ele>
<time>2023-05-16T08:37:11Z</time>
</trkpt>
<trkpt lat="48.79793495871127" lon="9.91441497579217">
<ele>418</ele>
<time>2023-05-16T08:37:12Z</time>
</trkpt>
<trkpt lat="48.79792196676135" lon="9.914321936666965">
<ele>417.79999999999995</ele>
<time>2023-05-16T08:37:13Z</time>
</trkpt>
<trkpt lat="48.79790293984115" lon="9.914229987189174">
<ele>417.6</ele>
<time>2023-05-16T08:37:14Z</time>
</trkpt>
<trkpt lat="48.79788491874933" lon="9.914134936407208">
<ele>417.4</ele>
<time>2023-05-16T08:37:15Z</time>
</trkpt>
<trkpt lat="48.797867987304926" lon="9.914034940302372">
<ele>417.4</ele>
<time>2023-05-16T08:37:16Z</time>
</trkpt>
<trkpt lat="48.79785298369825" lon="9.913932932540774">
<ele>417.20000000000005</ele>
<time>2023-05-16T08:37:17Z</time>
</trkpt>
<trkpt lat="48.79784191958606" lon="9.913827991113067">
<ele>417</ele>
<time>2023-05-16T08:37:18Z</time>
</trkpt>
<trkpt lat="48.79783999174833" lon="9.913719948381186">
<ele>416.79999999999995</ele>
<time>2023-05-16T08:37:19Z</time>
</trkpt>
<trkpt lat="48.79785197786987" lon="9.913611989468336">
<ele>416.6</ele>
<time>2023-05-16T08:37:20Z</time>
</trkpt>
<trkpt lat="48.797866981476545" lon="9.913504952564836">
<ele>416.4</ele>
<time>2023-05-16T08:37:21Z</time>
</trkpt>
<trkpt lat="48.79788198508322" lon="9.913399927318096">
<ele>416.20000000000005</ele>
<time>2023-05-16T08:37:22Z</time>
</trkpt>
<trkpt lat="48.797891959548" lon="9.913294985890388">
<ele>416</ele>
<time>2023-05-16T08:37:23Z</time>
</trkpt>
<trkpt lat="48.79789296537638" lon="9.913187948986888">
<ele>415.79999999999995</ele>
<time>2023-05-16T08:37:24Z</time>
</trkpt>
<trkpt lat="48.797887936234474" lon="9.913077978417277">
<ele>415.6</ele>
<time>2023-05-16T08:37:25Z</time>
</trkpt>
<trkpt lat="48.79787997342646" lon="9.912964990362525">
<ele>415.4</ele>
<time>2023-05-16T08:37:26Z</time>
</trkpt>
<trkpt lat="48.79786999896169" lon="9.912851918488741">
<ele>415.20000000000005</ele>
<time>2023-05-16T08:37:27Z</time>
</trkpt>
<trkpt lat="48.79785994067788" lon="9.91274194791913">
<ele>415</ele>
<time>2023-05-16T08:37:28Z</time>
</trkpt>
<trkpt lat="48.79784996621311" lon="9.91263197734952">
<ele>414.79999999999995</ele>
<time>2023-05-16T08:37:29Z</time>
</trkpt>
<trkpt lat="48.79783999174833" lon="9.912521922960877">
<ele>414.4</ele>
<time>2023-05-16T08:37:30Z</time>
</trkpt>
<trkpt lat="48.79782699979842" lon="9.912412958219647">
<ele>414.20000000000005</ele>
<time>2023-05-16T08:37:31Z</time>
</trkpt>
<trkpt lat="48.79780797287822" lon="9.91231195628643">
<ele>414</ele>
<time>2023-05-16T08:37:32Z</time>
</trkpt>
<trkpt lat="48.79778794012964" lon="9.912214977666736">
<ele>413.79999999999995</ele>
<time>2023-05-16T08:37:33Z</time>
</trkpt>
<trkpt lat="48.79776698537171" lon="9.912129985168576">
<ele>413.6</ele>
<time>2023-05-16T08:37:34Z</time>
</trkpt>
<trkpt lat="48.797737983986735" lon="9.912054967135191">
<ele>413.20000000000005</ele>
<time>2023-05-16T08:37:35Z</time>
</trkpt>
<trkpt lat="48.797697918489575" lon="9.911994952708483">
<ele>413</ele>
<time>2023-05-16T08:37:36Z</time>
</trkpt>
<trkpt lat="48.797652991488576" lon="9.91194298490882">
<ele>413</ele>
<time>2023-05-16T08:37:37Z</time>
</trkpt>
<trkpt lat="48.797609992325306" lon="9.911896968260407">
<ele>412.79999999999995</ele>
<time>2023-05-16T08:37:38Z</time>
</trkpt>
<trkpt lat="48.79757193848491" lon="9.911842988803983">
<ele>412.79999999999995</ele>
<time>2023-05-16T08:37:39Z</time>
</trkpt>
<trkpt lat="48.79753799177706" lon="9.911782974377275">
<ele>412.79999999999995</ele>
<time>2023-05-16T08:37:40Z</time>
</trkpt>
<trkpt lat="48.797501949593425" lon="9.911722959950566">
<ele>412.79999999999995</ele>
<time>2023-05-16T08:37:41Z</time>
</trkpt>
<trkpt lat="48.79746297374368" lon="9.91166495718062">
<ele>412.79999999999995</ele>
<time>2023-05-16T08:37:42Z</time>
</trkpt>
<trkpt lat="48.797417962923646" lon="9.911612989380956">
<ele>412.79999999999995</ele>
<time>2023-05-16T08:37:43Z</time>
</trkpt>
<trkpt lat="48.79736691713333" lon="9.911577953025699">
<ele>412.79999999999995</ele>
<time>2023-05-16T08:37:44Z</time>
</trkpt>
<trkpt lat="48.797309920191765" lon="9.911557920277119">
<ele>412.79999999999995</ele>
<time>2023-05-16T08:37:45Z</time>
</trkpt>
<trkpt lat="48.79724797792733" lon="9.911547945812345">
<ele>413</ele>
<time>2023-05-16T08:37:46Z</time>
</trkpt>
<trkpt lat="48.79718494601548" lon="9.911532942205667">
<ele>413</ele>
<time>2023-05-16T08:37:47Z</time>
</trkpt>
<trkpt lat="48.79712199792266" lon="9.91151793859899">
<ele>413.20000000000005</ele>
<time>2023-05-16T08:37:48Z</time>
</trkpt>
<trkpt lat="48.79706491716206" lon="9.911501929163933">
<ele>413.20000000000005</ele>
<time>2023-05-16T08:37:49Z</time>
</trkpt>
<trkpt lat="48.7970129493624" lon="9.911479968577623">
<ele>413.4</ele>
<time>2023-05-16T08:37:50Z</time>
</trkpt>
<trkpt lat="48.796962993219495" lon="9.911462953314185">
<ele>413.6</ele>
<time>2023-05-16T08:37:51Z</time>
</trkpt>
<trkpt lat="48.79691697657108" lon="9.911446943879128">
<ele>413.79999999999995</ele>
<time>2023-05-16T08:37:52Z</time>
</trkpt>
<trkpt lat="48.79687196575105" lon="9.91142992861569">
<ele>414</ele>
<time>2023-05-16T08:37:53Z</time>
</trkpt>
<trkpt lat="48.796831984072924" lon="9.911416936665773">
<ele>414.4</ele>
<time>2023-05-16T08:37:54Z</time>
</trkpt>
<trkpt lat="48.796791918575764" lon="9.911402938887477">
<ele>414.79999999999995</ele>
<time>2023-05-16T08:37:55Z</time>
</trkpt>
<trkpt lat="48.79675495438278" lon="9.911391958594322">
<ele>415</ele>
<time>2023-05-16T08:37:56Z</time>
</trkpt>
<trkpt lat="48.79671799018979" lon="9.911377960816026">
<ele>415.4</ele>
<time>2023-05-16T08:37:57Z</time>
</trkpt>
<trkpt lat="48.796684965491295" lon="9.911367986351252">
<ele>415.6</ele>
<time>2023-05-16T08:37:58Z</time>
</trkpt>
<trkpt lat="48.79665294662118" lon="9.911359939724207">
<ele>416</ele>
<time>2023-05-16T08:37:59Z</time>
</trkpt>
<trkpt lat="48.79662495106459" lon="9.911347953602672">
<ele>416.20000000000005</ele>
<time>2023-05-16T08:38:00Z</time>
</trkpt>
<trkpt lat="48.796596955507994" lon="9.911336973309517">
<ele>416.4</ele>
<time>2023-05-16T08:38:01Z</time>
</trkpt>
<trkpt lat="48.79656493663788" lon="9.91132297553122">
<ele>416.6</ele>
<time>2023-05-16T08:38:02Z</time>
</trkpt>
<trkpt lat="48.79653291776776" lon="9.911311995238066">
<ele>416.79999999999995</ele>
<time>2023-05-16T08:38:03Z</time>
</trkpt>
<trkpt lat="48.79649796523154" lon="9.91129799745977">
<ele>416.79999999999995</ele>
<time>2023-05-16T08:38:04Z</time>
</trkpt>
<trkpt lat="48.79645798355341" lon="9.911281988024712">
<ele>416.79999999999995</ele>
<time>2023-05-16T08:38:05Z</time>
</trkpt>
<trkpt lat="48.79641498439014" lon="9.911261955276132">
<ele>416.79999999999995</ele>
<time>2023-05-16T08:38:06Z</time>
</trkpt>
<trkpt lat="48.79636695608497" lon="9.911241922527552">
<ele>416.79999999999995</ele>
<time>2023-05-16T08:38:07Z</time>
</trkpt>
<trkpt lat="48.7963149882853" lon="9.91121493279934">
<ele>416.79999999999995</ele>
<time>2023-05-16T08:38:08Z</time>
</trkpt>
<trkpt lat="48.79626494832337" lon="9.91119196638465">
<ele>416.79999999999995</ele>
<time>2023-05-16T08:38:09Z</time>
</trkpt>
<trkpt lat="48.796212980523705" lon="9.911174951121211">
<ele>416.79999999999995</ele>
<time>2023-05-16T08:38:10Z</time>
</trkpt>
<trkpt lat="48.79616193473339" lon="9.911164976656437">
<ele>416.79999999999995</ele>
<time>2023-05-16T08:38:11Z</time>
</trkpt>
<trkpt lat="48.79611298441887" lon="9.911152990534902">
<ele>416.6</ele>
<time>2023-05-16T08:38:12Z</time>
</trkpt>
<trkpt lat="48.79606797359884" lon="9.911119965836406">
<ele>416.6</ele>
<time>2023-05-16T08:38:13Z</time>
</trkpt>
<trkpt lat="48.79602698609233" lon="9.911071937531233">
<ele>416.6</ele>
<time>2023-05-16T08:38:14Z</time>
</trkpt>
<trkpt lat="48.79598692059517" lon="9.911012928932905">
<ele>416.4</ele>
<time>2023-05-16T08:38:15Z</time>
</trkpt>
<trkpt lat="48.79594693891704" lon="9.910962972790003">
<ele>416.20000000000005</ele>
<time>2023-05-16T08:38:16Z</time>
</trkpt>
<trkpt lat="48.79590293392539" lon="9.910921985283494">
<ele>416</ele>
<time>2023-05-16T08:38:17Z</time>
</trkpt>
<trkpt lat="48.79586496390402" lon="9.910879991948605">
<ele>415.79999999999995</ele>
<time>2023-05-16T08:38:18Z</time>
</trkpt>
<trkpt lat="48.79582799971104" lon="9.910839926451445">
<ele>415.4</ele>
<time>2023-05-16T08:38:19Z</time>
</trkpt>
<trkpt lat="48.7957969866693" lon="9.910799944773316">
<ele>415.20000000000005</ele>
<time>2023-05-16T08:38:20Z</time>
</trkpt>
<trkpt lat="48.79577494226396" lon="9.910767925903201">
<ele>415</ele>
<time>2023-05-16T08:38:21Z</time>
</trkpt>
<trkpt lat="48.795759938657284" lon="9.910747976973653">
<ele>414.79999999999995</ele>
<time>2023-05-16T08:38:22Z</time>
</trkpt>
<trkpt lat="48.795742923393846" lon="9.910726938396692">
<ele>414.6</ele>
<time>2023-05-16T08:38:23Z</time>
</trkpt>
<trkpt lat="48.79572993144393" lon="9.91069994866848">
<ele>414.4</ele>
<time>2023-05-16T08:38:24Z</time>
</trkpt>
<trkpt lat="48.795716939494014" lon="9.910669941455126">
<ele>414.20000000000005</ele>
<time>2023-05-16T08:38:25Z</time>
</trkpt>
<trkpt lat="48.79570294171572" lon="9.910627948120236">
<ele>414.20000000000005</ele>
<time>2023-05-16T08:38:26Z</time>
</trkpt>
<trkpt lat="48.795697996392846" lon="9.910577991977334">
<ele>414</ele>
<time>2023-05-16T08:38:27Z</time>
</trkpt>
<trkpt lat="48.79569296725094" lon="9.910521917045116">
<ele>414</ele>
<time>2023-05-16T08:38:28Z</time>
</trkpt>
<trkpt lat="48.79568693228066" lon="9.91046198643744">
<ele>413.79999999999995</ele>
<time>2023-05-16T08:38:29Z</time>
</trkpt>
<trkpt lat="48.795676957815886" lon="9.910396942868829">
<ele>413.79999999999995</ele>
<time>2023-05-16T08:38:30Z</time>
</trkpt>
<trkpt lat="48.79566497169435" lon="9.910329971462488">
<ele>413.6</ele>
<time>2023-05-16T08:38:31Z</time>
</trkpt>
<trkpt lat="48.795652985572815" lon="9.910261994227767">
<ele>413.6</ele>
<time>2023-05-16T08:38:32Z</time>
</trkpt>
<trkpt lat="48.7956399936229" lon="9.910192927345634">
<ele>413.6</ele>
<time>2023-05-16T08:38:33Z</time>
</trkpt>
<trkpt lat="48.79562792368233" lon="9.910127967596054">
<ele>413.4</ele>
<time>2023-05-16T08:38:34Z</time>
</trkpt>
<trkpt lat="48.795612920075655" lon="9.910067953169346">
<ele>413.4</ele>
<time>2023-05-16T08:38:35Z</time>
</trkpt>
<trkpt lat="48.79559992812574" lon="9.91001296788454">
<ele>413.4</ele>
<time>2023-05-16T08:38:36Z</time>
</trkpt>
<trkpt lat="48.79558299668133" lon="9.909961922094226">
<ele>413.4</ele>
<time>2023-05-16T08:38:37Z</time>
</trkpt>
<trkpt lat="48.795571932569146" lon="9.909909954294562">
<ele>413.4</ele>
<time>2023-05-16T08:38:38Z</time>
</trkpt>
<trkpt lat="48.79555994644761" lon="9.90985999815166">
<ele>413.20000000000005</ele>
<time>2023-05-16T08:38:39Z</time>
</trkpt>
<trkpt lat="48.795544942840934" lon="9.909806940704584">
<ele>413.20000000000005</ele>
<time>2023-05-16T08:38:40Z</time>
</trkpt>
<trkpt lat="48.795526921749115" lon="9.90975296124816">
<ele>413.20000000000005</ele>
<time>2023-05-16T08:38:41Z</time>
</trkpt>
<trkpt lat="48.79550797864795" lon="9.909699987620115">
<ele>413.20000000000005</ele>
<time>2023-05-16T08:38:42Z</time>
</trkpt>
<trkpt lat="48.79549196921289" lon="9.909639973193407">
<ele>413.20000000000005</ele>
<time>2023-05-16T08:38:43Z</time>
</trkpt>
<trkpt lat="48.79547495394945" lon="9.909577947109938">
<ele>413.20000000000005</ele>
<time>2023-05-16T08:38:44Z</time>
</trkpt>
<trkpt lat="48.795459950342774" lon="9.909516926854849">
<ele>413</ele>
<time>2023-05-16T08:38:45Z</time>
</trkpt>
<trkpt lat="48.7954449467361" lon="9.909449955448508">
<ele>413</ele>
<time>2023-05-16T08:38:46Z</time>
</trkpt>
<trkpt lat="48.79543195478618" lon="9.909386923536658">
<ele>413</ele>
<time>2023-05-16T08:38:47Z</time>
</trkpt>
<trkpt lat="48.795419968664646" lon="9.909331938251853">
<ele>413</ele>
<time>2023-05-16T08:38:48Z</time>
</trkpt>
<trkpt lat="48.79540697671473" lon="9.909282987937331">
<ele>413</ele>
<time>2023-05-16T08:38:49Z</time>
</trkpt>
<trkpt lat="48.795394990593195" lon="9.90923697128892">
<ele>413</ele>
<time>2023-05-16T08:38:50Z</time>
</trkpt>
<trkpt lat="48.79538292065263" lon="9.909191960468888">
<ele>413</ele>
<time>2023-05-16T08:38:51Z</time>
</trkpt>
<trkpt lat="48.795374957844615" lon="9.909142926335335">
<ele>413</ele>
<time>2023-05-16T08:38:52Z</time>
</trkpt>
<trkpt lat="48.7953669950366" lon="9.909094981849194">
<ele>413</ele>
<time>2023-05-16T08:38:53Z</time>
</trkpt>
<trkpt lat="48.79535995423794" lon="9.909049971029162">
<ele>413.20000000000005</ele>
<time>2023-05-16T08:38:54Z</time>
</trkpt>
<trkpt lat="48.795352997258306" lon="9.908992974087596">
<ele>413.20000000000005</ele>
<time>2023-05-16T08:38:55Z</time>
</trkpt>
<trkpt lat="48.7953479681164" lon="9.908932959660888">
<ele>413.20000000000005</ele>
<time>2023-05-16T08:38:56Z</time>
</trkpt>
<trkpt lat="48.7953429389745" lon="9.908867999911308">
<ele>413.20000000000005</ele>
<time>2023-05-16T08:38:57Z</time>
</trkpt>
<trkpt lat="48.79533992148936" lon="9.908804967999458">
<ele>413.20000000000005</ele>
<time>2023-05-16T08:38:58Z</time>
</trkpt>
<trkpt lat="48.79533698782325" lon="9.908742941915989">
<ele>413.20000000000005</ele>
<time>2023-05-16T08:38:59Z</time>
</trkpt>
<trkpt lat="48.79533698782325" lon="9.90867798216641">
<ele>413.20000000000005</ele>
<time>2023-05-16T08:39:00Z</time>
</trkpt>
<trkpt lat="48.79533698782325" lon="9.908611932769418">
<ele>413.20000000000005</ele>
<time>2023-05-16T08:39:01Z</time>
</trkpt>
<trkpt lat="48.79533497616649" lon="9.908542949706316">
<ele>413.20000000000005</ele>
<time>2023-05-16T08:39:02Z</time>
</trkpt>
<trkpt lat="48.79533497616649" lon="9.908476984128356">
<ele>413.20000000000005</ele>
<time>2023-05-16T08:39:03Z</time>
</trkpt>
<trkpt lat="48.79533698782325" lon="9.908411940559745">
<ele>413.20000000000005</ele>
<time>2023-05-16T08:39:04Z</time>
</trkpt>
<trkpt lat="48.79533698782325" lon="9.908346980810165">
<ele>413.20000000000005</ele>
<time>2023-05-16T08:39:05Z</time>
</trkpt>
<trkpt lat="48.79533698782325" lon="9.908279925584793">
<ele>413.20000000000005</ele>
<time>2023-05-16T08:39:06Z</time>
</trkpt>
<trkpt lat="48.79533698782325" lon="9.908214965835214">
<ele>413.4</ele>
<time>2023-05-16T08:39:07Z</time>
</trkpt>
<trkpt lat="48.79533799365163" lon="9.908151933923364">
<ele>413.4</ele>
<time>2023-05-16T08:39:08Z</time>
</trkpt>
<trkpt lat="48.79533992148936" lon="9.908089991658926">
<ele>413.6</ele>
<time>2023-05-16T08:39:09Z</time>
</trkpt>
<trkpt lat="48.79534193314612" lon="9.908027965575457">
<ele>413.6</ele>
<time>2023-05-16T08:39:10Z</time>
</trkpt>
<trkpt lat="48.79534495063126" lon="9.907964933663607">
<ele>413.79999999999995</ele>
<time>2023-05-16T08:39:11Z</time>
</trkpt>
<trkpt lat="48.79534696228802" lon="9.90790793672204">
<ele>413.79999999999995</ele>
<time>2023-05-16T08:39:12Z</time>
</trkpt>
<trkpt lat="48.79534696228802" lon="9.907857980579138">
<ele>414</ele>
<time>2023-05-16T08:39:13Z</time>
</trkpt>
<trkpt lat="48.79534193314612" lon="9.907804923132062">
<ele>414</ele>
<time>2023-05-16T08:39:14Z</time>
</trkpt>
<trkpt lat="48.79533992148936" lon="9.907749937847257">
<ele>414.20000000000005</ele>
<time>2023-05-16T08:39:15Z</time>
</trkpt>
<trkpt lat="48.79533799365163" lon="9.907699981704354">
<ele>414.4</ele>
<time>2023-05-16T08:39:16Z</time>
</trkpt>
<trkpt lat="48.79533698782325" lon="9.907644996419549">
<ele>414.4</ele>
<time>2023-05-16T08:39:17Z</time>
</trkpt>
<trkpt lat="48.79533497616649" lon="9.90758498199284">
<ele>414.6</ele>
<time>2023-05-16T08:39:18Z</time>
</trkpt>
<trkpt lat="48.795331958681345" lon="9.907527985051274">
<ele>414.6</ele>
<time>2023-05-16T08:39:19Z</time>
</trkpt>
<trkpt lat="48.79532692953944" lon="9.907471993938088">
<ele>414.79999999999995</ele>
<time>2023-05-16T08:39:20Z</time>
</trkpt>
<trkpt lat="48.79532299004495" lon="9.907421953976154">
<ele>414.79999999999995</ele>
<time>2023-05-16T08:39:21Z</time>
</trkpt>
<trkpt lat="48.79532299004495" lon="9.907371997833252">
<ele>415</ele>
<time>2023-05-16T08:39:22Z</time>
</trkpt>
<trkpt lat="48.79532793536782" lon="9.907327992841601">
<ele>415</ele>
<time>2023-05-16T08:39:23Z</time>
</trkpt>
<trkpt lat="48.79533992148936" lon="9.907291950657964">
<ele>415.20000000000005</ele>
<time>2023-05-16T08:39:24Z</time>
</trkpt>
<trkpt lat="48.79535794258118" lon="9.907257920131087">
<ele>415.20000000000005</ele>
<time>2023-05-16T08:39:25Z</time>
</trkpt>
<trkpt lat="48.79538199864328" lon="9.907217938452959">
<ele>415.20000000000005</ele>
<time>2023-05-16T08:39:26Z</time>
</trkpt>
<trkpt lat="48.7954119220376" lon="9.907179968431592">
<ele>415.20000000000005</ele>
<time>2023-05-16T08:39:27Z</time>
</trkpt>
<trkpt lat="48.79544695839286" lon="9.907146943733096">
<ele>415.4</ele>
<time>2023-05-16T08:39:28Z</time>
</trkpt>
<trkpt lat="48.795484928414226" lon="9.907122971490026">
<ele>415.4</ele>
<time>2023-05-16T08:39:29Z</time>
</trkpt>
<trkpt lat="48.795521976426244" lon="9.907101932913065">
<ele>415.4</ele>
<time>2023-05-16T08:39:30Z</time>
</trkpt>
<trkpt lat="48.79556195810437" lon="9.907072931528091">
<ele>415.4</ele>
<time>2023-05-16T08:39:31Z</time>
</trkpt>
<trkpt lat="48.79559992812574" lon="9.907044935971498">
<ele>415.4</ele>
<time>2023-05-16T08:39:32Z</time>
</trkpt>
<trkpt lat="48.79563798196614" lon="9.907012917101383">
<ele>415.4</ele>
<time>2023-05-16T08:39:33Z</time>
</trkpt>
<trkpt lat="48.795677963644266" lon="9.906987939029932">
<ele>415.4</ele>
<time>2023-05-16T08:39:34Z</time>
</trkpt>
<trkpt lat="48.79572196863592" lon="9.906964972615242">
<ele>415.4</ele>
<time>2023-05-16T08:39:35Z</time>
</trkpt>
<trkpt lat="48.79576798528433" lon="9.906936977058649">
<ele>415.4</ele>
<time>2023-05-16T08:39:36Z</time>
</trkpt>
<trkpt lat="48.79581693559885" lon="9.906904958188534">
<ele>415.20000000000005</ele>
<time>2023-05-16T08:39:37Z</time>
</trkpt>
<trkpt lat="48.795867981389165" lon="9.906871933490038">
<ele>415.20000000000005</ele>
<time>2023-05-16T08:39:38Z</time>
</trkpt>
<trkpt lat="48.79592196084559" lon="9.906834969297051">
<ele>415.20000000000005</ele>
<time>2023-05-16T08:39:39Z</time>
</trkpt>
<trkpt lat="48.795976946130395" lon="9.906797921285033">
<ele>415.20000000000005</ele>
<time>2023-05-16T08:39:40Z</time>
</trkpt>
<trkpt lat="48.7960369605571" lon="9.906757939606905">
<ele>415</ele>
<time>2023-05-16T08:39:41Z</time>
</trkpt>
<trkpt lat="48.79609999246895" lon="9.906714940443635">
<ele>414.79999999999995</ele>
<time>2023-05-16T08:39:42Z</time>
</trkpt>
<trkpt lat="48.796166963875294" lon="9.906672947108746">
<ele>414.6</ele>
<time>2023-05-16T08:39:43Z</time>
</trkpt>
<trkpt lat="48.796234941110015" lon="9.906629947945476">
<ele>414.4</ele>
<time>2023-05-16T08:39:44Z</time>
</trkpt>
<trkpt lat="48.7963049300015" lon="9.906584937125444">
<ele>414.20000000000005</ele>
<time>2023-05-16T08:39:45Z</time>
</trkpt>
<trkpt lat="48.79637491889298" lon="9.906537998467684">
<ele>414</ele>
<time>2023-05-16T08:39:46Z</time>
</trkpt>
<trkpt lat="48.796444991603494" lon="9.906484941020608">
<ele>413.79999999999995</ele>
<time>2023-05-16T08:39:47Z</time>
</trkpt>
<trkpt lat="48.796514980494976" lon="9.906426938250661">
<ele>413.4</ele>
<time>2023-05-16T08:39:48Z</time>
</trkpt>
<trkpt lat="48.79658195190132" lon="9.906361978501081">
<ele>413.20000000000005</ele>
<time>2023-05-16T08:39:49Z</time>
</trkpt>
<trkpt lat="48.79664498381317" lon="9.906287966296077">
<ele>413</ele>
<time>2023-05-16T08:39:50Z</time>
</trkpt>
<trkpt lat="48.796706926077604" lon="9.90620993077755">
<ele>412.6</ele>
<time>2023-05-16T08:39:51Z</time>
</trkpt>
<trkpt lat="48.79676291719079" lon="9.90611999295652">
<ele>412.4</ele>
<time>2023-05-16T08:39:52Z</time>
</trkpt>
<trkpt lat="48.796814968809485" lon="9.906021924689412">
<ele>412.20000000000005</ele>
<time>2023-05-16T08:39:53Z</time>
</trkpt>
<trkpt lat="48.796857967972755" lon="9.905914971604943">
<ele>411.79999999999995</ele>
<time>2023-05-16T08:39:54Z</time>
</trkpt>
<trkpt lat="48.79689292050898" lon="9.905802989378572">
<ele>411.6</ele>
<time>2023-05-16T08:39:55Z</time>
</trkpt>
<trkpt lat="48.796922927722335" lon="9.905689917504787">
<ele>411.4</ele>
<time>2023-05-16T08:39:56Z</time>
</trkpt>
<trkpt lat="48.79694698378444" lon="9.905574917793274">
<ele>411</ele>
<time>2023-05-16T08:39:57Z</time>
</trkpt>
<trkpt lat="48.796962993219495" lon="9.90545991808176">
<ele>410.79999999999995</ele>
<time>2023-05-16T08:39:58Z</time>
</trkpt>
<trkpt lat="48.79697799682617" lon="9.905347935855389">
<ele>410.6</ele>
<time>2023-05-16T08:39:59Z</time>
</trkpt>
<trkpt lat="48.79699291661382" lon="9.905236959457397">
<ele>410.4</ele>
<time>2023-05-16T08:40:00Z</time>
</trkpt>
<trkpt lat="48.797004986554384" lon="9.905126988887787">
<ele>410.20000000000005</ele>
<time>2023-05-16T08:40:01Z</time>
</trkpt>
<trkpt lat="48.79701697267592" lon="9.905017940327525">
<ele>410</ele>
<time>2023-05-16T08:40:02Z</time>
</trkpt>
<trkpt lat="48.797027952969074" lon="9.904907969757915">
<ele>409.79999999999995</ele>
<time>2023-05-16T08:40:03Z</time>
</trkpt>
<trkpt lat="48.79704295657575" lon="9.904799927026033">
<ele>409.4</ele>
<time>2023-05-16T08:40:04Z</time>
</trkpt>
<trkpt lat="48.79706198349595" lon="9.904694985598326">
<ele>409.20000000000005</ele>
<time>2023-05-16T08:40:05Z</time>
</trkpt>
<trkpt lat="48.79708796739578" lon="9.90459498949349">
<ele>409</ele>
<time>2023-05-16T08:40:06Z</time>
</trkpt>
<trkpt lat="48.79712493158877" lon="9.904501950368285">
<ele>408.79999999999995</ele>
<time>2023-05-16T08:40:07Z</time>
</trkpt>
<trkpt lat="48.79716793075204" lon="9.904414946213365">
<ele>408.6</ele>
<time>2023-05-16T08:40:08Z</time>
</trkpt>
<trkpt lat="48.79721294157207" lon="9.904329953715205">
<ele>408.4</ele>
<time>2023-05-16T08:40:09Z</time>
</trkpt>
<trkpt lat="48.79725996404886" lon="9.904247978702188">
<ele>408.20000000000005</ele>
<time>2023-05-16T08:40:10Z</time>
</trkpt>
<trkpt lat="48.797307992354035" lon="9.9041679315269">
<ele>408</ele>
<time>2023-05-16T08:40:11Z</time>
</trkpt>
<trkpt lat="48.79735794849694" lon="9.904089979827404">
<ele>407.79999999999995</ele>
<time>2023-05-16T08:40:12Z</time>
</trkpt>
<trkpt lat="48.79740698263049" lon="9.904012950137258">
<ele>407.79999999999995</ele>
<time>2023-05-16T08:40:13Z</time>
</trkpt>
<trkpt lat="48.79745492711663" lon="9.903932986781001">
<ele>407.6</ele>
<time>2023-05-16T08:40:14Z</time>
</trkpt>
<trkpt lat="48.79750496707857" lon="9.903851933777332">
<ele>407.4</ele>
<time>2023-05-16T08:40:15Z</time>
</trkpt>
<trkpt lat="48.79755299538374" lon="9.903767947107553">
<ele>407.20000000000005</ele>
<time>2023-05-16T08:40:16Z</time>
</trkpt>
<trkpt lat="48.79760295152664" lon="9.903686977922916">
<ele>407</ele>
<time>2023-05-16T08:40:17Z</time>
</trkpt>
<trkpt lat="48.797652991488576" lon="9.903607936576009">
<ele>406.79999999999995</ele>
<time>2023-05-16T08:40:18Z</time>
</trkpt>
<trkpt lat="48.79770294763148" lon="9.903529984876513">
<ele>406.6</ele>
<time>2023-05-16T08:40:19Z</time>
</trkpt>
<trkpt lat="48.79775298759341" lon="9.903449937701225">
<ele>406.4</ele>
<time>2023-05-16T08:40:20Z</time>
</trkpt>
<trkpt lat="48.797801937907934" lon="9.903367962688208">
<ele>406.20000000000005</ele>
<time>2023-05-16T08:40:21Z</time>
</trkpt>
<trkpt lat="48.79784996621311" lon="9.90328498184681">
<ele>406</ele>
<time>2023-05-16T08:40:22Z</time>
</trkpt>
<trkpt lat="48.79789799451828" lon="9.90320292301476">
<ele>405.79999999999995</ele>
<time>2023-05-16T08:40:23Z</time>
</trkpt>
<trkpt lat="48.79794795066118" lon="9.903127988800406">
<ele>405.6</ele>
<time>2023-05-16T08:40:24Z</time>
</trkpt>
<trkpt lat="48.797996984794736" lon="9.903047941625118">
<ele>405.4</ele>
<time>2023-05-16T08:40:25Z</time>
</trkpt>
<trkpt lat="48.79804492928088" lon="9.902969989925623">
<ele>405.20000000000005</ele>
<time>2023-05-16T08:40:26Z</time>
</trkpt>
<trkpt lat="48.79809295758605" lon="9.902889942750335">
<ele>405</ele>
<time>2023-05-16T08:40:27Z</time>
</trkpt>
<trkpt lat="48.7981419917196" lon="9.902809979394078">
<ele>404.79999999999995</ele>
<time>2023-05-16T08:40:28Z</time>
</trkpt>
<trkpt lat="48.798189936205745" lon="9.902727920562029">
<ele>404.6</ele>
<time>2023-05-16T08:40:29Z</time>
</trkpt>
<trkpt lat="48.79823997616768" lon="9.902647957205772">
<ele>404.4</ele>
<time>2023-05-16T08:40:30Z</time>
</trkpt>
<trkpt lat="48.79828792065382" lon="9.902567993849516">
<ele>404.20000000000005</ele>
<time>2023-05-16T08:40:31Z</time>
</trkpt>
<trkpt lat="48.79833695478737" lon="9.902487946674228">
<ele>404</ele>
<time>2023-05-16T08:40:32Z</time>
</trkpt>
<trkpt lat="48.79838498309255" lon="9.902407983317971">
<ele>403.79999999999995</ele>
<time>2023-05-16T08:40:33Z</time>
</trkpt>
<trkpt lat="48.79843292757869" lon="9.902327936142683">
<ele>403.6</ele>
<time>2023-05-16T08:40:34Z</time>
</trkpt>
<trkpt lat="48.79848196171224" lon="9.902247972786427">
<ele>403.4</ele>
<time>2023-05-16T08:40:35Z</time>
</trkpt>
<trkpt lat="48.79852797836065" lon="9.9021699372679">
<ele>403.20000000000005</ele>
<time>2023-05-16T08:40:36Z</time>
</trkpt>
<trkpt lat="48.79857491701841" lon="9.902091985568404">
<ele>403.20000000000005</ele>
<time>2023-05-16T08:40:37Z</time>
</trkpt>
<trkpt lat="48.79862294532359" lon="9.902012944221497">
<ele>403</ele>
<time>2023-05-16T08:40:38Z</time>
</trkpt>
<trkpt lat="48.79867197945714" lon="9.90193298086524">
<ele>402.79999999999995</ele>
<time>2023-05-16T08:40:39Z</time>
</trkpt>
<trkpt lat="48.79871992394328" lon="9.901852933689952">
<ele>402.6</ele>
<time>2023-05-16T08:40:40Z</time>
</trkpt>
<trkpt lat="48.798767952248454" lon="9.901772970333695">
<ele>402.4</ele>
<time>2023-05-16T08:40:41Z</time>
</trkpt>
<trkpt lat="48.798812963068485" lon="9.901694934815168">
<ele>402.20000000000005</ele>
<time>2023-05-16T08:40:42Z</time>
</trkpt>
<trkpt lat="48.79885998554528" lon="9.901621928438544">
<ele>402.20000000000005</ele>
<time>2023-05-16T08:40:43Z</time>
</trkpt>
<trkpt lat="48.79890499636531" lon="9.90154498256743">
<ele>402</ele>
<time>2023-05-16T08:40:44Z</time>
</trkpt>
<trkpt lat="48.79894992336631" lon="9.901467952877283">
<ele>401.79999999999995</ele>
<time>2023-05-16T08:40:45Z</time>
</trkpt>
<trkpt lat="48.79899292252958" lon="9.901391929015517">
<ele>401.79999999999995</ele>
<time>2023-05-16T08:40:46Z</time>
</trkpt>
<trkpt lat="48.79903692752123" lon="9.901316994801164">
<ele>401.6</ele>
<time>2023-05-16T08:40:47Z</time>
</trkpt>
<trkpt lat="48.79907799884677" lon="9.901237953454256">
<ele>401.4</ele>
<time>2023-05-16T08:40:48Z</time>
</trkpt>
<trkpt lat="48.7991179805249" lon="9.90116293542087">
<ele>401.4</ele>
<time>2023-05-16T08:40:49Z</time>
</trkpt>
<trkpt lat="48.799154944717884" lon="9.901084983721375">
<ele>401.20000000000005</ele>
<time>2023-05-16T08:40:50Z</time>
</trkpt>
<trkpt lat="48.79918796941638" lon="9.901006948202848">
<ele>401.20000000000005</ele>
<time>2023-05-16T08:40:51Z</time>
</trkpt>
<trkpt lat="48.799221999943256" lon="9.900926984846592">
<ele>401</ele>
<time>2023-05-16T08:40:52Z</time>
</trkpt>
<trkpt lat="48.79925192333758" lon="9.900844926014543">
<ele>401</ele>
<time>2023-05-16T08:40:53Z</time>
</trkpt>
<trkpt lat="48.79928193055093" lon="9.900762951001525">
<ele>400.79999999999995</ele>
<time>2023-05-16T08:40:54Z</time>
</trkpt>
<trkpt lat="48.799309926107526" lon="9.900681981816888">
<ele>400.79999999999995</ele>
<time>2023-05-16T08:40:55Z</time>
</trkpt>
<trkpt lat="48.79933699965477" lon="9.900597995147109">
<ele>400.6</ele>
<time>2023-05-16T08:40:56Z</time>
</trkpt>
<trkpt lat="48.7993629835546" lon="9.900514930486679">
<ele>400.6</ele>
<time>2023-05-16T08:40:57Z</time>
</trkpt>
<trkpt lat="48.79938695579767" lon="9.90043194964528">
<ele>400.4</ele>
<time>2023-05-16T08:40:58Z</time>
</trkpt>
<trkpt lat="48.79940992221236" lon="9.900346957147121">
<ele>400.4</ele>
<time>2023-05-16T08:40:59Z</time>
</trkpt>
<trkpt lat="48.7994319666177" lon="9.900256935507059">
<ele>400.4</ele>
<time>2023-05-16T08:41:00Z</time>
</trkpt>
<trkpt lat="48.79945199936628" lon="9.900167919695377">
<ele>400.20000000000005</ele>
<time>2023-05-16T08:41:01Z</time>
</trkpt>
<trkpt lat="48.79947295412421" lon="9.900079993531108">
<ele>400.20000000000005</ele>
<time>2023-05-16T08:41:02Z</time>
</trkpt>
<trkpt lat="48.79949692636728" lon="9.899992989376187">
<ele>400.20000000000005</ele>
<time>2023-05-16T08:41:03Z</time>
</trkpt>
<trkpt lat="48.79951796494424" lon="9.899906991049647">
<ele>400</ele>
<time>2023-05-16T08:41:04Z</time>
</trkpt>
<trkpt lat="48.79953992553055" lon="9.899817975237966">
<ele>400</ele>
<time>2023-05-16T08:41:05Z</time>
</trkpt>
<trkpt lat="48.799562975764275" lon="9.899731976911426">
<ele>399.79999999999995</ele>
<time>2023-05-16T08:41:06Z</time>
</trkpt>
<trkpt lat="48.799587953835726" lon="9.899644972756505">
<ele>399.6</ele>
<time>2023-05-16T08:41:07Z</time>
</trkpt>
<trkpt lat="48.799611926078796" lon="9.899557968601584">
<ele>399.6</ele>
<time>2023-05-16T08:41:08Z</time>
</trkpt>
<trkpt lat="48.79963497631252" lon="9.899469958618283">
<ele>399.4</ele>
<time>2023-05-16T08:41:09Z</time>
</trkpt>
<trkpt lat="48.799654925242066" lon="9.899379936978221">
<ele>399.20000000000005</ele>
<time>2023-05-16T08:41:10Z</time>
</trkpt>
<trkpt lat="48.79967696964741" lon="9.89928798750043">
<ele>399</ele>
<time>2023-05-16T08:41:11Z</time>
</trkpt>
<trkpt lat="48.79970194771886" lon="9.899194948375225">
<ele>398.6</ele>
<time>2023-05-16T08:41:12Z</time>
</trkpt>
<trkpt lat="48.79972499795258" lon="9.899099981412292">
<ele>398.4</ele>
<time>2023-05-16T08:41:13Z</time>
</trkpt>
<trkpt lat="48.79974997602403" lon="9.899001996964216">
<ele>398.20000000000005</ele>
<time>2023-05-16T08:41:14Z</time>
</trkpt>
<trkpt lat="48.79977495409548" lon="9.89890493452549">
<ele>397.79999999999995</ele>
<time>2023-05-16T08:41:15Z</time>
</trkpt>
<trkpt lat="48.799801943823695" lon="9.898809967562556">
<ele>397.6</ele>
<time>2023-05-16T08:41:16Z</time>
</trkpt>
<trkpt lat="48.79983496852219" lon="9.898717934265733">
<ele>397.4</ele>
<time>2023-05-16T08:41:17Z</time>
</trkpt>
<trkpt lat="48.79987293854356" lon="9.898634953424335">
<ele>397</ele>
<time>2023-05-16T08:41:18Z</time>
</trkpt>
<trkpt lat="48.79992297850549" lon="9.898562952876091">
<ele>396.6</ele>
<time>2023-05-16T08:41:19Z</time>
</trkpt>
<trkpt lat="48.79998198710382" lon="9.898504950106144">
<ele>396.4</ele>
<time>2023-05-16T08:41:20Z</time>
</trkpt>
<trkpt lat="48.80005298182368" lon="9.898464968428016">
<ele>396</ele>
<time>2023-05-16T08:41:21Z</time>
</trkpt>
<trkpt lat="48.80012799985707" lon="9.898442924022675">
<ele>395.6</ele>
<time>2023-05-16T08:41:22Z</time>
</trkpt>
<trkpt lat="48.80020494572818" lon="9.8984329495579">
<ele>395.20000000000005</ele>
<time>2023-05-16T08:41:23Z</time>
</trkpt>
<trkpt lat="48.80028197541833" lon="9.898429932072759">
<ele>395</ele>
<time>2023-05-16T08:41:24Z</time>
</trkpt>
<trkpt lat="48.800361938774586" lon="9.898427920415998">
<ele>394.6</ele>
<time>2023-05-16T08:41:25Z</time>
</trkpt>
<trkpt lat="48.80043997429311" lon="9.898426998406649">
<ele>394.20000000000005</ele>
<time>2023-05-16T08:41:26Z</time>
</trkpt>
<trkpt lat="48.80051692016423" lon="9.898422975093126">
<ele>393.79999999999995</ele>
<time>2023-05-16T08:41:27Z</time>
</trkpt>
<trkpt lat="48.80059193819761" lon="9.898416940122843">
<ele>393.4</ele>
<time>2023-05-16T08:41:28Z</time>
</trkpt>
<trkpt lat="48.800662932917476" lon="9.898404954001307">
<ele>393</ele>
<time>2023-05-16T08:41:29Z</time>
</trkpt>
<trkpt lat="48.80073292180896" lon="9.89838995039463">
<ele>392.4</ele>
<time>2023-05-16T08:41:30Z</time>
</trkpt>
<trkpt lat="48.80080299451947" lon="9.89836991764605">
<ele>392</ele>
<time>2023-05-16T08:41:31Z</time>
</trkpt>
<trkpt lat="48.800871977582574" lon="9.898334965109825">
<ele>391.6</ele>
<time>2023-05-16T08:41:32Z</time>
</trkpt>
<trkpt lat="48.800941966474056" lon="9.898291965946555">
<ele>391.20000000000005</ele>
<time>2023-05-16T08:41:33Z</time>
</trkpt>
<trkpt lat="48.801007932052016" lon="9.898242931813002">
<ele>390.79999999999995</ele>
<time>2023-05-16T08:41:34Z</time>
</trkpt>
<trkpt lat="48.80107297562063" lon="9.898184929043055">
<ele>390.6</ele>
<time>2023-05-16T08:41:35Z</time>
</trkpt>
<trkpt lat="48.801134917885065" lon="9.898122986778617">
<ele>390.20000000000005</ele>
<time>2023-05-16T08:41:36Z</time>
</trkpt>
<trkpt lat="48.801196943968534" lon="9.898057943210006">
<ele>389.79999999999995</ele>
<time>2023-05-16T08:41:37Z</time>
</trkpt>
<trkpt lat="48.80125192925334" lon="9.897987954318523">
<ele>389.6</ele>
<time>2023-05-16T08:41:38Z</time>
</trkpt>
<trkpt lat="48.80129694007337" lon="9.897907990962267">
<ele>389.4</ele>
<time>2023-05-16T08:41:39Z</time>
</trkpt>
<trkpt lat="48.80133197642863" lon="9.897817969322205">
<ele>389.20000000000005</ele>
<time>2023-05-16T08:41:40Z</time>
</trkpt>
<trkpt lat="48.80136298947036" lon="9.897724930197">
<ele>389.20000000000005</ele>
<time>2023-05-16T08:41:41Z</time>
</trkpt>
<trkpt lat="48.80139299668372" lon="9.897631974890828">
<ele>389</ele>
<time>2023-05-16T08:41:42Z</time>
</trkpt>
<trkpt lat="48.80142292007804" lon="9.897536924108863">
<ele>389</ele>
<time>2023-05-16T08:41:43Z</time>
</trkpt>
<trkpt lat="48.80145292729139" lon="9.89744296297431">
<ele>389</ele>
<time>2023-05-16T08:41:44Z</time>
</trkpt>
<trkpt lat="48.801477989181876" lon="9.897354952991009">
<ele>388.79999999999995</ele>
<time>2023-05-16T08:41:45Z</time>
</trkpt>
<trkpt lat="48.80150196142495" lon="9.897264931350946">
<ele>388.79999999999995</ele>
<time>2023-05-16T08:41:46Z</time>
</trkpt>
<trkpt lat="48.8015269394964" lon="9.897179938852787">
<ele>388.79999999999995</ele>
<time>2023-05-16T08:41:47Z</time>
</trkpt>
<trkpt lat="48.80155292339623" lon="9.897094946354628">
<ele>388.79999999999995</ele>
<time>2023-05-16T08:41:48Z</time>
</trkpt>
<trkpt lat="48.8015819247812" lon="9.897014982998371">
<ele>388.79999999999995</ele>
<time>2023-05-16T08:41:49Z</time>
</trkpt>
<trkpt lat="48.80161293782294" lon="9.896937953308225">
<ele>389</ele>
<time>2023-05-16T08:41:50Z</time>
</trkpt>
<trkpt lat="48.80164294503629" lon="9.896861929446459">
<ele>389</ele>
<time>2023-05-16T08:41:51Z</time>
</trkpt>
<trkpt lat="48.80167496390641" lon="9.896782971918583">
<ele>389</ele>
<time>2023-05-16T08:41:52Z</time>
</trkpt>
<trkpt lat="48.80170698277652" lon="9.896704936400056">
<ele>389.20000000000005</ele>
<time>2023-05-16T08:41:53Z</time>
</trkpt>
<trkpt lat="48.80173698998988" lon="9.89662991836667">
<ele>389.20000000000005</ele>
<time>2023-05-16T08:41:54Z</time>
</trkpt>
<trkpt lat="48.80176791921258" lon="9.896556995809078">
<ele>389.20000000000005</ele>
<time>2023-05-16T08:41:55Z</time>
</trkpt>
<trkpt lat="48.80180295556784" lon="9.896484995260835">
<ele>389.20000000000005</ele>
<time>2023-05-16T08:41:56Z</time>
</trkpt>
<trkpt lat="48.80183991976082" lon="9.896416934207082">
<ele>389.4</ele>
<time>2023-05-16T08:41:57Z</time>
</trkpt>
<trkpt lat="48.80187495611608" lon="9.896351974457502">
<ele>389.4</ele>
<time>2023-05-16T08:41:58Z</time>
</trkpt>
<trkpt lat="48.80191192030907" lon="9.896286930888891">
<ele>389.4</ele>
<time>2023-05-16T08:41:59Z</time>
</trkpt>
<trkpt lat="48.801946956664324" lon="9.896221971139312">
<ele>389.4</ele>
<time>2023-05-16T08:42:00Z</time>
</trkpt>
<trkpt lat="48.80198492668569" lon="9.896159945055842">
<ele>389.6</ele>
<time>2023-05-16T08:42:01Z</time>
</trkpt>
<trkpt lat="48.80202197469771" lon="9.896097918972373">
<ele>389.6</ele>
<time>2023-05-16T08:42:02Z</time>
</trkpt>
<trkpt lat="48.802054999396205" lon="9.896034970879555">
<ele>389.79999999999995</ele>
<time>2023-05-16T08:42:03Z</time>
</trkpt>
<trkpt lat="48.80208995193243" lon="9.895972944796085">
<ele>389.79999999999995</ele>
<time>2023-05-16T08:42:04Z</time>
</trkpt>
<trkpt lat="48.802122976630926" lon="9.895912930369377">
<ele>390</ele>
<time>2023-05-16T08:42:05Z</time>
</trkpt>
<trkpt lat="48.80215499550104" lon="9.89585492759943">
<ele>390</ele>
<time>2023-05-16T08:42:06Z</time>
</trkpt>
<trkpt lat="48.802187936380506" lon="9.895796924829483">
<ele>390.20000000000005</ele>
<time>2023-05-16T08:42:07Z</time>
</trkpt>
<trkpt lat="48.80221995525062" lon="9.895739927887917">
<ele>390.20000000000005</ele>
<time>2023-05-16T08:42:08Z</time>
</trkpt>
<trkpt lat="48.802251974120736" lon="9.89568293094635">
<ele>390.4</ele>
<time>2023-05-16T08:42:09Z</time>
</trkpt>
<trkpt lat="48.80228298716247" lon="9.895626939833164">
<ele>390.4</ele>
<time>2023-05-16T08:42:10Z</time>
</trkpt>
<trkpt lat="48.802312994375825" lon="9.895569942891598">
<ele>390.4</ele>
<time>2023-05-16T08:42:11Z</time>
</trkpt>
<trkpt lat="48.80234492942691" lon="9.895512945950031">
<ele>390.6</ele>
<time>2023-05-16T08:42:12Z</time>
</trkpt>
<trkpt lat="48.80237493664026" lon="9.895464917644858">
<ele>390.6</ele>
<time>2023-05-16T08:42:13Z</time>
</trkpt>
<trkpt lat="48.80240494385362" lon="9.895412949845195">
<ele>390.6</ele>
<time>2023-05-16T08:42:14Z</time>
</trkpt>
<trkpt lat="48.80243495106697" lon="9.895361987873912">
<ele>390.79999999999995</ele>
<time>2023-05-16T08:42:15Z</time>
</trkpt>
<trkpt lat="48.802464958280325" lon="9.895309936255217">
<ele>390.79999999999995</ele>
<time>2023-05-16T08:42:16Z</time>
</trkpt>
<trkpt lat="48.80249496549368" lon="9.895259980112314">
<ele>391</ele>
<time>2023-05-16T08:42:17Z</time>
</trkpt>
<trkpt lat="48.80252497270703" lon="9.89520994015038">
<ele>391</ele>
<time>2023-05-16T08:42:18Z</time>
</trkpt>
<trkpt lat="48.802552968263626" lon="9.895161995664239">
<ele>391.20000000000005</ele>
<time>2023-05-16T08:42:19Z</time>
</trkpt>
<trkpt lat="48.80258498713374" lon="9.895119918510318">
<ele>391.20000000000005</ele>
<time>2023-05-16T08:42:20Z</time>
</trkpt>
<trkpt lat="48.80262195132673" lon="9.895086977630854">
<ele>391.4</ele>
<time>2023-05-16T08:42:21Z</time>
</trkpt>
<trkpt lat="48.802661933004856" lon="9.8950569704175">
<ele>391.4</ele>
<time>2023-05-16T08:42:22Z</time>
</trkpt>
<trkpt lat="48.802704932168126" lon="9.895029980689287">
<ele>391.4</ele>
<time>2023-05-16T08:42:23Z</time>
</trkpt>
<trkpt lat="48.802747931331396" lon="9.895009947940707">
<ele>391.6</ele>
<time>2023-05-16T08:42:24Z</time>
</trkpt>
<trkpt lat="48.802789924666286" lon="9.894996955990791">
<ele>391.6</ele>
<time>2023-05-16T08:42:25Z</time>
</trkpt>
<trkpt lat="48.802832923829556" lon="9.894992932677269">
<ele>391.79999999999995</ele>
<time>2023-05-16T08:42:26Z</time>
</trkpt>
<trkpt lat="48.80287793464959" lon="9.894996955990791">
<ele>391.79999999999995</ele>
<time>2023-05-16T08:42:27Z</time>
</trkpt>
<trkpt lat="48.80292294546962" lon="9.895006930455565">
<ele>391.79999999999995</ele>
<time>2023-05-16T08:42:28Z</time>
</trkpt>
<trkpt lat="48.80296695046127" lon="9.895022939890623">
<ele>392</ele>
<time>2023-05-16T08:42:29Z</time>
</trkpt>
<trkpt lat="48.80300994962454" lon="9.895041966810822">
<ele>392</ele>
<time>2023-05-16T08:42:30Z</time>
</trkpt>
<trkpt lat="48.80305194295943" lon="9.895064933225513">
<ele>392.20000000000005</ele>
<time>2023-05-16T08:42:31Z</time>
</trkpt>
<trkpt lat="48.803087985143065" lon="9.895096952095628">
<ele>392.20000000000005</ele>
<time>2023-05-16T08:42:32Z</time>
</trkpt>
<trkpt lat="48.80312293767929" lon="9.895132994279265">
<ele>392.4</ele>
<time>2023-05-16T08:42:33Z</time>
</trkpt>
<trkpt lat="48.80315696820617" lon="9.895174987614155">
<ele>392.4</ele>
<time>2023-05-16T08:42:34Z</time>
</trkpt>
<trkpt lat="48.8031879812479" lon="9.895214969292283">
<ele>392.4</ele>
<time>2023-05-16T08:42:35Z</time>
</trkpt>
<trkpt lat="48.803219916298985" lon="9.89525293931365">
<ele>392.6</ele>
<time>2023-05-16T08:42:36Z</time>
</trkpt>
<trkpt lat="48.8032519351691" lon="9.89529199898243">
<ele>392.6</ele>
<time>2023-05-16T08:42:37Z</time>
</trkpt>
<trkpt lat="48.8032849598676" lon="9.895329969003797">
<ele>392.79999999999995</ele>
<time>2023-05-16T08:42:38Z</time>
</trkpt>
<trkpt lat="48.80331798456609" lon="9.895371962338686">
<ele>392.79999999999995</ele>
<time>2023-05-16T08:42:39Z</time>
</trkpt>
<trkpt lat="48.80335193127394" lon="9.895412949845195">
<ele>393</ele>
<time>2023-05-16T08:42:40Z</time>
</trkpt>
<trkpt lat="48.803386967629194" lon="9.895452931523323">
<ele>393</ele>
<time>2023-05-16T08:42:41Z</time>
</trkpt>
<trkpt lat="48.80342192016542" lon="9.895494924858212">
<ele>393.20000000000005</ele>
<time>2023-05-16T08:42:42Z</time>
</trkpt>
<trkpt lat="48.803452933207154" lon="9.895536918193102">
<ele>393.20000000000005</ele>
<time>2023-05-16T08:42:43Z</time>
</trkpt>
<trkpt lat="48.80348294042051" lon="9.8955749720335">
<ele>393.4</ele>
<time>2023-05-16T08:42:44Z</time>
</trkpt>
<trkpt lat="48.803514959290624" lon="9.895614953711629">
<ele>393.4</ele>
<time>2023-05-16T08:42:45Z</time>
</trkpt>
<trkpt lat="48.80354496650398" lon="9.895654935389757">
<ele>393.6</ele>
<time>2023-05-16T08:42:46Z</time>
</trkpt>
<trkpt lat="48.80357698537409" lon="9.895692989230156">
<ele>393.6</ele>
<time>2023-05-16T08:42:47Z</time>
</trkpt>
<trkpt lat="48.80360992625356" lon="9.895729953423142">
<ele>393.6</ele>
<time>2023-05-16T08:42:48Z</time>
</trkpt>
<trkpt lat="48.80364295095205" lon="9.89576792344451">
<ele>393.79999999999995</ele>
<time>2023-05-16T08:42:49Z</time>
</trkpt>
<trkpt lat="48.80367295816541" lon="9.895809916779399">
<ele>393.79999999999995</ele>
<time>2023-05-16T08:42:50Z</time>
</trkpt>
<trkpt lat="48.80370296537876" lon="9.89585199393332">
<ele>393.79999999999995</ele>
<time>2023-05-16T08:42:51Z</time>
</trkpt>
<trkpt lat="48.80373699590564" lon="9.895882923156023">
<ele>393.79999999999995</ele>
<time>2023-05-16T08:42:52Z</time>
</trkpt>
<trkpt lat="48.803772954270244" lon="9.895902955904603">
<ele>394</ele>
<time>2023-05-16T08:42:53Z</time>
</trkpt>
<trkpt lat="48.80381293594837" lon="9.895906979218125">
<ele>394</ele>
<time>2023-05-16T08:42:54Z</time>
</trkpt>
<trkpt lat="48.80385492928326" lon="9.89589692093432">
<ele>394</ele>
<time>2023-05-16T08:42:55Z</time>
</trkpt>
<trkpt lat="48.80389499478042" lon="9.895862974226475">
<ele>394</ele>
<time>2023-05-16T08:42:56Z</time>
</trkpt>
<trkpt lat="48.80392994731665" lon="9.895819975063205">
<ele>394</ele>
<time>2023-05-16T08:42:57Z</time>
</trkpt>
<trkpt lat="48.803966995328665" lon="9.895772952586412">
<ele>394</ele>
<time>2023-05-16T08:42:58Z</time>
</trkpt>
<trkpt lat="48.80399993620813" lon="9.895732970908284">
<ele>394.20000000000005</ele>
<time>2023-05-16T08:42:59Z</time>
</trkpt>
<trkpt lat="48.804031955078244" lon="9.895691983401775">
<ele>394.20000000000005</ele>
<time>2023-05-16T08:43:00Z</time>
</trkpt>
<trkpt lat="48.8040619622916" lon="9.895651917904615">
<ele>394.4</ele>
<time>2023-05-16T08:43:01Z</time>
</trkpt>
<trkpt lat="48.80408995784819" lon="9.895606990903616">
<ele>394.6</ele>
<time>2023-05-16T08:43:02Z</time>
</trkpt>
<trkpt lat="48.80411493591964" lon="9.895557956770062">
<ele>394.79999999999995</ele>
<time>2023-05-16T08:43:03Z</time>
</trkpt>
<trkpt lat="48.80413496866822" lon="9.89550699479878">
<ele>395</ele>
<time>2023-05-16T08:43:04Z</time>
</trkpt>
<trkpt lat="48.80414695478976" lon="9.895449997857213">
<ele>395.20000000000005</ele>
<time>2023-05-16T08:43:05Z</time>
</trkpt>
<trkpt lat="48.80415198393166" lon="9.895391995087266">
<ele>395.4</ele>
<time>2023-05-16T08:43:06Z</time>
</trkpt>
<trkpt lat="48.80415692925453" lon="9.8953349981457">
<ele>395.6</ele>
<time>2023-05-16T08:43:07Z</time>
</trkpt>
<trkpt lat="48.804159946739674" lon="9.895277917385101">
<ele>395.79999999999995</ele>
<time>2023-05-16T08:43:08Z</time>
</trkpt>
<trkpt lat="48.804161958396435" lon="9.895221926271915">
<ele>396</ele>
<time>2023-05-16T08:43:09Z</time>
</trkpt>
<trkpt lat="48.804161958396435" lon="9.895162917673588">
<ele>396.20000000000005</ele>
<time>2023-05-16T08:43:10Z</time>
</trkpt>
<trkpt lat="48.80416497588158" lon="9.895104998722672">
<ele>396.20000000000005</ele>
<time>2023-05-16T08:43:11Z</time>
</trkpt>
<trkpt lat="48.80416799336672" lon="9.895042972639203">
<ele>396.4</ele>
<time>2023-05-16T08:43:12Z</time>
</trkpt>
<trkpt lat="48.80416992120445" lon="9.894979940727353">
<ele>396.6</ele>
<time>2023-05-16T08:43:13Z</time>
</trkpt>
<trkpt lat="48.80417193286121" lon="9.894917998462915">
<ele>396.6</ele>
<time>2023-05-16T08:43:14Z</time>
</trkpt>
<trkpt lat="48.80417293868959" lon="9.894852954894304">
<ele>396.6</ele>
<time>2023-05-16T08:43:15Z</time>
</trkpt>
<trkpt lat="48.80417495034635" lon="9.894789922982454">
<ele>396.79999999999995</ele>
<time>2023-05-16T08:43:16Z</time>
</trkpt>
<trkpt lat="48.80417796783149" lon="9.894722951576114">
<ele>396.79999999999995</ele>
<time>2023-05-16T08:43:17Z</time>
</trkpt>
<trkpt lat="48.80417796783149" lon="9.894654974341393">
<ele>396.79999999999995</ele>
<time>2023-05-16T08:43:18Z</time>
</trkpt>
<trkpt lat="48.804179979488254" lon="9.894586997106671">
<ele>397</ele>
<time>2023-05-16T08:43:19Z</time>
</trkpt>
<trkpt lat="48.804181991145015" lon="9.894517930224538">
<ele>397</ele>
<time>2023-05-16T08:43:20Z</time>
</trkpt>
<trkpt lat="48.804181991145015" lon="9.894451964646578">
<ele>397</ele>
<time>2023-05-16T08:43:21Z</time>
</trkpt>
<trkpt lat="48.804181991145015" lon="9.894384993240237">
<ele>397</ele>
<time>2023-05-16T08:43:22Z</time>
</trkpt>
<trkpt lat="48.804181991145015" lon="9.894316932186484">
<ele>397.20000000000005</ele>
<time>2023-05-16T08:43:23Z</time>
</trkpt>
<trkpt lat="48.804181991145015" lon="9.894247949123383">
<ele>397.20000000000005</ele>
<time>2023-05-16T08:43:24Z</time>
</trkpt>
<trkpt lat="48.804182996973395" lon="9.894179971888661">
<ele>397.20000000000005</ele>
<time>2023-05-16T08:43:25Z</time>
</trkpt>
<trkpt lat="48.804184924811125" lon="9.89411199465394">
<ele>397.20000000000005</ele>
<time>2023-05-16T08:43:26Z</time>
</trkpt>
<trkpt lat="48.804186936467886" lon="9.894044939428568">
<ele>397.20000000000005</ele>
<time>2023-05-16T08:43:27Z</time>
</trkpt>
<trkpt lat="48.80418995395303" lon="9.893977968022227">
<ele>397.20000000000005</ele>
<time>2023-05-16T08:43:28Z</time>
</trkpt>
<trkpt lat="48.80419297143817" lon="9.893911918625236">
<ele>397.4</ele>
<time>2023-05-16T08:43:29Z</time>
</trkpt>
<trkpt lat="48.80419699475169" lon="9.893842935562134">
<ele>397.4</ele>
<time>2023-05-16T08:43:30Z</time>
</trkpt>
<trkpt lat="48.80419791676104" lon="9.893772946670651">
<ele>397.4</ele>
<time>2023-05-16T08:43:31Z</time>
</trkpt>
<trkpt lat="48.8041999284178" lon="9.89370496943593">
<ele>397.4</ele>
<time>2023-05-16T08:43:32Z</time>
</trkpt>
<trkpt lat="48.80420194007456" lon="9.893636992201209">
<ele>397.4</ele>
<time>2023-05-16T08:43:33Z</time>
</trkpt>
<trkpt lat="48.80420194007456" lon="9.893567925319076">
<ele>397.6</ele>
<time>2023-05-16T08:43:34Z</time>
</trkpt>
<trkpt lat="48.804204957559705" lon="9.893497936427593">
<ele>397.6</ele>
<time>2023-05-16T08:43:35Z</time>
</trkpt>
<trkpt lat="48.804206969216466" lon="9.893429959192872">
<ele>397.6</ele>
<time>2023-05-16T08:43:36Z</time>
</trkpt>
<trkpt lat="48.804206969216466" lon="9.89335997030139">
<ele>397.6</ele>
<time>2023-05-16T08:43:37Z</time>
</trkpt>
<trkpt lat="48.80420797504485" lon="9.893292998895049">
<ele>397.79999999999995</ele>
<time>2023-05-16T08:43:38Z</time>
</trkpt>
<trkpt lat="48.80420998670161" lon="9.893224937841296">
<ele>397.79999999999995</ele>
<time>2023-05-16T08:43:39Z</time>
</trkpt>
<trkpt lat="48.80421199835837" lon="9.893154948949814">
<ele>397.79999999999995</ele>
<time>2023-05-16T08:43:40Z</time>
</trkpt>
<trkpt lat="48.80421292036772" lon="9.893087977543473">
<ele>397.79999999999995</ele>
<time>2023-05-16T08:43:41Z</time>
</trkpt>
<trkpt lat="48.80421694368124" lon="9.893021928146482">
<ele>398</ele>
<time>2023-05-16T08:43:42Z</time>
</trkpt>
<trkpt lat="48.80421794950962" lon="9.892956968396902">
<ele>398</ele>
<time>2023-05-16T08:43:43Z</time>
</trkpt>
<trkpt lat="48.80421996116638" lon="9.892889996990561">
<ele>398</ele>
<time>2023-05-16T08:43:44Z</time>
</trkpt>
<trkpt lat="48.80422197282314" lon="9.89282294176519">
<ele>398</ele>
<time>2023-05-16T08:43:45Z</time>
</trkpt>
<trkpt lat="48.804222978651524" lon="9.89275697618723">
<ele>398.20000000000005</ele>
<time>2023-05-16T08:43:46Z</time>
</trkpt>
<trkpt lat="48.804226918146014" lon="9.892687993124127">
<ele>398.20000000000005</ele>
<time>2023-05-16T08:43:47Z</time>
</trkpt>
<trkpt lat="48.804226918146014" lon="9.892619932070374">
<ele>398.20000000000005</ele>
<time>2023-05-16T08:43:48Z</time>
</trkpt>
<trkpt lat="48.804226918146014" lon="9.892549943178892">
<ele>398.20000000000005</ele>
<time>2023-05-16T08:43:49Z</time>
</trkpt>
<trkpt lat="48.804226918146014" lon="9.892482971772552">
<ele>398.20000000000005</ele>
<time>2023-05-16T08:43:50Z</time>
</trkpt>
<trkpt lat="48.804226918146014" lon="9.89241298288107">
<ele>398.20000000000005</ele>
<time>2023-05-16T08:43:51Z</time>
</trkpt>
<trkpt lat="48.804227923974395" lon="9.892344921827316">
<ele>398.20000000000005</ele>
<time>2023-05-16T08:43:52Z</time>
</trkpt>
<trkpt lat="48.80423194728792" lon="9.892276944592595">
<ele>398.20000000000005</ele>
<time>2023-05-16T08:43:53Z</time>
</trkpt>
<trkpt lat="48.80423194728792" lon="9.892207961529493">
<ele>398.20000000000005</ele>
<time>2023-05-16T08:43:54Z</time>
</trkpt>
<trkpt lat="48.8042329531163" lon="9.892141995951533">
<ele>398.4</ele>
<time>2023-05-16T08:43:55Z</time>
</trkpt>
<trkpt lat="48.80423496477306" lon="9.892076952382922">
<ele>398.4</ele>
<time>2023-05-16T08:43:56Z</time>
</trkpt>
<trkpt lat="48.80423496477306" lon="9.892011992633343">
<ele>398.4</ele>
<time>2023-05-16T08:43:57Z</time>
</trkpt>
<trkpt lat="48.8042379822582" lon="9.891946949064732">
<ele>398.4</ele>
<time>2023-05-16T08:43:58Z</time>
</trkpt>
<trkpt lat="48.80423999391496" lon="9.891884922981262">
<ele>398.6</ele>
<time>2023-05-16T08:43:59Z</time>
</trkpt>
<trkpt lat="48.80424192175269" lon="9.891821974888444">
<ele>398.6</ele>
<time>2023-05-16T08:44:00Z</time>
</trkpt>
<trkpt lat="48.80424292758107" lon="9.891759948804975">
<ele>398.6</ele>
<time>2023-05-16T08:44:01Z</time>
</trkpt>
<trkpt lat="48.80424493923783" lon="9.891694989055395">
<ele>398.79999999999995</ele>
<time>2023-05-16T08:44:02Z</time>
</trkpt>
<trkpt lat="48.804247956722975" lon="9.891629945486784">
<ele>398.79999999999995</ele>
<time>2023-05-16T08:44:03Z</time>
</trkpt>
<trkpt lat="48.804249968379736" lon="9.891566997393966">
<ele>398.79999999999995</ele>
<time>2023-05-16T08:44:04Z</time>
</trkpt>
<trkpt lat="48.80425298586488" lon="9.891501953825355">
<ele>398.79999999999995</ele>
<time>2023-05-16T08:44:05Z</time>
</trkpt>
<trkpt lat="48.80425499752164" lon="9.891436994075775">
<ele>398.79999999999995</ele>
<time>2023-05-16T08:44:06Z</time>
</trkpt>
<trkpt lat="48.80425793118775" lon="9.891372956335545">
<ele>399</ele>
<time>2023-05-16T08:44:07Z</time>
</trkpt>
<trkpt lat="48.80425994284451" lon="9.891307996585965">
<ele>399</ele>
<time>2023-05-16T08:44:08Z</time>
</trkpt>
<trkpt lat="48.80425994284451" lon="9.891242953017354">
<ele>399</ele>
<time>2023-05-16T08:44:09Z</time>
</trkpt>
<trkpt lat="48.80426296032965" lon="9.891176987439394">
<ele>399</ele>
<time>2023-05-16T08:44:10Z</time>
</trkpt>
<trkpt lat="48.80426497198641" lon="9.891109932214022">
<ele>399</ele>
<time>2023-05-16T08:44:11Z</time>
</trkpt>
<trkpt lat="48.804267989471555" lon="9.891046984121203">
<ele>399</ele>
<time>2023-05-16T08:44:12Z</time>
</trkpt>
<trkpt lat="48.804271928966045" lon="9.890981940552592">
<ele>399</ele>
<time>2023-05-16T08:44:13Z</time>
</trkpt>
<trkpt lat="48.804272934794426" lon="9.89091295748949">
<ele>399.20000000000005</ele>
<time>2023-05-16T08:44:14Z</time>
</trkpt>
<trkpt lat="48.804272934794426" lon="9.89084992557764">
<ele>399.20000000000005</ele>
<time>2023-05-16T08:44:15Z</time>
</trkpt>
<trkpt lat="48.80427695810795" lon="9.890784965828061">
<ele>399.20000000000005</ele>
<time>2023-05-16T08:44:16Z</time>
</trkpt>
<trkpt lat="48.80427796393633" lon="9.89071698859334">
<ele>399.20000000000005</ele>
<time>2023-05-16T08:44:17Z</time>
</trkpt>
<trkpt lat="48.80428198724985" lon="9.890649933367968">
<ele>399.20000000000005</ele>
<time>2023-05-16T08:44:18Z</time>
</trkpt>
<trkpt lat="48.80428198724985" lon="9.890581956133246">
<ele>399.20000000000005</ele>
<time>2023-05-16T08:44:19Z</time>
</trkpt>
<trkpt lat="48.80428299307823" lon="9.890512973070145">
<ele>399.20000000000005</ele>
<time>2023-05-16T08:44:20Z</time>
</trkpt>
<trkpt lat="48.80428492091596" lon="9.890447929501534">
<ele>399.20000000000005</ele>
<time>2023-05-16T08:44:21Z</time>
</trkpt>
<trkpt lat="48.80428693257272" lon="9.890382969751954">
<ele>399.20000000000005</ele>
<time>2023-05-16T08:44:22Z</time>
</trkpt>
<trkpt lat="48.80428693257272" lon="9.890316920354962">
<ele>399.20000000000005</ele>
<time>2023-05-16T08:44:23Z</time>
</trkpt>
<trkpt lat="48.8042879384011" lon="9.89024793729186">
<ele>399.20000000000005</ele>
<time>2023-05-16T08:44:24Z</time>
</trkpt>
<trkpt lat="48.8042879384011" lon="9.8901819717139">
<ele>399.20000000000005</ele>
<time>2023-05-16T08:44:25Z</time>
</trkpt>
<trkpt lat="48.804291961714625" lon="9.890114916488528">
<ele>399.20000000000005</ele>
<time>2023-05-16T08:44:26Z</time>
</trkpt>
<trkpt lat="48.804292967543006" lon="9.890049956738949">
<ele>399.4</ele>
<time>2023-05-16T08:44:27Z</time>
</trkpt>
<trkpt lat="48.80429699085653" lon="9.88998499698937">
<ele>399.4</ele>
<time>2023-05-16T08:44:28Z</time>
</trkpt>
<trkpt lat="48.80429699085653" lon="9.889919953420758">
<ele>399.4</ele>
<time>2023-05-16T08:44:29Z</time>
</trkpt>
<trkpt lat="48.80429699085653" lon="9.889854993671179">
<ele>399.4</ele>
<time>2023-05-16T08:44:30Z</time>
</trkpt>
<trkpt lat="48.80429992452264" lon="9.889787938445807">
<ele>399.4</ele>
<time>2023-05-16T08:44:31Z</time>
</trkpt>
<trkpt lat="48.8043019361794" lon="9.889719961211085">
<ele>399.4</ele>
<time>2023-05-16T08:44:32Z</time>
</trkpt>
<trkpt lat="48.80430294200778" lon="9.889652989804745">
<ele>399.4</ele>
<time>2023-05-16T08:44:33Z</time>
</trkpt>
<trkpt lat="48.80430495366454" lon="9.889584928750992">
<ele>399.6</ele>
<time>2023-05-16T08:44:34Z</time>
</trkpt>
<trkpt lat="48.80430797114968" lon="9.889517957344651">
<ele>399.6</ele>
<time>2023-05-16T08:44:35Z</time>
</trkpt>
<trkpt lat="48.804309982806444" lon="9.88944998010993">
<ele>399.6</ele>
<time>2023-05-16T08:44:36Z</time>
</trkpt>
<trkpt lat="48.804311994463205" lon="9.889381919056177">
<ele>399.4</ele>
<time>2023-05-16T08:44:37Z</time>
</trkpt>
<trkpt lat="48.804312916472554" lon="9.889311930164695">
<ele>399.4</ele>
<time>2023-05-16T08:44:38Z</time>
</trkpt>
<trkpt lat="48.804314928129315" lon="9.889239929616451">
<ele>399.4</ele>
<time>2023-05-16T08:44:39Z</time>
</trkpt>
<trkpt lat="48.80431794561446" lon="9.889166923239827">
<ele>399.4</ele>
<time>2023-05-16T08:44:40Z</time>
</trkpt>
<trkpt lat="48.80432297475636" lon="9.889092994853854">
<ele>399.4</ele>
<time>2023-05-16T08:44:41Z</time>
</trkpt>
<trkpt lat="48.80432498641312" lon="9.88902292214334">
<ele>399.4</ele>
<time>2023-05-16T08:44:42Z</time>
</trkpt>
<trkpt lat="48.80432792007923" lon="9.888949999585748">
<ele>399.4</ele>
<time>2023-05-16T08:44:43Z</time>
</trkpt>
<trkpt lat="48.80432993173599" lon="9.888877999037504">
<ele>399.4</ele>
<time>2023-05-16T08:44:44Z</time>
</trkpt>
<trkpt lat="48.80432993173599" lon="9.88880792632699">
<ele>399.4</ele>
<time>2023-05-16T08:44:45Z</time>
</trkpt>
<trkpt lat="48.80432993173599" lon="9.888736931607127">
<ele>399.4</ele>
<time>2023-05-16T08:44:46Z</time>
</trkpt>
<trkpt lat="48.80432993173599" lon="9.888667948544025">
<ele>399.4</ele>
<time>2023-05-16T08:44:47Z</time>
</trkpt>
<trkpt lat="48.804331943392754" lon="9.888602988794446">
<ele>399.4</ele>
<time>2023-05-16T08:44:48Z</time>
</trkpt>
<trkpt lat="48.804332949221134" lon="9.888539956882596">
<ele>399.4</ele>
<time>2023-05-16T08:44:49Z</time>
</trkpt>
<trkpt lat="48.804334960877895" lon="9.888476924970746">
<ele>399.4</ele>
<time>2023-05-16T08:44:50Z</time>
</trkpt>
<trkpt lat="48.80433697253466" lon="9.888409953564405">
<ele>399.4</ele>
<time>2023-05-16T08:44:51Z</time>
</trkpt>
<trkpt lat="48.8043399900198" lon="9.888341976329684">
<ele>399.4</ele>
<time>2023-05-16T08:44:52Z</time>
</trkpt>
<trkpt lat="48.80434292368591" lon="9.888277938589454">
<ele>399.4</ele>
<time>2023-05-16T08:44:53Z</time>
</trkpt>
<trkpt lat="48.80434493534267" lon="9.888214990496635">
<ele>399.4</ele>
<time>2023-05-16T08:44:54Z</time>
</trkpt>
<trkpt lat="48.80434694699943" lon="9.888147935271263">
<ele>399.4</ele>
<time>2023-05-16T08:44:55Z</time>
</trkpt>
<trkpt lat="48.80434795282781" lon="9.888081969693303">
<ele>399.4</ele>
<time>2023-05-16T08:44:56Z</time>
</trkpt>
<trkpt lat="48.80434996448457" lon="9.888014998286963">
<ele>399.4</ele>
<time>2023-05-16T08:44:57Z</time>
</trkpt>
<trkpt lat="48.804351976141334" lon="9.887942997738719">
<ele>399.4</ele>
<time>2023-05-16T08:44:58Z</time>
</trkpt>
<trkpt lat="48.804352981969714" lon="9.887869991362095">
<ele>399.4</ele>
<time>2023-05-16T08:44:59Z</time>
</trkpt>
<trkpt lat="48.804356921464205" lon="9.88779497332871">
<ele>399.4</ele>
<time>2023-05-16T08:45:00Z</time>
</trkpt>
<trkpt lat="48.804357927292585" lon="9.887721966952085">
<ele>399.4</ele>
<time>2023-05-16T08:45:01Z</time>
</trkpt>
<trkpt lat="48.80436195060611" lon="9.887649966403842">
<ele>399.4</ele>
<time>2023-05-16T08:45:02Z</time>
</trkpt>
<trkpt lat="48.80436496809125" lon="9.887576960027218">
<ele>399.20000000000005</ele>
<time>2023-05-16T08:45:03Z</time>
</trkpt>
<trkpt lat="48.80436697974801" lon="9.887499930337071">
<ele>399.20000000000005</ele>
<time>2023-05-16T08:45:04Z</time>
</trkpt>
<trkpt lat="48.80436798557639" lon="9.887422984465957">
<ele>399.20000000000005</ele>
<time>2023-05-16T08:45:05Z</time>
</trkpt>
<trkpt lat="48.80436999723315" lon="9.88734696060419">
<ele>399.20000000000005</ele>
<time>2023-05-16T08:45:06Z</time>
</trkpt>
<trkpt lat="48.80437192507088" lon="9.887272948399186">
<ele>399</ele>
<time>2023-05-16T08:45:07Z</time>
</trkpt>
<trkpt lat="48.804374942556024" lon="9.8871979303658">
<ele>399</ele>
<time>2023-05-16T08:45:08Z</time>
</trkpt>
<trkpt lat="48.804376954212785" lon="9.887121990323067">
<ele>398.79999999999995</ele>
<time>2023-05-16T08:45:09Z</time>
</trkpt>
<trkpt lat="48.804376954212785" lon="9.887046972289681">
<ele>398.6</ele>
<time>2023-05-16T08:45:10Z</time>
</trkpt>
<trkpt lat="48.804377960041165" lon="9.886971954256296">
<ele>398.6</ele>
<time>2023-05-16T08:45:11Z</time>
</trkpt>
<trkpt lat="48.80438198335469" lon="9.88689492456615">
<ele>398.4</ele>
<time>2023-05-16T08:45:12Z</time>
</trkpt>
<trkpt lat="48.80438692867756" lon="9.886817978695035">
<ele>398.20000000000005</ele>
<time>2023-05-16T08:45:13Z</time>
</trkpt>
<trkpt lat="48.8043899461627" lon="9.886736925691366">
<ele>398.20000000000005</ele>
<time>2023-05-16T08:45:14Z</time>
</trkpt>
<trkpt lat="48.80439195781946" lon="9.88665796816349">
<ele>398</ele>
<time>2023-05-16T08:45:15Z</time>
</trkpt>
<trkpt lat="48.80439195781946" lon="9.886582950130105">
<ele>397.79999999999995</ele>
<time>2023-05-16T08:45:16Z</time>
</trkpt>
<trkpt lat="48.804394975304604" lon="9.886509943753481">
<ele>397.79999999999995</ele>
<time>2023-05-16T08:45:17Z</time>
</trkpt>
<trkpt lat="48.804396986961365" lon="9.886436937376857">
<ele>397.6</ele>
<time>2023-05-16T08:45:18Z</time>
</trkpt>
<trkpt lat="48.804397992789745" lon="9.886364936828613">
<ele>397.6</ele>
<time>2023-05-16T08:45:19Z</time>
</trkpt>
<trkpt lat="48.804397992789745" lon="9.88629293628037">
<ele>397.4</ele>
<time>2023-05-16T08:45:20Z</time>
</trkpt>
<trkpt lat="48.804396986961365" lon="9.886222947388887">
<ele>397.4</ele>
<time>2023-05-16T08:45:21Z</time>
</trkpt>
<trkpt lat="48.804394975304604" lon="9.886152958497405">
<ele>397.4</ele>
<time>2023-05-16T08:45:22Z</time>
</trkpt>
<trkpt lat="48.80438793450594" lon="9.886084981262684">
<ele>397.4</ele>
<time>2023-05-16T08:45:23Z</time>
</trkpt>
<trkpt lat="48.80437997169793" lon="9.886016920208931">
<ele>397.20000000000005</ele>
<time>2023-05-16T08:45:24Z</time>
</trkpt>
<trkpt lat="48.80437293089926" lon="9.885951960459352">
<ele>397.20000000000005</ele>
<time>2023-05-16T08:45:25Z</time>
</trkpt>
<trkpt lat="48.80436697974801" lon="9.88588691689074">
<ele>397.20000000000005</ele>
<time>2023-05-16T08:45:26Z</time>
</trkpt>
<trkpt lat="48.80436195060611" lon="9.885822962969542">
<ele>397.20000000000005</ele>
<time>2023-05-16T08:45:27Z</time>
</trkpt>
<trkpt lat="48.804354993626475" lon="9.885759931057692">
<ele>397.20000000000005</ele>
<time>2023-05-16T08:45:28Z</time>
</trkpt>
<trkpt lat="48.80434694699943" lon="9.885692959651351">
<ele>397</ele>
<time>2023-05-16T08:45:29Z</time>
</trkpt>
<trkpt lat="48.80433697253466" lon="9.88562498241663">
<ele>397</ele>
<time>2023-05-16T08:45:30Z</time>
</trkpt>
<trkpt lat="48.80432699806988" lon="9.885551976040006">
<ele>397</ele>
<time>2023-05-16T08:45:31Z</time>
</trkpt>
<trkpt lat="48.80431794561446" lon="9.885477963835001">
<ele>396.79999999999995</ele>
<time>2023-05-16T08:45:32Z</time>
</trkpt>
<trkpt lat="48.804311994463205" lon="9.885397916659713">
<ele>396.79999999999995</ele>
<time>2023-05-16T08:45:33Z</time>
</trkpt>
<trkpt lat="48.804312916472554" lon="9.885316947475076">
<ele>396.6</ele>
<time>2023-05-16T08:45:34Z</time>
</trkpt>
<trkpt lat="48.80431995727122" lon="9.885231954976916">
<ele>396.4</ele>
<time>2023-05-16T08:45:35Z</time>
</trkpt>
<trkpt lat="48.80433697253466" lon="9.885149979963899">
<ele>396.20000000000005</ele>
<time>2023-05-16T08:45:36Z</time>
</trkpt>
<trkpt lat="48.804357927292585" lon="9.885072950273752">
<ele>396</ele>
<time>2023-05-16T08:45:37Z</time>
</trkpt>
<trkpt lat="48.80438692867756" lon="9.88500195555389">
<ele>395.79999999999995</ele>
<time>2023-05-16T08:45:38Z</time>
</trkpt>
<trkpt lat="48.804421965032816" lon="9.884941941127181">
<ele>395.6</ele>
<time>2023-05-16T08:45:39Z</time>
</trkpt>
<trkpt lat="48.80445792339742" lon="9.88489299081266">
<ele>395.4</ele>
<time>2023-05-16T08:45:40Z</time>
</trkpt>
<trkpt lat="48.8044919539243" lon="9.884856948629022">
<ele>395.20000000000005</ele>
<time>2023-05-16T08:45:41Z</time>
</trkpt>
<trkpt lat="48.80453193560243" lon="9.884816966950893">
<ele>394.79999999999995</ele>
<time>2023-05-16T08:45:42Z</time>
</trkpt>
<trkpt lat="48.80457694642246" lon="9.884781930595636">
<ele>394.4</ele>
<time>2023-05-16T08:45:43Z</time>
</trkpt>
<trkpt lat="48.80461793392897" lon="9.884749995544553">
<ele>394.20000000000005</ele>
<time>2023-05-16T08:45:44Z</time>
</trkpt>
<trkpt lat="48.80465196445584" lon="9.88472199998796">
<ele>393.79999999999995</ele>
<time>2023-05-16T08:45:45Z</time>
</trkpt>
<trkpt lat="48.80468297749758" lon="9.884696938097477">
<ele>393.4</ele>
<time>2023-05-16T08:45:46Z</time>
</trkpt>
<trkpt lat="48.80471692420542" lon="9.884667936712503">
<ele>393.20000000000005</ele>
<time>2023-05-16T08:45:47Z</time>
</trkpt>
<trkpt lat="48.80474994890392" lon="9.884642958641052">
<ele>392.79999999999995</ele>
<time>2023-05-16T08:45:48Z</time>
</trkpt>
<trkpt lat="48.80477794446051" lon="9.88461496308446">
<ele>392.4</ele>
<time>2023-05-16T08:45:49Z</time>
</trkpt>
<trkpt lat="48.804807951673865" lon="9.884577998891473">
<ele>392.20000000000005</ele>
<time>2023-05-16T08:45:50Z</time>
</trkpt>
<trkpt lat="48.804831923916936" lon="9.884542962536216">
<ele>391.79999999999995</ele>
<time>2023-05-16T08:45:51Z</time>
</trkpt>
<trkpt lat="48.80486193113029" lon="9.884502980858088">
<ele>391.4</ele>
<time>2023-05-16T08:45:52Z</time>
</trkpt>
<trkpt lat="48.80489998497069" lon="9.884456964209676">
<ele>391.20000000000005</ele>
<time>2023-05-16T08:45:53Z</time>
</trkpt>
<trkpt lat="48.80494298413396" lon="9.884407930076122">
<ele>390.79999999999995</ele>
<time>2023-05-16T08:45:54Z</time>
</trkpt>
<trkpt lat="48.804999981075525" lon="9.88435696810484">
<ele>390.4</ele>
<time>2023-05-16T08:45:55Z</time>
</trkpt>
<trkpt lat="48.80506292916834" lon="9.884304916486144">
<ele>390</ele>
<time>2023-05-16T08:45:56Z</time>
</trkpt>
<trkpt lat="48.805127972736955" lon="9.884242974221706">
<ele>389.6</ele>
<time>2023-05-16T08:45:57Z</time>
</trkpt>
<trkpt lat="48.805194944143295" lon="9.88418698310852">
<ele>389.20000000000005</ele>
<time>2023-05-16T08:45:58Z</time>
</trkpt>
<trkpt lat="48.80526996217668" lon="9.884129986166954">
<ele>388.79999999999995</ele>
<time>2023-05-16T08:45:59Z</time>
</trkpt>
<trkpt lat="48.80534799769521" lon="9.884072989225388">
<ele>388.4</ele>
<time>2023-05-16T08:46:00Z</time>
</trkpt>
<trkpt lat="48.80542293190956" lon="9.88401498645544">
<ele>388</ele>
<time>2023-05-16T08:46:01Z</time>
</trkpt>
<trkpt lat="48.80550197325647" lon="9.883959917351604">
<ele>387.6</ele>
<time>2023-05-16T08:46:02Z</time>
</trkpt>
<trkpt lat="48.80558696575463" lon="9.883914990350604">
<ele>387.20000000000005</ele>
<time>2023-05-16T08:46:03Z</time>
</trkpt>
<trkpt lat="48.805666929110885" lon="9.883862938731909">
<ele>386.79999999999995</ele>
<time>2023-05-16T08:46:04Z</time>
</trkpt>
<trkpt lat="48.80574496462941" lon="9.883811976760626">
<ele>386.4</ele>
<time>2023-05-16T08:46:05Z</time>
</trkpt>
<trkpt lat="48.80582199431956" lon="9.883764954283834">
<ele>386.20000000000005</ele>
<time>2023-05-16T08:46:06Z</time>
</trkpt>
<trkpt lat="48.80589198321104" lon="9.883717931807041">
<ele>385.79999999999995</ele>
<time>2023-05-16T08:46:07Z</time>
</trkpt>
<trkpt lat="48.8059629779309" lon="9.88367292098701">
<ele>385.6</ele>
<time>2023-05-16T08:46:08Z</time>
</trkpt>
<trkpt lat="48.806029949337244" lon="9.88362799398601">
<ele>385.20000000000005</ele>
<time>2023-05-16T08:46:09Z</time>
</trkpt>
<trkpt lat="48.806096920743585" lon="9.88358298316598">
<ele>385</ele>
<time>2023-05-16T08:46:10Z</time>
</trkpt>
<trkpt lat="48.806159952655435" lon="9.883537972345948">
<ele>384.79999999999995</ele>
<time>2023-05-16T08:46:11Z</time>
</trkpt>
<trkpt lat="48.806224996224046" lon="9.883494973182678">
<ele>384.4</ele>
<time>2023-05-16T08:46:12Z</time>
</trkpt>
<trkpt lat="48.806289955973625" lon="9.883447950705886">
<ele>384.20000000000005</ele>
<time>2023-05-16T08:46:13Z</time>
</trkpt>
<trkpt lat="48.806352987885475" lon="9.883404951542616">
<ele>384</ele>
<time>2023-05-16T08:46:14Z</time>
</trkpt>
<trkpt lat="48.806416941806674" lon="9.883361952379346">
<ele>383.6</ele>
<time>2023-05-16T08:46:15Z</time>
</trkpt>
<trkpt lat="48.80647796206176" lon="9.883317947387695">
<ele>383.4</ele>
<time>2023-05-16T08:46:16Z</time>
</trkpt>
<trkpt lat="48.80654199980199" lon="9.883274948224425">
<ele>383.20000000000005</ele>
<time>2023-05-16T08:46:17Z</time>
</trkpt>
<trkpt lat="48.80660293623805" lon="9.883231949061155">
<ele>383</ele>
<time>2023-05-16T08:46:18Z</time>
</trkpt>
<trkpt lat="48.80666194483638" lon="9.883186938241124">
<ele>382.6</ele>
<time>2023-05-16T08:46:19Z</time>
</trkpt>
<trkpt lat="48.806719947606325" lon="9.883139999583364">
<ele>382.4</ele>
<time>2023-05-16T08:46:20Z</time>
</trkpt>
<trkpt lat="48.80677493289113" lon="9.883097922429442">
<ele>382.20000000000005</ele>
<time>2023-05-16T08:46:21Z</time>
</trkpt>
<trkpt lat="48.806826984509826" lon="9.883059952408075">
<ele>382</ele>
<time>2023-05-16T08:46:22Z</time>
</trkpt>
<trkpt lat="48.80687995813787" lon="9.883022988215089">
<ele>381.6</ele>
<time>2023-05-16T08:46:23Z</time>
</trkpt>
<trkpt lat="48.80693192593753" lon="9.882987951859832">
<ele>381.4</ele>
<time>2023-05-16T08:46:24Z</time>
</trkpt>
<trkpt lat="48.80698196589947" lon="9.882952999323606">
<ele>381.20000000000005</ele>
<time>2023-05-16T08:46:25Z</time>
</trkpt>
<trkpt lat="48.80703292787075" lon="9.882916957139969">
<ele>381</ele>
<time>2023-05-16T08:46:26Z</time>
</trkpt>
<trkpt lat="48.807084979489446" lon="9.88287697546184">
<ele>380.79999999999995</ele>
<time>2023-05-16T08:46:27Z</time>
</trkpt>
<trkpt lat="48.80713996477425" lon="9.88283297047019">
<ele>380.4</ele>
<time>2023-05-16T08:46:28Z</time>
</trkpt>
<trkpt lat="48.80719696171582" lon="9.882787959650159">
<ele>380.20000000000005</ele>
<time>2023-05-16T08:46:29Z</time>
</trkpt>
<trkpt lat="48.807252952829" lon="9.882744960486889">
<ele>380.20000000000005</ele>
<time>2023-05-16T08:46:30Z</time>
</trkpt>
<trkpt lat="48.80730994977057" lon="9.882702967152">
<ele>380</ele>
<time>2023-05-16T08:46:31Z</time>
</trkpt>
<trkpt lat="48.807366946712136" lon="9.882662985473871">
<ele>379.79999999999995</ele>
<time>2023-05-16T08:46:32Z</time>
</trkpt>
<trkpt lat="48.80742494948208" lon="9.882622919976711">
<ele>379.6</ele>
<time>2023-05-16T08:46:33Z</time>
</trkpt>
<trkpt lat="48.80748295225203" lon="9.882584949955344">
<ele>379.4</ele>
<time>2023-05-16T08:46:34Z</time>
</trkpt>
<trkpt lat="48.80754196085036" lon="9.882542956620455">
<ele>379.20000000000005</ele>
<time>2023-05-16T08:46:35Z</time>
</trkpt>
<trkpt lat="48.807601975277066" lon="9.882499957457185">
<ele>379</ele>
<time>2023-05-16T08:46:36Z</time>
</trkpt>
<trkpt lat="48.807661989703774" lon="9.882452934980392">
<ele>378.79999999999995</ele>
<time>2023-05-16T08:46:37Z</time>
</trkpt>
<trkpt lat="48.80772292613983" lon="9.88240297883749">
<ele>378.6</ele>
<time>2023-05-16T08:46:38Z</time>
</trkpt>
<trkpt lat="48.80778696388006" lon="9.882351933047175">
<ele>378.4</ele>
<time>2023-05-16T08:46:39Z</time>
</trkpt>
<trkpt lat="48.80785292945802" lon="9.88229694776237">
<ele>378.20000000000005</ele>
<time>2023-05-16T08:46:40Z</time>
</trkpt>
<trkpt lat="48.807921996340156" lon="9.882239950820804">
<ele>377.79999999999995</ele>
<time>2023-05-16T08:46:41Z</time>
</trkpt>
<trkpt lat="48.80799299106002" lon="9.882182953879237">
<ele>377.6</ele>
<time>2023-05-16T08:46:42Z</time>
</trkpt>
<trkpt lat="48.80806792527437" lon="9.88212495110929">
<ele>377.20000000000005</ele>
<time>2023-05-16T08:46:43Z</time>
</trkpt>
<trkpt lat="48.80814193747938" lon="9.882067954167724">
<ele>376.79999999999995</ele>
<time>2023-05-16T08:46:44Z</time>
</trkpt>
<trkpt lat="48.80821293219924" lon="9.88201498053968">
<ele>376.4</ele>
<time>2023-05-16T08:46:45Z</time>
</trkpt>
<trkpt lat="48.80827998742461" lon="9.881962928920984">
<ele>376.20000000000005</ele>
<time>2023-05-16T08:46:46Z</time>
</trkpt>
<trkpt lat="48.80834695883095" lon="9.881912972778082">
<ele>375.79999999999995</ele>
<time>2023-05-16T08:46:47Z</time>
</trkpt>
<trkpt lat="48.808414936065674" lon="9.881861926987767">
<ele>375.4</ele>
<time>2023-05-16T08:46:48Z</time>
</trkpt>
<trkpt lat="48.808484924957156" lon="9.881807947531343">
<ele>375</ele>
<time>2023-05-16T08:46:49Z</time>
</trkpt>
<trkpt lat="48.8085569255054" lon="9.881751956418157">
<ele>374.6</ele>
<time>2023-05-16T08:46:50Z</time>
</trkpt>
<trkpt lat="48.80862792022526" lon="9.88169495947659">
<ele>374.4</ele>
<time>2023-05-16T08:46:51Z</time>
</trkpt>
<trkpt lat="48.80870193243027" lon="9.881637962535024">
<ele>374</ele>
<time>2023-05-16T08:46:52Z</time>
</trkpt>
<trkpt lat="48.80877493880689" lon="9.881579959765077">
<ele>373.6</ele>
<time>2023-05-16T08:46:53Z</time>
</trkpt>
<trkpt lat="48.80884995684028" lon="9.88152296282351">
<ele>373.20000000000005</ele>
<time>2023-05-16T08:46:54Z</time>
</trkpt>
<trkpt lat="48.80892195738852" lon="9.881469989195466">
<ele>372.79999999999995</ele>
<time>2023-05-16T08:46:55Z</time>
</trkpt>
<trkpt lat="48.80898993462324" lon="9.881421960890293">
<ele>372.4</ele>
<time>2023-05-16T08:46:56Z</time>
</trkpt>
<trkpt lat="48.80905296653509" lon="9.881376950070262">
<ele>372</ele>
<time>2023-05-16T08:46:57Z</time>
</trkpt>
<trkpt lat="48.80911197513342" lon="9.881332945078611">
<ele>371.6</ele>
<time>2023-05-16T08:46:58Z</time>
</trkpt>
<trkpt lat="48.809167966246605" lon="9.881289945915341">
<ele>371.20000000000005</ele>
<time>2023-05-16T08:46:59Z</time>
</trkpt>
<trkpt lat="48.80922496318817" lon="9.881241917610168">
<ele>371</ele>
<time>2023-05-16T08:47:00Z</time>
</trkpt>
<trkpt lat="48.80928196012974" lon="9.881192967295647">
<ele>370.6</ele>
<time>2023-05-16T08:47:01Z</time>
</trkpt>
<trkpt lat="48.809337951242924" lon="9.881144938990474">
<ele>370.20000000000005</ele>
<time>2023-05-16T08:47:02Z</time>
</trkpt>
<trkpt lat="48.80939293652773" lon="9.88109196536243">
<ele>370</ele>
<time>2023-05-16T08:47:03Z</time>
</trkpt>
<trkpt lat="48.809447921812534" lon="9.88102993927896">
<ele>369.6</ele>
<time>2023-05-16T08:47:04Z</time>
</trkpt>
<trkpt lat="48.80950198508799" lon="9.880961962044239">
<ele>369.20000000000005</ele>
<time>2023-05-16T08:47:05Z</time>
</trkpt>
<trkpt lat="48.809552947059274" lon="9.880884932354093">
<ele>369</ele>
<time>2023-05-16T08:47:06Z</time>
</trkpt>
<trkpt lat="48.80960298702121" lon="9.880801951512694">
<ele>368.6</ele>
<time>2023-05-16T08:47:07Z</time>
</trkpt>
<trkpt lat="48.80964992567897" lon="9.880712935701013">
<ele>368.20000000000005</ele>
<time>2023-05-16T08:47:08Z</time>
</trkpt>
<trkpt lat="48.80969292484224" lon="9.88061998039484">
<ele>368</ele>
<time>2023-05-16T08:47:09Z</time>
</trkpt>
<trkpt lat="48.8097329903394" lon="9.880527947098017">
<ele>367.6</ele>
<time>2023-05-16T08:47:10Z</time>
</trkpt>
<trkpt lat="48.809771966189146" lon="9.880436919629574">
<ele>367.20000000000005</ele>
<time>2023-05-16T08:47:11Z</time>
</trkpt>
<trkpt lat="48.80980993621051" lon="9.880347987636924">
<ele>366.79999999999995</ele>
<time>2023-05-16T08:47:12Z</time>
</trkpt>
<trkpt lat="48.80984799005091" lon="9.880262995138764">
<ele>366.4</ele>
<time>2023-05-16T08:47:13Z</time>
</trkpt>
<trkpt lat="48.80989199504256" lon="9.880184959620237">
<ele>366.20000000000005</ele>
<time>2023-05-16T08:47:14Z</time>
</trkpt>
<trkpt lat="48.809941951185465" lon="9.880112959071994">
<ele>365.79999999999995</ele>
<time>2023-05-16T08:47:15Z</time>
</trkpt>
<trkpt lat="48.80999995395541" lon="9.880054956302047">
<ele>365.4</ele>
<time>2023-05-16T08:47:16Z</time>
</trkpt>
<trkpt lat="48.81005996838212" lon="9.880004916340113">
<ele>365</ele>
<time>2023-05-16T08:47:17Z</time>
</trkpt>
<trkpt lat="48.81012291647494" lon="9.879959989339113">
<ele>364.6</ele>
<time>2023-05-16T08:47:18Z</time>
</trkpt>
<trkpt lat="48.81018796004355" lon="9.879919923841953">
<ele>364</ele>
<time>2023-05-16T08:47:19Z</time>
</trkpt>
<trkpt lat="48.81025794893503" lon="9.879881953820586">
<ele>363.6</ele>
<time>2023-05-16T08:47:20Z</time>
</trkpt>
<trkpt lat="48.810326931998134" lon="9.879841972142458">
<ele>363.20000000000005</ele>
<time>2023-05-16T08:47:21Z</time>
</trkpt>
<trkpt lat="48.810392981395125" lon="9.87980199046433">
<ele>362.79999999999995</ele>
<time>2023-05-16T08:47:22Z</time>
</trkpt>
<trkpt lat="48.810456935316324" lon="9.87975999712944">
<ele>362.4</ele>
<time>2023-05-16T08:47:23Z</time>
</trkpt>
<trkpt lat="48.810521978884935" lon="9.87971993163228">
<ele>361.79999999999995</ele>
<time>2023-05-16T08:47:24Z</time>
</trkpt>
<trkpt lat="48.810586938634515" lon="9.87967693246901">
<ele>361.4</ele>
<time>2023-05-16T08:47:25Z</time>
</trkpt>
<trkpt lat="48.81064494140446" lon="9.879624964669347">
<ele>361</ele>
<time>2023-05-16T08:47:26Z</time>
</trkpt>
<trkpt lat="48.81070294417441" lon="9.879569979384542">
<ele>360.6</ele>
<time>2023-05-16T08:47:27Z</time>
</trkpt>
<trkpt lat="48.81076195277274" lon="9.879511976614594">
<ele>360.20000000000005</ele>
<time>2023-05-16T08:47:28Z</time>
</trkpt>
<trkpt lat="48.810821967199445" lon="9.879451962187886">
<ele>359.79999999999995</ele>
<time>2023-05-16T08:47:29Z</time>
</trkpt>
<trkpt lat="48.81087494082749" lon="9.879389936104417">
<ele>359.4</ele>
<time>2023-05-16T08:47:30Z</time>
</trkpt>
<trkpt lat="48.810927998274565" lon="9.879326988011599">
<ele>359</ele>
<time>2023-05-16T08:47:31Z</time>
</trkpt>
<trkpt lat="48.81097795441747" lon="9.879267979413271">
<ele>358.6</ele>
<time>2023-05-16T08:47:32Z</time>
</trkpt>
<trkpt lat="48.81102497689426" lon="9.879211988300085">
<ele>358.20000000000005</ele>
<time>2023-05-16T08:47:33Z</time>
</trkpt>
<trkpt lat="48.81107199937105" lon="9.87915993668139">
<ele>357.79999999999995</ele>
<time>2023-05-16T08:47:34Z</time>
</trkpt>
<trkpt lat="48.811122961342335" lon="9.879111992195249">
<ele>357.4</ele>
<time>2023-05-16T08:47:35Z</time>
</trkpt>
<trkpt lat="48.811174929142" lon="9.879062958061695">
<ele>356.79999999999995</ele>
<time>2023-05-16T08:47:36Z</time>
</trkpt>
<trkpt lat="48.811227986589074" lon="9.879012918099761">
<ele>356.4</ele>
<time>2023-05-16T08:47:37Z</time>
</trkpt>
<trkpt lat="48.81127794273198" lon="9.878961956128478">
<ele>356</ele>
<time>2023-05-16T08:47:38Z</time>
</trkpt>
<trkpt lat="48.81132798269391" lon="9.878909988328815">
<ele>355.6</ele>
<time>2023-05-16T08:47:39Z</time>
</trkpt>
<trkpt lat="48.81137793883681" lon="9.878854919224977">
<ele>355.20000000000005</ele>
<time>2023-05-16T08:47:40Z</time>
</trkpt>
<trkpt lat="48.81142697297037" lon="9.878802951425314">
<ele>354.79999999999995</ele>
<time>2023-05-16T08:47:41Z</time>
</trkpt>
<trkpt lat="48.81147298961878" lon="9.878761963918805">
<ele>354.6</ele>
<time>2023-05-16T08:47:42Z</time>
</trkpt>
<trkpt lat="48.81151992827654" lon="9.878717958927155">
<ele>354.20000000000005</ele>
<time>2023-05-16T08:47:43Z</time>
</trkpt>
<trkpt lat="48.81156695075333" lon="9.878676971420646">
<ele>354</ele>
<time>2023-05-16T08:47:44Z</time>
</trkpt>
<trkpt lat="48.811616990715265" lon="9.878632966428995">
<ele>353.6</ele>
<time>2023-05-16T08:47:45Z</time>
</trkpt>
<trkpt lat="48.81166795268655" lon="9.878594996407628">
<ele>353.20000000000005</ele>
<time>2023-05-16T08:47:46Z</time>
</trkpt>
<trkpt lat="48.81171992048621" lon="9.878554930910468">
<ele>353</ele>
<time>2023-05-16T08:47:47Z</time>
</trkpt>
<trkpt lat="48.81177297793329" lon="9.878516960889101">
<ele>352.6</ele>
<time>2023-05-16T08:47:48Z</time>
</trkpt>
<trkpt lat="48.81182695738971" lon="9.878477985039353">
<ele>352.4</ele>
<time>2023-05-16T08:47:49Z</time>
</trkpt>
<trkpt lat="48.811874985694885" lon="9.878432974219322">
<ele>352</ele>
<time>2023-05-16T08:47:50Z</time>
</trkpt>
<trkpt lat="48.811919996514916" lon="9.878377988934517">
<ele>351.79999999999995</ele>
<time>2023-05-16T08:47:51Z</time>
</trkpt>
<trkpt lat="48.811961989849806" lon="9.878314957022667">
<ele>351.4</ele>
<time>2023-05-16T08:47:52Z</time>
</trkpt>
<trkpt lat="48.81199291907251" lon="9.878252930939198">
<ele>351.20000000000005</ele>
<time>2023-05-16T08:47:53Z</time>
</trkpt>
<trkpt lat="48.81202192045748" lon="9.878184953704476">
<ele>351</ele>
<time>2023-05-16T08:47:54Z</time>
</trkpt>
<trkpt lat="48.81204195320606" lon="9.878119993954897">
<ele>350.79999999999995</ele>
<time>2023-05-16T08:47:55Z</time>
</trkpt>
<trkpt lat="48.81205796264112" lon="9.878046987578273">
<ele>350.4</ele>
<time>2023-05-16T08:47:56Z</time>
</trkpt>
<trkpt lat="48.8120729662478" lon="9.87797792069614">
<ele>350.20000000000005</ele>
<time>2023-05-16T08:47:57Z</time>
</trkpt>
<trkpt lat="48.812094926834106" lon="9.877907931804657">
<ele>350</ele>
<time>2023-05-16T08:47:58Z</time>
</trkpt>
<trkpt lat="48.81211998872459" lon="9.877842972055078">
<ele>349.79999999999995</ele>
<time>2023-05-16T08:47:59Z</time>
</trkpt>
<trkpt lat="48.812154941260815" lon="9.87778496928513">
<ele>349.6</ele>
<time>2023-05-16T08:48:00Z</time>
</trkpt>
<trkpt lat="48.81220196373761" lon="9.877752950415015">
<ele>349.4</ele>
<time>2023-05-16T08:48:01Z</time>
</trkpt>
<trkpt lat="48.81224697455764" lon="9.877724954858422">
<ele>349.4</ele>
<time>2023-05-16T08:48:02Z</time>
</trkpt>
<trkpt lat="48.81229198537767" lon="9.877692935988307">
<ele>349.20000000000005</ele>
<time>2023-05-16T08:48:03Z</time>
</trkpt>
<trkpt lat="48.81233297288418" lon="9.877664940431714">
<ele>349.20000000000005</ele>
<time>2023-05-16T08:48:04Z</time>
</trkpt>
<trkpt lat="48.81237496621907" lon="9.877637950703502">
<ele>349.20000000000005</ele>
<time>2023-05-16T08:48:05Z</time>
</trkpt>
<trkpt lat="48.8124199770391" lon="9.877604926005006">
<ele>349.20000000000005</ele>
<time>2023-05-16T08:48:06Z</time>
</trkpt>
<trkpt lat="48.81246197037399" lon="9.877566955983639">
<ele>349.20000000000005</ele>
<time>2023-05-16T08:48:07Z</time>
</trkpt>
<trkpt lat="48.812501952052116" lon="9.87752697430551">
<ele>349</ele>
<time>2023-05-16T08:48:08Z</time>
</trkpt>
<trkpt lat="48.81253195926547" lon="9.87748196348548">
<ele>349</ele>
<time>2023-05-16T08:48:09Z</time>
</trkpt>
<trkpt lat="48.8125579431653" lon="9.877424966543913">
<ele>349</ele>
<time>2023-05-16T08:48:10Z</time>
</trkpt>
<trkpt lat="48.812581999227405" lon="9.877361934632063">
<ele>349</ele>
<time>2023-05-16T08:48:11Z</time>
</trkpt>
<trkpt lat="48.81259993650019" lon="9.877292951568961">
<ele>349</ele>
<time>2023-05-16T08:48:12Z</time>
</trkpt>
<trkpt lat="48.81261192262173" lon="9.877221956849098">
<ele>349</ele>
<time>2023-05-16T08:48:13Z</time>
</trkpt>
<trkpt lat="48.81261795759201" lon="9.877147944644094">
<ele>348.79999999999995</ele>
<time>2023-05-16T08:48:14Z</time>
</trkpt>
<trkpt lat="48.81262198090553" lon="9.87707493826747">
<ele>348.79999999999995</ele>
<time>2023-05-16T08:48:15Z</time>
</trkpt>
<trkpt lat="48.81262298673391" lon="9.877004949375987">
<ele>348.79999999999995</ele>
<time>2023-05-16T08:48:16Z</time>
</trkpt>
<trkpt lat="48.81261996924877" lon="9.876937977969646">
<ele>348.79999999999995</ele>
<time>2023-05-16T08:48:17Z</time>
</trkpt>
<trkpt lat="48.81261494010687" lon="9.876874946057796">
<ele>348.6</ele>
<time>2023-05-16T08:48:18Z</time>
</trkpt>
<trkpt lat="48.81261192262173" lon="9.876807974651456">
<ele>348.6</ele>
<time>2023-05-16T08:48:19Z</time>
</trkpt>
<trkpt lat="48.81261192262173" lon="9.876739997416735">
<ele>348.6</ele>
<time>2023-05-16T08:48:20Z</time>
</trkpt>
<trkpt lat="48.81261695176363" lon="9.876667996868491">
<ele>348.6</ele>
<time>2023-05-16T08:48:21Z</time>
</trkpt>
<trkpt lat="48.812627932056785" lon="9.8766019474715">
<ele>348.6</ele>
<time>2023-05-16T08:48:22Z</time>
</trkpt>
<trkpt lat="48.812646958976984" lon="9.87653698772192">
<ele>348.4</ele>
<time>2023-05-16T08:48:23Z</time>
</trkpt>
<trkpt lat="48.812672942876816" lon="9.876482924446464">
<ele>348.4</ele>
<time>2023-05-16T08:48:24Z</time>
</trkpt>
<trkpt lat="48.81270697340369" lon="9.876432968303561">
<ele>348.4</ele>
<time>2023-05-16T08:48:25Z</time>
</trkpt>
<trkpt lat="48.81274695508182" lon="9.876391980797052">
<ele>348.4</ele>
<time>2023-05-16T08:48:26Z</time>
</trkpt>
<trkpt lat="48.81278794258833" lon="9.876359961926937">
<ele>348.4</ele>
<time>2023-05-16T08:48:27Z</time>
</trkpt>
<trkpt lat="48.81282792426646" lon="9.876342946663499">
<ele>348.4</ele>
<time>2023-05-16T08:48:28Z</time>
</trkpt>
<trkpt lat="48.81286991760135" lon="9.876327943056822">
<ele>348.4</ele>
<time>2023-05-16T08:48:29Z</time>
</trkpt>
<trkpt lat="48.81290998309851" lon="9.87632199190557">
<ele>348.4</ele>
<time>2023-05-16T08:48:30Z</time>
</trkpt>
<trkpt lat="48.81294694729149" lon="9.876317968592048">
<ele>348.4</ele>
<time>2023-05-16T08:48:31Z</time>
</trkpt>
<trkpt lat="48.81297796033323" lon="9.876317968592048">
<ele>348.4</ele>
<time>2023-05-16T08:48:32Z</time>
</trkpt>
<trkpt lat="48.81300293840468" lon="9.876316962763667">
<ele>348.4</ele>
<time>2023-05-16T08:48:33Z</time>
</trkpt>
<trkpt lat="48.81302699446678" lon="9.876307994127274">
<ele>348.4</ele>
<time>2023-05-16T08:48:34Z</time>
</trkpt>
<trkpt lat="48.81304694339633" lon="9.876294918358326">
<ele>348.4</ele>
<time>2023-05-16T08:48:35Z</time>
</trkpt>
<trkpt lat="48.81306194700301" lon="9.876267928630114">
<ele>348.4</ele>
<time>2023-05-16T08:48:36Z</time>
</trkpt>
<trkpt lat="48.81306697614491" lon="9.876231970265508">
<ele>348.4</ele>
<time>2023-05-16T08:48:37Z</time>
</trkpt>
<trkpt lat="48.81306496448815" lon="9.87619299441576">
<ele>348.4</ele>
<time>2023-05-16T08:48:38Z</time>
</trkpt>
<trkpt lat="48.813059935346246" lon="9.87615192309022">
<ele>348.4</ele>
<time>2023-05-16T08:48:39Z</time>
</trkpt>
<trkpt lat="48.813056917861104" lon="9.876094926148653">
<ele>348.4</ele>
<time>2023-05-16T08:48:40Z</time>
</trkpt>
<trkpt lat="48.81305297836661" lon="9.876029966399074">
<ele>348.4</ele>
<time>2023-05-16T08:48:41Z</time>
</trkpt>
<trkpt lat="48.81305297836661" lon="9.875959977507591">
<ele>348.4</ele>
<time>2023-05-16T08:48:42Z</time>
</trkpt>
<trkpt lat="48.813056917861104" lon="9.875887976959348">
<ele>348.4</ele>
<time>2023-05-16T08:48:43Z</time>
</trkpt>
<trkpt lat="48.813054990023375" lon="9.87580994144082">
<ele>348.4</ele>
<time>2023-05-16T08:48:44Z</time>
</trkpt>
<trkpt lat="48.81305197253823" lon="9.875729978084564">
<ele>348.4</ele>
<time>2023-05-16T08:48:45Z</time>
</trkpt>
<trkpt lat="48.81304694339633" lon="9.875651942566037">
<ele>348.4</ele>
<time>2023-05-16T08:48:46Z</time>
</trkpt>
<trkpt lat="48.81304199807346" lon="9.875574996694922">
<ele>348.4</ele>
<time>2023-05-16T08:48:47Z</time>
</trkpt>
<trkpt lat="48.813036968931556" lon="9.875499978661537">
<ele>348.4</ele>
<time>2023-05-16T08:48:48Z</time>
</trkpt>
<trkpt lat="48.81302699446678" lon="9.875429989770055">
<ele>348.4</ele>
<time>2023-05-16T08:48:49Z</time>
</trkpt>
<trkpt lat="48.81301995366812" lon="9.875357989221811">
<ele>348.4</ele>
<time>2023-05-16T08:48:50Z</time>
</trkpt>
<trkpt lat="48.813011990860105" lon="9.875282971188426">
<ele>348.4</ele>
<time>2023-05-16T08:48:51Z</time>
</trkpt>
<trkpt lat="48.8130069617182" lon="9.875202924013138">
<ele>348.4</ele>
<time>2023-05-16T08:48:52Z</time>
</trkpt>
<trkpt lat="48.81300293840468" lon="9.875122960656881">
<ele>348.4</ele>
<time>2023-05-16T08:48:53Z</time>
</trkpt>
<trkpt lat="48.81299799308181" lon="9.875036962330341">
<ele>348.20000000000005</ele>
<time>2023-05-16T08:48:54Z</time>
</trkpt>
<trkpt lat="48.812992963939905" lon="9.874956998974085">
<ele>348.20000000000005</ele>
<time>2023-05-16T08:48:55Z</time>
</trkpt>
<trkpt lat="48.81298491731286" lon="9.874874940142035">
<ele>348.20000000000005</ele>
<time>2023-05-16T08:48:56Z</time>
</trkpt>
<trkpt lat="48.81297796033323" lon="9.874792965129018">
<ele>348.20000000000005</ele>
<time>2023-05-16T08:48:57Z</time>
</trkpt>
<trkpt lat="48.81297695450485" lon="9.874707972630858">
<ele>348</ele>
<time>2023-05-16T08:48:58Z</time>
</trkpt>
<trkpt lat="48.812969997525215" lon="9.87462499178946">
<ele>348</ele>
<time>2023-05-16T08:48:59Z</time>
</trkpt>
<trkpt lat="48.81296195089817" lon="9.874546956270933">
<ele>347.79999999999995</ele>
<time>2023-05-16T08:49:00Z</time>
</trkpt>
<trkpt lat="48.81295298226178" lon="9.874466992914677">
<ele>347.79999999999995</ele>
<time>2023-05-16T08:49:01Z</time>
</trkpt>
<trkpt lat="48.81294191814959" lon="9.874386945739388">
<ele>347.6</ele>
<time>2023-05-16T08:49:02Z</time>
</trkpt>
<trkpt lat="48.8129329495132" lon="9.874301953241229">
<ele>347.6</ele>
<time>2023-05-16T08:49:03Z</time>
</trkpt>
<trkpt lat="48.812926998361945" lon="9.87421696074307">
<ele>347.4</ele>
<time>2023-05-16T08:49:04Z</time>
</trkpt>
<trkpt lat="48.81292297504842" lon="9.87413196824491">
<ele>347.20000000000005</ele>
<time>2023-05-16T08:49:05Z</time>
</trkpt>
<trkpt lat="48.81291995756328" lon="9.87404496408999">
<ele>347.20000000000005</ele>
<time>2023-05-16T08:49:06Z</time>
</trkpt>
<trkpt lat="48.81291995756328" lon="9.873952930793166">
<ele>347</ele>
<time>2023-05-16T08:49:07Z</time>
</trkpt>
<trkpt lat="48.81291694007814" lon="9.873857963830233">
<ele>346.79999999999995</ele>
<time>2023-05-16T08:49:08Z</time>
</trkpt>
<trkpt lat="48.81291291676462" lon="9.873764924705029">
<ele>346.79999999999995</ele>
<time>2023-05-16T08:49:09Z</time>
</trkpt>
<trkpt lat="48.812907971441746" lon="9.873669957742095">
<ele>346.6</ele>
<time>2023-05-16T08:49:10Z</time>
</trkpt>
<trkpt lat="48.81290193647146" lon="9.873576918616891">
<ele>346.4</ele>
<time>2023-05-16T08:49:11Z</time>
</trkpt>
<trkpt lat="48.81289699114859" lon="9.873479939997196">
<ele>346.20000000000005</ele>
<time>2023-05-16T08:49:12Z</time>
</trkpt>
<trkpt lat="48.81289196200669" lon="9.873381955549121">
<ele>346.20000000000005</ele>
<time>2023-05-16T08:49:13Z</time>
</trkpt>
<trkpt lat="48.812884921208024" lon="9.873286988586187">
<ele>346</ele>
<time>2023-05-16T08:49:14Z</time>
</trkpt>
<trkpt lat="48.81287192925811" lon="9.873194955289364">
<ele>345.79999999999995</ele>
<time>2023-05-16T08:49:15Z</time>
</trkpt>
<trkpt lat="48.8128499686718" lon="9.873104933649302">
<ele>345.6</ele>
<time>2023-05-16T08:49:16Z</time>
</trkpt>
<trkpt lat="48.812822978943586" lon="9.873019941151142">
<ele>345.6</ele>
<time>2023-05-16T08:49:17Z</time>
</trkpt>
<trkpt lat="48.81278794258833" lon="9.872941989451647">
<ele>345.4</ele>
<time>2023-05-16T08:49:18Z</time>
</trkpt>
<trkpt lat="48.81274997256696" lon="9.872866971418262">
<ele>345.4</ele>
<time>2023-05-16T08:49:19Z</time>
</trkpt>
<trkpt lat="48.812712924554944" lon="9.872789941728115">
<ele>345.20000000000005</ele>
<time>2023-05-16T08:49:20Z</time>
</trkpt>
<trkpt lat="48.812671937048435" lon="9.87271492369473">
<ele>345</ele>
<time>2023-05-16T08:49:21Z</time>
</trkpt>
<trkpt lat="48.81263195537031" lon="9.872641917318106">
<ele>344.79999999999995</ele>
<time>2023-05-16T08:49:22Z</time>
</trkpt>
<trkpt lat="48.81258996203542" lon="9.872566983103752">
<ele>344.79999999999995</ele>
<time>2023-05-16T08:49:23Z</time>
</trkpt>
<trkpt lat="48.81254998035729" lon="9.872491965070367">
<ele>344.6</ele>
<time>2023-05-16T08:49:24Z</time>
</trkpt>
<trkpt lat="48.81250496953726" lon="9.872417952865362">
<ele>344.4</ele>
<time>2023-05-16T08:49:25Z</time>
</trkpt>
<trkpt lat="48.81246197037399" lon="9.872344946488738">
<ele>344.20000000000005</ele>
<time>2023-05-16T08:49:26Z</time>
</trkpt>
<trkpt lat="48.8124199770391" lon="9.872269928455353">
<ele>344</ele>
<time>2023-05-16T08:49:27Z</time>
</trkpt>
<trkpt lat="48.81237798370421" lon="9.872194994241">
<ele>343.79999999999995</ele>
<time>2023-05-16T08:49:28Z</time>
</trkpt>
<trkpt lat="48.81234194152057" lon="9.872116958722472">
<ele>343.6</ele>
<time>2023-05-16T08:49:29Z</time>
</trkpt>
<trkpt lat="48.81230799481273" lon="9.872034983709455">
<ele>343.4</ele>
<time>2023-05-16T08:49:30Z</time>
</trkpt>
<trkpt lat="48.81227497011423" lon="9.871952924877405">
<ele>343.4</ele>
<time>2023-05-16T08:49:31Z</time>
</trkpt>
<trkpt lat="48.812242951244116" lon="9.871867932379246">
<ele>343.20000000000005</ele>
<time>2023-05-16T08:49:32Z</time>
</trkpt>
<trkpt lat="48.812217973172665" lon="9.871776988729835">
<ele>343</ele>
<time>2023-05-16T08:49:33Z</time>
</trkpt>
<trkpt lat="48.812197940424085" lon="9.87168193794787">
<ele>342.79999999999995</ele>
<time>2023-05-16T08:49:34Z</time>
</trkpt>
<trkpt lat="48.81218193098903" lon="9.871584959328175">
<ele>342.6</ele>
<time>2023-05-16T08:49:35Z</time>
</trkpt>
<trkpt lat="48.81216793321073" lon="9.87148798070848">
<ele>342.6</ele>
<time>2023-05-16T08:49:36Z</time>
</trkpt>
<trkpt lat="48.81215997040272" lon="9.871391924098134">
<ele>342.4</ele>
<time>2023-05-16T08:49:37Z</time>
</trkpt>
<trkpt lat="48.81215192377567" lon="9.871297962963581">
<ele>342.20000000000005</ele>
<time>2023-05-16T08:49:38Z</time>
</trkpt>
<trkpt lat="48.8121229223907" lon="9.871199978515506">
<ele>342</ele>
<time>2023-05-16T08:49:39Z</time>
</trkpt>
<trkpt lat="48.8121279515326" lon="9.871112974360585">
<ele>342</ele>
<time>2023-05-16T08:49:40Z</time>
</trkpt>
<trkpt lat="48.812137925997376" lon="9.871026976034045">
<ele>341.79999999999995</ele>
<time>2023-05-16T08:49:41Z</time>
</trkpt>
<trkpt lat="48.81214999593794" lon="9.870946928858757">
<ele>341.79999999999995</ele>
<time>2023-05-16T08:49:42Z</time>
</trkpt>
<trkpt lat="48.81215292960405" lon="9.870856991037726">
<ele>341.6</ele>
<time>2023-05-16T08:49:43Z</time>
</trkpt>
<trkpt lat="48.812156952917576" lon="9.870761940255761">
<ele>341.6</ele>
<time>2023-05-16T08:49:44Z</time>
</trkpt>
<trkpt lat="48.81215997040272" lon="9.87067493610084">
<ele>341.6</ele>
<time>2023-05-16T08:49:45Z</time>
</trkpt>
<trkpt lat="48.81216198205948" lon="9.870591955259442">
<ele>341.4</ele>
<time>2023-05-16T08:49:46Z</time>
</trkpt>
<trkpt lat="48.81216298788786" lon="9.870511991903186">
<ele>341.4</ele>
<time>2023-05-16T08:49:47Z</time>
</trkpt>
<trkpt lat="48.81216499954462" lon="9.870432950556278">
<ele>341.4</ele>
<time>2023-05-16T08:49:48Z</time>
</trkpt>
<trkpt lat="48.81216994486749" lon="9.870359944179654">
<ele>341.4</ele>
<time>2023-05-16T08:49:49Z</time>
</trkpt>
<trkpt lat="48.812177991494536" lon="9.87028299830854">
<ele>341.4</ele>
<time>2023-05-16T08:49:50Z</time>
</trkpt>
<trkpt lat="48.81218696013093" lon="9.870202951133251">
<ele>341.4</ele>
<time>2023-05-16T08:49:51Z</time>
</trkpt>
<trkpt lat="48.812196934595704" lon="9.870122987776995">
<ele>341.4</ele>
<time>2023-05-16T08:49:52Z</time>
</trkpt>
<trkpt lat="48.812199952080846" lon="9.87004998140037">
<ele>341.4</ele>
<time>2023-05-16T08:49:53Z</time>
</trkpt>
<trkpt lat="48.81220296956599" lon="9.869976975023746">
<ele>341.4</ele>
<time>2023-05-16T08:49:54Z</time>
</trkpt>
<trkpt lat="48.81220699287951" lon="9.869901956990361">
<ele>341.4</ele>
<time>2023-05-16T08:49:55Z</time>
</trkpt>
<trkpt lat="48.81220992654562" lon="9.869827944785357">
<ele>341.4</ele>
<time>2023-05-16T08:49:56Z</time>
</trkpt>
<trkpt lat="48.81221294403076" lon="9.869757955893874">
<ele>341.4</ele>
<time>2023-05-16T08:49:57Z</time>
</trkpt>
<trkpt lat="48.81222199648619" lon="9.869692996144295">
<ele>341.4</ele>
<time>2023-05-16T08:49:58Z</time>
</trkpt>
<trkpt lat="48.812241945415735" lon="9.869634993374348">
<ele>341.4</ele>
<time>2023-05-16T08:49:59Z</time>
</trkpt>
<trkpt lat="48.81227195262909" lon="9.869584953412414">
<ele>341.4</ele>
<time>2023-05-16T08:50:00Z</time>
</trkpt>
<trkpt lat="48.812309922650456" lon="9.869549917057157">
<ele>341.4</ele>
<time>2023-05-16T08:50:01Z</time>
</trkpt>
<trkpt lat="48.812347976490855" lon="9.869517982006073">
<ele>341.4</ele>
<time>2023-05-16T08:50:02Z</time>
</trkpt>
<trkpt lat="48.81238795816898" lon="9.869482945650816">
<ele>341.4</ele>
<time>2023-05-16T08:50:03Z</time>
</trkpt>
<trkpt lat="48.81242693401873" lon="9.869451932609081">
<ele>341.4</ele>
<time>2023-05-16T08:50:04Z</time>
</trkpt>
<trkpt lat="48.81246197037399" lon="9.869417985901237">
<ele>341.4</ele>
<time>2023-05-16T08:50:05Z</time>
</trkpt>
<trkpt lat="48.81249692291021" lon="9.86938496120274">
<ele>341.4</ele>
<time>2023-05-16T08:50:06Z</time>
</trkpt>
<trkpt lat="48.81252793595195" lon="9.869356965646148">
<ele>341.4</ele>
<time>2023-05-16T08:50:07Z</time>
</trkpt>
<trkpt lat="48.812561966478825" lon="9.869326958432794">
<ele>341.4</ele>
<time>2023-05-16T08:50:08Z</time>
</trkpt>
<trkpt lat="48.81259297952056" lon="9.869294939562678">
<ele>341.4</ele>
<time>2023-05-16T08:50:09Z</time>
</trkpt>
<trkpt lat="48.812624998390675" lon="9.869256969541311">
<ele>341.4</ele>
<time>2023-05-16T08:50:10Z</time>
</trkpt>
<trkpt lat="48.81265693344176" lon="9.869217993691564">
<ele>341.4</ele>
<time>2023-05-16T08:50:11Z</time>
</trkpt>
<trkpt lat="48.812689958140254" lon="9.869186980649829">
<ele>341.4</ele>
<time>2023-05-16T08:50:12Z</time>
</trkpt>
<trkpt lat="48.81272692233324" lon="9.869156973436475">
<ele>341.4</ele>
<time>2023-05-16T08:50:13Z</time>
</trkpt>
<trkpt lat="48.81276296451688" lon="9.869129983708262">
<ele>341.4</ele>
<time>2023-05-16T08:50:14Z</time>
</trkpt>
<trkpt lat="48.81280696950853" lon="9.86910492181778">
<ele>341.4</ele>
<time>2023-05-16T08:50:15Z</time>
</trkpt>
<trkpt lat="48.81284695118666" lon="9.869084972888231">
<ele>341.4</ele>
<time>2023-05-16T08:50:16Z</time>
</trkpt>
<trkpt lat="48.812886932864785" lon="9.869072986766696">
<ele>341.4</ele>
<time>2023-05-16T08:50:17Z</time>
</trkpt>
<trkpt lat="48.812931943684816" lon="9.869069969281554">
<ele>341.4</ele>
<time>2023-05-16T08:50:18Z</time>
</trkpt>
<trkpt lat="48.81298198364675" lon="9.869064940139651">
<ele>341.4</ele>
<time>2023-05-16T08:50:19Z</time>
</trkpt>
<trkpt lat="48.81302791647613" lon="9.869057983160019">
<ele>341.4</ele>
<time>2023-05-16T08:50:20Z</time>
</trkpt>
<trkpt lat="48.813077956438065" lon="9.869066951796412">
<ele>341.4</ele>
<time>2023-05-16T08:50:21Z</time>
</trkpt>
<trkpt lat="48.81312497891486" lon="9.869076926261187">
<ele>341.4</ele>
<time>2023-05-16T08:50:22Z</time>
</trkpt>
<trkpt lat="48.81316998973489" lon="9.869079943746328">
<ele>341.20000000000005</ele>
<time>2023-05-16T08:50:23Z</time>
</trkpt>
<trkpt lat="48.81321491673589" lon="9.869087990373373">
<ele>341.20000000000005</ele>
<time>2023-05-16T08:50:24Z</time>
</trkpt>
<trkpt lat="48.81326193921268" lon="9.869094947353005">
<ele>341.20000000000005</ele>
<time>2023-05-16T08:50:25Z</time>
</trkpt>
<trkpt lat="48.81330493837595" lon="9.869096959009767">
<ele>341.20000000000005</ele>
<time>2023-05-16T08:50:26Z</time>
</trkpt>
<trkpt lat="48.81334994919598" lon="9.869092935696244">
<ele>341.20000000000005</ele>
<time>2023-05-16T08:50:27Z</time>
</trkpt>
<trkpt lat="48.813399989157915" lon="9.869084972888231">
<ele>341.20000000000005</ele>
<time>2023-05-16T08:50:28Z</time>
</trkpt>
<trkpt lat="48.813446927815676" lon="9.869074998423457">
<ele>341.4</ele>
<time>2023-05-16T08:50:29Z</time>
</trkpt>
<trkpt lat="48.81349495612085" lon="9.869064940139651">
<ele>341.4</ele>
<time>2023-05-16T08:50:30Z</time>
</trkpt>
<trkpt lat="48.81353996694088" lon="9.869051948189735">
<ele>341.4</ele>
<time>2023-05-16T08:50:31Z</time>
</trkpt>
<trkpt lat="48.81358497776091" lon="9.869032921269536">
<ele>341.4</ele>
<time>2023-05-16T08:50:32Z</time>
</trkpt>
<trkpt lat="48.81362998858094" lon="9.869011966511607">
<ele>341.4</ele>
<time>2023-05-16T08:50:33Z</time>
</trkpt>
<trkpt lat="48.81367499940097" lon="9.868987994268537">
<ele>341.4</ele>
<time>2023-05-16T08:50:34Z</time>
</trkpt>
<trkpt lat="48.81371992640197" lon="9.868962932378054">
<ele>341.4</ele>
<time>2023-05-16T08:50:35Z</time>
</trkpt>
<trkpt lat="48.813766948878765" lon="9.868936948478222">
<ele>341.4</ele>
<time>2023-05-16T08:50:36Z</time>
</trkpt>
<trkpt lat="48.81381296552718" lon="9.868907947093248">
<ele>341.4</ele>
<time>2023-05-16T08:50:37Z</time>
</trkpt>
<trkpt lat="48.81385797634721" lon="9.868876934051514">
<ele>341.4</ele>
<time>2023-05-16T08:50:38Z</time>
</trkpt>
<trkpt lat="48.81390793249011" lon="9.86884499900043">
<ele>341.4</ele>
<time>2023-05-16T08:50:39Z</time>
</trkpt>
<trkpt lat="48.81396199576557" lon="9.868816919624805">
<ele>341.4</ele>
<time>2023-05-16T08:50:40Z</time>
</trkpt>
<trkpt lat="48.81401698105037" lon="9.868794959038496">
<ele>341.4</ele>
<time>2023-05-16T08:50:41Z</time>
</trkpt>
<trkpt lat="48.81407297216356" lon="9.868779955431819">
<ele>341.4</ele>
<time>2023-05-16T08:50:42Z</time>
</trkpt>
<trkpt lat="48.814129969105124" lon="9.868767969310284">
<ele>341.4</ele>
<time>2023-05-16T08:50:43Z</time>
</trkpt>
<trkpt lat="48.81418797187507" lon="9.868754977360368">
<ele>341.4</ele>
<time>2023-05-16T08:50:44Z</time>
</trkpt>
<trkpt lat="48.8142469804734" lon="9.868742991238832">
<ele>341.20000000000005</ele>
<time>2023-05-16T08:50:45Z</time>
</trkpt>
<trkpt lat="48.814302971586585" lon="9.868732932955027">
<ele>341.20000000000005</ele>
<time>2023-05-16T08:50:46Z</time>
</trkpt>
<trkpt lat="48.81435695104301" lon="9.868727987632155">
<ele>341</ele>
<time>2023-05-16T08:50:47Z</time>
</trkpt>
<trkpt lat="48.814409924671054" lon="9.868729999288917">
<ele>340.79999999999995</ele>
<time>2023-05-16T08:50:48Z</time>
</trkpt>
<trkpt lat="48.814467927441" lon="9.868734944611788">
<ele>340.79999999999995</ele>
<time>2023-05-16T08:50:49Z</time>
</trkpt>
<trkpt lat="48.81452995352447" lon="9.868742991238832">
<ele>340.6</ele>
<time>2023-05-16T08:50:50Z</time>
</trkpt>
<trkpt lat="48.81459197960794" lon="9.868749948218465">
<ele>340.4</ele>
<time>2023-05-16T08:50:51Z</time>
</trkpt>
<trkpt lat="48.81465199403465" lon="9.868754977360368">
<ele>340.20000000000005</ele>
<time>2023-05-16T08:50:52Z</time>
</trkpt>
<trkpt lat="48.814709996804595" lon="9.868752965703607">
<ele>340</ele>
<time>2023-05-16T08:50:53Z</time>
</trkpt>
<trkpt lat="48.8147649820894" lon="9.868751959875226">
<ele>340</ele>
<time>2023-05-16T08:50:54Z</time>
</trkpt>
<trkpt lat="48.8148149382323" lon="9.868747936561704">
<ele>339.79999999999995</ele>
<time>2023-05-16T08:50:55Z</time>
</trkpt>
<trkpt lat="48.814862966537476" lon="9.868744919076562">
<ele>339.79999999999995</ele>
<time>2023-05-16T08:50:56Z</time>
</trkpt>
<trkpt lat="48.814911916852" lon="9.868742991238832">
<ele>339.79999999999995</ele>
<time>2023-05-16T08:50:57Z</time>
</trkpt>
<trkpt lat="48.81495692767203" lon="9.86873796209693">
<ele>339.6</ele>
<time>2023-05-16T08:50:58Z</time>
</trkpt>
<trkpt lat="48.81500193849206" lon="9.868736956268549">
<ele>339.6</ele>
<time>2023-05-16T08:50:59Z</time>
</trkpt>
<trkpt lat="48.81504795514047" lon="9.868734944611788">
<ele>339.6</ele>
<time>2023-05-16T08:51:00Z</time>
</trkpt>
<trkpt lat="48.8150929659605" lon="9.868729999288917">
<ele>339.6</ele>
<time>2023-05-16T08:51:01Z</time>
</trkpt>
<trkpt lat="48.815137976780534" lon="9.868724970147014">
<ele>339.6</ele>
<time>2023-05-16T08:51:02Z</time>
</trkpt>
<trkpt lat="48.815182987600565" lon="9.868722958490252">
<ele>339.6</ele>
<time>2023-05-16T08:51:03Z</time>
</trkpt>
<trkpt lat="48.815227998420596" lon="9.868727987632155">
<ele>339.6</ele>
<time>2023-05-16T08:51:04Z</time>
</trkpt>
<trkpt lat="48.815271919593215" lon="9.868729999288917">
<ele>339.6</ele>
<time>2023-05-16T08:51:05Z</time>
</trkpt>
<trkpt lat="48.815314918756485" lon="9.86871792934835">
<ele>339.6</ele>
<time>2023-05-16T08:51:06Z</time>
</trkpt>
<trkpt lat="48.815356995910406" lon="9.86869697459042">
<ele>339.6</ele>
<time>2023-05-16T08:51:07Z</time>
</trkpt>
<trkpt lat="48.81539496593177" lon="9.868662944063544">
<ele>339.6</ele>
<time>2023-05-16T08:51:08Z</time>
</trkpt>
<trkpt lat="48.815429918468" lon="9.868621956557035">
<ele>339.6</ele>
<time>2023-05-16T08:51:09Z</time>
</trkpt>
<trkpt lat="48.81546696648002" lon="9.868576945737004">
<ele>339.6</ele>
<time>2023-05-16T08:51:10Z</time>
</trkpt>
<trkpt lat="48.81550292484462" lon="9.868529923260212">
<ele>339.79999999999995</ele>
<time>2023-05-16T08:51:11Z</time>
</trkpt>
<trkpt lat="48.81554692983627" lon="9.868482984602451">
<ele>339.79999999999995</ele>
<time>2023-05-16T08:51:12Z</time>
</trkpt>
<trkpt lat="48.815591940656304" lon="9.868441997095942">
<ele>339.79999999999995</ele>
<time>2023-05-16T08:51:13Z</time>
</trkpt>
<trkpt lat="48.81563996896148" lon="9.868406960740685">
<ele>339.79999999999995</ele>
<time>2023-05-16T08:51:14Z</time>
</trkpt>
<trkpt lat="48.81568992510438" lon="9.868371924385428">
<ele>339.79999999999995</ele>
<time>2023-05-16T08:51:15Z</time>
</trkpt>
<trkpt lat="48.81573795340955" lon="9.868346946313977">
<ele>339.79999999999995</ele>
<time>2023-05-16T08:51:16Z</time>
</trkpt>
<trkpt lat="48.815784975886345" lon="9.868321968242526">
<ele>339.79999999999995</ele>
<time>2023-05-16T08:51:17Z</time>
</trkpt>
<trkpt lat="48.815829986706376" lon="9.868292966857553">
<ele>339.79999999999995</ele>
<time>2023-05-16T08:51:18Z</time>
</trkpt>
<trkpt lat="48.815869968384504" lon="9.868261953815818">
<ele>339.79999999999995</ele>
<time>2023-05-16T08:51:19Z</time>
</trkpt>
<trkpt lat="48.81590793840587" lon="9.868227923288941">
<ele>339.79999999999995</ele>
<time>2023-05-16T08:51:20Z</time>
</trkpt>
<trkpt lat="48.81594699807465" lon="9.868191964924335">
<ele>339.79999999999995</ele>
<time>2023-05-16T08:51:21Z</time>
</trkpt>
<trkpt lat="48.815979938954115" lon="9.868149971589446">
<ele>339.79999999999995</ele>
<time>2023-05-16T08:51:22Z</time>
</trkpt>
<trkpt lat="48.81601296365261" lon="9.868106972426176">
<ele>339.79999999999995</ele>
<time>2023-05-16T08:51:23Z</time>
</trkpt>
<trkpt lat="48.816042970865965" lon="9.868066990748048">
<ele>340</ele>
<time>2023-05-16T08:51:24Z</time>
</trkpt>
<trkpt lat="48.81607197225094" lon="9.868026925250888">
<ele>340</ele>
<time>2023-05-16T08:51:25Z</time>
</trkpt>
<trkpt lat="48.81609795615077" lon="9.867984931915998">
<ele>340.20000000000005</ele>
<time>2023-05-16T08:51:26Z</time>
</trkpt>
<trkpt lat="48.81612293422222" lon="9.86794495023787">
<ele>340.4</ele>
<time>2023-05-16T08:51:27Z</time>
</trkpt>
<trkpt lat="48.816146990284324" lon="9.867904968559742">
<ele>340.79999999999995</ele>
<time>2023-05-16T08:51:28Z</time>
</trkpt>
<trkpt lat="48.816169956699014" lon="9.867866998538375">
<ele>341</ele>
<time>2023-05-16T08:51:29Z</time>
</trkpt>
<trkpt lat="48.81619191728532" lon="9.867829950526357">
<ele>341.4</ele>
<time>2023-05-16T08:51:30Z</time>
</trkpt>
<trkpt lat="48.816216979175806" lon="9.867789968848228">
<ele>341.6</ele>
<time>2023-05-16T08:51:31Z</time>
</trkpt>
<trkpt lat="48.816239945590496" lon="9.8677499871701">
<ele>342</ele>
<time>2023-05-16T08:51:32Z</time>
</trkpt>
<trkpt lat="48.81626693531871" lon="9.867712939158082">
<ele>342.4</ele>
<time>2023-05-16T08:51:33Z</time>
</trkpt>
<trkpt lat="48.81629199720919" lon="9.867676980793476">
<ele>342.79999999999995</ele>
<time>2023-05-16T08:51:34Z</time>
</trkpt>
<trkpt lat="48.81631798110902" lon="9.867637921124697">
<ele>343</ele>
<time>2023-05-16T08:51:35Z</time>
</trkpt>
<trkpt lat="48.816346982494" lon="9.867597939446568">
<ele>343.4</ele>
<time>2023-05-16T08:51:36Z</time>
</trkpt>
<trkpt lat="48.81637296639383" lon="9.86755795776844">
<ele>343.6</ele>
<time>2023-05-16T08:51:37Z</time>
</trkpt>
<trkpt lat="48.81639995612204" lon="9.867521999403834">
<ele>343.79999999999995</ele>
<time>2023-05-16T08:51:38Z</time>
</trkpt>
<trkpt lat="48.81642493419349" lon="9.867486963048577">
<ele>344.20000000000005</ele>
<time>2023-05-16T08:51:39Z</time>
</trkpt>
<trkpt lat="48.816447984427214" lon="9.86745192669332">
<ele>344.4</ele>
<time>2023-05-16T08:51:40Z</time>
</trkpt>
<trkpt lat="48.816472962498665" lon="9.867416974157095">
<ele>344.6</ele>
<time>2023-05-16T08:51:41Z</time>
</trkpt>
<trkpt lat="48.81649995222688" lon="9.867382943630219">
<ele>344.79999999999995</ele>
<time>2023-05-16T08:51:42Z</time>
</trkpt>
<trkpt lat="48.81652694195509" lon="9.867352936416864">
<ele>345</ele>
<time>2023-05-16T08:51:43Z</time>
</trkpt>
<trkpt lat="48.81655292585492" lon="9.86732192337513">
<ele>345.20000000000005</ele>
<time>2023-05-16T08:51:44Z</time>
</trkpt>
<trkpt lat="48.816581927239895" lon="9.867291999980807">
<ele>345.4</ele>
<time>2023-05-16T08:51:45Z</time>
</trkpt>
<trkpt lat="48.81660992279649" lon="9.867262998595834">
<ele>345.79999999999995</ele>
<time>2023-05-16T08:51:46Z</time>
</trkpt>
<trkpt lat="48.81663791835308" lon="9.86723491922021">
<ele>346</ele>
<time>2023-05-16T08:51:47Z</time>
</trkpt>
<trkpt lat="48.816666919738054" lon="9.867209941148758">
<ele>346.20000000000005</ele>
<time>2023-05-16T08:51:48Z</time>
</trkpt>
<trkpt lat="48.81669499911368" lon="9.867182951420546">
<ele>346.4</ele>
<time>2023-05-16T08:51:49Z</time>
</trkpt>
<trkpt lat="48.81672299467027" lon="9.867157973349094">
<ele>346.79999999999995</ele>
<time>2023-05-16T08:51:50Z</time>
</trkpt>
<trkpt lat="48.816751996055245" lon="9.867134923115373">
<ele>347</ele>
<time>2023-05-16T08:51:51Z</time>
</trkpt>
<trkpt lat="48.81677999161184" lon="9.867111956700683">
<ele>347.20000000000005</ele>
<time>2023-05-16T08:51:52Z</time>
</trkpt>
<trkpt lat="48.81681192666292" lon="9.867086978629231">
<ele>347.4</ele>
<time>2023-05-16T08:51:53Z</time>
</trkpt>
<trkpt lat="48.816841933876276" lon="9.86706292256713">
<ele>347.79999999999995</ele>
<time>2023-05-16T08:51:54Z</time>
</trkpt>
<trkpt lat="48.81687194108963" lon="9.867044985294342">
<ele>348</ele>
<time>2023-05-16T08:51:55Z</time>
</trkpt>
<trkpt lat="48.816902954131365" lon="9.867024952545762">
<ele>348.20000000000005</ele>
<time>2023-05-16T08:51:56Z</time>
</trkpt>
<trkpt lat="48.81693296134472" lon="9.867006931453943">
<ele>348.4</ele>
<time>2023-05-16T08:51:57Z</time>
</trkpt>
<trkpt lat="48.816964980214834" lon="9.866986982524395">
<ele>348.79999999999995</ele>
<time>2023-05-16T08:51:58Z</time>
</trkpt>
<trkpt lat="48.81699498742819" lon="9.866966949775815">
<ele>349</ele>
<time>2023-05-16T08:51:59Z</time>
</trkpt>
<trkpt lat="48.81702692247927" lon="9.866947922855616">
<ele>349.20000000000005</ele>
<time>2023-05-16T08:52:00Z</time>
</trkpt>
<trkpt lat="48.81706195883453" lon="9.866929985582829">
<ele>349.4</ele>
<time>2023-05-16T08:52:01Z</time>
</trkpt>
<trkpt lat="48.817094983533025" lon="9.86691297031939">
<ele>349.6</ele>
<time>2023-05-16T08:52:02Z</time>
</trkpt>
<trkpt lat="48.81712792441249" lon="9.86689293757081">
<ele>349.79999999999995</ele>
<time>2023-05-16T08:52:03Z</time>
</trkpt>
<trkpt lat="48.817161954939365" lon="9.866874916478992">
<ele>350.20000000000005</ele>
<time>2023-05-16T08:52:04Z</time>
</trkpt>
<trkpt lat="48.81719699129462" lon="9.866857985034585">
<ele>350.4</ele>
<time>2023-05-16T08:52:05Z</time>
</trkpt>
<trkpt lat="48.81722993217409" lon="9.866839963942766">
<ele>350.6</ele>
<time>2023-05-16T08:52:06Z</time>
</trkpt>
<trkpt lat="48.817264968529344" lon="9.866822948679328">
<ele>350.79999999999995</ele>
<time>2023-05-16T08:52:07Z</time>
</trkpt>
<trkpt lat="48.81729799322784" lon="9.866807945072651">
<ele>351</ele>
<time>2023-05-16T08:52:08Z</time>
</trkpt>
<trkpt lat="48.817332945764065" lon="9.866792941465974">
<ele>351.20000000000005</ele>
<time>2023-05-16T08:52:09Z</time>
</trkpt>
<trkpt lat="48.81736697629094" lon="9.866777937859297">
<ele>351.4</ele>
<time>2023-05-16T08:52:10Z</time>
</trkpt>
<trkpt lat="48.817399917170405" lon="9.866759916767478">
<ele>351.6</ele>
<time>2023-05-16T08:52:11Z</time>
</trkpt>
<trkpt lat="48.8174329418689" lon="9.866744996979833">
<ele>351.79999999999995</ele>
<time>2023-05-16T08:52:12Z</time>
</trkpt>
<trkpt lat="48.81746697239578" lon="9.866727981716394">
<ele>352</ele>
<time>2023-05-16T08:52:13Z</time>
</trkpt>
<trkpt lat="48.817499997094274" lon="9.866712978109717">
<ele>352</ele>
<time>2023-05-16T08:52:14Z</time>
</trkpt>
<trkpt lat="48.8175349496305" lon="9.86669797450304">
<ele>352.20000000000005</ele>
<time>2023-05-16T08:52:15Z</time>
</trkpt>
<trkpt lat="48.817566968500614" lon="9.866681965067983">
<ele>352.4</ele>
<time>2023-05-16T08:52:16Z</time>
</trkpt>
<trkpt lat="48.81759798154235" lon="9.866661932319403">
<ele>352.4</ele>
<time>2023-05-16T08:52:17Z</time>
</trkpt>
<trkpt lat="48.8176279887557" lon="9.866641983389854">
<ele>352.6</ele>
<time>2023-05-16T08:52:18Z</time>
</trkpt>
<trkpt lat="48.81765992380679" lon="9.866622956469655">
<ele>352.79999999999995</ele>
<time>2023-05-16T08:52:19Z</time>
</trkpt>
<trkpt lat="48.81769294850528" lon="9.866607952862978">
<ele>352.79999999999995</ele>
<time>2023-05-16T08:52:20Z</time>
</trkpt>
<trkpt lat="48.8177249673754" lon="9.86658993177116">
<ele>353</ele>
<time>2023-05-16T08:52:21Z</time>
</trkpt>
<trkpt lat="48.81775195710361" lon="9.866571994498372">
<ele>353.20000000000005</ele>
<time>2023-05-16T08:52:22Z</time>
</trkpt>
<trkpt lat="48.81777794100344" lon="9.866556990891695">
<ele>353.20000000000005</ele>
<time>2023-05-16T08:52:23Z</time>
</trkpt>
<trkpt lat="48.817806942388415" lon="9.866542993113399">
<ele>353.4</ele>
<time>2023-05-16T08:52:24Z</time>
</trkpt>
<trkpt lat="48.81783292628825" lon="9.866529917344451">
<ele>353.4</ele>
<time>2023-05-16T08:52:25Z</time>
</trkpt>
<trkpt lat="48.817866956815124" lon="9.866509968414903">
<ele>353.6</ele>
<time>2023-05-16T08:52:26Z</time>
</trkpt>
<trkpt lat="48.81789796985686" lon="9.866492953151464">
<ele>353.6</ele>
<time>2023-05-16T08:52:27Z</time>
</trkpt>
<trkpt lat="48.8179319165647" lon="9.866477949544787">
<ele>353.79999999999995</ele>
<time>2023-05-16T08:52:28Z</time>
</trkpt>
<trkpt lat="48.81796795874834" lon="9.866459928452969">
<ele>353.79999999999995</ele>
<time>2023-05-16T08:52:29Z</time>
</trkpt>
<trkpt lat="48.81800693459809" lon="9.866436962038279">
<ele>354</ele>
<time>2023-05-16T08:52:30Z</time>
</trkpt>
<trkpt lat="48.81804498843849" lon="9.866412989795208">
<ele>354</ele>
<time>2023-05-16T08:52:31Z</time>
</trkpt>
<trkpt lat="48.81808195263147" lon="9.866391951218247">
<ele>354.20000000000005</ele>
<time>2023-05-16T08:52:32Z</time>
</trkpt>
<trkpt lat="48.81811698898673" lon="9.86637493595481">
<ele>354.20000000000005</ele>
<time>2023-05-16T08:52:33Z</time>
</trkpt>
<trkpt lat="48.818151941522956" lon="9.866356998682022">
<ele>354.4</ele>
<time>2023-05-16T08:52:34Z</time>
</trkpt>
<trkpt lat="48.818189995363355" lon="9.866336965933442">
<ele>354.4</ele>
<time>2023-05-16T08:52:35Z</time>
</trkpt>
<trkpt lat="48.81822695955634" lon="9.866316933184862">
<ele>354.4</ele>
<time>2023-05-16T08:52:36Z</time>
</trkpt>
<trkpt lat="48.8182619959116" lon="9.866294972598553">
<ele>354.6</ele>
<time>2023-05-16T08:52:37Z</time>
</trkpt>
<trkpt lat="48.81829493679106" lon="9.866272928193212">
<ele>354.6</ele>
<time>2023-05-16T08:52:38Z</time>
</trkpt>
<trkpt lat="48.81833198480308" lon="9.86624795012176">
<ele>354.6</ele>
<time>2023-05-16T08:52:39Z</time>
</trkpt>
<trkpt lat="48.81836995482445" lon="9.866226995363832">
<ele>354.79999999999995</ele>
<time>2023-05-16T08:52:40Z</time>
</trkpt>
<trkpt lat="48.818406919017434" lon="9.866206962615252">
<ele>354.79999999999995</ele>
<time>2023-05-16T08:52:41Z</time>
</trkpt>
<trkpt lat="48.81844195537269" lon="9.866176955401897">
<ele>354.79999999999995</ele>
<time>2023-05-16T08:52:42Z</time>
</trkpt>
<trkpt lat="48.818472968414426" lon="9.866142924875021">
<ele>355</ele>
<time>2023-05-16T08:52:43Z</time>
</trkpt>
<trkpt lat="48.8184969406575" lon="9.866102943196893">
<ele>355</ele>
<time>2023-05-16T08:52:44Z</time>
</trkpt>
<trkpt lat="48.818512950092554" lon="9.866054998710752">
<ele>355</ele>
<time>2023-05-16T08:52:45Z</time>
</trkpt>
<trkpt lat="48.81852493621409" lon="9.866006970405579">
<ele>355.20000000000005</ele>
<time>2023-05-16T08:52:46Z</time>
</trkpt>
<trkpt lat="48.818532982841134" lon="9.865957936272025">
<ele>355.20000000000005</ele>
<time>2023-05-16T08:52:47Z</time>
</trkpt>
<trkpt lat="48.81854195147753" lon="9.865906974300742">
<ele>355.4</ele>
<time>2023-05-16T08:52:48Z</time>
</trkpt>
<trkpt lat="48.8185519259423" lon="9.865854922682047">
<ele>355.6</ele>
<time>2023-05-16T08:52:49Z</time>
</trkpt>
<trkpt lat="48.81856491789222" lon="9.865807984024286">
<ele>355.6</ele>
<time>2023-05-16T08:52:50Z</time>
</trkpt>
<trkpt lat="48.818581933155656" lon="9.865764984861016">
<ele>355.79999999999995</ele>
<time>2023-05-16T08:52:51Z</time>
</trkpt>
<trkpt lat="48.818601965904236" lon="9.865726931020617">
<ele>356</ele>
<time>2023-05-16T08:52:52Z</time>
</trkpt>
<trkpt lat="48.818621998652816" lon="9.86568795517087">
<ele>356.4</ele>
<time>2023-05-16T08:52:53Z</time>
</trkpt>
<trkpt lat="48.8186399359256" lon="9.865651996806264">
<ele>356.6</ele>
<time>2023-05-16T08:52:54Z</time>
</trkpt>
<trkpt lat="48.81865996867418" lon="9.865616960451007">
<ele>357</ele>
<time>2023-05-16T08:52:55Z</time>
</trkpt>
<trkpt lat="48.81868192926049" lon="9.86558292992413">
<ele>357.20000000000005</ele>
<time>2023-05-16T08:52:56Z</time>
</trkpt>
<trkpt lat="48.81870196200907" lon="9.865549989044666">
<ele>357.4</ele>
<time>2023-05-16T08:52:57Z</time>
</trkpt>
<trkpt lat="48.818722916767" lon="9.86551696434617">
<ele>357.79999999999995</ele>
<time>2023-05-16T08:52:58Z</time>
</trkpt>
<trkpt lat="48.81874294951558" lon="9.865484945476055">
<ele>358</ele>
<time>2023-05-16T08:52:59Z</time>
</trkpt>
<trkpt lat="48.81876197643578" lon="9.86545192077756">
<ele>358.4</ele>
<time>2023-05-16T08:53:00Z</time>
</trkpt>
<trkpt lat="48.81878192536533" lon="9.865416968241334">
<ele>358.6</ele>
<time>2023-05-16T08:53:01Z</time>
</trkpt>
<trkpt lat="48.81880195811391" lon="9.865384949371219">
<ele>359</ele>
<time>2023-05-16T08:53:02Z</time>
</trkpt>
<trkpt lat="48.81882299669087" lon="9.865349996834993">
<ele>359.20000000000005</ele>
<time>2023-05-16T08:53:03Z</time>
</trkpt>
<trkpt lat="48.81884294562042" lon="9.865316972136497">
<ele>359.4</ele>
<time>2023-05-16T08:53:04Z</time>
</trkpt>
<trkpt lat="48.81886197254062" lon="9.865282941609621">
<ele>359.79999999999995</ele>
<time>2023-05-16T08:53:05Z</time>
</trkpt>
<trkpt lat="48.818881921470165" lon="9.865249916911125">
<ele>360</ele>
<time>2023-05-16T08:53:06Z</time>
</trkpt>
<trkpt lat="48.818901954218745" lon="9.8652149643749">
<ele>360.20000000000005</ele>
<time>2023-05-16T08:53:07Z</time>
</trkpt>
<trkpt lat="48.818919975310564" lon="9.865179928019643">
<ele>360.6</ele>
<time>2023-05-16T08:53:08Z</time>
</trkpt>
<trkpt lat="48.818936990574" lon="9.865146987140179">
<ele>360.79999999999995</ele>
<time>2023-05-16T08:53:09Z</time>
</trkpt>
<trkpt lat="48.81895492784679" lon="9.865111950784922">
<ele>361</ele>
<time>2023-05-16T08:53:10Z</time>
</trkpt>
<trkpt lat="48.81897294893861" lon="9.865076998248696">
<ele>361.20000000000005</ele>
<time>2023-05-16T08:53:11Z</time>
</trkpt>
<trkpt lat="48.81899298168719" lon="9.86504296772182">
<ele>361.4</ele>
<time>2023-05-16T08:53:12Z</time>
</trkpt>
<trkpt lat="48.8190149422735" lon="9.865007931366563">
<ele>361.79999999999995</ele>
<time>2023-05-16T08:53:13Z</time>
</trkpt>
<trkpt lat="48.81903497502208" lon="9.864974990487099">
<ele>362</ele>
<time>2023-05-16T08:53:14Z</time>
</trkpt>
<trkpt lat="48.81905693560839" lon="9.864942971616983">
<ele>362.20000000000005</ele>
<time>2023-05-16T08:53:15Z</time>
</trkpt>
<trkpt lat="48.819074956700206" lon="9.864911958575249">
<ele>362.4</ele>
<time>2023-05-16T08:53:16Z</time>
</trkpt>
<trkpt lat="48.819091971963644" lon="9.864879939705133">
<ele>362.6</ele>
<time>2023-05-16T08:53:17Z</time>
</trkpt>
<trkpt lat="48.81910999305546" lon="9.864847920835018">
<ele>362.79999999999995</ele>
<time>2023-05-16T08:53:18Z</time>
</trkpt>
<trkpt lat="48.81912692449987" lon="9.864819925278425">
<ele>363</ele>
<time>2023-05-16T08:53:19Z</time>
</trkpt>
<trkpt lat="48.81914293393493" lon="9.864789918065071">
<ele>363.4</ele>
<time>2023-05-16T08:53:20Z</time>
</trkpt>
<trkpt lat="48.819157937541604" lon="9.864761922508478">
<ele>363.6</ele>
<time>2023-05-16T08:53:21Z</time>
</trkpt>
<trkpt lat="48.81917495280504" lon="9.864732921123505">
<ele>363.79999999999995</ele>
<time>2023-05-16T08:53:22Z</time>
</trkpt>
<trkpt lat="48.81918693892658" lon="9.864711966365576">
<ele>364</ele>
<time>2023-05-16T08:53:23Z</time>
</trkpt>
<trkpt lat="48.81919498555362" lon="9.864689921960235">
<ele>364.20000000000005</ele>
<time>2023-05-16T08:53:24Z</time>
</trkpt>
<trkpt lat="48.81920797750354" lon="9.864676930010319">
<ele>364.6</ele>
<time>2023-05-16T08:53:25Z</time>
</trkpt>
<trkpt lat="48.81921694613993" lon="9.864657986909151">
<ele>364.79999999999995</ele>
<time>2023-05-16T08:53:26Z</time>
</trkpt>
<trkpt lat="48.819221975281835" lon="9.864642983302474">
<ele>365</ele>
<time>2023-05-16T08:53:27Z</time>
</trkpt>
<trkpt lat="48.81923295557499" lon="9.864622950553894">
<ele>365.20000000000005</ele>
<time>2023-05-16T08:53:28Z</time>
</trkpt>
<trkpt lat="48.819246953353286" lon="9.864606941118836">
<ele>365.6</ele>
<time>2023-05-16T08:53:29Z</time>
</trkpt>
<trkpt lat="48.8192599453032" lon="9.86459193751216">
<ele>365.79999999999995</ele>
<time>2023-05-16T08:53:30Z</time>
</trkpt>
<trkpt lat="48.81927293725312" lon="9.864571988582611">
<ele>366</ele>
<time>2023-05-16T08:53:31Z</time>
</trkpt>
<trkpt lat="48.819286935031414" lon="9.864546926692128">
<ele>366.20000000000005</ele>
<time>2023-05-16T08:53:32Z</time>
</trkpt>
<trkpt lat="48.81930294446647" lon="9.864524966105819">
<ele>366.4</ele>
<time>2023-05-16T08:53:33Z</time>
</trkpt>
<trkpt lat="48.81932197138667" lon="9.864504933357239">
<ele>366.79999999999995</ele>
<time>2023-05-16T08:53:34Z</time>
</trkpt>
<trkpt lat="48.8193429261446" lon="9.86448498442769">
<ele>367</ele>
<time>2023-05-16T08:53:35Z</time>
</trkpt>
<trkpt lat="48.81935792975128" lon="9.864472998306155">
<ele>367.20000000000005</ele>
<time>2023-05-16T08:53:36Z</time>
</trkpt>
<trkpt lat="48.81938198581338" lon="9.864456988871098">
<ele>367.4</ele>
<time>2023-05-16T08:53:37Z</time>
</trkpt>
<trkpt lat="48.81943495944142" lon="9.864416923373938">
<ele>367.79999999999995</ele>
<time>2023-05-16T08:53:38Z</time>
</trkpt>
<trkpt lat="48.819459937512875" lon="9.864399991929531">
<ele>368</ele>
<time>2023-05-16T08:53:39Z</time>
</trkpt>
<trkpt lat="48.819482987746596" lon="9.864384988322854">
<ele>368.20000000000005</ele>
<time>2023-05-16T08:53:40Z</time>
</trkpt>
<trkpt lat="48.81950997747481" lon="9.864367973059416">
<ele>368.4</ele>
<time>2023-05-16T08:53:41Z</time>
</trkpt>
<trkpt lat="48.819541996344924" lon="9.864342994987965">
<ele>368.6</ele>
<time>2023-05-16T08:53:42Z</time>
</trkpt>
<trkpt lat="48.819564962759614" lon="9.864322962239385">
<ele>369</ele>
<time>2023-05-16T08:53:43Z</time>
</trkpt>
<trkpt lat="48.819584995508194" lon="9.864302929490805">
<ele>369.20000000000005</ele>
<time>2023-05-16T08:53:44Z</time>
</trkpt>
<trkpt lat="48.8196019269526" lon="9.864294966682792">
<ele>369.4</ele>
<time>2023-05-16T08:53:45Z</time>
</trkpt>
<trkpt lat="48.81961994804442" lon="9.864276945590973">
<ele>369.6</ele>
<time>2023-05-16T08:53:46Z</time>
</trkpt>
<trkpt lat="48.819631934165955" lon="9.864259930327535">
<ele>369.79999999999995</ele>
<time>2023-05-16T08:53:47Z</time>
</trkpt>
<trkpt lat="48.819651966914535" lon="9.864244926720858">
<ele>370</ele>
<time>2023-05-16T08:53:48Z</time>
</trkpt>
<trkpt lat="48.819694966077805" lon="9.864217936992645">
<ele>370.20000000000005</ele>
<time>2023-05-16T08:53:49Z</time>
</trkpt>
<trkpt lat="48.81972497329116" lon="9.864209974184632">
<ele>370.20000000000005</ele>
<time>2023-05-16T08:53:50Z</time>
</trkpt>
<trkpt lat="48.819757997989655" lon="9.864201927557588">
<ele>370.4</ele>
<time>2023-05-16T08:53:51Z</time>
</trkpt>
<trkpt lat="48.81979496218264" lon="9.86418692395091">
<ele>370.6</ele>
<time>2023-05-16T08:53:52Z</time>
</trkpt>
<trkpt lat="48.819822957739234" lon="9.864174937829375">
<ele>370.79999999999995</ele>
<time>2023-05-16T08:53:53Z</time>
</trkpt>
<trkpt lat="48.819849947467446" lon="9.864164963364601">
<ele>371</ele>
<time>2023-05-16T08:53:54Z</time>
</trkpt>
<trkpt lat="48.8198749255389" lon="9.864156916737556">
<ele>371.20000000000005</ele>
<time>2023-05-16T08:53:55Z</time>
</trkpt>
<trkpt lat="48.81992295384407" lon="9.864131938666105">
<ele>371.4</ele>
<time>2023-05-16T08:53:56Z</time>
</trkpt>
<trkpt lat="48.819971987977624" lon="9.864101931452751">
<ele>371.4</ele>
<time>2023-05-16T08:53:57Z</time>
</trkpt>
<trkpt lat="48.820014987140894" lon="9.86407795920968">
<ele>371.6</ele>
<time>2023-05-16T08:53:58Z</time>
</trkpt>
<trkpt lat="48.82005295716226" lon="9.864059938117862">
<ele>371.79999999999995</ele>
<time>2023-05-16T08:53:59Z</time>
</trkpt>
<trkpt lat="48.82008698768914" lon="9.864044934511185">
<ele>372</ele>
<time>2023-05-16T08:54:00Z</time>
</trkpt>
<trkpt lat="48.82011699490249" lon="9.86403496004641">
<ele>372.20000000000005</ele>
<time>2023-05-16T08:54:01Z</time>
</trkpt>
<trkpt lat="48.820147924125195" lon="9.864022973924875">
<ele>372.4</ele>
<time>2023-05-16T08:54:02Z</time>
</trkpt>
<trkpt lat="48.82018296048045" lon="9.864004952833056">
<ele>372.6</ele>
<time>2023-05-16T08:54:03Z</time>
</trkpt>
<trkpt lat="48.820211961865425" lon="9.863987937569618">
<ele>372.79999999999995</ele>
<time>2023-05-16T08:54:04Z</time>
</trkpt>
<trkpt lat="48.82025194354355" lon="9.863961953669786">
<ele>373</ele>
<time>2023-05-16T08:54:05Z</time>
</trkpt>
<trkpt lat="48.82028697989881" lon="9.863941920921206">
<ele>373.4</ele>
<time>2023-05-16T08:54:06Z</time>
</trkpt>
<trkpt lat="48.820316987112164" lon="9.863922977820039">
<ele>373.6</ele>
<time>2023-05-16T08:54:07Z</time>
</trkpt>
<trkpt lat="48.82035495713353" lon="9.863896993920207">
<ele>373.79999999999995</ele>
<time>2023-05-16T08:54:08Z</time>
</trkpt>
<trkpt lat="48.82038798183203" lon="9.863876961171627">
<ele>374</ele>
<time>2023-05-16T08:54:09Z</time>
</trkpt>
<trkpt lat="48.82041991688311" lon="9.863856928423047">
<ele>374.20000000000005</ele>
<time>2023-05-16T08:54:10Z</time>
</trkpt>
<trkpt lat="48.820451935753226" lon="9.86383999697864">
<ele>374.4</ele>
<time>2023-05-16T08:54:11Z</time>
</trkpt>
<trkpt lat="48.82048294879496" lon="9.863821975886822">
<ele>374.6</ele>
<time>2023-05-16T08:54:12Z</time>
</trkpt>
<trkpt lat="48.820512956008315" lon="9.863806972280145">
<ele>374.79999999999995</ele>
<time>2023-05-16T08:54:13Z</time>
</trkpt>
<trkpt lat="48.82054497487843" lon="9.863789957016706">
<ele>375</ele>
<time>2023-05-16T08:54:14Z</time>
</trkpt>
<trkpt lat="48.820574982091784" lon="9.863772941753268">
<ele>375.20000000000005</ele>
<time>2023-05-16T08:54:15Z</time>
</trkpt>
<trkpt lat="48.82060498930514" lon="9.86375693231821">
<ele>375.4</ele>
<time>2023-05-16T08:54:16Z</time>
</trkpt>
<trkpt lat="48.82063298486173" lon="9.863741928711534">
<ele>375.6</ele>
<time>2023-05-16T08:54:17Z</time>
</trkpt>
<trkpt lat="48.820662992075086" lon="9.863726925104856">
<ele>376</ele>
<time>2023-05-16T08:54:18Z</time>
</trkpt>
<trkpt lat="48.82069299928844" lon="9.86370999366045">
<ele>376.20000000000005</ele>
<time>2023-05-16T08:54:19Z</time>
</trkpt>
<trkpt lat="48.82071998901665" lon="9.863697923719883">
<ele>376.4</ele>
<time>2023-05-16T08:54:20Z</time>
</trkpt>
<trkpt lat="48.820749996230006" lon="9.863687949255109">
<ele>376.6</ele>
<time>2023-05-16T08:54:21Z</time>
</trkpt>
<trkpt lat="48.82077991962433" lon="9.863682920113206">
<ele>376.79999999999995</ele>
<time>2023-05-16T08:54:22Z</time>
</trkpt>
<trkpt lat="48.820811938494444" lon="9.863679986447096">
<ele>377</ele>
<time>2023-05-16T08:54:23Z</time>
</trkpt>
<trkpt lat="48.82084295153618" lon="9.863677974790335">
<ele>377.20000000000005</ele>
<time>2023-05-16T08:54:24Z</time>
</trkpt>
<trkpt lat="48.820876982063055" lon="9.863677974790335">
<ele>377.4</ele>
<time>2023-05-16T08:54:25Z</time>
</trkpt>
<trkpt lat="48.82091193459928" lon="9.863674957305193">
<ele>377.6</ele>
<time>2023-05-16T08:54:26Z</time>
</trkpt>
<trkpt lat="48.820944959297776" lon="9.863674957305193">
<ele>377.79999999999995</ele>
<time>2023-05-16T08:54:27Z</time>
</trkpt>
<trkpt lat="48.82097496651113" lon="9.863672945648432">
<ele>378</ele>
<time>2023-05-16T08:54:28Z</time>
</trkpt>
<trkpt lat="48.821004973724484" lon="9.863674957305193">
<ele>378.20000000000005</ele>
<time>2023-05-16T08:54:29Z</time>
</trkpt>
<trkpt lat="48.8210369925946" lon="9.863677974790335">
<ele>378.4</ele>
<time>2023-05-16T08:54:30Z</time>
</trkpt>
<trkpt lat="48.821066999807954" lon="9.863681998103857">
<ele>378.6</ele>
<time>2023-05-16T08:54:31Z</time>
</trkpt>
<trkpt lat="48.82109994068742" lon="9.863679986447096">
<ele>378.79999999999995</ele>
<time>2023-05-16T08:54:32Z</time>
</trkpt>
<trkpt lat="48.82113195955753" lon="9.863674957305193">
<ele>378.79999999999995</ele>
<time>2023-05-16T08:54:33Z</time>
</trkpt>
<trkpt lat="48.82116196677089" lon="9.863667916506529">
<ele>379</ele>
<time>2023-05-16T08:54:34Z</time>
</trkpt>
<trkpt lat="48.82118996232748" lon="9.863654924556613">
<ele>379.20000000000005</ele>
<time>2023-05-16T08:54:35Z</time>
</trkpt>
<trkpt lat="48.82121494039893" lon="9.863637993112206">
<ele>379.4</ele>
<time>2023-05-16T08:54:36Z</time>
</trkpt>
<trkpt lat="48.82123698480427" lon="9.863611925393343">
<ele>379.6</ele>
<time>2023-05-16T08:54:37Z</time>
</trkpt>
<trkpt lat="48.82125492207706" lon="9.86357999034226">
<ele>379.79999999999995</ele>
<time>2023-05-16T08:54:38Z</time>
</trkpt>
<trkpt lat="48.82126799784601" lon="9.863542942330241">
<ele>379.79999999999995</ele>
<time>2023-05-16T08:54:39Z</time>
</trkpt>
<trkpt lat="48.8212769664824" lon="9.863506983965635">
<ele>380</ele>
<time>2023-05-16T08:54:40Z</time>
</trkpt>
<trkpt lat="48.82128291763365" lon="9.863462978973985">
<ele>380.20000000000005</ele>
<time>2023-05-16T08:54:41Z</time>
</trkpt>
<trkpt lat="48.82128291763365" lon="9.863419979810715">
<ele>380.4</ele>
<time>2023-05-16T08:54:42Z</time>
</trkpt>
<trkpt lat="48.82127495482564" lon="9.863377986475825">
<ele>380.6</ele>
<time>2023-05-16T08:54:43Z</time>
</trkpt>
<trkpt lat="48.82125995121896" lon="9.863337920978665">
<ele>380.79999999999995</ele>
<time>2023-05-16T08:54:44Z</time>
</trkpt>
<trkpt lat="48.82123991847038" lon="9.86330296844244">
<ele>381</ele>
<time>2023-05-16T08:54:45Z</time>
</trkpt>
<trkpt lat="48.82121795788407" lon="9.863271955400705">
<ele>381.20000000000005</ele>
<time>2023-05-16T08:54:46Z</time>
</trkpt>
<trkpt lat="48.82119691930711" lon="9.863252928480506">
<ele>381.4</ele>
<time>2023-05-16T08:54:47Z</time>
</trkpt>
<trkpt lat="48.82116791792214" lon="9.863237924873829">
<ele>381.6</ele>
<time>2023-05-16T08:54:48Z</time>
</trkpt>
<trkpt lat="48.82114193402231" lon="9.863229962065816">
<ele>381.6</ele>
<time>2023-05-16T08:54:49Z</time>
</trkpt>
<trkpt lat="48.821114944294095" lon="9.863222921267152">
<ele>381.79999999999995</ele>
<time>2023-05-16T08:54:50Z</time>
</trkpt>
<trkpt lat="48.8210869487375" lon="9.863224932923913">
<ele>382</ele>
<time>2023-05-16T08:54:51Z</time>
</trkpt>
<trkpt lat="48.82106197066605" lon="9.863231973722577">
<ele>382.20000000000005</ele>
<time>2023-05-16T08:54:52Z</time>
</trkpt>
<trkpt lat="48.8210369925946" lon="9.863241948187351">
<ele>382.4</ele>
<time>2023-05-16T08:54:53Z</time>
</trkpt>
<trkpt lat="48.821009919047356" lon="9.863251922652125">
<ele>382.4</ele>
<time>2023-05-16T08:54:54Z</time>
</trkpt>
<trkpt lat="48.82098192349076" lon="9.863256951794028">
<ele>382.6</ele>
<time>2023-05-16T08:54:55Z</time>
</trkpt>
<trkpt lat="48.82095996290445" lon="9.863269943743944">
<ele>382.79999999999995</ele>
<time>2023-05-16T08:54:56Z</time>
</trkpt>
<trkpt lat="48.820924926549196" lon="9.86328192986548">
<ele>383</ele>
<time>2023-05-16T08:54:57Z</time>
</trkpt>
<trkpt lat="48.82089198566973" lon="9.863294921815395">
<ele>383</ele>
<time>2023-05-16T08:54:58Z</time>
</trkpt>
<trkpt lat="48.820856949314475" lon="9.863306991755962">
<ele>383.20000000000005</ele>
<time>2023-05-16T08:54:59Z</time>
</trkpt>
<trkpt lat="48.82082995958626" lon="9.863322917371988">
<ele>383.4</ele>
<time>2023-05-16T08:55:00Z</time>
</trkpt>
<trkpt lat="48.82079995237291" lon="9.863331969827414">
<ele>383.6</ele>
<time>2023-05-16T08:55:01Z</time>
</trkpt>
<trkpt lat="48.82077698595822" lon="9.863336998969316">
<ele>383.79999999999995</ele>
<time>2023-05-16T08:55:02Z</time>
</trkpt>
<trkpt lat="48.820749996230006" lon="9.863336998969316">
<ele>384</ele>
<time>2023-05-16T08:55:03Z</time>
</trkpt>
<trkpt lat="48.82072191685438" lon="9.863331969827414">
<ele>384.20000000000005</ele>
<time>2023-05-16T08:55:04Z</time>
</trkpt>
<trkpt lat="48.82069492712617" lon="9.863329958170652">
<ele>384.20000000000005</ele>
<time>2023-05-16T08:55:05Z</time>
</trkpt>
<trkpt lat="48.820666931569576" lon="9.86332492902875">
<ele>384.4</ele>
<time>2023-05-16T08:55:06Z</time>
</trkpt>
<trkpt lat="48.82064698264003" lon="9.863317972049117">
<ele>384.6</ele>
<time>2023-05-16T08:55:07Z</time>
</trkpt>
<trkpt lat="48.82062493823469" lon="9.863311937078834">
<ele>385</ele>
<time>2023-05-16T08:55:08Z</time>
</trkpt>
<trkpt lat="48.82060498930514" lon="9.863306991755962">
<ele>385.20000000000005</ele>
<time>2023-05-16T08:55:09Z</time>
</trkpt>
<trkpt lat="48.820579927414656" lon="9.863297939300537">
<ele>385.4</ele>
<time>2023-05-16T08:55:10Z</time>
</trkpt>
<trkpt lat="48.82055193185806" lon="9.863291988149285">
<ele>385.6</ele>
<time>2023-05-16T08:55:11Z</time>
</trkpt>
<trkpt lat="48.82052695378661" lon="9.863279918208718">
<ele>385.79999999999995</ele>
<time>2023-05-16T08:55:12Z</time>
</trkpt>
<trkpt lat="48.82049795240164" lon="9.863269943743944">
<ele>386</ele>
<time>2023-05-16T08:55:13Z</time>
</trkpt>
<trkpt lat="48.820469956845045" lon="9.863266926258802">
<ele>386.4</ele>
<time>2023-05-16T08:55:14Z</time>
</trkpt>
<trkpt lat="48.82043693214655" lon="9.863257957622409">
<ele>386.6</ele>
<time>2023-05-16T08:55:15Z</time>
</trkpt>
<trkpt lat="48.820402985438704" lon="9.863256951794028">
<ele>386.79999999999995</ele>
<time>2023-05-16T08:55:16Z</time>
</trkpt>
<trkpt lat="48.82036996074021" lon="9.863251922652125">
<ele>387</ele>
<time>2023-05-16T08:55:17Z</time>
</trkpt>
<trkpt lat="48.82032997906208" lon="9.863231973722577">
<ele>387.4</ele>
<time>2023-05-16T08:55:18Z</time>
</trkpt>
<trkpt lat="48.82029192522168" lon="9.863214958459139">
<ele>387.6</ele>
<time>2023-05-16T08:55:19Z</time>
</trkpt>
<trkpt lat="48.82026191800833" lon="9.863202972337604">
<ele>387.79999999999995</ele>
<time>2023-05-16T08:55:20Z</time>
</trkpt>
<trkpt lat="48.820232916623354" lon="9.863189980387688">
<ele>388</ele>
<time>2023-05-16T08:55:21Z</time>
</trkpt>
<trkpt lat="48.82020693272352" lon="9.863179922103882">
<ele>388.20000000000005</ele>
<time>2023-05-16T08:55:22Z</time>
</trkpt>
<trkpt lat="48.82017793133855" lon="9.863171959295869">
<ele>388.4</ele>
<time>2023-05-16T08:55:23Z</time>
</trkpt>
<trkpt lat="48.820149935781956" lon="9.863161984831095">
<ele>388.6</ele>
<time>2023-05-16T08:55:24Z</time>
</trkpt>
<trkpt lat="48.82012194022536" lon="9.863151926547289">
<ele>388.79999999999995</ele>
<time>2023-05-16T08:55:25Z</time>
</trkpt>
<trkpt lat="48.82009193301201" lon="9.863137928768992">
<ele>389</ele>
<time>2023-05-16T08:55:26Z</time>
</trkpt>
<trkpt lat="48.820059997960925" lon="9.863124936819077">
<ele>389.20000000000005</ele>
<time>2023-05-16T08:55:27Z</time>
</trkpt>
<trkpt lat="48.82002797909081" lon="9.8631099332124">
<ele>389.4</ele>
<time>2023-05-16T08:55:28Z</time>
</trkpt>
<trkpt lat="48.819996966049075" lon="9.863096941262484">
<ele>389.6</ele>
<time>2023-05-16T08:55:29Z</time>
</trkpt>
<trkpt lat="48.8199679646641" lon="9.863079925999045">
<ele>389.79999999999995</ele>
<time>2023-05-16T08:55:30Z</time>
</trkpt>
<trkpt lat="48.81993996910751" lon="9.863061988726258">
<ele>390</ele>
<time>2023-05-16T08:55:31Z</time>
</trkpt>
<trkpt lat="48.819909961894155" lon="9.863037932664156">
<ele>390.20000000000005</ele>
<time>2023-05-16T08:55:32Z</time>
</trkpt>
<trkpt lat="48.81988297216594" lon="9.863014966249466">
<ele>390.4</ele>
<time>2023-05-16T08:55:33Z</time>
</trkpt>
<trkpt lat="48.81985698826611" lon="9.862989988178015">
<ele>390.6</ele>
<time>2023-05-16T08:55:34Z</time>
</trkpt>
<trkpt lat="48.8198299985379" lon="9.862962998449802">
<ele>390.6</ele>
<time>2023-05-16T08:55:35Z</time>
</trkpt>
<trkpt lat="48.819802924990654" lon="9.86293994821608">
<ele>390.79999999999995</ele>
<time>2023-05-16T08:55:36Z</time>
</trkpt>
<trkpt lat="48.8197779469192" lon="9.86291698180139">
<ele>391</ele>
<time>2023-05-16T08:55:37Z</time>
</trkpt>
<trkpt lat="48.81975196301937" lon="9.862889992073178">
<ele>391.20000000000005</ele>
<time>2023-05-16T08:55:38Z</time>
</trkpt>
<trkpt lat="48.8197229616344" lon="9.86285294406116">
<ele>391.20000000000005</ele>
<time>2023-05-16T08:55:39Z</time>
</trkpt>
<trkpt lat="48.819697983562946" lon="9.862821931019425">
<ele>391.4</ele>
<time>2023-05-16T08:55:40Z</time>
</trkpt>
<trkpt lat="48.81967292167246" lon="9.86278798431158">
<ele>391.6</ele>
<time>2023-05-16T08:55:41Z</time>
</trkpt>
<trkpt lat="48.819652972742915" lon="9.862756971269846">
<ele>391.79999999999995</ele>
<time>2023-05-16T08:55:42Z</time>
</trkpt>
<trkpt lat="48.819631934165955" lon="9.862719923257828">
<ele>392</ele>
<time>2023-05-16T08:55:43Z</time>
</trkpt>
<trkpt lat="48.819611985236406" lon="9.862684970721602">
<ele>392</ele>
<time>2023-05-16T08:55:44Z</time>
</trkpt>
<trkpt lat="48.819591952487826" lon="9.862644989043474">
<ele>392.20000000000005</ele>
<time>2023-05-16T08:55:45Z</time>
</trkpt>
<trkpt lat="48.819571919739246" lon="9.862604923546314">
<ele>392.4</ele>
<time>2023-05-16T08:55:46Z</time>
</trkpt>
<trkpt lat="48.8195519708097" lon="9.862567959353328">
<ele>392.6</ele>
<time>2023-05-16T08:55:47Z</time>
</trkpt>
<trkpt lat="48.81952992640436" lon="9.86253292299807">
<ele>393</ele>
<time>2023-05-16T08:55:48Z</time>
</trkpt>
<trkpt lat="48.81950997747481" lon="9.862497970461845">
<ele>393.20000000000005</ele>
<time>2023-05-16T08:55:49Z</time>
</trkpt>
<trkpt lat="48.81948793306947" lon="9.862461928278208">
<ele>393.4</ele>
<time>2023-05-16T08:55:50Z</time>
</trkpt>
<trkpt lat="48.81946798413992" lon="9.862426975741982">
<ele>393.6</ele>
<time>2023-05-16T08:55:51Z</time>
</trkpt>
<trkpt lat="48.8194499630481" lon="9.862391939386725">
<ele>394</ele>
<time>2023-05-16T08:55:52Z</time>
</trkpt>
<trkpt lat="48.81942993029952" lon="9.86235799267888">
<ele>394.20000000000005</ele>
<time>2023-05-16T08:55:53Z</time>
</trkpt>
<trkpt lat="48.81940998136997" lon="9.862322956323624">
<ele>394.4</ele>
<time>2023-05-16T08:55:54Z</time>
</trkpt>
<trkpt lat="48.81938994862139" lon="9.862286997959018">
<ele>394.79999999999995</ele>
<time>2023-05-16T08:55:55Z</time>
</trkpt>
<trkpt lat="48.819372933357954" lon="9.862249949947">
<ele>395</ele>
<time>2023-05-16T08:55:56Z</time>
</trkpt>
<trkpt lat="48.81935792975128" lon="9.862211979925632">
<ele>395.20000000000005</ele>
<time>2023-05-16T08:55:57Z</time>
</trkpt>
<trkpt lat="48.81934493780136" lon="9.862171998247504">
<ele>395.6</ele>
<time>2023-05-16T08:55:58Z</time>
</trkpt>
<trkpt lat="48.81933798082173" lon="9.862127993255854">
<ele>395.79999999999995</ele>
<time>2023-05-16T08:55:59Z</time>
</trkpt>
<trkpt lat="48.819332951679826" lon="9.862087927758694">
<ele>396</ele>
<time>2023-05-16T08:56:00Z</time>
</trkpt>
<trkpt lat="48.81933697499335" lon="9.862047946080565">
<ele>396.20000000000005</ele>
<time>2023-05-16T08:56:01Z</time>
</trkpt>
<trkpt lat="48.8193479552865" lon="9.86201198771596">
<ele>396.4</ele>
<time>2023-05-16T08:56:02Z</time>
</trkpt>
<trkpt lat="48.8193619530648" lon="9.861976951360703">
<ele>396.6</ele>
<time>2023-05-16T08:56:03Z</time>
</trkpt>
<trkpt lat="48.81937997415662" lon="9.861947949975729">
<ele>396.79999999999995</ele>
<time>2023-05-16T08:56:04Z</time>
</trkpt>
<trkpt lat="48.81940294057131" lon="9.861927917227149">
<ele>397</ele>
<time>2023-05-16T08:56:05Z</time>
</trkpt>
<trkpt lat="48.81942791864276" lon="9.861914925277233">
<ele>397.20000000000005</ele>
<time>2023-05-16T08:56:06Z</time>
</trkpt>
<trkpt lat="48.81945692002773" lon="9.8619079682976">
<ele>397.4</ele>
<time>2023-05-16T08:56:07Z</time>
</trkpt>
<trkpt lat="48.81948692724109" lon="9.86190696246922">
<ele>397.6</ele>
<time>2023-05-16T08:56:08Z</time>
</trkpt>
<trkpt lat="48.81951794028282" lon="9.861911991611123">
<ele>397.79999999999995</ele>
<time>2023-05-16T08:56:09Z</time>
</trkpt>
<trkpt lat="48.819547947496176" lon="9.8619269952178">
<ele>398</ele>
<time>2023-05-16T08:56:10Z</time>
</trkpt>
<trkpt lat="48.81957493722439" lon="9.861947949975729">
<ele>398.20000000000005</ele>
<time>2023-05-16T08:56:11Z</time>
</trkpt>
<trkpt lat="48.81960293278098" lon="9.86197292804718">
<ele>398.20000000000005</ele>
<time>2023-05-16T08:56:12Z</time>
</trkpt>
<trkpt lat="48.819632939994335" lon="9.861994972452521">
<ele>398.4</ele>
<time>2023-05-16T08:56:13Z</time>
</trkpt>
<trkpt lat="48.81966495886445" lon="9.86201693303883">
<ele>398.4</ele>
<time>2023-05-16T08:56:14Z</time>
</trkpt>
<trkpt lat="48.819697983562946" lon="9.862037971615791">
<ele>398.6</ele>
<time>2023-05-16T08:56:15Z</time>
</trkpt>
<trkpt lat="48.81972991861403" lon="9.86205699853599">
<ele>398.79999999999995</ele>
<time>2023-05-16T08:56:16Z</time>
</trkpt>
<trkpt lat="48.819759925827384" lon="9.862069990485907">
<ele>398.79999999999995</ele>
<time>2023-05-16T08:56:17Z</time>
</trkpt>
<trkpt lat="48.8197919446975" lon="9.862081976607442">
<ele>399</ele>
<time>2023-05-16T08:56:18Z</time>
</trkpt>
<trkpt lat="48.819822957739234" lon="9.862092956900597">
<ele>399</ele>
<time>2023-05-16T08:56:19Z</time>
</trkpt>
<trkpt lat="48.81985698826611" lon="9.862094968557358">
<ele>399.20000000000005</ele>
<time>2023-05-16T08:56:20Z</time>
</trkpt>
<trkpt lat="48.81988791748881" lon="9.862087927758694">
<ele>399.4</ele>
<time>2023-05-16T08:56:21Z</time>
</trkpt>
<trkpt lat="48.81991792470217" lon="9.862084994092584">
<ele>399.4</ele>
<time>2023-05-16T08:56:22Z</time>
</trkpt>
<trkpt lat="48.81994994357228" lon="9.862082982435822">
<ele>399.6</ele>
<time>2023-05-16T08:56:23Z</time>
</trkpt>
<trkpt lat="48.819977939128876" lon="9.86207795329392">
<ele>399.6</ele>
<time>2023-05-16T08:56:24Z</time>
</trkpt>
<trkpt lat="48.82000794634223" lon="9.862069990485907">
<ele>399.79999999999995</ele>
<time>2023-05-16T08:56:25Z</time>
</trkpt>
<trkpt lat="48.820037953555584" lon="9.862061943858862">
<ele>400</ele>
<time>2023-05-16T08:56:26Z</time>
</trkpt>
<trkpt lat="48.82006695494056" lon="9.86205498687923">
<ele>400.20000000000005</ele>
<time>2023-05-16T08:56:27Z</time>
</trkpt>
<trkpt lat="48.82009495049715" lon="9.862047946080565">
<ele>400.4</ele>
<time>2023-05-16T08:56:28Z</time>
</trkpt>
<trkpt lat="48.82012294605374" lon="9.862041994929314">
<ele>400.6</ele>
<time>2023-05-16T08:56:29Z</time>
</trkpt>
<trkpt lat="48.8201529532671" lon="9.862029924988747">
<ele>400.79999999999995</ele>
<time>2023-05-16T08:56:30Z</time>
</trkpt>
<trkpt lat="48.82018296048045" lon="9.862019950523973">
<ele>401</ele>
<time>2023-05-16T08:56:31Z</time>
</trkpt>
<trkpt lat="48.820211961865425" lon="9.862007964402437">
<ele>401.20000000000005</ele>
<time>2023-05-16T08:56:32Z</time>
</trkpt>
<trkpt lat="48.820236939936876" lon="9.86199296079576">
<ele>401.4</ele>
<time>2023-05-16T08:56:33Z</time>
</trkpt>
<trkpt lat="48.8202599901706" lon="9.861977957189083">
<ele>401.79999999999995</ele>
<time>2023-05-16T08:56:34Z</time>
</trkpt>
<trkpt lat="48.82028496824205" lon="9.861959936097264">
<ele>402</ele>
<time>2023-05-16T08:56:35Z</time>
</trkpt>
<trkpt lat="48.8203099463135" lon="9.861942920833826">
<ele>402.20000000000005</ele>
<time>2023-05-16T08:56:36Z</time>
</trkpt>
<trkpt lat="48.82033693604171" lon="9.8619269952178">
<ele>402.4</ele>
<time>2023-05-16T08:56:37Z</time>
</trkpt>
<trkpt lat="48.820362919941545" lon="9.861904950812459">
<ele>402.6</ele>
<time>2023-05-16T08:56:38Z</time>
</trkpt>
<trkpt lat="48.82038798183203" lon="9.861881984397769">
<ele>402.79999999999995</ele>
<time>2023-05-16T08:56:39Z</time>
</trkpt>
<trkpt lat="48.8204119540751" lon="9.861856922507286">
<ele>403</ele>
<time>2023-05-16T08:56:40Z</time>
</trkpt>
<trkpt lat="48.82043693214655" lon="9.861829932779074">
<ele>403.4</ele>
<time>2023-05-16T08:56:41Z</time>
</trkpt>
<trkpt lat="48.82045998238027" lon="9.861806966364384">
<ele>403.6</ele>
<time>2023-05-16T08:56:42Z</time>
</trkpt>
<trkpt lat="48.82048194296658" lon="9.861781988292933">
<ele>403.79999999999995</ele>
<time>2023-05-16T08:56:43Z</time>
</trkpt>
<trkpt lat="48.8204999640584" lon="9.861752986907959">
<ele>404</ele>
<time>2023-05-16T08:56:44Z</time>
</trkpt>
<trkpt lat="48.82051798515022" lon="9.861722979694605">
<ele>404.20000000000005</ele>
<time>2023-05-16T08:56:45Z</time>
</trkpt>
<trkpt lat="48.820536928251386" lon="9.86169196665287">
<ele>404.4</ele>
<time>2023-05-16T08:56:46Z</time>
</trkpt>
<trkpt lat="48.82055293768644" lon="9.861656930297613">
<ele>404.6</ele>
<time>2023-05-16T08:56:47Z</time>
</trkpt>
<trkpt lat="48.82057196460664" lon="9.861621977761388">
<ele>404.79999999999995</ele>
<time>2023-05-16T08:56:48Z</time>
</trkpt>
<trkpt lat="48.82059199735522" lon="9.86158694140613">
<ele>404.79999999999995</ele>
<time>2023-05-16T08:56:49Z</time>
</trkpt>
<trkpt lat="48.82060792297125" lon="9.861552994698286">
<ele>405</ele>
<time>2023-05-16T08:56:50Z</time>
</trkpt>
<trkpt lat="48.82062493823469" lon="9.86151996999979">
<ele>405.20000000000005</ele>
<time>2023-05-16T08:56:51Z</time>
</trkpt>
<trkpt lat="48.820639941841364" lon="9.861484933644533">
<ele>405.4</ele>
<time>2023-05-16T08:56:52Z</time>
</trkpt>
<trkpt lat="48.8206569571048" lon="9.861446963623166">
<ele>405.6</ele>
<time>2023-05-16T08:56:53Z</time>
</trkpt>
<trkpt lat="48.82067296653986" lon="9.86140999943018">
<ele>405.79999999999995</ele>
<time>2023-05-16T08:56:54Z</time>
</trkpt>
<trkpt lat="48.8206899818033" lon="9.86137194558978">
<ele>405.79999999999995</ele>
<time>2023-05-16T08:56:55Z</time>
</trkpt>
<trkpt lat="48.820704985409975" lon="9.861331963911653">
<ele>406</ele>
<time>2023-05-16T08:56:56Z</time>
</trkpt>
<trkpt lat="48.82071697153151" lon="9.861292988061905">
<ele>406.20000000000005</ele>
<time>2023-05-16T08:56:57Z</time>
</trkpt>
<trkpt lat="48.820729963481426" lon="9.861254934221506">
<ele>406.4</ele>
<time>2023-05-16T08:56:58Z</time>
</trkpt>
<trkpt lat="48.82074194960296" lon="9.86121797002852">
<ele>406.6</ele>
<time>2023-05-16T08:56:59Z</time>
</trkpt>
<trkpt lat="48.820752929896116" lon="9.86117991618812">
<ele>406.79999999999995</ele>
<time>2023-05-16T08:57:00Z</time>
</trkpt>
<trkpt lat="48.82076499983668" lon="9.861139934509993">
<ele>407</ele>
<time>2023-05-16T08:57:01Z</time>
</trkpt>
<trkpt lat="48.8207779917866" lon="9.861097941175103">
<ele>407.20000000000005</ele>
<time>2023-05-16T08:57:02Z</time>
</trkpt>
<trkpt lat="48.820791989564896" lon="9.861057959496975">
<ele>407.4</ele>
<time>2023-05-16T08:57:03Z</time>
</trkpt>
<trkpt lat="48.82080498151481" lon="9.861019989475608">
<ele>407.6</ele>
<time>2023-05-16T08:57:04Z</time>
</trkpt>
<trkpt lat="48.820811938494444" lon="9.860977996140718">
<ele>407.79999999999995</ele>
<time>2023-05-16T08:57:05Z</time>
</trkpt>
<trkpt lat="48.82081797346473" lon="9.860937930643559">
<ele>408</ele>
<time>2023-05-16T08:57:06Z</time>
</trkpt>
<trkpt lat="48.82082199677825" lon="9.860894931480289">
<ele>408.20000000000005</ele>
<time>2023-05-16T08:57:07Z</time>
</trkpt>
<trkpt lat="48.82082694210112" lon="9.860851932317019">
<ele>408.4</ele>
<time>2023-05-16T08:57:08Z</time>
</trkpt>
<trkpt lat="48.82082995958626" lon="9.860807927325368">
<ele>408.6</ele>
<time>2023-05-16T08:57:09Z</time>
</trkpt>
<trkpt lat="48.820834988728166" lon="9.860764928162098">
<ele>408.79999999999995</ele>
<time>2023-05-16T08:57:10Z</time>
</trkpt>
<trkpt lat="48.82084295153618" lon="9.860721928998828">
<ele>409.20000000000005</ele>
<time>2023-05-16T08:57:11Z</time>
</trkpt>
<trkpt lat="48.82084999233484" lon="9.860672978684306">
<ele>409.4</ele>
<time>2023-05-16T08:57:12Z</time>
</trkpt>
<trkpt lat="48.82085292600095" lon="9.860624950379133">
<ele>409.6</ele>
<time>2023-05-16T08:57:13Z</time>
</trkpt>
<trkpt lat="48.820856949314475" lon="9.860579939559102">
<ele>409.79999999999995</ele>
<time>2023-05-16T08:57:14Z</time>
</trkpt>
<trkpt lat="48.82086298428476" lon="9.86053291708231">
<ele>409.79999999999995</ele>
<time>2023-05-16T08:57:15Z</time>
</trkpt>
<trkpt lat="48.82086994126439" lon="9.86048991791904">
<ele>410</ele>
<time>2023-05-16T08:57:16Z</time>
</trkpt>
<trkpt lat="48.820876982063055" lon="9.86044691875577">
<ele>410.20000000000005</ele>
<time>2023-05-16T08:57:17Z</time>
</trkpt>
<trkpt lat="48.820881927385926" lon="9.86040299758315">
<ele>410.4</ele>
<time>2023-05-16T08:57:18Z</time>
</trkpt>
<trkpt lat="48.82088695652783" lon="9.86036192625761">
<ele>410.6</ele>
<time>2023-05-16T08:57:19Z</time>
</trkpt>
<trkpt lat="48.82089299149811" lon="9.860321944579482">
<ele>410.79999999999995</ele>
<time>2023-05-16T08:57:20Z</time>
</trkpt>
<trkpt lat="48.820901960134506" lon="9.860279951244593">
<ele>411</ele>
<time>2023-05-16T08:57:21Z</time>
</trkpt>
<trkpt lat="48.82090992294252" lon="9.860236952081323">
<ele>411.20000000000005</ele>
<time>2023-05-16T08:57:22Z</time>
</trkpt>
<trkpt lat="48.82091696374118" lon="9.860196970403194">
<ele>411.20000000000005</ele>
<time>2023-05-16T08:57:23Z</time>
</trkpt>
<trkpt lat="48.820924926549196" lon="9.860154977068305">
<ele>411.4</ele>
<time>2023-05-16T08:57:24Z</time>
</trkpt>
<trkpt lat="48.820934984833" lon="9.860109966248274">
<ele>411.6</ele>
<time>2023-05-16T08:57:25Z</time>
</trkpt>
<trkpt lat="48.820942947641015" lon="9.860066967085004">
<ele>411.79999999999995</ele>
<time>2023-05-16T08:57:26Z</time>
</trkpt>
<trkpt lat="48.82095191627741" lon="9.860022962093353">
<ele>412</ele>
<time>2023-05-16T08:57:27Z</time>
</trkpt>
<trkpt lat="48.82095996290445" lon="9.859979962930083">
<ele>412</ele>
<time>2023-05-16T08:57:28Z</time>
</trkpt>
<trkpt lat="48.82096993736923" lon="9.859939981251955">
<ele>412.20000000000005</ele>
<time>2023-05-16T08:57:29Z</time>
</trkpt>
<trkpt lat="48.82098192349076" lon="9.859902933239937">
<ele>412.4</ele>
<time>2023-05-16T08:57:30Z</time>
</trkpt>
<trkpt lat="48.82099298760295" lon="9.85986496321857">
<ele>412.6</ele>
<time>2023-05-16T08:57:31Z</time>
</trkpt>
<trkpt lat="48.821004973724484" lon="9.859826993197203">
<ele>412.79999999999995</ele>
<time>2023-05-16T08:57:32Z</time>
</trkpt>
<trkpt lat="48.82101695984602" lon="9.859784999862313">
<ele>413</ele>
<time>2023-05-16T08:57:33Z</time>
</trkpt>
<trkpt lat="48.821029951795936" lon="9.859744934365153">
<ele>413.20000000000005</ele>
<time>2023-05-16T08:57:34Z</time>
</trkpt>
<trkpt lat="48.82104193791747" lon="9.859707970172167">
<ele>413.4</ele>
<time>2023-05-16T08:57:35Z</time>
</trkpt>
<trkpt lat="48.82105694152415" lon="9.85967192798853">
<ele>413.79999999999995</ele>
<time>2023-05-16T08:57:36Z</time>
</trkpt>
<trkpt lat="48.821069933474064" lon="9.859631946310401">
<ele>414</ele>
<time>2023-05-16T08:57:37Z</time>
</trkpt>
<trkpt lat="48.82108493708074" lon="9.859591964632273">
<ele>414.20000000000005</ele>
<time>2023-05-16T08:57:38Z</time>
</trkpt>
<trkpt lat="48.82109792903066" lon="9.859554916620255">
<ele>414.4</ele>
<time>2023-05-16T08:57:39Z</time>
</trkpt>
<trkpt lat="48.821112932637334" lon="9.859517952427268">
<ele>414.6</ele>
<time>2023-05-16T08:57:40Z</time>
</trkpt>
<trkpt lat="48.82112793624401" lon="9.859482999891043">
<ele>414.79999999999995</ele>
<time>2023-05-16T08:57:41Z</time>
</trkpt>
<trkpt lat="48.82114495150745" lon="9.859446957707405">
<ele>415</ele>
<time>2023-05-16T08:57:42Z</time>
</trkpt>
<trkpt lat="48.82116297259927" lon="9.859409993514419">
<ele>415.20000000000005</ele>
<time>2023-05-16T08:57:43Z</time>
</trkpt>
<trkpt lat="48.821179987862706" lon="9.859374957159162">
<ele>415.6</ele>
<time>2023-05-16T08:57:44Z</time>
</trkpt>
<trkpt lat="48.821199936792254" lon="9.859339920803905">
<ele>415.79999999999995</ele>
<time>2023-05-16T08:57:45Z</time>
</trkpt>
<trkpt lat="48.82121695205569" lon="9.85930697992444">
<ele>416</ele>
<time>2023-05-16T08:57:46Z</time>
</trkpt>
<trkpt lat="48.82123698480427" lon="9.859271943569183">
<ele>416</ele>
<time>2023-05-16T08:57:47Z</time>
</trkpt>
<trkpt lat="48.82125299423933" lon="9.859237996861339">
<ele>416.20000000000005</ele>
<time>2023-05-16T08:57:48Z</time>
</trkpt>
<trkpt lat="48.82126992568374" lon="9.859206983819604">
<ele>416.4</ele>
<time>2023-05-16T08:57:49Z</time>
</trkpt>
<trkpt lat="48.821286940947175" lon="9.859174964949489">
<ele>416.6</ele>
<time>2023-05-16T08:57:50Z</time>
</trkpt>
<trkpt lat="48.821304962038994" lon="9.859142946079373">
<ele>416.79999999999995</ele>
<time>2023-05-16T08:57:51Z</time>
</trkpt>
<trkpt lat="48.82132298313081" lon="9.859109921380877">
<ele>417</ele>
<time>2023-05-16T08:57:52Z</time>
</trkpt>
<trkpt lat="48.82134192623198" lon="9.859076980501413">
<ele>417.20000000000005</ele>
<time>2023-05-16T08:57:53Z</time>
</trkpt>
<trkpt lat="48.82136195898056" lon="9.859042949974537">
<ele>417.4</ele>
<time>2023-05-16T08:57:54Z</time>
</trkpt>
<trkpt lat="48.82138199172914" lon="9.859009925276041">
<ele>417.4</ele>
<time>2023-05-16T08:57:55Z</time>
</trkpt>
<trkpt lat="48.82139992900193" lon="9.858979918062687">
<ele>417.6</ele>
<time>2023-05-16T08:57:56Z</time>
</trkpt>
<trkpt lat="48.82141996175051" lon="9.858947983011603">
<ele>417.79999999999995</ele>
<time>2023-05-16T08:57:57Z</time>
</trkpt>
<trkpt lat="48.821437982842326" lon="9.858914958313107">
<ele>418</ele>
<time>2023-05-16T08:57:58Z</time>
</trkpt>
<trkpt lat="48.821457931771874" lon="9.858881933614612">
<ele>418.20000000000005</ele>
<time>2023-05-16T08:57:59Z</time>
</trkpt>
<trkpt lat="48.821477964520454" lon="9.858847986906767">
<ele>418.4</ele>
<time>2023-05-16T08:58:00Z</time>
</trkpt>
<trkpt lat="48.821496991440654" lon="9.85881295055151">
<ele>418.6</ele>
<time>2023-05-16T08:58:01Z</time>
</trkpt>
<trkpt lat="48.82151492871344" lon="9.858777998015285">
<ele>418.79999999999995</ele>
<time>2023-05-16T08:58:02Z</time>
</trkpt>
<trkpt lat="48.82153194397688" lon="9.858744973316789">
<ele>419</ele>
<time>2023-05-16T08:58:03Z</time>
</trkpt>
<trkpt lat="48.821546947583556" lon="9.858712954446673">
<ele>419.4</ele>
<time>2023-05-16T08:58:04Z</time>
</trkpt>
<trkpt lat="48.82156195119023" lon="9.858681941404939">
<ele>419.6</ele>
<time>2023-05-16T08:58:05Z</time>
</trkpt>
<trkpt lat="48.82157695479691" lon="9.858651934191585">
<ele>419.79999999999995</ele>
<time>2023-05-16T08:58:06Z</time>
</trkpt>
<trkpt lat="48.821589946746826" lon="9.858622932806611">
<ele>420</ele>
<time>2023-05-16T08:58:07Z</time>
</trkpt>
<trkpt lat="48.82160293869674" lon="9.858589991927147">
<ele>420.20000000000005</ele>
<time>2023-05-16T08:58:08Z</time>
</trkpt>
<trkpt lat="48.82161794230342" lon="9.858551938086748">
<ele>420.4</ele>
<time>2023-05-16T08:58:09Z</time>
</trkpt>
<trkpt lat="48.821631940081716" lon="9.858512962237">
<ele>420.6</ele>
<time>2023-05-16T08:58:10Z</time>
</trkpt>
<trkpt lat="48.82164694368839" lon="9.858479937538505">
<ele>420.79999999999995</ele>
<time>2023-05-16T08:58:11Z</time>
</trkpt>
<trkpt lat="48.82165993563831" lon="9.85844498500228">
<ele>421</ele>
<time>2023-05-16T08:58:12Z</time>
</trkpt>
<trkpt lat="48.821671921759844" lon="9.858409948647022">
<ele>421.4</ele>
<time>2023-05-16T08:58:13Z</time>
</trkpt>
<trkpt lat="48.82167996838689" lon="9.858374996110797">
<ele>421.6</ele>
<time>2023-05-16T08:58:14Z</time>
</trkpt>
<trkpt lat="48.8216879311949" lon="9.858337948098779">
<ele>421.79999999999995</ele>
<time>2023-05-16T08:58:15Z</time>
</trkpt>
<trkpt lat="48.82169698365033" lon="9.858294948935509">
<ele>422</ele>
<time>2023-05-16T08:58:16Z</time>
</trkpt>
<trkpt lat="48.8217069581151" lon="9.85825295560062">
<ele>422.20000000000005</ele>
<time>2023-05-16T08:58:17Z</time>
</trkpt>
<trkpt lat="48.821716932579875" lon="9.85820995643735">
<ele>422.4</ele>
<time>2023-05-16T08:58:18Z</time>
</trkpt>
<trkpt lat="48.82172296755016" lon="9.858162933960557">
<ele>422.4</ele>
<time>2023-05-16T08:58:19Z</time>
</trkpt>
<trkpt lat="48.82173193618655" lon="9.858116917312145">
<ele>422.6</ele>
<time>2023-05-16T08:58:20Z</time>
</trkpt>
<trkpt lat="48.821736965328455" lon="9.858071990311146">
<ele>422.79999999999995</ele>
<time>2023-05-16T08:58:21Z</time>
</trkpt>
<trkpt lat="48.82174291647971" lon="9.858031924813986">
<ele>423</ele>
<time>2023-05-16T08:58:22Z</time>
</trkpt>
<trkpt lat="48.82174794562161" lon="9.857986997812986">
<ele>423.20000000000005</ele>
<time>2023-05-16T08:58:23Z</time>
</trkpt>
<trkpt lat="48.82175297476351" lon="9.857939975336194">
<ele>423.4</ele>
<time>2023-05-16T08:58:24Z</time>
</trkpt>
<trkpt lat="48.821757920086384" lon="9.857894964516163">
<ele>423.6</ele>
<time>2023-05-16T08:58:25Z</time>
</trkpt>
<trkpt lat="48.82176294922829" lon="9.857851965352893">
<ele>423.79999999999995</ele>
<time>2023-05-16T08:58:26Z</time>
</trkpt>
<trkpt lat="48.82176697254181" lon="9.8578049428761">
<ele>424</ele>
<time>2023-05-16T08:58:27Z</time>
</trkpt>
<trkpt lat="48.82176797837019" lon="9.85775699838996">
<ele>424.20000000000005</ele>
<time>2023-05-16T08:58:28Z</time>
</trkpt>
<trkpt lat="48.82176999002695" lon="9.857706958428025">
<ele>424.4</ele>
<time>2023-05-16T08:58:29Z</time>
</trkpt>
<trkpt lat="48.82176797837019" lon="9.857654990628362">
<ele>424.6</ele>
<time>2023-05-16T08:58:30Z</time>
</trkpt>
<trkpt lat="48.82176697254181" lon="9.857602939009666">
<ele>424.79999999999995</ele>
<time>2023-05-16T08:58:31Z</time>
</trkpt>
<trkpt lat="48.82176697254181" lon="9.857554994523525">
<ele>425</ele>
<time>2023-05-16T08:58:32Z</time>
</trkpt>
<trkpt lat="48.82176496088505" lon="9.857507972046733">
<ele>425.20000000000005</ele>
<time>2023-05-16T08:58:33Z</time>
</trkpt>
<trkpt lat="48.82176496088505" lon="9.857457932084799">
<ele>425.4</ele>
<time>2023-05-16T08:58:34Z</time>
</trkpt>
<trkpt lat="48.821761943399906" lon="9.857409987598658">
<ele>425.6</ele>
<time>2023-05-16T08:58:35Z</time>
</trkpt>
<trkpt lat="48.821759931743145" lon="9.857361959293485">
<ele>425.79999999999995</ele>
<time>2023-05-16T08:58:36Z</time>
</trkpt>
<trkpt lat="48.821757920086384" lon="9.857316948473454">
<ele>426</ele>
<time>2023-05-16T08:58:37Z</time>
</trkpt>
<trkpt lat="48.821754986420274" lon="9.857271937653422">
<ele>426.20000000000005</ele>
<time>2023-05-16T08:58:38Z</time>
</trkpt>
<trkpt lat="48.82175196893513" lon="9.857224998995662">
<ele>426.20000000000005</ele>
<time>2023-05-16T08:58:39Z</time>
</trkpt>
<trkpt lat="48.82174794562161" lon="9.85717998817563">
<ele>426.4</ele>
<time>2023-05-16T08:58:40Z</time>
</trkpt>
<trkpt lat="48.82174492813647" lon="9.85713698901236">
<ele>426.6</ele>
<time>2023-05-16T08:58:41Z</time>
</trkpt>
<trkpt lat="48.8217399828136" lon="9.857089966535568">
<ele>426.6</ele>
<time>2023-05-16T08:58:42Z</time>
</trkpt>
<trkpt lat="48.821734953671694" lon="9.857044955715537">
<ele>426.79999999999995</ele>
<time>2023-05-16T08:58:43Z</time>
</trkpt>
<trkpt lat="48.82173193618655" lon="9.856997933238745">
<ele>426.79999999999995</ele>
<time>2023-05-16T08:58:44Z</time>
</trkpt>
<trkpt lat="48.82172992452979" lon="9.856951916590333">
<ele>427</ele>
<time>2023-05-16T08:58:45Z</time>
</trkpt>
<trkpt lat="48.82172699086368" lon="9.856906989589334">
<ele>427.20000000000005</ele>
<time>2023-05-16T08:58:46Z</time>
</trkpt>
<trkpt lat="48.82172296755016" lon="9.856859967112541">
<ele>427.20000000000005</ele>
<time>2023-05-16T08:58:47Z</time>
</trkpt>
<trkpt lat="48.82171995006502" lon="9.856811938807368">
<ele>427.4</ele>
<time>2023-05-16T08:58:48Z</time>
</trkpt>
<trkpt lat="48.821714920923114" lon="9.856762988492846">
<ele>427.4</ele>
<time>2023-05-16T08:58:49Z</time>
</trkpt>
<trkpt lat="48.821711987257004" lon="9.856716971844435">
<ele>427.6</ele>
<time>2023-05-16T08:58:50Z</time>
</trkpt>
<trkpt lat="48.82170796394348" lon="9.856669949367642">
<ele>427.79999999999995</ele>
<time>2023-05-16T08:58:51Z</time>
</trkpt>
<trkpt lat="48.8217019289732" lon="9.856624938547611">
<ele>427.79999999999995</ele>
<time>2023-05-16T08:58:52Z</time>
</trkpt>
<trkpt lat="48.821692960336804" lon="9.85657992772758">
<ele>428</ele>
<time>2023-05-16T08:58:53Z</time>
</trkpt>
<trkpt lat="48.82168692536652" lon="9.85653298906982">
<ele>428.20000000000005</ele>
<time>2023-05-16T08:58:54Z</time>
</trkpt>
<trkpt lat="48.82167996838689" lon="9.856487978249788">
<ele>428.20000000000005</ele>
<time>2023-05-16T08:58:55Z</time>
</trkpt>
<trkpt lat="48.821672927588224" lon="9.856441961601377">
<ele>428.4</ele>
<time>2023-05-16T08:58:56Z</time>
</trkpt>
<trkpt lat="48.82166697643697" lon="9.856397956609726">
<ele>428.6</ele>
<time>2023-05-16T08:58:57Z</time>
</trkpt>
<trkpt lat="48.82165993563831" lon="9.856354957446456">
<ele>428.6</ele>
<time>2023-05-16T08:58:58Z</time>
</trkpt>
<trkpt lat="48.821651972830296" lon="9.856307934969664">
<ele>428.79999999999995</ele>
<time>2023-05-16T08:58:59Z</time>
</trkpt>
<trkpt lat="48.82164292037487" lon="9.856262924149632">
<ele>428.79999999999995</ele>
<time>2023-05-16T08:59:00Z</time>
</trkpt>
<trkpt lat="48.821632945910096" lon="9.856219924986362">
<ele>429</ele>
<time>2023-05-16T08:59:01Z</time>
</trkpt>
<trkpt lat="48.82162297144532" lon="9.856174997985363">
<ele>429</ele>
<time>2023-05-16T08:59:02Z</time>
</trkpt>
<trkpt lat="48.82161299698055" lon="9.856132920831442">
<ele>429.20000000000005</ele>
<time>2023-05-16T08:59:03Z</time>
</trkpt>
<trkpt lat="48.821606962010264" lon="9.856094950810075">
<ele>429.20000000000005</ele>
<time>2023-05-16T08:59:04Z</time>
</trkpt>
<trkpt lat="48.82159698754549" lon="9.856056980788708">
<ele>429.4</ele>
<time>2023-05-16T08:59:05Z</time>
</trkpt>
<trkpt lat="48.82158491760492" lon="9.856017921119928">
<ele>429.4</ele>
<time>2023-05-16T08:59:06Z</time>
</trkpt>
<trkpt lat="48.82157293148339" lon="9.855984980240464">
<ele>429.6</ele>
<time>2023-05-16T08:59:07Z</time>
</trkpt>
<trkpt lat="48.821564968675375" lon="9.855957990512252">
<ele>429.6</ele>
<time>2023-05-16T08:59:08Z</time>
</trkpt>
<trkpt lat="48.82155792787671" lon="9.855929994955659">
<ele>429.6</ele>
<time>2023-05-16T08:59:09Z</time>
</trkpt>
<trkpt lat="48.82154795341194" lon="9.855904933065176">
<ele>429.6</ele>
<time>2023-05-16T08:59:10Z</time>
</trkpt>
<trkpt lat="48.821539990603924" lon="9.855877943336964">
<ele>429.79999999999995</ele>
<time>2023-05-16T08:59:11Z</time>
</trkpt>
<trkpt lat="48.82153496146202" lon="9.855842990800738">
<ele>429.79999999999995</ele>
<time>2023-05-16T08:59:12Z</time>
</trkpt>
<trkpt lat="48.82153697311878" lon="9.855807954445481">
<ele>429.79999999999995</ele>
<time>2023-05-16T08:59:13Z</time>
</trkpt>
<trkpt lat="48.821546947583556" lon="9.855771996080875">
<ele>429.79999999999995</ele>
<time>2023-05-16T08:59:14Z</time>
</trkpt>
<trkpt lat="48.82156798616052" lon="9.855737965553999">
<ele>429.6</ele>
<time>2023-05-16T08:59:15Z</time>
</trkpt>
<trkpt lat="48.82159799337387" lon="9.855709969997406">
<ele>429.6</ele>
<time>2023-05-16T08:59:16Z</time>
</trkpt>
<trkpt lat="48.821632945910096" lon="9.855701923370361">
<ele>429.6</ele>
<time>2023-05-16T08:59:17Z</time>
</trkpt>
<trkpt lat="48.821671921759844" lon="9.855707958340645">
<ele>429.6</ele>
<time>2023-05-16T08:59:18Z</time>
</trkpt>
<trkpt lat="48.821712993085384" lon="9.855714999139309">
<ele>429.6</ele>
<time>2023-05-16T08:59:19Z</time>
</trkpt>
<trkpt lat="48.821757920086384" lon="9.855716926977038">
<ele>429.4</ele>
<time>2023-05-16T08:59:20Z</time>
</trkpt>
<trkpt lat="48.821801925078034" lon="9.855712987482548">
<ele>429.4</ele>
<time>2023-05-16T08:59:21Z</time>
</trkpt>
<trkpt lat="48.821844924241304" lon="9.855699995532632">
<ele>429.4</ele>
<time>2023-05-16T08:59:22Z</time>
</trkpt>
<trkpt lat="48.821889935061336" lon="9.855681974440813">
<ele>429.4</ele>
<time>2023-05-16T08:59:23Z</time>
</trkpt>
<trkpt lat="48.821929916739464" lon="9.855659930035472">
<ele>429.6</ele>
<time>2023-05-16T08:59:24Z</time>
</trkpt>
<trkpt lat="48.82196294143796" lon="9.855641992762685">
<ele>429.6</ele>
<time>2023-05-16T08:59:25Z</time>
</trkpt>
<trkpt lat="48.821992948651314" lon="9.855627994984388">
<ele>429.6</ele>
<time>2023-05-16T08:59:26Z</time>
</trkpt>
<trkpt lat="48.82202195003629" lon="9.855606956407428">
<ele>429.6</ele>
<time>2023-05-16T08:59:27Z</time>
</trkpt>
<trkpt lat="48.82205296307802" lon="9.855577955022454">
<ele>429.79999999999995</ele>
<time>2023-05-16T08:59:28Z</time>
</trkpt>
<trkpt lat="48.822081964462996" lon="9.855549959465861">
<ele>429.79999999999995</ele>
<time>2023-05-16T08:59:29Z</time>
</trkpt>
<trkpt lat="48.82211297750473" lon="9.855529926717281">
<ele>430</ele>
<time>2023-05-16T08:59:30Z</time>
</trkpt>
<trkpt lat="48.82214994169772" lon="9.855506960302591">
<ele>430</ele>
<time>2023-05-16T08:59:31Z</time>
</trkpt>
<trkpt lat="48.822187995538116" lon="9.855476953089237">
<ele>430</ele>
<time>2023-05-16T08:59:32Z</time>
</trkpt>
<trkpt lat="48.822227977216244" lon="9.85543797723949">
<ele>430</ele>
<time>2023-05-16T08:59:33Z</time>
</trkpt>
<trkpt lat="48.82226795889437" lon="9.855407970026135">
<ele>430</ele>
<time>2023-05-16T08:59:34Z</time>
</trkpt>
<trkpt lat="48.82230693474412" lon="9.85537494532764">
<ele>430</ele>
<time>2023-05-16T08:59:35Z</time>
</trkpt>
<trkpt lat="48.82234691642225" lon="9.855334963649511">
<ele>430</ele>
<time>2023-05-16T08:59:36Z</time>
</trkpt>
<trkpt lat="48.82239192724228" lon="9.855291964486241">
<ele>430</ele>
<time>2023-05-16T08:59:37Z</time>
</trkpt>
<trkpt lat="48.82243199273944" lon="9.855249971151352">
<ele>430</ele>
<time>2023-05-16T08:59:38Z</time>
</trkpt>
<trkpt lat="48.822469962760806" lon="9.855211917310953">
<ele>430.20000000000005</ele>
<time>2023-05-16T08:59:39Z</time>
</trkpt>
<trkpt lat="48.82250499911606" lon="9.855169923976064">
<ele>430.20000000000005</ele>
<time>2023-05-16T08:59:40Z</time>
</trkpt>
<trkpt lat="48.82253793999553" lon="9.855129942297935">
<ele>430.20000000000005</ele>
<time>2023-05-16T08:59:41Z</time>
</trkpt>
<trkpt lat="48.822571970522404" lon="9.855086943134665">
<ele>430.20000000000005</ele>
<time>2023-05-16T08:59:42Z</time>
</trkpt>
<trkpt lat="48.82260197773576" lon="9.855042938143015">
<ele>430.20000000000005</ele>
<time>2023-05-16T08:59:43Z</time>
</trkpt>
<trkpt lat="48.82263198494911" lon="9.854999938979745">
<ele>430.20000000000005</ele>
<time>2023-05-16T08:59:44Z</time>
</trkpt>
<trkpt lat="48.822659980505705" lon="9.854951994493604">
<ele>430.4</ele>
<time>2023-05-16T08:59:45Z</time>
</trkpt>
<trkpt lat="48.82268998771906" lon="9.85490296036005">
<ele>430.4</ele>
<time>2023-05-16T08:59:46Z</time>
</trkpt>
<trkpt lat="48.82271798327565" lon="9.854851998388767">
<ele>430.4</ele>
<time>2023-05-16T08:59:47Z</time>
</trkpt>
<trkpt lat="48.8227429613471" lon="9.85479793511331">
<ele>430.4</ele>
<time>2023-05-16T08:59:48Z</time>
</trkpt>
<trkpt lat="48.82276492193341" lon="9.854746973142028">
<ele>430.6</ele>
<time>2023-05-16T08:59:49Z</time>
</trkpt>
<trkpt lat="48.82278495468199" lon="9.854691987857223">
<ele>430.6</ele>
<time>2023-05-16T08:59:50Z</time>
</trkpt>
<trkpt lat="48.82280498743057" lon="9.854636918753386">
<ele>430.6</ele>
<time>2023-05-16T08:59:51Z</time>
</trkpt>
<trkpt lat="48.82282493636012" lon="9.85458293929696">
<ele>430.79999999999995</ele>
<time>2023-05-16T08:59:52Z</time>
</trkpt>
<trkpt lat="48.8228449691087" lon="9.854527954012156">
<ele>430.79999999999995</ele>
<time>2023-05-16T08:59:53Z</time>
</trkpt>
<trkpt lat="48.82286491803825" lon="9.85447196289897">
<ele>431</ele>
<time>2023-05-16T08:59:54Z</time>
</trkpt>
<trkpt lat="48.82288193330169" lon="9.854416977614164">
<ele>431</ele>
<time>2023-05-16T08:59:55Z</time>
</trkpt>
<trkpt lat="48.822897942736745" lon="9.854361992329359">
<ele>431</ele>
<time>2023-05-16T08:59:56Z</time>
</trkpt>
<trkpt lat="48.82291495800018" lon="9.854304995387793">
<ele>431.20000000000005</ele>
<time>2023-05-16T08:59:57Z</time>
</trkpt>
<trkpt lat="48.82292996160686" lon="9.854246992617846">
<ele>431.20000000000005</ele>
<time>2023-05-16T08:59:58Z</time>
</trkpt>
<trkpt lat="48.82294798269868" lon="9.854191923514009">
<ele>431.20000000000005</ele>
<time>2023-05-16T08:59:59Z</time>
</trkpt>
<trkpt lat="48.82296692579985" lon="9.854134926572442">
<ele>431.4</ele>
<time>2023-05-16T09:00:00Z</time>
</trkpt>
<trkpt lat="48.822984946891665" lon="9.854081952944398">
<ele>431.4</ele>
<time>2023-05-16T09:00:01Z</time>
</trkpt>
<trkpt lat="48.823004979640245" lon="9.854029985144734">
<ele>431.6</ele>
<time>2023-05-16T09:00:02Z</time>
</trkpt>
<trkpt lat="48.823024928569794" lon="9.853976927697659">
<ele>431.6</ele>
<time>2023-05-16T09:00:03Z</time>
</trkpt>
<trkpt lat="48.823044961318374" lon="9.853924959897995">
<ele>431.79999999999995</ele>
<time>2023-05-16T09:00:04Z</time>
</trkpt>
<trkpt lat="48.82306692190468" lon="9.853876931592822">
<ele>431.79999999999995</ele>
<time>2023-05-16T09:00:05Z</time>
</trkpt>
<trkpt lat="48.823089972138405" lon="9.8538279812783">
<ele>431.79999999999995</ele>
<time>2023-05-16T09:00:06Z</time>
</trkpt>
<trkpt lat="48.823114950209856" lon="9.85378297045827">
<ele>432</ele>
<time>2023-05-16T09:00:07Z</time>
</trkpt>
<trkpt lat="48.82314193993807" lon="9.85374198295176">
<ele>432</ele>
<time>2023-05-16T09:00:08Z</time>
</trkpt>
<trkpt lat="48.82316993549466" lon="9.8537019174546">
<ele>432.20000000000005</ele>
<time>2023-05-16T09:00:09Z</time>
</trkpt>
<trkpt lat="48.823199942708015" lon="9.853666964918375">
<ele>432.20000000000005</ele>
<time>2023-05-16T09:00:10Z</time>
</trkpt>
<trkpt lat="48.82322793826461" lon="9.853636957705021">
<ele>432.4</ele>
<time>2023-05-16T09:00:11Z</time>
</trkpt>
<trkpt lat="48.82325693964958" lon="9.85361197963357">
<ele>432.6</ele>
<time>2023-05-16T09:00:12Z</time>
</trkpt>
<trkpt lat="48.823286946862936" lon="9.853587923571467">
<ele>432.6</ele>
<time>2023-05-16T09:00:13Z</time>
</trkpt>
<trkpt lat="48.82331494241953" lon="9.853566968813539">
<ele>432.79999999999995</ele>
<time>2023-05-16T09:00:14Z</time>
</trkpt>
<trkpt lat="48.82334494963288" lon="9.853546936064959">
<ele>433</ele>
<time>2023-05-16T09:00:15Z</time>
</trkpt>
<trkpt lat="48.82337495684624" lon="9.85352992080152">
<ele>433</ele>
<time>2023-05-16T09:00:16Z</time>
</trkpt>
<trkpt lat="48.82340496405959" lon="9.853516928851604">
<ele>433.20000000000005</ele>
<time>2023-05-16T09:00:17Z</time>
</trkpt>
<trkpt lat="48.82343991659582" lon="9.85350494273007">
<ele>433.4</ele>
<time>2023-05-16T09:00:18Z</time>
</trkpt>
<trkpt lat="48.823474952951074" lon="9.853494968265295">
<ele>433.4</ele>
<time>2023-05-16T09:00:19Z</time>
</trkpt>
<trkpt lat="48.82350998930633" lon="9.853487927466631">
<ele>433.6</ele>
<time>2023-05-16T09:00:20Z</time>
</trkpt>
<trkpt lat="48.823544941842556" lon="9.853476947173476">
<ele>433.79999999999995</ele>
<time>2023-05-16T09:00:21Z</time>
</trkpt>
<trkpt lat="48.82357997819781" lon="9.853464961051941">
<ele>433.79999999999995</ele>
<time>2023-05-16T09:00:22Z</time>
</trkpt>
<trkpt lat="48.8236169423908" lon="9.853456998243928">
<ele>434</ele>
<time>2023-05-16T09:00:23Z</time>
</trkpt>
<trkpt lat="48.82365298457444" lon="9.853449957445264">
<ele>434.20000000000005</ele>
<time>2023-05-16T09:00:24Z</time>
</trkpt>
<trkpt lat="48.82368693128228" lon="9.853441994637251">
<ele>434.20000000000005</ele>
<time>2023-05-16T09:00:25Z</time>
</trkpt>
<trkpt lat="48.82371995598078" lon="9.853432942181826">
<ele>434.4</ele>
<time>2023-05-16T09:00:26Z</time>
</trkpt>
<trkpt lat="48.82375197485089" lon="9.853422967717052">
<ele>434.6</ele>
<time>2023-05-16T09:00:27Z</time>
</trkpt>
<trkpt lat="48.82378499954939" lon="9.853411987423897">
<ele>434.79999999999995</ele>
<time>2023-05-16T09:00:28Z</time>
</trkpt>
<trkpt lat="48.82381794042885" lon="9.8533979896456">
<ele>435</ele>
<time>2023-05-16T09:00:29Z</time>
</trkpt>
<trkpt lat="48.82385197095573" lon="9.853386925533414">
<ele>435.20000000000005</ele>
<time>2023-05-16T09:00:30Z</time>
</trkpt>
<trkpt lat="48.823882983997464" lon="9.853374939411879">
<ele>435.4</ele>
<time>2023-05-16T09:00:31Z</time>
</trkpt>
<trkpt lat="48.82391491904855" lon="9.853364964947104">
<ele>435.6</ele>
<time>2023-05-16T09:00:32Z</time>
</trkpt>
<trkpt lat="48.82394693791866" lon="9.85335297882557">
<ele>435.79999999999995</ele>
<time>2023-05-16T09:00:33Z</time>
</trkpt>
<trkpt lat="48.8239779509604" lon="9.853341998532414">
<ele>436</ele>
<time>2023-05-16T09:00:34Z</time>
</trkpt>
<trkpt lat="48.824011981487274" lon="9.853327916935086">
<ele>436.20000000000005</ele>
<time>2023-05-16T09:00:35Z</time>
</trkpt>
<trkpt lat="48.82404492236674" lon="9.85331492498517">
<ele>436.4</ele>
<time>2023-05-16T09:00:36Z</time>
</trkpt>
<trkpt lat="48.824077947065234" lon="9.853301933035254">
<ele>436.6</ele>
<time>2023-05-16T09:00:37Z</time>
</trkpt>
<trkpt lat="48.82410996593535" lon="9.85328994691372">
<ele>436.79999999999995</ele>
<time>2023-05-16T09:00:38Z</time>
</trkpt>
<trkpt lat="48.824141984805465" lon="9.853281984105706">
<ele>437</ele>
<time>2023-05-16T09:00:39Z</time>
</trkpt>
<trkpt lat="48.82417199201882" lon="9.853274943307042">
<ele>437</ele>
<time>2023-05-16T09:00:40Z</time>
</trkpt>
<trkpt lat="48.82420199923217" lon="9.8532719258219">
<ele>437.20000000000005</ele>
<time>2023-05-16T09:00:41Z</time>
</trkpt>
<trkpt lat="48.824232928454876" lon="9.853262957185507">
<ele>437.20000000000005</ele>
<time>2023-05-16T09:00:42Z</time>
</trkpt>
<trkpt lat="48.82426695898175" lon="9.853244936093688">
<ele>437.20000000000005</ele>
<time>2023-05-16T09:00:43Z</time>
</trkpt>
<trkpt lat="48.82429797202349" lon="9.853221969678998">
<ele>437.20000000000005</ele>
<time>2023-05-16T09:00:44Z</time>
</trkpt>
<trkpt lat="48.8243299908936" lon="9.853189950808883">
<ele>437.20000000000005</ele>
<time>2023-05-16T09:00:45Z</time>
</trkpt>
<trkpt lat="48.824357986450195" lon="9.853156926110387">
<ele>437.20000000000005</ele>
<time>2023-05-16T09:00:46Z</time>
</trkpt>
<trkpt lat="48.82438497617841" lon="9.853111999109387">
<ele>437</ele>
<time>2023-05-16T09:00:47Z</time>
</trkpt>
<trkpt lat="48.82441699504852" lon="9.853064976632595">
<ele>437</ele>
<time>2023-05-16T09:00:48Z</time>
</trkpt>
<trkpt lat="48.824447924271226" lon="9.853017954155803">
<ele>436.79999999999995</ele>
<time>2023-05-16T09:00:49Z</time>
</trkpt>
<trkpt lat="48.82447994314134" lon="9.852972943335772">
<ele>436.6</ele>
<time>2023-05-16T09:00:50Z</time>
</trkpt>
<trkpt lat="48.82451296783984" lon="9.85292692668736">
<ele>436.4</ele>
<time>2023-05-16T09:00:51Z</time>
</trkpt>
<trkpt lat="48.824549932032824" lon="9.85288199968636">
<ele>436.20000000000005</ele>
<time>2023-05-16T09:00:52Z</time>
</trkpt>
<trkpt lat="48.82458999752998" lon="9.8528419341892">
<ele>435.79999999999995</ele>
<time>2023-05-16T09:00:53Z</time>
</trkpt>
<trkpt lat="48.82463299669325" lon="9.852811926975846">
<ele>435.6</ele>
<time>2023-05-16T09:00:54Z</time>
</trkpt>
<trkpt lat="48.824681947007775" lon="9.85279692336917">
<ele>435.4</ele>
<time>2023-05-16T09:00:55Z</time>
</trkpt>
<trkpt lat="48.82473299279809" lon="9.85279692336917">
<ele>435.20000000000005</ele>
<time>2023-05-16T09:00:56Z</time>
</trkpt>
<trkpt lat="48.82478294894099" lon="9.85279692336917">
<ele>435</ele>
<time>2023-05-16T09:00:57Z</time>
</trkpt>
<trkpt lat="48.82482494227588" lon="9.852776974439621">
<ele>435</ele>
<time>2023-05-16T09:00:58Z</time>
</trkpt>
<trkpt lat="48.82485796697438" lon="9.852736992761493">
<ele>434.79999999999995</ele>
<time>2023-05-16T09:00:59Z</time>
</trkpt>
<trkpt lat="48.82488294504583" lon="9.852684941142797">
<ele>434.79999999999995</ele>
<time>2023-05-16T09:01:00Z</time>
</trkpt>
<trkpt lat="48.82490197196603" lon="9.85262299887836">
<ele>434.6</ele>
<time>2023-05-16T09:01:01Z</time>
</trkpt>
<trkpt lat="48.82492192089558" lon="9.852557955309749">
<ele>434.4</ele>
<time>2023-05-16T09:01:02Z</time>
</trkpt>
<trkpt lat="48.82494798861444" lon="9.852494923397899">
<ele>434.4</ele>
<time>2023-05-16T09:01:03Z</time>
</trkpt>
<trkpt lat="48.824977995827794" lon="9.852432981133461">
<ele>434.20000000000005</ele>
<time>2023-05-16T09:01:04Z</time>
</trkpt>
<trkpt lat="48.82500993087888" lon="9.852372966706753">
<ele>434</ele>
<time>2023-05-16T09:01:05Z</time>
</trkpt>
<trkpt lat="48.82504295557737" lon="9.852317981421947">
<ele>433.79999999999995</ele>
<time>2023-05-16T09:01:06Z</time>
</trkpt>
<trkpt lat="48.82507799193263" lon="9.852266935631633">
<ele>433.79999999999995</ele>
<time>2023-05-16T09:01:07Z</time>
</trkpt>
<trkpt lat="48.825112944468856" lon="9.85221496783197">
<ele>433.6</ele>
<time>2023-05-16T09:01:08Z</time>
</trkpt>
<trkpt lat="48.825152926146984" lon="9.85217297449708">
<ele>433.6</ele>
<time>2023-05-16T09:01:09Z</time>
</trkpt>
<trkpt lat="48.825199948623776" lon="9.852141961455345">
<ele>433.4</ele>
<time>2023-05-16T09:01:10Z</time>
</trkpt>
<trkpt lat="48.82524697110057" lon="9.85210994258523">
<ele>433.4</ele>
<time>2023-05-16T09:01:11Z</time>
</trkpt>
<trkpt lat="48.82529499940574" lon="9.852084964513779">
<ele>433.20000000000005</ele>
<time>2023-05-16T09:01:12Z</time>
</trkpt>
<trkpt lat="48.82534294389188" lon="9.852061998099089">
<ele>433.20000000000005</ele>
<time>2023-05-16T09:01:13Z</time>
</trkpt>
<trkpt lat="48.825391978025436" lon="9.852037942036986">
<ele>433.20000000000005</ele>
<time>2023-05-16T09:01:14Z</time>
</trkpt>
<trkpt lat="48.82543992251158" lon="9.852012963965535">
<ele>433</ele>
<time>2023-05-16T09:01:15Z</time>
</trkpt>
<trkpt lat="48.82548795081675" lon="9.851987985894084">
<ele>433</ele>
<time>2023-05-16T09:01:16Z</time>
</trkpt>
<trkpt lat="48.825536984950304" lon="9.851969964802265">
<ele>433</ele>
<time>2023-05-16T09:01:17Z</time>
</trkpt>
<trkpt lat="48.825582917779684" lon="9.851962924003601">
<ele>432.79999999999995</ele>
<time>2023-05-16T09:01:18Z</time>
</trkpt>
<trkpt lat="48.825626922771335" lon="9.85196191817522">
<ele>432.79999999999995</ele>
<time>2023-05-16T09:01:19Z</time>
</trkpt>
<trkpt lat="48.825672939419746" lon="9.851959990337491">
<ele>432.79999999999995</ele>
<time>2023-05-16T09:01:20Z</time>
</trkpt>
<trkpt lat="48.82572499103844" lon="9.851959990337491">
<ele>432.79999999999995</ele>
<time>2023-05-16T09:01:21Z</time>
</trkpt>
<trkpt lat="48.825777964666486" lon="9.851962924003601">
<ele>432.6</ele>
<time>2023-05-16T09:01:22Z</time>
</trkpt>
<trkpt lat="48.82583194412291" lon="9.851966947317123">
<ele>432.6</ele>
<time>2023-05-16T09:01:23Z</time>
</trkpt>
<trkpt lat="48.825882989913225" lon="9.851976921781898">
<ele>432.6</ele>
<time>2023-05-16T09:01:24Z</time>
</trkpt>
<trkpt lat="48.82593495771289" lon="9.851986980065703">
<ele>432.6</ele>
<time>2023-05-16T09:01:25Z</time>
</trkpt>
<trkpt lat="48.82598793134093" lon="9.851989997550845">
<ele>432.4</ele>
<time>2023-05-16T09:01:26Z</time>
</trkpt>
<trkpt lat="48.82603797130287" lon="9.851991925388575">
<ele>432.4</ele>
<time>2023-05-16T09:01:27Z</time>
</trkpt>
<trkpt lat="48.82608792744577" lon="9.851992931216955">
<ele>432.4</ele>
<time>2023-05-16T09:01:28Z</time>
</trkpt>
<trkpt lat="48.8261379674077" lon="9.851997960358858">
<ele>432.4</ele>
<time>2023-05-16T09:01:29Z</time>
</trkpt>
<trkpt lat="48.826186917722225" lon="9.85200491733849">
<ele>432.4</ele>
<time>2023-05-16T09:01:30Z</time>
</trkpt>
<trkpt lat="48.82623293437064" lon="9.852012963965535">
<ele>432.4</ele>
<time>2023-05-16T09:01:31Z</time>
</trkpt>
<trkpt lat="48.82627794519067" lon="9.852021932601929">
<ele>432.4</ele>
<time>2023-05-16T09:01:32Z</time>
</trkpt>
<trkpt lat="48.8263229560107" lon="9.85202293843031">
<ele>432.20000000000005</ele>
<time>2023-05-16T09:01:33Z</time>
</trkpt>
<trkpt lat="48.82637199014425" lon="9.85202293843031">
<ele>432.20000000000005</ele>
<time>2023-05-16T09:01:34Z</time>
</trkpt>
<trkpt lat="48.82641792297363" lon="9.852026961743832">
<ele>432.20000000000005</ele>
<time>2023-05-16T09:01:35Z</time>
</trkpt>
<trkpt lat="48.82646796293557" lon="9.852034924551845">
<ele>432.20000000000005</ele>
<time>2023-05-16T09:01:36Z</time>
</trkpt>
<trkpt lat="48.82651791907847" lon="9.852041965350509">
<ele>432.20000000000005</ele>
<time>2023-05-16T09:01:37Z</time>
</trkpt>
<trkpt lat="48.8265679590404" lon="9.852051939815283">
<ele>432.20000000000005</ele>
<time>2023-05-16T09:01:38Z</time>
</trkpt>
<trkpt lat="48.82661992684007" lon="9.852059986442327">
<ele>432.4</ele>
<time>2023-05-16T09:01:39Z</time>
</trkpt>
<trkpt lat="48.826669966802" lon="9.85206794925034">
<ele>432.4</ele>
<time>2023-05-16T09:01:40Z</time>
</trkpt>
<trkpt lat="48.82671698927879" lon="9.852079935371876">
<ele>432.4</ele>
<time>2023-05-16T09:01:41Z</time>
</trkpt>
<trkpt lat="48.82676292210817" lon="9.852091921493411">
<ele>432.4</ele>
<time>2023-05-16T09:01:42Z</time>
</trkpt>
<trkpt lat="48.826809944584966" lon="9.852106925100088">
<ele>432.4</ele>
<time>2023-05-16T09:01:43Z</time>
</trkpt>
<trkpt lat="48.82685797289014" lon="9.852121928706765">
<ele>432.4</ele>
<time>2023-05-16T09:01:44Z</time>
</trkpt>
<trkpt lat="48.82690692320466" lon="9.852134920656681">
<ele>432.4</ele>
<time>2023-05-16T09:01:45Z</time>
</trkpt>
<trkpt lat="48.82695193402469" lon="9.852146990597248">
<ele>432.6</ele>
<time>2023-05-16T09:01:46Z</time>
</trkpt>
<trkpt lat="48.82699493318796" lon="9.8521529417485">
<ele>432.6</ele>
<time>2023-05-16T09:01:47Z</time>
</trkpt>
<trkpt lat="48.82703994400799" lon="9.852161994203925">
<ele>432.6</ele>
<time>2023-05-16T09:01:48Z</time>
</trkpt>
<trkpt lat="48.827084954828024" lon="9.8521719686687">
<ele>432.79999999999995</ele>
<time>2023-05-16T09:01:49Z</time>
</trkpt>
<trkpt lat="48.827129965648055" lon="9.852182948961854">
<ele>432.79999999999995</ele>
<time>2023-05-16T09:01:50Z</time>
</trkpt>
<trkpt lat="48.827174976468086" lon="9.85219694674015">
<ele>433</ele>
<time>2023-05-16T09:01:51Z</time>
</trkpt>
<trkpt lat="48.82721998728812" lon="9.852207927033305">
<ele>433.20000000000005</ele>
<time>2023-05-16T09:01:52Z</time>
</trkpt>
<trkpt lat="48.82726298645139" lon="9.852219996973872">
<ele>433.20000000000005</ele>
<time>2023-05-16T09:01:53Z</time>
</trkpt>
<trkpt lat="48.82730699144304" lon="9.852231983095407">
<ele>433.4</ele>
<time>2023-05-16T09:01:54Z</time>
</trkpt>
<trkpt lat="48.82734999060631" lon="9.852241957560182">
<ele>433.4</ele>
<time>2023-05-16T09:01:55Z</time>
</trkpt>
<trkpt lat="48.8273919839412" lon="9.852249920368195">
<ele>433.6</ele>
<time>2023-05-16T09:01:56Z</time>
</trkpt>
<trkpt lat="48.82743498310447" lon="9.85225796699524">
<ele>433.6</ele>
<time>2023-05-16T09:01:57Z</time>
</trkpt>
<trkpt lat="48.82747697643936" lon="9.852267941460013">
<ele>433.79999999999995</ele>
<time>2023-05-16T09:01:58Z</time>
</trkpt>
<trkpt lat="48.827516958117485" lon="9.852276993915439">
<ele>433.79999999999995</ele>
<time>2023-05-16T09:01:59Z</time>
</trkpt>
<trkpt lat="48.827557945623994" lon="9.85228294506669">
<ele>434</ele>
<time>2023-05-16T09:02:00Z</time>
</trkpt>
<trkpt lat="48.82759499363601" lon="9.852294931188226">
<ele>434</ele>
<time>2023-05-16T09:02:01Z</time>
</trkpt>
<trkpt lat="48.82763497531414" lon="9.852304989472032">
<ele>434.20000000000005</ele>
<time>2023-05-16T09:02:02Z</time>
</trkpt>
<trkpt lat="48.82767495699227" lon="9.852314963936806">
<ele>434.20000000000005</ele>
<time>2023-05-16T09:02:03Z</time>
</trkpt>
<trkpt lat="48.827712927013636" lon="9.85232493840158">
<ele>434.4</ele>
<time>2023-05-16T09:02:04Z</time>
</trkpt>
<trkpt lat="48.827751986682415" lon="9.852336924523115">
<ele>434.4</ele>
<time>2023-05-16T09:02:05Z</time>
</trkpt>
<trkpt lat="48.82778995670378" lon="9.852347988635302">
<ele>434.6</ele>
<time>2023-05-16T09:02:06Z</time>
</trkpt>
<trkpt lat="48.82782993838191" lon="9.852359974756837">
<ele>434.6</ele>
<time>2023-05-16T09:02:07Z</time>
</trkpt>
<trkpt lat="48.82786799222231" lon="9.852371960878372">
<ele>434.79999999999995</ele>
<time>2023-05-16T09:02:08Z</time>
</trkpt>
<trkpt lat="48.82790797390044" lon="9.852381935343146">
<ele>434.79999999999995</ele>
<time>2023-05-16T09:02:09Z</time>
</trkpt>
<trkpt lat="48.827946949750185" lon="9.852389981970191">
<ele>435</ele>
<time>2023-05-16T09:02:10Z</time>
</trkpt>
<trkpt lat="48.82798491977155" lon="9.852397944778204">
<ele>435</ele>
<time>2023-05-16T09:02:11Z</time>
</trkpt>
<trkpt lat="48.82802498526871" lon="9.85240699723363">
<ele>435.20000000000005</ele>
<time>2023-05-16T09:02:12Z</time>
</trkpt>
<trkpt lat="48.82806295529008" lon="9.852414960041642">
<ele>435.20000000000005</ele>
<time>2023-05-16T09:02:13Z</time>
</trkpt>
<trkpt lat="48.82810494862497" lon="9.852421917021275">
<ele>435.4</ele>
<time>2023-05-16T09:02:14Z</time>
</trkpt>
<trkpt lat="48.82814694195986" lon="9.85243197530508">
<ele>435.4</ele>
<time>2023-05-16T09:02:15Z</time>
</trkpt>
<trkpt lat="48.828186923637986" lon="9.852441949769855">
<ele>435.6</ele>
<time>2023-05-16T09:02:16Z</time>
</trkpt>
<trkpt lat="48.828226989135146" lon="9.8524499963969">
<ele>435.6</ele>
<time>2023-05-16T09:02:17Z</time>
</trkpt>
<trkpt lat="48.828266970813274" lon="9.852456953376532">
<ele>435.79999999999995</ele>
<time>2023-05-16T09:02:18Z</time>
</trkpt>
<trkpt lat="48.82830795831978" lon="9.852462988346815">
<ele>435.79999999999995</ele>
<time>2023-05-16T09:02:19Z</time>
</trkpt>
<trkpt lat="48.82834693416953" lon="9.85247296281159">
<ele>435.79999999999995</ele>
<time>2023-05-16T09:02:20Z</time>
</trkpt>
<trkpt lat="48.82838699966669" lon="9.852482937276363">
<ele>436</ele>
<time>2023-05-16T09:02:21Z</time>
</trkpt>
<trkpt lat="48.82842496968806" lon="9.85249299556017">
<ele>436</ele>
<time>2023-05-16T09:02:22Z</time>
</trkpt>
<trkpt lat="48.828464951366186" lon="9.852502970024943">
<ele>436.20000000000005</ele>
<time>2023-05-16T09:02:23Z</time>
</trkpt>
<trkpt lat="48.828501999378204" lon="9.852511938661337">
<ele>436.20000000000005</ele>
<time>2023-05-16T09:02:24Z</time>
</trkpt>
<trkpt lat="48.82853996939957" lon="9.85251797363162">
<ele>436.4</ele>
<time>2023-05-16T09:02:25Z</time>
</trkpt>
<trkpt lat="48.82857793942094" lon="9.852524930611253">
<ele>436.4</ele>
<time>2023-05-16T09:02:26Z</time>
</trkpt>
<trkpt lat="48.82861699908972" lon="9.852534988895059">
<ele>436.6</ele>
<time>2023-05-16T09:02:27Z</time>
</trkpt>
<trkpt lat="48.828654969111085" lon="9.852544963359833">
<ele>436.6</ele>
<time>2023-05-16T09:02:28Z</time>
</trkpt>
<trkpt lat="48.82869495078921" lon="9.852556949481368">
<ele>436.6</ele>
<time>2023-05-16T09:02:29Z</time>
</trkpt>
<trkpt lat="48.82873292081058" lon="9.852566923946142">
<ele>436.79999999999995</ele>
<time>2023-05-16T09:02:30Z</time>
</trkpt>
<trkpt lat="48.82877298630774" lon="9.852572958916426">
<ele>436.79999999999995</ele>
<time>2023-05-16T09:02:31Z</time>
</trkpt>
<trkpt lat="48.82881196215749" lon="9.85258192755282">
<ele>437</ele>
<time>2023-05-16T09:02:32Z</time>
</trkpt>
<trkpt lat="48.828851943835616" lon="9.852592991665006">
<ele>437</ele>
<time>2023-05-16T09:02:33Z</time>
</trkpt>
<trkpt lat="48.828891925513744" lon="9.852604977786541">
<ele>437</ele>
<time>2023-05-16T09:02:34Z</time>
</trkpt>
<trkpt lat="48.828932996839285" lon="9.852614952251315">
<ele>437.20000000000005</ele>
<time>2023-05-16T09:02:35Z</time>
</trkpt>
<trkpt lat="48.82897297851741" lon="9.85262693837285">
<ele>437.20000000000005</ele>
<time>2023-05-16T09:02:36Z</time>
</trkpt>
<trkpt lat="48.8290149718523" lon="9.852637918666005">
<ele>437.20000000000005</ele>
<time>2023-05-16T09:02:37Z</time>
</trkpt>
<trkpt lat="48.82905495353043" lon="9.852649988606572">
<ele>437.20000000000005</ele>
<time>2023-05-16T09:02:38Z</time>
</trkpt>
<trkpt lat="48.82909694686532" lon="9.852659963071346">
<ele>437.20000000000005</ele>
<time>2023-05-16T09:02:39Z</time>
</trkpt>
<trkpt lat="48.82913994602859" lon="9.85266792587936">
<ele>437.4</ele>
<time>2023-05-16T09:02:40Z</time>
</trkpt>
<trkpt lat="48.82918495684862" lon="9.852676978334785">
<ele>437.4</ele>
<time>2023-05-16T09:02:41Z</time>
</trkpt>
<trkpt lat="48.82922996766865" lon="9.85268795862794">
<ele>437.4</ele>
<time>2023-05-16T09:02:42Z</time>
</trkpt>
<trkpt lat="48.829276990145445" lon="9.852701956406236">
<ele>437.20000000000005</ele>
<time>2023-05-16T09:02:43Z</time>
</trkpt>
<trkpt lat="48.829321917146444" lon="9.85271193087101">
<ele>437.20000000000005</ele>
<time>2023-05-16T09:02:44Z</time>
</trkpt>
<trkpt lat="48.829367933794856" lon="9.852722994983196">
<ele>437.20000000000005</ele>
<time>2023-05-16T09:02:45Z</time>
</trkpt>
<trkpt lat="48.82941797375679" lon="9.85273196361959">
<ele>437.20000000000005</ele>
<time>2023-05-16T09:02:46Z</time>
</trkpt>
<trkpt lat="48.82946692407131" lon="9.852742943912745">
<ele>437.20000000000005</ele>
<time>2023-05-16T09:02:47Z</time>
</trkpt>
<trkpt lat="48.82951796986163" lon="9.85275493003428">
<ele>437.20000000000005</ele>
<time>2023-05-16T09:02:48Z</time>
</trkpt>
<trkpt lat="48.82956792600453" lon="9.852766999974847">
<ele>437.20000000000005</ele>
<time>2023-05-16T09:02:49Z</time>
</trkpt>
<trkpt lat="48.829619977623224" lon="9.852777980268002">
<ele>437.20000000000005</ele>
<time>2023-05-16T09:02:50Z</time>
</trkpt>
<trkpt lat="48.82967194542289" lon="9.852791978046298">
<ele>437.20000000000005</ele>
<time>2023-05-16T09:02:51Z</time>
</trkpt>
<trkpt lat="48.82972491905093" lon="9.852806981652975">
<ele>437.20000000000005</ele>
<time>2023-05-16T09:02:52Z</time>
</trkpt>
<trkpt lat="48.82977797649801" lon="9.852821985259652">
<ele>437</ele>
<time>2023-05-16T09:02:53Z</time>
</trkpt>
<trkpt lat="48.82983195595443" lon="9.852831959724426">
<ele>437</ele>
<time>2023-05-16T09:02:54Z</time>
</trkpt>
<trkpt lat="48.82988694123924" lon="9.852842940017581">
<ele>436.79999999999995</ele>
<time>2023-05-16T09:02:55Z</time>
</trkpt>
<trkpt lat="48.82994192652404" lon="9.852856937795877">
<ele>436.6</ele>
<time>2023-05-16T09:02:56Z</time>
</trkpt>
<trkpt lat="48.82999699562788" lon="9.852864984422922">
<ele>436.6</ele>
<time>2023-05-16T09:02:57Z</time>
</trkpt>
<trkpt lat="48.830052986741066" lon="9.852872947230935">
<ele>436.4</ele>
<time>2023-05-16T09:02:58Z</time>
</trkpt>
<trkpt lat="48.83010797202587" lon="9.85288199968636">
<ele>436.20000000000005</ele>
<time>2023-05-16T09:02:59Z</time>
</trkpt>
<trkpt lat="48.830161951482296" lon="9.852889962494373">
<ele>436.20000000000005</ele>
<time>2023-05-16T09:03:00Z</time>
</trkpt>
<trkpt lat="48.83021492511034" lon="9.852894991636276">
<ele>436</ele>
<time>2023-05-16T09:03:01Z</time>
</trkpt>
<trkpt lat="48.830266976729035" lon="9.852897925302386">
<ele>436</ele>
<time>2023-05-16T09:03:02Z</time>
</trkpt>
<trkpt lat="48.83031492121518" lon="9.852899936959147">
<ele>436</ele>
<time>2023-05-16T09:03:03Z</time>
</trkpt>
<trkpt lat="48.83036294952035" lon="9.852899936959147">
<ele>436</ele>
<time>2023-05-16T09:03:04Z</time>
</trkpt>
<trkpt lat="48.8304119836539" lon="9.852899936959147">
<ele>436</ele>
<time>2023-05-16T09:03:05Z</time>
</trkpt>
<trkpt lat="48.83045791648328" lon="9.852896919474006">
<ele>436</ele>
<time>2023-05-16T09:03:06Z</time>
</trkpt>
<trkpt lat="48.830502927303314" lon="9.852892979979515">
<ele>436</ele>
<time>2023-05-16T09:03:07Z</time>
</trkpt>
<trkpt lat="48.830547938123345" lon="9.852886945009232">
<ele>436</ele>
<time>2023-05-16T09:03:08Z</time>
</trkpt>
<trkpt lat="48.830591943114996" lon="9.852877976372838">
<ele>436</ele>
<time>2023-05-16T09:03:09Z</time>
</trkpt>
<trkpt lat="48.830632930621505" lon="9.852864984422922">
<ele>436</ele>
<time>2023-05-16T09:03:10Z</time>
</trkpt>
<trkpt lat="48.830674923956394" lon="9.852851992473006">
<ele>436.20000000000005</ele>
<time>2023-05-16T09:03:11Z</time>
</trkpt>
<trkpt lat="48.830714989453554" lon="9.85283698886633">
<ele>436.20000000000005</ele>
<time>2023-05-16T09:03:12Z</time>
</trkpt>
<trkpt lat="48.83075195364654" lon="9.852822991088033">
<ele>436.20000000000005</ele>
<time>2023-05-16T09:03:13Z</time>
</trkpt>
<trkpt lat="48.83078799583018" lon="9.852807987481356">
<ele>436.4</ele>
<time>2023-05-16T09:03:14Z</time>
</trkpt>
<trkpt lat="48.830822948366404" lon="9.852792983874679">
<ele>436.6</ele>
<time>2023-05-16T09:03:15Z</time>
</trkpt>
<trkpt lat="48.83085697889328" lon="9.852779991924763">
<ele>436.79999999999995</ele>
<time>2023-05-16T09:03:16Z</time>
</trkpt>
<trkpt lat="48.830889919772744" lon="9.852764988318086">
<ele>437</ele>
<time>2023-05-16T09:03:17Z</time>
</trkpt>
<trkpt lat="48.83092193864286" lon="9.852747973054647">
<ele>437.20000000000005</ele>
<time>2023-05-16T09:03:18Z</time>
</trkpt>
<trkpt lat="48.83094993419945" lon="9.85273296944797">
<ele>437.4</ele>
<time>2023-05-16T09:03:19Z</time>
</trkpt>
<trkpt lat="48.830977929756045" lon="9.852717965841293">
<ele>437.79999999999995</ele>
<time>2023-05-16T09:03:20Z</time>
</trkpt>
<trkpt lat="48.8310079369694" lon="9.852699944749475">
<ele>438</ele>
<time>2023-05-16T09:03:21Z</time>
</trkpt>
<trkpt lat="48.831037944182754" lon="9.852679995819926">
<ele>438.20000000000005</ele>
<time>2023-05-16T09:03:22Z</time>
</trkpt>
<trkpt lat="48.83106996305287" lon="9.852659963071346">
<ele>438.4</ele>
<time>2023-05-16T09:03:23Z</time>
</trkpt>
<trkpt lat="48.831102987751365" lon="9.852636996656656">
<ele>438.6</ele>
<time>2023-05-16T09:03:24Z</time>
</trkpt>
<trkpt lat="48.83113794028759" lon="9.852609923109412">
<ele>438.79999999999995</ele>
<time>2023-05-16T09:03:25Z</time>
</trkpt>
<trkpt lat="48.831169959157705" lon="9.852584945037961">
<ele>439</ele>
<time>2023-05-16T09:03:26Z</time>
</trkpt>
<trkpt lat="48.8312029838562" lon="9.852556949481368">
<ele>439.20000000000005</ele>
<time>2023-05-16T09:03:27Z</time>
</trkpt>
<trkpt lat="48.83123793639243" lon="9.852529959753156">
<ele>439.20000000000005</ele>
<time>2023-05-16T09:03:28Z</time>
</trkpt>
<trkpt lat="48.8312719669193" lon="9.852499952539802">
<ele>439.4</ele>
<time>2023-05-16T09:03:29Z</time>
</trkpt>
<trkpt lat="48.83130691945553" lon="9.852469945326447">
<ele>439.6</ele>
<time>2023-05-16T09:03:30Z</time>
</trkpt>
<trkpt lat="48.831339944154024" lon="9.852439938113093">
<ele>439.6</ele>
<time>2023-05-16T09:03:31Z</time>
</trkpt>
<trkpt lat="48.83137498050928" lon="9.85240993089974">
<ele>439.79999999999995</ele>
<time>2023-05-16T09:03:32Z</time>
</trkpt>
<trkpt lat="48.83140993304551" lon="9.852379923686385">
<ele>439.79999999999995</ele>
<time>2023-05-16T09:03:33Z</time>
</trkpt>
<trkpt lat="48.831442957744" lon="9.852351928129792">
<ele>440</ele>
<time>2023-05-16T09:03:34Z</time>
</trkpt>
<trkpt lat="48.83147698827088" lon="9.852322926744819">
<ele>440.20000000000005</ele>
<time>2023-05-16T09:03:35Z</time>
</trkpt>
<trkpt lat="48.83150992915034" lon="9.852292919531465">
<ele>440.20000000000005</ele>
<time>2023-05-16T09:03:36Z</time>
</trkpt>
<trkpt lat="48.8315449655056" lon="9.852264923974872">
<ele>440.20000000000005</ele>
<time>2023-05-16T09:03:37Z</time>
</trkpt>
<trkpt lat="48.831579918041825" lon="9.852234916761518">
<ele>440.4</ele>
<time>2023-05-16T09:03:38Z</time>
</trkpt>
<trkpt lat="48.83161294274032" lon="9.852204993367195">
<ele>440.4</ele>
<time>2023-05-16T09:03:39Z</time>
</trkpt>
<trkpt lat="48.8316469732672" lon="9.85217297449708">
<ele>440.6</ele>
<time>2023-05-16T09:03:40Z</time>
</trkpt>
<trkpt lat="48.83167798630893" lon="9.852144978940487">
<ele>440.6</ele>
<time>2023-05-16T09:03:41Z</time>
</trkpt>
<trkpt lat="48.831709921360016" lon="9.852116983383894">
<ele>440.6</ele>
<time>2023-05-16T09:03:42Z</time>
</trkpt>
<trkpt lat="48.83174294605851" lon="9.85208697617054">
<ele>440.79999999999995</ele>
<time>2023-05-16T09:03:43Z</time>
</trkpt>
<trkpt lat="48.83177496492863" lon="9.852057974785566">
<ele>440.79999999999995</ele>
<time>2023-05-16T09:03:44Z</time>
</trkpt>
<trkpt lat="48.83180798962712" lon="9.852029979228973">
<ele>441</ele>
<time>2023-05-16T09:03:45Z</time>
</trkpt>
<trkpt lat="48.83184193633497" lon="9.85200198367238">
<ele>441</ele>
<time>2023-05-16T09:03:46Z</time>
</trkpt>
<trkpt lat="48.83187496103346" lon="9.851972982287407">
<ele>441.20000000000005</ele>
<time>2023-05-16T09:03:47Z</time>
</trkpt>
<trkpt lat="48.83190697990358" lon="9.851946998387575">
<ele>441.20000000000005</ele>
<time>2023-05-16T09:03:48Z</time>
</trkpt>
<trkpt lat="48.83193799294531" lon="9.851919924840331">
<ele>441.4</ele>
<time>2023-05-16T09:03:49Z</time>
</trkpt>
<trkpt lat="48.8319699279964" lon="9.851891929283738">
<ele>441.4</ele>
<time>2023-05-16T09:03:50Z</time>
</trkpt>
<trkpt lat="48.83200194686651" lon="9.851864939555526">
<ele>441.6</ele>
<time>2023-05-16T09:03:51Z</time>
</trkpt>
<trkpt lat="48.83203295990825" lon="9.851836943998933">
<ele>441.6</ele>
<time>2023-05-16T09:03:52Z</time>
</trkpt>
<trkpt lat="48.83206497877836" lon="9.85180794261396">
<ele>441.6</ele>
<time>2023-05-16T09:03:53Z</time>
</trkpt>
<trkpt lat="48.832094985991716" lon="9.851779947057366">
<ele>441.79999999999995</ele>
<time>2023-05-16T09:03:54Z</time>
</trkpt>
<trkpt lat="48.8321269210428" lon="9.851751951500773">
<ele>441.79999999999995</ele>
<time>2023-05-16T09:03:55Z</time>
</trkpt>
<trkpt lat="48.832156928256154" lon="9.851726973429322">
<ele>442</ele>
<time>2023-05-16T09:03:56Z</time>
</trkpt>
<trkpt lat="48.83218794129789" lon="9.85169998370111">
<ele>442</ele>
<time>2023-05-16T09:03:57Z</time>
</trkpt>
<trkpt lat="48.832219960168004" lon="9.851671988144517">
<ele>442</ele>
<time>2023-05-16T09:03:58Z</time>
</trkpt>
<trkpt lat="48.83224996738136" lon="9.851644998416305">
<ele>442.20000000000005</ele>
<time>2023-05-16T09:03:59Z</time>
</trkpt>
<trkpt lat="48.83228198625147" lon="9.85161691904068">
<ele>442.20000000000005</ele>
<time>2023-05-16T09:04:00Z</time>
</trkpt>
<trkpt lat="48.83231199346483" lon="9.851587917655706">
<ele>442.4</ele>
<time>2023-05-16T09:04:01Z</time>
</trkpt>
<trkpt lat="48.83234292268753" lon="9.851559922099113">
<ele>442.4</ele>
<time>2023-05-16T09:04:02Z</time>
</trkpt>
<trkpt lat="48.832372929900885" lon="9.851532932370901">
<ele>442.6</ele>
<time>2023-05-16T09:04:03Z</time>
</trkpt>
<trkpt lat="48.832404948771" lon="9.851502925157547">
<ele>442.6</ele>
<time>2023-05-16T09:04:04Z</time>
</trkpt>
<trkpt lat="48.832434955984354" lon="9.851471995934844">
<ele>442.79999999999995</ele>
<time>2023-05-16T09:04:05Z</time>
</trkpt>
<trkpt lat="48.83246697485447" lon="9.851437965407968">
<ele>442.79999999999995</ele>
<time>2023-05-16T09:04:06Z</time>
</trkpt>
<trkpt lat="48.83249698206782" lon="9.85140192322433">
<ele>442.79999999999995</ele>
<time>2023-05-16T09:04:07Z</time>
</trkpt>
<trkpt lat="48.83252799510956" lon="9.851364959031343">
<ele>443</ele>
<time>2023-05-16T09:04:08Z</time>
</trkpt>
<trkpt lat="48.83255791850388" lon="9.851327994838357">
<ele>443</ele>
<time>2023-05-16T09:04:09Z</time>
</trkpt>
<trkpt lat="48.832587925717235" lon="9.8512929584831">
<ele>443</ele>
<time>2023-05-16T09:04:10Z</time>
</trkpt>
<trkpt lat="48.83261793293059" lon="9.851251970976591">
<ele>443.20000000000005</ele>
<time>2023-05-16T09:04:11Z</time>
</trkpt>
<trkpt lat="48.8326449226588" lon="9.851211989298463">
<ele>443.20000000000005</ele>
<time>2023-05-16T09:04:12Z</time>
</trkpt>
<trkpt lat="48.832669984549284" lon="9.851169995963573">
<ele>443.20000000000005</ele>
<time>2023-05-16T09:04:13Z</time>
</trkpt>
<trkpt lat="48.832696974277496" lon="9.851129930466413">
<ele>443.20000000000005</ele>
<time>2023-05-16T09:04:14Z</time>
</trkpt>
<trkpt lat="48.83272195234895" lon="9.851087937131524">
<ele>443.4</ele>
<time>2023-05-16T09:04:15Z</time>
</trkpt>
<trkpt lat="48.83274491876364" lon="9.851046949625015">
<ele>443.4</ele>
<time>2023-05-16T09:04:16Z</time>
</trkpt>
<trkpt lat="48.83276998065412" lon="9.851001938804984">
<ele>443.4</ele>
<time>2023-05-16T09:04:17Z</time>
</trkpt>
<trkpt lat="48.83279294706881" lon="9.850952988490462">
<ele>443.6</ele>
<time>2023-05-16T09:04:18Z</time>
</trkpt>
<trkpt lat="48.83281499147415" lon="9.85090496018529">
<ele>443.6</ele>
<time>2023-05-16T09:04:19Z</time>
</trkpt>
<trkpt lat="48.83283695206046" lon="9.850854920223355">
<ele>443.6</ele>
<time>2023-05-16T09:04:20Z</time>
</trkpt>
<trkpt lat="48.83285799063742" lon="9.850804964080453">
<ele>443.6</ele>
<time>2023-05-16T09:04:21Z</time>
</trkpt>
<trkpt lat="48.83287693373859" lon="9.85075299628079">
<ele>443.6</ele>
<time>2023-05-16T09:04:22Z</time>
</trkpt>
<trkpt lat="48.83289495483041" lon="9.850697927176952">
<ele>443.6</ele>
<time>2023-05-16T09:04:23Z</time>
</trkpt>
<trkpt lat="48.832909958437085" lon="9.850642941892147">
<ele>443.6</ele>
<time>2023-05-16T09:04:24Z</time>
</trkpt>
<trkpt lat="48.83292697370052" lon="9.850586950778961">
<ele>443.6</ele>
<time>2023-05-16T09:04:25Z</time>
</trkpt>
<trkpt lat="48.83294298313558" lon="9.850526936352253">
<ele>443.6</ele>
<time>2023-05-16T09:04:26Z</time>
</trkpt>
<trkpt lat="48.83295798674226" lon="9.850467927753925">
<ele>443.6</ele>
<time>2023-05-16T09:04:27Z</time>
</trkpt>
<trkpt lat="48.832974918186665" lon="9.850407997146249">
<ele>443.6</ele>
<time>2023-05-16T09:04:28Z</time>
</trkpt>
<trkpt lat="48.83298799395561" lon="9.85034697689116">
<ele>443.6</ele>
<time>2023-05-16T09:04:29Z</time>
</trkpt>
<trkpt lat="48.83300199173391" lon="9.85028495080769">
<ele>443.6</ele>
<time>2023-05-16T09:04:30Z</time>
</trkpt>
<trkpt lat="48.83301297202706" lon="9.850222924724221">
<ele>443.6</ele>
<time>2023-05-16T09:04:31Z</time>
</trkpt>
<trkpt lat="48.83302294649184" lon="9.850159976631403">
<ele>443.6</ele>
<time>2023-05-16T09:04:32Z</time>
</trkpt>
<trkpt lat="48.83303292095661" lon="9.850096944719553">
<ele>443.6</ele>
<time>2023-05-16T09:04:33Z</time>
</trkpt>
<trkpt lat="48.833039961755276" lon="9.850029973313212">
<ele>443.6</ele>
<time>2023-05-16T09:04:34Z</time>
</trkpt>
<trkpt lat="48.83304297924042" lon="9.84995998442173">
<ele>443.6</ele>
<time>2023-05-16T09:04:35Z</time>
</trkpt>
<trkpt lat="48.83304499089718" lon="9.849886978045106">
<ele>443.4</ele>
<time>2023-05-16T09:04:36Z</time>
</trkpt>
<trkpt lat="48.83304691873491" lon="9.849807936698198">
<ele>443.4</ele>
<time>2023-05-16T09:04:37Z</time>
</trkpt>
<trkpt lat="48.83304499089718" lon="9.849727973341942">
<ele>443.20000000000005</ele>
<time>2023-05-16T09:04:38Z</time>
</trkpt>
<trkpt lat="48.83304297924042" lon="9.849644992500544">
<ele>443.20000000000005</ele>
<time>2023-05-16T09:04:39Z</time>
</trkpt>
<trkpt lat="48.833036944270134" lon="9.849557988345623">
<ele>443.20000000000005</ele>
<time>2023-05-16T09:04:40Z</time>
</trkpt>
<trkpt lat="48.8330299872905" lon="9.849469978362322">
<ele>443</ele>
<time>2023-05-16T09:04:41Z</time>
</trkpt>
<trkpt lat="48.83302194066346" lon="9.84938196837902">
<ele>443</ele>
<time>2023-05-16T09:04:42Z</time>
</trkpt>
<trkpt lat="48.83301196619868" lon="9.849291946738958">
<ele>442.79999999999995</ele>
<time>2023-05-16T09:04:43Z</time>
</trkpt>
<trkpt lat="48.83299998007715" lon="9.849202930927277">
<ele>442.79999999999995</ele>
<time>2023-05-16T09:04:44Z</time>
</trkpt>
<trkpt lat="48.83298799395561" lon="9.849114920943975">
<ele>442.6</ele>
<time>2023-05-16T09:04:45Z</time>
</trkpt>
<trkpt lat="48.832977935671806" lon="9.849027916789055">
<ele>442.6</ele>
<time>2023-05-16T09:04:46Z</time>
</trkpt>
<trkpt lat="48.83296695537865" lon="9.848944935947657">
<ele>442.6</ele>
<time>2023-05-16T09:04:47Z</time>
</trkpt>
<trkpt lat="48.83295698091388" lon="9.848861955106258">
<ele>442.4</ele>
<time>2023-05-16T09:04:48Z</time>
</trkpt>
<trkpt lat="48.83294692263007" lon="9.84877998009324">
<ele>442.4</ele>
<time>2023-05-16T09:04:49Z</time>
</trkpt>
<trkpt lat="48.8329369481653" lon="9.848699932917953">
<ele>442.4</ele>
<time>2023-05-16T09:04:50Z</time>
</trkpt>
<trkpt lat="48.83292697370052" lon="9.848621981218457">
<ele>442.4</ele>
<time>2023-05-16T09:04:51Z</time>
</trkpt>
<trkpt lat="48.83291498757899" lon="9.848547969013453">
<ele>442.20000000000005</ele>
<time>2023-05-16T09:04:52Z</time>
</trkpt>
<trkpt lat="48.83290694095194" lon="9.848472950980067">
<ele>442.20000000000005</ele>
<time>2023-05-16T09:04:53Z</time>
</trkpt>
<trkpt lat="48.83289294317365" lon="9.848399944603443">
<ele>442.20000000000005</ele>
<time>2023-05-16T09:04:54Z</time>
</trkpt>
<trkpt lat="48.83288196288049" lon="9.8483279440552">
<ele>442.20000000000005</ele>
<time>2023-05-16T09:04:55Z</time>
</trkpt>
<trkpt lat="48.8328729942441" lon="9.848254937678576">
<ele>442.20000000000005</ele>
<time>2023-05-16T09:04:56Z</time>
</trkpt>
<trkpt lat="48.832866959273815" lon="9.848182937130332">
<ele>442.4</ele>
<time>2023-05-16T09:04:57Z</time>
</trkpt>
<trkpt lat="48.83285799063742" lon="9.84811294823885">
<ele>442.4</ele>
<time>2023-05-16T09:04:58Z</time>
</trkpt>
<trkpt lat="48.83284994401038" lon="9.848042959347367">
<ele>442.4</ele>
<time>2023-05-16T09:04:59Z</time>
</trkpt>
<trkpt lat="48.832842987030745" lon="9.847971964627504">
<ele>442.4</ele>
<time>2023-05-16T09:05:00Z</time>
</trkpt>
<trkpt lat="48.832841981202364" lon="9.84789996407926">
<ele>442.4</ele>
<time>2023-05-16T09:05:01Z</time>
</trkpt>
<trkpt lat="48.832846926525235" lon="9.847827963531017">
<ele>442.4</ele>
<time>2023-05-16T09:05:02Z</time>
</trkpt>
<trkpt lat="48.83285296149552" lon="9.847759986296296">
<ele>442.4</ele>
<time>2023-05-16T09:05:03Z</time>
</trkpt>
<trkpt lat="48.83286193013191" lon="9.847696954384446">
<ele>442.4</ele>
<time>2023-05-16T09:05:04Z</time>
</trkpt>
<trkpt lat="48.83286997675896" lon="9.847632916644216">
<ele>442.4</ele>
<time>2023-05-16T09:05:05Z</time>
</trkpt>
<trkpt lat="48.832886992022395" lon="9.8475749976933">
<ele>442.6</ele>
<time>2023-05-16T09:05:06Z</time>
</trkpt>
<trkpt lat="48.83291297592223" lon="9.847522946074605">
<ele>442.6</ele>
<time>2023-05-16T09:05:07Z</time>
</trkpt>
<trkpt lat="48.83294994011521" lon="9.847484976053238">
<ele>442.6</ele>
<time>2023-05-16T09:05:08Z</time>
</trkpt>
<trkpt lat="48.83299293927848" lon="9.84744792804122">
<ele>442.79999999999995</ele>
<time>2023-05-16T09:05:09Z</time>
</trkpt>
<trkpt lat="48.833036944270134" lon="9.847414987161756">
<ele>443</ele>
<time>2023-05-16T09:05:10Z</time>
</trkpt>
<trkpt lat="48.833082960918546" lon="9.847389925271273">
<ele>443</ele>
<time>2023-05-16T09:05:11Z</time>
</trkpt>
<trkpt lat="48.83312797173858" lon="9.847371987998486">
<ele>443.4</ele>
<time>2023-05-16T09:05:12Z</time>
</trkpt>
<trkpt lat="48.833169965073466" lon="9.847356984391809">
<ele>443.6</ele>
<time>2023-05-16T09:05:13Z</time>
</trkpt>
<trkpt lat="48.83320793509483" lon="9.847342986613512">
<ele>443.79999999999995</ele>
<time>2023-05-16T09:05:14Z</time>
</trkpt>
<trkpt lat="48.83324297145009" lon="9.847329994663596">
<ele>444</ele>
<time>2023-05-16T09:05:15Z</time>
</trkpt>
<trkpt lat="48.833274990320206" lon="9.847316918894649">
<ele>444.4</ele>
<time>2023-05-16T09:05:16Z</time>
</trkpt>
<trkpt lat="48.83330198004842" lon="9.847304932773113">
<ele>444.6</ele>
<time>2023-05-16T09:05:17Z</time>
</trkpt>
<trkpt lat="48.83332997560501" lon="9.847291940823197">
<ele>445</ele>
<time>2023-05-16T09:05:18Z</time>
</trkpt>
<trkpt lat="48.833357971161604" lon="9.84727693721652">
<ele>445.20000000000005</ele>
<time>2023-05-16T09:05:19Z</time>
</trkpt>
<trkpt lat="48.83338999003172" lon="9.847257994115353">
<ele>445.4</ele>
<time>2023-05-16T09:05:20Z</time>
</trkpt>
<trkpt lat="48.83341999724507" lon="9.847237961366773">
<ele>445.6</ele>
<time>2023-05-16T09:05:21Z</time>
</trkpt>
<trkpt lat="48.833447992801666" lon="9.847217928618193">
<ele>445.6</ele>
<time>2023-05-16T09:05:22Z</time>
</trkpt>
<trkpt lat="48.83347699418664" lon="9.847197979688644">
<ele>445.79999999999995</ele>
<time>2023-05-16T09:05:23Z</time>
</trkpt>
<trkpt lat="48.83350691758096" lon="9.847174929454923">
<ele>445.79999999999995</ele>
<time>2023-05-16T09:05:24Z</time>
</trkpt>
<trkpt lat="48.833536924794316" lon="9.847151963040233">
<ele>445.79999999999995</ele>
<time>2023-05-16T09:05:25Z</time>
</trkpt>
<trkpt lat="48.83356994949281" lon="9.84712296165526">
<ele>445.79999999999995</ele>
<time>2023-05-16T09:05:26Z</time>
</trkpt>
<trkpt lat="48.83360498584807" lon="9.847086919471622">
<ele>445.79999999999995</ele>
<time>2023-05-16T09:05:27Z</time>
</trkpt>
<trkpt lat="48.83363792672753" lon="9.847044926136732">
<ele>445.79999999999995</ele>
<time>2023-05-16T09:05:28Z</time>
</trkpt>
<trkpt lat="48.83367195725441" lon="9.846997987478971">
<ele>445.79999999999995</ele>
<time>2023-05-16T09:05:29Z</time>
</trkpt>
<trkpt lat="48.83371193893254" lon="9.846944930031896">
<ele>445.79999999999995</ele>
<time>2023-05-16T09:05:30Z</time>
</trkpt>
<trkpt lat="48.83375292643905" lon="9.846882987767458">
<ele>445.6</ele>
<time>2023-05-16T09:05:31Z</time>
</trkpt>
<trkpt lat="48.83379793725908" lon="9.846816938370466">
<ele>445.6</ele>
<time>2023-05-16T09:05:32Z</time>
</trkpt>
<trkpt lat="48.83384495973587" lon="9.846744937822223">
<ele>445.4</ele>
<time>2023-05-16T09:05:33Z</time>
</trkpt>
<trkpt lat="48.833894999697804" lon="9.846669919788837">
<ele>445.4</ele>
<time>2023-05-16T09:05:34Z</time>
</trkpt>
<trkpt lat="48.83394696749747" lon="9.846594985574484">
<ele>445</ele>
<time>2023-05-16T09:05:35Z</time>
</trkpt>
<trkpt lat="48.834004970267415" lon="9.84652298502624">
<ele>444.79999999999995</ele>
<time>2023-05-16T09:05:36Z</time>
</trkpt>
<trkpt lat="48.83406791836023" lon="9.84645794145763">
<ele>444.4</ele>
<time>2023-05-16T09:05:37Z</time>
</trkpt>
<trkpt lat="48.834134973585606" lon="9.846402956172824">
<ele>444</ele>
<time>2023-05-16T09:05:38Z</time>
</trkpt>
<trkpt lat="48.83420295082033" lon="9.846357945352793">
<ele>443.6</ele>
<time>2023-05-16T09:05:39Z</time>
</trkpt>
<trkpt lat="48.83426992222667" lon="9.846327938139439">
<ele>443.20000000000005</ele>
<time>2023-05-16T09:05:40Z</time>
</trkpt>
<trkpt lat="48.83433798328042" lon="9.84630698338151">
<ele>443</ele>
<time>2023-05-16T09:05:41Z</time>
</trkpt>
<trkpt lat="48.83440696634352" lon="9.846291979774833">
<ele>442.6</ele>
<time>2023-05-16T09:05:42Z</time>
</trkpt>
<trkpt lat="48.83447293192148" lon="9.84628695063293">
<ele>442.4</ele>
<time>2023-05-16T09:05:43Z</time>
</trkpt>
<trkpt lat="48.83453797549009" lon="9.84628695063293">
<ele>442.20000000000005</ele>
<time>2023-05-16T09:05:44Z</time>
</trkpt>
<trkpt lat="48.83460192941129" lon="9.84628795646131">
<ele>442</ele>
<time>2023-05-16T09:05:45Z</time>
</trkpt>
<trkpt lat="48.83466294966638" lon="9.846289968118072">
<ele>441.79999999999995</ele>
<time>2023-05-16T09:05:46Z</time>
</trkpt>
<trkpt lat="48.83472497574985" lon="9.846289968118072">
<ele>441.6</ele>
<time>2023-05-16T09:05:47Z</time>
</trkpt>
<trkpt lat="48.8347829785198" lon="9.846291979774833">
<ele>441.6</ele>
<time>2023-05-16T09:05:48Z</time>
</trkpt>
<trkpt lat="48.834839975461364" lon="9.846294997259974">
<ele>441.4</ele>
<time>2023-05-16T09:05:49Z</time>
</trkpt>
<trkpt lat="48.83489496074617" lon="9.846296925097704">
<ele>441.4</ele>
<time>2023-05-16T09:05:50Z</time>
</trkpt>
<trkpt lat="48.83494692854583" lon="9.846294997259974">
<ele>441.4</ele>
<time>2023-05-16T09:05:51Z</time>
</trkpt>
<trkpt lat="48.83499797433615" lon="9.846292985603213">
<ele>441.4</ele>
<time>2023-05-16T09:05:52Z</time>
</trkpt>
<trkpt lat="48.83504793047905" lon="9.846291979774833">
<ele>441.4</ele>
<time>2023-05-16T09:05:53Z</time>
</trkpt>
<trkpt lat="48.8350969646126" lon="9.84628695063293">
<ele>441.20000000000005</ele>
<time>2023-05-16T09:05:54Z</time>
</trkpt>
<trkpt lat="48.835144992917776" lon="9.846281921491027">
<ele>441.20000000000005</ele>
<time>2023-05-16T09:05:55Z</time>
</trkpt>
<trkpt lat="48.83519293740392" lon="9.846271947026253">
<ele>441.20000000000005</ele>
<time>2023-05-16T09:05:56Z</time>
</trkpt>
<trkpt lat="48.83524297736585" lon="9.846259960904717">
<ele>441.20000000000005</ele>
<time>2023-05-16T09:05:57Z</time>
</trkpt>
<trkpt lat="48.835292933508754" lon="9.846246968954802">
<ele>441.20000000000005</ele>
<time>2023-05-16T09:05:58Z</time>
</trkpt>
<trkpt lat="48.83534297347069" lon="9.846232971176505">
<ele>441.20000000000005</ele>
<time>2023-05-16T09:05:59Z</time>
</trkpt>
<trkpt lat="48.83539494127035" lon="9.846216961741447">
<ele>441.20000000000005</ele>
<time>2023-05-16T09:06:00Z</time>
</trkpt>
<trkpt lat="48.835442969575524" lon="9.84619994647801">
<ele>441.20000000000005</ele>
<time>2023-05-16T09:06:01Z</time>
</trkpt>
<trkpt lat="48.83548999205232" lon="9.84618192538619">
<ele>441.20000000000005</ele>
<time>2023-05-16T09:06:02Z</time>
</trkpt>
<trkpt lat="48.83553693071008" lon="9.846161976456642">
<ele>441.20000000000005</ele>
<time>2023-05-16T09:06:03Z</time>
</trkpt>
<trkpt lat="48.835577918216586" lon="9.846139932051301">
<ele>441.20000000000005</ele>
<time>2023-05-16T09:06:04Z</time>
</trkpt>
<trkpt lat="48.83562192320824" lon="9.846119983121753">
<ele>441.20000000000005</ele>
<time>2023-05-16T09:06:05Z</time>
</trkpt>
<trkpt lat="48.83566299453378" lon="9.846099950373173">
<ele>441.20000000000005</ele>
<time>2023-05-16T09:06:06Z</time>
</trkpt>
<trkpt lat="48.83570498786867" lon="9.846076983958483">
<ele>441.20000000000005</ele>
<time>2023-05-16T09:06:07Z</time>
</trkpt>
<trkpt lat="48.835744969546795" lon="9.84605292789638">
<ele>441.20000000000005</ele>
<time>2023-05-16T09:06:08Z</time>
</trkpt>
<trkpt lat="48.835786962881684" lon="9.846034990623593">
<ele>441.20000000000005</ele>
<time>2023-05-16T09:06:09Z</time>
</trkpt>
<trkpt lat="48.835829962044954" lon="9.846012946218252">
<ele>441.20000000000005</ele>
<time>2023-05-16T09:06:10Z</time>
</trkpt>
<trkpt lat="48.835871955379844" lon="9.845991991460323">
<ele>441.20000000000005</ele>
<time>2023-05-16T09:06:11Z</time>
</trkpt>
<trkpt lat="48.83591193705797" lon="9.845967935398221">
<ele>441.4</ele>
<time>2023-05-16T09:06:12Z</time>
</trkpt>
<trkpt lat="48.83595292456448" lon="9.845946980640292">
<ele>441.4</ele>
<time>2023-05-16T09:06:13Z</time>
</trkpt>
<trkpt lat="48.83599299006164" lon="9.845924936234951">
<ele>441.4</ele>
<time>2023-05-16T09:06:14Z</time>
</trkpt>
<trkpt lat="48.83603297173977" lon="9.845901969820261">
<ele>441.4</ele>
<time>2023-05-16T09:06:15Z</time>
</trkpt>
<trkpt lat="48.8360729534179" lon="9.84587699174881">
<ele>441.4</ele>
<time>2023-05-16T09:06:16Z</time>
</trkpt>
<trkpt lat="48.83611494675279" lon="9.845849918201566">
<ele>441.4</ele>
<time>2023-05-16T09:06:17Z</time>
</trkpt>
<trkpt lat="48.83615794591606" lon="9.845822928473353">
<ele>441.4</ele>
<time>2023-05-16T09:06:18Z</time>
</trkpt>
<trkpt lat="48.83620195090771" lon="9.84579493291676">
<ele>441.4</ele>
<time>2023-05-16T09:06:19Z</time>
</trkpt>
<trkpt lat="48.83624696172774" lon="9.845766937360168">
<ele>441.4</ele>
<time>2023-05-16T09:06:20Z</time>
</trkpt>
<trkpt lat="48.83628996089101" lon="9.845739947631955">
<ele>441.4</ele>
<time>2023-05-16T09:06:21Z</time>
</trkpt>
<trkpt lat="48.8363319542259" lon="9.845711952075362">
<ele>441.4</ele>
<time>2023-05-16T09:06:22Z</time>
</trkpt>
<trkpt lat="48.836371935904026" lon="9.845677921548486">
<ele>441.4</ele>
<time>2023-05-16T09:06:23Z</time>
</trkpt>
<trkpt lat="48.836411917582154" lon="9.84564296901226">
<ele>441.4</ele>
<time>2023-05-16T09:06:24Z</time>
</trkpt>
<trkpt lat="48.836452988907695" lon="9.845609944313765">
<ele>441.4</ele>
<time>2023-05-16T09:06:25Z</time>
</trkpt>
<trkpt lat="48.836494982242584" lon="9.84557792544365">
<ele>441.4</ele>
<time>2023-05-16T09:06:26Z</time>
</trkpt>
<trkpt lat="48.836536975577474" lon="9.845544984564185">
<ele>441.4</ele>
<time>2023-05-16T09:06:27Z</time>
</trkpt>
<trkpt lat="48.8365769572556" lon="9.84551296569407">
<ele>441.4</ele>
<time>2023-05-16T09:06:28Z</time>
</trkpt>
<trkpt lat="48.83661794476211" lon="9.845482958480716">
<ele>441.4</ele>
<time>2023-05-16T09:06:29Z</time>
</trkpt>
<trkpt lat="48.83665792644024" lon="9.845451945438981">
<ele>441.4</ele>
<time>2023-05-16T09:06:30Z</time>
</trkpt>
<trkpt lat="48.8366979919374" lon="9.845419926568866">
<ele>441.6</ele>
<time>2023-05-16T09:06:31Z</time>
</trkpt>
<trkpt lat="48.836734956130385" lon="9.845391931012273">
<ele>441.6</ele>
<time>2023-05-16T09:06:32Z</time>
</trkpt>
<trkpt lat="48.836774937808514" lon="9.8453629296273">
<ele>441.6</ele>
<time>2023-05-16T09:06:33Z</time>
</trkpt>
<trkpt lat="48.83681299164891" lon="9.845336945727468">
<ele>441.79999999999995</ele>
<time>2023-05-16T09:06:34Z</time>
</trkpt>
<trkpt lat="48.83685196749866" lon="9.845309955999255">
<ele>441.79999999999995</ele>
<time>2023-05-16T09:06:35Z</time>
</trkpt>
<trkpt lat="48.836886920034885" lon="9.845286989584565">
<ele>442</ele>
<time>2023-05-16T09:06:36Z</time>
</trkpt>
<trkpt lat="48.83691994473338" lon="9.845261927694082">
<ele>442</ele>
<time>2023-05-16T09:06:37Z</time>
</trkpt>
<trkpt lat="48.83695498108864" lon="9.845236949622631">
<ele>442</ele>
<time>2023-05-16T09:06:38Z</time>
</trkpt>
<trkpt lat="48.836989933624864" lon="9.845214989036322">
<ele>442.20000000000005</ele>
<time>2023-05-16T09:06:39Z</time>
</trkpt>
<trkpt lat="48.83702295832336" lon="9.845197973772883">
<ele>442.20000000000005</ele>
<time>2023-05-16T09:06:40Z</time>
</trkpt>
<trkpt lat="48.837056988850236" lon="9.8451919388026">
<ele>442.4</ele>
<time>2023-05-16T09:06:41Z</time>
</trkpt>
<trkpt lat="48.83708791807294" lon="9.84519294463098">
<ele>442.4</ele>
<time>2023-05-16T09:06:42Z</time>
</trkpt>
<trkpt lat="48.837121948599815" lon="9.845197973772883">
<ele>442.6</ele>
<time>2023-05-16T09:06:43Z</time>
</trkpt>
<trkpt lat="48.83715698495507" lon="9.845201997086406">
<ele>442.6</ele>
<time>2023-05-16T09:06:44Z</time>
</trkpt>
<trkpt lat="48.83718992583454" lon="9.845206942409277">
<ele>442.79999999999995</ele>
<time>2023-05-16T09:06:45Z</time>
</trkpt>
<trkpt lat="48.83721792139113" lon="9.845217922702432">
<ele>442.79999999999995</ele>
<time>2023-05-16T09:06:46Z</time>
</trkpt>
<trkpt lat="48.837249940261245" lon="9.845232926309109">
<ele>442.79999999999995</ele>
<time>2023-05-16T09:06:47Z</time>
</trkpt>
<trkpt lat="48.83728195913136" lon="9.845247929915786">
<ele>443</ele>
<time>2023-05-16T09:06:48Z</time>
</trkpt>
<trkpt lat="48.837311966344714" lon="9.845266956835985">
<ele>443</ele>
<time>2023-05-16T09:06:49Z</time>
</trkpt>
<trkpt lat="48.837337950244546" lon="9.845289923250675">
<ele>443.20000000000005</ele>
<time>2023-05-16T09:06:50Z</time>
</trkpt>
<trkpt lat="48.83736493997276" lon="9.845317918807268">
<ele>443.4</ele>
<time>2023-05-16T09:06:51Z</time>
</trkpt>
<trkpt lat="48.83739494718611" lon="9.845344992354512">
<ele>443.4</ele>
<time>2023-05-16T09:06:52Z</time>
</trkpt>
<trkpt lat="48.837422942742705" lon="9.845371982082725">
<ele>443.6</ele>
<time>2023-05-16T09:06:53Z</time>
</trkpt>
<trkpt lat="48.83744792081416" lon="9.845401989296079">
<ele>443.6</ele>
<time>2023-05-16T09:06:54Z</time>
</trkpt>
<trkpt lat="48.83747197687626" lon="9.845429984852672">
<ele>443.79999999999995</ele>
<time>2023-05-16T09:06:55Z</time>
</trkpt>
<trkpt lat="48.83749494329095" lon="9.845456974580884">
<ele>443.79999999999995</ele>
<time>2023-05-16T09:06:56Z</time>
</trkpt>
<trkpt lat="48.83751799352467" lon="9.845476923510432">
<ele>444</ele>
<time>2023-05-16T09:06:57Z</time>
</trkpt>
<trkpt lat="48.83754196576774" lon="9.84549192711711">
<ele>444</ele>
<time>2023-05-16T09:06:58Z</time>
</trkpt>
<trkpt lat="48.83756493218243" lon="9.845486981794238">
<ele>444.20000000000005</ele>
<time>2023-05-16T09:06:59Z</time>
</trkpt>
<trkpt lat="48.83758496493101" lon="9.845457980409265">
<ele>444.20000000000005</ele>
<time>2023-05-16T09:07:00Z</time>
</trkpt>
<trkpt lat="48.83760499767959" lon="9.845412969589233">
<ele>444.20000000000005</ele>
<time>2023-05-16T09:07:01Z</time>
</trkpt>
<trkpt lat="48.83761798962951" lon="9.845357984304428">
<ele>444.20000000000005</ele>
<time>2023-05-16T09:07:02Z</time>
</trkpt>
<trkpt lat="48.83762997575104" lon="9.845291934907436">
<ele>444</ele>
<time>2023-05-16T09:07:03Z</time>
</trkpt>
<trkpt lat="48.837636932730675" lon="9.845227980986238">
<ele>444</ele>
<time>2023-05-16T09:07:04Z</time>
</trkpt>
<trkpt lat="48.83764196187258" lon="9.845164949074388">
<ele>443.79999999999995</ele>
<time>2023-05-16T09:07:05Z</time>
</trkpt>
<trkpt lat="48.83764196187258" lon="9.845109963789582">
<ele>443.79999999999995</ele>
<time>2023-05-16T09:07:06Z</time>
</trkpt>
<trkpt lat="48.83764196187258" lon="9.84506193548441">
<ele>443.6</ele>
<time>2023-05-16T09:07:07Z</time>
</trkpt>
<trkpt lat="48.83764196187258" lon="9.845016924664378">
<ele>443.6</ele>
<time>2023-05-16T09:07:08Z</time>
</trkpt>
<trkpt lat="48.837636932730675" lon="9.84497694298625">
<ele>443.4</ele>
<time>2023-05-16T09:07:09Z</time>
</trkpt>
<trkpt lat="48.83762997575104" lon="9.844931932166219">
<ele>443.20000000000005</ele>
<time>2023-05-16T09:07:10Z</time>
</trkpt>
<trkpt lat="48.837621929124" lon="9.844886921346188">
<ele>443</ele>
<time>2023-05-16T09:07:11Z</time>
</trkpt>
<trkpt lat="48.837614972144365" lon="9.844839982688427">
<ele>442.6</ele>
<time>2023-05-16T09:07:12Z</time>
</trkpt>
<trkpt lat="48.83761798962951" lon="9.844796983525157">
<ele>442.20000000000005</ele>
<time>2023-05-16T09:07:13Z</time>
</trkpt>
<trkpt lat="48.83762997575104" lon="9.844754990190268">
<ele>441.79999999999995</ele>
<time>2023-05-16T09:07:14Z</time>
</trkpt>
<trkpt lat="48.83764497935772" lon="9.844721965491772">
<ele>441.4</ele>
<time>2023-05-16T09:07:15Z</time>
</trkpt>
<trkpt lat="48.837657971307635" lon="9.844704950228333">
<ele>441.20000000000005</ele>
<time>2023-05-16T09:07:16Z</time>
</trkpt>
<trkpt lat="48.83766794577241" lon="9.84469698742032">
<ele>441</ele>
<time>2023-05-16T09:07:17Z</time>
</trkpt>
<trkpt lat="48.837676998227835" lon="9.84469497576356">
<ele>440.79999999999995</ele>
<time>2023-05-16T09:07:18Z</time>
</trkpt>
<trkpt lat="48.83768697269261" lon="9.84469992108643">
<ele>440.79999999999995</ele>
<time>2023-05-16T09:07:19Z</time>
</trkpt>
<trkpt lat="48.83769191801548" lon="9.84471995383501">
<ele>440.6</ele>
<time>2023-05-16T09:07:20Z</time>
</trkpt>
<trkpt lat="48.837699964642525" lon="9.844726994633675">
<ele>440.79999999999995</ele>
<time>2023-05-16T09:07:21Z</time>
</trkpt>
<trkpt lat="48.83773298934102" lon="9.844736969098449">
<ele>440.79999999999995</ele>
<time>2023-05-16T09:07:22Z</time>
</trkpt>
<trkpt lat="48.837764924392104" lon="9.84473998658359">
<ele>440.79999999999995</ele>
<time>2023-05-16T09:07:23Z</time>
</trkpt>
<trkpt lat="48.83780197240412" lon="9.844721965491772">
<ele>440.79999999999995</ele>
<time>2023-05-16T09:07:24Z</time>
</trkpt>
<trkpt lat="48.83782493881881" lon="9.844692964106798">
<ele>440.79999999999995</ele>
<time>2023-05-16T09:07:25Z</time>
</trkpt>
<trkpt lat="48.837852934375405" lon="9.844641918316483">
<ele>440.79999999999995</ele>
<time>2023-05-16T09:07:26Z</time>
</trkpt>
<trkpt lat="48.83786198683083" lon="9.844604954123497">
<ele>440.79999999999995</ele>
<time>2023-05-16T09:07:27Z</time>
</trkpt>
<trkpt lat="48.837896939367056" lon="9.84452792443335">
<ele>441</ele>
<time>2023-05-16T09:07:28Z</time>
</trkpt>
<trkpt lat="48.83789794519544" lon="9.844464976340532">
<ele>441</ele>
<time>2023-05-16T09:07:29Z</time>
</trkpt>
<trkpt lat="48.837914960458875" lon="9.844391969963908">
<ele>441.20000000000005</ele>
<time>2023-05-16T09:07:30Z</time>
</trkpt>
<trkpt lat="48.837914960458875" lon="9.844336984679103">
<ele>441.20000000000005</ele>
<time>2023-05-16T09:07:31Z</time>
</trkpt>
<trkpt lat="48.83793197572231" lon="9.84426992945373">
<ele>441.4</ele>
<time>2023-05-16T09:07:32Z</time>
</trkpt>
<trkpt lat="48.83794496767223" lon="9.844211926683784">
<ele>441.6</ele>
<time>2023-05-16T09:07:33Z</time>
</trkpt>
<trkpt lat="48.83794798515737" lon="9.844154929742217">
<ele>441.79999999999995</ele>
<time>2023-05-16T09:07:34Z</time>
</trkpt>
<trkpt lat="48.83794999681413" lon="9.844099944457412">
<ele>442</ele>
<time>2023-05-16T09:07:35Z</time>
</trkpt>
<trkpt lat="48.83794798515737" lon="9.844041941687465">
<ele>442.4</ele>
<time>2023-05-16T09:07:36Z</time>
</trkpt>
<trkpt lat="48.83794697932899" lon="9.843984944745898">
<ele>442.6</ele>
<time>2023-05-16T09:07:37Z</time>
</trkpt>
<trkpt lat="48.83794496767223" lon="9.843931971117854">
<ele>442.79999999999995</ele>
<time>2023-05-16T09:07:38Z</time>
</trkpt>
<trkpt lat="48.83794496767223" lon="9.843874974176288">
<ele>442.79999999999995</ele>
<time>2023-05-16T09:07:39Z</time>
</trkpt>
<trkpt lat="48.83794798515737" lon="9.843819988891482">
<ele>443</ele>
<time>2023-05-16T09:07:40Z</time>
</trkpt>
<trkpt lat="48.83795192465186" lon="9.843767937272787">
<ele>443</ele>
<time>2023-05-16T09:07:41Z</time>
</trkpt>
<trkpt lat="48.837957959622145" lon="9.843724938109517">
<ele>443.20000000000005</ele>
<time>2023-05-16T09:07:42Z</time>
</trkpt>
<trkpt lat="48.83796491660178" lon="9.843681938946247">
<ele>443.20000000000005</ele>
<time>2023-05-16T09:07:43Z</time>
</trkpt>
<trkpt lat="48.83796692825854" lon="9.843634916469455">
<ele>443.4</ele>
<time>2023-05-16T09:07:44Z</time>
</trkpt>
<trkpt lat="48.83796298876405" lon="9.843584960326552">
<ele>443.4</ele>
<time>2023-05-16T09:07:45Z</time>
</trkpt>
<trkpt lat="48.83796491660178" lon="9.843531986698508">
<ele>443.6</ele>
<time>2023-05-16T09:07:46Z</time>
</trkpt>
<trkpt lat="48.83796994574368" lon="9.843469960615039">
<ele>443.6</ele>
<time>2023-05-16T09:07:47Z</time>
</trkpt>
<trkpt lat="48.837979920208454" lon="9.843404917046428">
<ele>443.6</ele>
<time>2023-05-16T09:07:48Z</time>
</trkpt>
<trkpt lat="48.83798494935036" lon="9.843337945640087">
<ele>443.6</ele>
<time>2023-05-16T09:07:49Z</time>
</trkpt>
<trkpt lat="48.83799199014902" lon="9.843274997547269">
<ele>443.6</ele>
<time>2023-05-16T09:07:50Z</time>
</trkpt>
<trkpt lat="48.837999952957034" lon="9.843202996999025">
<ele>443.79999999999995</ele>
<time>2023-05-16T09:07:51Z</time>
</trkpt>
<trkpt lat="48.8380069937557" lon="9.843134935945272">
<ele>443.79999999999995</ele>
<time>2023-05-16T09:07:52Z</time>
</trkpt>
<trkpt lat="48.83801294490695" lon="9.84306494705379">
<ele>443.79999999999995</ele>
<time>2023-05-16T09:07:53Z</time>
</trkpt>
<trkpt lat="48.838021997362375" lon="9.84299797564745">
<ele>443.79999999999995</ele>
<time>2023-05-16T09:07:54Z</time>
</trkpt>
<trkpt lat="48.83802694268525" lon="9.842929998412728">
<ele>443.79999999999995</ele>
<time>2023-05-16T09:07:55Z</time>
</trkpt>
<trkpt lat="48.83803297765553" lon="9.842864954844117">
<ele>443.79999999999995</ele>
<time>2023-05-16T09:07:56Z</time>
</trkpt>
<trkpt lat="48.838042952120304" lon="9.842796977609396">
<ele>443.79999999999995</ele>
<time>2023-05-16T09:07:57Z</time>
</trkpt>
<trkpt lat="48.83805493824184" lon="9.842729922384024">
<ele>443.79999999999995</ele>
<time>2023-05-16T09:07:58Z</time>
</trkpt>
<trkpt lat="48.838067930191755" lon="9.842664962634444">
<ele>443.79999999999995</ele>
<time>2023-05-16T09:07:59Z</time>
</trkpt>
<trkpt lat="48.83808293379843" lon="9.842599919065833">
<ele>443.79999999999995</ele>
<time>2023-05-16T09:08:00Z</time>
</trkpt>
<trkpt lat="48.838089974597096" lon="9.842534959316254">
<ele>443.79999999999995</ele>
<time>2023-05-16T09:08:01Z</time>
</trkpt>
<trkpt lat="48.83810196071863" lon="9.842472933232784">
<ele>443.79999999999995</ele>
<time>2023-05-16T09:08:02Z</time>
</trkpt>
<trkpt lat="48.838111935183406" lon="9.842412918806076">
<ele>443.79999999999995</ele>
<time>2023-05-16T09:08:03Z</time>
</trkpt>
<trkpt lat="48.83811998181045" lon="9.842349970713258">
<ele>443.79999999999995</ele>
<time>2023-05-16T09:08:04Z</time>
</trkpt>
<trkpt lat="48.83812794461846" lon="9.842287944629788">
<ele>443.79999999999995</ele>
<time>2023-05-16T09:08:05Z</time>
</trkpt>
<trkpt lat="48.83813699707389" lon="9.8422269243747">
<ele>443.6</ele>
<time>2023-05-16T09:08:06Z</time>
</trkpt>
<trkpt lat="48.83814294822514" lon="9.8421629704535">
<ele>443.6</ele>
<time>2023-05-16T09:08:07Z</time>
</trkpt>
<trkpt lat="48.838151916861534" lon="9.84209792688489">
<ele>443.6</ele>
<time>2023-05-16T09:08:08Z</time>
</trkpt>
<trkpt lat="48.83815694600344" lon="9.842029949650168">
<ele>443.6</ele>
<time>2023-05-16T09:08:09Z</time>
</trkpt>
<trkpt lat="48.83815996348858" lon="9.841962978243828">
<ele>443.6</ele>
<time>2023-05-16T09:08:10Z</time>
</trkpt>
<trkpt lat="48.83816499263048" lon="9.841894917190075">
<ele>443.6</ele>
<time>2023-05-16T09:08:11Z</time>
</trkpt>
<trkpt lat="48.838171949610114" lon="9.841827945783734">
<ele>443.4</ele>
<time>2023-05-16T09:08:12Z</time>
</trkpt>
<trkpt lat="48.83817999623716" lon="9.841764997690916">
<ele>443.4</ele>
<time>2023-05-16T09:08:13Z</time>
</trkpt>
<trkpt lat="48.83818695321679" lon="9.841699954122305">
<ele>443.4</ele>
<time>2023-05-16T09:08:14Z</time>
</trkpt>
<trkpt lat="48.838192988187075" lon="9.841639939695597">
<ele>443.4</ele>
<time>2023-05-16T09:08:15Z</time>
</trkpt>
<trkpt lat="48.83820195682347" lon="9.84158193692565">
<ele>443.4</ele>
<time>2023-05-16T09:08:16Z</time>
</trkpt>
<trkpt lat="48.83820991963148" lon="9.841519994661212">
<ele>443.4</ele>
<time>2023-05-16T09:08:17Z</time>
</trkpt>
<trkpt lat="48.838216960430145" lon="9.841451933607459">
<ele>443.4</ele>
<time>2023-05-16T09:08:18Z</time>
</trkpt>
<trkpt lat="48.83822693489492" lon="9.841381944715977">
<ele>443.4</ele>
<time>2023-05-16T09:08:19Z</time>
</trkpt>
<trkpt lat="48.83823196403682" lon="9.841311955824494">
<ele>443.4</ele>
<time>2023-05-16T09:08:20Z</time>
</trkpt>
<trkpt lat="48.838234981521964" lon="9.84123995527625">
<ele>443.4</ele>
<time>2023-05-16T09:08:21Z</time>
</trkpt>
<trkpt lat="48.83824294432998" lon="9.841174995526671">
<ele>443.4</ele>
<time>2023-05-16T09:08:22Z</time>
</trkpt>
<trkpt lat="48.83825291879475" lon="9.841106934472919">
<ele>443.4</ele>
<time>2023-05-16T09:08:23Z</time>
</trkpt>
<trkpt lat="48.83826297707856" lon="9.84104298055172">
<ele>443.4</ele>
<time>2023-05-16T09:08:24Z</time>
</trkpt>
<trkpt lat="48.83827295154333" lon="9.840977936983109">
<ele>443.4</ele>
<time>2023-05-16T09:08:25Z</time>
</trkpt>
<trkpt lat="48.838282926008105" lon="9.840912977233529">
<ele>443.4</ele>
<time>2023-05-16T09:08:26Z</time>
</trkpt>
<trkpt lat="48.83829298429191" lon="9.84084994532168">
<ele>443.4</ele>
<time>2023-05-16T09:08:27Z</time>
</trkpt>
<trkpt lat="48.83830698207021" lon="9.840779956430197">
<ele>443.4</ele>
<time>2023-05-16T09:08:28Z</time>
</trkpt>
<trkpt lat="48.83831494487822" lon="9.840709967538714">
<ele>443.4</ele>
<time>2023-05-16T09:08:29Z</time>
</trkpt>
<trkpt lat="48.838324919342995" lon="9.840639978647232">
<ele>443.4</ele>
<time>2023-05-16T09:08:30Z</time>
</trkpt>
<trkpt lat="48.8383349776268" lon="9.84056998975575">
<ele>443.4</ele>
<time>2023-05-16T09:08:31Z</time>
</trkpt>
<trkpt lat="48.838344952091575" lon="9.840499917045236">
<ele>443.4</ele>
<time>2023-05-16T09:08:32Z</time>
</trkpt>
<trkpt lat="48.83835299871862" lon="9.840434957295656">
<ele>443.4</ele>
<time>2023-05-16T09:08:33Z</time>
</trkpt>
<trkpt lat="48.83836196735501" lon="9.840369997546077">
<ele>443.4</ele>
<time>2023-05-16T09:08:34Z</time>
</trkpt>
<trkpt lat="48.838369930163026" lon="9.840306965634227">
<ele>443.4</ele>
<time>2023-05-16T09:08:35Z</time>
</trkpt>
<trkpt lat="48.83837797679007" lon="9.840239994227886">
<ele>443.4</ele>
<time>2023-05-16T09:08:36Z</time>
</trkpt>
<trkpt lat="48.838386945426464" lon="9.840172939002514">
<ele>443.4</ele>
<time>2023-05-16T09:08:37Z</time>
</trkpt>
<trkpt lat="48.83839691989124" lon="9.840104961767793">
<ele>443.4</ele>
<time>2023-05-16T09:08:38Z</time>
</trkpt>
<trkpt lat="48.838406978175044" lon="9.84003296121955">
<ele>443.4</ele>
<time>2023-05-16T09:08:39Z</time>
</trkpt>
<trkpt lat="48.83841494098306" lon="9.839961966499686">
<ele>443.4</ele>
<time>2023-05-16T09:08:40Z</time>
</trkpt>
<trkpt lat="48.8384229876101" lon="9.839886948466301">
<ele>443.4</ele>
<time>2023-05-16T09:08:41Z</time>
</trkpt>
<trkpt lat="48.838431956246495" lon="9.839812936261296">
<ele>443.4</ele>
<time>2023-05-16T09:08:42Z</time>
</trkpt>
<trkpt lat="48.83843991905451" lon="9.839739929884672">
<ele>443.4</ele>
<time>2023-05-16T09:08:43Z</time>
</trkpt>
<trkpt lat="48.83844695985317" lon="9.839664995670319">
<ele>443.4</ele>
<time>2023-05-16T09:08:44Z</time>
</trkpt>
<trkpt lat="48.838456934317946" lon="9.839589977636933">
<ele>443.4</ele>
<time>2023-05-16T09:08:45Z</time>
</trkpt>
<trkpt lat="48.83846498094499" lon="9.83951697126031">
<ele>443.4</ele>
<time>2023-05-16T09:08:46Z</time>
</trkpt>
<trkpt lat="48.838472943753004" lon="9.839442959055305">
<ele>443.4</ele>
<time>2023-05-16T09:08:47Z</time>
</trkpt>
<trkpt lat="48.83847998455167" lon="9.839372970163822">
<ele>443.4</ele>
<time>2023-05-16T09:08:48Z</time>
</trkpt>
<trkpt lat="48.83848794735968" lon="9.839304992929101">
<ele>443.4</ele>
<time>2023-05-16T09:08:49Z</time>
</trkpt>
<trkpt lat="48.838494988158345" lon="9.839236931875348">
<ele>443.4</ele>
<time>2023-05-16T09:08:50Z</time>
</trkpt>
<trkpt lat="48.83850295096636" lon="9.839166942983866">
<ele>443.4</ele>
<time>2023-05-16T09:08:51Z</time>
</trkpt>
<trkpt lat="48.83851191960275" lon="9.839097959920764">
<ele>443.4</ele>
<time>2023-05-16T09:08:52Z</time>
</trkpt>
<trkpt lat="48.838517954573035" lon="9.83902495354414">
<ele>443.4</ele>
<time>2023-05-16T09:08:53Z</time>
</trkpt>
<trkpt lat="48.83852692320943" lon="9.838951947167516">
<ele>443.4</ele>
<time>2023-05-16T09:08:54Z</time>
</trkpt>
<trkpt lat="48.83853496983647" lon="9.83887692913413">
<ele>443.4</ele>
<time>2023-05-16T09:08:55Z</time>
</trkpt>
<trkpt lat="48.838541926816106" lon="9.838799983263016">
<ele>443.4</ele>
<time>2023-05-16T09:08:56Z</time>
</trkpt>
<trkpt lat="48.83854695595801" lon="9.838726976886392">
<ele>443.4</ele>
<time>2023-05-16T09:08:57Z</time>
</trkpt>
<trkpt lat="48.83855198509991" lon="9.838654976338148">
<ele>443.4</ele>
<time>2023-05-16T09:08:58Z</time>
</trkpt>
<trkpt lat="48.83855693042278" lon="9.838584987446666">
<ele>443.4</ele>
<time>2023-05-16T09:08:59Z</time>
</trkpt>
<trkpt lat="48.838561959564686" lon="9.838512986898422">
<ele>443.4</ele>
<time>2023-05-16T09:09:00Z</time>
</trkpt>
<trkpt lat="48.83856497704983" lon="9.838437968865037">
<ele>443.4</ele>
<time>2023-05-16T09:09:01Z</time>
</trkpt>
<trkpt lat="48.83856698870659" lon="9.838364962488413">
<ele>443.6</ele>
<time>2023-05-16T09:09:02Z</time>
</trkpt>
<trkpt lat="48.8385699223727" lon="9.83829296194017">
<ele>443.6</ele>
<time>2023-05-16T09:09:03Z</time>
</trkpt>
<trkpt lat="48.83857293985784" lon="9.838219955563545">
<ele>443.6</ele>
<time>2023-05-16T09:09:04Z</time>
</trkpt>
<trkpt lat="48.83857293985784" lon="9.838146949186921">
<ele>443.6</ele>
<time>2023-05-16T09:09:05Z</time>
</trkpt>
<trkpt lat="48.83857293985784" lon="9.838072936981916">
<ele>443.6</ele>
<time>2023-05-16T09:09:06Z</time>
</trkpt>
<trkpt lat="48.83857193402946" lon="9.837999930605292">
<ele>443.6</ele>
<time>2023-05-16T09:09:07Z</time>
</trkpt>
<trkpt lat="48.83857193402946" lon="9.837927930057049">
<ele>443.6</ele>
<time>2023-05-16T09:09:08Z</time>
</trkpt>
<trkpt lat="48.83857193402946" lon="9.837856935337186">
<ele>443.6</ele>
<time>2023-05-16T09:09:09Z</time>
</trkpt>
<trkpt lat="48.83857193402946" lon="9.837786946445704">
<ele>443.79999999999995</ele>
<time>2023-05-16T09:09:10Z</time>
</trkpt>
<trkpt lat="48.83857193402946" lon="9.83771494589746">
<ele>443.79999999999995</ele>
<time>2023-05-16T09:09:11Z</time>
</trkpt>
<trkpt lat="48.83856799453497" lon="9.837641939520836">
<ele>443.79999999999995</ele>
<time>2023-05-16T09:09:12Z</time>
</trkpt>
<trkpt lat="48.83856698870659" lon="9.837567927315831">
<ele>443.79999999999995</ele>
<time>2023-05-16T09:09:13Z</time>
</trkpt>
<trkpt lat="48.838562965393066" lon="9.837492993101478">
<ele>443.79999999999995</ele>
<time>2023-05-16T09:09:14Z</time>
</trkpt>
<trkpt lat="48.838559947907925" lon="9.837416969239712">
<ele>443.79999999999995</ele>
<time>2023-05-16T09:09:15Z</time>
</trkpt>
<trkpt lat="48.83855693042278" lon="9.837337927892804">
<ele>443.79999999999995</ele>
<time>2023-05-16T09:09:16Z</time>
</trkpt>
<trkpt lat="48.83855198509991" lon="9.837257964536548">
<ele>443.79999999999995</ele>
<time>2023-05-16T09:09:17Z</time>
</trkpt>
<trkpt lat="48.83854796178639" lon="9.83717498369515">
<ele>443.6</ele>
<time>2023-05-16T09:09:18Z</time>
</trkpt>
<trkpt lat="48.83854494430125" lon="9.83708999119699">
<ele>443.6</ele>
<time>2023-05-16T09:09:19Z</time>
</trkpt>
<trkpt lat="48.838541926816106" lon="9.83700298704207">
<ele>443.6</ele>
<time>2023-05-16T09:09:20Z</time>
</trkpt>
<trkpt lat="48.838537987321615" lon="9.83691698871553">
<ele>443.4</ele>
<time>2023-05-16T09:09:21Z</time>
</trkpt>
<trkpt lat="48.83853496983647" lon="9.836829984560609">
<ele>443.4</ele>
<time>2023-05-16T09:09:22Z</time>
</trkpt>
<trkpt lat="48.83852994069457" lon="9.83674499206245">
<ele>443.20000000000005</ele>
<time>2023-05-16T09:09:23Z</time>
</trkpt>
<trkpt lat="48.83852692320943" lon="9.83665999956429">
<ele>443</ele>
<time>2023-05-16T09:09:24Z</time>
</trkpt>
<trkpt lat="48.83852197788656" lon="9.836574923247099">
<ele>443</ele>
<time>2023-05-16T09:09:25Z</time>
</trkpt>
<trkpt lat="48.838516948744655" lon="9.83648993074894">
<ele>442.79999999999995</ele>
<time>2023-05-16T09:09:26Z</time>
</trkpt>
<trkpt lat="48.83851191960275" lon="9.83640493825078">
<ele>442.6</ele>
<time>2023-05-16T09:09:27Z</time>
</trkpt>
<trkpt lat="48.83850697427988" lon="9.836322963237762">
<ele>442.6</ele>
<time>2023-05-16T09:09:28Z</time>
</trkpt>
<trkpt lat="48.83850295096636" lon="9.836242999881506">
<ele>442.6</ele>
<time>2023-05-16T09:09:29Z</time>
</trkpt>
<trkpt lat="48.838497921824455" lon="9.836162952706218">
<ele>442.4</ele>
<time>2023-05-16T09:09:30Z</time>
</trkpt>
<trkpt lat="48.83848995901644" lon="9.836082989349961">
<ele>442.4</ele>
<time>2023-05-16T09:09:31Z</time>
</trkpt>
<trkpt lat="48.83848291821778" lon="9.836002942174673">
<ele>442.4</ele>
<time>2023-05-16T09:09:32Z</time>
</trkpt>
<trkpt lat="48.838476967066526" lon="9.835922978818417">
<ele>442.4</ele>
<time>2023-05-16T09:09:33Z</time>
</trkpt>
<trkpt lat="48.83846799843013" lon="9.835842931643128">
<ele>442.4</ele>
<time>2023-05-16T09:09:34Z</time>
</trkpt>
<trkpt lat="48.83845794014633" lon="9.835766991600394">
<ele>442.4</ele>
<time>2023-05-16T09:09:35Z</time>
</trkpt>
<trkpt lat="48.838451988995075" lon="9.83569297939539">
<ele>442.4</ele>
<time>2023-05-16T09:09:36Z</time>
</trkpt>
<trkpt lat="48.83844293653965" lon="9.835619973018765">
<ele>442.4</ele>
<time>2023-05-16T09:09:37Z</time>
</trkpt>
<trkpt lat="48.83843497373164" lon="9.83554495498538">
<ele>442.4</ele>
<time>2023-05-16T09:09:38Z</time>
</trkpt>
<trkpt lat="48.83842692710459" lon="9.835472954437137">
<ele>442.4</ele>
<time>2023-05-16T09:09:39Z</time>
</trkpt>
<trkpt lat="48.83841997012496" lon="9.835401959717274">
<ele>442.4</ele>
<time>2023-05-16T09:09:40Z</time>
</trkpt>
<trkpt lat="48.838412929326296" lon="9.835332976654172">
<ele>442.6</ele>
<time>2023-05-16T09:09:41Z</time>
</trkpt>
<trkpt lat="48.838406978175044" lon="9.835269944742322">
<ele>442.6</ele>
<time>2023-05-16T09:09:42Z</time>
</trkpt>
<trkpt lat="48.83839792571962" lon="9.835209930315614">
<ele>442.6</ele>
<time>2023-05-16T09:09:43Z</time>
</trkpt>
<trkpt lat="48.83839298039675" lon="9.835151927545667">
<ele>442.79999999999995</ele>
<time>2023-05-16T09:09:44Z</time>
</trkpt>
<trkpt lat="48.838387951254845" lon="9.835096942260861">
<ele>443</ele>
<time>2023-05-16T09:09:45Z</time>
</trkpt>
<trkpt lat="48.838386945426464" lon="9.835039945319295">
<ele>443.20000000000005</ele>
<time>2023-05-16T09:09:46Z</time>
</trkpt>
<trkpt lat="48.838386945426464" lon="9.83498496003449">
<ele>443.4</ele>
<time>2023-05-16T09:09:47Z</time>
</trkpt>
<trkpt lat="48.838389962911606" lon="9.834932992234826">
<ele>443.6</ele>
<time>2023-05-16T09:09:48Z</time>
</trkpt>
<trkpt lat="48.83839499205351" lon="9.834882952272892">
<ele>443.79999999999995</ele>
<time>2023-05-16T09:09:49Z</time>
</trkpt>
<trkpt lat="48.83840194903314" lon="9.834834923967719">
<ele>444</ele>
<time>2023-05-16T09:09:50Z</time>
</trkpt>
<trkpt lat="48.838409995660186" lon="9.834782956168056">
<ele>444.20000000000005</ele>
<time>2023-05-16T09:09:51Z</time>
</trkpt>
<trkpt lat="48.8384179584682" lon="9.834731994196773">
<ele>444.4</ele>
<time>2023-05-16T09:09:52Z</time>
</trkpt>
<trkpt lat="48.8384229876101" lon="9.834682960063219">
<ele>444.4</ele>
<time>2023-05-16T09:09:53Z</time>
</trkpt>
<trkpt lat="48.83842692710459" lon="9.834636943414807">
<ele>444.6</ele>
<time>2023-05-16T09:09:54Z</time>
</trkpt>
<trkpt lat="48.83842793293297" lon="9.834592938423157">
<ele>444.79999999999995</ele>
<time>2023-05-16T09:09:55Z</time>
</trkpt>
<trkpt lat="48.83841997012496" lon="9.834549939259887">
<ele>445</ele>
<time>2023-05-16T09:09:56Z</time>
</trkpt>
<trkpt lat="48.83840496651828" lon="9.83451196923852">
<ele>445.20000000000005</ele>
<time>2023-05-16T09:09:57Z</time>
</trkpt>
<trkpt lat="48.83838191628456" lon="9.834477938711643">
<ele>445.20000000000005</ele>
<time>2023-05-16T09:09:58Z</time>
</trkpt>
<trkpt lat="48.83835693821311" lon="9.834451954811811">
<ele>445.4</ele>
<time>2023-05-16T09:09:59Z</time>
</trkpt>
<trkpt lat="48.838327936828136" lon="9.83442798256874">
<ele>445.4</ele>
<time>2023-05-16T09:10:00Z</time>
</trkpt>
<trkpt lat="48.83829994127154" lon="9.834397975355387">
<ele>445.4</ele>
<time>2023-05-16T09:10:01Z</time>
</trkpt>
<trkpt lat="48.83827697485685" lon="9.834359921514988">
<ele>445.6</ele>
<time>2023-05-16T09:10:02Z</time>
</trkpt>
<trkpt lat="48.838259959593415" lon="9.834311977028847">
<ele>445.6</ele>
<time>2023-05-16T09:10:03Z</time>
</trkpt>
<trkpt lat="48.8382519967854" lon="9.834256991744041">
<ele>445.6</ele>
<time>2023-05-16T09:10:04Z</time>
</trkpt>
<trkpt lat="48.8382469676435" lon="9.834197983145714">
<ele>445.6</ele>
<time>2023-05-16T09:10:05Z</time>
</trkpt>
<trkpt lat="48.8382419385016" lon="9.834137968719006">
<ele>445.6</ele>
<time>2023-05-16T09:10:06Z</time>
</trkpt>
<trkpt lat="48.838237999007106" lon="9.834076948463917">
<ele>445.79999999999995</ele>
<time>2023-05-16T09:10:07Z</time>
</trkpt>
<trkpt lat="48.8382419385016" lon="9.834014922380447">
<ele>445.79999999999995</ele>
<time>2023-05-16T09:10:08Z</time>
</trkpt>
<trkpt lat="48.83824998512864" lon="9.8339569196105">
<ele>445.79999999999995</ele>
<time>2023-05-16T09:10:09Z</time>
</trkpt>
<trkpt lat="48.83826297707856" lon="9.833902940154076">
<ele>445.79999999999995</ele>
<time>2023-05-16T09:10:10Z</time>
</trkpt>
<trkpt lat="48.838281920179725" lon="9.833852984011173">
<ele>445.79999999999995</ele>
<time>2023-05-16T09:10:11Z</time>
</trkpt>
<trkpt lat="48.83830798789859" lon="9.83380294404924">
<ele>446</ele>
<time>2023-05-16T09:10:12Z</time>
</trkpt>
<trkpt lat="48.83833992294967" lon="9.833762962371111">
<ele>446</ele>
<time>2023-05-16T09:10:13Z</time>
</trkpt>
<trkpt lat="48.83837294764817" lon="9.83373697847128">
<ele>446</ele>
<time>2023-05-16T09:10:14Z</time>
</trkpt>
<trkpt lat="48.838409995660186" lon="9.833719963207841">
<ele>446</ele>
<time>2023-05-16T09:10:15Z</time>
</trkpt>
<trkpt lat="48.83844293653965" lon="9.833714934065938">
<ele>446.20000000000005</ele>
<time>2023-05-16T09:10:16Z</time>
</trkpt>
<trkpt lat="48.83847797289491" lon="9.8337169457227">
<ele>446.20000000000005</ele>
<time>2023-05-16T09:10:17Z</time>
</trkpt>
<trkpt lat="48.83851191960275" lon="9.833731949329376">
<ele>446.20000000000005</ele>
<time>2023-05-16T09:10:18Z</time>
</trkpt>
<trkpt lat="48.83854695595801" lon="9.833749970421195">
<ele>446.4</ele>
<time>2023-05-16T09:10:19Z</time>
</trkpt>
<trkpt lat="48.838579980656505" lon="9.833767991513014">
<ele>446.4</ele>
<time>2023-05-16T09:10:20Z</time>
</trkpt>
<trkpt lat="48.83861694484949" lon="9.833789952099323">
<ele>446.6</ele>
<time>2023-05-16T09:10:21Z</time>
</trkpt>
<trkpt lat="48.83865198120475" lon="9.833812918514013">
<ele>446.6</ele>
<time>2023-05-16T09:10:22Z</time>
</trkpt>
<trkpt lat="48.83868693374097" lon="9.833839992061257">
<ele>446.6</ele>
<time>2023-05-16T09:10:23Z</time>
</trkpt>
<trkpt lat="48.83872197009623" lon="9.83386698178947">
<ele>446.79999999999995</ele>
<time>2023-05-16T09:10:24Z</time>
</trkpt>
<trkpt lat="48.838757928460836" lon="9.833887936547399">
<ele>446.79999999999995</ele>
<time>2023-05-16T09:10:25Z</time>
</trkpt>
<trkpt lat="48.838794976472855" lon="9.833907969295979">
<ele>447</ele>
<time>2023-05-16T09:10:26Z</time>
</trkpt>
<trkpt lat="48.83883294649422" lon="9.833922972902656">
<ele>447</ele>
<time>2023-05-16T09:10:27Z</time>
</trkpt>
<trkpt lat="48.83886999450624" lon="9.833941999822855">
<ele>447</ele>
<time>2023-05-16T09:10:28Z</time>
</trkpt>
<trkpt lat="48.83890796452761" lon="9.833961948752403">
<ele>447</ele>
<time>2023-05-16T09:10:29Z</time>
</trkpt>
<trkpt lat="48.83894492872059" lon="9.833979969844222">
<ele>447.20000000000005</ele>
<time>2023-05-16T09:10:30Z</time>
</trkpt>
<trkpt lat="48.83897996507585" lon="9.83399698510766">
<ele>447.20000000000005</ele>
<time>2023-05-16T09:10:31Z</time>
</trkpt>
<trkpt lat="48.83901692926884" lon="9.834012994542718">
<ele>447.20000000000005</ele>
<time>2023-05-16T09:10:32Z</time>
</trkpt>
<trkpt lat="48.839051965624094" lon="9.834026992321014">
<ele>447.4</ele>
<time>2023-05-16T09:10:33Z</time>
</trkpt>
<trkpt lat="48.8390879239887" lon="9.83404291793704">
<ele>447.4</ele>
<time>2023-05-16T09:10:34Z</time>
</trkpt>
<trkpt lat="48.83912296034396" lon="9.834059933200479">
<ele>447.4</ele>
<time>2023-05-16T09:10:35Z</time>
</trkpt>
<trkpt lat="48.83915992453694" lon="9.834076948463917">
<ele>447.6</ele>
<time>2023-05-16T09:10:36Z</time>
</trkpt>
<trkpt lat="48.83919797837734" lon="9.834091952070594">
<ele>447.6</ele>
<time>2023-05-16T09:10:37Z</time>
</trkpt>
<trkpt lat="48.83923695422709" lon="9.83410494402051">
<ele>447.6</ele>
<time>2023-05-16T09:10:38Z</time>
</trkpt>
<trkpt lat="48.83927492424846" lon="9.834117935970426">
<ele>447.6</ele>
<time>2023-05-16T09:10:39Z</time>
</trkpt>
<trkpt lat="48.83931498974562" lon="9.834132939577103">
<ele>447.79999999999995</ele>
<time>2023-05-16T09:10:40Z</time>
</trkpt>
<trkpt lat="48.839354971423745" lon="9.83414995484054">
<ele>447.79999999999995</ele>
<time>2023-05-16T09:10:41Z</time>
</trkpt>
<trkpt lat="48.83939294144511" lon="9.834166970103979">
<ele>447.79999999999995</ele>
<time>2023-05-16T09:10:42Z</time>
</trkpt>
<trkpt lat="48.83943292312324" lon="9.834181973710656">
<ele>448</ele>
<time>2023-05-16T09:10:43Z</time>
</trkpt>
<trkpt lat="48.8394729886204" lon="9.834194965660572">
<ele>448</ele>
<time>2023-05-16T09:10:44Z</time>
</trkpt>
<trkpt lat="48.83951498195529" lon="9.834204940125346">
<ele>448</ele>
<time>2023-05-16T09:10:45Z</time>
</trkpt>
<trkpt lat="48.83955697529018" lon="9.834216926246881">
<ele>448.20000000000005</ele>
<time>2023-05-16T09:10:46Z</time>
</trkpt>
<trkpt lat="48.83959997445345" lon="9.834229918196797">
<ele>448.20000000000005</ele>
<time>2023-05-16T09:10:47Z</time>
</trkpt>
<trkpt lat="48.83964297361672" lon="9.834247939288616">
<ele>448.4</ele>
<time>2023-05-16T09:10:48Z</time>
</trkpt>
<trkpt lat="48.83968697860837" lon="9.834269983693957">
<ele>448.4</ele>
<time>2023-05-16T09:10:49Z</time>
</trkpt>
<trkpt lat="48.83972796611488" lon="9.834291944280267">
<ele>448.4</ele>
<time>2023-05-16T09:10:50Z</time>
</trkpt>
<trkpt lat="48.83977297693491" lon="9.834311977028847">
<ele>448.4</ele>
<time>2023-05-16T09:10:51Z</time>
</trkpt>
<trkpt lat="48.83981698192656" lon="9.834331925958395">
<ele>448.4</ele>
<time>2023-05-16T09:10:52Z</time>
</trkpt>
<trkpt lat="48.83986199274659" lon="9.834351958706975">
<ele>448.4</ele>
<time>2023-05-16T09:10:53Z</time>
</trkpt>
<trkpt lat="48.83990499190986" lon="9.834371991455555">
<ele>448.4</ele>
<time>2023-05-16T09:10:54Z</time>
</trkpt>
<trkpt lat="48.83994799107313" lon="9.834391940385103">
<ele>448.4</ele>
<time>2023-05-16T09:10:55Z</time>
</trkpt>
<trkpt lat="48.83999199606478" lon="9.834411973133683">
<ele>448.4</ele>
<time>2023-05-16T09:10:56Z</time>
</trkpt>
<trkpt lat="48.84003298357129" lon="9.834431922063231">
<ele>448.20000000000005</ele>
<time>2023-05-16T09:10:57Z</time>
</trkpt>
<trkpt lat="48.84007296524942" lon="9.834451954811811">
<ele>448.20000000000005</ele>
<time>2023-05-16T09:10:58Z</time>
</trkpt>
<trkpt lat="48.840109929442406" lon="9.834472993388772">
<ele>448.20000000000005</ele>
<time>2023-05-16T09:10:59Z</time>
</trkpt>
<trkpt lat="48.84014496579766" lon="9.834494953975081">
<ele>448.20000000000005</ele>
<time>2023-05-16T09:11:00Z</time>
</trkpt>
<trkpt lat="48.84017991833389" lon="9.834516998380423">
<ele>448.20000000000005</ele>
<time>2023-05-16T09:11:01Z</time>
</trkpt>
<trkpt lat="48.840214954689145" lon="9.834541976451874">
<ele>448.20000000000005</ele>
<time>2023-05-16T09:11:02Z</time>
</trkpt>
<trkpt lat="48.84024797938764" lon="9.834567960351706">
<ele>448.20000000000005</ele>
<time>2023-05-16T09:11:03Z</time>
</trkpt>
<trkpt lat="48.84028695523739" lon="9.834592938423157">
<ele>448.20000000000005</ele>
<time>2023-05-16T09:11:04Z</time>
</trkpt>
<trkpt lat="48.84032693691552" lon="9.834612971171737">
<ele>448.20000000000005</ele>
<time>2023-05-16T09:11:05Z</time>
</trkpt>
<trkpt lat="48.840367924422026" lon="9.834632920101285">
<ele>448.20000000000005</ele>
<time>2023-05-16T09:11:06Z</time>
</trkpt>
<trkpt lat="48.840411929413676" lon="9.834657981991768">
<ele>448.20000000000005</ele>
<time>2023-05-16T09:11:07Z</time>
</trkpt>
<trkpt lat="48.840452916920185" lon="9.834691928699613">
<ele>448.20000000000005</ele>
<time>2023-05-16T09:11:08Z</time>
</trkpt>
<trkpt lat="48.840494994074106" lon="9.83472696505487">
<ele>448.20000000000005</ele>
<time>2023-05-16T09:11:09Z</time>
</trkpt>
<trkpt lat="48.840534975752234" lon="9.834766946732998">
<ele>448.20000000000005</ele>
<time>2023-05-16T09:11:10Z</time>
</trkpt>
<trkpt lat="48.84057495743036" lon="9.834807934239507">
<ele>448.20000000000005</ele>
<time>2023-05-16T09:11:11Z</time>
</trkpt>
<trkpt lat="48.84061292745173" lon="9.834852945059538">
<ele>448.20000000000005</ele>
<time>2023-05-16T09:11:12Z</time>
</trkpt>
<trkpt lat="48.84065198712051" lon="9.834901979193091">
<ele>448.20000000000005</ele>
<time>2023-05-16T09:11:13Z</time>
</trkpt>
<trkpt lat="48.840689957141876" lon="9.834946990013123">
<ele>448.20000000000005</ele>
<time>2023-05-16T09:11:14Z</time>
</trkpt>
<trkpt lat="48.84072692133486" lon="9.834994934499264">
<ele>448.20000000000005</ele>
<time>2023-05-16T09:11:15Z</time>
</trkpt>
<trkpt lat="48.8407629635185" lon="9.835044974461198">
<ele>448.20000000000005</ele>
<time>2023-05-16T09:11:16Z</time>
</trkpt>
<trkpt lat="48.84080193936825" lon="9.835096942260861">
<ele>448.20000000000005</ele>
<time>2023-05-16T09:11:17Z</time>
</trkpt>
<trkpt lat="48.840841921046376" lon="9.835152933374047">
<ele>448.20000000000005</ele>
<time>2023-05-16T09:11:18Z</time>
</trkpt>
<trkpt lat="48.840881986543536" lon="9.835211941972375">
<ele>448.20000000000005</ele>
<time>2023-05-16T09:11:19Z</time>
</trkpt>
<trkpt lat="48.8409199565649" lon="9.835272962227464">
<ele>448.20000000000005</ele>
<time>2023-05-16T09:11:20Z</time>
</trkpt>
<trkpt lat="48.84095792658627" lon="9.835336999967694">
<ele>448.20000000000005</ele>
<time>2023-05-16T09:11:21Z</time>
</trkpt>
<trkpt lat="48.84099497459829" lon="9.835402965545654">
<ele>448</ele>
<time>2023-05-16T09:11:22Z</time>
</trkpt>
<trkpt lat="48.841029927134514" lon="9.835476977750659">
<ele>448</ele>
<time>2023-05-16T09:11:23Z</time>
</trkpt>
<trkpt lat="48.84106295183301" lon="9.835549984127283">
<ele>447.79999999999995</ele>
<time>2023-05-16T09:11:24Z</time>
</trkpt>
<trkpt lat="48.841092959046364" lon="9.835626929998398">
<ele>447.79999999999995</ele>
<time>2023-05-16T09:11:25Z</time>
</trkpt>
<trkpt lat="48.84112497791648" lon="9.835704965516925">
<ele>447.6</ele>
<time>2023-05-16T09:11:26Z</time>
</trkpt>
<trkpt lat="48.841156996786594" lon="9.835787946358323">
<ele>447.4</ele>
<time>2023-05-16T09:11:27Z</time>
</trkpt>
<trkpt lat="48.8411879260093" lon="9.83586992137134">
<ele>447.20000000000005</ele>
<time>2023-05-16T09:11:28Z</time>
</trkpt>
<trkpt lat="48.841221956536174" lon="9.83595298603177">
<ele>447</ele>
<time>2023-05-16T09:11:29Z</time>
</trkpt>
<trkpt lat="48.84125296957791" lon="9.83603797852993">
<ele>446.79999999999995</ele>
<time>2023-05-16T09:11:30Z</time>
</trkpt>
<trkpt lat="48.84128297679126" lon="9.836126994341612">
<ele>446.6</ele>
<time>2023-05-16T09:11:31Z</time>
</trkpt>
<trkpt lat="48.841311978176236" lon="9.836214920505881">
<ele>446.4</ele>
<time>2023-05-16T09:11:32Z</time>
</trkpt>
<trkpt lat="48.84133997373283" lon="9.836307959631085">
<ele>446.20000000000005</ele>
<time>2023-05-16T09:11:33Z</time>
</trkpt>
<trkpt lat="48.84136998094618" lon="9.836402926594019">
<ele>446</ele>
<time>2023-05-16T09:11:34Z</time>
</trkpt>
<trkpt lat="48.841394959017634" lon="9.836499989032745">
<ele>445.79999999999995</ele>
<time>2023-05-16T09:11:35Z</time>
</trkpt>
<trkpt lat="48.841419937089086" lon="9.836599985137582">
<ele>445.6</ele>
<time>2023-05-16T09:11:36Z</time>
</trkpt>
<trkpt lat="48.84144298732281" lon="9.836699981242418">
<ele>445.4</ele>
<time>2023-05-16T09:11:37Z</time>
</trkpt>
<trkpt lat="48.84146796539426" lon="9.836801989004016">
<ele>445.20000000000005</ele>
<time>2023-05-16T09:11:38Z</time>
</trkpt>
<trkpt lat="48.84149495512247" lon="9.836902990937233">
<ele>445</ele>
<time>2023-05-16T09:11:39Z</time>
</trkpt>
<trkpt lat="48.84151993319392" lon="9.83700692653656">
<ele>444.79999999999995</ele>
<time>2023-05-16T09:11:40Z</time>
</trkpt>
<trkpt lat="48.841546922922134" lon="9.837109940126538">
<ele>444.4</ele>
<time>2023-05-16T09:11:41Z</time>
</trkpt>
<trkpt lat="48.84157198481262" lon="9.837214965373278">
<ele>444.20000000000005</ele>
<time>2023-05-16T09:11:42Z</time>
</trkpt>
<trkpt lat="48.84159796871245" lon="9.837322924286127">
<ele>444</ele>
<time>2023-05-16T09:11:43Z</time>
</trkpt>
<trkpt lat="48.8416229467839" lon="9.837431972846389">
<ele>443.6</ele>
<time>2023-05-16T09:11:44Z</time>
</trkpt>
<trkpt lat="48.84164792485535" lon="9.837537920102477">
<ele>443.4</ele>
<time>2023-05-16T09:11:45Z</time>
</trkpt>
<trkpt lat="48.841672986745834" lon="9.837642945349216">
<ele>443</ele>
<time>2023-05-16T09:11:46Z</time>
</trkpt>
<trkpt lat="48.84169997647405" lon="9.837749982252717">
<ele>442.79999999999995</ele>
<time>2023-05-16T09:11:47Z</time>
</trkpt>
<trkpt lat="48.84172797203064" lon="9.837854923680425">
<ele>442.6</ele>
<time>2023-05-16T09:11:48Z</time>
</trkpt>
<trkpt lat="48.841757979243994" lon="9.837957937270403">
<ele>442.20000000000005</ele>
<time>2023-05-16T09:11:49Z</time>
</trkpt>
<trkpt lat="48.84179293178022" lon="9.838061956688762">
<ele>442</ele>
<time>2023-05-16T09:11:50Z</time>
</trkpt>
<trkpt lat="48.841827968135476" lon="9.83816497027874">
<ele>441.79999999999995</ele>
<time>2023-05-16T09:11:51Z</time>
</trkpt>
<trkpt lat="48.841867949813604" lon="9.838266978040338">
<ele>441.4</ele>
<time>2023-05-16T09:11:52Z</time>
</trkpt>
<trkpt lat="48.841912960633636" lon="9.838369991630316">
<ele>441.20000000000005</ele>
<time>2023-05-16T09:11:53Z</time>
</trkpt>
<trkpt lat="48.84195998311043" lon="9.83846697025001">
<ele>440.79999999999995</ele>
<time>2023-05-16T09:11:54Z</time>
</trkpt>
<trkpt lat="48.84200993925333" lon="9.838564954698086">
<ele>440.6</ele>
<time>2023-05-16T09:11:55Z</time>
</trkpt>
<trkpt lat="48.8420579675585" lon="9.83865799382329">
<ele>440.20000000000005</ele>
<time>2023-05-16T09:11:56Z</time>
</trkpt>
<trkpt lat="48.842107923701406" lon="9.838752960786223">
<ele>440</ele>
<time>2023-05-16T09:11:57Z</time>
</trkpt>
<trkpt lat="48.84216299280524" lon="9.838842982426286">
<ele>439.79999999999995</ele>
<time>2023-05-16T09:11:58Z</time>
</trkpt>
<trkpt lat="48.84221797809005" lon="9.838929986581206">
<ele>439.4</ele>
<time>2023-05-16T09:11:59Z</time>
</trkpt>
<trkpt lat="48.842277992516756" lon="9.839014979079366">
<ele>439.20000000000005</ele>
<time>2023-05-16T09:12:00Z</time>
</trkpt>
<trkpt lat="48.842341946437955" lon="9.839096954092383">
<ele>438.79999999999995</ele>
<time>2023-05-16T09:12:01Z</time>
</trkpt>
<trkpt lat="48.842406990006566" lon="9.83917297795415">
<ele>438.6</ele>
<time>2023-05-16T09:12:02Z</time>
</trkpt>
<trkpt lat="48.84247496724129" lon="9.839247995987535">
<ele>438.20000000000005</ele>
<time>2023-05-16T09:12:03Z</time>
</trkpt>
<trkpt lat="48.84254294447601" lon="9.83932494185865">
<ele>437.79999999999995</ele>
<time>2023-05-16T09:12:04Z</time>
</trkpt>
<trkpt lat="48.84261695668101" lon="9.839399959892035">
<ele>437.4</ele>
<time>2023-05-16T09:12:05Z</time>
</trkpt>
<trkpt lat="48.84268996305764" lon="9.839469948783517">
<ele>437</ele>
<time>2023-05-16T09:12:06Z</time>
</trkpt>
<trkpt lat="48.842767998576164" lon="9.839534992352128">
<ele>436.79999999999995</ele>
<time>2023-05-16T09:12:07Z</time>
</trkpt>
<trkpt lat="48.84284796193242" lon="9.839592995122075">
<ele>436.20000000000005</ele>
<time>2023-05-16T09:12:08Z</time>
</trkpt>
<trkpt lat="48.84292993694544" lon="9.8396469745785">
<ele>435.79999999999995</ele>
<time>2023-05-16T09:12:09Z</time>
</trkpt>
<trkpt lat="48.84300998412073" lon="9.839699948206544">
<ele>435.4</ele>
<time>2023-05-16T09:12:10Z</time>
</trkpt>
<trkpt lat="48.843091959133744" lon="9.839749988168478">
<ele>435</ele>
<time>2023-05-16T09:12:11Z</time>
</trkpt>
<trkpt lat="48.84317292831838" lon="9.839796926826239">
<ele>434.6</ele>
<time>2023-05-16T09:12:12Z</time>
</trkpt>
<trkpt lat="48.84325498715043" lon="9.83983799815178">
<ele>434.20000000000005</ele>
<time>2023-05-16T09:12:13Z</time>
</trkpt>
<trkpt lat="48.84333796799183" lon="9.839871944859624">
<ele>433.79999999999995</ele>
<time>2023-05-16T09:12:14Z</time>
</trkpt>
<trkpt lat="48.84342296048999" lon="9.839899940416217">
<ele>433.4</ele>
<time>2023-05-16T09:12:15Z</time>
</trkpt>
<trkpt lat="48.84351197630167" lon="9.839924918487668">
<ele>433</ele>
<time>2023-05-16T09:12:16Z</time>
</trkpt>
<trkpt lat="48.84359998628497" lon="9.839949980378151">
<ele>432.4</ele>
<time>2023-05-16T09:12:17Z</time>
</trkpt>
<trkpt lat="48.84368799626827" lon="9.83997194096446">
<ele>432</ele>
<time>2023-05-16T09:12:18Z</time>
</trkpt>
<trkpt lat="48.84377298876643" lon="9.839987950399518">
<ele>431.6</ele>
<time>2023-05-16T09:12:19Z</time>
</trkpt>
<trkpt lat="48.84385798126459" lon="9.840006977319717">
<ele>431</ele>
<time>2023-05-16T09:12:20Z</time>
</trkpt>
<trkpt lat="48.84394699707627" lon="9.840022986754775">
<ele>430.6</ele>
<time>2023-05-16T09:12:21Z</time>
</trkpt>
<trkpt lat="48.844036934897304" lon="9.840036984533072">
<ele>430.20000000000005</ele>
<time>2023-05-16T09:12:22Z</time>
</trkpt>
<trkpt lat="48.84412796236575" lon="9.840047964826226">
<ele>429.6</ele>
<time>2023-05-16T09:12:23Z</time>
</trkpt>
<trkpt lat="48.8442219235003" lon="9.840061962604523">
<ele>429.20000000000005</ele>
<time>2023-05-16T09:12:24Z</time>
</trkpt>
<trkpt lat="48.844316974282265" lon="9.840071937069297">
<ele>428.6</ele>
<time>2023-05-16T09:12:25Z</time>
</trkpt>
<trkpt lat="48.84440992958844" lon="9.840081995353103">
<ele>428.20000000000005</ele>
<time>2023-05-16T09:12:26Z</time>
</trkpt>
<trkpt lat="48.8444999512285" lon="9.840087946504354">
<ele>427.6</ele>
<time>2023-05-16T09:12:27Z</time>
</trkpt>
<trkpt lat="48.844596929848194" lon="9.840104961767793">
<ele>427</ele>
<time>2023-05-16T09:12:28Z</time>
</trkpt>
<trkpt lat="48.84469198063016" lon="9.840127928182483">
<ele>426.4</ele>
<time>2023-05-16T09:12:29Z</time>
</trkpt>
<trkpt lat="48.84480496868491" lon="9.840144943445921">
<ele>426</ele>
<time>2023-05-16T09:12:30Z</time>
</trkpt>
<trkpt lat="48.844901947304606" lon="9.840167993679643">
<ele>425.4</ele>
<time>2023-05-16T09:12:31Z</time>
</trkpt>
<trkpt lat="48.84498995728791" lon="9.840199928730726">
<ele>424.79999999999995</ele>
<time>2023-05-16T09:12:32Z</time>
</trkpt>
<trkpt lat="48.84508199058473" lon="9.840236976742744">
<ele>424.20000000000005</ele>
<time>2023-05-16T09:12:33Z</time>
</trkpt>
<trkpt lat="48.8451749458909" lon="9.840276958420873">
<ele>423.6</ele>
<time>2023-05-16T09:12:34Z</time>
</trkpt>
<trkpt lat="48.84526999667287" lon="9.840319957584143">
<ele>423.20000000000005</ele>
<time>2023-05-16T09:12:35Z</time>
</trkpt>
<trkpt lat="48.84536295197904" lon="9.840361950919032">
<ele>422.6</ele>
<time>2023-05-16T09:12:36Z</time>
</trkpt>
<trkpt lat="48.8454529736191" lon="9.840406961739063">
<ele>422.20000000000005</ele>
<time>2023-05-16T09:12:37Z</time>
</trkpt>
<trkpt lat="48.845544923096895" lon="9.840451972559094">
<ele>421.79999999999995</ele>
<time>2023-05-16T09:12:38Z</time>
</trkpt>
<trkpt lat="48.845632933080196" lon="9.840499917045236">
<ele>421.20000000000005</ele>
<time>2023-05-16T09:12:39Z</time>
</trkpt>
<trkpt lat="48.84571993723512" lon="9.840547945350409">
<ele>420.79999999999995</ele>
<time>2023-05-16T09:12:40Z</time>
</trkpt>
<trkpt lat="48.845804929733276" lon="9.840599996969104">
<ele>420.20000000000005</ele>
<time>2023-05-16T09:12:41Z</time>
</trkpt>
<trkpt lat="48.845889922231436" lon="9.840649953112006">
<ele>419.79999999999995</ele>
<time>2023-05-16T09:12:42Z</time>
</trkpt>
<trkpt lat="48.84597793221474" lon="9.84070192091167">
<ele>419.20000000000005</ele>
<time>2023-05-16T09:12:43Z</time>
</trkpt>
<trkpt lat="48.84607792831957" lon="9.840752966701984">
<ele>418.6</ele>
<time>2023-05-16T09:12:44Z</time>
</trkpt>
<trkpt lat="48.846166944131255" lon="9.84080795198679">
<ele>418.20000000000005</ele>
<time>2023-05-16T09:12:45Z</time>
</trkpt>
<trkpt lat="48.8462579715997" lon="9.840861931443214">
<ele>417.6</ele>
<time>2023-05-16T09:12:46Z</time>
</trkpt>
<trkpt lat="48.84634497575462" lon="9.84091691672802">
<ele>417</ele>
<time>2023-05-16T09:12:47Z</time>
</trkpt>
<trkpt lat="48.84643298573792" lon="9.840974919497967">
<ele>416.4</ele>
<time>2023-05-16T09:12:48Z</time>
</trkpt>
<trkpt lat="48.84652292355895" lon="9.841027976945043">
<ele>415.79999999999995</ele>
<time>2023-05-16T09:12:49Z</time>
</trkpt>
<trkpt lat="48.84661193937063" lon="9.841084973886609">
<ele>415.4</ele>
<time>2023-05-16T09:12:50Z</time>
</trkpt>
<trkpt lat="48.846701961010695" lon="9.841139959171414">
<ele>414.79999999999995</ele>
<time>2023-05-16T09:12:51Z</time>
</trkpt>
<trkpt lat="48.84679198265076" lon="9.84119695611298">
<ele>414.20000000000005</ele>
<time>2023-05-16T09:12:52Z</time>
</trkpt>
<trkpt lat="48.84688192047179" lon="9.841254958882928">
<ele>413.79999999999995</ele>
<time>2023-05-16T09:12:53Z</time>
</trkpt>
<trkpt lat="48.84697194211185" lon="9.841311955824494">
<ele>413.20000000000005</ele>
<time>2023-05-16T09:12:54Z</time>
</trkpt>
<trkpt lat="48.84706196375191" lon="9.841364929452538">
<ele>412.6</ele>
<time>2023-05-16T09:12:55Z</time>
</trkpt>
<trkpt lat="48.847152991220355" lon="9.841414969414473">
<ele>412</ele>
<time>2023-05-16T09:12:56Z</time>
</trkpt>
<trkpt lat="48.847242929041386" lon="9.841457968577743">
<ele>411.6</ele>
<time>2023-05-16T09:12:57Z</time>
</trkpt>
<trkpt lat="48.84733496233821" lon="9.841489987447858">
<ele>411</ele>
<time>2023-05-16T09:12:58Z</time>
</trkpt>
<trkpt lat="48.84742498397827" lon="9.841509936377406">
<ele>410.6</ele>
<time>2023-05-16T09:12:59Z</time>
</trkpt>
<trkpt lat="48.847519950941205" lon="9.841514965519309">
<ele>410</ele>
<time>2023-05-16T09:13:00Z</time>
</trkpt>
<trkpt lat="48.8476169295609" lon="9.841509936377406">
<ele>409.4</ele>
<time>2023-05-16T09:13:01Z</time>
</trkpt>
<trkpt lat="48.847711980342865" lon="9.841487975791097">
<ele>409</ele>
<time>2023-05-16T09:13:02Z</time>
</trkpt>
<trkpt lat="48.84780996479094" lon="9.84145293943584">
<ele>408.4</ele>
<time>2023-05-16T09:13:03Z</time>
</trkpt>
<trkpt lat="48.847901998087764" lon="9.84138697385788">
<ele>407.79999999999995</ele>
<time>2023-05-16T09:13:04Z</time>
</trkpt>
<trkpt lat="48.84798699058592" lon="9.841331988573074">
<ele>407.20000000000005</ele>
<time>2023-05-16T09:13:05Z</time>
</trkpt>
<trkpt lat="48.84806494228542" lon="9.841266945004463">
<ele>406.6</ele>
<time>2023-05-16T09:13:06Z</time>
</trkpt>
<trkpt lat="48.84814993478358" lon="9.841187987476587">
<ele>406</ele>
<time>2023-05-16T09:13:07Z</time>
</trkpt>
<trkpt lat="48.84823492728174" lon="9.841106934472919">
<ele>405.4</ele>
<time>2023-05-16T09:13:08Z</time>
</trkpt>
<trkpt lat="48.84832193143666" lon="9.84102294780314">
<ele>404.79999999999995</ele>
<time>2023-05-16T09:13:09Z</time>
</trkpt>
<trkpt lat="48.84840994141996" lon="9.84093795530498">
<ele>404.20000000000005</ele>
<time>2023-05-16T09:13:10Z</time>
</trkpt>
<trkpt lat="48.84849191643298" lon="9.840859919786453">
<ele>403.79999999999995</ele>
<time>2023-05-16T09:13:11Z</time>
</trkpt>
<trkpt lat="48.848569951951504" lon="9.840772999450564">
<ele>403.20000000000005</ele>
<time>2023-05-16T09:13:12Z</time>
</trkpt>
<trkpt lat="48.84864496998489" lon="9.840694963932037">
<ele>402.6</ele>
<time>2023-05-16T09:13:13Z</time>
</trkpt>
<trkpt lat="48.84871697053313" lon="9.84061298891902">
<ele>402</ele>
<time>2023-05-16T09:13:14Z</time>
</trkpt>
<trkpt lat="48.8487929943949" lon="9.840532941743731">
<ele>401.4</ele>
<time>2023-05-16T09:13:15Z</time>
</trkpt>
<trkpt lat="48.84887999854982" lon="9.840451972559094">
<ele>400.79999999999995</ele>
<time>2023-05-16T09:13:16Z</time>
</trkpt>
<trkpt lat="48.84896297939122" lon="9.84037796035409">
<ele>400.20000000000005</ele>
<time>2023-05-16T09:13:17Z</time>
</trkpt>
<trkpt lat="48.849044954404235" lon="9.840304953977466">
<ele>399.79999999999995</ele>
<time>2023-05-16T09:13:18Z</time>
</trkpt>
<trkpt lat="48.84912298992276" lon="9.84022993594408">
<ele>399.4</ele>
<time>2023-05-16T09:13:19Z</time>
</trkpt>
<trkpt lat="48.84920194745064" lon="9.840156929567456">
<ele>399</ele>
<time>2023-05-16T09:13:20Z</time>
</trkpt>
<trkpt lat="48.84927193634212" lon="9.840087946504354">
<ele>398.6</ele>
<time>2023-05-16T09:13:21Z</time>
</trkpt>
<trkpt lat="48.84935198351741" lon="9.840007983148098">
<ele>398.20000000000005</ele>
<time>2023-05-16T09:13:22Z</time>
</trkpt>
<trkpt lat="48.84942297823727" lon="9.839921984821558">
<ele>397.79999999999995</ele>
<time>2023-05-16T09:13:23Z</time>
</trkpt>
<trkpt lat="48.84948793798685" lon="9.839836992323399">
<ele>397.4</ele>
<time>2023-05-16T09:13:24Z</time>
</trkpt>
<trkpt lat="48.84954996407032" lon="9.839744959026575">
<ele>396.79999999999995</ele>
<time>2023-05-16T09:13:25Z</time>
</trkpt>
<trkpt lat="48.849601931869984" lon="9.839651919901371">
<ele>396.4</ele>
<time>2023-05-16T09:13:26Z</time>
</trkpt>
<trkpt lat="48.849644931033254" lon="9.839557958766818">
<ele>396.20000000000005</ele>
<time>2023-05-16T09:13:27Z</time>
</trkpt>
<trkpt lat="48.84967996738851" lon="9.839457962661982">
<ele>395.79999999999995</ele>
<time>2023-05-16T09:13:28Z</time>
</trkpt>
<trkpt lat="48.849707962945104" lon="9.839354949072003">
<ele>395.6</ele>
<time>2023-05-16T09:13:29Z</time>
</trkpt>
<trkpt lat="48.849731935188174" lon="9.839252941310406">
<ele>395.4</ele>
<time>2023-05-16T09:13:30Z</time>
</trkpt>
<trkpt lat="48.84975699707866" lon="9.83915294520557">
<ele>395.20000000000005</ele>
<time>2023-05-16T09:13:31Z</time>
</trkpt>
<trkpt lat="48.849774934351444" lon="9.839051943272352">
<ele>395</ele>
<time>2023-05-16T09:13:32Z</time>
</trkpt>
<trkpt lat="48.84978792630136" lon="9.838949935510755">
<ele>395</ele>
<time>2023-05-16T09:13:33Z</time>
</trkpt>
<trkpt lat="48.849796978756785" lon="9.838846921920776">
<ele>394.79999999999995</ele>
<time>2023-05-16T09:13:34Z</time>
</trkpt>
<trkpt lat="48.849797984585166" lon="9.83874499797821">
<ele>394.79999999999995</ele>
<time>2023-05-16T09:13:35Z</time>
</trkpt>
<trkpt lat="48.849794967100024" lon="9.838642990216613">
<ele>394.6</ele>
<time>2023-05-16T09:13:36Z</time>
</trkpt>
<trkpt lat="48.84979194961488" lon="9.838541988283396">
<ele>394.6</ele>
<time>2023-05-16T09:13:37Z</time>
</trkpt>
<trkpt lat="48.84978792630136" lon="9.83844199217856">
<ele>394.4</ele>
<time>2023-05-16T09:13:38Z</time>
</trkpt>
<trkpt lat="48.84978499263525" lon="9.838341996073723">
<ele>394.4</ele>
<time>2023-05-16T09:13:39Z</time>
</trkpt>
<trkpt lat="48.84977996349335" lon="9.838242921978235">
<ele>394.20000000000005</ele>
<time>2023-05-16T09:13:40Z</time>
</trkpt>
<trkpt lat="48.849774934351444" lon="9.83814493753016">
<ele>394</ele>
<time>2023-05-16T09:13:41Z</time>
</trkpt>
<trkpt lat="48.84976797737181" lon="9.838049970567226">
<ele>394</ele>
<time>2023-05-16T09:13:42Z</time>
</trkpt>
<trkpt lat="48.84976194240153" lon="9.837962966412306">
<ele>393.79999999999995</ele>
<time>2023-05-16T09:13:43Z</time>
</trkpt>
<trkpt lat="48.849752973765135" lon="9.837881997227669">
<ele>393.79999999999995</ele>
<time>2023-05-16T09:13:44Z</time>
</trkpt>
<trkpt lat="48.84974299930036" lon="9.83780195005238">
<ele>393.6</ele>
<time>2023-05-16T09:13:45Z</time>
</trkpt>
<trkpt lat="48.84972992353141" lon="9.837722992524505">
<ele>393.6</ele>
<time>2023-05-16T09:13:46Z</time>
</trkpt>
<trkpt lat="48.84971299208701" lon="9.83764998614788">
<ele>393.4</ele>
<time>2023-05-16T09:13:47Z</time>
</trkpt>
<trkpt lat="48.849691953510046" lon="9.837572956457734">
<ele>393.4</ele>
<time>2023-05-16T09:13:48Z</time>
</trkpt>
<trkpt lat="48.849666975438595" lon="9.837501961737871">
<ele>393.4</ele>
<time>2023-05-16T09:13:49Z</time>
</trkpt>
<trkpt lat="48.849646942690015" lon="9.837426943704486">
<ele>393.4</ele>
<time>2023-05-16T09:13:50Z</time>
</trkpt>
<trkpt lat="48.84962992742658" lon="9.8373519256711">
<ele>393.4</ele>
<time>2023-05-16T09:13:51Z</time>
</trkpt>
<trkpt lat="48.84961693547666" lon="9.837274979799986">
<ele>393.4</ele>
<time>2023-05-16T09:13:52Z</time>
</trkpt>
<trkpt lat="48.84960696101189" lon="9.8371999617666">
<ele>393.4</ele>
<time>2023-05-16T09:13:53Z</time>
</trkpt>
<trkpt lat="48.849601931869984" lon="9.837121926248074">
<ele>393.4</ele>
<time>2023-05-16T09:13:54Z</time>
</trkpt>
<trkpt lat="48.84960796684027" lon="9.837042968720198">
<ele>393.4</ele>
<time>2023-05-16T09:13:55Z</time>
</trkpt>
<trkpt lat="48.849624982103705" lon="9.836969962343574">
<ele>393.4</ele>
<time>2023-05-16T09:13:56Z</time>
</trkpt>
<trkpt lat="48.849644931033254" lon="9.836904918774962">
<ele>393.4</ele>
<time>2023-05-16T09:13:57Z</time>
</trkpt>
<trkpt lat="48.849667981266975" lon="9.836846999824047">
<ele>393.6</ele>
<time>2023-05-16T09:13:58Z</time>
</trkpt>
<trkpt lat="48.84969991631806" lon="9.836789919063449">
<ele>393.6</ele>
<time>2023-05-16T09:13:59Z</time>
</trkpt>
<trkpt lat="48.84973696433008" lon="9.836729988455772">
<ele>393.6</ele>
<time>2023-05-16T09:14:00Z</time>
</trkpt>
<trkpt lat="48.8497719168663" lon="9.836679948493838">
<ele>393.6</ele>
<time>2023-05-16T09:14:01Z</time>
</trkpt>
<trkpt lat="48.84980695322156" lon="9.836632926017046">
<ele>393.6</ele>
<time>2023-05-16T09:14:02Z</time>
</trkpt>
<trkpt lat="48.84984198957682" lon="9.836589926853776">
<ele>393.79999999999995</ele>
<time>2023-05-16T09:14:03Z</time>
</trkpt>
<trkpt lat="48.84987794794142" lon="9.836547933518887">
<ele>393.79999999999995</ele>
<time>2023-05-16T09:14:04Z</time>
</trkpt>
<trkpt lat="48.84991298429668" lon="9.836504934355617">
<ele>393.79999999999995</ele>
<time>2023-05-16T09:14:05Z</time>
</trkpt>
<trkpt lat="48.849947936832905" lon="9.836462941020727">
<ele>393.79999999999995</ele>
<time>2023-05-16T09:14:06Z</time>
</trkpt>
<trkpt lat="48.84998498484492" lon="9.836417930200696">
<ele>393.79999999999995</ele>
<time>2023-05-16T09:14:07Z</time>
</trkpt>
<trkpt lat="48.85002798400819" lon="9.836376942694187">
<ele>393.79999999999995</ele>
<time>2023-05-16T09:14:08Z</time>
</trkpt>
<trkpt lat="48.85006293654442" lon="9.836332937702537">
<ele>394</ele>
<time>2023-05-16T09:14:09Z</time>
</trkpt>
<trkpt lat="48.850097972899675" lon="9.836286921054125">
<ele>394</ele>
<time>2023-05-16T09:14:10Z</time>
</trkpt>
<trkpt lat="48.85013191960752" lon="9.836239982396364">
<ele>394</ele>
<time>2023-05-16T09:14:11Z</time>
</trkpt>
<trkpt lat="48.850162932649255" lon="9.836199916899204">
<ele>394</ele>
<time>2023-05-16T09:14:12Z</time>
</trkpt>
<trkpt lat="48.85019998066127" lon="9.836162952706218">
<ele>394.20000000000005</ele>
<time>2023-05-16T09:14:13Z</time>
</trkpt>
<trkpt lat="48.8502399623394" lon="9.836121965199709">
<ele>394.20000000000005</ele>
<time>2023-05-16T09:14:14Z</time>
</trkpt>
<trkpt lat="48.85028195567429" lon="9.836077960208058">
<ele>394.20000000000005</ele>
<time>2023-05-16T09:14:15Z</time>
</trkpt>
<trkpt lat="48.85032495483756" lon="9.83603697270155">
<ele>394.20000000000005</ele>
<time>2023-05-16T09:14:16Z</time>
</trkpt>
<trkpt lat="48.85036191903055" lon="9.83599497936666">
<ele>394.20000000000005</ele>
<time>2023-05-16T09:14:17Z</time>
</trkpt>
<trkpt lat="48.850397961214185" lon="9.83595198020339">
<ele>394</ele>
<time>2023-05-16T09:14:18Z</time>
</trkpt>
<trkpt lat="48.85043693706393" lon="9.835902946069837">
<ele>394</ele>
<time>2023-05-16T09:14:19Z</time>
</trkpt>
<trkpt lat="48.85047499090433" lon="9.835856929421425">
<ele>394</ele>
<time>2023-05-16T09:14:20Z</time>
</trkpt>
<trkpt lat="48.85051698423922" lon="9.835809990763664">
<ele>394</ele>
<time>2023-05-16T09:14:21Z</time>
</trkpt>
<trkpt lat="48.85055696591735" lon="9.83575995080173">
<ele>394</ele>
<time>2023-05-16T09:14:22Z</time>
</trkpt>
<trkpt lat="48.85059694759548" lon="9.835712928324938">
<ele>394</ele>
<time>2023-05-16T09:14:23Z</time>
</trkpt>
<trkpt lat="48.850637935101986" lon="9.835669929161668">
<ele>394</ele>
<time>2023-05-16T09:14:24Z</time>
</trkpt>
<trkpt lat="48.85068495757878" lon="9.835627935826778">
<ele>394</ele>
<time>2023-05-16T09:14:25Z</time>
</trkpt>
<trkpt lat="48.85072695091367" lon="9.835581919178367">
<ele>394</ele>
<time>2023-05-16T09:14:26Z</time>
</trkpt>
<trkpt lat="48.850762993097305" lon="9.835534980520606">
<ele>394</ele>
<time>2023-05-16T09:14:27Z</time>
</trkpt>
<trkpt lat="48.850804986432195" lon="9.835491981357336">
<ele>394</ele>
<time>2023-05-16T09:14:28Z</time>
</trkpt>
<trkpt lat="48.85084195062518" lon="9.83545795083046">
<ele>394</ele>
<time>2023-05-16T09:14:29Z</time>
</trkpt>
<trkpt lat="48.850871957838535" lon="9.835419980809093">
<ele>394</ele>
<time>2023-05-16T09:14:30Z</time>
</trkpt>
<trkpt lat="48.85090196505189" lon="9.835382932797074">
<ele>394</ele>
<time>2023-05-16T09:14:31Z</time>
</trkpt>
<trkpt lat="48.850932978093624" lon="9.83534999191761">
<ele>394</ele>
<time>2023-05-16T09:14:32Z</time>
</trkpt>
<trkpt lat="48.85097295977175" lon="9.835311938077211">
<ele>394</ele>
<time>2023-05-16T09:14:33Z</time>
</trkpt>
<trkpt lat="48.85101294144988" lon="9.835269944742322">
<ele>394</ele>
<time>2023-05-16T09:14:34Z</time>
</trkpt>
<trkpt lat="48.85105694644153" lon="9.835226945579052">
<ele>394</ele>
<time>2023-05-16T09:14:35Z</time>
</trkpt>
<trkpt lat="48.85110296308994" lon="9.835182940587401">
<ele>394</ele>
<time>2023-05-16T09:14:36Z</time>
</trkpt>
<trkpt lat="48.851149985566735" lon="9.83513792976737">
<ele>394</ele>
<time>2023-05-16T09:14:37Z</time>
</trkpt>
<trkpt lat="48.85119793005288" lon="9.835092918947339">
<ele>394</ele>
<time>2023-05-16T09:14:38Z</time>
</trkpt>
<trkpt lat="48.85124696418643" lon="9.83504799194634">
<ele>394</ele>
<time>2023-05-16T09:14:39Z</time>
</trkpt>
<trkpt lat="48.85129298083484" lon="9.835002981126308">
<ele>394</ele>
<time>2023-05-16T09:14:40Z</time>
</trkpt>
<trkpt lat="48.8513399194926" lon="9.834956964477897">
<ele>394</ele>
<time>2023-05-16T09:14:41Z</time>
</trkpt>
<trkpt lat="48.851386941969395" lon="9.834904996678233">
<ele>394</ele>
<time>2023-05-16T09:14:42Z</time>
</trkpt>
<trkpt lat="48.851431952789426" lon="9.83485696837306">
<ele>394</ele>
<time>2023-05-16T09:14:43Z</time>
</trkpt>
<trkpt lat="48.8514799810946" lon="9.834807934239507">
<ele>394</ele>
<time>2023-05-16T09:14:44Z</time>
</trkpt>
<trkpt lat="48.85152499191463" lon="9.834762923419476">
<ele>394</ele>
<time>2023-05-16T09:14:45Z</time>
</trkpt>
<trkpt lat="48.85156991891563" lon="9.834721935912967">
<ele>394</ele>
<time>2023-05-16T09:14:46Z</time>
</trkpt>
<trkpt lat="48.85161492973566" lon="9.834677930921316">
<ele>393.79999999999995</ele>
<time>2023-05-16T09:14:47Z</time>
</trkpt>
<trkpt lat="48.85165994055569" lon="9.834637949243188">
<ele>393.79999999999995</ele>
<time>2023-05-16T09:14:48Z</time>
</trkpt>
<trkpt lat="48.85170495137572" lon="9.83459997922182">
<ele>393.79999999999995</ele>
<time>2023-05-16T09:14:49Z</time>
</trkpt>
<trkpt lat="48.851749962195754" lon="9.834569972008467">
<ele>393.79999999999995</ele>
<time>2023-05-16T09:14:50Z</time>
</trkpt>
<trkpt lat="48.851794973015785" lon="9.834547927603126">
<ele>393.79999999999995</ele>
<time>2023-05-16T09:14:51Z</time>
</trkpt>
<trkpt lat="48.851836966350675" lon="9.834529990330338">
<ele>393.79999999999995</ele>
<time>2023-05-16T09:14:52Z</time>
</trkpt>
<trkpt lat="48.8518769480288" lon="9.8345129750669">
<ele>393.79999999999995</ele>
<time>2023-05-16T09:14:53Z</time>
</trkpt>
<trkpt lat="48.85191692970693" lon="9.834499983116984">
<ele>393.79999999999995</ele>
<time>2023-05-16T09:14:54Z</time>
</trkpt>
<trkpt lat="48.85195699520409" lon="9.83449193648994">
<ele>393.79999999999995</ele>
<time>2023-05-16T09:14:55Z</time>
</trkpt>
<trkpt lat="48.85199496522546" lon="9.83449193648994">
<ele>394</ele>
<time>2023-05-16T09:14:56Z</time>
</trkpt>
<trkpt lat="48.852032935246825" lon="9.834497971460223">
<ele>394</ele>
<time>2023-05-16T09:14:57Z</time>
</trkpt>
<trkpt lat="48.85206797160208" lon="9.8345129750669">
<ele>394.20000000000005</ele>
<time>2023-05-16T09:14:58Z</time>
</trkpt>
<trkpt lat="48.85210191830993" lon="9.834532923996449">
<ele>394.20000000000005</ele>
<time>2023-05-16T09:14:59Z</time>
</trkpt>
<trkpt lat="48.85213293135166" lon="9.834557985886931">
<ele>394.4</ele>
<time>2023-05-16T09:15:00Z</time>
</trkpt>
<trkpt lat="48.852157993242145" lon="9.834586987271905">
<ele>394.6</ele>
<time>2023-05-16T09:15:01Z</time>
</trkpt>
<trkpt lat="48.852182971313596" lon="9.834614982828498">
<ele>394.79999999999995</ele>
<time>2023-05-16T09:15:02Z</time>
</trkpt>
<trkpt lat="48.85220996104181" lon="9.83464197255671">
<ele>395</ele>
<time>2023-05-16T09:15:03Z</time>
</trkpt>
<trkpt lat="48.8522329274565" lon="9.834672985598445">
<ele>395.4</ele>
<time>2023-05-16T09:15:04Z</time>
</trkpt>
<trkpt lat="48.8522569835186" lon="9.834704920649529">
<ele>395.6</ele>
<time>2023-05-16T09:15:05Z</time>
</trkpt>
<trkpt lat="48.85228196159005" lon="9.834739957004786">
<ele>395.79999999999995</ele>
<time>2023-05-16T09:15:06Z</time>
</trkpt>
<trkpt lat="48.85230492800474" lon="9.834774993360043">
<ele>396</ele>
<time>2023-05-16T09:15:07Z</time>
</trkpt>
<trkpt lat="48.85232797823846" lon="9.834807934239507">
<ele>396.4</ele>
<time>2023-05-16T09:15:08Z</time>
</trkpt>
<trkpt lat="48.852352956309915" lon="9.834842970594764">
<ele>396.6</ele>
<time>2023-05-16T09:15:09Z</time>
</trkpt>
<trkpt lat="48.85237994603813" lon="9.834877923130989">
<ele>396.79999999999995</ele>
<time>2023-05-16T09:15:10Z</time>
</trkpt>
<trkpt lat="48.85240693576634" lon="9.834907930344343">
<ele>397</ele>
<time>2023-05-16T09:15:11Z</time>
</trkpt>
<trkpt lat="48.85243291966617" lon="9.8349429666996">
<ele>397.4</ele>
<time>2023-05-16T09:15:12Z</time>
</trkpt>
<trkpt lat="48.852461921051145" lon="9.834974985569715">
<ele>397.6</ele>
<time>2023-05-16T09:15:13Z</time>
</trkpt>
<trkpt lat="48.85248798877001" lon="9.835002981126308">
<ele>397.79999999999995</ele>
<time>2023-05-16T09:15:14Z</time>
</trkpt>
<trkpt lat="48.85251497849822" lon="9.83502997085452">
<ele>398.20000000000005</ele>
<time>2023-05-16T09:15:15Z</time>
</trkpt>
<trkpt lat="48.85253995656967" lon="9.835056960582733">
<ele>398.4</ele>
<time>2023-05-16T09:15:16Z</time>
</trkpt>
<trkpt lat="48.85256493464112" lon="9.835077999159694">
<ele>398.6</ele>
<time>2023-05-16T09:15:17Z</time>
</trkpt>
<trkpt lat="48.85259494185448" lon="9.835096942260861">
<ele>399</ele>
<time>2023-05-16T09:15:18Z</time>
</trkpt>
<trkpt lat="48.85262293741107" lon="9.835112951695919">
<ele>399.20000000000005</ele>
<time>2023-05-16T09:15:19Z</time>
</trkpt>
<trkpt lat="48.852654956281185" lon="9.835124937817454">
<ele>399.6</ele>
<time>2023-05-16T09:15:20Z</time>
</trkpt>
<trkpt lat="48.85268496349454" lon="9.835131978616118">
<ele>399.79999999999995</ele>
<time>2023-05-16T09:15:21Z</time>
</trkpt>
<trkpt lat="48.85271497070789" lon="9.83513792976737">
<ele>400.20000000000005</ele>
<time>2023-05-16T09:15:22Z</time>
</trkpt>
<trkpt lat="48.85274698957801" lon="9.835142958909273">
<ele>400.4</ele>
<time>2023-05-16T09:15:23Z</time>
</trkpt>
<trkpt lat="48.85277791880071" lon="9.835146982222795">
<ele>400.79999999999995</ele>
<time>2023-05-16T09:15:24Z</time>
</trkpt>
<trkpt lat="48.852807926014066" lon="9.835142958909273">
<ele>401</ele>
<time>2023-05-16T09:15:25Z</time>
</trkpt>
<trkpt lat="48.85283692739904" lon="9.835139941424131">
<ele>401.4</ele>
<time>2023-05-16T09:15:26Z</time>
</trkpt>
<trkpt lat="48.85286693461239" lon="9.835132984444499">
<ele>401.6</ele>
<time>2023-05-16T09:15:27Z</time>
</trkpt>
<trkpt lat="48.852892918512225" lon="9.835121920332313">
<ele>402</ele>
<time>2023-05-16T09:15:28Z</time>
</trkpt>
<trkpt lat="48.85291999205947" lon="9.835109934210777">
<ele>402.20000000000005</ele>
<time>2023-05-16T09:15:29Z</time>
</trkpt>
<trkpt lat="48.85294798761606" lon="9.835096942260861">
<ele>402.4</ele>
<time>2023-05-16T09:15:30Z</time>
</trkpt>
<trkpt lat="48.852974977344275" lon="9.835081938654184">
<ele>402.79999999999995</ele>
<time>2023-05-16T09:15:31Z</time>
</trkpt>
<trkpt lat="48.852999955415726" lon="9.835066935047507">
<ele>403</ele>
<time>2023-05-16T09:15:32Z</time>
</trkpt>
<trkpt lat="48.85302199982107" lon="9.835049919784069">
<ele>403.20000000000005</ele>
<time>2023-05-16T09:15:33Z</time>
</trkpt>
<trkpt lat="48.85304496623576" lon="9.835031982511282">
<ele>403.6</ele>
<time>2023-05-16T09:15:34Z</time>
</trkpt>
<trkpt lat="48.85306499898434" lon="9.83500792644918">
<ele>403.79999999999995</ele>
<time>2023-05-16T09:15:35Z</time>
</trkpt>
<trkpt lat="48.853086959570646" lon="9.834981942549348">
<ele>404.20000000000005</ele>
<time>2023-05-16T09:15:36Z</time>
</trkpt>
<trkpt lat="48.853104980662465" lon="9.834952941164374">
<ele>404.4</ele>
<time>2023-05-16T09:15:37Z</time>
</trkpt>
<trkpt lat="48.853126941248775" lon="9.834924945607781">
<ele>404.79999999999995</ele>
<time>2023-05-16T09:15:38Z</time>
</trkpt>
<trkpt lat="48.853146973997355" lon="9.834894938394427">
<ele>405</ele>
<time>2023-05-16T09:15:39Z</time>
</trkpt>
<trkpt lat="48.85316499508917" lon="9.834864931181073">
<ele>405.4</ele>
<time>2023-05-16T09:15:40Z</time>
</trkpt>
<trkpt lat="48.85318192653358" lon="9.834831990301609">
<ele>405.6</ele>
<time>2023-05-16T09:15:41Z</time>
</trkpt>
<trkpt lat="48.85319693014026" lon="9.834797959774733">
<ele>406</ele>
<time>2023-05-16T09:15:42Z</time>
</trkpt>
<trkpt lat="48.853212939575315" lon="9.834762923419476">
<ele>406.20000000000005</ele>
<time>2023-05-16T09:15:43Z</time>
</trkpt>
<trkpt lat="48.85322794318199" lon="9.83472696505487">
<ele>406.6</ele>
<time>2023-05-16T09:15:44Z</time>
</trkpt>
<trkpt lat="48.85324294678867" lon="9.834692934527993">
<ele>406.79999999999995</ele>
<time>2023-05-16T09:15:45Z</time>
</trkpt>
<trkpt lat="48.853254932910204" lon="9.834657981991768">
<ele>407.20000000000005</ele>
<time>2023-05-16T09:15:46Z</time>
</trkpt>
<trkpt lat="48.85326792486012" lon="9.83462294563651">
<ele>407.4</ele>
<time>2023-05-16T09:15:47Z</time>
</trkpt>
<trkpt lat="48.853276977315545" lon="9.834584975615144">
<ele>407.6</ele>
<time>2023-05-16T09:15:48Z</time>
</trkpt>
<trkpt lat="48.85328695178032" lon="9.834544993937016">
<ele>408</ele>
<time>2023-05-16T09:15:49Z</time>
</trkpt>
<trkpt lat="48.853294998407364" lon="9.834501994773746">
<ele>408.20000000000005</ele>
<time>2023-05-16T09:15:50Z</time>
</trkpt>
<trkpt lat="48.853301955386996" lon="9.834461929276586">
<ele>408.4</ele>
<time>2023-05-16T09:15:51Z</time>
</trkpt>
<trkpt lat="48.85330497287214" lon="9.834422953426838">
<ele>408.6</ele>
<time>2023-05-16T09:15:52Z</time>
</trkpt>
<trkpt lat="48.8533069845289" lon="9.83438791707158">
<ele>409</ele>
<time>2023-05-16T09:15:53Z</time>
</trkpt>
<trkpt lat="48.8533069845289" lon="9.834351958706975">
<ele>409.20000000000005</ele>
<time>2023-05-16T09:15:54Z</time>
</trkpt>
<trkpt lat="48.85330497287214" lon="9.834312982857227">
<ele>409.4</ele>
<time>2023-05-16T09:15:55Z</time>
</trkpt>
<trkpt lat="48.85330497287214" lon="9.834269983693957">
<ele>409.6</ele>
<time>2023-05-16T09:15:56Z</time>
</trkpt>
<trkpt lat="48.85330296121538" lon="9.834227990359068">
<ele>410</ele>
<time>2023-05-16T09:15:57Z</time>
</trkpt>
<trkpt lat="48.853301955386996" lon="9.834186919033527">
<ele>410.20000000000005</ele>
<time>2023-05-16T09:15:58Z</time>
</trkpt>
<trkpt lat="48.85329692624509" lon="9.834144925698638">
<ele>410.4</ele>
<time>2023-05-16T09:15:59Z</time>
</trkpt>
<trkpt lat="48.853294998407364" lon="9.834107961505651">
<ele>410.6</ele>
<time>2023-05-16T09:16:00Z</time>
</trkpt>
<trkpt lat="48.85329198092222" lon="9.834071919322014">
<ele>410.79999999999995</ele>
<time>2023-05-16T09:16:01Z</time>
</trkpt>
<trkpt lat="48.8532879576087" lon="9.834029925987124">
<ele>411.20000000000005</ele>
<time>2023-05-16T09:16:02Z</time>
</trkpt>
<trkpt lat="48.853281922638416" lon="9.833992961794138">
<ele>411.4</ele>
<time>2023-05-16T09:16:03Z</time>
</trkpt>
<trkpt lat="48.853277983143926" lon="9.83395499177277">
<ele>411.6</ele>
<time>2023-05-16T09:16:04Z</time>
</trkpt>
<trkpt lat="48.85327194817364" lon="9.833917943760753">
<ele>411.79999999999995</ele>
<time>2023-05-16T09:16:05Z</time>
</trkpt>
<trkpt lat="48.85326499119401" lon="9.833884919062257">
<ele>412</ele>
<time>2023-05-16T09:16:06Z</time>
</trkpt>
<trkpt lat="48.85326297953725" lon="9.833852984011173">
<ele>412.20000000000005</ele>
<time>2023-05-16T09:16:07Z</time>
</trkpt>
<trkpt lat="48.853257950395346" lon="9.833817947655916">
<ele>412.6</ele>
<time>2023-05-16T09:16:08Z</time>
</trkpt>
<trkpt lat="48.85324998758733" lon="9.83378198929131">
<ele>412.79999999999995</ele>
<time>2023-05-16T09:16:09Z</time>
</trkpt>
<trkpt lat="48.85324495844543" lon="9.833744941279292">
<ele>413</ele>
<time>2023-05-16T09:16:10Z</time>
</trkpt>
<trkpt lat="48.85323699563742" lon="9.833706971257925">
<ele>413.20000000000005</ele>
<time>2023-05-16T09:16:11Z</time>
</trkpt>
<trkpt lat="48.85322995483875" lon="9.833669923245907">
<ele>413.4</ele>
<time>2023-05-16T09:16:12Z</time>
</trkpt>
<trkpt lat="48.85321998037398" lon="9.833629941567779">
<ele>413.6</ele>
<time>2023-05-16T09:16:13Z</time>
</trkpt>
<trkpt lat="48.853211933746934" lon="9.83358995988965">
<ele>413.79999999999995</ele>
<time>2023-05-16T09:16:14Z</time>
</trkpt>
<trkpt lat="48.8532049767673" lon="9.833559952676296">
<ele>414</ele>
<time>2023-05-16T09:16:15Z</time>
</trkpt>
<trkpt lat="48.85319693014026" lon="9.83352491632104">
<ele>414.4</ele>
<time>2023-05-16T09:16:16Z</time>
</trkpt>
<trkpt lat="48.853189973160625" lon="9.833494992926717">
<ele>414.6</ele>
<time>2023-05-16T09:16:17Z</time>
</trkpt>
<trkpt lat="48.85317496955395" lon="9.833472948521376">
<ele>414.79999999999995</ele>
<time>2023-05-16T09:16:18Z</time>
</trkpt>
<trkpt lat="48.85315795429051" lon="9.833441935479641">
<ele>415</ele>
<time>2023-05-16T09:16:19Z</time>
</trkpt>
<trkpt lat="48.853147979825735" lon="9.833404971286654">
<ele>415.20000000000005</ele>
<time>2023-05-16T09:16:20Z</time>
</trkpt>
<trkpt lat="48.85313993319869" lon="9.833359960466623">
<ele>415.6</ele>
<time>2023-05-16T09:16:21Z</time>
</trkpt>
<trkpt lat="48.853129958733916" lon="9.833319978788495">
<ele>415.79999999999995</ele>
<time>2023-05-16T09:16:22Z</time>
</trkpt>
<trkpt lat="48.853126941248775" lon="9.833284942433238">
<ele>416</ele>
<time>2023-05-16T09:16:23Z</time>
</trkpt>
<trkpt lat="48.85312492959201" lon="9.833249989897013">
<ele>416.20000000000005</ele>
<time>2023-05-16T09:16:24Z</time>
</trkpt>
<trkpt lat="48.85312291793525" lon="9.833216965198517">
<ele>416.4</ele>
<time>2023-05-16T09:16:25Z</time>
</trkpt>
<trkpt lat="48.853126941248775" lon="9.833184946328402">
<ele>416.6</ele>
<time>2023-05-16T09:16:26Z</time>
</trkpt>
<trkpt lat="48.85311294347048" lon="9.83313792385161">
<ele>416.79999999999995</ele>
<time>2023-05-16T09:16:27Z</time>
</trkpt>
<trkpt lat="48.85309693403542" lon="9.833084950223565">
<ele>417</ele>
<time>2023-05-16T09:16:28Z</time>
</trkpt>
<trkpt lat="48.85309995152056" lon="9.83305293135345">
<ele>417.20000000000005</ele>
<time>2023-05-16T09:16:29Z</time>
</trkpt>
<trkpt lat="48.85309995152056" lon="9.833019990473986">
<ele>417.4</ele>
<time>2023-05-16T09:16:30Z</time>
</trkpt>
<trkpt lat="48.853104980662465" lon="9.83298797160387">
<ele>417.6</ele>
<time>2023-05-16T09:16:31Z</time>
</trkpt>
<trkpt lat="48.853104980662465" lon="9.832954946905375">
<ele>417.79999999999995</ele>
<time>2023-05-16T09:16:32Z</time>
</trkpt>
<trkpt lat="48.85309492237866" lon="9.832914965227246">
<ele>418</ele>
<time>2023-05-16T09:16:33Z</time>
</trkpt>
<trkpt lat="48.853086959570646" lon="9.832884958013892">
<ele>418.20000000000005</ele>
<time>2023-05-16T09:16:34Z</time>
</trkpt>
<trkpt lat="48.853066926822066" lon="9.832827961072326">
<ele>418.6</ele>
<time>2023-05-16T09:16:35Z</time>
</trkpt>
<trkpt lat="48.85306499898434" lon="9.832789991050959">
<ele>418.79999999999995</ele>
<time>2023-05-16T09:16:36Z</time>
</trkpt>
<trkpt lat="48.85305494070053" lon="9.832732994109392">
<ele>419</ele>
<time>2023-05-16T09:16:37Z</time>
</trkpt>
<trkpt lat="48.85305292904377" lon="9.832692928612232">
<ele>419.20000000000005</ele>
<time>2023-05-16T09:16:38Z</time>
</trkpt>
<trkpt lat="48.853059969842434" lon="9.832646995782852">
<ele>419.4</ele>
<time>2023-05-16T09:16:39Z</time>
</trkpt>
<trkpt lat="48.85305795818567" lon="9.832612965255976">
<ele>419.6</ele>
<time>2023-05-16T09:16:40Z</time>
</trkpt>
<trkpt lat="48.85305795818567" lon="9.832582958042622">
<ele>419.79999999999995</ele>
<time>2023-05-16T09:16:41Z</time>
</trkpt>
<trkpt lat="48.85306499898434" lon="9.832547921687365">
<ele>420</ele>
<time>2023-05-16T09:16:42Z</time>
</trkpt>
<trkpt lat="48.85306499898434" lon="9.832506934180856">
<ele>420.20000000000005</ele>
<time>2023-05-16T09:16:43Z</time>
</trkpt>
<trkpt lat="48.85306499898434" lon="9.832462929189205">
<ele>420.4</ele>
<time>2023-05-16T09:16:44Z</time>
</trkpt>
<trkpt lat="48.85306499898434" lon="9.832432921975851">
<ele>420.6</ele>
<time>2023-05-16T09:16:45Z</time>
</trkpt>
<trkpt lat="48.85306793265045" lon="9.832401992753148">
<ele>420.79999999999995</ele>
<time>2023-05-16T09:16:46Z</time>
</trkpt>
<trkpt lat="48.85306793265045" lon="9.832367962226272">
<ele>421.20000000000005</ele>
<time>2023-05-16T09:16:47Z</time>
</trkpt>
<trkpt lat="48.85307195596397" lon="9.832334937527776">
<ele>421.4</ele>
<time>2023-05-16T09:16:48Z</time>
</trkpt>
<trkpt lat="48.85307497344911" lon="9.832304930314422">
<ele>421.6</ele>
<time>2023-05-16T09:16:49Z</time>
</trkpt>
<trkpt lat="48.85307799093425" lon="9.832272995263338">
<ele>421.79999999999995</ele>
<time>2023-05-16T09:16:50Z</time>
</trkpt>
<trkpt lat="48.85309492237866" lon="9.83221197500825">
<ele>422</ele>
<time>2023-05-16T09:16:51Z</time>
</trkpt>
<trkpt lat="48.8530979398638" lon="9.832179956138134">
<ele>422.20000000000005</ele>
<time>2023-05-16T09:16:52Z</time>
</trkpt>
<trkpt lat="48.853116966784" lon="9.832146931439638">
<ele>422.4</ele>
<time>2023-05-16T09:16:53Z</time>
</trkpt>
<trkpt lat="48.853126941248775" lon="9.832114996388555">
<ele>422.6</ele>
<time>2023-05-16T09:16:54Z</time>
</trkpt>
<trkpt lat="48.85313699953258" lon="9.832077948376536">
<ele>422.79999999999995</ele>
<time>2023-05-16T09:16:55Z</time>
</trkpt>
<trkpt lat="48.85314496234059" lon="9.83204199001193">
<ele>423</ele>
<time>2023-05-16T09:16:56Z</time>
</trkpt>
<trkpt lat="48.85316298343241" lon="9.831964960321784">
<ele>423.20000000000005</ele>
<time>2023-05-16T09:16:57Z</time>
</trkpt>
<trkpt lat="48.85317496955395" lon="9.831907963380218">
<ele>423.4</ele>
<time>2023-05-16T09:16:58Z</time>
</trkpt>
<trkpt lat="48.85317798703909" lon="9.831852978095412">
<ele>423.6</ele>
<time>2023-05-16T09:16:59Z</time>
</trkpt>
<trkpt lat="48.85317798703909" lon="9.831807967275381">
<ele>423.79999999999995</ele>
<time>2023-05-16T09:17:00Z</time>
</trkpt>
<trkpt lat="48.85318494401872" lon="9.831764968112111">
<ele>424</ele>
<time>2023-05-16T09:17:01Z</time>
</trkpt>
<trkpt lat="48.85318293236196" lon="9.831724986433983">
<ele>424.20000000000005</ele>
<time>2023-05-16T09:17:02Z</time>
</trkpt>
<trkpt lat="48.85318494401872" lon="9.831679975613952">
<ele>424.4</ele>
<time>2023-05-16T09:17:03Z</time>
</trkpt>
<trkpt lat="48.85318293236196" lon="9.831636976450682">
<ele>424.6</ele>
<time>2023-05-16T09:17:04Z</time>
</trkpt>
<trkpt lat="48.85317698121071" lon="9.83158995397389">
<ele>424.79999999999995</ele>
<time>2023-05-16T09:17:05Z</time>
</trkpt>
<trkpt lat="48.85317698121071" lon="9.831547960639">
<ele>425</ele>
<time>2023-05-16T09:17:06Z</time>
</trkpt>
<trkpt lat="48.85317496955395" lon="9.831502949818969">
<ele>425.20000000000005</ele>
<time>2023-05-16T09:17:07Z</time>
</trkpt>
<trkpt lat="48.853169940412045" lon="9.83146196231246">
<ele>425.4</ele>
<time>2023-05-16T09:17:08Z</time>
</trkpt>
<trkpt lat="48.8531669229269" lon="9.831416951492429">
<ele>425.6</ele>
<time>2023-05-16T09:17:09Z</time>
</trkpt>
<trkpt lat="48.85315795429051" lon="9.831377975642681">
<ele>425.79999999999995</ele>
<time>2023-05-16T09:17:10Z</time>
</trkpt>
<trkpt lat="48.853149991482496" lon="9.831341933459044">
<ele>426</ele>
<time>2023-05-16T09:17:11Z</time>
</trkpt>
<trkpt lat="48.85314295068383" lon="9.831304969266057">
<ele>426.20000000000005</ele>
<time>2023-05-16T09:17:12Z</time>
</trkpt>
<trkpt lat="48.85314496234059" lon="9.831262975931168">
<ele>426.4</ele>
<time>2023-05-16T09:17:13Z</time>
</trkpt>
<trkpt lat="48.85314496234059" lon="9.831229951232672">
<ele>426.6</ele>
<time>2023-05-16T09:17:14Z</time>
</trkpt>
<trkpt lat="48.853152925148606" lon="9.831189969554543">
<ele>426.79999999999995</ele>
<time>2023-05-16T09:17:15Z</time>
</trkpt>
<trkpt lat="48.85315996594727" lon="9.831162979826331">
<ele>427</ele>
<time>2023-05-16T09:17:16Z</time>
</trkpt>
<trkpt lat="48.85316197760403" lon="9.831126937642694">
<ele>427.20000000000005</ele>
<time>2023-05-16T09:17:17Z</time>
</trkpt>
<trkpt lat="48.85316298343241" lon="9.83109793625772">
<ele>427.4</ele>
<time>2023-05-16T09:17:18Z</time>
</trkpt>
<trkpt lat="48.85316499508917" lon="9.831059966236353">
<ele>427.6</ele>
<time>2023-05-16T09:17:19Z</time>
</trkpt>
<trkpt lat="48.85316298343241" lon="9.831026941537857">
<ele>427.79999999999995</ele>
<time>2023-05-16T09:17:20Z</time>
</trkpt>
<trkpt lat="48.85316298343241" lon="9.830994922667742">
<ele>428</ele>
<time>2023-05-16T09:17:21Z</time>
</trkpt>
<trkpt lat="48.85316792875528" lon="9.83096499927342">
<ele>428.20000000000005</ele>
<time>2023-05-16T09:17:22Z</time>
</trkpt>
<trkpt lat="48.85317798703909" lon="9.830939937382936">
<ele>428.4</ele>
<time>2023-05-16T09:17:23Z</time>
</trkpt>
<trkpt lat="48.853194918483496" lon="9.830916970968246">
<ele>428.6</ele>
<time>2023-05-16T09:17:24Z</time>
</trkpt>
<trkpt lat="48.853211933746934" lon="9.830899955704808">
<ele>429</ele>
<time>2023-05-16T09:17:25Z</time>
</trkpt>
<trkpt lat="48.85322995483875" lon="9.830886963754892">
<ele>429.20000000000005</ele>
<time>2023-05-16T09:17:26Z</time>
</trkpt>
<trkpt lat="48.853251999244094" lon="9.830886963754892">
<ele>429.4</ele>
<time>2023-05-16T09:17:27Z</time>
</trkpt>
<trkpt lat="48.853274965658784" lon="9.830892998725176">
<ele>429.6</ele>
<time>2023-05-16T09:17:28Z</time>
</trkpt>
<trkpt lat="48.8533069845289" lon="9.830904984846711">
<ele>430</ele>
<time>2023-05-16T09:17:29Z</time>
</trkpt>
<trkpt lat="48.85333498008549" lon="9.830927951261401">
<ele>430.20000000000005</ele>
<time>2023-05-16T09:17:30Z</time>
</trkpt>
<trkpt lat="48.8533569406718" lon="9.830949995666742">
<ele>430.4</ele>
<time>2023-05-16T09:17:31Z</time>
</trkpt>
<trkpt lat="48.85337496176362" lon="9.830976985394955">
<ele>430.79999999999995</ele>
<time>2023-05-16T09:17:32Z</time>
</trkpt>
<trkpt lat="48.8533899653703" lon="9.83101193793118">
<ele>431</ele>
<time>2023-05-16T09:17:33Z</time>
</trkpt>
<trkpt lat="48.85341494344175" lon="9.83103197067976">
<ele>431.20000000000005</ele>
<time>2023-05-16T09:17:34Z</time>
</trkpt>
<trkpt lat="48.85343497619033" lon="9.831056948751211">
<ele>431.4</ele>
<time>2023-05-16T09:17:35Z</time>
</trkpt>
<trkpt lat="48.85345199145377" lon="9.831084944307804">
<ele>431.79999999999995</ele>
<time>2023-05-16T09:17:36Z</time>
</trkpt>
<trkpt lat="48.85346297174692" lon="9.8311179690063">
<ele>432</ele>
<time>2023-05-16T09:17:37Z</time>
</trkpt>
<trkpt lat="48.8534779753536" lon="9.831142947077751">
<ele>432.20000000000005</ele>
<time>2023-05-16T09:17:38Z</time>
</trkpt>
<trkpt lat="48.85350194759667" lon="9.831166919320822">
<ele>432.4</ele>
<time>2023-05-16T09:17:39Z</time>
</trkpt>
<trkpt lat="48.85351996868849" lon="9.831191981211305">
<ele>432.6</ele>
<time>2023-05-16T09:17:40Z</time>
</trkpt>
<trkpt lat="48.85353195481002" lon="9.831214947625995">
<ele>432.79999999999995</ele>
<time>2023-05-16T09:17:41Z</time>
</trkpt>
<trkpt lat="48.85354494675994" lon="9.831239925697446">
<ele>433</ele>
<time>2023-05-16T09:17:42Z</time>
</trkpt>
<trkpt lat="48.85356196202338" lon="9.831264987587929">
<ele>433.4</ele>
<time>2023-05-16T09:17:43Z</time>
</trkpt>
<trkpt lat="48.85358199477196" lon="9.831287954002619">
<ele>433.6</ele>
<time>2023-05-16T09:17:44Z</time>
</trkpt>
<trkpt lat="48.853599932044744" lon="9.831316955387592">
<ele>433.79999999999995</ele>
<time>2023-05-16T09:17:45Z</time>
</trkpt>
<trkpt lat="48.85360999032855" lon="9.83135199174285">
<ele>434</ele>
<time>2023-05-16T09:17:46Z</time>
</trkpt>
<trkpt lat="48.85361694730818" lon="9.831382920965552">
<ele>434.20000000000005</ele>
<time>2023-05-16T09:17:47Z</time>
</trkpt>
<trkpt lat="48.85362499393523" lon="9.831412928178906">
<ele>434.4</ele>
<time>2023-05-16T09:17:48Z</time>
</trkpt>
<trkpt lat="48.8536349684" lon="9.831447964534163">
<ele>434.6</ele>
<time>2023-05-16T09:17:49Z</time>
</trkpt>
<trkpt lat="48.85364695452154" lon="9.83148199506104">
<ele>434.79999999999995</ele>
<time>2023-05-16T09:17:50Z</time>
</trkpt>
<trkpt lat="48.85365692898631" lon="9.831512924283743">
<ele>435</ele>
<time>2023-05-16T09:17:51Z</time>
</trkpt>
<trkpt lat="48.8536679930985" lon="9.831544943153858">
<ele>435.20000000000005</ele>
<time>2023-05-16T09:17:52Z</time>
</trkpt>
<trkpt lat="48.85367495007813" lon="9.831577967852354">
<ele>435.4</ele>
<time>2023-05-16T09:17:53Z</time>
</trkpt>
<trkpt lat="48.853681990876794" lon="9.831607975065708">
<ele>435.6</ele>
<time>2023-05-16T09:17:54Z</time>
</trkpt>
<trkpt lat="48.853687942028046" lon="9.831636976450682">
<ele>435.79999999999995</ele>
<time>2023-05-16T09:17:55Z</time>
</trkpt>
<trkpt lat="48.85369791649282" lon="9.831664972007275">
<ele>436</ele>
<time>2023-05-16T09:17:56Z</time>
</trkpt>
<trkpt lat="48.85370998643339" lon="9.831692967563868">
<ele>436.20000000000005</ele>
<time>2023-05-16T09:17:57Z</time>
</trkpt>
<trkpt lat="48.853724990040064" lon="9.831722974777222">
<ele>436.4</ele>
<time>2023-05-16T09:17:58Z</time>
</trkpt>
<trkpt lat="48.85373999364674" lon="9.831746947020292">
<ele>436.6</ele>
<time>2023-05-16T09:17:59Z</time>
</trkpt>
<trkpt lat="48.85374695062637" lon="9.83178491704166">
<ele>437</ele>
<time>2023-05-16T09:18:00Z</time>
</trkpt>
<trkpt lat="48.85375793091953" lon="9.831807967275381">
<ele>437.20000000000005</ele>
<time>2023-05-16T09:18:01Z</time>
</trkpt>
<trkpt lat="48.85376698337495" lon="9.831846943125129">
<ele>437.4</ele>
<time>2023-05-16T09:18:02Z</time>
</trkpt>
<trkpt lat="48.85378299281001" lon="9.83187192119658">
<ele>437.6</ele>
<time>2023-05-16T09:18:03Z</time>
</trkpt>
<trkpt lat="48.85380193591118" lon="9.831894971430302">
<ele>437.79999999999995</ele>
<time>2023-05-16T09:18:04Z</time>
</trkpt>
<trkpt lat="48.85382297448814" lon="9.831921961158514">
<ele>438</ele>
<time>2023-05-16T09:18:05Z</time>
</trkpt>
<trkpt lat="48.85384292341769" lon="9.831944927573204">
<ele>438.20000000000005</ele>
<time>2023-05-16T09:18:06Z</time>
</trkpt>
<trkpt lat="48.853859938681126" lon="9.831974934786558">
<ele>438.4</ele>
<time>2023-05-16T09:18:07Z</time>
</trkpt>
<trkpt lat="48.85387192480266" lon="9.832002930343151">
<ele>438.6</ele>
<time>2023-05-16T09:18:08Z</time>
</trkpt>
<trkpt lat="48.85388793423772" lon="9.832022963091731">
<ele>439</ele>
<time>2023-05-16T09:18:09Z</time>
</trkpt>
<trkpt lat="48.85390696115792" lon="9.83204492367804">
<ele>439.20000000000005</ele>
<time>2023-05-16T09:18:10Z</time>
</trkpt>
<trkpt lat="48.85392992757261" lon="9.832061938941479">
<ele>439.4</ele>
<time>2023-05-16T09:18:11Z</time>
</trkpt>
<trkpt lat="48.85394794866443" lon="9.83208691701293">
<ele>439.6</ele>
<time>2023-05-16T09:18:12Z</time>
</trkpt>
<trkpt lat="48.85397493839264" lon="9.832121953368187">
<ele>439.79999999999995</ele>
<time>2023-05-16T09:18:13Z</time>
</trkpt>
<trkpt lat="48.85399497114122" lon="9.83212798833847">
<ele>440</ele>
<time>2023-05-16T09:18:14Z</time>
</trkpt>
<trkpt lat="48.854026990011334" lon="9.832142991945148">
<ele>440.20000000000005</ele>
<time>2023-05-16T09:18:15Z</time>
</trkpt>
<trkpt lat="48.854049956426024" lon="9.832147937268019">
<ele>440.4</ele>
<time>2023-05-16T09:18:16Z</time>
</trkpt>
<trkpt lat="48.854074934497476" lon="9.832156989723444">
<ele>440.6</ele>
<time>2023-05-16T09:18:17Z</time>
</trkpt>
<trkpt lat="48.85410293005407" lon="9.832162940874696">
<ele>440.79999999999995</ele>
<time>2023-05-16T09:18:18Z</time>
</trkpt>
<trkpt lat="48.85413293726742" lon="9.832171993330121">
<ele>441</ele>
<time>2023-05-16T09:18:19Z</time>
</trkpt>
<trkpt lat="48.854161938652396" lon="9.832177944481373">
<ele>441.20000000000005</ele>
<time>2023-05-16T09:18:20Z</time>
</trkpt>
<trkpt lat="48.854197980836034" lon="9.832176938652992">
<ele>441.4</ele>
<time>2023-05-16T09:18:21Z</time>
</trkpt>
<trkpt lat="48.85422698222101" lon="9.832164952531457">
<ele>441.6</ele>
<time>2023-05-16T09:18:22Z</time>
</trkpt>
<trkpt lat="48.85425196029246" lon="9.832152966409922">
<ele>441.79999999999995</ele>
<time>2023-05-16T09:18:23Z</time>
</trkpt>
<trkpt lat="48.85428196750581" lon="9.832134945318103">
<ele>442</ele>
<time>2023-05-16T09:18:24Z</time>
</trkpt>
<trkpt lat="48.854307951405644" lon="9.832114996388555">
<ele>442.4</ele>
<time>2023-05-16T09:18:25Z</time>
</trkpt>
<trkpt lat="48.854332929477096" lon="9.832094963639975">
<ele>442.6</ele>
<time>2023-05-16T09:18:26Z</time>
</trkpt>
<trkpt lat="48.85435991920531" lon="9.832072919234633">
<ele>442.79999999999995</ele>
<time>2023-05-16T09:18:27Z</time>
</trkpt>
<trkpt lat="48.85438799858093" lon="9.832054981961846">
<ele>443</ele>
<time>2023-05-16T09:18:28Z</time>
</trkpt>
<trkpt lat="48.85440794751048" lon="9.832036960870028">
<ele>443.20000000000005</ele>
<time>2023-05-16T09:18:29Z</time>
</trkpt>
<trkpt lat="48.854439966380596" lon="9.83200192451477">
<ele>443.4</ele>
<time>2023-05-16T09:18:30Z</time>
</trkpt>
<trkpt lat="48.85445295833051" lon="9.831967977806926">
<ele>443.6</ele>
<time>2023-05-16T09:18:31Z</time>
</trkpt>
<trkpt lat="48.85446997359395" lon="9.831936964765191">
<ele>443.79999999999995</ele>
<time>2023-05-16T09:18:32Z</time>
</trkpt>
<trkpt lat="48.85448799468577" lon="9.831907963380218">
<ele>444</ele>
<time>2023-05-16T09:18:33Z</time>
</trkpt>
<trkpt lat="48.854502998292446" lon="9.831877956166863">
<ele>444.20000000000005</ele>
<time>2023-05-16T09:18:34Z</time>
</trkpt>
<trkpt lat="48.85451791808009" lon="9.83184794895351">
<ele>444.4</ele>
<time>2023-05-16T09:18:35Z</time>
</trkpt>
<trkpt lat="48.85453292168677" lon="9.831816935911775">
<ele>444.6</ele>
<time>2023-05-16T09:18:36Z</time>
</trkpt>
<trkpt lat="48.85454993695021" lon="9.831779971718788">
<ele>444.79999999999995</ele>
<time>2023-05-16T09:18:37Z</time>
</trkpt>
<trkpt lat="48.85456292890012" lon="9.831736972555518">
<ele>445</ele>
<time>2023-05-16T09:18:38Z</time>
</trkpt>
<trkpt lat="48.85457499884069" lon="9.831694979220629">
<ele>445.20000000000005</ele>
<time>2023-05-16T09:18:39Z</time>
</trkpt>
<trkpt lat="48.854584973305464" lon="9.83165692538023">
<ele>445.4</ele>
<time>2023-05-16T09:18:40Z</time>
</trkpt>
<trkpt lat="48.85459494777024" lon="9.831617949530482">
<ele>445.6</ele>
<time>2023-05-16T09:18:41Z</time>
</trkpt>
<trkpt lat="48.85460492223501" lon="9.831581991165876">
<ele>445.79999999999995</ele>
<time>2023-05-16T09:18:42Z</time>
</trkpt>
<trkpt lat="48.854611963033676" lon="9.831544943153858">
<ele>446</ele>
<time>2023-05-16T09:18:43Z</time>
</trkpt>
<trkpt lat="48.85461699217558" lon="9.83150496147573">
<ele>446.20000000000005</ele>
<time>2023-05-16T09:18:44Z</time>
</trkpt>
<trkpt lat="48.85461992584169" lon="9.831464979797602">
<ele>446.4</ele>
<time>2023-05-16T09:18:45Z</time>
</trkpt>
<trkpt lat="48.85462193749845" lon="9.831432960927486">
<ele>446.6</ele>
<time>2023-05-16T09:18:46Z</time>
</trkpt>
<trkpt lat="48.85462696664035" lon="9.83139993622899">
<ele>446.79999999999995</ele>
<time>2023-05-16T09:18:47Z</time>
</trkpt>
<trkpt lat="48.85462294332683" lon="9.831366995349526">
<ele>447.20000000000005</ele>
<time>2023-05-16T09:18:48Z</time>
</trkpt>
<trkpt lat="48.85461992584169" lon="9.831336988136172">
<ele>447.4</ele>
<time>2023-05-16T09:18:49Z</time>
</trkpt>
<trkpt lat="48.85461699217558" lon="9.831297928467393">
<ele>447.6</ele>
<time>2023-05-16T09:18:50Z</time>
</trkpt>
<trkpt lat="48.85461296886206" lon="9.831264987587929">
<ele>447.79999999999995</ele>
<time>2023-05-16T09:18:51Z</time>
</trkpt>
<trkpt lat="48.854607939720154" lon="9.831232968717813">
<ele>448</ele>
<time>2023-05-16T09:18:52Z</time>
</trkpt>
<trkpt lat="48.854609951376915" lon="9.831192987039685">
<ele>448.20000000000005</ele>
<time>2023-05-16T09:18:53Z</time>
</trkpt>
<trkpt lat="48.85461498051882" lon="9.831152921542525">
<ele>448.4</ele>
<time>2023-05-16T09:18:54Z</time>
</trkpt>
<trkpt lat="48.85461992584169" lon="9.831114951521158">
<ele>448.6</ele>
<time>2023-05-16T09:18:55Z</time>
</trkpt>
<trkpt lat="48.85461799800396" lon="9.831072958186269">
<ele>448.79999999999995</ele>
<time>2023-05-16T09:18:56Z</time>
</trkpt>
<trkpt lat="48.85461699217558" lon="9.831039933487773">
<ele>449</ele>
<time>2023-05-16T09:18:57Z</time>
</trkpt>
<trkpt lat="48.85461498051882" lon="9.83100799843669">
<ele>449.20000000000005</ele>
<time>2023-05-16T09:18:58Z</time>
</trkpt>
<trkpt lat="48.854611963033676" lon="9.830977991223335">
<ele>449.4</ele>
<time>2023-05-16T09:18:59Z</time>
</trkpt>
<trkpt lat="48.85460693389177" lon="9.830951923504472">
<ele>449.6</ele>
<time>2023-05-16T09:19:00Z</time>
</trkpt>
<trkpt lat="48.85460299439728" lon="9.830921916291118">
<ele>449.79999999999995</ele>
<time>2023-05-16T09:19:01Z</time>
</trkpt>
<trkpt lat="48.85460299439728" lon="9.830887969583273">
<ele>450</ele>
<time>2023-05-16T09:19:02Z</time>
</trkpt>
<trkpt lat="48.85459997691214" lon="9.830852933228016">
<ele>450.20000000000005</ele>
<time>2023-05-16T09:19:03Z</time>
</trkpt>
<trkpt lat="48.854596959427" lon="9.830819992348552">
<ele>450.4</ele>
<time>2023-05-16T09:19:04Z</time>
</trkpt>
<trkpt lat="48.854589918628335" lon="9.830794930458069">
<ele>450.6</ele>
<time>2023-05-16T09:19:05Z</time>
</trkpt>
<trkpt lat="48.854587990790606" lon="9.83077296987176">
<ele>450.79999999999995</ele>
<time>2023-05-16T09:19:06Z</time>
</trkpt>
<trkpt lat="48.854586984962225" lon="9.830742962658405">
<ele>451</ele>
<time>2023-05-16T09:19:07Z</time>
</trkpt>
<trkpt lat="48.8545829616487" lon="9.830707926303148">
<ele>451.20000000000005</ele>
<time>2023-05-16T09:19:08Z</time>
</trkpt>
<trkpt lat="48.85457692667842" lon="9.830679930746555">
<ele>451.4</ele>
<time>2023-05-16T09:19:09Z</time>
</trkpt>
<trkpt lat="48.85457692667842" lon="9.830641960725188">
<ele>451.6</ele>
<time>2023-05-16T09:19:10Z</time>
</trkpt>
<trkpt lat="48.85456996969879" lon="9.83060298487544">
<ele>451.79999999999995</ele>
<time>2023-05-16T09:19:11Z</time>
</trkpt>
<trkpt lat="48.854567958042026" lon="9.83055998571217">
<ele>451.79999999999995</ele>
<time>2023-05-16T09:19:12Z</time>
</trkpt>
<trkpt lat="48.85456292890012" lon="9.830511957406998">
<ele>452</ele>
<time>2023-05-16T09:19:13Z</time>
</trkpt>
<trkpt lat="48.85456292890012" lon="9.83045194298029">
<ele>452.20000000000005</ele>
<time>2023-05-16T09:19:14Z</time>
</trkpt>
<trkpt lat="48.854566952213645" lon="9.830384971573949">
<ele>452.4</ele>
<time>2023-05-16T09:19:15Z</time>
</trkpt>
<trkpt lat="48.85457692667842" lon="9.83034297823906">
<ele>452.4</ele>
<time>2023-05-16T09:19:16Z</time>
</trkpt>
<trkpt lat="48.8545779325068" lon="9.83029997907579">
<ele>452.6</ele>
<time>2023-05-16T09:19:17Z</time>
</trkpt>
<trkpt lat="48.85457499884069" lon="9.830226972699165">
<ele>452.79999999999995</ele>
<time>2023-05-16T09:19:18Z</time>
</trkpt>
<trkpt lat="48.854584973305464" lon="9.830176932737231">
<ele>452.79999999999995</ele>
<time>2023-05-16T09:19:19Z</time>
</trkpt>
<trkpt lat="48.854591930285096" lon="9.8301319219172">
<ele>453</ele>
<time>2023-05-16T09:19:20Z</time>
</trkpt>
<trkpt lat="48.85459494777024" lon="9.83008498325944">
<ele>453</ele>
<time>2023-05-16T09:19:21Z</time>
</trkpt>
<trkpt lat="48.85460299439728" lon="9.830049946904182">
<ele>453.20000000000005</ele>
<time>2023-05-16T09:19:22Z</time>
</trkpt>
<trkpt lat="48.854609951376915" lon="9.830014994367957">
<ele>453.4</ele>
<time>2023-05-16T09:19:23Z</time>
</trkpt>
<trkpt lat="48.854611963033676" lon="9.829981969669461">
<ele>453.4</ele>
<time>2023-05-16T09:19:24Z</time>
</trkpt>
<trkpt lat="48.85461498051882" lon="9.829944921657443">
<ele>453.6</ele>
<time>2023-05-16T09:19:25Z</time>
</trkpt>
<trkpt lat="48.85461799800396" lon="9.829902928322554">
<ele>453.79999999999995</ele>
<time>2023-05-16T09:19:26Z</time>
</trkpt>
<trkpt lat="48.85462294332683" lon="9.829867975786328">
<ele>453.79999999999995</ele>
<time>2023-05-16T09:19:27Z</time>
</trkpt>
<trkpt lat="48.854634929448366" lon="9.829832939431071">
<ele>454</ele>
<time>2023-05-16T09:19:28Z</time>
</trkpt>
<trkpt lat="48.854651944711804" lon="9.829801926389337">
<ele>454</ele>
<time>2023-05-16T09:19:29Z</time>
</trkpt>
<trkpt lat="48.85466795414686" lon="9.82976496219635">
<ele>454.20000000000005</ele>
<time>2023-05-16T09:19:30Z</time>
</trkpt>
<trkpt lat="48.854676922783256" lon="9.829726992174983">
<ele>454.20000000000005</ele>
<time>2023-05-16T09:19:31Z</time>
</trkpt>
<trkpt lat="48.8546849694103" lon="9.829696984961629">
<ele>454.4</ele>
<time>2023-05-16T09:19:32Z</time>
</trkpt>
<trkpt lat="48.85468295775354" lon="9.829649962484837">
<ele>454.4</ele>
<time>2023-05-16T09:19:33Z</time>
</trkpt>
<trkpt lat="48.854694943875074" lon="9.829589948058128">
<ele>454.6</ele>
<time>2023-05-16T09:19:34Z</time>
</trkpt>
<trkpt lat="48.85471296496689" lon="9.829539991915226">
<ele>454.79999999999995</ele>
<time>2023-05-16T09:19:35Z</time>
</trkpt>
<trkpt lat="48.85472193360329" lon="9.829492969438434">
<ele>454.79999999999995</ele>
<time>2023-05-16T09:19:36Z</time>
</trkpt>
<trkpt lat="48.85472998023033" lon="9.829429937526584">
<ele>455</ele>
<time>2023-05-16T09:19:37Z</time>
</trkpt>
<trkpt lat="48.854736937209964" lon="9.829359948635101">
<ele>455</ele>
<time>2023-05-16T09:19:38Z</time>
</trkpt>
<trkpt lat="48.854739954695106" lon="9.829299934208393">
<ele>455.20000000000005</ele>
<time>2023-05-16T09:19:39Z</time>
</trkpt>
<trkpt lat="48.854739954695106" lon="9.82922793366015">
<ele>455.20000000000005</ele>
<time>2023-05-16T09:19:40Z</time>
</trkpt>
<trkpt lat="48.85474992915988" lon="9.829166997224092">
<ele>455.4</ele>
<time>2023-05-16T09:19:41Z</time>
</trkpt>
<trkpt lat="48.854759987443686" lon="9.829096924513578">
<ele>455.4</ele>
<time>2023-05-16T09:19:42Z</time>
</trkpt>
<trkpt lat="48.854781948029995" lon="9.829017966985703">
<ele>455.6</ele>
<time>2023-05-16T09:19:43Z</time>
</trkpt>
<trkpt lat="48.85479292832315" lon="9.828957952558994">
<ele>455.79999999999995</ele>
<time>2023-05-16T09:19:44Z</time>
</trkpt>
<trkpt lat="48.854802986606956" lon="9.828907996416092">
<ele>455.79999999999995</ele>
<time>2023-05-16T09:19:45Z</time>
</trkpt>
<trkpt lat="48.85481698438525" lon="9.828847981989384">
<ele>456</ele>
<time>2023-05-16T09:19:46Z</time>
</trkpt>
<trkpt lat="48.8548369333148" lon="9.828789979219437">
<ele>456.20000000000005</ele>
<time>2023-05-16T09:19:47Z</time>
</trkpt>
<trkpt lat="48.85484799742699" lon="9.828742956742644">
<ele>456.20000000000005</ele>
<time>2023-05-16T09:19:48Z</time>
</trkpt>
<trkpt lat="48.8548749871552" lon="9.828681936487556">
<ele>456.4</ele>
<time>2023-05-16T09:19:49Z</time>
</trkpt>
<trkpt lat="48.854892924427986" lon="9.828636925667524">
<ele>456.6</ele>
<time>2023-05-16T09:19:50Z</time>
</trkpt>
<trkpt lat="48.85491798631847" lon="9.82858495786786">
<ele>456.79999999999995</ele>
<time>2023-05-16T09:19:51Z</time>
</trkpt>
<trkpt lat="48.85493692941964" lon="9.828537935391068">
<ele>457</ele>
<time>2023-05-16T09:19:52Z</time>
</trkpt>
<trkpt lat="48.85495997965336" lon="9.828494936227798">
<ele>457.20000000000005</ele>
<time>2023-05-16T09:19:53Z</time>
</trkpt>
<trkpt lat="48.85498194023967" lon="9.828457972034812">
<ele>457.4</ele>
<time>2023-05-16T09:19:54Z</time>
</trkpt>
<trkpt lat="48.854997949674726" lon="9.828429976478219">
<ele>457.6</ele>
<time>2023-05-16T09:19:55Z</time>
</trkpt>
<trkpt lat="48.855014964938164" lon="9.828402986750007">
<ele>457.79999999999995</ele>
<time>2023-05-16T09:19:56Z</time>
</trkpt>
<trkpt lat="48.85502795688808" lon="9.828371973708272">
<ele>458</ele>
<time>2023-05-16T09:19:57Z</time>
</trkpt>
<trkpt lat="48.85504497215152" lon="9.828336937353015">
<ele>458.20000000000005</ele>
<time>2023-05-16T09:19:58Z</time>
</trkpt>
<trkpt lat="48.85506995022297" lon="9.828297961503267">
<ele>458.4</ele>
<time>2023-05-16T09:19:59Z</time>
</trkpt>
<trkpt lat="48.85508797131479" lon="9.82826191931963">
<ele>458.6</ele>
<time>2023-05-16T09:20:00Z</time>
</trkpt>
<trkpt lat="48.85511294938624" lon="9.828229984268546">
<ele>458.6</ele>
<time>2023-05-16T09:20:01Z</time>
</trkpt>
<trkpt lat="48.85514295659959" lon="9.82819796539843">
<ele>458.79999999999995</ele>
<time>2023-05-16T09:20:02Z</time>
</trkpt>
<trkpt lat="48.8551649171859" lon="9.828179944306612">
<ele>459</ele>
<time>2023-05-16T09:20:03Z</time>
</trkpt>
<trkpt lat="48.85518494993448" lon="9.828166952356696">
<ele>459.20000000000005</ele>
<time>2023-05-16T09:20:04Z</time>
</trkpt>
<trkpt lat="48.8552169688046" lon="9.828142980113626">
<ele>459.4</ele>
<time>2023-05-16T09:20:05Z</time>
</trkpt>
<trkpt lat="48.85523993521929" lon="9.828124959021807">
<ele>459.6</ele>
<time>2023-05-16T09:20:06Z</time>
</trkpt>
<trkpt lat="48.855256950482726" lon="9.82810995541513">
<ele>459.79999999999995</ele>
<time>2023-05-16T09:20:07Z</time>
</trkpt>
<trkpt lat="48.855272959917784" lon="9.828096963465214">
<ele>460</ele>
<time>2023-05-16T09:20:08Z</time>
</trkpt>
<trkpt lat="48.85528695769608" lon="9.828084977343678">
<ele>460.20000000000005</ele>
<time>2023-05-16T09:20:09Z</time>
</trkpt>
<trkpt lat="48.85530296713114" lon="9.828071985393763">
<ele>460.4</ele>
<time>2023-05-16T09:20:10Z</time>
</trkpt>
<trkpt lat="48.855319982394576" lon="9.828054970130324">
<ele>460.6</ele>
<time>2023-05-16T09:20:11Z</time>
</trkpt>
<trkpt lat="48.855342948809266" lon="9.828029992058873">
<ele>460.79999999999995</ele>
<time>2023-05-16T09:20:12Z</time>
</trkpt>
<trkpt lat="48.85536499321461" lon="9.827999984845519">
<ele>461</ele>
<time>2023-05-16T09:20:13Z</time>
</trkpt>
<trkpt lat="48.855379996821284" lon="9.82798296958208">
<ele>461</ele>
<time>2023-05-16T09:20:14Z</time>
</trkpt>
<trkpt lat="48.85541696101427" lon="9.827946927398443">
<ele>461.20000000000005</ele>
<time>2023-05-16T09:20:15Z</time>
</trkpt>
<trkpt lat="48.85543297044933" lon="9.827932929620147">
<ele>461.4</ele>
<time>2023-05-16T09:20:16Z</time>
</trkpt>
<trkpt lat="48.85545794852078" lon="9.827916920185089">
<ele>461.6</ele>
<time>2023-05-16T09:20:17Z</time>
</trkpt>
<trkpt lat="48.85549692437053" lon="9.827892947942019">
<ele>461.6</ele>
<time>2023-05-16T09:20:18Z</time>
</trkpt>
<trkpt lat="48.85554696433246" lon="9.827867969870567">
<ele>461.79999999999995</ele>
<time>2023-05-16T09:20:19Z</time>
</trkpt>
<trkpt lat="48.85558191686869" lon="9.827841985970736">
<ele>462</ele>
<time>2023-05-16T09:20:20Z</time>
</trkpt>
<trkpt lat="48.85562298819423" lon="9.827812984585762">
<ele>462</ele>
<time>2023-05-16T09:20:21Z</time>
</trkpt>
<trkpt lat="48.85565794073045" lon="9.827797980979085">
<ele>462.20000000000005</ele>
<time>2023-05-16T09:20:22Z</time>
</trkpt>
<trkpt lat="48.85568995960057" lon="9.827776942402124">
<ele>462.4</ele>
<time>2023-05-16T09:20:23Z</time>
</trkpt>
<trkpt lat="48.855724995955825" lon="9.827756993472576">
<ele>462.6</ele>
<time>2023-05-16T09:20:24Z</time>
</trkpt>
<trkpt lat="48.85575299151242" lon="9.827736960723996">
<ele>462.79999999999995</ele>
<time>2023-05-16T09:20:25Z</time>
</trkpt>
<trkpt lat="48.855792973190546" lon="9.827719945460558">
<ele>462.79999999999995</ele>
<time>2023-05-16T09:20:26Z</time>
</trkpt>
<trkpt lat="48.85582993738353" lon="9.827707959339023">
<ele>463</ele>
<time>2023-05-16T09:20:27Z</time>
</trkpt>
<trkpt lat="48.85586195625365" lon="9.827684992924333">
<ele>463.20000000000005</ele>
<time>2023-05-16T09:20:28Z</time>
</trkpt>
<trkpt lat="48.85589296929538" lon="9.827657919377089">
<ele>463.20000000000005</ele>
<time>2023-05-16T09:20:29Z</time>
</trkpt>
<trkpt lat="48.85592699982226" lon="9.827629923820496">
<ele>463.4</ele>
<time>2023-05-16T09:20:30Z</time>
</trkpt>
<trkpt lat="48.855964969843626" lon="9.827586924657226">
<ele>463.6</ele>
<time>2023-05-16T09:20:31Z</time>
</trkpt>
<trkpt lat="48.85599296540022" lon="9.82754996046424">
<ele>463.6</ele>
<time>2023-05-16T09:20:32Z</time>
</trkpt>
<trkpt lat="48.8560129981488" lon="9.827511990442872">
<ele>463.79999999999995</ele>
<time>2023-05-16T09:20:33Z</time>
</trkpt>
<trkpt lat="48.85603294707835" lon="9.827476954087615">
<ele>464</ele>
<time>2023-05-16T09:20:34Z</time>
</trkpt>
<trkpt lat="48.85605197399855" lon="9.827434960752726">
<ele>464</ele>
<time>2023-05-16T09:20:35Z</time>
</trkpt>
<trkpt lat="48.856066977605224" lon="9.827389949932694">
<ele>464.20000000000005</ele>
<time>2023-05-16T09:20:36Z</time>
</trkpt>
<trkpt lat="48.85608499869704" lon="9.827342927455902">
<ele>464.4</ele>
<time>2023-05-16T09:20:37Z</time>
</trkpt>
<trkpt lat="48.85610796511173" lon="9.827292971313">
<ele>464.6</ele>
<time>2023-05-16T09:20:38Z</time>
</trkpt>
<trkpt lat="48.8561319373548" lon="9.827254917472601">
<ele>464.6</ele>
<time>2023-05-16T09:20:39Z</time>
</trkpt>
<trkpt lat="48.85615197010338" lon="9.827212924137712">
<ele>464.79999999999995</ele>
<time>2023-05-16T09:20:40Z</time>
</trkpt>
<trkpt lat="48.85617292486131" lon="9.827172942459583">
<ele>465</ele>
<time>2023-05-16T09:20:41Z</time>
</trkpt>
<trkpt lat="48.85619496926665" lon="9.827134972438216">
<ele>465.20000000000005</ele>
<time>2023-05-16T09:20:42Z</time>
</trkpt>
<trkpt lat="48.8562149181962" lon="9.827096918597817">
<ele>465.20000000000005</ele>
<time>2023-05-16T09:20:43Z</time>
</trkpt>
<trkpt lat="48.85623696260154" lon="9.827059954404831">
<ele>465.4</ele>
<time>2023-05-16T09:20:44Z</time>
</trkpt>
<trkpt lat="48.85625791735947" lon="9.827021984383464">
<ele>465.6</ele>
<time>2023-05-16T09:20:45Z</time>
</trkpt>
<trkpt lat="48.85627795010805" lon="9.826982924714684">
<ele>465.79999999999995</ele>
<time>2023-05-16T09:20:46Z</time>
</trkpt>
<trkpt lat="48.85629697702825" lon="9.826946966350079">
<ele>466</ele>
<time>2023-05-16T09:20:47Z</time>
</trkpt>
<trkpt lat="48.85631499812007" lon="9.826914947479963">
<ele>466</ele>
<time>2023-05-16T09:20:48Z</time>
</trkpt>
<trkpt lat="48.85633494704962" lon="9.826881922781467">
<ele>466.20000000000005</ele>
<time>2023-05-16T09:20:49Z</time>
</trkpt>
<trkpt lat="48.8563549797982" lon="9.826847976073623">
<ele>466.4</ele>
<time>2023-05-16T09:20:50Z</time>
</trkpt>
<trkpt lat="48.85637694038451" lon="9.826814951375127">
<ele>466.4</ele>
<time>2023-05-16T09:20:51Z</time>
</trkpt>
<trkpt lat="48.856394961476326" lon="9.826782932505012">
<ele>466.6</ele>
<time>2023-05-16T09:20:52Z</time>
</trkpt>
<trkpt lat="48.85641993954778" lon="9.826759966090322">
<ele>466.79999999999995</ele>
<time>2023-05-16T09:20:53Z</time>
</trkpt>
<trkpt lat="48.8564429897815" lon="9.826746974140406">
<ele>466.79999999999995</ele>
<time>2023-05-16T09:20:54Z</time>
</trkpt>
<trkpt lat="48.85646495036781" lon="9.826741944998503">
<ele>467</ele>
<time>2023-05-16T09:20:55Z</time>
</trkpt>
<trkpt lat="48.856477942317724" lon="9.826742950826883">
<ele>467</ele>
<time>2023-05-16T09:20:56Z</time>
</trkpt>
<trkpt lat="48.85648196563125" lon="9.826746974140406">
<ele>467.20000000000005</ele>
<time>2023-05-16T09:20:57Z</time>
</trkpt>
<trkpt lat="48.85648297145963" lon="9.826746974140406">
<ele>467.20000000000005</ele>
<time>2023-05-16T09:20:58Z</time>
</trkpt>
<trkpt lat="48.85648196563125" lon="9.826656952500343">
<ele>467.6</ele>
<time>2023-05-16T09:20:58Z</time>
</trkpt>
<trkpt lat="48.85649194009602" lon="9.826634991914034">
<ele>467.6</ele>
<time>2023-05-16T09:20:59Z</time>
</trkpt>
<trkpt lat="48.8565069437027" lon="9.826611941680312">
<ele>467.6</ele>
<time>2023-05-16T09:21:00Z</time>
</trkpt>
<trkpt lat="48.85652496479452" lon="9.826586963608861">
<ele>467.6</ele>
<time>2023-05-16T09:21:01Z</time>
</trkpt>
<trkpt lat="48.856546925380826" lon="9.826559973880649">
<ele>467.6</ele>
<time>2023-05-16T09:21:02Z</time>
</trkpt>
<trkpt lat="48.85656796395779" lon="9.826534995809197">
<ele>467.6</ele>
<time>2023-05-16T09:21:03Z</time>
</trkpt>
<trkpt lat="48.856594953686" lon="9.826504988595843">
<ele>467.79999999999995</ele>
<time>2023-05-16T09:21:04Z</time>
</trkpt>
<trkpt lat="48.85662194341421" lon="9.826472969725728">
<ele>467.79999999999995</ele>
<time>2023-05-16T09:21:05Z</time>
</trkpt>
<trkpt lat="48.856649938970804" lon="9.82643692754209">
<ele>467.79999999999995</ele>
<time>2023-05-16T09:21:06Z</time>
</trkpt>
<trkpt lat="48.8566779345274" lon="9.826404992491007">
<ele>468</ele>
<time>2023-05-16T09:21:07Z</time>
</trkpt>
<trkpt lat="48.85670794174075" lon="9.826372973620892">
<ele>468</ele>
<time>2023-05-16T09:21:08Z</time>
</trkpt>
<trkpt lat="48.85673996061087" lon="9.826342966407537">
<ele>468.20000000000005</ele>
<time>2023-05-16T09:21:09Z</time>
</trkpt>
<trkpt lat="48.85677197948098" lon="9.826312959194183">
<ele>468.4</ele>
<time>2023-05-16T09:21:10Z</time>
</trkpt>
<trkpt lat="48.85680299252272" lon="9.82628496363759">
<ele>468.4</ele>
<time>2023-05-16T09:21:11Z</time>
</trkpt>
<trkpt lat="48.85683693923056" lon="9.826252944767475">
<ele>468.6</ele>
<time>2023-05-16T09:21:12Z</time>
</trkpt>
<trkpt lat="48.85686996392906" lon="9.82622193172574">
<ele>468.79999999999995</ele>
<time>2023-05-16T09:21:13Z</time>
</trkpt>
<trkpt lat="48.85690298862755" lon="9.826194941997528">
<ele>469</ele>
<time>2023-05-16T09:21:14Z</time>
</trkpt>
<trkpt lat="48.8569369353354" lon="9.826167952269316">
<ele>469</ele>
<time>2023-05-16T09:21:15Z</time>
</trkpt>
<trkpt lat="48.856969960033894" lon="9.826142974197865">
<ele>469.20000000000005</ele>
<time>2023-05-16T09:21:16Z</time>
</trkpt>
<trkpt lat="48.85700298473239" lon="9.826116990298033">
<ele>469.4</ele>
<time>2023-05-16T09:21:17Z</time>
</trkpt>
<trkpt lat="48.85703491978347" lon="9.82609293423593">
<ele>469.6</ele>
<time>2023-05-16T09:21:18Z</time>
</trkpt>
<trkpt lat="48.85706492699683" lon="9.82606795616448">
<ele>469.79999999999995</ele>
<time>2023-05-16T09:21:19Z</time>
</trkpt>
<trkpt lat="48.85709694586694" lon="9.8260479234159">
<ele>470</ele>
<time>2023-05-16T09:21:20Z</time>
</trkpt>
<trkpt lat="48.85712795890868" lon="9.826027974486351">
<ele>470.20000000000005</ele>
<time>2023-05-16T09:21:21Z</time>
</trkpt>
<trkpt lat="48.85716198943555" lon="9.826007941737771">
<ele>470.4</ele>
<time>2023-05-16T09:21:22Z</time>
</trkpt>
<trkpt lat="48.85719493031502" lon="9.825987992808223">
<ele>470.4</ele>
<time>2023-05-16T09:21:23Z</time>
</trkpt>
<trkpt lat="48.857229966670275" lon="9.825966954231262">
<ele>470.6</ele>
<time>2023-05-16T09:21:24Z</time>
</trkpt>
<trkpt lat="48.85726299136877" lon="9.825944993644953">
<ele>470.79999999999995</ele>
<time>2023-05-16T09:21:25Z</time>
</trkpt>
<trkpt lat="48.857296938076615" lon="9.825922949239612">
<ele>470.79999999999995</ele>
<time>2023-05-16T09:21:26Z</time>
</trkpt>
<trkpt lat="48.85732996277511" lon="9.825901994481683">
<ele>471</ele>
<time>2023-05-16T09:21:27Z</time>
</trkpt>
<trkpt lat="48.85736298747361" lon="9.825879950076342">
<ele>471.20000000000005</ele>
<time>2023-05-16T09:21:28Z</time>
</trkpt>
<trkpt lat="48.85739693418145" lon="9.825859917327762">
<ele>471.4</ele>
<time>2023-05-16T09:21:29Z</time>
</trkpt>
<trkpt lat="48.85742995887995" lon="9.825839968398213">
<ele>471.6</ele>
<time>2023-05-16T09:21:30Z</time>
</trkpt>
<trkpt lat="48.857464995235205" lon="9.825817923992872">
<ele>471.6</ele>
<time>2023-05-16T09:21:31Z</time>
</trkpt>
<trkpt lat="48.85749693028629" lon="9.825797975063324">
<ele>471.79999999999995</ele>
<time>2023-05-16T09:21:32Z</time>
</trkpt>
<trkpt lat="48.85752794332802" lon="9.825774924829602">
<ele>472</ele>
<time>2023-05-16T09:21:33Z</time>
</trkpt>
<trkpt lat="48.85755996219814" lon="9.825751958414912">
<ele>472</ele>
<time>2023-05-16T09:21:34Z</time>
</trkpt>
<trkpt lat="48.85759198106825" lon="9.825727986171842">
<ele>472.20000000000005</ele>
<time>2023-05-16T09:21:35Z</time>
</trkpt>
<trkpt lat="48.85762299410999" lon="9.82570493593812">
<ele>472.4</ele>
<time>2023-05-16T09:21:36Z</time>
</trkpt>
<trkpt lat="48.85765492916107" lon="9.825679957866669">
<ele>472.6</ele>
<time>2023-05-16T09:21:37Z</time>
</trkpt>
<trkpt lat="48.85768694803119" lon="9.825654979795218">
<ele>472.79999999999995</ele>
<time>2023-05-16T09:21:38Z</time>
</trkpt>
<trkpt lat="48.85771494358778" lon="9.825627990067005">
<ele>472.79999999999995</ele>
<time>2023-05-16T09:21:39Z</time>
</trkpt>
<trkpt lat="48.85774293914437" lon="9.825601922348142">
<ele>473</ele>
<time>2023-05-16T09:21:40Z</time>
</trkpt>
<trkpt lat="48.85777194052935" lon="9.82557694427669">
<ele>473.20000000000005</ele>
<time>2023-05-16T09:21:41Z</time>
</trkpt>
<trkpt lat="48.85779792442918" lon="9.825549954548478">
<ele>473.4</ele>
<time>2023-05-16T09:21:42Z</time>
</trkpt>
<trkpt lat="48.85782499797642" lon="9.825519947335124">
<ele>473.4</ele>
<time>2023-05-16T09:21:43Z</time>
</trkpt>
<trkpt lat="48.857852993533015" lon="9.825491951778531">
<ele>473.6</ele>
<time>2023-05-16T09:21:44Z</time>
</trkpt>
<trkpt lat="48.857876965776086" lon="9.82546697370708">
<ele>473.6</ele>
<time>2023-05-16T09:21:45Z</time>
</trkpt>
<trkpt lat="48.85790194384754" lon="9.825436966493726">
<ele>473.79999999999995</ele>
<time>2023-05-16T09:21:46Z</time>
</trkpt>
<trkpt lat="48.85792792774737" lon="9.825409976765513">
<ele>474</ele>
<time>2023-05-16T09:21:47Z</time>
</trkpt>
<trkpt lat="48.85795692913234" lon="9.82537996955216">
<ele>474.20000000000005</ele>
<time>2023-05-16T09:21:48Z</time>
</trkpt>
<trkpt lat="48.8579869363457" lon="9.825349962338805">
<ele>474.4</ele>
<time>2023-05-16T09:21:49Z</time>
</trkpt>
<trkpt lat="48.85801694355905" lon="9.825314925983548">
<ele>474.6</ele>
<time>2023-05-16T09:21:50Z</time>
</trkpt>
<trkpt lat="48.85804292745888" lon="9.825279973447323">
<ele>474.79999999999995</ele>
<time>2023-05-16T09:21:51Z</time>
</trkpt>
<trkpt lat="48.858069917187095" lon="9.825241919606924">
<ele>475</ele>
<time>2023-05-16T09:21:52Z</time>
</trkpt>
<trkpt lat="48.85809497907758" lon="9.825202943757176">
<ele>475</ele>
<time>2023-05-16T09:21:53Z</time>
</trkpt>
<trkpt lat="48.85812196880579" lon="9.825162962079048">
<ele>475.20000000000005</ele>
<time>2023-05-16T09:21:54Z</time>
</trkpt>
<trkpt lat="48.85814795270562" lon="9.825124992057681">
<ele>475.4</ele>
<time>2023-05-16T09:21:55Z</time>
</trkpt>
<trkpt lat="48.858174942433834" lon="9.825087944045663">
<ele>475.6</ele>
<time>2023-05-16T09:21:56Z</time>
</trkpt>
<trkpt lat="48.858196986839175" lon="9.825051985681057">
<ele>475.6</ele>
<time>2023-05-16T09:21:57Z</time>
</trkpt>
<trkpt lat="48.858219953253865" lon="9.825014937669039">
<ele>475.79999999999995</ele>
<time>2023-05-16T09:21:58Z</time>
</trkpt>
<trkpt lat="48.858239986002445" lon="9.824976967647672">
<ele>475.79999999999995</ele>
<time>2023-05-16T09:21:59Z</time>
</trkpt>
<trkpt lat="48.858261946588755" lon="9.824936985969543">
<ele>476</ele>
<time>2023-05-16T09:22:00Z</time>
</trkpt>
<trkpt lat="48.858284996822476" lon="9.824894992634654">
<ele>476.20000000000005</ele>
<time>2023-05-16T09:22:01Z</time>
</trkpt>
<trkpt lat="48.858306957408786" lon="9.824851993471384">
<ele>476.20000000000005</ele>
<time>2023-05-16T09:22:02Z</time>
</trkpt>
<trkpt lat="48.858327995985746" lon="9.824807988479733">
<ele>476.4</ele>
<time>2023-05-16T09:22:03Z</time>
</trkpt>
<trkpt lat="48.8583529740572" lon="9.824761971831322">
<ele>476.4</ele>
<time>2023-05-16T09:22:04Z</time>
</trkpt>
<trkpt lat="48.85837694630027" lon="9.82471696101129">
<ele>476.6</ele>
<time>2023-05-16T09:22:05Z</time>
</trkpt>
<trkpt lat="48.85839999653399" lon="9.824669938534498">
<ele>476.79999999999995</ele>
<time>2023-05-16T09:22:06Z</time>
</trkpt>
<trkpt lat="48.85842296294868" lon="9.824622999876738">
<ele>476.79999999999995</ele>
<time>2023-05-16T09:22:07Z</time>
</trkpt>
<trkpt lat="48.85844693519175" lon="9.824576983228326">
<ele>477</ele>
<time>2023-05-16T09:22:08Z</time>
</trkpt>
<trkpt lat="48.85846998542547" lon="9.824527949094772">
<ele>477</ele>
<time>2023-05-16T09:22:09Z</time>
</trkpt>
<trkpt lat="48.85849496349692" lon="9.82448193244636">
<ele>477.20000000000005</ele>
<time>2023-05-16T09:22:10Z</time>
</trkpt>
<trkpt lat="48.85851692408323" lon="9.8244349937886">
<ele>477.20000000000005</ele>
<time>2023-05-16T09:22:11Z</time>
</trkpt>
<trkpt lat="48.85853695683181" lon="9.824392916634679">
<ele>477.4</ele>
<time>2023-05-16T09:22:12Z</time>
</trkpt>
<trkpt lat="48.858561934903264" lon="9.82434798963368">
<ele>477.6</ele>
<time>2023-05-16T09:22:13Z</time>
</trkpt>
<trkpt lat="48.85858699679375" lon="9.82430499047041">
<ele>477.6</ele>
<time>2023-05-16T09:22:14Z</time>
</trkpt>
<trkpt lat="48.858607951551676" lon="9.82426492497325">
<ele>477.79999999999995</ele>
<time>2023-05-16T09:22:15Z</time>
</trkpt>
<trkpt lat="48.85863494127989" lon="9.824224943295121">
<ele>477.79999999999995</ele>
<time>2023-05-16T09:22:16Z</time>
</trkpt>
<trkpt lat="48.85865698568523" lon="9.824187979102135">
<ele>478</ele>
<time>2023-05-16T09:22:17Z</time>
</trkpt>
<trkpt lat="48.85868196375668" lon="9.824151936918497">
<ele>478.20000000000005</ele>
<time>2023-05-16T09:22:18Z</time>
</trkpt>
<trkpt lat="48.85870794765651" lon="9.82411296106875">
<ele>478.20000000000005</ele>
<time>2023-05-16T09:22:19Z</time>
</trkpt>
<trkpt lat="48.85873292572796" lon="9.824077924713492">
<ele>478.4</ele>
<time>2023-05-16T09:22:20Z</time>
</trkpt>
<trkpt lat="48.858757987618446" lon="9.824037943035364">
<ele>478.4</ele>
<time>2023-05-16T09:22:21Z</time>
</trkpt>
<trkpt lat="48.85878698900342" lon="9.824001984670758">
<ele>478.4</ele>
<time>2023-05-16T09:22:22Z</time>
</trkpt>
<trkpt lat="48.85881196707487" lon="9.82396493665874">
<ele>478.4</ele>
<time>2023-05-16T09:22:23Z</time>
</trkpt>
<trkpt lat="48.8588379509747" lon="9.823926966637373">
<ele>478.6</ele>
<time>2023-05-16T09:22:24Z</time>
</trkpt>
<trkpt lat="48.858866952359676" lon="9.823887990787625">
<ele>478.6</ele>
<time>2023-05-16T09:22:25Z</time>
</trkpt>
<trkpt lat="48.85889494791627" lon="9.823851948603988">
<ele>478.6</ele>
<time>2023-05-16T09:22:26Z</time>
</trkpt>
<trkpt lat="48.85891992598772" lon="9.823817918077111">
<ele>478.79999999999995</ele>
<time>2023-05-16T09:22:27Z</time>
</trkpt>
<trkpt lat="48.85894792154431" lon="9.823781959712505">
<ele>478.79999999999995</ele>
<time>2023-05-16T09:22:28Z</time>
</trkpt>
<trkpt lat="48.85897692292929" lon="9.823746923357248">
<ele>479</ele>
<time>2023-05-16T09:22:29Z</time>
</trkpt>
<trkpt lat="48.85900299064815" lon="9.823711970821023">
<ele>479</ele>
<time>2023-05-16T09:22:30Z</time>
</trkpt>
<trkpt lat="48.859031992033124" lon="9.823674922809005">
<ele>479.20000000000005</ele>
<time>2023-05-16T09:22:31Z</time>
</trkpt>
<trkpt lat="48.859057975932956" lon="9.823637958616018">
<ele>479.20000000000005</ele>
<time>2023-05-16T09:22:32Z</time>
</trkpt>
<trkpt lat="48.85908697731793" lon="9.82360191643238">
<ele>479.20000000000005</ele>
<time>2023-05-16T09:22:33Z</time>
</trkpt>
<trkpt lat="48.85911296121776" lon="9.823566963896155">
<ele>479.4</ele>
<time>2023-05-16T09:22:34Z</time>
</trkpt>
<trkpt lat="48.85913995094597" lon="9.823529999703169">
<ele>479.4</ele>
<time>2023-05-16T09:22:35Z</time>
</trkpt>
<trkpt lat="48.859167946502566" lon="9.82349295169115">
<ele>479.6</ele>
<time>2023-05-16T09:22:36Z</time>
</trkpt>
<trkpt lat="48.85919493623078" lon="9.823457999154925">
<ele>479.6</ele>
<time>2023-05-16T09:22:37Z</time>
</trkpt>
<trkpt lat="48.85922192595899" lon="9.823419945314527">
<ele>479.79999999999995</ele>
<time>2023-05-16T09:22:38Z</time>
</trkpt>
<trkpt lat="48.859249921515584" lon="9.823384992778301">
<ele>479.79999999999995</ele>
<time>2023-05-16T09:22:39Z</time>
</trkpt>
<trkpt lat="48.85927791707218" lon="9.823349956423044">
<ele>480</ele>
<time>2023-05-16T09:22:40Z</time>
</trkpt>
<trkpt lat="48.85930691845715" lon="9.823314920067787">
<ele>480</ele>
<time>2023-05-16T09:22:41Z</time>
</trkpt>
<trkpt lat="48.859334997832775" lon="9.8232779558748">
<ele>480</ele>
<time>2023-05-16T09:22:42Z</time>
</trkpt>
<trkpt lat="48.85936299338937" lon="9.823242919519544">
<ele>480.20000000000005</ele>
<time>2023-05-16T09:22:43Z</time>
</trkpt>
<trkpt lat="48.85939199477434" lon="9.823204949498177">
<ele>480.20000000000005</ele>
<time>2023-05-16T09:22:44Z</time>
</trkpt>
<trkpt lat="48.859419990330935" lon="9.82316697947681">
<ele>480.4</ele>
<time>2023-05-16T09:22:45Z</time>
</trkpt>
<trkpt lat="48.85944698005915" lon="9.823129931464791">
<ele>480.4</ele>
<time>2023-05-16T09:22:46Z</time>
</trkpt>
<trkpt lat="48.85947497561574" lon="9.823092967271805">
<ele>480.6</ele>
<time>2023-05-16T09:22:47Z</time>
</trkpt>
<trkpt lat="48.85950297117233" lon="9.823054997250438">
<ele>480.6</ele>
<time>2023-05-16T09:22:48Z</time>
</trkpt>
<trkpt lat="48.859531972557306" lon="9.82301794923842">
<ele>480.79999999999995</ele>
<time>2023-05-16T09:22:49Z</time>
</trkpt>
<trkpt lat="48.85956197977066" lon="9.822981990873814">
<ele>480.79999999999995</ele>
<time>2023-05-16T09:22:50Z</time>
</trkpt>
<trkpt lat="48.85958796367049" lon="9.822947960346937">
<ele>481</ele>
<time>2023-05-16T09:22:51Z</time>
</trkpt>
<trkpt lat="48.859616965055466" lon="9.8229119181633">
<ele>481</ele>
<time>2023-05-16T09:22:52Z</time>
</trkpt>
<trkpt lat="48.8596429489553" lon="9.822872942313552">
<ele>481.20000000000005</ele>
<time>2023-05-16T09:22:53Z</time>
</trkpt>
<trkpt lat="48.85967195034027" lon="9.822834972292185">
<ele>481.20000000000005</ele>
<time>2023-05-16T09:22:54Z</time>
</trkpt>
<trkpt lat="48.859699945896864" lon="9.822796918451786">
<ele>481.4</ele>
<time>2023-05-16T09:22:55Z</time>
</trkpt>
<trkpt lat="48.85972995311022" lon="9.8227599542588">
<ele>481.4</ele>
<time>2023-05-16T09:22:56Z</time>
</trkpt>
<trkpt lat="48.85975996032357" lon="9.822722990065813">
<ele>481.6</ele>
<time>2023-05-16T09:22:57Z</time>
</trkpt>
<trkpt lat="48.85979197919369" lon="9.822682924568653">
<ele>481.6</ele>
<time>2023-05-16T09:22:58Z</time>
</trkpt>
<trkpt lat="48.85981997475028" lon="9.822642942890525">
<ele>481.79999999999995</ele>
<time>2023-05-16T09:22:59Z</time>
</trkpt>
<trkpt lat="48.859849981963634" lon="9.822602961212397">
<ele>481.79999999999995</ele>
<time>2023-05-16T09:23:00Z</time>
</trkpt>
<trkpt lat="48.85987998917699" lon="9.82256499119103">
<ele>481.79999999999995</ele>
<time>2023-05-16T09:23:01Z</time>
</trkpt>
<trkpt lat="48.85990798473358" lon="9.822529954835773">
<ele>481.79999999999995</ele>
<time>2023-05-16T09:23:02Z</time>
</trkpt>
<trkpt lat="48.859937991946936" lon="9.822492990642786">
<ele>482</ele>
<time>2023-05-16T09:23:03Z</time>
</trkpt>
<trkpt lat="48.85996799916029" lon="9.822457954287529">
<ele>482</ele>
<time>2023-05-16T09:23:04Z</time>
</trkpt>
<trkpt lat="48.85999792255461" lon="9.822421995922923">
<ele>482</ele>
<time>2023-05-16T09:23:05Z</time>
</trkpt>
<trkpt lat="48.860026923939586" lon="9.822381930425763">
<ele>482</ele>
<time>2023-05-16T09:23:06Z</time>
</trkpt>
<trkpt lat="48.86005693115294" lon="9.822342954576015">
<ele>482</ele>
<time>2023-05-16T09:23:07Z</time>
</trkpt>
<trkpt lat="48.860086938366294" lon="9.822302972897887">
<ele>482</ele>
<time>2023-05-16T09:23:08Z</time>
</trkpt>
<trkpt lat="48.86011694557965" lon="9.822259973734617">
<ele>482</ele>
<time>2023-05-16T09:23:09Z</time>
</trkpt>
<trkpt lat="48.86014795862138" lon="9.822216974571347">
<ele>481.79999999999995</ele>
<time>2023-05-16T09:23:10Z</time>
</trkpt>
<trkpt lat="48.86018198914826" lon="9.822174981236458">
<ele>481.79999999999995</ele>
<time>2023-05-16T09:23:11Z</time>
</trkpt>
<trkpt lat="48.86021291837096" lon="9.822131982073188">
<ele>481.79999999999995</ele>
<time>2023-05-16T09:23:12Z</time>
</trkpt>
<trkpt lat="48.86024493724108" lon="9.822089988738298">
<ele>481.79999999999995</ele>
<time>2023-05-16T09:23:13Z</time>
</trkpt>
<trkpt lat="48.86027695611119" lon="9.822044977918267">
<ele>481.79999999999995</ele>
<time>2023-05-16T09:23:14Z</time>
</trkpt>
<trkpt lat="48.86031299829483" lon="9.821999967098236">
<ele>481.79999999999995</ele>
<time>2023-05-16T09:23:15Z</time>
</trkpt>
<trkpt lat="48.860347950831056" lon="9.821954956278205">
<ele>481.79999999999995</ele>
<time>2023-05-16T09:23:16Z</time>
</trkpt>
<trkpt lat="48.860384998843074" lon="9.821907933801413">
<ele>481.6</ele>
<time>2023-05-16T09:23:17Z</time>
</trkpt>
<trkpt lat="48.86042196303606" lon="9.821859989315271">
<ele>481.6</ele>
<time>2023-05-16T09:23:18Z</time>
</trkpt>
<trkpt lat="48.86045993305743" lon="9.82181497849524">
<ele>481.6</ele>
<time>2023-05-16T09:23:19Z</time>
</trkpt>
<trkpt lat="48.86049999855459" lon="9.821769967675209">
<ele>481.4</ele>
<time>2023-05-16T09:23:20Z</time>
</trkpt>
<trkpt lat="48.86054299771786" lon="9.821722945198417">
<ele>481.4</ele>
<time>2023-05-16T09:23:21Z</time>
</trkpt>
<trkpt lat="48.86058499105275" lon="9.821676928550005">
<ele>481.20000000000005</ele>
<time>2023-05-16T09:23:22Z</time>
</trkpt>
<trkpt lat="48.86063192971051" lon="9.821629989892244">
<ele>481.20000000000005</ele>
<time>2023-05-16T09:23:23Z</time>
</trkpt>
<trkpt lat="48.86067694053054" lon="9.821584979072213">
<ele>481</ele>
<time>2023-05-16T09:23:24Z</time>
</trkpt>
<trkpt lat="48.86072195135057" lon="9.82153795659542">
<ele>481</ele>
<time>2023-05-16T09:23:25Z</time>
</trkpt>
<trkpt lat="48.86076997965574" lon="9.82149495743215">
<ele>480.79999999999995</ele>
<time>2023-05-16T09:23:26Z</time>
</trkpt>
<trkpt lat="48.860817924141884" lon="9.821456987410784">
<ele>480.6</ele>
<time>2023-05-16T09:23:27Z</time>
</trkpt>
<trkpt lat="48.860864946618676" lon="9.821417927742004">
<ele>480.6</ele>
<time>2023-05-16T09:23:28Z</time>
</trkpt>
<trkpt lat="48.86091196909547" lon="9.821381969377398">
<ele>480.4</ele>
<time>2023-05-16T09:23:29Z</time>
</trkpt>
<trkpt lat="48.8609569799155" lon="9.821346933022141">
<ele>480.4</ele>
<time>2023-05-16T09:23:30Z</time>
</trkpt>
<trkpt lat="48.86100199073553" lon="9.821316925808787">
<ele>480.20000000000005</ele>
<time>2023-05-16T09:23:31Z</time>
</trkpt>
<trkpt lat="48.8610449898988" lon="9.821284990757704">
<ele>480.20000000000005</ele>
<time>2023-05-16T09:23:32Z</time>
</trkpt>
<trkpt lat="48.86108798906207" lon="9.821252971887589">
<ele>480</ele>
<time>2023-05-16T09:23:33Z</time>
</trkpt>
<trkpt lat="48.86113492771983" lon="9.821222964674234">
<ele>480</ele>
<time>2023-05-16T09:23:34Z</time>
</trkpt>
<trkpt lat="48.861182956025004" lon="9.821194969117641">
<ele>479.79999999999995</ele>
<time>2023-05-16T09:23:35Z</time>
</trkpt>
<trkpt lat="48.86123199015856" lon="9.821166973561049">
<ele>479.79999999999995</ele>
<time>2023-05-16T09:23:36Z</time>
</trkpt>
<trkpt lat="48.86128194630146" lon="9.821141995489597">
<ele>479.6</ele>
<time>2023-05-16T09:23:37Z</time>
</trkpt>
<trkpt lat="48.861334919929504" lon="9.821114921942353">
<ele>479.4</ele>
<time>2023-05-16T09:23:38Z</time>
</trkpt>
<trkpt lat="48.86138797737658" lon="9.821089943870902">
<ele>479.4</ele>
<time>2023-05-16T09:23:39Z</time>
</trkpt>
<trkpt lat="48.861442962661386" lon="9.82106496579945">
<ele>479.20000000000005</ele>
<time>2023-05-16T09:23:40Z</time>
</trkpt>
<trkpt lat="48.86149995960295" lon="9.82104292139411">
<ele>479</ele>
<time>2023-05-16T09:23:41Z</time>
</trkpt>
<trkpt lat="48.86155695654452" lon="9.821022972464561">
<ele>478.79999999999995</ele>
<time>2023-05-16T09:23:42Z</time>
</trkpt>
<trkpt lat="48.86161697097123" lon="9.821002939715981">
<ele>478.79999999999995</ele>
<time>2023-05-16T09:23:43Z</time>
</trkpt>
<trkpt lat="48.861674973741174" lon="9.820982990786433">
<ele>478.6</ele>
<time>2023-05-16T09:23:44Z</time>
</trkpt>
<trkpt lat="48.86173297651112" lon="9.820962958037853">
<ele>478.4</ele>
<time>2023-05-16T09:23:45Z</time>
</trkpt>
<trkpt lat="48.86178997345269" lon="9.820949966087937">
<ele>478.20000000000005</ele>
<time>2023-05-16T09:23:46Z</time>
</trkpt>
<trkpt lat="48.86184294708073" lon="9.820937979966402">
<ele>478</ele>
<time>2023-05-16T09:23:47Z</time>
</trkpt>
<trkpt lat="48.8619049731642" lon="9.820922976359725">
<ele>478</ele>
<time>2023-05-16T09:23:48Z</time>
</trkpt>
<trkpt lat="48.86196498759091" lon="9.820907972753048">
<ele>477.79999999999995</ele>
<time>2023-05-16T09:23:49Z</time>
</trkpt>
<trkpt lat="48.862024918198586" lon="9.820887940004468">
<ele>477.6</ele>
<time>2023-05-16T09:23:50Z</time>
</trkpt>
<trkpt lat="48.862086944282055" lon="9.82086698524654">
<ele>477.6</ele>
<time>2023-05-16T09:23:51Z</time>
</trkpt>
<trkpt lat="48.86214695870876" lon="9.820844940841198">
<ele>477.4</ele>
<time>2023-05-16T09:23:52Z</time>
</trkpt>
<trkpt lat="48.86220496147871" lon="9.82082499191165">
<ele>477.20000000000005</ele>
<time>2023-05-16T09:23:53Z</time>
</trkpt>
<trkpt lat="48.86226799339056" lon="9.820807976648211">
<ele>477</ele>
<time>2023-05-16T09:23:54Z</time>
</trkpt>
<trkpt lat="48.86233295314014" lon="9.820789955556393">
<ele>476.79999999999995</ele>
<time>2023-05-16T09:23:55Z</time>
</trkpt>
<trkpt lat="48.86239296756685" lon="9.820766989141703">
<ele>476.79999999999995</ele>
<time>2023-05-16T09:23:56Z</time>
</trkpt>
<trkpt lat="48.86244795285165" lon="9.82073798775673">
<ele>476.6</ele>
<time>2023-05-16T09:23:57Z</time>
</trkpt>
<trkpt lat="48.86250293813646" lon="9.820702951401472">
<ele>476.4</ele>
<time>2023-05-16T09:23:58Z</time>
</trkpt>
<trkpt lat="48.862559935078025" lon="9.820672944188118">
<ele>476.4</ele>
<time>2023-05-16T09:23:59Z</time>
</trkpt>
<trkpt lat="48.86261793784797" lon="9.820644948631525">
<ele>476.20000000000005</ele>
<time>2023-05-16T09:24:00Z</time>
</trkpt>
<trkpt lat="48.8626819755882" lon="9.820619970560074">
<ele>476</ele>
<time>2023-05-16T09:24:01Z</time>
</trkpt>
<trkpt lat="48.86274693533778" lon="9.820601949468255">
<ele>476</ele>
<time>2023-05-16T09:24:02Z</time>
</trkpt>
<trkpt lat="48.86280292645097" lon="9.820577977225184">
<ele>475.79999999999995</ele>
<time>2023-05-16T09:24:03Z</time>
</trkpt>
<trkpt lat="48.862856989726424" lon="9.820554926991463">
<ele>475.79999999999995</ele>
<time>2023-05-16T09:24:04Z</time>
</trkpt>
<trkpt lat="48.862902922555804" lon="9.820531960576773">
<ele>475.79999999999995</ele>
<time>2023-05-16T09:24:05Z</time>
</trkpt>
<trkpt lat="48.862947933375835" lon="9.820512933656573">
<ele>475.79999999999995</ele>
<time>2023-05-16T09:24:06Z</time>
</trkpt>
<trkpt lat="48.86299797333777" lon="9.820491978898644">
<ele>475.79999999999995</ele>
<time>2023-05-16T09:24:07Z</time>
</trkpt>
<trkpt lat="48.86304692365229" lon="9.820469934493303">
<ele>475.79999999999995</ele>
<time>2023-05-16T09:24:08Z</time>
</trkpt>
<trkpt lat="48.86308799497783" lon="9.82043992727995">
<ele>475.79999999999995</ele>
<time>2023-05-16T09:24:09Z</time>
</trkpt>
<trkpt lat="48.86312998831272" lon="9.820406986400485">
<ele>475.79999999999995</ele>
<time>2023-05-16T09:24:10Z</time>
</trkpt>
<trkpt lat="48.86316695250571" lon="9.82037496753037">
<ele>475.79999999999995</ele>
<time>2023-05-16T09:24:11Z</time>
</trkpt>
<trkpt lat="48.86320794001222" lon="9.820346971973777">
<ele>475.79999999999995</ele>
<time>2023-05-16T09:24:12Z</time>
</trkpt>
<trkpt lat="48.863246999680996" lon="9.820306990295649">
<ele>475.79999999999995</ele>
<time>2023-05-16T09:24:13Z</time>
</trkpt>
<trkpt lat="48.86327994056046" lon="9.820257956162095">
<ele>476</ele>
<time>2023-05-16T09:24:14Z</time>
</trkpt>
<trkpt lat="48.863312965258956" lon="9.820196935907006">
<ele>476</ele>
<time>2023-05-16T09:24:15Z</time>
</trkpt>
<trkpt lat="48.86333995498717" lon="9.820126947015524">
<ele>476</ele>
<time>2023-05-16T09:24:16Z</time>
</trkpt>
<trkpt lat="48.86336493305862" lon="9.820046983659267">
<ele>476</ele>
<time>2023-05-16T09:24:17Z</time>
</trkpt>
<trkpt lat="48.86338798329234" lon="9.81996693648398">
<ele>476</ele>
<time>2023-05-16T09:24:18Z</time>
</trkpt>
<trkpt lat="48.86340994387865" lon="9.819884961470962">
<ele>476</ele>
<time>2023-05-16T09:24:19Z</time>
</trkpt>
<trkpt lat="48.86343693360686" lon="9.819797957316041">
<ele>476</ele>
<time>2023-05-16T09:24:20Z</time>
</trkpt>
<trkpt lat="48.863459983840585" lon="9.81970994733274">
<ele>476</ele>
<time>2023-05-16T09:24:21Z</time>
</trkpt>
<trkpt lat="48.86347792111337" lon="9.819614980369806">
<ele>476</ele>
<time>2023-05-16T09:24:22Z</time>
</trkpt>
<trkpt lat="48.86349795386195" lon="9.819512972608209">
<ele>475.79999999999995</ele>
<time>2023-05-16T09:24:23Z</time>
</trkpt>
<trkpt lat="48.86351295746863" lon="9.819402918219566">
<ele>475.79999999999995</ele>
<time>2023-05-16T09:24:24Z</time>
</trkpt>
<trkpt lat="48.863526955246925" lon="9.819277944043279">
<ele>475.6</ele>
<time>2023-05-16T09:24:25Z</time>
</trkpt>
<trkpt lat="48.86353198438883" lon="9.819152969866991">
<ele>475.6</ele>
<time>2023-05-16T09:24:26Z</time>
</trkpt>
<trkpt lat="48.86353299021721" lon="9.819019949063659">
<ele>475.20000000000005</ele>
<time>2023-05-16T09:24:27Z</time>
</trkpt>
<trkpt lat="48.86351999826729" lon="9.818887934088707">
<ele>475</ele>
<time>2023-05-16T09:24:28Z</time>
</trkpt>
<trkpt lat="48.86350993998349" lon="9.818757930770516">
<ele>474.6</ele>
<time>2023-05-16T09:24:29Z</time>
</trkpt>
<trkpt lat="48.863506922498345" lon="9.818617952987552">
<ele>474.20000000000005</ele>
<time>2023-05-16T09:24:30Z</time>
</trkpt>
<trkpt lat="48.863502983003855" lon="9.81848694384098">
<ele>473.6</ele>
<time>2023-05-16T09:24:31Z</time>
</trkpt>
<trkpt lat="48.863506922498345" lon="9.818354928866029">
<ele>473</ele>
<time>2023-05-16T09:24:32Z</time>
</trkpt>
<trkpt lat="48.86351698078215" lon="9.818222997710109">
<ele>472.4</ele>
<time>2023-05-16T09:24:33Z</time>
</trkpt>
<trkpt lat="48.86353491805494" lon="9.818089976906776">
<ele>471.79999999999995</ele>
<time>2023-05-16T09:24:34Z</time>
</trkpt>
<trkpt lat="48.863547993823886" lon="9.81796994805336">
<ele>471.20000000000005</ele>
<time>2023-05-16T09:24:35Z</time>
</trkpt>
<trkpt lat="48.86357297189534" lon="9.817847991362214">
<ele>470.79999999999995</ele>
<time>2023-05-16T09:24:36Z</time>
</trkpt>
<trkpt lat="48.86359493248165" lon="9.817739948630333">
<ele>470.6</ele>
<time>2023-05-16T09:24:37Z</time>
</trkpt>
<trkpt lat="48.86361496523023" lon="9.817642970010638">
<ele>470.20000000000005</ele>
<time>2023-05-16T09:24:38Z</time>
</trkpt>
<trkpt lat="48.863632986322045" lon="9.817557977512479">
<ele>470.20000000000005</ele>
<time>2023-05-16T09:24:39Z</time>
</trkpt>
<trkpt lat="48.863652935251594" lon="9.817481953650713">
<ele>470.20000000000005</ele>
<time>2023-05-16T09:24:40Z</time>
</trkpt>
<trkpt lat="48.863674979656935" lon="9.817412970587611">
<ele>470.20000000000005</ele>
<time>2023-05-16T09:24:41Z</time>
</trkpt>
<trkpt lat="48.86370196938515" lon="9.817354967817664">
<ele>470.20000000000005</ele>
<time>2023-05-16T09:24:42Z</time>
</trkpt>
<trkpt lat="48.86372795328498" lon="9.817289924249053">
<ele>470.4</ele>
<time>2023-05-16T09:24:43Z</time>
</trkpt>
<trkpt lat="48.86374999769032" lon="9.817232927307487">
<ele>470.4</ele>
<time>2023-05-16T09:24:44Z</time>
</trkpt>
<trkpt lat="48.86376793496311" lon="9.817179953679442">
<ele>470.4</ele>
<time>2023-05-16T09:24:45Z</time>
</trkpt>
<trkpt lat="48.86378997936845" lon="9.81712999753654">
<ele>470.4</ele>
<time>2023-05-16T09:24:46Z</time>
</trkpt>
<trkpt lat="48.8638149574399" lon="9.817087920382619">
<ele>470.6</ele>
<time>2023-05-16T09:24:47Z</time>
</trkpt>
<trkpt lat="48.86384295299649" lon="9.81704793870449">
<ele>470.79999999999995</ele>
<time>2023-05-16T09:24:48Z</time>
</trkpt>
<trkpt lat="48.863871954381466" lon="9.817001922056079">
<ele>470.79999999999995</ele>
<time>2023-05-16T09:24:49Z</time>
</trkpt>
<trkpt lat="48.8639079965651" lon="9.816949954256415">
<ele>471</ele>
<time>2023-05-16T09:24:50Z</time>
</trkpt>
<trkpt lat="48.86394697241485" lon="9.816899998113513">
<ele>471.20000000000005</ele>
<time>2023-05-16T09:24:51Z</time>
</trkpt>
<trkpt lat="48.86398795992136" lon="9.816856998950243">
<ele>471.20000000000005</ele>
<time>2023-05-16T09:24:52Z</time>
</trkpt>
<trkpt lat="48.86403297074139" lon="9.81680997647345">
<ele>471.4</ele>
<time>2023-05-16T09:24:53Z</time>
</trkpt>
<trkpt lat="48.86407798156142" lon="9.816772928461432">
<ele>471.6</ele>
<time>2023-05-16T09:24:54Z</time>
</trkpt>
<trkpt lat="48.86412492021918" lon="9.816734958440065">
<ele>471.6</ele>
<time>2023-05-16T09:24:55Z</time>
</trkpt>
<trkpt lat="48.86417496018112" lon="9.816696988418698">
<ele>471.6</ele>
<time>2023-05-16T09:24:56Z</time>
</trkpt>
<trkpt lat="48.86422298848629" lon="9.816666981205344">
<ele>471.6</ele>
<time>2023-05-16T09:24:57Z</time>
</trkpt>
<trkpt lat="48.86426992714405" lon="9.816639991477132">
<ele>471.6</ele>
<time>2023-05-16T09:24:58Z</time>
</trkpt>
<trkpt lat="48.86431795544922" lon="9.816614929586649">
<ele>471.79999999999995</ele>
<time>2023-05-16T09:24:59Z</time>
</trkpt>
<trkpt lat="48.86436698958278" lon="9.816596992313862">
<ele>471.79999999999995</ele>
<time>2023-05-16T09:25:00Z</time>
</trkpt>
<trkpt lat="48.86441493406892" lon="9.816581988707185">
<ele>471.79999999999995</ele>
<time>2023-05-16T09:25:01Z</time>
</trkpt>
<trkpt lat="48.86445994488895" lon="9.816569918766618">
<ele>471.79999999999995</ele>
<time>2023-05-16T09:25:02Z</time>
</trkpt>
<trkpt lat="48.86450696736574" lon="9.816564973443747">
<ele>472</ele>
<time>2023-05-16T09:25:03Z</time>
</trkpt>
<trkpt lat="48.86454795487225" lon="9.816561955958605">
<ele>472</ele>
<time>2023-05-16T09:25:04Z</time>
</trkpt>
<trkpt lat="48.86458994820714" lon="9.816562961786985">
<ele>472</ele>
<time>2023-05-16T09:25:05Z</time>
</trkpt>
<trkpt lat="48.86462992988527" lon="9.816569918766618">
<ele>472.20000000000005</ele>
<time>2023-05-16T09:25:06Z</time>
</trkpt>
<trkpt lat="48.86467192322016" lon="9.816576959565282">
<ele>472.4</ele>
<time>2023-05-16T09:25:07Z</time>
</trkpt>
<trkpt lat="48.8647129945457" lon="9.816584922373295">
<ele>472.4</ele>
<time>2023-05-16T09:25:08Z</time>
</trkpt>
<trkpt lat="48.864752976223826" lon="9.816596992313862">
<ele>472.6</ele>
<time>2023-05-16T09:25:09Z</time>
</trkpt>
<trkpt lat="48.864791952073574" lon="9.816607972607017">
<ele>472.79999999999995</ele>
<time>2023-05-16T09:25:10Z</time>
</trkpt>
<trkpt lat="48.86482992209494" lon="9.81661794707179">
<ele>473</ele>
<time>2023-05-16T09:25:11Z</time>
</trkpt>
<trkpt lat="48.8648649584502" lon="9.816627921536565">
<ele>473.20000000000005</ele>
<time>2023-05-16T09:25:12Z</time>
</trkpt>
<trkpt lat="48.864901922643185" lon="9.816639991477132">
<ele>473.6</ele>
<time>2023-05-16T09:25:13Z</time>
</trkpt>
<trkpt lat="48.86493494734168" lon="9.816651977598667">
<ele>473.6</ele>
<time>2023-05-16T09:25:14Z</time>
</trkpt>
<trkpt lat="48.864966966211796" lon="9.816661952063441">
<ele>473.79999999999995</ele>
<time>2023-05-16T09:25:15Z</time>
</trkpt>
<trkpt lat="48.86499697342515" lon="9.816671926528215">
<ele>474</ele>
<time>2023-05-16T09:25:16Z</time>
</trkpt>
<trkpt lat="48.865026980638504" lon="9.816684918478131">
<ele>474.20000000000005</ele>
<time>2023-05-16T09:25:17Z</time>
</trkpt>
<trkpt lat="48.86505799368024" lon="9.816696988418698">
<ele>474.4</ele>
<time>2023-05-16T09:25:18Z</time>
</trkpt>
<trkpt lat="48.865094957873225" lon="9.816707968711853">
<ele>474.4</ele>
<time>2023-05-16T09:25:19Z</time>
</trkpt>
<trkpt lat="48.86512798257172" lon="9.81672196649015">
<ele>474.6</ele>
<time>2023-05-16T09:25:20Z</time>
</trkpt>
<trkpt lat="48.865159917622805" lon="9.816734958440065">
<ele>474.79999999999995</ele>
<time>2023-05-16T09:25:21Z</time>
</trkpt>
<trkpt lat="48.86518799699843" lon="9.81674493290484">
<ele>475</ele>
<time>2023-05-16T09:25:22Z</time>
</trkpt>
<trkpt lat="48.8652169983834" lon="9.816754991188645">
<ele>475</ele>
<time>2023-05-16T09:25:23Z</time>
</trkpt>
<trkpt lat="48.865246921777725" lon="9.81676496565342">
<ele>475.20000000000005</ele>
<time>2023-05-16T09:25:24Z</time>
</trkpt>
<trkpt lat="48.86527692899108" lon="9.816774940118194">
<ele>475.4</ele>
<time>2023-05-16T09:25:25Z</time>
</trkpt>
<trkpt lat="48.865307942032814" lon="9.816784998402">
<ele>475.6</ele>
<time>2023-05-16T09:25:26Z</time>
</trkpt>
<trkpt lat="48.86534197255969" lon="9.816796984523535">
<ele>475.79999999999995</ele>
<time>2023-05-16T09:25:27Z</time>
</trkpt>
<trkpt lat="48.865376925095916" lon="9.816804947331548">
<ele>475.79999999999995</ele>
<time>2023-05-16T09:25:28Z</time>
</trkpt>
<trkpt lat="48.86540994979441" lon="9.816814921796322">
<ele>476</ele>
<time>2023-05-16T09:25:29Z</time>
</trkpt>
<trkpt lat="48.86544297449291" lon="9.816822968423367">
<ele>476.20000000000005</ele>
<time>2023-05-16T09:25:30Z</time>
</trkpt>
<trkpt lat="48.86547499336302" lon="9.81683294288814">
<ele>476.20000000000005</ele>
<time>2023-05-16T09:25:31Z</time>
</trkpt>
<trkpt lat="48.865506928414106" lon="9.816844929009676">
<ele>476.4</ele>
<time>2023-05-16T09:25:32Z</time>
</trkpt>
<trkpt lat="48.86553794145584" lon="9.816856998950243">
<ele>476.6</ele>
<time>2023-05-16T09:25:33Z</time>
</trkpt>
<trkpt lat="48.8655729778111" lon="9.816866973415017">
<ele>476.79999999999995</ele>
<time>2023-05-16T09:25:34Z</time>
</trkpt>
<trkpt lat="48.865609942004085" lon="9.816876947879791">
<ele>476.79999999999995</ele>
<time>2023-05-16T09:25:35Z</time>
</trkpt>
<trkpt lat="48.86564296670258" lon="9.816884994506836">
<ele>477</ele>
<time>2023-05-16T09:25:36Z</time>
</trkpt>
<trkpt lat="48.86567699722946" lon="9.816896980628371">
<ele>477</ele>
<time>2023-05-16T09:25:37Z</time>
</trkpt>
<trkpt lat="48.86570792645216" lon="9.816907960921526">
<ele>477.20000000000005</ele>
<time>2023-05-16T09:25:38Z</time>
</trkpt>
<trkpt lat="48.865737933665514" lon="9.816919947043061">
<ele>477.4</ele>
<time>2023-05-16T09:25:39Z</time>
</trkpt>
<trkpt lat="48.86576995253563" lon="9.816929921507835">
<ele>477.6</ele>
<time>2023-05-16T09:25:40Z</time>
</trkpt>
<trkpt lat="48.86579995974898" lon="9.816939979791641">
<ele>477.6</ele>
<time>2023-05-16T09:25:41Z</time>
</trkpt>
<trkpt lat="48.8658319786191" lon="9.816951965913177">
<ele>477.79999999999995</ele>
<time>2023-05-16T09:25:42Z</time>
</trkpt>
<trkpt lat="48.86586198583245" lon="9.81696194037795">
<ele>478</ele>
<time>2023-05-16T09:25:43Z</time>
</trkpt>
<trkpt lat="48.86589492671192" lon="9.816976943984628">
<ele>478</ele>
<time>2023-05-16T09:25:44Z</time>
</trkpt>
<trkpt lat="48.86592795141041" lon="9.816987924277782">
<ele>478.20000000000005</ele>
<time>2023-05-16T09:25:45Z</time>
</trkpt>
<trkpt lat="48.86595997028053" lon="9.816997982561588">
<ele>478.4</ele>
<time>2023-05-16T09:25:46Z</time>
</trkpt>
<trkpt lat="48.86598997749388" lon="9.817009968683124">
<ele>478.4</ele>
<time>2023-05-16T09:25:47Z</time>
</trkpt>
<trkpt lat="48.866021996364" lon="9.817019943147898">
<ele>478.6</ele>
<time>2023-05-16T09:25:48Z</time>
</trkpt>
<trkpt lat="48.8660529255867" lon="9.817029917612672">
<ele>478.79999999999995</ele>
<time>2023-05-16T09:25:49Z</time>
</trkpt>
<trkpt lat="48.866082932800055" lon="9.817041987553239">
<ele>478.79999999999995</ele>
<time>2023-05-16T09:25:50Z</time>
</trkpt>
<trkpt lat="48.86611696332693" lon="9.817054979503155">
<ele>479</ele>
<time>2023-05-16T09:25:51Z</time>
</trkpt>
<trkpt lat="48.86614998802543" lon="9.81706797145307">
<ele>479.20000000000005</ele>
<time>2023-05-16T09:25:52Z</time>
</trkpt>
<trkpt lat="48.86618292890489" lon="9.817081969231367">
<ele>479.4</ele>
<time>2023-05-16T09:25:53Z</time>
</trkpt>
<trkpt lat="48.86621695943177" lon="9.817092949524522">
<ele>479.6</ele>
<time>2023-05-16T09:25:54Z</time>
</trkpt>
<trkpt lat="48.86624998413026" lon="9.817104935646057">
<ele>479.6</ele>
<time>2023-05-16T09:25:55Z</time>
</trkpt>
<trkpt lat="48.86628292500973" lon="9.817121950909495">
<ele>479.79999999999995</ele>
<time>2023-05-16T09:25:56Z</time>
</trkpt>
<trkpt lat="48.86631494387984" lon="9.817134942859411">
<ele>480</ele>
<time>2023-05-16T09:25:57Z</time>
</trkpt>
<trkpt lat="48.86634796857834" lon="9.817149946466088">
<ele>480</ele>
<time>2023-05-16T09:25:58Z</time>
</trkpt>
<trkpt lat="48.866379987448454" lon="9.817166961729527">
<ele>480.20000000000005</ele>
<time>2023-05-16T09:25:59Z</time>
</trkpt>
<trkpt lat="48.86641493998468" lon="9.817182971164584">
<ele>480.20000000000005</ele>
<time>2023-05-16T09:26:00Z</time>
</trkpt>
<trkpt lat="48.866449976339936" lon="9.817199986428022">
<ele>480.4</ele>
<time>2023-05-16T09:26:01Z</time>
</trkpt>
<trkpt lat="48.86648492887616" lon="9.817216917872429">
<ele>480.4</ele>
<time>2023-05-16T09:26:02Z</time>
</trkpt>
<trkpt lat="48.86651996523142" lon="9.817232927307487">
<ele>480.6</ele>
<time>2023-05-16T09:26:03Z</time>
</trkpt>
<trkpt lat="48.866554917767644" lon="9.817251954227686">
<ele>480.79999999999995</ele>
<time>2023-05-16T09:26:04Z</time>
</trkpt>
<trkpt lat="48.86658794246614" lon="9.817269975319505">
<ele>480.79999999999995</ele>
<time>2023-05-16T09:26:05Z</time>
</trkpt>
<trkpt lat="48.866621972993016" lon="9.817287996411324">
<ele>481</ele>
<time>2023-05-16T09:26:06Z</time>
</trkpt>
<trkpt lat="48.86665692552924" lon="9.817302916198969">
<ele>481.20000000000005</ele>
<time>2023-05-16T09:26:07Z</time>
</trkpt>
<trkpt lat="48.86668995022774" lon="9.817321943119168">
<ele>481.4</ele>
<time>2023-05-16T09:26:08Z</time>
</trkpt>
<trkpt lat="48.86671995744109" lon="9.817339964210987">
<ele>481.4</ele>
<time>2023-05-16T09:26:09Z</time>
</trkpt>
<trkpt lat="48.86675197631121" lon="9.817357985302806">
<ele>481.6</ele>
<time>2023-05-16T09:26:10Z</time>
</trkpt>
<trkpt lat="48.86678298935294" lon="9.817377934232354">
<ele>481.79999999999995</ele>
<time>2023-05-16T09:26:11Z</time>
</trkpt>
<trkpt lat="48.866812996566296" lon="9.817401990294456">
<ele>481.79999999999995</ele>
<time>2023-05-16T09:26:12Z</time>
</trkpt>
<trkpt lat="48.86684694327414" lon="9.817424956709146">
<ele>482</ele>
<time>2023-05-16T09:26:13Z</time>
</trkpt>
<trkpt lat="48.866879967972636" lon="9.817444989457726">
<ele>482.20000000000005</ele>
<time>2023-05-16T09:26:14Z</time>
</trkpt>
<trkpt lat="48.86691299267113" lon="9.817462926730514">
<ele>482.20000000000005</ele>
<time>2023-05-16T09:26:15Z</time>
</trkpt>
<trkpt lat="48.866944927722216" lon="9.817481953650713">
<ele>482.4</ele>
<time>2023-05-16T09:26:16Z</time>
</trkpt>
<trkpt lat="48.86697694659233" lon="9.817499974742532">
<ele>482.6</ele>
<time>2023-05-16T09:26:17Z</time>
</trkpt>
<trkpt lat="48.867007959634066" lon="9.817521935328841">
<ele>482.6</ele>
<time>2023-05-16T09:26:18Z</time>
</trkpt>
<trkpt lat="48.86703997850418" lon="9.817542973905802">
<ele>482.79999999999995</ele>
<time>2023-05-16T09:26:19Z</time>
</trkpt>
<trkpt lat="48.867071997374296" lon="9.817566946148872">
<ele>483</ele>
<time>2023-05-16T09:26:20Z</time>
</trkpt>
<trkpt lat="48.86710493825376" lon="9.817591924220324">
<ele>483</ele>
<time>2023-05-16T09:26:21Z</time>
</trkpt>
<trkpt lat="48.86714198626578" lon="9.817614974454045">
<ele>483.20000000000005</ele>
<time>2023-05-16T09:26:22Z</time>
</trkpt>
<trkpt lat="48.867176938802004" lon="9.817636935040355">
<ele>483.4</ele>
<time>2023-05-16T09:26:23Z</time>
</trkpt>
<trkpt lat="48.86721298098564" lon="9.817656967788935">
<ele>483.4</ele>
<time>2023-05-16T09:26:24Z</time>
</trkpt>
<trkpt lat="48.86724793352187" lon="9.817674988880754">
<ele>483.6</ele>
<time>2023-05-16T09:26:25Z</time>
</trkpt>
<trkpt lat="48.867282969877124" lon="9.81769292615354">
<ele>483.6</ele>
<time>2023-05-16T09:26:26Z</time>
</trkpt>
<trkpt lat="48.86731691658497" lon="9.81771195307374">
<ele>483.79999999999995</ele>
<time>2023-05-16T09:26:27Z</time>
</trkpt>
<trkpt lat="48.867352958768606" lon="9.81773491948843">
<ele>483.79999999999995</ele>
<time>2023-05-16T09:26:28Z</time>
</trkpt>
<trkpt lat="48.867391934618354" lon="9.817757969722152">
<ele>483.79999999999995</ele>
<time>2023-05-16T09:26:29Z</time>
</trkpt>
<trkpt lat="48.86742797680199" lon="9.817781941965222">
<ele>484</ele>
<time>2023-05-16T09:26:30Z</time>
</trkpt>
<trkpt lat="48.86746292933822" lon="9.817804992198944">
<ele>484</ele>
<time>2023-05-16T09:26:31Z</time>
</trkpt>
<trkpt lat="48.867501989006996" lon="9.817824941128492">
<ele>484.20000000000005</ele>
<time>2023-05-16T09:26:32Z</time>
</trkpt>
<trkpt lat="48.86753694154322" lon="9.817846985533834">
<ele>484.20000000000005</ele>
<time>2023-05-16T09:26:33Z</time>
</trkpt>
<trkpt lat="48.86757197789848" lon="9.817867940291762">
<ele>484.4</ele>
<time>2023-05-16T09:26:34Z</time>
</trkpt>
<trkpt lat="48.867606930434704" lon="9.817889984697104">
<ele>484.6</ele>
<time>2023-05-16T09:26:35Z</time>
</trkpt>
<trkpt lat="48.86764196678996" lon="9.817909933626652">
<ele>484.6</ele>
<time>2023-05-16T09:26:36Z</time>
</trkpt>
<trkpt lat="48.867676919326186" lon="9.817932983860373">
<ele>484.79999999999995</ele>
<time>2023-05-16T09:26:37Z</time>
</trkpt>
<trkpt lat="48.86771195568144" lon="9.817954944446683">
<ele>485</ele>
<time>2023-05-16T09:26:38Z</time>
</trkpt>
<trkpt lat="48.86774799786508" lon="9.817979922518134">
<ele>485</ele>
<time>2023-05-16T09:26:39Z</time>
</trkpt>
<trkpt lat="48.86778496205807" lon="9.818002972751856">
<ele>485.20000000000005</ele>
<time>2023-05-16T09:26:40Z</time>
</trkpt>
<trkpt lat="48.867821926251054" lon="9.818024933338165">
<ele>485.4</ele>
<time>2023-05-16T09:26:41Z</time>
</trkpt>
<trkpt lat="48.86785796843469" lon="9.818047983571887">
<ele>485.6</ele>
<time>2023-05-16T09:26:42Z</time>
</trkpt>
<trkpt lat="48.86789292097092" lon="9.818069944158196">
<ele>485.6</ele>
<time>2023-05-16T09:26:43Z</time>
</trkpt>
<trkpt lat="48.867927957326174" lon="9.818092994391918">
<ele>485.79999999999995</ele>
<time>2023-05-16T09:26:44Z</time>
</trkpt>
<trkpt lat="48.86796492151916" lon="9.818112943321466">
<ele>486</ele>
<time>2023-05-16T09:26:45Z</time>
</trkpt>
<trkpt lat="48.86799995787442" lon="9.818132976070046">
<ele>486</ele>
<time>2023-05-16T09:26:46Z</time>
</trkpt>
<trkpt lat="48.868034994229674" lon="9.818152924999595">
<ele>486.20000000000005</ele>
<time>2023-05-16T09:26:47Z</time>
</trkpt>
<trkpt lat="48.8680699467659" lon="9.818174969404936">
<ele>486.4</ele>
<time>2023-05-16T09:26:48Z</time>
</trkpt>
<trkpt lat="48.86810498312116" lon="9.818194918334484">
<ele>486.4</ele>
<time>2023-05-16T09:26:49Z</time>
</trkpt>
<trkpt lat="48.86813993565738" lon="9.818214951083064">
<ele>486.6</ele>
<time>2023-05-16T09:26:50Z</time>
</trkpt>
<trkpt lat="48.86817497201264" lon="9.818236995488405">
<ele>486.6</ele>
<time>2023-05-16T09:26:51Z</time>
</trkpt>
<trkpt lat="48.868211936205626" lon="9.818259961903095">
<ele>486.79999999999995</ele>
<time>2023-05-16T09:26:52Z</time>
</trkpt>
<trkpt lat="48.86824697256088" lon="9.818282928317785">
<ele>486.79999999999995</ele>
<time>2023-05-16T09:26:53Z</time>
</trkpt>
<trkpt lat="48.86828293092549" lon="9.818306984379888">
<ele>487</ele>
<time>2023-05-16T09:26:54Z</time>
</trkpt>
<trkpt lat="48.86831997893751" lon="9.818326933309436">
<ele>487</ele>
<time>2023-05-16T09:26:55Z</time>
</trkpt>
<trkpt lat="48.86835694313049" lon="9.818346966058016">
<ele>487.20000000000005</ele>
<time>2023-05-16T09:26:56Z</time>
</trkpt>
<trkpt lat="48.86839499697089" lon="9.818364987149835">
<ele>487.20000000000005</ele>
<time>2023-05-16T09:26:57Z</time>
</trkpt>
<trkpt lat="48.86843196116388" lon="9.818386947736144">
<ele>487.4</ele>
<time>2023-05-16T09:26:58Z</time>
</trkpt>
<trkpt lat="48.868466997519135" lon="9.818407986313105">
<ele>487.4</ele>
<time>2023-05-16T09:26:59Z</time>
</trkpt>
<trkpt lat="48.86850195005536" lon="9.818431958556175">
<ele>487.6</ele>
<time>2023-05-16T09:27:00Z</time>
</trkpt>
<trkpt lat="48.86853698641062" lon="9.818452997133136">
<ele>487.6</ele>
<time>2023-05-16T09:27:01Z</time>
</trkpt>
<trkpt lat="48.868572944775224" lon="9.818474957719445">
<ele>487.79999999999995</ele>
<time>2023-05-16T09:27:02Z</time>
</trkpt>
<trkpt lat="48.86860999278724" lon="9.818492978811264">
<ele>487.79999999999995</ele>
<time>2023-05-16T09:27:03Z</time>
</trkpt>
<trkpt lat="48.86864695698023" lon="9.818512927740812">
<ele>488</ele>
<time>2023-05-16T09:27:04Z</time>
</trkpt>
<trkpt lat="48.868684927001595" lon="9.81852994300425">
<ele>488.20000000000005</ele>
<time>2023-05-16T09:27:05Z</time>
</trkpt>
<trkpt lat="48.868722980841994" lon="9.81854796409607">
<ele>488.20000000000005</ele>
<time>2023-05-16T09:27:06Z</time>
</trkpt>
<trkpt lat="48.86876296252012" lon="9.818564979359508">
<ele>488.4</ele>
<time>2023-05-16T09:27:07Z</time>
</trkpt>
<trkpt lat="48.86880193836987" lon="9.818579982966185">
<ele>488.4</ele>
<time>2023-05-16T09:27:08Z</time>
</trkpt>
<trkpt lat="48.868841920048" lon="9.8185929749161">
<ele>488.6</ele>
<time>2023-05-16T09:27:09Z</time>
</trkpt>
<trkpt lat="48.8688799738884" lon="9.818604961037636">
<ele>488.6</ele>
<time>2023-05-16T09:27:10Z</time>
</trkpt>
<trkpt lat="48.868917943909764" lon="9.81861493550241">
<ele>488.79999999999995</ele>
<time>2023-05-16T09:27:11Z</time>
</trkpt>
<trkpt lat="48.86895691975951" lon="9.818624993786216">
<ele>488.79999999999995</ele>
<time>2023-05-16T09:27:12Z</time>
</trkpt>
<trkpt lat="48.86899497359991" lon="9.818632956594229">
<ele>489</ele>
<time>2023-05-16T09:27:13Z</time>
</trkpt>
<trkpt lat="48.86903294362128" lon="9.818637985736132">
<ele>489</ele>
<time>2023-05-16T09:27:14Z</time>
</trkpt>
<trkpt lat="48.869071919471025" lon="9.818642931059003">
<ele>489</ele>
<time>2023-05-16T09:27:15Z</time>
</trkpt>
<trkpt lat="48.869109973311424" lon="9.818646954372525">
<ele>489.20000000000005</ele>
<time>2023-05-16T09:27:16Z</time>
</trkpt>
<trkpt lat="48.869151966646314" lon="9.818647960200906">
<ele>489.20000000000005</ele>
<time>2023-05-16T09:27:17Z</time>
</trkpt>
<trkpt lat="48.86918993666768" lon="9.818647960200906">
<ele>489.4</ele>
<time>2023-05-16T09:27:18Z</time>
</trkpt>
<trkpt lat="48.86922991834581" lon="9.818646954372525">
<ele>489.6</ele>
<time>2023-05-16T09:27:19Z</time>
</trkpt>
<trkpt lat="48.86926797218621" lon="9.818642931059003">
<ele>489.6</ele>
<time>2023-05-16T09:27:20Z</time>
</trkpt>
<trkpt lat="48.869306948035955" lon="9.818637985736132">
<ele>489.79999999999995</ele>
<time>2023-05-16T09:27:21Z</time>
</trkpt>
<trkpt lat="48.86933796107769" lon="9.818629939109087">
<ele>489.79999999999995</ele>
<time>2023-05-16T09:27:22Z</time>
</trkpt>
<trkpt lat="48.86937299743295" lon="9.818622982129455">
<ele>489.79999999999995</ele>
<time>2023-05-16T09:27:23Z</time>
</trkpt>
<trkpt lat="48.86941499076784" lon="9.818612923845649">
<ele>489.79999999999995</ele>
<time>2023-05-16T09:27:24Z</time>
</trkpt>
<trkpt lat="48.86945798993111" lon="9.818602949380875">
<ele>489.79999999999995</ele>
<time>2023-05-16T09:27:25Z</time>
</trkpt>
<trkpt lat="48.86950199492276" lon="9.8185929749161">
<ele>489.79999999999995</ele>
<time>2023-05-16T09:27:26Z</time>
</trkpt>
<trkpt lat="48.86954692192376" lon="9.818579982966185">
<ele>489.79999999999995</ele>
<time>2023-05-16T09:27:27Z</time>
</trkpt>
<trkpt lat="48.86959193274379" lon="9.818566991016269">
<ele>490</ele>
<time>2023-05-16T09:27:28Z</time>
</trkpt>
<trkpt lat="48.86963493190706" lon="9.81854997575283">
<ele>490</ele>
<time>2023-05-16T09:27:29Z</time>
</trkpt>
<trkpt lat="48.86967994272709" lon="9.818534972146153">
<ele>490</ele>
<time>2023-05-16T09:27:30Z</time>
</trkpt>
<trkpt lat="48.86972294189036" lon="9.818522986024618">
<ele>490</ele>
<time>2023-05-16T09:27:31Z</time>
</trkpt>
<trkpt lat="48.86976493522525" lon="9.818509994074702">
<ele>490</ele>
<time>2023-05-16T09:27:32Z</time>
</trkpt>
<trkpt lat="48.86980994604528" lon="9.818496918305755">
<ele>490</ele>
<time>2023-05-16T09:27:33Z</time>
</trkpt>
<trkpt lat="48.86985294520855" lon="9.81848199851811">
<ele>490</ele>
<time>2023-05-16T09:27:34Z</time>
</trkpt>
<trkpt lat="48.8698969502002" lon="9.818466994911432">
<ele>490</ele>
<time>2023-05-16T09:27:35Z</time>
</trkpt>
<trkpt lat="48.86993994936347" lon="9.818451991304755">
<ele>490</ele>
<time>2023-05-16T09:27:36Z</time>
</trkpt>
<trkpt lat="48.86998194269836" lon="9.818437993526459">
<ele>490</ele>
<time>2023-05-16T09:27:37Z</time>
</trkpt>
<trkpt lat="48.87002494186163" lon="9.818424917757511">
<ele>490</ele>
<time>2023-05-16T09:27:38Z</time>
</trkpt>
<trkpt lat="48.87006995268166" lon="9.818411925807595">
<ele>490</ele>
<time>2023-05-16T09:27:39Z</time>
</trkpt>
<trkpt lat="48.87011496350169" lon="9.818397928029299">
<ele>490</ele>
<time>2023-05-16T09:27:40Z</time>
</trkpt>
<trkpt lat="48.870162991806865" lon="9.818384936079383">
<ele>490</ele>
<time>2023-05-16T09:27:41Z</time>
</trkpt>
<trkpt lat="48.870209930464625" lon="9.818369932472706">
<ele>490</ele>
<time>2023-05-16T09:27:42Z</time>
</trkpt>
<trkpt lat="48.87025695294142" lon="9.818351995199919">
<ele>490</ele>
<time>2023-05-16T09:27:43Z</time>
</trkpt>
<trkpt lat="48.87030498124659" lon="9.81833497993648">
<ele>490</ele>
<time>2023-05-16T09:27:44Z</time>
</trkpt>
<trkpt lat="48.870356949046254" lon="9.818316958844662">
<ele>490</ele>
<time>2023-05-16T09:27:45Z</time>
</trkpt>
<trkpt lat="48.87040799483657" lon="9.818299943581223">
<ele>490</ele>
<time>2023-05-16T09:27:46Z</time>
</trkpt>
<trkpt lat="48.87045996263623" lon="9.818282928317785">
<ele>489.79999999999995</ele>
<time>2023-05-16T09:27:47Z</time>
</trkpt>
<trkpt lat="48.87051293626428" lon="9.818264991044998">
<ele>489.79999999999995</ele>
<time>2023-05-16T09:27:48Z</time>
</trkpt>
<trkpt lat="48.87056792154908" lon="9.818244958296418">
<ele>489.79999999999995</ele>
<time>2023-05-16T09:27:49Z</time>
</trkpt>
<trkpt lat="48.87062198482454" lon="9.818224925547838">
<ele>489.79999999999995</ele>
<time>2023-05-16T09:27:50Z</time>
</trkpt>
<trkpt lat="48.87067697010934" lon="9.818209921941161">
<ele>489.6</ele>
<time>2023-05-16T09:27:51Z</time>
</trkpt>
<trkpt lat="48.87073195539415" lon="9.818189973011613">
<ele>489.6</ele>
<time>2023-05-16T09:27:52Z</time>
</trkpt>
<trkpt lat="48.870786940678954" lon="9.818174969404936">
<ele>489.6</ele>
<time>2023-05-16T09:27:53Z</time>
</trkpt>
<trkpt lat="48.87084293179214" lon="9.818156948313117">
<ele>489.4</ele>
<time>2023-05-16T09:27:54Z</time>
</trkpt>
<trkpt lat="48.870897917076945" lon="9.818137921392918">
<ele>489.4</ele>
<time>2023-05-16T09:27:55Z</time>
</trkpt>
<trkpt lat="48.87095499783754" lon="9.81811998412013">
<ele>489.20000000000005</ele>
<time>2023-05-16T09:27:56Z</time>
</trkpt>
<trkpt lat="48.87101199477911" lon="9.818101963028312">
<ele>489.20000000000005</ele>
<time>2023-05-16T09:27:57Z</time>
</trkpt>
<trkpt lat="48.871066980063915" lon="9.818081930279732">
<ele>489</ele>
<time>2023-05-16T09:27:58Z</time>
</trkpt>
<trkpt lat="48.87112196534872" lon="9.818064998835325">
<ele>489</ele>
<time>2023-05-16T09:27:59Z</time>
</trkpt>
<trkpt lat="48.871177956461906" lon="9.818047983571887">
<ele>488.79999999999995</ele>
<time>2023-05-16T09:28:00Z</time>
</trkpt>
<trkpt lat="48.87123294174671" lon="9.81803297996521">
<ele>488.79999999999995</ele>
<time>2023-05-16T09:28:01Z</time>
</trkpt>
<trkpt lat="48.871286921203136" lon="9.818014958873391">
<ele>488.79999999999995</ele>
<time>2023-05-16T09:28:02Z</time>
</trkpt>
<trkpt lat="48.87133997865021" lon="9.817994926124811">
<ele>488.6</ele>
<time>2023-05-16T09:28:03Z</time>
</trkpt>
<trkpt lat="48.87139496393502" lon="9.817979922518134">
<ele>488.6</ele>
<time>2023-05-16T09:28:04Z</time>
</trkpt>
<trkpt lat="48.871451960876584" lon="9.817964918911457">
<ele>488.4</ele>
<time>2023-05-16T09:28:05Z</time>
</trkpt>
<trkpt lat="48.87150694616139" lon="9.81794798746705">
<ele>488.4</ele>
<time>2023-05-16T09:28:06Z</time>
</trkpt>
<trkpt lat="48.871562937274575" lon="9.817929966375232">
<ele>488.20000000000005</ele>
<time>2023-05-16T09:28:07Z</time>
</trkpt>
<trkpt lat="48.8716219458729" lon="9.817909933626652">
<ele>488.20000000000005</ele>
<time>2023-05-16T09:28:08Z</time>
</trkpt>
<trkpt lat="48.87167693115771" lon="9.817889984697104">
<ele>488</ele>
<time>2023-05-16T09:28:09Z</time>
</trkpt>
<trkpt lat="48.871734933927655" lon="9.817872969433665">
<ele>488</ele>
<time>2023-05-16T09:28:10Z</time>
</trkpt>
<trkpt lat="48.87178991921246" lon="9.817854948341846">
<ele>487.79999999999995</ele>
<time>2023-05-16T09:28:11Z</time>
</trkpt>
<trkpt lat="48.87184699997306" lon="9.81784195639193">
<ele>487.79999999999995</ele>
<time>2023-05-16T09:28:12Z</time>
</trkpt>
<trkpt lat="48.8718999736011" lon="9.817826952785254">
<ele>487.6</ele>
<time>2023-05-16T09:28:13Z</time>
</trkpt>
<trkpt lat="48.871951941400766" lon="9.817811949178576">
<ele>487.6</ele>
<time>2023-05-16T09:28:14Z</time>
</trkpt>
<trkpt lat="48.87200298719108" lon="9.817791916429996">
<ele>487.6</ele>
<time>2023-05-16T09:28:15Z</time>
</trkpt>
<trkpt lat="48.872054954990745" lon="9.817772973328829">
<ele>487.6</ele>
<time>2023-05-16T09:28:16Z</time>
</trkpt>
<trkpt lat="48.87210692279041" lon="9.817756963893771">
<ele>487.4</ele>
<time>2023-05-16T09:28:17Z</time>
</trkpt>
<trkpt lat="48.87215696275234" lon="9.817739948630333">
<ele>487.4</ele>
<time>2023-05-16T09:28:18Z</time>
</trkpt>
<trkpt lat="48.872207924723625" lon="9.817724945023656">
<ele>487.4</ele>
<time>2023-05-16T09:28:19Z</time>
</trkpt>
<trkpt lat="48.87225997634232" lon="9.81771295890212">
<ele>487.4</ele>
<time>2023-05-16T09:28:20Z</time>
</trkpt>
<trkpt lat="48.872311944141984" lon="9.817701978608966">
<ele>487.20000000000005</ele>
<time>2023-05-16T09:28:21Z</time>
</trkpt>
<trkpt lat="48.87236692942679" lon="9.81768798083067">
<ele>487.20000000000005</ele>
<time>2023-05-16T09:28:22Z</time>
</trkpt>
<trkpt lat="48.872421998530626" lon="9.817674988880754">
<ele>487</ele>
<time>2023-05-16T09:28:23Z</time>
</trkpt>
<trkpt lat="48.87247698381543" lon="9.817664930596948">
<ele>487</ele>
<time>2023-05-16T09:28:24Z</time>
</trkpt>
<trkpt lat="48.87253297492862" lon="9.817654956132174">
<ele>486.79999999999995</ele>
<time>2023-05-16T09:28:25Z</time>
</trkpt>
<trkpt lat="48.87258695438504" lon="9.817647999152541">
<ele>486.79999999999995</ele>
<time>2023-05-16T09:28:26Z</time>
</trkpt>
<trkpt lat="48.87264193966985" lon="9.8176449816674">
<ele>486.6</ele>
<time>2023-05-16T09:28:27Z</time>
</trkpt>
<trkpt lat="48.87269692495465" lon="9.817641964182258">
<ele>486.6</ele>
<time>2023-05-16T09:28:28Z</time>
</trkpt>
<trkpt lat="48.87274797074497" lon="9.817637940868735">
<ele>486.4</ele>
<time>2023-05-16T09:28:29Z</time>
</trkpt>
<trkpt lat="48.87280295602977" lon="9.817631989717484">
<ele>486.4</ele>
<time>2023-05-16T09:28:30Z</time>
</trkpt>
<trkpt lat="48.87285794131458" lon="9.81762494891882">
<ele>486.4</ele>
<time>2023-05-16T09:28:31Z</time>
</trkpt>
<trkpt lat="48.87290999293327" lon="9.817616986110806">
<ele>486.4</ele>
<time>2023-05-16T09:28:32Z</time>
</trkpt>
<trkpt lat="48.87296497821808" lon="9.817609945312142">
<ele>486.4</ele>
<time>2023-05-16T09:28:33Z</time>
</trkpt>
<trkpt lat="48.87301694601774" lon="9.817604999989271">
<ele>486.20000000000005</ele>
<time>2023-05-16T09:28:34Z</time>
</trkpt>
<trkpt lat="48.873069919645786" lon="9.817599970847368">
<ele>486.20000000000005</ele>
<time>2023-05-16T09:28:35Z</time>
</trkpt>
<trkpt lat="48.87312197126448" lon="9.817596953362226">
<ele>486</ele>
<time>2023-05-16T09:28:36Z</time>
</trkpt>
<trkpt lat="48.873172933235765" lon="9.817594941705465">
<ele>486</ele>
<time>2023-05-16T09:28:37Z</time>
</trkpt>
<trkpt lat="48.87322498485446" lon="9.817591924220324">
<ele>485.79999999999995</ele>
<time>2023-05-16T09:28:38Z</time>
</trkpt>
<trkpt lat="48.87327494099736" lon="9.817587984725833">
<ele>485.79999999999995</ele>
<time>2023-05-16T09:28:39Z</time>
</trkpt>
<trkpt lat="48.873321963474154" lon="9.817584967240691">
<ele>485.6</ele>
<time>2023-05-16T09:28:40Z</time>
</trkpt>
<trkpt lat="48.873367980122566" lon="9.817586978897452">
<ele>485.6</ele>
<time>2023-05-16T09:28:41Z</time>
</trkpt>
<trkpt lat="48.8734129909426" lon="9.817587984725833">
<ele>485.6</ele>
<time>2023-05-16T09:28:42Z</time>
</trkpt>
<trkpt lat="48.8734579179436" lon="9.817586978897452">
<ele>485.6</ele>
<time>2023-05-16T09:28:43Z</time>
</trkpt>
<trkpt lat="48.87350192293525" lon="9.817584967240691">
<ele>485.79999999999995</ele>
<time>2023-05-16T09:28:44Z</time>
</trkpt>
<trkpt lat="48.87354492209852" lon="9.81758194975555">
<ele>485.79999999999995</ele>
<time>2023-05-16T09:28:45Z</time>
</trkpt>
<trkpt lat="48.87358792126179" lon="9.817579938098788">
<ele>485.79999999999995</ele>
<time>2023-05-16T09:28:46Z</time>
</trkpt>
<trkpt lat="48.87363192625344" lon="9.817576920613647">
<ele>485.79999999999995</ele>
<time>2023-05-16T09:28:47Z</time>
</trkpt>
<trkpt lat="48.87367492541671" lon="9.817574992775917">
<ele>486</ele>
<time>2023-05-16T09:28:48Z</time>
</trkpt>
<trkpt lat="48.8737169187516" lon="9.817574992775917">
<ele>486</ele>
<time>2023-05-16T09:28:49Z</time>
</trkpt>
<trkpt lat="48.87375799007714" lon="9.817574992775917">
<ele>486</ele>
<time>2023-05-16T09:28:50Z</time>
</trkpt>
<trkpt lat="48.87380199506879" lon="9.817576920613647">
<ele>486.20000000000005</ele>
<time>2023-05-16T09:28:51Z</time>
</trkpt>
<trkpt lat="48.87384499423206" lon="9.817576920613647">
<ele>486.20000000000005</ele>
<time>2023-05-16T09:28:52Z</time>
</trkpt>
<trkpt lat="48.87388799339533" lon="9.817576920613647">
<ele>486.4</ele>
<time>2023-05-16T09:28:53Z</time>
</trkpt>
<trkpt lat="48.87392797507346" lon="9.817572981119156">
<ele>486.6</ele>
<time>2023-05-16T09:28:54Z</time>
</trkpt>
<trkpt lat="48.873969968408346" lon="9.817569963634014">
<ele>486.6</ele>
<time>2023-05-16T09:28:55Z</time>
</trkpt>
<trkpt lat="48.874012967571616" lon="9.817567951977253">
<ele>486.79999999999995</ele>
<time>2023-05-16T09:28:56Z</time>
</trkpt>
<trkpt lat="48.87405697256327" lon="9.817567951977253">
<ele>487.20000000000005</ele>
<time>2023-05-16T09:28:57Z</time>
</trkpt>
<trkpt lat="48.874094942584634" lon="9.817571975290775">
<ele>487.4</ele>
<time>2023-05-16T09:28:58Z</time>
</trkpt>
<trkpt lat="48.87413693591952" lon="9.817571975290775">
<ele>487.6</ele>
<time>2023-05-16T09:28:59Z</time>
</trkpt>
<trkpt lat="48.87417792342603" lon="9.817569963634014">
<ele>487.79999999999995</ele>
<time>2023-05-16T09:29:00Z</time>
</trkpt>
<trkpt lat="48.87422192841768" lon="9.817567951977253">
<ele>488</ele>
<time>2023-05-16T09:29:01Z</time>
</trkpt>
<trkpt lat="48.87426299974322" lon="9.817564934492111">
<ele>488.20000000000005</ele>
<time>2023-05-16T09:29:02Z</time>
</trkpt>
<trkpt lat="48.87430298142135" lon="9.81755998916924">
<ele>488.20000000000005</ele>
<time>2023-05-16T09:29:03Z</time>
</trkpt>
<trkpt lat="48.87434296309948" lon="9.817556971684098">
<ele>488.4</ele>
<time>2023-05-16T09:29:04Z</time>
</trkpt>
<trkpt lat="48.87438495643437" lon="9.817556971684098">
<ele>488.6</ele>
<time>2023-05-16T09:29:05Z</time>
</trkpt>
<trkpt lat="48.8744249381125" lon="9.817556971684098">
<ele>488.79999999999995</ele>
<time>2023-05-16T09:29:06Z</time>
</trkpt>
<trkpt lat="48.874464919790626" lon="9.817554960027337">
<ele>489</ele>
<time>2023-05-16T09:29:07Z</time>
</trkpt>
<trkpt lat="48.874504985287786" lon="9.817549930885434">
<ele>489.20000000000005</ele>
<time>2023-05-16T09:29:08Z</time>
</trkpt>
<trkpt lat="48.874544966965914" lon="9.817546997219324">
<ele>489.4</ele>
<time>2023-05-16T09:29:09Z</time>
</trkpt>
<trkpt lat="48.87458494864404" lon="9.817542973905802">
<ele>489.4</ele>
<time>2023-05-16T09:29:10Z</time>
</trkpt>
<trkpt lat="48.87462794780731" lon="9.81753995642066">
<ele>489.6</ele>
<time>2023-05-16T09:29:11Z</time>
</trkpt>
<trkpt lat="48.87466792948544" lon="9.81753995642066">
<ele>489.79999999999995</ele>
<time>2023-05-16T09:29:12Z</time>
</trkpt>
<trkpt lat="48.87470992282033" lon="9.81753995642066">
<ele>490</ele>
<time>2023-05-16T09:29:13Z</time>
</trkpt>
<trkpt lat="48.87474998831749" lon="9.817536938935518">
<ele>490.20000000000005</ele>
<time>2023-05-16T09:29:14Z</time>
</trkpt>
<trkpt lat="48.87478795833886" lon="9.817534927278757">
<ele>490.20000000000005</ele>
<time>2023-05-16T09:29:15Z</time>
</trkpt>
<trkpt lat="48.87482492253184" lon="9.817532999441028">
<ele>490.4</ele>
<time>2023-05-16T09:29:16Z</time>
</trkpt>
<trkpt lat="48.87486297637224" lon="9.817531993612647">
<ele>490.6</ele>
<time>2023-05-16T09:29:17Z</time>
</trkpt>
<trkpt lat="48.87490195222199" lon="9.817529981955886">
<ele>490.79999999999995</ele>
<time>2023-05-16T09:29:18Z</time>
</trkpt>
<trkpt lat="48.87493992224336" lon="9.817529981955886">
<ele>491</ele>
<time>2023-05-16T09:29:19Z</time>
</trkpt>
<trkpt lat="48.87497998774052" lon="9.817529981955886">
<ele>491</ele>
<time>2023-05-16T09:29:20Z</time>
</trkpt>
<trkpt lat="48.875017957761884" lon="9.817529981955886">
<ele>491.20000000000005</ele>
<time>2023-05-16T09:29:21Z</time>
</trkpt>
<trkpt lat="48.87505492195487" lon="9.817529981955886">
<ele>491.4</ele>
<time>2023-05-16T09:29:22Z</time>
</trkpt>
<trkpt lat="48.87509196996689" lon="9.817526964470744">
<ele>491.4</ele>
<time>2023-05-16T09:29:23Z</time>
</trkpt>
<trkpt lat="48.875127928331494" lon="9.817524952813983">
<ele>491.6</ele>
<time>2023-05-16T09:29:24Z</time>
</trkpt>
<trkpt lat="48.87516296468675" lon="9.817524952813983">
<ele>491.79999999999995</ele>
<time>2023-05-16T09:29:25Z</time>
</trkpt>
<trkpt lat="48.87519992887974" lon="9.817524952813983">
<ele>492</ele>
<time>2023-05-16T09:29:26Z</time>
</trkpt>
<trkpt lat="48.87523798272014" lon="9.817524952813983">
<ele>492.20000000000005</ele>
<time>2023-05-16T09:29:27Z</time>
</trkpt>
<trkpt lat="48.875276958569884" lon="9.817522941157222">
<ele>492.4</ele>
<time>2023-05-16T09:29:28Z</time>
</trkpt>
<trkpt lat="48.87531492859125" lon="9.817521935328841">
<ele>492.4</ele>
<time>2023-05-16T09:29:29Z</time>
</trkpt>
<trkpt lat="48.87535692192614" lon="9.81751992367208">
<ele>492.6</ele>
<time>2023-05-16T09:29:30Z</time>
</trkpt>
<trkpt lat="48.87539799325168" lon="9.81751799583435">
<ele>492.79999999999995</ele>
<time>2023-05-16T09:29:31Z</time>
</trkpt>
<trkpt lat="48.87543696910143" lon="9.817512966692448">
<ele>492.79999999999995</ele>
<time>2023-05-16T09:29:32Z</time>
</trkpt>
<trkpt lat="48.875474939122796" lon="9.817511960864067">
<ele>493</ele>
<time>2023-05-16T09:29:33Z</time>
</trkpt>
<trkpt lat="48.875514920800924" lon="9.817511960864067">
<ele>493.20000000000005</ele>
<time>2023-05-16T09:29:34Z</time>
</trkpt>
<trkpt lat="48.87555297464132" lon="9.817511960864067">
<ele>493.4</ele>
<time>2023-05-16T09:29:35Z</time>
</trkpt>
<trkpt lat="48.87558993883431" lon="9.817509949207306">
<ele>493.6</ele>
<time>2023-05-16T09:29:36Z</time>
</trkpt>
<trkpt lat="48.87562799267471" lon="9.817507937550545">
<ele>493.6</ele>
<time>2023-05-16T09:29:37Z</time>
</trkpt>
<trkpt lat="48.87566797435284" lon="9.817507937550545">
<ele>493.79999999999995</ele>
<time>2023-05-16T09:29:38Z</time>
</trkpt>
<trkpt lat="48.875706950202584" lon="9.817506931722164">
<ele>494</ele>
<time>2023-05-16T09:29:39Z</time>
</trkpt>
<trkpt lat="48.87574492022395" lon="9.817506931722164">
<ele>494.20000000000005</ele>
<time>2023-05-16T09:29:40Z</time>
</trkpt>
<trkpt lat="48.87578498572111" lon="9.817499974742532">
<ele>494.4</ele>
<time>2023-05-16T09:29:41Z</time>
</trkpt>
<trkpt lat="48.87582496739924" lon="9.817494945600629">
<ele>494.4</ele>
<time>2023-05-16T09:29:42Z</time>
</trkpt>
<trkpt lat="48.87586494907737" lon="9.817489916458726">
<ele>494.6</ele>
<time>2023-05-16T09:29:43Z</time>
</trkpt>
<trkpt lat="48.875902919098735" lon="9.817487988620996">
<ele>494.79999999999995</ele>
<time>2023-05-16T09:29:44Z</time>
</trkpt>
<trkpt lat="48.875941978767514" lon="9.817486982792616">
<ele>494.79999999999995</ele>
<time>2023-05-16T09:29:45Z</time>
</trkpt>
<trkpt lat="48.87598196044564" lon="9.817482959479094">
<ele>495</ele>
<time>2023-05-16T09:29:46Z</time>
</trkpt>
<trkpt lat="48.87602194212377" lon="9.817481953650713">
<ele>495.20000000000005</ele>
<time>2023-05-16T09:29:47Z</time>
</trkpt>
<trkpt lat="48.87605999596417" lon="9.81747793033719">
<ele>495.20000000000005</ele>
<time>2023-05-16T09:29:48Z</time>
</trkpt>
<trkpt lat="48.87609796598554" lon="9.81747793033719">
<ele>495.4</ele>
<time>2023-05-16T09:29:49Z</time>
</trkpt>
<trkpt lat="48.87613291852176" lon="9.81747692450881">
<ele>495.6</ele>
<time>2023-05-16T09:29:50Z</time>
</trkpt>
<trkpt lat="48.87616694904864" lon="9.81747298501432">
<ele>495.6</ele>
<time>2023-05-16T09:29:51Z</time>
</trkpt>
<trkpt lat="48.876201985403895" lon="9.817469967529178">
<ele>495.79999999999995</ele>
<time>2023-05-16T09:29:52Z</time>
</trkpt>
<trkpt lat="48.87623995542526" lon="9.817462926730514">
<ele>495.79999999999995</ele>
<time>2023-05-16T09:29:53Z</time>
</trkpt>
<trkpt lat="48.87627792544663" lon="9.817457981407642">
<ele>496</ele>
<time>2023-05-16T09:29:54Z</time>
</trkpt>
<trkpt lat="48.87631991878152" lon="9.81745295226574">
<ele>496</ele>
<time>2023-05-16T09:29:55Z</time>
</trkpt>
<trkpt lat="48.87636199593544" lon="9.817446917295456">
<ele>496</ele>
<time>2023-05-16T09:29:56Z</time>
</trkpt>
<trkpt lat="48.87640298344195" lon="9.817439960315824">
<ele>496.20000000000005</ele>
<time>2023-05-16T09:29:57Z</time>
</trkpt>
<trkpt lat="48.87644497677684" lon="9.81743291951716">
<ele>496.20000000000005</ele>
<time>2023-05-16T09:29:58Z</time>
</trkpt>
<trkpt lat="48.87648797594011" lon="9.817424956709146">
<ele>496.20000000000005</ele>
<time>2023-05-16T09:29:59Z</time>
</trkpt>
<trkpt lat="48.87653198093176" lon="9.817416993901134">
<ele>496.20000000000005</ele>
<time>2023-05-16T09:30:00Z</time>
</trkpt>
<trkpt lat="48.87657296843827" lon="9.817407941445708">
<ele>496.20000000000005</ele>
<time>2023-05-16T09:30:01Z</time>
</trkpt>
<trkpt lat="48.876612950116396" lon="9.817397966980934">
<ele>496.4</ele>
<time>2023-05-16T09:30:02Z</time>
</trkpt>
<trkpt lat="48.876651925966144" lon="9.81738799251616">
<ele>496.4</ele>
<time>2023-05-16T09:30:03Z</time>
</trkpt>
<trkpt lat="48.876691991463304" lon="9.817377934232354">
<ele>496.6</ele>
<time>2023-05-16T09:30:04Z</time>
</trkpt>
<trkpt lat="48.87672996148467" lon="9.8173669539392">
<ele>496.6</ele>
<time>2023-05-16T09:30:05Z</time>
</trkpt>
<trkpt lat="48.8767699431628" lon="9.817356979474425">
<ele>496.6</ele>
<time>2023-05-16T09:30:06Z</time>
</trkpt>
<trkpt lat="48.8768079970032" lon="9.81734499335289">
<ele>496.79999999999995</ele>
<time>2023-05-16T09:30:07Z</time>
</trkpt>
<trkpt lat="48.876846972852945" lon="9.817332923412323">
<ele>496.79999999999995</ele>
<time>2023-05-16T09:30:08Z</time>
</trkpt>
<trkpt lat="48.87688494287431" lon="9.817322948947549">
<ele>496.79999999999995</ele>
<time>2023-05-16T09:30:09Z</time>
</trkpt>
<trkpt lat="48.87692299671471" lon="9.817312974482775">
<ele>496.79999999999995</ele>
<time>2023-05-16T09:30:10Z</time>
</trkpt>
<trkpt lat="48.87696297839284" lon="9.817302916198969">
<ele>497</ele>
<time>2023-05-16T09:30:11Z</time>
</trkpt>
<trkpt lat="48.87700296007097" lon="9.817292941734195">
<ele>497</ele>
<time>2023-05-16T09:30:12Z</time>
</trkpt>
<trkpt lat="48.877042941749096" lon="9.81728196144104">
<ele>497</ele>
<time>2023-05-16T09:30:13Z</time>
</trkpt>
<trkpt lat="48.877079989761114" lon="9.817267963662744">
<ele>497</ele>
<time>2023-05-16T09:30:14Z</time>
</trkpt>
<trkpt lat="48.8771169539541" lon="9.81725798919797">
<ele>497</ele>
<time>2023-05-16T09:30:15Z</time>
</trkpt>
<trkpt lat="48.87715299613774" lon="9.817249942570925">
<ele>497</ele>
<time>2023-05-16T09:30:16Z</time>
</trkpt>
<trkpt lat="48.877191971987486" lon="9.81723996810615">
<ele>497</ele>
<time>2023-05-16T09:30:17Z</time>
</trkpt>
<trkpt lat="48.877232959493995" lon="9.817232927307487">
<ele>497</ele>
<time>2023-05-16T09:30:18Z</time>
</trkpt>
<trkpt lat="48.877274952828884" lon="9.817221947014332">
<ele>497.20000000000005</ele>
<time>2023-05-16T09:30:19Z</time>
</trkpt>
<trkpt lat="48.87731292285025" lon="9.817209960892797">
<ele>497.20000000000005</ele>
<time>2023-05-16T09:30:20Z</time>
</trkpt>
<trkpt lat="48.87735198251903" lon="9.81719696894288">
<ele>497.20000000000005</ele>
<time>2023-05-16T09:30:21Z</time>
</trkpt>
<trkpt lat="48.87739297002554" lon="9.817182971164584">
<ele>497.4</ele>
<time>2023-05-16T09:30:22Z</time>
</trkpt>
<trkpt lat="48.87743295170367" lon="9.81717299669981">
<ele>497.4</ele>
<time>2023-05-16T09:30:23Z</time>
</trkpt>
<trkpt lat="48.877472933381796" lon="9.817161932587624">
<ele>497.4</ele>
<time>2023-05-16T09:30:24Z</time>
</trkpt>
<trkpt lat="48.877511993050575" lon="9.817149946466088">
<ele>497.4</ele>
<time>2023-05-16T09:30:25Z</time>
</trkpt>
<trkpt lat="48.87754996307194" lon="9.81713293120265">
<ele>497.4</ele>
<time>2023-05-16T09:30:26Z</time>
</trkpt>
<trkpt lat="48.87758793309331" lon="9.817117927595973">
<ele>497.6</ele>
<time>2023-05-16T09:30:27Z</time>
</trkpt>
<trkpt lat="48.8776299264282" lon="9.817104935646057">
<ele>497.6</ele>
<time>2023-05-16T09:30:28Z</time>
</trkpt>
<trkpt lat="48.8776679802686" lon="9.817091943696141">
<ele>497.6</ele>
<time>2023-05-16T09:30:29Z</time>
</trkpt>
<trkpt lat="48.877704944461584" lon="9.817071994766593">
<ele>497.6</ele>
<time>2023-05-16T09:30:30Z</time>
</trkpt>
<trkpt lat="48.87774299830198" lon="9.817052967846394">
<ele>497.6</ele>
<time>2023-05-16T09:30:31Z</time>
</trkpt>
<trkpt lat="48.87777996249497" lon="9.817031929269433">
<ele>497.6</ele>
<time>2023-05-16T09:30:32Z</time>
</trkpt>
<trkpt lat="48.877814998850226" lon="9.817011980339885">
<ele>497.79999999999995</ele>
<time>2023-05-16T09:30:33Z</time>
</trkpt>
<trkpt lat="48.87784995138645" lon="9.816987924277782">
<ele>497.79999999999995</ele>
<time>2023-05-16T09:30:34Z</time>
</trkpt>
<trkpt lat="48.87788699939847" lon="9.816964957863092">
<ele>498</ele>
<time>2023-05-16T09:30:35Z</time>
</trkpt>
<trkpt lat="48.877922957763076" lon="9.816944925114512">
<ele>498</ele>
<time>2023-05-16T09:30:36Z</time>
</trkpt>
<trkpt lat="48.87795799411833" lon="9.816922964528203">
<ele>498</ele>
<time>2023-05-16T09:30:37Z</time>
</trkpt>
<trkpt lat="48.87799495831132" lon="9.816899998113513">
<ele>498.20000000000005</ele>
<time>2023-05-16T09:30:38Z</time>
</trkpt>
<trkpt lat="48.878031922504306" lon="9.816872924566269">
<ele>498.20000000000005</ele>
<time>2023-05-16T09:30:39Z</time>
</trkpt>
<trkpt lat="48.87806695885956" lon="9.816847946494818">
<ele>498.20000000000005</ele>
<time>2023-05-16T09:30:40Z</time>
</trkpt>
<trkpt lat="48.87810291722417" lon="9.816821962594986">
<ele>498.20000000000005</ele>
<time>2023-05-16T09:30:41Z</time>
</trkpt>
<trkpt lat="48.87813996523619" lon="9.816791955381632">
<ele>498.20000000000005</ele>
<time>2023-05-16T09:30:42Z</time>
</trkpt>
<trkpt lat="48.87817692942917" lon="9.816761948168278">
<ele>498.20000000000005</ele>
<time>2023-05-16T09:30:43Z</time>
</trkpt>
<trkpt lat="48.87821498326957" lon="9.816731940954924">
<ele>498.4</ele>
<time>2023-05-16T09:30:44Z</time>
</trkpt>
<trkpt lat="48.87825194746256" lon="9.81670293956995">
<ele>498.4</ele>
<time>2023-05-16T09:30:45Z</time>
</trkpt>
<trkpt lat="48.878286983817816" lon="9.816672932356596">
<ele>498.4</ele>
<time>2023-05-16T09:30:46Z</time>
</trkpt>
<trkpt lat="48.87832495383918" lon="9.816641919314861">
<ele>498.4</ele>
<time>2023-05-16T09:30:47Z</time>
</trkpt>
<trkpt lat="48.87836493551731" lon="9.816609984263778">
<ele>498.4</ele>
<time>2023-05-16T09:30:48Z</time>
</trkpt>
<trkpt lat="48.87840198352933" lon="9.816579977050424">
<ele>498.6</ele>
<time>2023-05-16T09:30:49Z</time>
</trkpt>
<trkpt lat="48.878437941893935" lon="9.81654996983707">
<ele>498.6</ele>
<time>2023-05-16T09:30:50Z</time>
</trkpt>
<trkpt lat="48.87847197242081" lon="9.816514933481812">
<ele>498.6</ele>
<time>2023-05-16T09:30:51Z</time>
</trkpt>
<trkpt lat="48.87850793078542" lon="9.816482998430729">
<ele>498.6</ele>
<time>2023-05-16T09:30:52Z</time>
</trkpt>
<trkpt lat="48.878542967140675" lon="9.816451985388994">
<ele>498.6</ele>
<time>2023-05-16T09:30:53Z</time>
</trkpt>
<trkpt lat="48.87857993133366" lon="9.81642298400402">
<ele>498.79999999999995</ele>
<time>2023-05-16T09:30:54Z</time>
</trkpt>
<trkpt lat="48.87861697934568" lon="9.816392976790667">
<ele>498.79999999999995</ele>
<time>2023-05-16T09:30:55Z</time>
</trkpt>
<trkpt lat="48.878652937710285" lon="9.816364981234074">
<ele>498.79999999999995</ele>
<time>2023-05-16T09:30:56Z</time>
</trkpt>
<trkpt lat="48.87869291938841" lon="9.81633497402072">
<ele>498.79999999999995</ele>
<time>2023-05-16T09:30:57Z</time>
</trkpt>
<trkpt lat="48.87873197905719" lon="9.816302955150604">
<ele>498.79999999999995</ele>
<time>2023-05-16T09:30:58Z</time>
</trkpt>
<trkpt lat="48.87876994907856" lon="9.81627294793725">
<ele>498.79999999999995</ele>
<time>2023-05-16T09:30:59Z</time>
</trkpt>
<trkpt lat="48.878802973777056" lon="9.816241934895515">
<ele>498.79999999999995</ele>
<time>2023-05-16T09:31:00Z</time>
</trkpt>
<trkpt lat="48.87883993797004" lon="9.816211927682161">
<ele>499</ele>
<time>2023-05-16T09:31:01Z</time>
</trkpt>
<trkpt lat="48.87887698598206" lon="9.816179992631078">
<ele>499</ele>
<time>2023-05-16T09:31:02Z</time>
</trkpt>
<trkpt lat="48.878912944346666" lon="9.816146967932582">
<ele>499</ele>
<time>2023-05-16T09:31:03Z</time>
</trkpt>
<trkpt lat="48.878949992358685" lon="9.816112937405705">
<ele>499</ele>
<time>2023-05-16T09:31:04Z</time>
</trkpt>
<trkpt lat="48.87898997403681" lon="9.816079996526241">
<ele>499</ele>
<time>2023-05-16T09:31:05Z</time>
</trkpt>
<trkpt lat="48.87902794405818" lon="9.816046971827745">
<ele>499.20000000000005</ele>
<time>2023-05-16T09:31:06Z</time>
</trkpt>
<trkpt lat="48.87906691990793" lon="9.816012941300869">
<ele>499.20000000000005</ele>
<time>2023-05-16T09:31:07Z</time>
</trkpt>
<trkpt lat="48.879104973748326" lon="9.815981928259134">
<ele>499.20000000000005</ele>
<time>2023-05-16T09:31:08Z</time>
</trkpt>
<trkpt lat="48.87914193794131" lon="9.81595292687416">
<ele>499.20000000000005</ele>
<time>2023-05-16T09:31:09Z</time>
</trkpt>
<trkpt lat="48.87917798012495" lon="9.815924931317568">
<ele>499.4</ele>
<time>2023-05-16T09:31:10Z</time>
</trkpt>
<trkpt lat="48.87921494431794" lon="9.815892996266484">
<ele>499.4</ele>
<time>2023-05-16T09:31:11Z</time>
</trkpt>
<trkpt lat="48.879251992329955" lon="9.81586298905313">
<ele>499.4</ele>
<time>2023-05-16T09:31:12Z</time>
</trkpt>
<trkpt lat="48.87928996235132" lon="9.815831976011395">
<ele>499.6</ele>
<time>2023-05-16T09:31:13Z</time>
</trkpt>
<trkpt lat="48.87932499870658" lon="9.815802974626422">
<ele>499.6</ele>
<time>2023-05-16T09:31:14Z</time>
</trkpt>
<trkpt lat="48.879362968727946" lon="9.815771961584687">
<ele>499.6</ele>
<time>2023-05-16T09:31:15Z</time>
</trkpt>
<trkpt lat="48.87939993292093" lon="9.815741954371333">
<ele>499.79999999999995</ele>
<time>2023-05-16T09:31:16Z</time>
</trkpt>
<trkpt lat="48.87943798676133" lon="9.81571295298636">
<ele>499.79999999999995</ele>
<time>2023-05-16T09:31:17Z</time>
</trkpt>
<trkpt lat="48.87947293929756" lon="9.815684957429767">
<ele>499.79999999999995</ele>
<time>2023-05-16T09:31:18Z</time>
</trkpt>
<trkpt lat="48.879509987309575" lon="9.815656961873174">
<ele>500</ele>
<time>2023-05-16T09:31:19Z</time>
</trkpt>
<trkpt lat="48.87954695150256" lon="9.8156279604882">
<ele>500</ele>
<time>2023-05-16T09:31:20Z</time>
</trkpt>
<trkpt lat="48.87958198785782" lon="9.815596947446465">
<ele>500</ele>
<time>2023-05-16T09:31:21Z</time>
</trkpt>
<trkpt lat="48.879617946222425" lon="9.815567946061492">
<ele>500.20000000000005</ele>
<time>2023-05-16T09:31:22Z</time>
</trkpt>
<trkpt lat="48.87965499423444" lon="9.815539950504899">
<ele>500.20000000000005</ele>
<time>2023-05-16T09:31:23Z</time>
</trkpt>
<trkpt lat="48.87969195842743" lon="9.815509943291545">
<ele>500.20000000000005</ele>
<time>2023-05-16T09:31:24Z</time>
</trkpt>
<trkpt lat="48.879729928448796" lon="9.815482953563333">
<ele>500.20000000000005</ele>
<time>2023-05-16T09:31:25Z</time>
</trkpt>
<trkpt lat="48.87976496480405" lon="9.8154569696635">
<ele>500.4</ele>
<time>2023-05-16T09:31:26Z</time>
</trkpt>
<trkpt lat="48.87980293482542" lon="9.815426962450147">
<ele>500.4</ele>
<time>2023-05-16T09:31:27Z</time>
</trkpt>
<trkpt lat="48.87983998283744" lon="9.815399972721934">
<ele>500.4</ele>
<time>2023-05-16T09:31:28Z</time>
</trkpt>
<trkpt lat="48.879874935373664" lon="9.815371977165341">
<ele>500.4</ele>
<time>2023-05-16T09:31:29Z</time>
</trkpt>
<trkpt lat="48.87991198338568" lon="9.815339958295226">
<ele>500.6</ele>
<time>2023-05-16T09:31:30Z</time>
</trkpt>
<trkpt lat="48.87994995340705" lon="9.81530693359673">
<ele>500.79999999999995</ele>
<time>2023-05-16T09:31:31Z</time>
</trkpt>
<trkpt lat="48.879984989762306" lon="9.815276926383376">
<ele>500.79999999999995</ele>
<time>2023-05-16T09:31:32Z</time>
</trkpt>
<trkpt lat="48.88002195395529" lon="9.815246919170022">
<ele>501</ele>
<time>2023-05-16T09:31:33Z</time>
</trkpt>
<trkpt lat="48.88005497865379" lon="9.815217917785048">
<ele>501</ele>
<time>2023-05-16T09:31:34Z</time>
</trkpt>
<trkpt lat="48.880089931190014" lon="9.815191933885217">
<ele>501</ele>
<time>2023-05-16T09:31:35Z</time>
</trkpt>
<trkpt lat="48.88012295588851" lon="9.815161926671863">
<ele>501</ele>
<time>2023-05-16T09:31:36Z</time>
</trkpt>
<trkpt lat="48.88015799224377" lon="9.815132925286889">
<ele>501</ele>
<time>2023-05-16T09:31:37Z</time>
</trkpt>
<trkpt lat="48.88019294477999" lon="9.815106941387057">
<ele>501</ele>
<time>2023-05-16T09:31:38Z</time>
</trkpt>
<trkpt lat="48.88022999279201" lon="9.815077940002084">
<ele>501</ele>
<time>2023-05-16T09:31:39Z</time>
</trkpt>
<trkpt lat="48.880266956985" lon="9.81504793278873">
<ele>501</ele>
<time>2023-05-16T09:31:40Z</time>
</trkpt>
<trkpt lat="48.880301993340254" lon="9.815017925575376">
<ele>501</ele>
<time>2023-05-16T09:31:41Z</time>
</trkpt>
<trkpt lat="48.88033795170486" lon="9.814986996352673">
<ele>501</ele>
<time>2023-05-16T09:31:42Z</time>
</trkpt>
<trkpt lat="48.88037499971688" lon="9.814956989139318">
<ele>501</ele>
<time>2023-05-16T09:31:43Z</time>
</trkpt>
<trkpt lat="48.880411963909864" lon="9.814927987754345">
<ele>501.20000000000005</ele>
<time>2023-05-16T09:31:44Z</time>
</trkpt>
<trkpt lat="48.88044993393123" lon="9.81489798054099">
<ele>501.20000000000005</ele>
<time>2023-05-16T09:31:45Z</time>
</trkpt>
<trkpt lat="48.88048798777163" lon="9.814867973327637">
<ele>501.20000000000005</ele>
<time>2023-05-16T09:31:46Z</time>
</trkpt>
<trkpt lat="48.88052696362138" lon="9.814836960285902">
<ele>501.20000000000005</ele>
<time>2023-05-16T09:31:47Z</time>
</trkpt>
<trkpt lat="48.880561999976635" lon="9.814804941415787">
<ele>501</ele>
<time>2023-05-16T09:31:48Z</time>
</trkpt>
<trkpt lat="48.88059695251286" lon="9.814774934202433">
<ele>501</ele>
<time>2023-05-16T09:31:49Z</time>
</trkpt>
<trkpt lat="48.88063198886812" lon="9.814741993322968">
<ele>501</ele>
<time>2023-05-16T09:31:50Z</time>
</trkpt>
<trkpt lat="48.88066794723272" lon="9.814707962796092">
<ele>501</ele>
<time>2023-05-16T09:31:51Z</time>
</trkpt>
<trkpt lat="48.88070692308247" lon="9.814676949754357">
<ele>501</ele>
<time>2023-05-16T09:31:52Z</time>
</trkpt>
<trkpt lat="48.88074799440801" lon="9.814644930884242">
<ele>501</ele>
<time>2023-05-16T09:31:53Z</time>
</trkpt>
<trkpt lat="48.88079199939966" lon="9.814611990004778">
<ele>501</ele>
<time>2023-05-16T09:31:54Z</time>
</trkpt>
<trkpt lat="48.88083692640066" lon="9.81457695364952">
<ele>501</ele>
<time>2023-05-16T09:31:55Z</time>
</trkpt>
<trkpt lat="48.88087992556393" lon="9.814537977799773">
<ele>501</ele>
<time>2023-05-16T09:31:56Z</time>
</trkpt>
<trkpt lat="48.88092493638396" lon="9.814499923959374">
<ele>500.79999999999995</ele>
<time>2023-05-16T09:31:57Z</time>
</trkpt>
<trkpt lat="48.880971958860755" lon="9.814459942281246">
<ele>500.79999999999995</ele>
<time>2023-05-16T09:31:58Z</time>
</trkpt>
<trkpt lat="48.88101797550917" lon="9.814419960603118">
<ele>500.79999999999995</ele>
<time>2023-05-16T09:31:59Z</time>
</trkpt>
<trkpt lat="48.88106692582369" lon="9.814377967268229">
<ele>500.6</ele>
<time>2023-05-16T09:32:00Z</time>
</trkpt>
<trkpt lat="48.88111696578562" lon="9.8143379855901">
<ele>500.4</ele>
<time>2023-05-16T09:32:01Z</time>
</trkpt>
<trkpt lat="48.881164994090796" lon="9.814301943406463">
<ele>500.4</ele>
<time>2023-05-16T09:32:02Z</time>
</trkpt>
<trkpt lat="48.881209921091795" lon="9.814266990870237">
<ele>500.20000000000005</ele>
<time>2023-05-16T09:32:03Z</time>
</trkpt>
<trkpt lat="48.881251998245716" lon="9.814237989485264">
<ele>500</ele>
<time>2023-05-16T09:32:04Z</time>
</trkpt>
<trkpt lat="48.881296925246716" lon="9.814204964786768">
<ele>499.79999999999995</ele>
<time>2023-05-16T09:32:05Z</time>
</trkpt>
<trkpt lat="48.88134294189513" lon="9.8141669947654">
<ele>499.79999999999995</ele>
<time>2023-05-16T09:32:06Z</time>
</trkpt>
<trkpt lat="48.88139499351382" lon="9.81412491761148">
<ele>499.6</ele>
<time>2023-05-16T09:32:07Z</time>
</trkpt>
<trkpt lat="48.88144997879863" lon="9.81408191844821">
<ele>499.4</ele>
<time>2023-05-16T09:32:08Z</time>
</trkpt>
<trkpt lat="48.881506975740194" lon="9.81403992511332">
<ele>499.20000000000005</ele>
<time>2023-05-16T09:32:09Z</time>
</trkpt>
<trkpt lat="48.881561961025" lon="9.814004972577095">
<ele>499</ele>
<time>2023-05-16T09:32:10Z</time>
</trkpt>
<trkpt lat="48.88162197545171" lon="9.813979994505644">
<ele>498.79999999999995</ele>
<time>2023-05-16T09:32:11Z</time>
</trkpt>
<trkpt lat="48.881679978221655" lon="9.813956944271922">
<ele>498.6</ele>
<time>2023-05-16T09:32:12Z</time>
</trkpt>
<trkpt lat="48.88173999264836" lon="9.813941940665245">
<ele>498.4</ele>
<time>2023-05-16T09:32:13Z</time>
</trkpt>
<trkpt lat="48.88180294074118" lon="9.813937917351723">
<ele>498.20000000000005</ele>
<time>2023-05-16T09:32:14Z</time>
</trkpt>
<trkpt lat="48.88187192380428" lon="9.813946969807148">
<ele>498</ele>
<time>2023-05-16T09:32:15Z</time>
</trkpt>
<trkpt lat="48.8819419965148" lon="9.813966918736696">
<ele>497.6</ele>
<time>2023-05-16T09:32:16Z</time>
</trkpt>
<trkpt lat="48.88200695626438" lon="9.814001955091953">
<ele>497.4</ele>
<time>2023-05-16T09:32:17Z</time>
</trkpt>
<trkpt lat="48.88206998817623" lon="9.814051995053887">
<ele>497</ele>
<time>2023-05-16T09:32:18Z</time>
</trkpt>
<trkpt lat="48.8821299187839" lon="9.814111925661564">
<ele>496.79999999999995</ele>
<time>2023-05-16T09:32:19Z</time>
</trkpt>
<trkpt lat="48.88219295069575" lon="9.814184932038188">
<ele>496.4</ele>
<time>2023-05-16T09:32:20Z</time>
</trkpt>
<trkpt lat="48.88224994763732" lon="9.814267996698618">
<ele>496</ele>
<time>2023-05-16T09:32:21Z</time>
</trkpt>
<trkpt lat="48.882301999256015" lon="9.81435994617641">
<ele>495.6</ele>
<time>2023-05-16T09:32:22Z</time>
</trkpt>
<trkpt lat="48.88235195539892" lon="9.814457930624485">
<ele>495.20000000000005</ele>
<time>2023-05-16T09:32:23Z</time>
</trkpt>
<trkpt lat="48.88240694068372" lon="9.814554993063211">
<ele>494.6</ele>
<time>2023-05-16T09:32:24Z</time>
</trkpt>
<trkpt lat="48.88245698064566" lon="9.814651971682906">
<ele>494</ele>
<time>2023-05-16T09:32:25Z</time>
</trkpt>
<trkpt lat="48.88250199146569" lon="9.814752973616123">
<ele>493.4</ele>
<time>2023-05-16T09:32:26Z</time>
</trkpt>
<trkpt lat="48.88254691846669" lon="9.814862944185734">
<ele>493</ele>
<time>2023-05-16T09:32:27Z</time>
</trkpt>
<trkpt lat="48.882584972307086" lon="9.814986996352673">
<ele>492.4</ele>
<time>2023-05-16T09:32:28Z</time>
</trkpt>
<trkpt lat="48.8826169911772" lon="9.81511197052896">
<ele>492</ele>
<time>2023-05-16T09:32:29Z</time>
</trkpt>
<trkpt lat="48.88264297507703" lon="9.81524197384715">
<ele>491.4</ele>
<time>2023-05-16T09:32:30Z</time>
</trkpt>
<trkpt lat="48.88267993927002" lon="9.815377928316593">
<ele>491</ele>
<time>2023-05-16T09:32:31Z</time>
</trkpt>
<trkpt lat="48.882711958140135" lon="9.815507931634784">
<ele>490.6</ele>
<time>2023-05-16T09:32:32Z</time>
</trkpt>
<trkpt lat="48.882731990888715" lon="9.815637934952974">
<ele>490.4</ele>
<time>2023-05-16T09:32:33Z</time>
</trkpt>
<trkpt lat="48.88274791650474" lon="9.815762992948294">
<ele>490</ele>
<time>2023-05-16T09:32:34Z</time>
</trkpt>
<trkpt lat="48.88276694342494" lon="9.815881932154298">
<ele>489.6</ele>
<time>2023-05-16T09:32:35Z</time>
</trkpt>
<trkpt lat="48.882777923718095" lon="9.81599492020905">
<ele>489.4</ele>
<time>2023-05-16T09:32:36Z</time>
</trkpt>
<trkpt lat="48.8827879820019" lon="9.816097933799028">
<ele>489.4</ele>
<time>2023-05-16T09:32:37Z</time>
</trkpt>
<trkpt lat="48.882799968123436" lon="9.816202959045768">
<ele>489.20000000000005</ele>
<time>2023-05-16T09:32:38Z</time>
</trkpt>
<trkpt lat="48.88280793093145" lon="9.816304966807365">
<ele>489.20000000000005</ele>
<time>2023-05-16T09:32:39Z</time>
</trkpt>
<trkpt lat="48.88281195424497" lon="9.816404962912202">
<ele>489.20000000000005</ele>
<time>2023-05-16T09:32:40Z</time>
</trkpt>
<trkpt lat="48.882816983386874" lon="9.816499929875135">
<ele>489.20000000000005</ele>
<time>2023-05-16T09:32:41Z</time>
</trkpt>
<trkpt lat="48.882819917052984" lon="9.816584922373295">
<ele>489.20000000000005</ele>
<time>2023-05-16T09:32:42Z</time>
</trkpt>
<trkpt lat="48.88282796368003" lon="9.816667987033725">
<ele>489.20000000000005</ele>
<time>2023-05-16T09:32:43Z</time>
</trkpt>
<trkpt lat="48.88283299282193" lon="9.816751973703504">
<ele>489.20000000000005</ele>
<time>2023-05-16T09:32:44Z</time>
</trkpt>
<trkpt lat="48.882839949801564" lon="9.816834954544902">
<ele>489.20000000000005</ele>
<time>2023-05-16T09:32:45Z</time>
</trkpt>
<trkpt lat="48.88285294175148" lon="9.816919947043061">
<ele>489.20000000000005</ele>
<time>2023-05-16T09:32:46Z</time>
</trkpt>
<trkpt lat="48.882861994206905" lon="9.81699999421835">
<ele>489.20000000000005</ele>
<time>2023-05-16T09:32:47Z</time>
</trkpt>
<trkpt lat="48.88287196867168" lon="9.817081969231367">
<ele>489.4</ele>
<time>2023-05-16T09:32:48Z</time>
</trkpt>
<trkpt lat="48.88287993147969" lon="9.817156987264752">
<ele>489.4</ele>
<time>2023-05-16T09:32:49Z</time>
</trkpt>
<trkpt lat="48.882884960621595" lon="9.817224964499474">
<ele>489.4</ele>
<time>2023-05-16T09:32:50Z</time>
</trkpt>
<trkpt lat="48.88288697227836" lon="9.817287996411324">
<ele>489.6</ele>
<time>2023-05-16T09:32:51Z</time>
</trkpt>
<trkpt lat="48.8828899897635" lon="9.81734692119062">
<ele>489.79999999999995</ele>
<time>2023-05-16T09:32:52Z</time>
</trkpt>
<trkpt lat="48.88289191760123" lon="9.817399978637695">
<ele>490</ele>
<time>2023-05-16T09:32:53Z</time>
</trkpt>
<trkpt lat="48.88289292342961" lon="9.81745295226574">
<ele>490.20000000000005</ele>
<time>2023-05-16T09:32:54Z</time>
</trkpt>
<trkpt lat="48.88289493508637" lon="9.817504920065403">
<ele>490.4</ele>
<time>2023-05-16T09:32:55Z</time>
</trkpt>
<trkpt lat="48.88289795257151" lon="9.817552948370576">
<ele>490.6</ele>
<time>2023-05-16T09:32:56Z</time>
</trkpt>
<trkpt lat="48.88289996422827" lon="9.817592930048704">
<ele>490.79999999999995</ele>
<time>2023-05-16T09:32:57Z</time>
</trkpt>
<trkpt lat="48.88289996422827" lon="9.817631989717484">
<ele>490.79999999999995</ele>
<time>2023-05-16T09:32:58Z</time>
</trkpt>
<trkpt lat="48.88289996422827" lon="9.81766995973885">
<ele>491</ele>
<time>2023-05-16T09:32:59Z</time>
</trkpt>
<trkpt lat="48.88289996422827" lon="9.817709941416979">
<ele>491.20000000000005</ele>
<time>2023-05-16T09:33:00Z</time>
</trkpt>
<trkpt lat="48.882904993370175" lon="9.817747995257378">
<ele>491.4</ele>
<time>2023-05-16T09:33:01Z</time>
</trkpt>
<trkpt lat="48.88291798532009" lon="9.817787976935506">
<ele>491.6</ele>
<time>2023-05-16T09:33:02Z</time>
</trkpt>
<trkpt lat="48.88294296339154" lon="9.817814966663718">
<ele>491.79999999999995</ele>
<time>2023-05-16T09:33:03Z</time>
</trkpt>
<trkpt lat="48.8829729706049" lon="9.817824941128492">
<ele>491.79999999999995</ele>
<time>2023-05-16T09:33:04Z</time>
</trkpt>
<trkpt lat="48.883011946454644" lon="9.817822929471731">
<ele>492</ele>
<time>2023-05-16T09:33:05Z</time>
</trkpt>
<trkpt lat="48.88304991647601" lon="9.817804992198944">
<ele>492.20000000000005</ele>
<time>2023-05-16T09:33:06Z</time>
</trkpt>
<trkpt lat="48.88308495283127" lon="9.817782947793603">
<ele>492.20000000000005</ele>
<time>2023-05-16T09:33:07Z</time>
</trkpt>
<trkpt lat="48.883116971701384" lon="9.81775495223701">
<ele>492.20000000000005</ele>
<time>2023-05-16T09:33:08Z</time>
</trkpt>
<trkpt lat="48.88314999639988" lon="9.817722933366895">
<ele>492.4</ele>
<time>2023-05-16T09:33:09Z</time>
</trkpt>
<trkpt lat="48.88317799195647" lon="9.817682951688766">
<ele>492.4</ele>
<time>2023-05-16T09:33:10Z</time>
</trkpt>
<trkpt lat="48.88321193866432" lon="9.81764699332416">
<ele>492.6</ele>
<time>2023-05-16T09:33:11Z</time>
</trkpt>
<trkpt lat="48.88324295170605" lon="9.817609945312142">
<ele>492.6</ele>
<time>2023-05-16T09:33:12Z</time>
</trkpt>
<trkpt lat="48.88327497057617" lon="9.817579938098788">
<ele>492.79999999999995</ele>
<time>2023-05-16T09:33:13Z</time>
</trkpt>
<trkpt lat="48.883314952254295" lon="9.817554960027337">
<ele>492.79999999999995</ele>
<time>2023-05-16T09:33:14Z</time>
</trkpt>
<trkpt lat="48.88334998860955" lon="9.817524952813983">
<ele>492.79999999999995</ele>
<time>2023-05-16T09:33:15Z</time>
</trkpt>
<trkpt lat="48.88338494114578" lon="9.81749695725739">
<ele>493</ele>
<time>2023-05-16T09:33:16Z</time>
</trkpt>
<trkpt lat="48.883417965844274" lon="9.817471979185939">
<ele>493.20000000000005</ele>
<time>2023-05-16T09:33:17Z</time>
</trkpt>
<trkpt lat="48.88344696722925" lon="9.817449934780598">
<ele>493.20000000000005</ele>
<time>2023-05-16T09:33:18Z</time>
</trkpt>
<trkpt lat="48.88347798027098" lon="9.817421939224005">
<ele>493.4</ele>
<time>2023-05-16T09:33:19Z</time>
</trkpt>
<trkpt lat="48.883507987484336" lon="9.81739193201065">
<ele>493.6</ele>
<time>2023-05-16T09:33:20Z</time>
</trkpt>
<trkpt lat="48.88353799469769" lon="9.8173669539392">
<ele>493.6</ele>
<time>2023-05-16T09:33:21Z</time>
</trkpt>
<trkpt lat="48.88356196694076" lon="9.817337952554226">
<ele>493.79999999999995</ele>
<time>2023-05-16T09:33:22Z</time>
</trkpt>
<trkpt lat="48.88358694501221" lon="9.817314986139536">
<ele>494</ele>
<time>2023-05-16T09:33:23Z</time>
</trkpt>
<trkpt lat="48.883612928912044" lon="9.817291935905814">
<ele>494.20000000000005</ele>
<time>2023-05-16T09:33:24Z</time>
</trkpt>
<trkpt lat="48.883634973317385" lon="9.817269975319505">
<ele>494.4</ele>
<time>2023-05-16T09:33:25Z</time>
</trkpt>
<trkpt lat="48.883659951388836" lon="9.817249942570925">
<ele>494.6</ele>
<time>2023-05-16T09:33:26Z</time>
</trkpt>
<trkpt lat="48.88368492946029" lon="9.817229993641376">
<ele>495</ele>
<time>2023-05-16T09:33:27Z</time>
</trkpt>
<trkpt lat="48.88370797969401" lon="9.817202920094132">
<ele>495.20000000000005</ele>
<time>2023-05-16T09:33:28Z</time>
</trkpt>
<trkpt lat="48.88373496942222" lon="9.81717199087143">
<ele>495.4</ele>
<time>2023-05-16T09:33:29Z</time>
</trkpt>
<trkpt lat="48.883762964978814" lon="9.817136954516172">
<ele>495.6</ele>
<time>2023-05-16T09:33:30Z</time>
</trkpt>
<trkpt lat="48.88379297219217" lon="9.817101918160915">
<ele>495.79999999999995</ele>
<time>2023-05-16T09:33:31Z</time>
</trkpt>
<trkpt lat="48.88381996192038" lon="9.81706696562469">
<ele>496</ele>
<time>2023-05-16T09:33:32Z</time>
</trkpt>
<trkpt lat="48.88384292833507" lon="9.817031929269433">
<ele>496</ele>
<time>2023-05-16T09:33:33Z</time>
</trkpt>
<trkpt lat="48.88386195525527" lon="9.816996976733208">
<ele>496.20000000000005</ele>
<time>2023-05-16T09:33:34Z</time>
</trkpt>
<trkpt lat="48.88387997634709" lon="9.81695992872119">
<ele>496.4</ele>
<time>2023-05-16T09:33:35Z</time>
</trkpt>
<trkpt lat="48.883894979953766" lon="9.816919947043061">
<ele>496.4</ele>
<time>2023-05-16T09:33:36Z</time>
</trkpt>
<trkpt lat="48.8839069660753" lon="9.816876947879791">
<ele>496.6</ele>
<time>2023-05-16T09:33:37Z</time>
</trkpt>
<trkpt lat="48.883917946368456" lon="9.81683294288814">
<ele>496.6</ele>
<time>2023-05-16T09:33:38Z</time>
</trkpt>
<trkpt lat="48.88392196968198" lon="9.816796984523535">
<ele>496.79999999999995</ele>
<time>2023-05-16T09:33:39Z</time>
</trkpt>
<trkpt lat="48.88392498716712" lon="9.816751973703504">
<ele>496.79999999999995</ele>
<time>2023-05-16T09:33:40Z</time>
</trkpt>
<trkpt lat="48.88392993248999" lon="9.816706962883472">
<ele>496.79999999999995</ele>
<time>2023-05-16T09:33:41Z</time>
</trkpt>
<trkpt lat="48.88392993248999" lon="9.816661952063441">
<ele>497</ele>
<time>2023-05-16T09:33:42Z</time>
</trkpt>
<trkpt lat="48.88392993248999" lon="9.816604955121875">
<ele>497</ele>
<time>2023-05-16T09:33:43Z</time>
</trkpt>
<trkpt lat="48.88392699882388" lon="9.81654996983707">
<ele>497</ele>
<time>2023-05-16T09:33:44Z</time>
</trkpt>
<trkpt lat="48.88392699882388" lon="9.816492972895503">
<ele>497</ele>
<time>2023-05-16T09:33:45Z</time>
</trkpt>
<trkpt lat="48.88392297551036" lon="9.816432958468795">
<ele>497</ele>
<time>2023-05-16T09:33:46Z</time>
</trkpt>
<trkpt lat="48.883917946368456" lon="9.816372944042087">
<ele>497</ele>
<time>2023-05-16T09:33:47Z</time>
</trkpt>
<trkpt lat="48.883916940540075" lon="9.8163169529289">
<ele>497</ele>
<time>2023-05-16T09:33:48Z</time>
</trkpt>
<trkpt lat="48.88390797190368" lon="9.816254926845431">
<ele>497</ele>
<time>2023-05-16T09:33:49Z</time>
</trkpt>
<trkpt lat="48.88389699161053" lon="9.81618795543909">
<ele>497</ele>
<time>2023-05-16T09:33:50Z</time>
</trkpt>
<trkpt lat="48.8838879391551" lon="9.81611997820437">
<ele>497</ele>
<time>2023-05-16T09:33:51Z</time>
</trkpt>
<trkpt lat="48.88387796469033" lon="9.816049989312887">
<ele>497</ele>
<time>2023-05-16T09:33:52Z</time>
</trkpt>
<trkpt lat="48.883871929720044" lon="9.815982934087515">
<ele>496.79999999999995</ele>
<time>2023-05-16T09:33:53Z</time>
</trkpt>
<trkpt lat="48.88386497274041" lon="9.815921997651458">
<ele>496.79999999999995</ele>
<time>2023-05-16T09:33:54Z</time>
</trkpt>
<trkpt lat="48.88386296108365" lon="9.815867934376001">
<ele>496.79999999999995</ele>
<time>2023-05-16T09:33:55Z</time>
</trkpt>
<trkpt lat="48.88386698439717" lon="9.815816972404718">
<ele>496.79999999999995</ele>
<time>2023-05-16T09:33:56Z</time>
</trkpt>
<trkpt lat="48.88387695886195" lon="9.815767938271165">
<ele>496.79999999999995</ele>
<time>2023-05-16T09:33:57Z</time>
</trkpt>
<trkpt lat="48.88388492166996" lon="9.815726950764656">
<ele>496.79999999999995</ele>
<time>2023-05-16T09:33:58Z</time>
</trkpt>
<trkpt lat="48.883891962468624" lon="9.815682945773005">
<ele>496.79999999999995</ele>
<time>2023-05-16T09:33:59Z</time>
</trkpt>
<trkpt lat="48.88389992527664" lon="9.815631983801723">
<ele>496.79999999999995</ele>
<time>2023-05-16T09:34:00Z</time>
</trkpt>
<trkpt lat="48.8839069660753" lon="9.815577920526266">
<ele>496.79999999999995</ele>
<time>2023-05-16T09:34:01Z</time>
</trkpt>
<trkpt lat="48.88390797190368" lon="9.815514972433448">
<ele>496.79999999999995</ele>
<time>2023-05-16T09:34:02Z</time>
</trkpt>
<trkpt lat="48.88391291722655" lon="9.81545495800674">
<ele>496.79999999999995</ele>
<time>2023-05-16T09:34:03Z</time>
</trkpt>
<trkpt lat="48.883917946368456" lon="9.81538999825716">
<ele>496.79999999999995</ele>
<time>2023-05-16T09:34:04Z</time>
</trkpt>
<trkpt lat="48.88391291722655" lon="9.815324954688549">
<ele>496.79999999999995</ele>
<time>2023-05-16T09:34:05Z</time>
</trkpt>
<trkpt lat="48.883916940540075" lon="9.815254965797067">
<ele>496.79999999999995</ele>
<time>2023-05-16T09:34:06Z</time>
</trkpt>
<trkpt lat="48.88391995802522" lon="9.815182965248823">
<ele>496.79999999999995</ele>
<time>2023-05-16T09:34:07Z</time>
</trkpt>
<trkpt lat="48.88392297551036" lon="9.815116999670863">
<ele>496.79999999999995</ele>
<time>2023-05-16T09:34:08Z</time>
</trkpt>
<trkpt lat="48.88392196968198" lon="9.815054973587394">
<ele>496.79999999999995</ele>
<time>2023-05-16T09:34:09Z</time>
</trkpt>
<trkpt lat="48.88391995802522" lon="9.814991941675544">
<ele>496.79999999999995</ele>
<time>2023-05-16T09:34:10Z</time>
</trkpt>
<trkpt lat="48.88392297551036" lon="9.814929999411106">
<ele>496.79999999999995</ele>
<time>2023-05-16T09:34:11Z</time>
</trkpt>
<trkpt lat="48.88392699882388" lon="9.814874930307269">
<ele>496.79999999999995</ele>
<time>2023-05-16T09:34:12Z</time>
</trkpt>
<trkpt lat="48.88393294997513" lon="9.814817933365703">
<ele>496.79999999999995</ele>
<time>2023-05-16T09:34:13Z</time>
</trkpt>
<trkpt lat="48.883934961631894" lon="9.814764959737659">
<ele>496.79999999999995</ele>
<time>2023-05-16T09:34:14Z</time>
</trkpt>
<trkpt lat="48.88394191861153" lon="9.814712991937995">
<ele>496.79999999999995</ele>
<time>2023-05-16T09:34:15Z</time>
</trkpt>
<trkpt lat="48.88394493609667" lon="9.81466194614768">
<ele>496.79999999999995</ele>
<time>2023-05-16T09:34:16Z</time>
</trkpt>
<trkpt lat="48.88394996523857" lon="9.814609978348017">
<ele>496.79999999999995</ele>
<time>2023-05-16T09:34:17Z</time>
</trkpt>
<trkpt lat="48.883954994380474" lon="9.814561950042844">
<ele>497</ele>
<time>2023-05-16T09:34:18Z</time>
</trkpt>
<trkpt lat="48.88396195136011" lon="9.814511993899941">
<ele>497</ele>
<time>2023-05-16T09:34:19Z</time>
</trkpt>
<trkpt lat="48.88396999798715" lon="9.814461953938007">
<ele>497.20000000000005</ele>
<time>2023-05-16T09:34:20Z</time>
</trkpt>
<trkpt lat="48.88397695496678" lon="9.814419960603118">
<ele>497.20000000000005</ele>
<time>2023-05-16T09:34:21Z</time>
</trkpt>
<trkpt lat="48.883981984108686" lon="9.814371932297945">
<ele>497.4</ele>
<time>2023-05-16T09:34:22Z</time>
</trkpt>
<trkpt lat="48.88398298993707" lon="9.814326921477914">
<ele>497.6</ele>
<time>2023-05-16T09:34:23Z</time>
</trkpt>
<trkpt lat="48.8839849177748" lon="9.814279982820153">
<ele>497.79999999999995</ele>
<time>2023-05-16T09:34:24Z</time>
</trkpt>
<trkpt lat="48.8839849177748" lon="9.81423195451498">
<ele>498</ele>
<time>2023-05-16T09:34:25Z</time>
</trkpt>
<trkpt lat="48.88398298993707" lon="9.81418694369495">
<ele>498</ele>
<time>2023-05-16T09:34:26Z</time>
</trkpt>
<trkpt lat="48.883981984108686" lon="9.814137993380427">
<ele>498.20000000000005</ele>
<time>2023-05-16T09:34:27Z</time>
</trkpt>
<trkpt lat="48.883979972451925" lon="9.814091976732016">
<ele>498.4</ele>
<time>2023-05-16T09:34:28Z</time>
</trkpt>
<trkpt lat="48.88397494331002" lon="9.814046965911984">
<ele>498.4</ele>
<time>2023-05-16T09:34:29Z</time>
</trkpt>
<trkpt lat="48.88396698050201" lon="9.813994998112321">
<ele>498.6</ele>
<time>2023-05-16T09:34:30Z</time>
</trkpt>
<trkpt lat="48.883959939703345" lon="9.813947975635529">
<ele>498.79999999999995</ele>
<time>2023-05-16T09:34:31Z</time>
</trkpt>
<trkpt lat="48.88394694775343" lon="9.81390698812902">
<ele>499</ele>
<time>2023-05-16T09:34:32Z</time>
</trkpt>
<trkpt lat="48.883934961631894" lon="9.81386499479413">
<ele>499</ele>
<time>2023-05-16T09:34:33Z</time>
</trkpt>
<trkpt lat="48.88392297551036" lon="9.813814954832196">
<ele>499.20000000000005</ele>
<time>2023-05-16T09:34:34Z</time>
</trkpt>
<trkpt lat="48.8839069660753" lon="9.813769944012165">
<ele>499.20000000000005</ele>
<time>2023-05-16T09:34:35Z</time>
</trkpt>
<trkpt lat="48.8838879391551" lon="9.813726944848895">
<ele>499.4</ele>
<time>2023-05-16T09:34:36Z</time>
</trkpt>
<trkpt lat="48.88386991806328" lon="9.813684951514006">
<ele>499.4</ele>
<time>2023-05-16T09:34:37Z</time>
</trkpt>
<trkpt lat="48.88385298661888" lon="9.813642958179116">
<ele>499.4</ele>
<time>2023-05-16T09:34:38Z</time>
</trkpt>
<trkpt lat="48.88383999466896" lon="9.813599959015846">
<ele>499.4</ele>
<time>2023-05-16T09:34:39Z</time>
</trkpt>
<trkpt lat="48.8838329538703" lon="9.813551930710673">
<ele>499.4</ele>
<time>2023-05-16T09:34:40Z</time>
</trkpt>
<trkpt lat="48.88381694443524" lon="9.813509937375784">
<ele>499.4</ele>
<time>2023-05-16T09:34:41Z</time>
</trkpt>
<trkpt lat="48.88380294665694" lon="9.813466938212514">
<ele>499.4</ele>
<time>2023-05-16T09:34:42Z</time>
</trkpt>
<trkpt lat="48.883786937221885" lon="9.81341295875609">
<ele>499.4</ele>
<time>2023-05-16T09:34:43Z</time>
</trkpt>
<trkpt lat="48.88377193361521" lon="9.813364930450916">
<ele>499.4</ele>
<time>2023-05-16T09:34:44Z</time>
</trkpt>
<trkpt lat="48.88375198468566" lon="9.813312962651253">
<ele>499.4</ele>
<time>2023-05-16T09:34:45Z</time>
</trkpt>
<trkpt lat="48.88372994028032" lon="9.813259989023209">
<ele>499.4</ele>
<time>2023-05-16T09:34:46Z</time>
</trkpt>
<trkpt lat="48.88370797969401" lon="9.813201986253262">
<ele>499.20000000000005</ele>
<time>2023-05-16T09:34:47Z</time>
</trkpt>
<trkpt lat="48.88368694111705" lon="9.813142977654934">
<ele>499.20000000000005</ele>
<time>2023-05-16T09:34:48Z</time>
</trkpt>
<trkpt lat="48.8836619630456" lon="9.813081957399845">
<ele>499.20000000000005</ele>
<time>2023-05-16T09:34:49Z</time>
</trkpt>
<trkpt lat="48.883639918640256" lon="9.813012974336743">
<ele>499</ele>
<time>2023-05-16T09:34:50Z</time>
</trkpt>
<trkpt lat="48.883614940568805" lon="9.812942985445261">
<ele>498.79999999999995</ele>
<time>2023-05-16T09:34:51Z</time>
</trkpt>
<trkpt lat="48.883591974154115" lon="9.812869979068637">
<ele>498.6</ele>
<time>2023-05-16T09:34:52Z</time>
</trkpt>
<trkpt lat="48.88356791809201" lon="9.812799990177155">
<ele>498.4</ele>
<time>2023-05-16T09:34:53Z</time>
</trkpt>
<trkpt lat="48.88353992253542" lon="9.812727989628911">
<ele>498.20000000000005</ele>
<time>2023-05-16T09:34:54Z</time>
</trkpt>
<trkpt lat="48.8835099991411" lon="9.812649954110384">
<ele>497.79999999999995</ele>
<time>2023-05-16T09:34:55Z</time>
</trkpt>
<trkpt lat="48.88347798027098" lon="9.812564961612225">
<ele>497.6</ele>
<time>2023-05-16T09:34:56Z</time>
</trkpt>
<trkpt lat="48.883444955572486" lon="9.812472928315401">
<ele>497.4</ele>
<time>2023-05-16T09:34:57Z</time>
</trkpt>
<trkpt lat="48.88341293670237" lon="9.812376955524087">
<ele>497</ele>
<time>2023-05-16T09:34:58Z</time>
</trkpt>
<trkpt lat="48.88338292948902" lon="9.812271930277348">
<ele>496.6</ele>
<time>2023-05-16T09:34:59Z</time>
</trkpt>
<trkpt lat="48.88335292227566" lon="9.812162965536118">
<ele>496.4</ele>
<time>2023-05-16T09:35:00Z</time>
</trkpt>
<trkpt lat="48.88332492671907" lon="9.812047965824604">
<ele>495.79999999999995</ele>
<time>2023-05-16T09:35:01Z</time>
</trkpt>
<trkpt lat="48.88330698944628" lon="9.811924919486046">
<ele>495.4</ele>
<time>2023-05-16T09:35:02Z</time>
</trkpt>
<trkpt lat="48.883292991667986" lon="9.811791982501745">
<ele>495</ele>
<time>2023-05-16T09:35:03Z</time>
</trkpt>
<trkpt lat="48.883291985839605" lon="9.81165292672813">
<ele>494.6</ele>
<time>2023-05-16T09:35:04Z</time>
</trkpt>
<trkpt lat="48.883294919505715" lon="9.811496939510107">
<ele>494</ele>
<time>2023-05-16T09:35:05Z</time>
</trkpt>
<trkpt lat="48.88330799527466" lon="9.81135193258524">
<ele>493.4</ele>
<time>2023-05-16T09:35:06Z</time>
</trkpt>
<trkpt lat="48.883331967517734" lon="9.81119996868074">
<ele>493</ele>
<time>2023-05-16T09:35:07Z</time>
</trkpt>
<trkpt lat="48.88337194919586" lon="9.811064936220646">
<ele>492.4</ele>
<time>2023-05-16T09:35:08Z</time>
</trkpt>
<trkpt lat="48.883424922823906" lon="9.810929987579584">
<ele>491.79999999999995</ele>
<time>2023-05-16T09:35:09Z</time>
</trkpt>
<trkpt lat="48.88346993364394" lon="9.810801995918155">
<ele>491.20000000000005</ele>
<time>2023-05-16T09:35:10Z</time>
</trkpt>
<trkpt lat="48.88351494446397" lon="9.810661934316158">
<ele>490.6</ele>
<time>2023-05-16T09:35:11Z</time>
</trkpt>
<trkpt lat="48.883549980819225" lon="9.810514999553561">
<ele>490</ele>
<time>2023-05-16T09:35:12Z</time>
</trkpt>
<trkpt lat="48.883569929748774" lon="9.810359934344888">
<ele>489.4</ele>
<time>2023-05-16T09:35:13Z</time>
</trkpt>
<trkpt lat="48.88357998803258" lon="9.810204952955246">
<ele>488.79999999999995</ele>
<time>2023-05-16T09:35:14Z</time>
</trkpt>
<trkpt lat="48.883571941405535" lon="9.810037985444069">
<ele>488.20000000000005</ele>
<time>2023-05-16T09:35:15Z</time>
</trkpt>
<trkpt lat="48.88357697054744" lon="9.809862971305847">
<ele>487.6</ele>
<time>2023-05-16T09:35:16Z</time>
</trkpt>
<trkpt lat="48.88355794362724" lon="9.809701954945922">
<ele>486.79999999999995</ele>
<time>2023-05-16T09:35:17Z</time>
</trkpt>
<trkpt lat="48.88351997360587" lon="9.809542950242758">
<ele>486.20000000000005</ele>
<time>2023-05-16T09:35:18Z</time>
</trkpt>
<trkpt lat="48.88349499553442" lon="9.809399954974651">
<ele>485.4</ele>
<time>2023-05-16T09:35:19Z</time>
</trkpt>
<trkpt lat="48.883467921987176" lon="9.809229969978333">
<ele>484.79999999999995</ele>
<time>2023-05-16T09:35:20Z</time>
</trkpt>
<trkpt lat="48.883442943915725" lon="9.809059984982014">
<ele>484.20000000000005</ele>
<time>2023-05-16T09:35:21Z</time>
</trkpt>
<trkpt lat="48.883419977501035" lon="9.808886982500553">
<ele>483.4</ele>
<time>2023-05-16T09:35:22Z</time>
</trkpt>
<trkpt lat="48.88339198194444" lon="9.808719931170344">
<ele>482.6</ele>
<time>2023-05-16T09:35:23Z</time>
</trkpt>
<trkpt lat="48.88336692005396" lon="9.808551957830787">
<ele>482</ele>
<time>2023-05-16T09:35:24Z</time>
</trkpt>
<trkpt lat="48.88334194198251" lon="9.80838499031961">
<ele>481.20000000000005</ele>
<time>2023-05-16T09:35:25Z</time>
</trkpt>
<trkpt lat="48.883314952254295" lon="9.8082179389894">
<ele>480.4</ele>
<time>2023-05-16T09:35:26Z</time>
</trkpt>
<trkpt lat="48.88328796252608" lon="9.808051977306604">
<ele>479.6</ele>
<time>2023-05-16T09:35:27Z</time>
</trkpt>
<trkpt lat="48.8832679297775" lon="9.807886937633157">
<ele>478.79999999999995</ele>
<time>2023-05-16T09:35:28Z</time>
</trkpt>
<trkpt lat="48.88324194587767" lon="9.807726927101612">
<ele>478.20000000000005</ele>
<time>2023-05-16T09:35:29Z</time>
</trkpt>
<trkpt lat="48.8832129444927" lon="9.807554930448532">
<ele>477.4</ele>
<time>2023-05-16T09:35:30Z</time>
</trkpt>
<trkpt lat="48.88317296281457" lon="9.807381927967072">
<ele>476.6</ele>
<time>2023-05-16T09:35:31Z</time>
</trkpt>
<trkpt lat="48.88314798474312" lon="9.807206997647882">
<ele>475.79999999999995</ele>
<time>2023-05-16T09:35:32Z</time>
</trkpt>
<trkpt lat="48.88312694616616" lon="9.807039946317673">
<ele>475</ele>
<time>2023-05-16T09:35:33Z</time>
</trkpt>
<trkpt lat="48.88308696448803" lon="9.806874990463257">
<ele>474.4</ele>
<time>2023-05-16T09:35:34Z</time>
</trkpt>
<trkpt lat="48.88306198641658" lon="9.80671196244657">
<ele>473.6</ele>
<time>2023-05-16T09:35:35Z</time>
</trkpt>
<trkpt lat="48.883036924526095" lon="9.806532924994826">
<ele>473</ele>
<time>2023-05-16T09:35:36Z</time>
</trkpt>
<trkpt lat="48.88300691731274" lon="9.80636796914041">
<ele>472.20000000000005</ele>
<time>2023-05-16T09:35:37Z</time>
</trkpt>
<trkpt lat="48.88298294506967" lon="9.806201923638582">
<ele>471.6</ele>
<time>2023-05-16T09:35:38Z</time>
</trkpt>
<trkpt lat="48.88295293785632" lon="9.806029926985502">
<ele>470.79999999999995</ele>
<time>2023-05-16T09:35:39Z</time>
</trkpt>
<trkpt lat="48.88292192481458" lon="9.805856924504042">
<ele>470.20000000000005</ele>
<time>2023-05-16T09:35:40Z</time>
</trkpt>
<trkpt lat="48.88289191760123" lon="9.80567998252809">
<ele>469.6</ele>
<time>2023-05-16T09:35:41Z</time>
</trkpt>
<trkpt lat="48.88286693952978" lon="9.805504968389869">
<ele>468.79999999999995</ele>
<time>2023-05-16T09:35:42Z</time>
</trkpt>
<trkpt lat="48.8828379381448" lon="9.805331965908408">
<ele>468.20000000000005</ele>
<time>2023-05-16T09:35:43Z</time>
</trkpt>
<trkpt lat="48.88280793093145" lon="9.80516198091209">
<ele>467.6</ele>
<time>2023-05-16T09:35:44Z</time>
</trkpt>
<trkpt lat="48.882779935374856" lon="9.80499291792512">
<ele>467</ele>
<time>2023-05-16T09:35:45Z</time>
</trkpt>
<trkpt lat="48.882752945646644" lon="9.804829973727465">
<ele>466.20000000000005</ele>
<time>2023-05-16T09:35:46Z</time>
</trkpt>
<trkpt lat="48.882734924554825" lon="9.804671974852681">
<ele>465.6</ele>
<time>2023-05-16T09:35:47Z</time>
</trkpt>
<trkpt lat="48.88272193260491" lon="9.80451699346304">
<ele>465</ele>
<time>2023-05-16T09:35:48Z</time>
</trkpt>
<trkpt lat="48.88270491734147" lon="9.804366957396269">
<ele>464.4</ele>
<time>2023-05-16T09:35:49Z</time>
</trkpt>
<trkpt lat="48.88267993927002" lon="9.804216921329498">
<ele>463.79999999999995</ele>
<time>2023-05-16T09:35:50Z</time>
</trkpt>
<trkpt lat="48.88266292400658" lon="9.80406696908176">
<ele>463.4</ele>
<time>2023-05-16T09:35:51Z</time>
</trkpt>
<trkpt lat="48.882647920399904" lon="9.803914921358228">
<ele>462.79999999999995</ele>
<time>2023-05-16T09:35:52Z</time>
</trkpt>
<trkpt lat="48.88263291679323" lon="9.803761951625347">
<ele>462.4</ele>
<time>2023-05-16T09:35:53Z</time>
</trkpt>
<trkpt lat="48.882624953985214" lon="9.803607976064086">
<ele>461.79999999999995</ele>
<time>2023-05-16T09:35:54Z</time>
</trkpt>
<trkpt lat="48.88262294232845" lon="9.803456934168935">
<ele>461.4</ele>
<time>2023-05-16T09:35:55Z</time>
</trkpt>
<trkpt lat="48.8826169911772" lon="9.803307987749577">
<ele>460.79999999999995</ele>
<time>2023-05-16T09:35:56Z</time>
</trkpt>
<trkpt lat="48.882597964257" lon="9.803147977218032">
<ele>460.4</ele>
<time>2023-05-16T09:35:57Z</time>
</trkpt>
<trkpt lat="48.882597964257" lon="9.80299492366612">
<ele>460</ele>
<time>2023-05-16T09:35:58Z</time>
</trkpt>
<trkpt lat="48.882601987570524" lon="9.802841953933239">
<ele>459.6</ele>
<time>2023-05-16T09:35:59Z</time>
</trkpt>
<trkpt lat="48.882626965641975" lon="9.802699964493513">
<ele>459.20000000000005</ele>
<time>2023-05-16T09:36:00Z</time>
</trkpt>
<trkpt lat="48.8826169911772" lon="9.802557975053787">
<ele>458.79999999999995</ele>
<time>2023-05-16T09:36:01Z</time>
</trkpt>
<trkpt lat="48.88261296786368" lon="9.802409950643778">
<ele>458.4</ele>
<time>2023-05-16T09:36:02Z</time>
</trkpt>
<trkpt lat="48.88259997591376" lon="9.802257986739278">
<ele>458</ele>
<time>2023-05-16T09:36:03Z</time>
</trkpt>
<trkpt lat="48.88258991762996" lon="9.802106944844127">
<ele>457.79999999999995</ele>
<time>2023-05-16T09:36:04Z</time>
</trkpt>
<trkpt lat="48.882582960650325" lon="9.801956992596388">
<ele>457.4</ele>
<time>2023-05-16T09:36:05Z</time>
</trkpt>
<trkpt lat="48.88259494677186" lon="9.801831934601068">
<ele>457</ele>
<time>2023-05-16T09:36:06Z</time>
</trkpt>
<trkpt lat="48.882604921236634" lon="9.80168198235333">
<ele>456.79999999999995</ele>
<time>2023-05-16T09:36:07Z</time>
</trkpt>
<trkpt lat="48.882606932893395" lon="9.801539992913604">
<ele>456.4</ele>
<time>2023-05-16T09:36:08Z</time>
</trkpt>
<trkpt lat="48.88261992484331" lon="9.801389956846833">
<ele>456</ele>
<time>2023-05-16T09:36:09Z</time>
</trkpt>
<trkpt lat="48.882646998390555" lon="9.801244949921966">
<ele>455.6</ele>
<time>2023-05-16T09:36:10Z</time>
</trkpt>
<trkpt lat="48.88266292400658" lon="9.801132967695594">
<ele>455.20000000000005</ele>
<time>2023-05-16T09:36:11Z</time>
</trkpt>
<trkpt lat="48.88270298950374" lon="9.801002964377403">
<ele>454.79999999999995</ele>
<time>2023-05-16T09:36:12Z</time>
</trkpt>
<trkpt lat="48.88275998644531" lon="9.800872961059213">
<ele>454.4</ele>
<time>2023-05-16T09:36:13Z</time>
</trkpt>
<trkpt lat="48.882817989215255" lon="9.80075997300446">
<ele>454</ele>
<time>2023-05-16T09:36:14Z</time>
</trkpt>
<trkpt lat="48.88289292342961" lon="9.80065193027258">
<ele>453.6</ele>
<time>2023-05-16T09:36:15Z</time>
</trkpt>
<trkpt lat="48.882944975048304" lon="9.800529973581433">
<ele>453.4</ele>
<time>2023-05-16T09:36:16Z</time>
</trkpt>
<trkpt lat="48.88300691731274" lon="9.800419919192791">
<ele>453</ele>
<time>2023-05-16T09:36:17Z</time>
</trkpt>
<trkpt lat="48.883074978366494" lon="9.80030793696642">
<ele>452.6</ele>
<time>2023-05-16T09:36:18Z</time>
</trkpt>
<trkpt lat="48.88312795199454" lon="9.800202995538712">
<ele>452.20000000000005</ele>
<time>2023-05-16T09:36:19Z</time>
</trkpt>
<trkpt lat="48.88317497447133" lon="9.800096964463592">
<ele>451.79999999999995</ele>
<time>2023-05-16T09:36:20Z</time>
</trkpt>
<trkpt lat="48.883227948099375" lon="9.799991939216852">
<ele>451.4</ele>
<time>2023-05-16T09:36:21Z</time>
</trkpt>
<trkpt lat="48.88327698223293" lon="9.799882974475622">
<ele>451.20000000000005</ele>
<time>2023-05-16T09:36:22Z</time>
</trkpt>
<trkpt lat="48.88332299888134" lon="9.799767974764109">
<ele>450.79999999999995</ele>
<time>2023-05-16T09:36:23Z</time>
</trkpt>
<trkpt lat="48.88337194919586" lon="9.799656998366117">
<ele>450.6</ele>
<time>2023-05-16T09:36:24Z</time>
</trkpt>
<trkpt lat="48.883417965844274" lon="9.799546943977475">
<ele>450.20000000000005</ele>
<time>2023-05-16T09:36:25Z</time>
</trkpt>
<trkpt lat="48.883464988321066" lon="9.799436973407865">
<ele>450</ele>
<time>2023-05-16T09:36:26Z</time>
</trkpt>
<trkpt lat="48.88351494446397" lon="9.799327924847603">
<ele>449.6</ele>
<time>2023-05-16T09:36:27Z</time>
</trkpt>
<trkpt lat="48.88356791809201" lon="9.79923295788467">
<ele>449.20000000000005</ele>
<time>2023-05-16T09:36:28Z</time>
</trkpt>
<trkpt lat="48.88362499885261" lon="9.79914796538651">
<ele>448.79999999999995</ele>
<time>2023-05-16T09:36:29Z</time>
</trkpt>
<trkpt lat="48.88368794694543" lon="9.799071941524744">
<ele>448.4</ele>
<time>2023-05-16T09:36:30Z</time>
</trkpt>
<trkpt lat="48.88374796137214" lon="9.799001952633262">
<ele>448</ele>
<time>2023-05-16T09:36:31Z</time>
</trkpt>
<trkpt lat="48.88381493277848" lon="9.798941938206553">
<ele>447.6</ele>
<time>2023-05-16T09:36:32Z</time>
</trkpt>
<trkpt lat="48.88388299383223" lon="9.798891982063651">
<ele>447.20000000000005</ele>
<time>2023-05-16T09:36:33Z</time>
</trkpt>
<trkpt lat="48.88395298272371" lon="9.798851916566491">
<ele>447</ele>
<time>2023-05-16T09:36:34Z</time>
</trkpt>
<trkpt lat="48.88402699492872" lon="9.798821993172169">
<ele>446.6</ele>
<time>2023-05-16T09:36:35Z</time>
</trkpt>
<trkpt lat="48.88409991748631" lon="9.798794919624925">
<ele>446.20000000000005</ele>
<time>2023-05-16T09:36:36Z</time>
</trkpt>
<trkpt lat="48.8841799646616" lon="9.798767929896712">
<ele>445.79999999999995</ele>
<time>2023-05-16T09:36:37Z</time>
</trkpt>
<trkpt lat="48.884256994351745" lon="9.798742951825261">
<ele>445.6</ele>
<time>2023-05-16T09:36:38Z</time>
</trkpt>
<trkpt lat="48.8843319285661" lon="9.79871797375381">
<ele>445.20000000000005</ele>
<time>2023-05-16T09:36:39Z</time>
</trkpt>
<trkpt lat="48.88440292328596" lon="9.798691989853978">
<ele>444.79999999999995</ele>
<time>2023-05-16T09:36:40Z</time>
</trkpt>
<trkpt lat="48.884474923834205" lon="9.798672962933779">
<ele>444.6</ele>
<time>2023-05-16T09:36:41Z</time>
</trkpt>
<trkpt lat="48.88455295935273" lon="9.798661982640624">
<ele>444.20000000000005</ele>
<time>2023-05-16T09:36:42Z</time>
</trkpt>
<trkpt lat="48.88463493436575" lon="9.798657959327102">
<ele>443.79999999999995</ele>
<time>2023-05-16T09:36:43Z</time>
</trkpt>
<trkpt lat="48.88471799902618" lon="9.798656953498721">
<ele>443.4</ele>
<time>2023-05-16T09:36:44Z</time>
</trkpt>
<trkpt lat="48.88479293324053" lon="9.798656953498721">
<ele>443.20000000000005</ele>
<time>2023-05-16T09:36:45Z</time>
</trkpt>
<trkpt lat="48.88486996293068" lon="9.798671957105398">
<ele>442.79999999999995</ele>
<time>2023-05-16T09:36:46Z</time>
</trkpt>
<trkpt lat="48.884946992620826" lon="9.79869794100523">
<ele>442.6</ele>
<time>2023-05-16T09:36:47Z</time>
</trkpt>
<trkpt lat="48.88502494432032" lon="9.798731971532106">
<ele>442.20000000000005</ele>
<time>2023-05-16T09:36:48Z</time>
</trkpt>
<trkpt lat="48.885099962353706" lon="9.798766924068332">
<ele>441.79999999999995</ele>
<time>2023-05-16T09:36:49Z</time>
</trkpt>
<trkpt lat="48.88517498038709" lon="9.79880497790873">
<ele>441.6</ele>
<time>2023-05-16T09:36:50Z</time>
</trkpt>
<trkpt lat="48.885247986763716" lon="9.798849988728762">
<ele>441.20000000000005</ele>
<time>2023-05-16T09:36:51Z</time>
</trkpt>
<trkpt lat="48.88531998731196" lon="9.798882929608226">
<ele>441</ele>
<time>2023-05-16T09:36:52Z</time>
</trkpt>
<trkpt lat="48.88539299368858" lon="9.798909919336438">
<ele>440.6</ele>
<time>2023-05-16T09:36:53Z</time>
</trkpt>
<trkpt lat="48.885466922074556" lon="9.79893296957016">
<ele>440.4</ele>
<time>2023-05-16T09:36:54Z</time>
</trkpt>
<trkpt lat="48.88553992845118" lon="9.798949984833598">
<ele>440</ele>
<time>2023-05-16T09:36:55Z</time>
</trkpt>
<trkpt lat="48.885614946484566" lon="9.798966916278005">
<ele>439.6</ele>
<time>2023-05-16T09:36:56Z</time>
</trkpt>
<trkpt lat="48.88568795286119" lon="9.798981919884682">
<ele>439.4</ele>
<time>2023-05-16T09:36:57Z</time>
</trkpt>
<trkpt lat="48.885761965066195" lon="9.79899499565363">
<ele>439</ele>
<time>2023-05-16T09:36:58Z</time>
</trkpt>
<trkpt lat="48.88583497144282" lon="9.799006981775165">
<ele>438.6</ele>
<time>2023-05-16T09:36:59Z</time>
</trkpt>
<trkpt lat="48.88590697199106" lon="9.7990379948169">
<ele>438.4</ele>
<time>2023-05-16T09:37:00Z</time>
</trkpt>
<trkpt lat="48.885977966710925" lon="9.799072947353125">
<ele>438</ele>
<time>2023-05-16T09:37:01Z</time>
</trkpt>
<trkpt lat="48.88604795560241" lon="9.799112929031253">
<ele>437.79999999999995</ele>
<time>2023-05-16T09:37:02Z</time>
</trkpt>
<trkpt lat="48.88611693866551" lon="9.799159951508045">
<ele>437.4</ele>
<time>2023-05-16T09:37:03Z</time>
</trkpt>
<trkpt lat="48.8861829880625" lon="9.79921292513609">
<ele>437</ele>
<time>2023-05-16T09:37:04Z</time>
</trkpt>
<trkpt lat="48.88624995946884" lon="9.799266988411546">
<ele>436.79999999999995</ele>
<time>2023-05-16T09:37:05Z</time>
</trkpt>
<trkpt lat="48.88631693087518" lon="9.799317950382829">
<ele>436.4</ele>
<time>2023-05-16T09:37:06Z</time>
</trkpt>
<trkpt lat="48.886384991928935" lon="9.799371929839253">
<ele>436</ele>
<time>2023-05-16T09:37:07Z</time>
</trkpt>
<trkpt lat="48.886452969163656" lon="9.799421969801188">
<ele>435.79999999999995</ele>
<time>2023-05-16T09:37:08Z</time>
</trkpt>
<trkpt lat="48.886517928913236" lon="9.79947293177247">
<ele>435.4</ele>
<time>2023-05-16T09:37:09Z</time>
</trkpt>
<trkpt lat="48.88658297248185" lon="9.799529928714037">
<ele>435.20000000000005</ele>
<time>2023-05-16T09:37:10Z</time>
</trkpt>
<trkpt lat="48.886647932231426" lon="9.799581980332732">
<ele>434.79999999999995</ele>
<time>2023-05-16T09:37:11Z</time>
</trkpt>
<trkpt lat="48.88671297580004" lon="9.799631936475635">
<ele>434.6</ele>
<time>2023-05-16T09:37:12Z</time>
</trkpt>
<trkpt lat="48.886774918064475" lon="9.799679964780807">
<ele>434.4</ele>
<time>2023-05-16T09:37:13Z</time>
</trkpt>
<trkpt lat="48.886839961633086" lon="9.79972992092371">
<ele>434</ele>
<time>2023-05-16T09:37:14Z</time>
</trkpt>
<trkpt lat="48.88689796440303" lon="9.799776943400502">
<ele>433.79999999999995</ele>
<time>2023-05-16T09:37:15Z</time>
</trkpt>
<trkpt lat="48.88696292415261" lon="9.799821954220533">
<ele>433.4</ele>
<time>2023-05-16T09:37:16Z</time>
</trkpt>
<trkpt lat="48.887029979377985" lon="9.799861935898662">
<ele>433.20000000000005</ele>
<time>2023-05-16T09:37:17Z</time>
</trkpt>
<trkpt lat="48.887096950784326" lon="9.799906946718693">
<ele>432.79999999999995</ele>
<time>2023-05-16T09:37:18Z</time>
</trkpt>
<trkpt lat="48.88716492801905" lon="9.799947934225202">
<ele>432.6</ele>
<time>2023-05-16T09:37:19Z</time>
</trkpt>
<trkpt lat="48.8872329890728" lon="9.799996968358755">
<ele>432.4</ele>
<time>2023-05-16T09:37:20Z</time>
</trkpt>
<trkpt lat="48.88729794882238" lon="9.800042985007167">
<ele>432</ele>
<time>2023-05-16T09:37:21Z</time>
</trkpt>
<trkpt lat="48.88736299239099" lon="9.800091935321689">
<ele>431.6</ele>
<time>2023-05-16T09:37:22Z</time>
</trkpt>
<trkpt lat="48.88742694631219" lon="9.80013694614172">
<ele>431.20000000000005</ele>
<time>2023-05-16T09:37:23Z</time>
</trkpt>
<trkpt lat="48.8874919898808" lon="9.800177933648229">
<ele>430.79999999999995</ele>
<time>2023-05-16T09:37:24Z</time>
</trkpt>
<trkpt lat="48.88755493797362" lon="9.800211964175105">
<ele>430.20000000000005</ele>
<time>2023-05-16T09:37:25Z</time>
</trkpt>
<trkpt lat="48.88761998154223" lon="9.80024297721684">
<ele>429.79999999999995</ele>
<time>2023-05-16T09:37:26Z</time>
</trkpt>
<trkpt lat="48.88768795877695" lon="9.800272984430194">
<ele>429.4</ele>
<time>2023-05-16T09:37:27Z</time>
</trkpt>
<trkpt lat="48.887761970981956" lon="9.800297962501645">
<ele>429</ele>
<time>2023-05-16T09:37:28Z</time>
</trkpt>
<trkpt lat="48.88783296570182" lon="9.800317995250225">
<ele>428.79999999999995</ele>
<time>2023-05-16T09:37:29Z</time>
</trkpt>
<trkpt lat="48.887907983735204" lon="9.800334926694632">
<ele>428.6</ele>
<time>2023-05-16T09:37:30Z</time>
</trkpt>
<trkpt lat="48.88798291794956" lon="9.800341967493296">
<ele>428.4</ele>
<time>2023-05-16T09:37:31Z</time>
</trkpt>
<trkpt lat="48.888059947639704" lon="9.800339955836535">
<ele>428.20000000000005</ele>
<time>2023-05-16T09:37:32Z</time>
</trkpt>
<trkpt lat="48.88813295401633" lon="9.800327969715">
<ele>428</ele>
<time>2023-05-16T09:37:33Z</time>
</trkpt>
<trkpt lat="48.88820797204971" lon="9.800314977765083">
<ele>427.6</ele>
<time>2023-05-16T09:37:34Z</time>
</trkpt>
<trkpt lat="48.88828491792083" lon="9.800299974158406">
<ele>427.4</ele>
<time>2023-05-16T09:37:35Z</time>
</trkpt>
<trkpt lat="48.888361947610974" lon="9.800282958894968">
<ele>427</ele>
<time>2023-05-16T09:37:36Z</time>
</trkpt>
<trkpt lat="48.8884399831295" lon="9.80026493780315">
<ele>426.79999999999995</ele>
<time>2023-05-16T09:37:37Z</time>
</trkpt>
<trkpt lat="48.888516929000616" lon="9.800247922539711">
<ele>426.4</ele>
<time>2023-05-16T09:37:38Z</time>
</trkpt>
<trkpt lat="48.88859295286238" lon="9.800232918933034">
<ele>426.20000000000005</ele>
<time>2023-05-16T09:37:39Z</time>
</trkpt>
<trkpt lat="48.88866696506739" lon="9.800217999145389">
<ele>425.79999999999995</ele>
<time>2023-05-16T09:37:40Z</time>
</trkpt>
<trkpt lat="48.88873997144401" lon="9.800204923376441">
<ele>425.6</ele>
<time>2023-05-16T09:37:41Z</time>
</trkpt>
<trkpt lat="48.888811971992254" lon="9.800186986103654">
<ele>425.20000000000005</ele>
<time>2023-05-16T09:37:42Z</time>
</trkpt>
<trkpt lat="48.88888196088374" lon="9.800171982496977">
<ele>424.79999999999995</ele>
<time>2023-05-16T09:37:43Z</time>
</trkpt>
<trkpt lat="48.88895496726036" lon="9.800154967233539">
<ele>424.6</ele>
<time>2023-05-16T09:37:44Z</time>
</trkpt>
<trkpt lat="48.889027973636985" lon="9.800139963626862">
<ele>424.20000000000005</ele>
<time>2023-05-16T09:37:45Z</time>
</trkpt>
<trkpt lat="48.8891049195081" lon="9.800122948363423">
<ele>424</ele>
<time>2023-05-16T09:37:46Z</time>
</trkpt>
<trkpt lat="48.889179937541485" lon="9.800106938928366">
<ele>423.79999999999995</ele>
<time>2023-05-16T09:37:47Z</time>
</trkpt>
<trkpt lat="48.88925797306001" lon="9.800089923664927">
<ele>423.4</ele>
<time>2023-05-16T09:37:48Z</time>
</trkpt>
<trkpt lat="48.8893329910934" lon="9.800072992220521">
<ele>423.20000000000005</ele>
<time>2023-05-16T09:37:49Z</time>
</trkpt>
<trkpt lat="48.88940993696451" lon="9.800056982785463">
<ele>422.79999999999995</ele>
<time>2023-05-16T09:37:50Z</time>
</trkpt>
<trkpt lat="48.8894849549979" lon="9.800039967522025">
<ele>422.6</ele>
<time>2023-05-16T09:37:51Z</time>
</trkpt>
<trkpt lat="48.88955796137452" lon="9.800022952258587">
<ele>422.4</ele>
<time>2023-05-16T09:37:52Z</time>
</trkpt>
<trkpt lat="48.889631973579526" lon="9.800002919510007">
<ele>422</ele>
<time>2023-05-16T09:37:53Z</time>
</trkpt>
<trkpt lat="48.88970196247101" lon="9.799986993893981">
<ele>421.79999999999995</ele>
<time>2023-05-16T09:37:54Z</time>
</trkpt>
<trkpt lat="48.88976993970573" lon="9.799969978630543">
<ele>421.6</ele>
<time>2023-05-16T09:37:55Z</time>
</trkpt>
<trkpt lat="48.88983498327434" lon="9.799949945881963">
<ele>421.4</ele>
<time>2023-05-16T09:37:56Z</time>
</trkpt>
<trkpt lat="48.88989994302392" lon="9.799924967810512">
<ele>421.20000000000005</ele>
<time>2023-05-16T09:37:57Z</time>
</trkpt>
<trkpt lat="48.88996297493577" lon="9.79990191757679">
<ele>421.20000000000005</ele>
<time>2023-05-16T09:37:58Z</time>
</trkpt>
<trkpt lat="48.89002298936248" lon="9.799876939505339">
<ele>420.79999999999995</ele>
<time>2023-05-16T09:37:59Z</time>
</trkpt>
<trkpt lat="48.890082919970155" lon="9.79985699057579">
<ele>420.6</ele>
<time>2023-05-16T09:38:00Z</time>
</trkpt>
<trkpt lat="48.89013991691172" lon="9.79983494617045">
<ele>420.4</ele>
<time>2023-05-16T09:38:01Z</time>
</trkpt>
<trkpt lat="48.89019699767232" lon="9.79981298558414">
<ele>420</ele>
<time>2023-05-16T09:38:02Z</time>
</trkpt>
<trkpt lat="48.890251982957125" lon="9.799786917865276">
<ele>419.79999999999995</ele>
<time>2023-05-16T09:38:03Z</time>
</trkpt>
<trkpt lat="48.89030495658517" lon="9.799756994470954">
<ele>419.6</ele>
<time>2023-05-16T09:38:04Z</time>
</trkpt>
<trkpt lat="48.89035692438483" lon="9.799722963944077">
<ele>419.6</ele>
<time>2023-05-16T09:38:05Z</time>
</trkpt>
<trkpt lat="48.89041199348867" lon="9.799689939245582">
<ele>419.4</ele>
<time>2023-05-16T09:38:06Z</time>
</trkpt>
<trkpt lat="48.890466978773475" lon="9.799654986709356">
<ele>419.20000000000005</ele>
<time>2023-05-16T09:38:07Z</time>
</trkpt>
<trkpt lat="48.89052296988666" lon="9.799617938697338">
<ele>419.20000000000005</ele>
<time>2023-05-16T09:38:08Z</time>
</trkpt>
<trkpt lat="48.890577955171466" lon="9.799582986161113">
<ele>419</ele>
<time>2023-05-16T09:38:09Z</time>
</trkpt>
<trkpt lat="48.89063294045627" lon="9.799544932320714">
<ele>419</ele>
<time>2023-05-16T09:38:10Z</time>
</trkpt>
<trkpt lat="48.890686919912696" lon="9.799504950642586">
<ele>419</ele>
<time>2023-05-16T09:38:11Z</time>
</trkpt>
<trkpt lat="48.89073796570301" lon="9.799462957307696">
<ele>419</ele>
<time>2023-05-16T09:38:12Z</time>
</trkpt>
<trkpt lat="48.890791945159435" lon="9.799421969801188">
<ele>418.79999999999995</ele>
<time>2023-05-16T09:38:13Z</time>
</trkpt>
<trkpt lat="48.89084299094975" lon="9.79938693344593">
<ele>419</ele>
<time>2023-05-16T09:38:14Z</time>
</trkpt>
<trkpt lat="48.89089495874941" lon="9.799351980909705">
<ele>419</ele>
<time>2023-05-16T09:38:15Z</time>
</trkpt>
<trkpt lat="48.890942987054586" lon="9.799312921240926">
<ele>419</ele>
<time>2023-05-16T09:38:16Z</time>
</trkpt>
<trkpt lat="48.890984980389476" lon="9.799269922077656">
<ele>419</ele>
<time>2023-05-16T09:38:17Z</time>
</trkpt>
<trkpt lat="48.89101792126894" lon="9.799224995076656">
<ele>419.20000000000005</ele>
<time>2023-05-16T09:38:18Z</time>
</trkpt>
<trkpt lat="48.8910529576242" lon="9.799179984256625">
<ele>419.20000000000005</ele>
<time>2023-05-16T09:38:19Z</time>
</trkpt>
<trkpt lat="48.89108698815107" lon="9.799132961779833">
<ele>419.4</ele>
<time>2023-05-16T09:38:20Z</time>
</trkpt>
<trkpt lat="48.891114983707666" lon="9.799091974273324">
<ele>419.6</ele>
<time>2023-05-16T09:38:21Z</time>
</trkpt>
<trkpt lat="48.89114297926426" lon="9.799047969281673">
<ele>419.6</ele>
<time>2023-05-16T09:38:22Z</time>
</trkpt>
<trkpt lat="48.89116996899247" lon="9.799009999260306">
<ele>419.79999999999995</ele>
<time>2023-05-16T09:38:23Z</time>
</trkpt>
<trkpt lat="48.89119494706392" lon="9.798966916278005">
<ele>419.79999999999995</ele>
<time>2023-05-16T09:38:24Z</time>
</trkpt>
<trkpt lat="48.89122495427728" lon="9.798926934599876">
<ele>420</ele>
<time>2023-05-16T09:38:25Z</time>
</trkpt>
<trkpt lat="48.89125797897577" lon="9.798877984285355">
<ele>420</ele>
<time>2023-05-16T09:38:26Z</time>
</trkpt>
<trkpt lat="48.89128999784589" lon="9.798829955980182">
<ele>420</ele>
<time>2023-05-16T09:38:27Z</time>
</trkpt>
<trkpt lat="48.89131799340248" lon="9.79878293350339">
<ele>420.20000000000005</ele>
<time>2023-05-16T09:38:28Z</time>
</trkpt>
<trkpt lat="48.891352945938706" lon="9.798744963482022">
<ele>420.20000000000005</ele>
<time>2023-05-16T09:38:29Z</time>
</trkpt>
<trkpt lat="48.89138798229396" lon="9.798702970147133">
<ele>420.20000000000005</ele>
<time>2023-05-16T09:38:30Z</time>
</trkpt>
<trkpt lat="48.89142695814371" lon="9.798666927963495">
<ele>420.20000000000005</ele>
<time>2023-05-16T09:38:31Z</time>
</trkpt>
<trkpt lat="48.89146693982184" lon="9.798636920750141">
<ele>420.20000000000005</ele>
<time>2023-05-16T09:38:32Z</time>
</trkpt>
<trkpt lat="48.89150993898511" lon="9.798606997355819">
<ele>420</ele>
<time>2023-05-16T09:38:33Z</time>
</trkpt>
<trkpt lat="48.89154698699713" lon="9.798581935465336">
<ele>420</ele>
<time>2023-05-16T09:38:34Z</time>
</trkpt>
<trkpt lat="48.89158193953335" lon="9.79854991659522">
<ele>420</ele>
<time>2023-05-16T09:38:35Z</time>
</trkpt>
<trkpt lat="48.89162493869662" lon="9.798522926867008">
<ele>420</ele>
<time>2023-05-16T09:38:36Z</time>
</trkpt>
<trkpt lat="48.89166693203151" lon="9.798496942967176">
<ele>420</ele>
<time>2023-05-16T09:38:37Z</time>
</trkpt>
<trkpt lat="48.89170791953802" lon="9.798467941582203">
<ele>420</ele>
<time>2023-05-16T09:38:38Z</time>
</trkpt>
<trkpt lat="48.89174798503518" lon="9.79843994602561">
<ele>420</ele>
<time>2023-05-16T09:38:39Z</time>
</trkpt>
<trkpt lat="48.89178696088493" lon="9.798401976004243">
<ele>420</ele>
<time>2023-05-16T09:38:40Z</time>
</trkpt>
<trkpt lat="48.891822919249535" lon="9.79835495352745">
<ele>420</ele>
<time>2023-05-16T09:38:41Z</time>
</trkpt>
<trkpt lat="48.89185493811965" lon="9.798297956585884">
<ele>420</ele>
<time>2023-05-16T09:38:42Z</time>
</trkpt>
<trkpt lat="48.891887962818146" lon="9.798242971301079">
<ele>420</ele>
<time>2023-05-16T09:38:43Z</time>
</trkpt>
<trkpt lat="48.8919179700315" lon="9.798187986016273">
<ele>420</ele>
<time>2023-05-16T09:38:44Z</time>
</trkpt>
<trkpt lat="48.891947977244854" lon="9.798131994903088">
<ele>420</ele>
<time>2023-05-16T09:38:45Z</time>
</trkpt>
<trkpt lat="48.8919819239527" lon="9.798077931627631">
<ele>420</ele>
<time>2023-05-16T09:38:46Z</time>
</trkpt>
<trkpt lat="48.89200497418642" lon="9.798014983534813">
<ele>420.20000000000005</ele>
<time>2023-05-16T09:38:47Z</time>
</trkpt>
<trkpt lat="48.89202693477273" lon="9.797954969108105">
<ele>420.20000000000005</ele>
<time>2023-05-16T09:38:48Z</time>
</trkpt>
<trkpt lat="48.89204797334969" lon="9.797896966338158">
<ele>420.20000000000005</ele>
<time>2023-05-16T09:38:49Z</time>
</trkpt>
<trkpt lat="48.89206792227924" lon="9.797839969396591">
<ele>420.4</ele>
<time>2023-05-16T09:38:50Z</time>
</trkpt>
<trkpt lat="48.89209499582648" lon="9.797786995768547">
<ele>420.6</ele>
<time>2023-05-16T09:38:51Z</time>
</trkpt>
<trkpt lat="48.89211796224117" lon="9.797737961634994">
<ele>420.79999999999995</ele>
<time>2023-05-16T09:38:52Z</time>
</trkpt>
<trkpt lat="48.89213799498975" lon="9.79768699966371">
<ele>420.79999999999995</ele>
<time>2023-05-16T09:38:53Z</time>
</trkpt>
<trkpt lat="48.89215693809092" lon="9.797632936388254">
<ele>421</ele>
<time>2023-05-16T09:38:54Z</time>
</trkpt>
<trkpt lat="48.89217797666788" lon="9.79757996276021">
<ele>421.20000000000005</ele>
<time>2023-05-16T09:38:55Z</time>
</trkpt>
<trkpt lat="48.89219691976905" lon="9.797526989132166">
<ele>421.20000000000005</ele>
<time>2023-05-16T09:38:56Z</time>
</trkpt>
<trkpt lat="48.892212929204106" lon="9.797466974705458">
<ele>421.4</ele>
<time>2023-05-16T09:38:57Z</time>
</trkpt>
<trkpt lat="48.892229944467545" lon="9.797409977763891">
<ele>421.4</ele>
<time>2023-05-16T09:38:58Z</time>
</trkpt>
<trkpt lat="48.89224695973098" lon="9.797351974993944">
<ele>421.4</ele>
<time>2023-05-16T09:38:59Z</time>
</trkpt>
<trkpt lat="48.89226296916604" lon="9.797291960567236">
<ele>421.4</ele>
<time>2023-05-16T09:39:00Z</time>
</trkpt>
<trkpt lat="48.89227998442948" lon="9.797226916998625">
<ele>421.4</ele>
<time>2023-05-16T09:39:01Z</time>
</trkpt>
<trkpt lat="48.892294988036156" lon="9.797157933935523">
<ele>421.4</ele>
<time>2023-05-16T09:39:02Z</time>
</trkpt>
<trkpt lat="48.89230999164283" lon="9.79708794504404">
<ele>421.4</ele>
<time>2023-05-16T09:39:03Z</time>
</trkpt>
<trkpt lat="48.89232692308724" lon="9.797016950324178">
<ele>421.4</ele>
<time>2023-05-16T09:39:04Z</time>
</trkpt>
<trkpt lat="48.89234695583582" lon="9.796944949775934">
<ele>421.4</ele>
<time>2023-05-16T09:39:05Z</time>
</trkpt>
<trkpt lat="48.89236296527088" lon="9.796874960884452">
<ele>421.4</ele>
<time>2023-05-16T09:39:06Z</time>
</trkpt>
<trkpt lat="48.89237495139241" lon="9.796802960336208">
<ele>421.4</ele>
<time>2023-05-16T09:39:07Z</time>
</trkpt>
<trkpt lat="48.892384925857186" lon="9.796724924817681">
<ele>421.4</ele>
<time>2023-05-16T09:39:08Z</time>
</trkpt>
<trkpt lat="48.89239297248423" lon="9.796644961461425">
<ele>421.4</ele>
<time>2023-05-16T09:39:09Z</time>
</trkpt>
<trkpt lat="48.89239992946386" lon="9.796567931771278">
<ele>421.20000000000005</ele>
<time>2023-05-16T09:39:10Z</time>
</trkpt>
<trkpt lat="48.89240797609091" lon="9.796487968415022">
<ele>421.20000000000005</ele>
<time>2023-05-16T09:39:11Z</time>
</trkpt>
<trkpt lat="48.8924169447273" lon="9.796409932896495">
<ele>421.20000000000005</ele>
<time>2023-05-16T09:39:12Z</time>
</trkpt>
<trkpt lat="48.892422979697585" lon="9.79633298702538">
<ele>421</ele>
<time>2023-05-16T09:39:13Z</time>
</trkpt>
<trkpt lat="48.892424991354346" lon="9.796254951506853">
<ele>421</ele>
<time>2023-05-16T09:39:14Z</time>
</trkpt>
<trkpt lat="48.892427925020456" lon="9.796181945130229">
<ele>420.79999999999995</ele>
<time>2023-05-16T09:39:15Z</time>
</trkpt>
<trkpt lat="48.89243496581912" lon="9.796107932925224">
<ele>420.79999999999995</ele>
<time>2023-05-16T09:39:16Z</time>
</trkpt>
<trkpt lat="48.89243999496102" lon="9.796036938205361">
<ele>420.79999999999995</ele>
<time>2023-05-16T09:39:17Z</time>
</trkpt>
<trkpt lat="48.892446951940656" lon="9.795961920171976">
<ele>420.79999999999995</ele>
<time>2023-05-16T09:39:18Z</time>
</trkpt>
<trkpt lat="48.8924549985677" lon="9.795889919623733">
<ele>420.6</ele>
<time>2023-05-16T09:39:19Z</time>
</trkpt>
<trkpt lat="48.89246296137571" lon="9.795821942389011">
<ele>420.6</ele>
<time>2023-05-16T09:39:20Z</time>
</trkpt>
<trkpt lat="48.89247494749725" lon="9.79575295932591">
<ele>420.6</ele>
<time>2023-05-16T09:39:21Z</time>
</trkpt>
<trkpt lat="48.892487939447165" lon="9.795684982091188">
<ele>420.4</ele>
<time>2023-05-16T09:39:22Z</time>
</trkpt>
<trkpt lat="48.89249799773097" lon="9.795616921037436">
<ele>420.4</ele>
<time>2023-05-16T09:39:23Z</time>
</trkpt>
<trkpt lat="48.89251199550927" lon="9.795547937974334">
<ele>420.4</ele>
<time>2023-05-16T09:39:24Z</time>
</trkpt>
<trkpt lat="48.892529932782054" lon="9.79547694325447">
<ele>420.4</ele>
<time>2023-05-16T09:39:25Z</time>
</trkpt>
<trkpt lat="48.892549965530634" lon="9.795397985726595">
<ele>420.4</ele>
<time>2023-05-16T09:39:26Z</time>
</trkpt>
<trkpt lat="48.892572931945324" lon="9.795316932722926">
<ele>420.20000000000005</ele>
<time>2023-05-16T09:39:27Z</time>
</trkpt>
<trkpt lat="48.89260293915868" lon="9.795229928568006">
<ele>420.20000000000005</ele>
<time>2023-05-16T09:39:28Z</time>
</trkpt>
<trkpt lat="48.89263495802879" lon="9.795141918584704">
<ele>420.20000000000005</ele>
<time>2023-05-16T09:39:29Z</time>
</trkpt>
<trkpt lat="48.89266697689891" lon="9.795054998248816">
<ele>420.20000000000005</ele>
<time>2023-05-16T09:39:30Z</time>
</trkpt>
<trkpt lat="48.89269798994064" lon="9.794969921931624">
<ele>420.20000000000005</ele>
<time>2023-05-16T09:39:31Z</time>
</trkpt>
<trkpt lat="48.892727997154" lon="9.794887946918607">
<ele>420.20000000000005</ele>
<time>2023-05-16T09:39:32Z</time>
</trkpt>
<trkpt lat="48.89275792054832" lon="9.79480697773397">
<ele>420.20000000000005</ele>
<time>2023-05-16T09:39:33Z</time>
</trkpt>
<trkpt lat="48.89278692193329" lon="9.794726930558681">
<ele>420.20000000000005</ele>
<time>2023-05-16T09:39:34Z</time>
</trkpt>
<trkpt lat="48.89281298965216" lon="9.794649984687567">
<ele>420.20000000000005</ele>
<time>2023-05-16T09:39:35Z</time>
</trkpt>
<trkpt lat="48.89283997938037" lon="9.794576978310943">
<ele>420.20000000000005</ele>
<time>2023-05-16T09:39:36Z</time>
</trkpt>
<trkpt lat="48.89286495745182" lon="9.79450992308557">
<ele>420.20000000000005</ele>
<time>2023-05-16T09:39:37Z</time>
</trkpt>
<trkpt lat="48.89289194718003" lon="9.794444963335991">
<ele>420.20000000000005</ele>
<time>2023-05-16T09:39:38Z</time>
</trkpt>
<trkpt lat="48.892916925251484" lon="9.79437799192965">
<ele>420.20000000000005</ele>
<time>2023-05-16T09:39:39Z</time>
</trkpt>
<trkpt lat="48.89294198714197" lon="9.79431294836104">
<ele>420.20000000000005</ele>
<time>2023-05-16T09:39:40Z</time>
</trkpt>
<trkpt lat="48.89296495355666" lon="9.79424798861146">
<ele>420.20000000000005</ele>
<time>2023-05-16T09:39:41Z</time>
</trkpt>
<trkpt lat="48.89298993162811" lon="9.794186968356371">
<ele>420.20000000000005</ele>
<time>2023-05-16T09:39:42Z</time>
</trkpt>
<trkpt lat="48.89301499351859" lon="9.794126953929663">
<ele>420.20000000000005</ele>
<time>2023-05-16T09:39:43Z</time>
</trkpt>
<trkpt lat="48.8930369541049" lon="9.794066939502954">
<ele>420.20000000000005</ele>
<time>2023-05-16T09:39:44Z</time>
</trkpt>
<trkpt lat="48.89306193217635" lon="9.794007930904627">
<ele>420.20000000000005</ele>
<time>2023-05-16T09:39:45Z</time>
</trkpt>
<trkpt lat="48.893086994066834" lon="9.793947916477919">
<ele>420.20000000000005</ele>
<time>2023-05-16T09:39:46Z</time>
</trkpt>
<trkpt lat="48.893109960481524" lon="9.793886980041862">
<ele>420.20000000000005</ele>
<time>2023-05-16T09:39:47Z</time>
</trkpt>
<trkpt lat="48.893134938552976" lon="9.793826965615153">
<ele>420.20000000000005</ele>
<time>2023-05-16T09:39:48Z</time>
</trkpt>
<trkpt lat="48.8931579887867" lon="9.793766951188445">
<ele>420.20000000000005</ele>
<time>2023-05-16T09:39:49Z</time>
</trkpt>
<trkpt lat="48.89318196102977" lon="9.793704925104976">
<ele>420.20000000000005</ele>
<time>2023-05-16T09:39:50Z</time>
</trkpt>
<trkpt lat="48.89320492744446" lon="9.793641977012157">
<ele>420.20000000000005</ele>
<time>2023-05-16T09:39:51Z</time>
</trkpt>
<trkpt lat="48.8932269718498" lon="9.793577939271927">
<ele>420.20000000000005</ele>
<time>2023-05-16T09:39:52Z</time>
</trkpt>
<trkpt lat="48.89324792660773" lon="9.793516919016838">
<ele>420.20000000000005</ele>
<time>2023-05-16T09:39:53Z</time>
</trkpt>
<trkpt lat="48.89327298849821" lon="9.793457994237542">
<ele>420.20000000000005</ele>
<time>2023-05-16T09:39:54Z</time>
</trkpt>
<trkpt lat="48.89329796656966" lon="9.793399991467595">
<ele>420.20000000000005</ele>
<time>2023-05-16T09:39:55Z</time>
</trkpt>
<trkpt lat="48.893326967954636" lon="9.793341988697648">
<ele>420.20000000000005</ele>
<time>2023-05-16T09:39:56Z</time>
</trkpt>
<trkpt lat="48.89335496351123" lon="9.79328298009932">
<ele>420.20000000000005</ele>
<time>2023-05-16T09:39:57Z</time>
</trkpt>
<trkpt lat="48.89338195323944" lon="9.793224977329373">
<ele>420.20000000000005</ele>
<time>2023-05-16T09:39:58Z</time>
</trkpt>
<trkpt lat="48.89340793713927" lon="9.793167980387807">
<ele>420.20000000000005</ele>
<time>2023-05-16T09:39:59Z</time>
</trkpt>
<trkpt lat="48.89343794435263" lon="9.793111989274621">
<ele>420.20000000000005</ele>
<time>2023-05-16T09:40:00Z</time>
</trkpt>
<trkpt lat="48.89346795156598" lon="9.793056920170784">
<ele>420.20000000000005</ele>
<time>2023-05-16T09:40:01Z</time>
</trkpt>
<trkpt lat="48.893497958779335" lon="9.793001934885979">
<ele>420.20000000000005</ele>
<time>2023-05-16T09:40:02Z</time>
</trkpt>
<trkpt lat="48.89352997764945" lon="9.792944937944412">
<ele>420.20000000000005</ele>
<time>2023-05-16T09:40:03Z</time>
</trkpt>
<trkpt lat="48.893559984862804" lon="9.792889952659607">
<ele>420.20000000000005</ele>
<time>2023-05-16T09:40:04Z</time>
</trkpt>
<trkpt lat="48.89359191991389" lon="9.792836979031563">
<ele>420.20000000000005</ele>
<time>2023-05-16T09:40:05Z</time>
</trkpt>
<trkpt lat="48.89362293295562" lon="9.792782999575138">
<ele>420.20000000000005</ele>
<time>2023-05-16T09:40:06Z</time>
</trkpt>
<trkpt lat="48.8936569634825" lon="9.792732959613204">
<ele>420.20000000000005</ele>
<time>2023-05-16T09:40:07Z</time>
</trkpt>
<trkpt lat="48.893689988180995" lon="9.79268291965127">
<ele>420.20000000000005</ele>
<time>2023-05-16T09:40:08Z</time>
</trkpt>
<trkpt lat="48.89372494071722" lon="9.79263698682189">
<ele>420.4</ele>
<time>2023-05-16T09:40:09Z</time>
</trkpt>
<trkpt lat="48.89376299455762" lon="9.792591976001859">
<ele>420.4</ele>
<time>2023-05-16T09:40:10Z</time>
</trkpt>
<trkpt lat="48.89380197040737" lon="9.792546965181828">
<ele>420.4</ele>
<time>2023-05-16T09:40:11Z</time>
</trkpt>
<trkpt lat="48.893839940428734" lon="9.792502960190177">
<ele>420.4</ele>
<time>2023-05-16T09:40:12Z</time>
</trkpt>
<trkpt lat="48.89387698844075" lon="9.792457949370146">
<ele>420.4</ele>
<time>2023-05-16T09:40:13Z</time>
</trkpt>
<trkpt lat="48.89391294680536" lon="9.792414950206876">
<ele>420.4</ele>
<time>2023-05-16T09:40:14Z</time>
</trkpt>
<trkpt lat="48.893949994817376" lon="9.792371951043606">
<ele>420.4</ele>
<time>2023-05-16T09:40:15Z</time>
</trkpt>
<trkpt lat="48.89398796483874" lon="9.792329957708716">
<ele>420.6</ele>
<time>2023-05-16T09:40:16Z</time>
</trkpt>
<trkpt lat="48.89402995817363" lon="9.79229198768735">
<ele>420.6</ele>
<time>2023-05-16T09:40:17Z</time>
</trkpt>
<trkpt lat="48.89406993985176" lon="9.792254939675331">
<ele>420.6</ele>
<time>2023-05-16T09:40:18Z</time>
</trkpt>
<trkpt lat="48.89410992152989" lon="9.792217975482345">
<ele>420.6</ele>
<time>2023-05-16T09:40:19Z</time>
</trkpt>
<trkpt lat="48.89414998702705" lon="9.792182939127088">
<ele>420.6</ele>
<time>2023-05-16T09:40:20Z</time>
</trkpt>
<trkpt lat="48.894187957048416" lon="9.792149998247623">
<ele>420.6</ele>
<time>2023-05-16T09:40:21Z</time>
</trkpt>
<trkpt lat="48.894226932898164" lon="9.792114961892366">
<ele>420.79999999999995</ele>
<time>2023-05-16T09:40:22Z</time>
</trkpt>
<trkpt lat="48.894266998395324" lon="9.79207992553711">
<ele>420.79999999999995</ele>
<time>2023-05-16T09:40:23Z</time>
</trkpt>
<trkpt lat="48.89430698007345" lon="9.792046984657645">
<ele>420.79999999999995</ele>
<time>2023-05-16T09:40:24Z</time>
</trkpt>
<trkpt lat="48.89434997923672" lon="9.79201496578753">
<ele>420.79999999999995</ele>
<time>2023-05-16T09:40:25Z</time>
</trkpt>
<trkpt lat="48.89439197257161" lon="9.791981941089034">
<ele>421</ele>
<time>2023-05-16T09:40:26Z</time>
</trkpt>
<trkpt lat="48.89443195424974" lon="9.791946988552809">
<ele>421</ele>
<time>2023-05-16T09:40:27Z</time>
</trkpt>
<trkpt lat="48.89446992427111" lon="9.79190994054079">
<ele>421</ele>
<time>2023-05-16T09:40:28Z</time>
</trkpt>
<trkpt lat="48.894507978111506" lon="9.791874988004565">
<ele>421</ele>
<time>2023-05-16T09:40:29Z</time>
</trkpt>
<trkpt lat="48.89454695396125" lon="9.791837939992547">
<ele>421</ele>
<time>2023-05-16T09:40:30Z</time>
</trkpt>
<trkpt lat="48.89458492398262" lon="9.791804999113083">
<ele>421.20000000000005</ele>
<time>2023-05-16T09:40:31Z</time>
</trkpt>
<trkpt lat="48.89462297782302" lon="9.791766945272684">
<ele>421.20000000000005</ele>
<time>2023-05-16T09:40:32Z</time>
</trkpt>
<trkpt lat="48.894659942016006" lon="9.791727969422936">
<ele>421.20000000000005</ele>
<time>2023-05-16T09:40:33Z</time>
</trkpt>
<trkpt lat="48.894697995856404" lon="9.791687987744808">
<ele>421.20000000000005</ele>
<time>2023-05-16T09:40:34Z</time>
</trkpt>
<trkpt lat="48.89473697170615" lon="9.791644988581538">
<ele>421.20000000000005</ele>
<time>2023-05-16T09:40:35Z</time>
</trkpt>
<trkpt lat="48.89477494172752" lon="9.791597966104746">
<ele>421.20000000000005</ele>
<time>2023-05-16T09:40:36Z</time>
</trkpt>
<trkpt lat="48.89481198973954" lon="9.791551949456334">
<ele>421.20000000000005</ele>
<time>2023-05-16T09:40:37Z</time>
</trkpt>
<trkpt lat="48.89484794810414" lon="9.791506938636303">
<ele>421.20000000000005</ele>
<time>2023-05-16T09:40:38Z</time>
</trkpt>
<trkpt lat="48.89488692395389" lon="9.791459999978542">
<ele>421.4</ele>
<time>2023-05-16T09:40:39Z</time>
</trkpt>
<trkpt lat="48.89492196030915" lon="9.79141297750175">
<ele>421.4</ele>
<time>2023-05-16T09:40:40Z</time>
</trkpt>
<trkpt lat="48.894957918673754" lon="9.791362937539816">
<ele>421.4</ele>
<time>2023-05-16T09:40:41Z</time>
</trkpt>
<trkpt lat="48.89499295502901" lon="9.791316920891404">
<ele>421.4</ele>
<time>2023-05-16T09:40:42Z</time>
</trkpt>
<trkpt lat="48.895029919222" lon="9.791269982233644">
<ele>421.6</ele>
<time>2023-05-16T09:40:43Z</time>
</trkpt>
<trkpt lat="48.895064955577254" lon="9.791222959756851">
<ele>421.6</ele>
<time>2023-05-16T09:40:44Z</time>
</trkpt>
<trkpt lat="48.89509999193251" lon="9.791172919794917">
<ele>421.6</ele>
<time>2023-05-16T09:40:45Z</time>
</trkpt>
<trkpt lat="48.89513494446874" lon="9.791124975308776">
<ele>421.6</ele>
<time>2023-05-16T09:40:46Z</time>
</trkpt>
<trkpt lat="48.89516796916723" lon="9.791074935346842">
<ele>421.6</ele>
<time>2023-05-16T09:40:47Z</time>
</trkpt>
<trkpt lat="48.89520292170346" lon="9.7910269908607">
<ele>421.6</ele>
<time>2023-05-16T09:40:48Z</time>
</trkpt>
<trkpt lat="48.895236952230334" lon="9.790977956727147">
<ele>421.6</ele>
<time>2023-05-16T09:40:49Z</time>
</trkpt>
<trkpt lat="48.89526796527207" lon="9.790929928421974">
<ele>421.6</ele>
<time>2023-05-16T09:40:50Z</time>
</trkpt>
<trkpt lat="48.89529797248542" lon="9.790882989764214">
<ele>421.6</ele>
<time>2023-05-16T09:40:51Z</time>
</trkpt>
<trkpt lat="48.89533191919327" lon="9.790836973115802">
<ele>421.6</ele>
<time>2023-05-16T09:40:52Z</time>
</trkpt>
<trkpt lat="48.895362932235" lon="9.790781987830997">
<ele>421.6</ele>
<time>2023-05-16T09:40:53Z</time>
</trkpt>
<trkpt lat="48.89539696276188" lon="9.79072792455554">
<ele>421.6</ele>
<time>2023-05-16T09:40:54Z</time>
</trkpt>
<trkpt lat="48.89542696997523" lon="9.790674950927496">
<ele>421.6</ele>
<time>2023-05-16T09:40:55Z</time>
</trkpt>
<trkpt lat="48.89545697718859" lon="9.790624994784594">
<ele>421.6</ele>
<time>2023-05-16T09:40:56Z</time>
</trkpt>
<trkpt lat="48.89549192972481" lon="9.79057495482266">
<ele>421.6</ele>
<time>2023-05-16T09:40:57Z</time>
</trkpt>
<trkpt lat="48.89552797190845" lon="9.790524998679757">
<ele>421.79999999999995</ele>
<time>2023-05-16T09:40:58Z</time>
</trkpt>
<trkpt lat="48.895561918616295" lon="9.790477976202965">
<ele>421.79999999999995</ele>
<time>2023-05-16T09:40:59Z</time>
</trkpt>
<trkpt lat="48.89559695497155" lon="9.790439922362566">
<ele>421.79999999999995</ele>
<time>2023-05-16T09:41:00Z</time>
</trkpt>
<trkpt lat="48.89563199132681" lon="9.790397929027677">
<ele>421.79999999999995</ele>
<time>2023-05-16T09:41:01Z</time>
</trkpt>
<trkpt lat="48.895669961348176" lon="9.79036197066307">
<ele>421.79999999999995</ele>
<time>2023-05-16T09:41:02Z</time>
</trkpt>
<trkpt lat="48.89570692554116" lon="9.790322994813323">
<ele>421.79999999999995</ele>
<time>2023-05-16T09:41:03Z</time>
</trkpt>
<trkpt lat="48.8957429677248" lon="9.790276978164911">
<ele>421.79999999999995</ele>
<time>2023-05-16T09:41:04Z</time>
</trkpt>
<trkpt lat="48.89578194357455" lon="9.790229955688119">
<ele>421.79999999999995</ele>
<time>2023-05-16T09:41:05Z</time>
</trkpt>
<trkpt lat="48.895821925252676" lon="9.790186956524849">
<ele>421.79999999999995</ele>
<time>2023-05-16T09:41:06Z</time>
</trkpt>
<trkpt lat="48.895859979093075" lon="9.79014496318996">
<ele>421.79999999999995</ele>
<time>2023-05-16T09:41:07Z</time>
</trkpt>
<trkpt lat="48.89589794911444" lon="9.790106993168592">
<ele>421.79999999999995</ele>
<time>2023-05-16T09:41:08Z</time>
</trkpt>
<trkpt lat="48.89593793079257" lon="9.790071956813335">
<ele>421.79999999999995</ele>
<time>2023-05-16T09:41:09Z</time>
</trkpt>
<trkpt lat="48.89597699046135" lon="9.790031975135207">
<ele>421.79999999999995</ele>
<time>2023-05-16T09:41:10Z</time>
</trkpt>
<trkpt lat="48.89601697213948" lon="9.789994927123189">
<ele>421.79999999999995</ele>
<time>2023-05-16T09:41:11Z</time>
</trkpt>
<trkpt lat="48.896054942160845" lon="9.789956957101822">
<ele>421.79999999999995</ele>
<time>2023-05-16T09:41:12Z</time>
</trkpt>
<trkpt lat="48.896092996001244" lon="9.789921920746565">
<ele>421.79999999999995</ele>
<time>2023-05-16T09:41:13Z</time>
</trkpt>
<trkpt lat="48.89613197185099" lon="9.789884956553578">
<ele>421.79999999999995</ele>
<time>2023-05-16T09:41:14Z</time>
</trkpt>
<trkpt lat="48.8961679302156" lon="9.78984497487545">
<ele>421.79999999999995</ele>
<time>2023-05-16T09:41:15Z</time>
</trkpt>
<trkpt lat="48.89620698988438" lon="9.789807926863432">
<ele>421.79999999999995</ele>
<time>2023-05-16T09:41:16Z</time>
</trkpt>
<trkpt lat="48.89624294824898" lon="9.789771968498826">
<ele>421.79999999999995</ele>
<time>2023-05-16T09:41:17Z</time>
</trkpt>
<trkpt lat="48.89628292992711" lon="9.789734920486808">
<ele>421.79999999999995</ele>
<time>2023-05-16T09:41:18Z</time>
</trkpt>
<trkpt lat="48.89632299542427" lon="9.789699967950583">
<ele>422</ele>
<time>2023-05-16T09:41:19Z</time>
</trkpt>
<trkpt lat="48.89636498875916" lon="9.789662919938564">
<ele>422</ele>
<time>2023-05-16T09:41:20Z</time>
</trkpt>
<trkpt lat="48.89640497043729" lon="9.789624949917197">
<ele>422</ele>
<time>2023-05-16T09:41:21Z</time>
</trkpt>
<trkpt lat="48.896441934630275" lon="9.78958697989583">
<ele>422</ele>
<time>2023-05-16T09:41:22Z</time>
</trkpt>
<trkpt lat="48.896479988470674" lon="9.789549931883812">
<ele>422</ele>
<time>2023-05-16T09:41:23Z</time>
</trkpt>
<trkpt lat="48.89652198180556" lon="9.789509950205684">
<ele>422.20000000000005</ele>
<time>2023-05-16T09:41:24Z</time>
</trkpt>
<trkpt lat="48.89656196348369" lon="9.789472986012697">
<ele>422.20000000000005</ele>
<time>2023-05-16T09:41:25Z</time>
</trkpt>
<trkpt lat="48.89659993350506" lon="9.789429986849427">
<ele>422.20000000000005</ele>
<time>2023-05-16T09:41:26Z</time>
</trkpt>
<trkpt lat="48.896634969860315" lon="9.789384976029396">
<ele>422.20000000000005</ele>
<time>2023-05-16T09:41:27Z</time>
</trkpt>
<trkpt lat="48.89666698873043" lon="9.789339965209365">
<ele>422.20000000000005</ele>
<time>2023-05-16T09:41:28Z</time>
</trkpt>
<trkpt lat="48.89669498428702" lon="9.789297971874475">
<ele>422.20000000000005</ele>
<time>2023-05-16T09:41:29Z</time>
</trkpt>
<trkpt lat="48.89673194848001" lon="9.78924692608416">
<ele>422.20000000000005</ele>
<time>2023-05-16T09:41:30Z</time>
</trkpt>
<trkpt lat="48.89676991850138" lon="9.789197975769639">
<ele>422.20000000000005</ele>
<time>2023-05-16T09:41:31Z</time>
</trkpt>
<trkpt lat="48.896806966513395" lon="9.789147935807705">
<ele>422.20000000000005</ele>
<time>2023-05-16T09:41:32Z</time>
</trkpt>
<trkpt lat="48.89683999121189" lon="9.789101919159293">
<ele>422.20000000000005</ele>
<time>2023-05-16T09:41:33Z</time>
</trkpt>
<trkpt lat="48.896872932091355" lon="9.789056992158294">
<ele>422.4</ele>
<time>2023-05-16T09:41:34Z</time>
</trkpt>
<trkpt lat="48.89690998010337" lon="9.789012987166643">
<ele>422.4</ele>
<time>2023-05-16T09:41:35Z</time>
</trkpt>
<trkpt lat="48.8969449326396" lon="9.78896495886147">
<ele>422.4</ele>
<time>2023-05-16T09:41:36Z</time>
</trkpt>
<trkpt lat="48.89698499813676" lon="9.788916930556297">
<ele>422.4</ele>
<time>2023-05-16T09:41:37Z</time>
</trkpt>
<trkpt lat="48.897019950672984" lon="9.788864962756634">
<ele>422.4</ele>
<time>2023-05-16T09:41:38Z</time>
</trkpt>
<trkpt lat="48.89705498702824" lon="9.788809977471828">
<ele>422.4</ele>
<time>2023-05-16T09:41:39Z</time>
</trkpt>
<trkpt lat="48.89708993956447" lon="9.788761949166656">
<ele>422.4</ele>
<time>2023-05-16T09:41:40Z</time>
</trkpt>
<trkpt lat="48.89712296426296" lon="9.788712998852134">
<ele>422.4</ele>
<time>2023-05-16T09:41:41Z</time>
</trkpt>
<trkpt lat="48.89715791679919" lon="9.788671927526593">
<ele>422.4</ele>
<time>2023-05-16T09:41:42Z</time>
</trkpt>
<trkpt lat="48.897191947326064" lon="9.788627922534943">
<ele>422.4</ele>
<time>2023-05-16T09:41:43Z</time>
</trkpt>
<trkpt lat="48.89722497202456" lon="9.788587940856814">
<ele>422.4</ele>
<time>2023-05-16T09:41:44Z</time>
</trkpt>
<trkpt lat="48.897256990894675" lon="9.788544941693544">
<ele>422.4</ele>
<time>2023-05-16T09:41:45Z</time>
</trkpt>
<trkpt lat="48.89728993177414" lon="9.788501942530274">
<ele>422.4</ele>
<time>2023-05-16T09:41:46Z</time>
</trkpt>
<trkpt lat="48.897324968129396" lon="9.788452992215753">
<ele>422.6</ele>
<time>2023-05-16T09:41:47Z</time>
</trkpt>
<trkpt lat="48.89735992066562" lon="9.788409993052483">
<ele>422.6</ele>
<time>2023-05-16T09:41:48Z</time>
</trkpt>
<trkpt lat="48.89739696867764" lon="9.788371939212084">
<ele>422.6</ele>
<time>2023-05-16T09:41:49Z</time>
</trkpt>
<trkpt lat="48.897432927042246" lon="9.788339920341969">
<ele>422.6</ele>
<time>2023-05-16T09:41:50Z</time>
</trkpt>
<trkpt lat="48.8974679633975" lon="9.788304967805743">
<ele>422.6</ele>
<time>2023-05-16T09:41:51Z</time>
</trkpt>
<trkpt lat="48.89750199392438" lon="9.788272948935628">
<ele>422.6</ele>
<time>2023-05-16T09:41:52Z</time>
</trkpt>
<trkpt lat="48.8975319173187" lon="9.788244953379035">
<ele>422.6</ele>
<time>2023-05-16T09:41:53Z</time>
</trkpt>
<trkpt lat="48.8975649420172" lon="9.78821192868054">
<ele>422.6</ele>
<time>2023-05-16T09:41:54Z</time>
</trkpt>
<trkpt lat="48.897599978372455" lon="9.788182927295566">
<ele>422.6</ele>
<time>2023-05-16T09:41:55Z</time>
</trkpt>
<trkpt lat="48.89762797392905" lon="9.788166917860508">
<ele>422.6</ele>
<time>2023-05-16T09:41:56Z</time>
</trkpt>
<trkpt lat="48.897664938122034" lon="9.788152920082211">
<ele>422.6</ele>
<time>2023-05-16T09:41:57Z</time>
</trkpt>
<trkpt lat="48.89771497808397" lon="9.78812693618238">
<ele>422.6</ele>
<time>2023-05-16T09:41:58Z</time>
</trkpt>
<trkpt lat="48.89776292257011" lon="9.788106987252831">
<ele>422.6</ele>
<time>2023-05-16T09:41:59Z</time>
</trkpt>
<trkpt lat="48.897814974188805" lon="9.788086954504251">
<ele>422.6</ele>
<time>2023-05-16T09:42:00Z</time>
</trkpt>
<trkpt lat="48.8978619966656" lon="9.788066921755672">
<ele>422.6</ele>
<time>2023-05-16T09:42:01Z</time>
</trkpt>
<trkpt lat="48.8979119528085" lon="9.788051918148994">
<ele>422.6</ele>
<time>2023-05-16T09:42:02Z</time>
</trkpt>
<trkpt lat="48.89795998111367" lon="9.78803993202746">
<ele>422.6</ele>
<time>2023-05-16T09:42:03Z</time>
</trkpt>
<trkpt lat="48.89800298027694" lon="9.788024928420782">
<ele>422.6</ele>
<time>2023-05-16T09:42:04Z</time>
</trkpt>
<trkpt lat="48.89804799109697" lon="9.788004979491234">
<ele>422.6</ele>
<time>2023-05-16T09:42:05Z</time>
</trkpt>
<trkpt lat="48.89809995889664" lon="9.788004979491234">
<ele>422.6</ele>
<time>2023-05-16T09:42:06Z</time>
</trkpt>
<trkpt lat="48.89814698137343" lon="9.78799693286419">
<ele>422.6</ele>
<time>2023-05-16T09:42:07Z</time>
</trkpt>
<trkpt lat="48.89818796887994" lon="9.787986958399415">
<ele>422.6</ele>
<time>2023-05-16T09:42:08Z</time>
</trkpt>
<trkpt lat="48.898226944729686" lon="9.787972960621119">
<ele>422.6</ele>
<time>2023-05-16T09:42:09Z</time>
</trkpt>
<trkpt lat="48.89826298691332" lon="9.7879549395293">
<ele>422.6</ele>
<time>2023-05-16T09:42:10Z</time>
</trkpt>
<trkpt lat="48.898309925571084" lon="9.787941947579384">
<ele>422.6</ele>
<time>2023-05-16T09:42:11Z</time>
</trkpt>
<trkpt lat="48.898349991068244" lon="9.787944965064526">
<ele>422.6</ele>
<time>2023-05-16T09:42:12Z</time>
</trkpt>
<trkpt lat="48.898396929726005" lon="9.78793197311461">
<ele>422.6</ele>
<time>2023-05-16T09:42:13Z</time>
</trkpt>
<trkpt lat="48.898442946374416" lon="9.78793197311461">
<ele>422.6</ele>
<time>2023-05-16T09:42:14Z</time>
</trkpt>
<trkpt lat="48.89848695136607" lon="9.787916969507933">
<ele>422.6</ele>
<time>2023-05-16T09:42:15Z</time>
</trkpt>
<trkpt lat="48.8985319621861" lon="9.787906995043159">
<ele>422.79999999999995</ele>
<time>2023-05-16T09:42:16Z</time>
</trkpt>
<trkpt lat="48.89857294969261" lon="9.787891991436481">
<ele>422.79999999999995</ele>
<time>2023-05-16T09:42:17Z</time>
</trkpt>
<trkpt lat="48.89861796051264" lon="9.787872964516282">
<ele>422.79999999999995</ele>
<time>2023-05-16T09:42:18Z</time>
</trkpt>
<trkpt lat="48.89866196550429" lon="9.787859972566366">
<ele>423</ele>
<time>2023-05-16T09:42:19Z</time>
</trkpt>
<trkpt lat="48.8987079821527" lon="9.787847986444831">
<ele>423</ele>
<time>2023-05-16T09:42:20Z</time>
</trkpt>
<trkpt lat="48.89875492081046" lon="9.787831977009773">
<ele>423</ele>
<time>2023-05-16T09:42:21Z</time>
</trkpt>
<trkpt lat="48.89879993163049" lon="9.787811944261193">
<ele>423</ele>
<time>2023-05-16T09:42:22Z</time>
</trkpt>
<trkpt lat="48.89883999712765" lon="9.787792917340994">
<ele>423.20000000000005</ele>
<time>2023-05-16T09:42:23Z</time>
</trkpt>
<trkpt lat="48.89887997880578" lon="9.787776991724968">
<ele>423.20000000000005</ele>
<time>2023-05-16T09:42:24Z</time>
</trkpt>
<trkpt lat="48.89892297796905" lon="9.787771962583065">
<ele>423.20000000000005</ele>
<time>2023-05-16T09:42:25Z</time>
</trkpt>
<trkpt lat="48.89897192828357" lon="9.787762993946671">
<ele>423.20000000000005</ele>
<time>2023-05-16T09:42:26Z</time>
</trkpt>
<trkpt lat="48.8990169391036" lon="9.787742961198092">
<ele>423.20000000000005</ele>
<time>2023-05-16T09:42:27Z</time>
</trkpt>
<trkpt lat="48.899061949923635" lon="9.787711948156357">
<ele>423.20000000000005</ele>
<time>2023-05-16T09:42:28Z</time>
</trkpt>
<trkpt lat="48.89909799210727" lon="9.787692921236157">
<ele>423.4</ele>
<time>2023-05-16T09:42:29Z</time>
</trkpt>
<trkpt lat="48.89913696795702" lon="9.787651933729649">
<ele>423.4</ele>
<time>2023-05-16T09:42:30Z</time>
</trkpt>
<trkpt lat="48.899171920493245" lon="9.787607928737998">
<ele>423.4</ele>
<time>2023-05-16T09:42:31Z</time>
</trkpt>
<trkpt lat="48.8992069568485" lon="9.787564929574728">
<ele>423.4</ele>
<time>2023-05-16T09:42:32Z</time>
</trkpt>
<trkpt lat="48.899257918819785" lon="9.787521930411458">
<ele>423.4</ele>
<time>2023-05-16T09:42:33Z</time>
</trkpt>
<trkpt lat="48.899297984316945" lon="9.787487983703613">
<ele>423.4</ele>
<time>2023-05-16T09:42:34Z</time>
</trkpt>
<trkpt lat="48.89933696016669" lon="9.787451941519976">
<ele>423.4</ele>
<time>2023-05-16T09:42:35Z</time>
</trkpt>
<trkpt lat="48.89937694184482" lon="9.787411959841847">
<ele>423.4</ele>
<time>2023-05-16T09:42:36Z</time>
</trkpt>
<trkpt lat="48.89942295849323" lon="9.78737197816372">
<ele>423.4</ele>
<time>2023-05-16T09:42:37Z</time>
</trkpt>
<trkpt lat="48.89945992268622" lon="9.787326967343688">
<ele>423.4</ele>
<time>2023-05-16T09:42:38Z</time>
</trkpt>
<trkpt lat="48.89950493350625" lon="9.787281956523657">
<ele>423.4</ele>
<time>2023-05-16T09:42:39Z</time>
</trkpt>
<trkpt lat="48.89954692684114" lon="9.787237951532006">
<ele>423.4</ele>
<time>2023-05-16T09:42:40Z</time>
</trkpt>
<trkpt lat="48.899596966803074" lon="9.78719998151064">
<ele>423.4</ele>
<time>2023-05-16T09:42:41Z</time>
</trkpt>
<trkpt lat="48.899639965966344" lon="9.787159999832511">
<ele>423.4</ele>
<time>2023-05-16T09:42:42Z</time>
</trkpt>
<trkpt lat="48.89967793598771" lon="9.78711498901248">
<ele>423.4</ele>
<time>2023-05-16T09:42:43Z</time>
</trkpt>
<trkpt lat="48.89971498399973" lon="9.787067966535687">
<ele>423.6</ele>
<time>2023-05-16T09:42:44Z</time>
</trkpt>
<trkpt lat="48.89975496567786" lon="9.787024967372417">
<ele>423.6</ele>
<time>2023-05-16T09:42:45Z</time>
</trkpt>
<trkpt lat="48.899792935699224" lon="9.786981968209147">
<ele>423.6</ele>
<time>2023-05-16T09:42:46Z</time>
</trkpt>
<trkpt lat="48.89982998371124" lon="9.786936957389116">
<ele>423.6</ele>
<time>2023-05-16T09:42:47Z</time>
</trkpt>
<trkpt lat="48.8998599909246" lon="9.786882977932692">
<ele>423.6</ele>
<time>2023-05-16T09:42:48Z</time>
</trkpt>
<trkpt lat="48.89989293180406" lon="9.786829920485616">
<ele>423.6</ele>
<time>2023-05-16T09:42:49Z</time>
</trkpt>
<trkpt lat="48.89992796815932" lon="9.786781975999475">
<ele>423.6</ele>
<time>2023-05-16T09:42:50Z</time>
</trkpt>
<trkpt lat="48.899964932352304" lon="9.786734953522682">
<ele>423.6</ele>
<time>2023-05-16T09:42:51Z</time>
</trkpt>
<trkpt lat="48.9000029861927" lon="9.786689942702651">
<ele>423.79999999999995</ele>
<time>2023-05-16T09:42:52Z</time>
</trkpt>
<trkpt lat="48.90004296787083" lon="9.78664493188262">
<ele>423.79999999999995</ele>
<time>2023-05-16T09:42:53Z</time>
</trkpt>
<trkpt lat="48.90007792040706" lon="9.786599921062589">
<ele>423.79999999999995</ele>
<time>2023-05-16T09:42:54Z</time>
</trkpt>
<trkpt lat="48.90011195093393" lon="9.78655499406159">
<ele>423.79999999999995</ele>
<time>2023-05-16T09:42:55Z</time>
</trkpt>
<trkpt lat="48.90014799311757" lon="9.78651492856443">
<ele>423.79999999999995</ele>
<time>2023-05-16T09:42:56Z</time>
</trkpt>
<trkpt lat="48.90018696896732" lon="9.786474946886301">
<ele>424</ele>
<time>2023-05-16T09:42:57Z</time>
</trkpt>
<trkpt lat="48.90022996813059" lon="9.786446951329708">
<ele>424</ele>
<time>2023-05-16T09:42:58Z</time>
</trkpt>
<trkpt lat="48.900267938151956" lon="9.78640696965158">
<ele>424</ele>
<time>2023-05-16T09:42:59Z</time>
</trkpt>
<trkpt lat="48.900306997820735" lon="9.78636296465993">
<ele>424</ele>
<time>2023-05-16T09:43:00Z</time>
</trkpt>
<trkpt lat="48.90034697949886" lon="9.786326922476292">
<ele>424</ele>
<time>2023-05-16T09:43:01Z</time>
</trkpt>
<trkpt lat="48.90038997866213" lon="9.786297921091318">
<ele>424</ele>
<time>2023-05-16T09:43:02Z</time>
</trkpt>
<trkpt lat="48.9004329778254" lon="9.786267997696996">
<ele>424</ele>
<time>2023-05-16T09:43:03Z</time>
</trkpt>
<trkpt lat="48.90047497116029" lon="9.786239918321371">
<ele>424</ele>
<time>2023-05-16T09:43:04Z</time>
</trkpt>
<trkpt lat="48.90051696449518" lon="9.786212928593159">
<ele>424</ele>
<time>2023-05-16T09:43:05Z</time>
</trkpt>
<trkpt lat="48.900562981143594" lon="9.78619197383523">
<ele>424</ele>
<time>2023-05-16T09:43:06Z</time>
</trkpt>
<trkpt lat="48.900607991963625" lon="9.786167917773128">
<ele>424</ele>
<time>2023-05-16T09:43:07Z</time>
</trkpt>
<trkpt lat="48.90065794810653" lon="9.786151992157102">
<ele>424</ele>
<time>2023-05-16T09:43:08Z</time>
</trkpt>
<trkpt lat="48.90070195309818" lon="9.786134976893663">
<ele>424</ele>
<time>2023-05-16T09:43:09Z</time>
</trkpt>
<trkpt lat="48.90074796974659" lon="9.786119973286986">
<ele>424</ele>
<time>2023-05-16T09:43:10Z</time>
</trkpt>
<trkpt lat="48.90079499222338" lon="9.786109998822212">
<ele>424</ele>
<time>2023-05-16T09:43:11Z</time>
</trkpt>
<trkpt lat="48.900844948366284" lon="9.786102958023548">
<ele>424</ele>
<time>2023-05-16T09:43:12Z</time>
</trkpt>
<trkpt lat="48.90089197084308" lon="9.786094995215535">
<ele>424</ele>
<time>2023-05-16T09:43:13Z</time>
</trkpt>
<trkpt lat="48.90093999914825" lon="9.786089966073632">
<ele>424</ele>
<time>2023-05-16T09:43:14Z</time>
</trkpt>
<trkpt lat="48.90098492614925" lon="9.786087954416871">
<ele>424</ele>
<time>2023-05-16T09:43:15Z</time>
</trkpt>
<trkpt lat="48.90102993696928" lon="9.78608493693173">
<ele>424</ele>
<time>2023-05-16T09:43:16Z</time>
</trkpt>
<trkpt lat="48.90107796527445" lon="9.78608694858849">
<ele>424</ele>
<time>2023-05-16T09:43:17Z</time>
</trkpt>
<trkpt lat="48.901124987751245" lon="9.786089966073632">
<ele>424</ele>
<time>2023-05-16T09:43:18Z</time>
</trkpt>
<trkpt lat="48.90117494389415" lon="9.786089966073632">
<ele>424</ele>
<time>2023-05-16T09:43:19Z</time>
</trkpt>
<trkpt lat="48.901231940835714" lon="9.786091977730393">
<ele>424</ele>
<time>2023-05-16T09:43:20Z</time>
</trkpt>
<trkpt lat="48.901277957484126" lon="9.786089966073632">
<ele>424</ele>
<time>2023-05-16T09:43:21Z</time>
</trkpt>
<trkpt lat="48.90132699161768" lon="9.786089966073632">
<ele>424</ele>
<time>2023-05-16T09:43:22Z</time>
</trkpt>
<trkpt lat="48.90137694776058" lon="9.78608694858849">
<ele>424</ele>
<time>2023-05-16T09:43:23Z</time>
</trkpt>
<trkpt lat="48.901422964408994" lon="9.78608493693173">
<ele>424</ele>
<time>2023-05-16T09:43:24Z</time>
</trkpt>
<trkpt lat="48.90147199854255" lon="9.786079991608858">
<ele>424</ele>
<time>2023-05-16T09:43:25Z</time>
</trkpt>
<trkpt lat="48.90151994302869" lon="9.786074962466955">
<ele>424.20000000000005</ele>
<time>2023-05-16T09:43:26Z</time>
</trkpt>
<trkpt lat="48.90156696550548" lon="9.786066999658942">
<ele>424.20000000000005</ele>
<time>2023-05-16T09:43:27Z</time>
</trkpt>
<trkpt lat="48.90161197632551" lon="9.786057947203517">
<ele>424.4</ele>
<time>2023-05-16T09:43:28Z</time>
</trkpt>
<trkpt lat="48.90165497548878" lon="9.786046966910362">
<ele>424.4</ele>
<time>2023-05-16T09:43:29Z</time>
</trkpt>
<trkpt lat="48.90169797465205" lon="9.786032969132066">
<ele>424.4</ele>
<time>2023-05-16T09:43:30Z</time>
</trkpt>
<trkpt lat="48.90174298547208" lon="9.786016959697008">
<ele>424.4</ele>
<time>2023-05-16T09:43:31Z</time>
</trkpt>
<trkpt lat="48.901786990463734" lon="9.78599994443357">
<ele>424.4</ele>
<time>2023-05-16T09:43:32Z</time>
</trkpt>
<trkpt lat="48.90183191746473" lon="9.78597798384726">
<ele>424.4</ele>
<time>2023-05-16T09:43:33Z</time>
</trkpt>
<trkpt lat="48.901872988790274" lon="9.7859569452703">
<ele>424.4</ele>
<time>2023-05-16T09:43:34Z</time>
</trkpt>
<trkpt lat="48.90191498212516" lon="9.78593498468399">
<ele>424.6</ele>
<time>2023-05-16T09:43:35Z</time>
</trkpt>
<trkpt lat="48.90195496380329" lon="9.785911934450269">
<ele>424.6</ele>
<time>2023-05-16T09:43:36Z</time>
</trkpt>
<trkpt lat="48.90199796296656" lon="9.78589198552072">
<ele>424.6</ele>
<time>2023-05-16T09:43:37Z</time>
</trkpt>
<trkpt lat="48.90204196795821" lon="9.78586994111538">
<ele>424.6</ele>
<time>2023-05-16T09:43:38Z</time>
</trkpt>
<trkpt lat="48.90208295546472" lon="9.785844963043928">
<ele>424.6</ele>
<time>2023-05-16T09:43:39Z</time>
</trkpt>
<trkpt lat="48.90212193131447" lon="9.785816967487335">
<ele>424.79999999999995</ele>
<time>2023-05-16T09:43:40Z</time>
</trkpt>
<trkpt lat="48.902157973498106" lon="9.785792995244265">
<ele>424.79999999999995</ele>
<time>2023-05-16T09:43:41Z</time>
</trkpt>
<trkpt lat="48.90219292603433" lon="9.785772962495685">
<ele>424.79999999999995</ele>
<time>2023-05-16T09:43:42Z</time>
</trkpt>
<trkpt lat="48.90222997404635" lon="9.785751923918724">
<ele>424.79999999999995</ele>
<time>2023-05-16T09:43:43Z</time>
</trkpt>
<trkpt lat="48.902266938239336" lon="9.785724934190512">
<ele>424.79999999999995</ele>
<time>2023-05-16T09:43:44Z</time>
</trkpt>
<trkpt lat="48.902302980422974" lon="9.785696938633919">
<ele>424.79999999999995</ele>
<time>2023-05-16T09:43:45Z</time>
</trkpt>
<trkpt lat="48.90234195627272" lon="9.785667937248945">
<ele>424.79999999999995</ele>
<time>2023-05-16T09:43:46Z</time>
</trkpt>
<trkpt lat="48.90238193795085" lon="9.785637930035591">
<ele>424.79999999999995</ele>
<time>2023-05-16T09:43:47Z</time>
</trkpt>
<trkpt lat="48.90241999179125" lon="9.785609934478998">
<ele>424.79999999999995</ele>
<time>2023-05-16T09:43:48Z</time>
</trkpt>
<trkpt lat="48.90246198512614" lon="9.785579927265644">
<ele>424.6</ele>
<time>2023-05-16T09:43:49Z</time>
</trkpt>
<trkpt lat="48.902501966804266" lon="9.78554992005229">
<ele>424.6</ele>
<time>2023-05-16T09:43:50Z</time>
</trkpt>
<trkpt lat="48.902542954310775" lon="9.785516979172826">
<ele>424.6</ele>
<time>2023-05-16T09:43:51Z</time>
</trkpt>
<trkpt lat="48.9025829359889" lon="9.78548496030271">
<ele>424.6</ele>
<time>2023-05-16T09:43:52Z</time>
</trkpt>
<trkpt lat="48.90262291766703" lon="9.785452941432595">
<ele>424.6</ele>
<time>2023-05-16T09:43:53Z</time>
</trkpt>
<trkpt lat="48.90266499482095" lon="9.785422934219241">
<ele>424.79999999999995</ele>
<time>2023-05-16T09:43:54Z</time>
</trkpt>
<trkpt lat="48.90270799398422" lon="9.785392927005887">
<ele>424.79999999999995</ele>
<time>2023-05-16T09:43:55Z</time>
</trkpt>
<trkpt lat="48.90274998731911" lon="9.785362919792533">
<ele>424.79999999999995</ele>
<time>2023-05-16T09:43:56Z</time>
</trkpt>
<trkpt lat="48.90278795734048" lon="9.785336935892701">
<ele>424.79999999999995</ele>
<time>2023-05-16T09:43:57Z</time>
</trkpt>
<trkpt lat="48.90282693319023" lon="9.78531195782125">
<ele>424.79999999999995</ele>
<time>2023-05-16T09:43:58Z</time>
</trkpt>
<trkpt lat="48.902864987030625" lon="9.785286979749799">
<ele>424.79999999999995</ele>
<time>2023-05-16T09:43:59Z</time>
</trkpt>
<trkpt lat="48.90290295705199" lon="9.785257978364825">
<ele>424.79999999999995</ele>
<time>2023-05-16T09:44:00Z</time>
</trkpt>
<trkpt lat="48.90293992124498" lon="9.785229982808232">
<ele>424.79999999999995</ele>
<time>2023-05-16T09:44:01Z</time>
</trkpt>
<trkpt lat="48.90297998674214" lon="9.78520299308002">
<ele>424.79999999999995</ele>
<time>2023-05-16T09:44:02Z</time>
</trkpt>
<trkpt lat="48.903017956763506" lon="9.785174997523427">
<ele>424.79999999999995</ele>
<time>2023-05-16T09:44:03Z</time>
</trkpt>
<trkpt lat="48.903057938441634" lon="9.785142978653312">
<ele>424.79999999999995</ele>
<time>2023-05-16T09:44:04Z</time>
</trkpt>
<trkpt lat="48.903099931776524" lon="9.785111965611577">
<ele>424.79999999999995</ele>
<time>2023-05-16T09:44:05Z</time>
</trkpt>
<trkpt lat="48.90313999727368" lon="9.785082964226604">
<ele>424.79999999999995</ele>
<time>2023-05-16T09:44:06Z</time>
</trkpt>
<trkpt lat="48.90317796729505" lon="9.78505496867001">
<ele>424.79999999999995</ele>
<time>2023-05-16T09:44:07Z</time>
</trkpt>
<trkpt lat="48.9032169431448" lon="9.785026973113418">
<ele>424.79999999999995</ele>
<time>2023-05-16T09:44:08Z</time>
</trkpt>
<trkpt lat="48.9032549969852" lon="9.784999983385205">
<ele>424.79999999999995</ele>
<time>2023-05-16T09:44:09Z</time>
</trkpt>
<trkpt lat="48.903294978663325" lon="9.784972993656993">
<ele>424.79999999999995</ele>
<time>2023-05-16T09:44:10Z</time>
</trkpt>
<trkpt lat="48.90333496034145" lon="9.78494692593813">
<ele>424.79999999999995</ele>
<time>2023-05-16T09:44:11Z</time>
</trkpt>
<trkpt lat="48.90337494201958" lon="9.784917924553156">
<ele>424.79999999999995</ele>
<time>2023-05-16T09:44:12Z</time>
</trkpt>
<trkpt lat="48.90341299585998" lon="9.784889928996563">
<ele>424.79999999999995</ele>
<time>2023-05-16T09:44:13Z</time>
</trkpt>
<trkpt lat="48.90345297753811" lon="9.784864950925112">
<ele>424.79999999999995</ele>
<time>2023-05-16T09:44:14Z</time>
</trkpt>
<trkpt lat="48.90349295921624" lon="9.784836955368519">
<ele>424.79999999999995</ele>
<time>2023-05-16T09:44:15Z</time>
</trkpt>
<trkpt lat="48.903531935065985" lon="9.784806948155165">
<ele>424.79999999999995</ele>
<time>2023-05-16T09:44:16Z</time>
</trkpt>
<trkpt lat="48.90356998890638" lon="9.78477694094181">
<ele>425</ele>
<time>2023-05-16T09:44:17Z</time>
</trkpt>
<trkpt lat="48.90360997058451" lon="9.784749951213598">
<ele>425</ele>
<time>2023-05-16T09:44:18Z</time>
</trkpt>
<trkpt lat="48.90364995226264" lon="9.784722961485386">
<ele>425.20000000000005</ele>
<time>2023-05-16T09:44:19Z</time>
</trkpt>
<trkpt lat="48.90368993394077" lon="9.784696977585554">
<ele>425.20000000000005</ele>
<time>2023-05-16T09:44:20Z</time>
</trkpt>
<trkpt lat="48.90372798778117" lon="9.7846669703722">
<ele>425.20000000000005</ele>
<time>2023-05-16T09:44:21Z</time>
</trkpt>
<trkpt lat="48.903766963630915" lon="9.784641992300749">
<ele>425.20000000000005</ele>
<time>2023-05-16T09:44:22Z</time>
</trkpt>
<trkpt lat="48.90380292199552" lon="9.784614918753505">
<ele>425.20000000000005</ele>
<time>2023-05-16T09:44:23Z</time>
</trkpt>
<trkpt lat="48.9038419816643" lon="9.784591952338815">
<ele>425.20000000000005</ele>
<time>2023-05-16T09:44:24Z</time>
</trkpt>
<trkpt lat="48.903877940028906" lon="9.784567980095744">
<ele>425.20000000000005</ele>
<time>2023-05-16T09:44:25Z</time>
</trkpt>
<trkpt lat="48.903917921707034" lon="9.784546941518784">
<ele>425.20000000000005</ele>
<time>2023-05-16T09:44:26Z</time>
</trkpt>
<trkpt lat="48.90395698137581" lon="9.784522969275713">
<ele>425.20000000000005</ele>
<time>2023-05-16T09:44:27Z</time>
</trkpt>
<trkpt lat="48.90399696305394" lon="9.784499919041991">
<ele>425.20000000000005</ele>
<time>2023-05-16T09:44:28Z</time>
</trkpt>
<trkpt lat="48.90403694473207" lon="9.78447494097054">
<ele>425.20000000000005</ele>
<time>2023-05-16T09:44:29Z</time>
</trkpt>
<trkpt lat="48.90407499857247" lon="9.784449962899089">
<ele>425.20000000000005</ele>
<time>2023-05-16T09:44:30Z</time>
</trkpt>
<trkpt lat="48.904112968593836" lon="9.784427918493748">
<ele>425.20000000000005</ele>
<time>2023-05-16T09:44:31Z</time>
</trkpt>
<trkpt lat="48.90415194444358" lon="9.784411992877722">
<ele>425.20000000000005</ele>
<time>2023-05-16T09:44:32Z</time>
</trkpt>
<trkpt lat="48.90418999828398" lon="9.784394977614284">
<ele>425.20000000000005</ele>
<time>2023-05-16T09:44:33Z</time>
</trkpt>
<trkpt lat="48.90422997996211" lon="9.784379974007607">
<ele>425.20000000000005</ele>
<time>2023-05-16T09:44:34Z</time>
</trkpt>
<trkpt lat="48.90426996164024" lon="9.784369999542832">
<ele>425.20000000000005</ele>
<time>2023-05-16T09:44:35Z</time>
</trkpt>
<trkpt lat="48.90431195497513" lon="9.784359941259027">
<ele>425.20000000000005</ele>
<time>2023-05-16T09:44:36Z</time>
</trkpt>
<trkpt lat="48.90435294248164" lon="9.784352984279394">
<ele>425.20000000000005</ele>
<time>2023-05-16T09:44:37Z</time>
</trkpt>
<trkpt lat="48.904392924159765" lon="9.784347955137491">
<ele>425.20000000000005</ele>
<time>2023-05-16T09:44:38Z</time>
</trkpt>
<trkpt lat="48.904431983828545" lon="9.784342925995588">
<ele>425.20000000000005</ele>
<time>2023-05-16T09:44:39Z</time>
</trkpt>
<trkpt lat="48.90447196550667" lon="9.784341920167208">
<ele>425.20000000000005</ele>
<time>2023-05-16T09:44:40Z</time>
</trkpt>
<trkpt lat="48.90450993552804" lon="9.784342925995588">
<ele>425.20000000000005</ele>
<time>2023-05-16T09:44:41Z</time>
</trkpt>
<trkpt lat="48.90454991720617" lon="9.784341920167208">
<ele>425.20000000000005</ele>
<time>2023-05-16T09:44:42Z</time>
</trkpt>
<trkpt lat="48.90458797104657" lon="9.784342925995588">
<ele>425.20000000000005</ele>
<time>2023-05-16T09:44:43Z</time>
</trkpt>
<trkpt lat="48.904627952724695" lon="9.78434493765235">
<ele>425.20000000000005</ele>
<time>2023-05-16T09:44:44Z</time>
</trkpt>
<trkpt lat="48.904671957716346" lon="9.784347955137491">
<ele>425.20000000000005</ele>
<time>2023-05-16T09:44:45Z</time>
</trkpt>
<trkpt lat="48.90471696853638" lon="9.784352984279394">
<ele>425.20000000000005</ele>
<time>2023-05-16T09:44:46Z</time>
</trkpt>
<trkpt lat="48.90475996769965" lon="9.784359941259027">
<ele>425.20000000000005</ele>
<time>2023-05-16T09:44:47Z</time>
</trkpt>
<trkpt lat="48.90480699017644" lon="9.784371927380562">
<ele>425.20000000000005</ele>
<time>2023-05-16T09:44:48Z</time>
</trkpt>
<trkpt lat="48.90485292300582" lon="9.784382991492748">
<ele>425.20000000000005</ele>
<time>2023-05-16T09:44:49Z</time>
</trkpt>
<trkpt lat="48.90490195713937" lon="9.784397995099425">
<ele>425.20000000000005</ele>
<time>2023-05-16T09:44:50Z</time>
</trkpt>
<trkpt lat="48.904946967959404" lon="9.784411992877722">
<ele>425</ele>
<time>2023-05-16T09:44:51Z</time>
</trkpt>
<trkpt lat="48.90499499626458" lon="9.784427918493748">
<ele>425</ele>
<time>2023-05-16T09:44:52Z</time>
</trkpt>
<trkpt lat="48.90504294075072" lon="9.784444933757186">
<ele>425</ele>
<time>2023-05-16T09:44:53Z</time>
</trkpt>
<trkpt lat="48.90509499236941" lon="9.784456919878721">
<ele>425</ele>
<time>2023-05-16T09:44:54Z</time>
</trkpt>
<trkpt lat="48.90514796599746" lon="9.784469995647669">
<ele>425</ele>
<time>2023-05-16T09:44:55Z</time>
</trkpt>
<trkpt lat="48.90519691631198" lon="9.784482987597585">
<ele>425</ele>
<time>2023-05-16T09:44:56Z</time>
</trkpt>
<trkpt lat="48.90524494461715" lon="9.78449497371912">
<ele>425</ele>
<time>2023-05-16T09:44:57Z</time>
</trkpt>
<trkpt lat="48.905292972922325" lon="9.784507965669036">
<ele>425</ele>
<time>2023-05-16T09:44:58Z</time>
</trkpt>
<trkpt lat="48.90534192323685" lon="9.784521963447332">
<ele>425</ele>
<time>2023-05-16T09:44:59Z</time>
</trkpt>
<trkpt lat="48.90538793988526" lon="9.784531937912107">
<ele>425</ele>
<time>2023-05-16T09:45:00Z</time>
</trkpt>
<trkpt lat="48.90543295070529" lon="9.78453696705401">
<ele>425</ele>
<time>2023-05-16T09:45:01Z</time>
</trkpt>
<trkpt lat="48.90547997318208" lon="9.784539984539151">
<ele>425</ele>
<time>2023-05-16T09:45:02Z</time>
</trkpt>
<trkpt lat="48.905526995658875" lon="9.784544929862022">
<ele>425</ele>
<time>2023-05-16T09:45:03Z</time>
</trkpt>
<trkpt lat="48.905569994822145" lon="9.784547947347164">
<ele>425</ele>
<time>2023-05-16T09:45:04Z</time>
</trkpt>
<trkpt lat="48.905612993985415" lon="9.784547947347164">
<ele>425</ele>
<time>2023-05-16T09:45:05Z</time>
</trkpt>
<trkpt lat="48.905661944299936" lon="9.784552976489067">
<ele>425</ele>
<time>2023-05-16T09:45:06Z</time>
</trkpt>
<trkpt lat="48.905704943463206" lon="9.78455699980259">
<ele>425</ele>
<time>2023-05-16T09:45:07Z</time>
</trkpt>
<trkpt lat="48.90574995428324" lon="9.7845599334687">
<ele>425</ele>
<time>2023-05-16T09:45:08Z</time>
</trkpt>
<trkpt lat="48.90579496510327" lon="9.784557921811938">
<ele>425</ele>
<time>2023-05-16T09:45:09Z</time>
</trkpt>
<trkpt lat="48.90584299340844" lon="9.784549959003925">
<ele>425.20000000000005</ele>
<time>2023-05-16T09:45:10Z</time>
</trkpt>
<trkpt lat="48.90588699840009" lon="9.784526992589235">
<ele>425.20000000000005</ele>
<time>2023-05-16T09:45:11Z</time>
</trkpt>
<trkpt lat="48.90592496842146" lon="9.78449497371912">
<ele>425.20000000000005</ele>
<time>2023-05-16T09:45:12Z</time>
</trkpt>
<trkpt lat="48.905959920957685" lon="9.78445197455585">
<ele>425.4</ele>
<time>2023-05-16T09:45:13Z</time>
</trkpt>
<trkpt lat="48.90599495731294" lon="9.784406963735819">
<ele>425.4</ele>
<time>2023-05-16T09:45:14Z</time>
</trkpt>
<trkpt lat="48.90602798201144" lon="9.784362958744168">
<ele>425.6</ele>
<time>2023-05-16T09:45:15Z</time>
</trkpt>
<trkpt lat="48.90606192871928" lon="9.784317947924137">
<ele>425.6</ele>
<time>2023-05-16T09:45:16Z</time>
</trkpt>
<trkpt lat="48.90609495341778" lon="9.784271931275725">
<ele>425.79999999999995</ele>
<time>2023-05-16T09:45:17Z</time>
</trkpt>
<trkpt lat="48.90612697228789" lon="9.784224992617965">
<ele>425.79999999999995</ele>
<time>2023-05-16T09:45:18Z</time>
</trkpt>
<trkpt lat="48.90615798532963" lon="9.784177970141172">
<ele>426</ele>
<time>2023-05-16T09:45:19Z</time>
</trkpt>
<trkpt lat="48.9061869867146" lon="9.784122984856367">
<ele>426</ele>
<time>2023-05-16T09:45:20Z</time>
</trkpt>
<trkpt lat="48.90621196478605" lon="9.784069927409291">
<ele>426</ele>
<time>2023-05-16T09:45:21Z</time>
</trkpt>
<trkpt lat="48.90623199753463" lon="9.784009996801615">
<ele>426.20000000000005</ele>
<time>2023-05-16T09:45:22Z</time>
</trkpt>
<trkpt lat="48.90624297782779" lon="9.783947970718145">
<ele>426.20000000000005</ele>
<time>2023-05-16T09:45:23Z</time>
</trkpt>
<trkpt lat="48.906257981434464" lon="9.783886950463057">
<ele>426.20000000000005</ele>
<time>2023-05-16T09:45:24Z</time>
</trkpt>
<trkpt lat="48.90627197921276" lon="9.783827941864729">
<ele>426.20000000000005</ele>
<time>2023-05-16T09:45:25Z</time>
</trkpt>
<trkpt lat="48.90628497116268" lon="9.783769939094782">
<ele>426.4</ele>
<time>2023-05-16T09:45:26Z</time>
</trkpt>
<trkpt lat="48.90628798864782" lon="9.783712942153215">
<ele>426.4</ele>
<time>2023-05-16T09:45:27Z</time>
</trkpt>
<trkpt lat="48.90629192814231" lon="9.78365795686841">
<ele>426.4</ele>
<time>2023-05-16T09:45:28Z</time>
</trkpt>
<trkpt lat="48.90629192814231" lon="9.783601965755224">
<ele>426.6</ele>
<time>2023-05-16T09:45:29Z</time>
</trkpt>
<trkpt lat="48.90629695728421" lon="9.7835479862988">
<ele>426.79999999999995</ele>
<time>2023-05-16T09:45:30Z</time>
</trkpt>
<trkpt lat="48.90629494562745" lon="9.783491995185614">
<ele>426.79999999999995</ele>
<time>2023-05-16T09:45:31Z</time>
</trkpt>
<trkpt lat="48.90629695728421" lon="9.783437931910157">
<ele>427</ele>
<time>2023-05-16T09:45:32Z</time>
</trkpt>
<trkpt lat="48.90629695728421" lon="9.783377917483449">
<ele>427.20000000000005</ele>
<time>2023-05-16T09:45:33Z</time>
</trkpt>
<trkpt lat="48.90629695728421" lon="9.783317986875772">
<ele>427.4</ele>
<time>2023-05-16T09:45:34Z</time>
</trkpt>
<trkpt lat="48.90629695728421" lon="9.783259984105825">
<ele>427.6</ele>
<time>2023-05-16T09:45:35Z</time>
</trkpt>
<trkpt lat="48.90629494562745" lon="9.783202987164259">
<ele>427.79999999999995</ele>
<time>2023-05-16T09:45:36Z</time>
</trkpt>
<trkpt lat="48.90629494562745" lon="9.783144984394312">
<ele>428</ele>
<time>2023-05-16T09:45:37Z</time>
</trkpt>
<trkpt lat="48.90629494562745" lon="9.783091926947236">
<ele>428.20000000000005</ele>
<time>2023-05-16T09:45:38Z</time>
</trkpt>
<trkpt lat="48.906299974769354" lon="9.783046999946237">
<ele>428.4</ele>
<time>2023-05-16T09:45:39Z</time>
</trkpt>
<trkpt lat="48.906304920092225" lon="9.782997965812683">
<ele>428.6</ele>
<time>2023-05-16T09:45:40Z</time>
</trkpt>
<trkpt lat="48.90631296671927" lon="9.782944992184639">
<ele>428.79999999999995</ele>
<time>2023-05-16T09:45:41Z</time>
</trkpt>
<trkpt lat="48.90632193535566" lon="9.782891934737563">
<ele>429</ele>
<time>2023-05-16T09:45:42Z</time>
</trkpt>
<trkpt lat="48.90632998198271" lon="9.78284197859466">
<ele>429.20000000000005</ele>
<time>2023-05-16T09:45:43Z</time>
</trkpt>
<trkpt lat="48.90633995644748" lon="9.782792944461107">
<ele>429.4</ele>
<time>2023-05-16T09:45:44Z</time>
</trkpt>
<trkpt lat="48.9063529483974" lon="9.782744999974966">
<ele>429.6</ele>
<time>2023-05-16T09:45:45Z</time>
</trkpt>
<trkpt lat="48.90636191703379" lon="9.782696971669793">
<ele>430</ele>
<time>2023-05-16T09:45:46Z</time>
</trkpt>
<trkpt lat="48.906369963660836" lon="9.782651960849762">
<ele>430.20000000000005</ele>
<time>2023-05-16T09:45:47Z</time>
</trkpt>
<trkpt lat="48.90637993812561" lon="9.78260695002973">
<ele>430.4</ele>
<time>2023-05-16T09:45:48Z</time>
</trkpt>
<trkpt lat="48.906386978924274" lon="9.78256294503808">
<ele>430.6</ele>
<time>2023-05-16T09:45:49Z</time>
</trkpt>
<trkpt lat="48.906392930075526" lon="9.782522963359952">
<ele>430.79999999999995</ele>
<time>2023-05-16T09:45:50Z</time>
</trkpt>
<trkpt lat="48.90639997087419" lon="9.782484993338585">
<ele>431</ele>
<time>2023-05-16T09:45:51Z</time>
</trkpt>
<trkpt lat="48.90640491619706" lon="9.782446939498186">
<ele>431.20000000000005</ele>
<time>2023-05-16T09:45:52Z</time>
</trkpt>
<trkpt lat="48.906412962824106" lon="9.7824099753052">
<ele>431.6</ele>
<time>2023-05-16T09:45:53Z</time>
</trkpt>
<trkpt lat="48.90641698613763" lon="9.78236697614193">
<ele>431.79999999999995</ele>
<time>2023-05-16T09:45:54Z</time>
</trkpt>
<trkpt lat="48.9064219314605" lon="9.782322971150279">
<ele>432</ele>
<time>2023-05-16T09:45:55Z</time>
</trkpt>
<trkpt lat="48.90642293728888" lon="9.78228198364377">
<ele>432.20000000000005</ele>
<time>2023-05-16T09:45:56Z</time>
</trkpt>
<trkpt lat="48.906429978087544" lon="9.78223999030888">
<ele>432.4</ele>
<time>2023-05-16T09:45:57Z</time>
</trkpt>
<trkpt lat="48.906429978087544" lon="9.782191962003708">
<ele>432.6</ele>
<time>2023-05-16T09:45:58Z</time>
</trkpt>
<trkpt lat="48.906431989744306" lon="9.782147957012057">
<ele>432.79999999999995</ele>
<time>2023-05-16T09:45:59Z</time>
</trkpt>
<trkpt lat="48.90643794089556" lon="9.782111998647451">
<ele>433</ele>
<time>2023-05-16T09:46:00Z</time>
</trkpt>
<trkpt lat="48.90644297003746" lon="9.782077968120575">
<ele>433.20000000000005</ele>
<time>2023-05-16T09:46:01Z</time>
</trkpt>
<trkpt lat="48.90644992701709" lon="9.782042931765318">
<ele>433.4</ele>
<time>2023-05-16T09:46:02Z</time>
</trkpt>
<trkpt lat="48.90645696781576" lon="9.782001944258809">
<ele>433.6</ele>
<time>2023-05-16T09:46:03Z</time>
</trkpt>
<trkpt lat="48.90646291896701" lon="9.78195995092392">
<ele>433.79999999999995</ele>
<time>2023-05-16T09:46:04Z</time>
</trkpt>
<trkpt lat="48.906454956158996" lon="9.781924998387694">
<ele>434</ele>
<time>2023-05-16T09:46:05Z</time>
</trkpt>
<trkpt lat="48.9064599853009" lon="9.78189499117434">
<ele>434.20000000000005</ele>
<time>2023-05-16T09:46:06Z</time>
</trkpt>
<trkpt lat="48.90646995976567" lon="9.781864983960986">
<ele>434.6</ele>
<time>2023-05-16T09:46:07Z</time>
</trkpt>
<trkpt lat="48.90648798085749" lon="9.781836988404393">
<ele>434.79999999999995</ele>
<time>2023-05-16T09:46:08Z</time>
</trkpt>
<trkpt lat="48.90651295892894" lon="9.78180798701942">
<ele>435</ele>
<time>2023-05-16T09:46:09Z</time>
</trkpt>
<trkpt lat="48.90653693117201" lon="9.781774962320924">
<ele>435.4</ele>
<time>2023-05-16T09:46:10Z</time>
</trkpt>
<trkpt lat="48.906564926728606" lon="9.78174495510757">
<ele>435.6</ele>
<time>2023-05-16T09:46:11Z</time>
</trkpt>
<trkpt lat="48.90659493394196" lon="9.781709918752313">
<ele>435.79999999999995</ele>
<time>2023-05-16T09:46:12Z</time>
</trkpt>
<trkpt lat="48.90662292949855" lon="9.781669937074184">
<ele>435.79999999999995</ele>
<time>2023-05-16T09:46:13Z</time>
</trkpt>
<trkpt lat="48.90665293671191" lon="9.78161696344614">
<ele>436</ele>
<time>2023-05-16T09:46:14Z</time>
</trkpt>
<trkpt lat="48.90667799860239" lon="9.781557954847813">
<ele>436</ele>
<time>2023-05-16T09:46:15Z</time>
</trkpt>
<trkpt lat="48.90670197084546" lon="9.781491989269853">
<ele>435.79999999999995</ele>
<time>2023-05-16T09:46:16Z</time>
</trkpt>
<trkpt lat="48.90672292560339" lon="9.781414959579706">
<ele>435.6</ele>
<time>2023-05-16T09:46:17Z</time>
</trkpt>
<trkpt lat="48.90673994086683" lon="9.781331978738308">
<ele>435.4</ele>
<time>2023-05-16T09:46:18Z</time>
</trkpt>
<trkpt lat="48.906756956130266" lon="9.78124799206853">
<ele>435.20000000000005</ele>
<time>2023-05-16T09:46:19Z</time>
</trkpt>
<trkpt lat="48.906772965565324" lon="9.78116199374199">
<ele>435</ele>
<time>2023-05-16T09:46:20Z</time>
</trkpt>
<trkpt lat="48.906787969172" lon="9.781069960445166">
<ele>434.6</ele>
<time>2023-05-16T09:46:21Z</time>
</trkpt>
<trkpt lat="48.9068069960922" lon="9.780974993482232">
<ele>434.6</ele>
<time>2023-05-16T09:46:22Z</time>
</trkpt>
<trkpt lat="48.90682493336499" lon="9.780872985720634">
<ele>434.4</ele>
<time>2023-05-16T09:46:23Z</time>
</trkpt>
<trkpt lat="48.90684697777033" lon="9.780774917453527">
<ele>434.20000000000005</ele>
<time>2023-05-16T09:46:24Z</time>
</trkpt>
<trkpt lat="48.90687497332692" lon="9.780682967975736">
<ele>434</ele>
<time>2023-05-16T09:46:25Z</time>
</trkpt>
<trkpt lat="48.90690992586315" lon="9.780591940507293">
<ele>433.79999999999995</ele>
<time>2023-05-16T09:46:26Z</time>
</trkpt>
<trkpt lat="48.90695292502642" lon="9.78050191886723">
<ele>433.4</ele>
<time>2023-05-16T09:46:27Z</time>
</trkpt>
<trkpt lat="48.90699793584645" lon="9.78041298687458">
<ele>433</ele>
<time>2023-05-16T09:46:28Z</time>
</trkpt>
<trkpt lat="48.90704998746514" lon="9.780341992154717">
<ele>432.4</ele>
<time>2023-05-16T09:46:29Z</time>
</trkpt>
<trkpt lat="48.90710497274995" lon="9.78028298355639">
<ele>432</ele>
<time>2023-05-16T09:46:30Z</time>
</trkpt>
<trkpt lat="48.90716699883342" lon="9.780221963301301">
<ele>431.6</ele>
<time>2023-05-16T09:46:31Z</time>
</trkpt>
<trkpt lat="48.907229946926236" lon="9.780166978016496">
<ele>431</ele>
<time>2023-05-16T09:46:32Z</time>
</trkpt>
<trkpt lat="48.90729499049485" lon="9.780127918347716">
<ele>430.6</ele>
<time>2023-05-16T09:46:33Z</time>
</trkpt>
<trkpt lat="48.90736497938633" lon="9.78008994832635">
<ele>430.4</ele>
<time>2023-05-16T09:46:34Z</time>
</trkpt>
<trkpt lat="48.90743295662105" lon="9.780051978304982">
<ele>430</ele>
<time>2023-05-16T09:46:35Z</time>
</trkpt>
<trkpt lat="48.90749699436128" lon="9.780021971091628">
<ele>429.79999999999995</ele>
<time>2023-05-16T09:46:36Z</time>
</trkpt>
<trkpt lat="48.90755793079734" lon="9.779992969706655">
<ele>429.6</ele>
<time>2023-05-16T09:46:37Z</time>
</trkpt>
<trkpt lat="48.90761794522405" lon="9.7799629624933">
<ele>429.4</ele>
<time>2023-05-16T09:46:38Z</time>
</trkpt>
<trkpt lat="48.907677959650755" lon="9.779927926138043">
<ele>429.20000000000005</ele>
<time>2023-05-16T09:46:39Z</time>
</trkpt>
<trkpt lat="48.907739985734224" lon="9.77989791892469">
<ele>429</ele>
<time>2023-05-16T09:46:40Z</time>
</trkpt>
<trkpt lat="48.90779698267579" lon="9.779869923368096">
<ele>428.79999999999995</ele>
<time>2023-05-16T09:46:41Z</time>
</trkpt>
<trkpt lat="48.907851967960596" lon="9.779839999973774">
<ele>428.79999999999995</ele>
<time>2023-05-16T09:46:42Z</time>
</trkpt>
<trkpt lat="48.9079019241035" lon="9.779804963618517">
<ele>428.79999999999995</ele>
<time>2023-05-16T09:46:43Z</time>
</trkpt>
<trkpt lat="48.90794995240867" lon="9.779762970283628">
<ele>428.79999999999995</ele>
<time>2023-05-16T09:46:44Z</time>
</trkpt>
<trkpt lat="48.9079949632287" lon="9.779716953635216">
<ele>428.79999999999995</ele>
<time>2023-05-16T09:46:45Z</time>
</trkpt>
<trkpt lat="48.90803695656359" lon="9.779671942815185">
<ele>428.79999999999995</ele>
<time>2023-05-16T09:46:46Z</time>
</trkpt>
<trkpt lat="48.90807693824172" lon="9.779629949480295">
<ele>428.79999999999995</ele>
<time>2023-05-16T09:46:47Z</time>
</trkpt>
<trkpt lat="48.90811298042536" lon="9.779592985287309">
<ele>428.79999999999995</ele>
<time>2023-05-16T09:46:48Z</time>
</trkpt>
<trkpt lat="48.908149944618344" lon="9.779552919790149">
<ele>428.79999999999995</ele>
<time>2023-05-16T09:46:49Z</time>
</trkpt>
<trkpt lat="48.9081849809736" lon="9.779509920626879">
<ele>429</ele>
<time>2023-05-16T09:46:50Z</time>
</trkpt>
<trkpt lat="48.90821993350983" lon="9.779466921463609">
<ele>429</ele>
<time>2023-05-16T09:46:51Z</time>
</trkpt>
<trkpt lat="48.90824994072318" lon="9.779419982805848">
<ele>429.20000000000005</ele>
<time>2023-05-16T09:46:52Z</time>
</trkpt>
<trkpt lat="48.908281959593296" lon="9.779371954500675">
<ele>429.4</ele>
<time>2023-05-16T09:46:53Z</time>
</trkpt>
<trkpt lat="48.90830794349313" lon="9.779324932023883">
<ele>429.6</ele>
<time>2023-05-16T09:46:54Z</time>
</trkpt>
<trkpt lat="48.90833493322134" lon="9.779279921203852">
<ele>429.6</ele>
<time>2023-05-16T09:46:55Z</time>
</trkpt>
<trkpt lat="48.90836192294955" lon="9.77923197671771">
<ele>429.79999999999995</ele>
<time>2023-05-16T09:46:56Z</time>
</trkpt>
<trkpt lat="48.908387990668416" lon="9.779176991432905">
<ele>429.79999999999995</ele>
<time>2023-05-16T09:46:57Z</time>
</trkpt>
<trkpt lat="48.90841296873987" lon="9.779116977006197">
<ele>430</ele>
<time>2023-05-16T09:46:58Z</time>
</trkpt>
<trkpt lat="48.90843794681132" lon="9.77905998006463">
<ele>430</ele>
<time>2023-05-16T09:46:59Z</time>
</trkpt>
<trkpt lat="48.90846191905439" lon="9.778997953981161">
<ele>430</ele>
<time>2023-05-16T09:47:00Z</time>
</trkpt>
<trkpt lat="48.90848496928811" lon="9.778939951211214">
<ele>430.20000000000005</ele>
<time>2023-05-16T09:47:01Z</time>
</trkpt>
<trkpt lat="48.908512964844704" lon="9.778877925127745">
<ele>430.20000000000005</ele>
<time>2023-05-16T09:47:02Z</time>
</trkpt>
<trkpt lat="48.908539954572916" lon="9.778819922357798">
<ele>430.20000000000005</ele>
<time>2023-05-16T09:47:03Z</time>
</trkpt>
<trkpt lat="48.90856493264437" lon="9.778759991750121">
<ele>430.4</ele>
<time>2023-05-16T09:47:04Z</time>
</trkpt>
<trkpt lat="48.90858999453485" lon="9.778702994808555">
<ele>430.4</ele>
<time>2023-05-16T09:47:05Z</time>
</trkpt>
<trkpt lat="48.9086149726063" lon="9.778644992038608">
<ele>430.4</ele>
<time>2023-05-16T09:47:06Z</time>
</trkpt>
<trkpt lat="48.90863793902099" lon="9.778587995097041">
<ele>430.6</ele>
<time>2023-05-16T09:47:07Z</time>
</trkpt>
<trkpt lat="48.908661995083094" lon="9.778532925993204">
<ele>430.6</ele>
<time>2023-05-16T09:47:08Z</time>
</trkpt>
<trkpt lat="48.90868294984102" lon="9.778476934880018">
<ele>430.79999999999995</ele>
<time>2023-05-16T09:47:09Z</time>
</trkpt>
<trkpt lat="48.90870692208409" lon="9.77841792628169">
<ele>430.79999999999995</ele>
<time>2023-05-16T09:47:10Z</time>
</trkpt>
<trkpt lat="48.908729972317815" lon="9.778357995674014">
<ele>431</ele>
<time>2023-05-16T09:47:11Z</time>
</trkpt>
<trkpt lat="48.908751932904124" lon="9.7783069498837">
<ele>431</ele>
<time>2023-05-16T09:47:12Z</time>
</trkpt>
<trkpt lat="48.908771965652704" lon="9.778252970427275">
<ele>431.20000000000005</ele>
<time>2023-05-16T09:47:13Z</time>
</trkpt>
<trkpt lat="48.908791998401284" lon="9.77820192463696">
<ele>431.4</ele>
<time>2023-05-16T09:47:14Z</time>
</trkpt>
<trkpt lat="48.90881194733083" lon="9.778149956837296">
<ele>431.4</ele>
<time>2023-05-16T09:47:15Z</time>
</trkpt>
<trkpt lat="48.90883198007941" lon="9.778097989037633">
<ele>431.6</ele>
<time>2023-05-16T09:47:16Z</time>
</trkpt>
<trkpt lat="48.90885192900896" lon="9.778047949075699">
<ele>431.6</ele>
<time>2023-05-16T09:47:17Z</time>
</trkpt>
<trkpt lat="48.90887196175754" lon="9.777996987104416">
<ele>431.79999999999995</ele>
<time>2023-05-16T09:47:18Z</time>
</trkpt>
<trkpt lat="48.90889199450612" lon="9.777946947142482">
<ele>431.79999999999995</ele>
<time>2023-05-16T09:47:19Z</time>
</trkpt>
<trkpt lat="48.90891496092081" lon="9.777894979342818">
<ele>432</ele>
<time>2023-05-16T09:47:20Z</time>
</trkpt>
<trkpt lat="48.9089379273355" lon="9.777842927724123">
<ele>432</ele>
<time>2023-05-16T09:47:21Z</time>
</trkpt>
<trkpt lat="48.90895796008408" lon="9.77779297158122">
<ele>432</ele>
<time>2023-05-16T09:47:22Z</time>
</trkpt>
<trkpt lat="48.90897992067039" lon="9.777741925790906">
<ele>432.20000000000005</ele>
<time>2023-05-16T09:47:23Z</time>
</trkpt>
<trkpt lat="48.90900498256087" lon="9.777689957991242">
<ele>432.20000000000005</ele>
<time>2023-05-16T09:47:24Z</time>
</trkpt>
<trkpt lat="48.909029960632324" lon="9.777636984363198">
<ele>432.20000000000005</ele>
<time>2023-05-16T09:47:25Z</time>
</trkpt>
<trkpt lat="48.909054938703775" lon="9.777581999078393">
<ele>432.4</ele>
<time>2023-05-16T09:47:26Z</time>
</trkpt>
<trkpt lat="48.9090779889375" lon="9.777526929974556">
<ele>432.4</ele>
<time>2023-05-16T09:47:27Z</time>
</trkpt>
<trkpt lat="48.90910497866571" lon="9.777474962174892">
<ele>432.4</ele>
<time>2023-05-16T09:47:28Z</time>
</trkpt>
<trkpt lat="48.909134985879064" lon="9.777422994375229">
<ele>432.6</ele>
<time>2023-05-16T09:47:29Z</time>
</trkpt>
<trkpt lat="48.90916298143566" lon="9.777371948584914">
<ele>432.6</ele>
<time>2023-05-16T09:47:30Z</time>
</trkpt>
<trkpt lat="48.90919198282063" lon="9.777321992442012">
<ele>432.6</ele>
<time>2023-05-16T09:47:31Z</time>
</trkpt>
<trkpt lat="48.90921997837722" lon="9.777269940823317">
<ele>432.79999999999995</ele>
<time>2023-05-16T09:47:32Z</time>
</trkpt>
<trkpt lat="48.90924998559058" lon="9.777219984680414">
<ele>432.79999999999995</ele>
<time>2023-05-16T09:47:33Z</time>
</trkpt>
<trkpt lat="48.90927999280393" lon="9.777171956375241">
<ele>432.79999999999995</ele>
<time>2023-05-16T09:47:34Z</time>
</trkpt>
<trkpt lat="48.909312933683395" lon="9.777121916413307">
<ele>433</ele>
<time>2023-05-16T09:47:35Z</time>
</trkpt>
<trkpt lat="48.90934696421027" lon="9.777076989412308">
<ele>433</ele>
<time>2023-05-16T09:47:36Z</time>
</trkpt>
<trkpt lat="48.90937797725201" lon="9.777029966935515">
<ele>433</ele>
<time>2023-05-16T09:47:37Z</time>
</trkpt>
<trkpt lat="48.90940999612212" lon="9.776984956115484">
<ele>433.20000000000005</ele>
<time>2023-05-16T09:47:38Z</time>
</trkpt>
<trkpt lat="48.909441931173205" lon="9.776939945295453">
<ele>433.20000000000005</ele>
<time>2023-05-16T09:47:39Z</time>
</trkpt>
<trkpt lat="48.90947193838656" lon="9.776894934475422">
<ele>433.20000000000005</ele>
<time>2023-05-16T09:47:40Z</time>
</trkpt>
<trkpt lat="48.909501945599914" lon="9.776852941140532">
<ele>433.4</ele>
<time>2023-05-16T09:47:41Z</time>
</trkpt>
<trkpt lat="48.90953497029841" lon="9.776811953634024">
<ele>433.4</ele>
<time>2023-05-16T09:47:42Z</time>
</trkpt>
<trkpt lat="48.909566989168525" lon="9.776769960299134">
<ele>433.6</ele>
<time>2023-05-16T09:47:43Z</time>
</trkpt>
<trkpt lat="48.90959993004799" lon="9.776731990277767">
<ele>433.6</ele>
<time>2023-05-16T09:47:44Z</time>
</trkpt>
<trkpt lat="48.909631948918104" lon="9.776691924780607">
<ele>433.6</ele>
<time>2023-05-16T09:47:45Z</time>
</trkpt>
<trkpt lat="48.9096649736166" lon="9.776649931445718">
<ele>433.79999999999995</ele>
<time>2023-05-16T09:47:46Z</time>
</trkpt>
<trkpt lat="48.909696992486715" lon="9.77660994976759">
<ele>433.79999999999995</ele>
<time>2023-05-16T09:47:47Z</time>
</trkpt>
<trkpt lat="48.90972792170942" lon="9.776569968089461">
<ele>433.79999999999995</ele>
<time>2023-05-16T09:47:48Z</time>
</trkpt>
<trkpt lat="48.909759940579534" lon="9.776529986411333">
<ele>434</ele>
<time>2023-05-16T09:47:49Z</time>
</trkpt>
<trkpt lat="48.90978994779289" lon="9.776491932570934">
<ele>434</ele>
<time>2023-05-16T09:47:50Z</time>
</trkpt>
<trkpt lat="48.90981995500624" lon="9.776452956721187">
<ele>434</ele>
<time>2023-05-16T09:47:51Z</time>
</trkpt>
<trkpt lat="48.909849962219596" lon="9.776412975043058">
<ele>434.20000000000005</ele>
<time>2023-05-16T09:47:52Z</time>
</trkpt>
<trkpt lat="48.90988198108971" lon="9.77637693285942">
<ele>434.20000000000005</ele>
<time>2023-05-16T09:47:53Z</time>
</trkpt>
<trkpt lat="48.909911988303065" lon="9.776337957009673">
<ele>434.4</ele>
<time>2023-05-16T09:47:54Z</time>
</trkpt>
<trkpt lat="48.90994199551642" lon="9.776297975331545">
<ele>434.4</ele>
<time>2023-05-16T09:47:55Z</time>
</trkpt>
<trkpt lat="48.90997292473912" lon="9.776261933147907">
<ele>434.4</ele>
<time>2023-05-16T09:47:56Z</time>
</trkpt>
<trkpt lat="48.91000494360924" lon="9.776221951469779">
<ele>434.6</ele>
<time>2023-05-16T09:47:57Z</time>
</trkpt>
<trkpt lat="48.91003495082259" lon="9.77618196979165">
<ele>434.6</ele>
<time>2023-05-16T09:47:58Z</time>
</trkpt>
<trkpt lat="48.910064958035946" lon="9.776139976456761">
<ele>434.79999999999995</ele>
<time>2023-05-16T09:47:59Z</time>
</trkpt>
<trkpt lat="48.91009295359254" lon="9.776097983121872">
<ele>434.79999999999995</ele>
<time>2023-05-16T09:48:00Z</time>
</trkpt>
<trkpt lat="48.91012296080589" lon="9.776056995615363">
<ele>435</ele>
<time>2023-05-16T09:48:01Z</time>
</trkpt>
<trkpt lat="48.91015196219087" lon="9.776017935946584">
<ele>435</ele>
<time>2023-05-16T09:48:02Z</time>
</trkpt>
<trkpt lat="48.9101779460907" lon="9.775979965925217">
<ele>435.20000000000005</ele>
<time>2023-05-16T09:48:03Z</time>
</trkpt>
<trkpt lat="48.91020493581891" lon="9.775939984247088">
<ele>435.20000000000005</ele>
<time>2023-05-16T09:48:04Z</time>
</trkpt>
<trkpt lat="48.91023192554712" lon="9.775896985083818">
<ele>435.20000000000005</ele>
<time>2023-05-16T09:48:05Z</time>
</trkpt>
<trkpt lat="48.910259921103716" lon="9.775854991748929">
<ele>435.20000000000005</ele>
<time>2023-05-16T09:48:06Z</time>
</trkpt>
<trkpt lat="48.91028791666031" lon="9.775811992585659">
<ele>435.20000000000005</ele>
<time>2023-05-16T09:48:07Z</time>
</trkpt>
<trkpt lat="48.91031499020755" lon="9.775767987594008">
<ele>435.20000000000005</ele>
<time>2023-05-16T09:48:08Z</time>
</trkpt>
<trkpt lat="48.910342985764146" lon="9.775724988430738">
<ele>435.20000000000005</ele>
<time>2023-05-16T09:48:09Z</time>
</trkpt>
<trkpt lat="48.91037198714912" lon="9.775681989267468">
<ele>435.20000000000005</ele>
<time>2023-05-16T09:48:10Z</time>
</trkpt>
<trkpt lat="48.91039998270571" lon="9.775637984275818">
<ele>435.20000000000005</ele>
<time>2023-05-16T09:48:11Z</time>
</trkpt>
<trkpt lat="48.910427978262305" lon="9.775594985112548">
<ele>435.4</ele>
<time>2023-05-16T09:48:12Z</time>
</trkpt>
<trkpt lat="48.910452956333756" lon="9.775551985949278">
<ele>435.4</ele>
<time>2023-05-16T09:48:13Z</time>
</trkpt>
<trkpt lat="48.91047994606197" lon="9.775507980957627">
<ele>435.6</ele>
<time>2023-05-16T09:48:14Z</time>
</trkpt>
<trkpt lat="48.91050199046731" lon="9.775464981794357">
<ele>435.6</ele>
<time>2023-05-16T09:48:15Z</time>
</trkpt>
<trkpt lat="48.910524956882" lon="9.775419970974326">
<ele>435.79999999999995</ele>
<time>2023-05-16T09:48:16Z</time>
</trkpt>
<trkpt lat="48.91054993495345" lon="9.775377977639437">
<ele>435.79999999999995</ele>
<time>2023-05-16T09:48:17Z</time>
</trkpt>
<trkpt lat="48.91057197935879" lon="9.775334978476167">
<ele>436</ele>
<time>2023-05-16T09:48:18Z</time>
</trkpt>
<trkpt lat="48.91059494577348" lon="9.775291979312897">
<ele>436</ele>
<time>2023-05-16T09:48:19Z</time>
</trkpt>
<trkpt lat="48.91061699017882" lon="9.775244956836104">
<ele>436</ele>
<time>2023-05-16T09:48:20Z</time>
</trkpt>
<trkpt lat="48.91063995659351" lon="9.775197934359312">
<ele>436</ele>
<time>2023-05-16T09:48:21Z</time>
</trkpt>
<trkpt lat="48.91066191717982" lon="9.7751519177109">
<ele>436.20000000000005</ele>
<time>2023-05-16T09:48:22Z</time>
</trkpt>
<trkpt lat="48.910684967413545" lon="9.775101961567998">
<ele>436.20000000000005</ele>
<time>2023-05-16T09:48:23Z</time>
</trkpt>
<trkpt lat="48.910709945484996" lon="9.775049993768334">
<ele>436.4</ele>
<time>2023-05-16T09:48:24Z</time>
</trkpt>
<trkpt lat="48.91073198989034" lon="9.775001965463161">
<ele>436.4</ele>
<time>2023-05-16T09:48:25Z</time>
</trkpt>
<trkpt lat="48.910752944648266" lon="9.774951925501227">
<ele>436.4</ele>
<time>2023-05-16T09:48:26Z</time>
</trkpt>
<trkpt lat="48.910772977396846" lon="9.774902975186706">
<ele>436.6</ele>
<time>2023-05-16T09:48:27Z</time>
</trkpt>
<trkpt lat="48.910794937983155" lon="9.774854946881533">
<ele>436.6</ele>
<time>2023-05-16T09:48:28Z</time>
</trkpt>
<trkpt lat="48.910814970731735" lon="9.77480691857636">
<ele>436.79999999999995</ele>
<time>2023-05-16T09:48:29Z</time>
</trkpt>
<trkpt lat="48.910836931318045" lon="9.774754950776696">
<ele>436.79999999999995</ele>
<time>2023-05-16T09:48:30Z</time>
</trkpt>
<trkpt lat="48.910856964066625" lon="9.774704994633794">
<ele>437</ele>
<time>2023-05-16T09:48:31Z</time>
</trkpt>
<trkpt lat="48.91087791882455" lon="9.774656966328621">
<ele>437</ele>
<time>2023-05-16T09:48:32Z</time>
</trkpt>
<trkpt lat="48.910899963229895" lon="9.774606926366687">
<ele>437.20000000000005</ele>
<time>2023-05-16T09:48:33Z</time>
</trkpt>
<trkpt lat="48.910919995978475" lon="9.774556970223784">
<ele>437.20000000000005</ele>
<time>2023-05-16T09:48:34Z</time>
</trkpt>
<trkpt lat="48.91093994490802" lon="9.77450491860509">
<ele>437.20000000000005</ele>
<time>2023-05-16T09:48:35Z</time>
</trkpt>
<trkpt lat="48.910961989313364" lon="9.774451944977045">
<ele>437.4</ele>
<time>2023-05-16T09:48:36Z</time>
</trkpt>
<trkpt lat="48.91098193824291" lon="9.774401988834143">
<ele>437.4</ele>
<time>2023-05-16T09:48:37Z</time>
</trkpt>
<trkpt lat="48.91100197099149" lon="9.774346919730306">
<ele>437.4</ele>
<time>2023-05-16T09:48:38Z</time>
</trkpt>
<trkpt lat="48.91102191992104" lon="9.774292940273881">
<ele>437.4</ele>
<time>2023-05-16T09:48:39Z</time>
</trkpt>
<trkpt lat="48.9110379293561" lon="9.774237954989076">
<ele>437.6</ele>
<time>2023-05-16T09:48:40Z</time>
</trkpt>
<trkpt lat="48.911052932962775" lon="9.77418296970427">
<ele>437.6</ele>
<time>2023-05-16T09:48:41Z</time>
</trkpt>
<trkpt lat="48.91106793656945" lon="9.774127984419465">
<ele>437.79999999999995</ele>
<time>2023-05-16T09:48:42Z</time>
</trkpt>
<trkpt lat="48.91108294017613" lon="9.77407693862915">
<ele>437.79999999999995</ele>
<time>2023-05-16T09:48:43Z</time>
</trkpt>
<trkpt lat="48.91109995543957" lon="9.774021953344345">
<ele>437.79999999999995</ele>
<time>2023-05-16T09:48:44Z</time>
</trkpt>
<trkpt lat="48.911116970703006" lon="9.773964956402779">
<ele>438</ele>
<time>2023-05-16T09:48:45Z</time>
</trkpt>
<trkpt lat="48.91113298013806" lon="9.773909971117973">
<ele>438</ele>
<time>2023-05-16T09:48:46Z</time>
</trkpt>
<trkpt lat="48.9111499954015" lon="9.773854985833168">
<ele>438</ele>
<time>2023-05-16T09:48:47Z</time>
</trkpt>
<trkpt lat="48.91116298735142" lon="9.773799916729331">
<ele>438.20000000000005</ele>
<time>2023-05-16T09:48:48Z</time>
</trkpt>
<trkpt lat="48.911179918795824" lon="9.773742919787765">
<ele>438.20000000000005</ele>
<time>2023-05-16T09:48:49Z</time>
</trkpt>
<trkpt lat="48.91119299456477" lon="9.773684917017817">
<ele>438.20000000000005</ele>
<time>2023-05-16T09:48:50Z</time>
</trkpt>
<trkpt lat="48.91120799817145" lon="9.773626998066902">
<ele>438.4</ele>
<time>2023-05-16T09:48:51Z</time>
</trkpt>
<trkpt lat="48.911221995949745" lon="9.773567989468575">
<ele>438.4</ele>
<time>2023-05-16T09:48:52Z</time>
</trkpt>
<trkpt lat="48.91123498789966" lon="9.773507975041866">
<ele>438.4</ele>
<time>2023-05-16T09:48:53Z</time>
</trkpt>
<trkpt lat="48.91125292517245" lon="9.773452989757061">
<ele>438.4</ele>
<time>2023-05-16T09:48:54Z</time>
</trkpt>
<trkpt lat="48.911267928779125" lon="9.773394986987114">
<ele>438.4</ele>
<time>2023-05-16T09:48:55Z</time>
</trkpt>
<trkpt lat="48.91127999871969" lon="9.773337990045547">
<ele>438.4</ele>
<time>2023-05-16T09:48:56Z</time>
</trkpt>
<trkpt lat="48.91129299066961" lon="9.773281998932362">
<ele>438.6</ele>
<time>2023-05-16T09:48:57Z</time>
</trkpt>
<trkpt lat="48.911306988447905" lon="9.773221984505653">
<ele>438.6</ele>
<time>2023-05-16T09:48:58Z</time>
</trkpt>
<trkpt lat="48.91131796874106" lon="9.773157946765423">
<ele>438.6</ele>
<time>2023-05-16T09:48:59Z</time>
</trkpt>
<trkpt lat="48.911331966519356" lon="9.773096926510334">
<ele>438.6</ele>
<time>2023-05-16T09:49:00Z</time>
</trkpt>
<trkpt lat="48.91134697012603" lon="9.773032972589135">
<ele>438.6</ele>
<time>2023-05-16T09:49:01Z</time>
</trkpt>
<trkpt lat="48.91135795041919" lon="9.772972958162427">
<ele>438.6</ele>
<time>2023-05-16T09:49:02Z</time>
</trkpt>
<trkpt lat="48.91136792488396" lon="9.772912943735719">
<ele>438.6</ele>
<time>2023-05-16T09:49:03Z</time>
</trkpt>
<trkpt lat="48.91138192266226" lon="9.77285292930901">
<ele>438.6</ele>
<time>2023-05-16T09:49:04Z</time>
</trkpt>
<trkpt lat="48.911394998431206" lon="9.772791992872953">
<ele>438.6</ele>
<time>2023-05-16T09:49:05Z</time>
</trkpt>
<trkpt lat="48.91140799038112" lon="9.772731978446245">
<ele>438.6</ele>
<time>2023-05-16T09:49:06Z</time>
</trkpt>
<trkpt lat="48.91142492182553" lon="9.772672969847918">
<ele>438.6</ele>
<time>2023-05-16T09:49:07Z</time>
</trkpt>
<trkpt lat="48.91144294291735" lon="9.77261496707797">
<ele>438.6</ele>
<time>2023-05-16T09:49:08Z</time>
</trkpt>
<trkpt lat="48.91145694069564" lon="9.772559981793165">
<ele>438.6</ele>
<time>2023-05-16T09:49:09Z</time>
</trkpt>
<trkpt lat="48.91147194430232" lon="9.772501979023218">
<ele>438.6</ele>
<time>2023-05-16T09:49:10Z</time>
</trkpt>
<trkpt lat="48.911482924595475" lon="9.77244297042489">
<ele>438.6</ele>
<time>2023-05-16T09:49:11Z</time>
</trkpt>
<trkpt lat="48.91149792820215" lon="9.772382955998182">
<ele>438.6</ele>
<time>2023-05-16T09:49:12Z</time>
</trkpt>
<trkpt lat="48.91151293180883" lon="9.772322941571474">
<ele>438.6</ele>
<time>2023-05-16T09:49:13Z</time>
</trkpt>
<trkpt lat="48.911527935415506" lon="9.772259993478656">
<ele>438.6</ele>
<time>2023-05-16T09:49:14Z</time>
</trkpt>
<trkpt lat="48.91154293902218" lon="9.772197967395186">
<ele>438.6</ele>
<time>2023-05-16T09:49:15Z</time>
</trkpt>
<trkpt lat="48.91155995428562" lon="9.772134935483336">
<ele>438.6</ele>
<time>2023-05-16T09:49:16Z</time>
</trkpt>
<trkpt lat="48.91157294623554" lon="9.772072993218899">
<ele>438.6</ele>
<time>2023-05-16T09:49:17Z</time>
</trkpt>
<trkpt lat="48.911586944013834" lon="9.772009961307049">
<ele>438.79999999999995</ele>
<time>2023-05-16T09:49:18Z</time>
</trkpt>
<trkpt lat="48.91159993596375" lon="9.77194793522358">
<ele>438.79999999999995</ele>
<time>2023-05-16T09:49:19Z</time>
</trkpt>
<trkpt lat="48.91161493957043" lon="9.771886998787522">
<ele>438.79999999999995</ele>
<time>2023-05-16T09:49:20Z</time>
</trkpt>
<trkpt lat="48.91162793152034" lon="9.771824972704053">
<ele>438.79999999999995</ele>
<time>2023-05-16T09:49:21Z</time>
</trkpt>
<trkpt lat="48.91164293512702" lon="9.771762946620584">
<ele>438.79999999999995</ele>
<time>2023-05-16T09:49:22Z</time>
</trkpt>
<trkpt lat="48.911656932905316" lon="9.771702932193875">
<ele>438.79999999999995</ele>
<time>2023-05-16T09:49:23Z</time>
</trkpt>
<trkpt lat="48.91167193651199" lon="9.771642917767167">
<ele>438.79999999999995</ele>
<time>2023-05-16T09:49:24Z</time>
</trkpt>
<trkpt lat="48.91168291680515" lon="9.77158198133111">
<ele>439</ele>
<time>2023-05-16T09:49:25Z</time>
</trkpt>
<trkpt lat="48.911697920411825" lon="9.771522972732782">
<ele>439</ele>
<time>2023-05-16T09:49:26Z</time>
</trkpt>
<trkpt lat="48.91171191819012" lon="9.771461952477694">
<ele>439</ele>
<time>2023-05-16T09:49:27Z</time>
</trkpt>
<trkpt lat="48.9117269217968" lon="9.771402943879366">
<ele>439</ele>
<time>2023-05-16T09:49:28Z</time>
</trkpt>
<trkpt lat="48.911741925403476" lon="9.771341923624277">
<ele>439</ele>
<time>2023-05-16T09:49:29Z</time>
</trkpt>
<trkpt lat="48.91175491735339" lon="9.77127998135984">
<ele>439.20000000000005</ele>
<time>2023-05-16T09:49:30Z</time>
</trkpt>
<trkpt lat="48.91176992096007" lon="9.77121795527637">
<ele>439.20000000000005</ele>
<time>2023-05-16T09:49:31Z</time>
</trkpt>
<trkpt lat="48.911781990900636" lon="9.771156935021281">
<ele>439.20000000000005</ele>
<time>2023-05-16T09:49:32Z</time>
</trkpt>
<trkpt lat="48.91179699450731" lon="9.771092981100082">
<ele>439.20000000000005</ele>
<time>2023-05-16T09:49:33Z</time>
</trkpt>
<trkpt lat="48.91181199811399" lon="9.771034978330135">
<ele>439.20000000000005</ele>
<time>2023-05-16T09:49:34Z</time>
</trkpt>
<trkpt lat="48.911822978407145" lon="9.770976975560188">
<ele>439.4</ele>
<time>2023-05-16T09:49:35Z</time>
</trkpt>
<trkpt lat="48.91183798201382" lon="9.770914949476719">
<ele>439.4</ele>
<time>2023-05-16T09:49:36Z</time>
</trkpt>
<trkpt lat="48.91185197979212" lon="9.77085493505001">
<ele>439.4</ele>
<time>2023-05-16T09:49:37Z</time>
</trkpt>
<trkpt lat="48.911864971742034" lon="9.770794920623302">
<ele>439.4</ele>
<time>2023-05-16T09:49:38Z</time>
</trkpt>
<trkpt lat="48.91187796369195" lon="9.770737923681736">
<ele>439.4</ele>
<time>2023-05-16T09:49:39Z</time>
</trkpt>
<trkpt lat="48.911891961470246" lon="9.770679920911789">
<ele>439.6</ele>
<time>2023-05-16T09:49:40Z</time>
</trkpt>
<trkpt lat="48.91190495342016" lon="9.770617978647351">
<ele>439.6</ele>
<time>2023-05-16T09:49:41Z</time>
</trkpt>
<trkpt lat="48.91191794537008" lon="9.770559975877404">
<ele>439.6</ele>
<time>2023-05-16T09:49:42Z</time>
</trkpt>
<trkpt lat="48.911931943148375" lon="9.770496943965554">
<ele>439.6</ele>
<time>2023-05-16T09:49:43Z</time>
</trkpt>
<trkpt lat="48.91194493509829" lon="9.770432990044355">
<ele>439.6</ele>
<time>2023-05-16T09:49:44Z</time>
</trkpt>
<trkpt lat="48.91196195036173" lon="9.770369958132505">
<ele>439.6</ele>
<time>2023-05-16T09:49:45Z</time>
</trkpt>
<trkpt lat="48.911977959796786" lon="9.770301980897784">
<ele>439.6</ele>
<time>2023-05-16T09:49:46Z</time>
</trkpt>
<trkpt lat="48.91199195757508" lon="9.770239954814315">
<ele>439.6</ele>
<time>2023-05-16T09:49:47Z</time>
</trkpt>
<trkpt lat="48.912004949525" lon="9.770189998671412">
<ele>439.79999999999995</ele>
<time>2023-05-16T09:49:48Z</time>
</trkpt>
<trkpt lat="48.912016935646534" lon="9.770131995901465">
<ele>439.79999999999995</ele>
<time>2023-05-16T09:49:49Z</time>
</trkpt>
<trkpt lat="48.91203294508159" lon="9.770069969817996">
<ele>439.79999999999995</ele>
<time>2023-05-16T09:49:50Z</time>
</trkpt>
<trkpt lat="48.91205197200179" lon="9.770007943734527">
<ele>439.79999999999995</ele>
<time>2023-05-16T09:49:51Z</time>
</trkpt>
<trkpt lat="48.912062952294946" lon="9.769942983984947">
<ele>439.79999999999995</ele>
<time>2023-05-16T09:49:52Z</time>
</trkpt>
<trkpt lat="48.91207695007324" lon="9.769882969558239">
<ele>440</ele>
<time>2023-05-16T09:49:53Z</time>
</trkpt>
<trkpt lat="48.9120879303664" lon="9.76982295513153">
<ele>440</ele>
<time>2023-05-16T09:49:54Z</time>
</trkpt>
<trkpt lat="48.912106957286596" lon="9.769761934876442">
<ele>440</ele>
<time>2023-05-16T09:49:55Z</time>
</trkpt>
<trkpt lat="48.912126990035176" lon="9.769706949591637">
<ele>440</ele>
<time>2023-05-16T09:49:56Z</time>
</trkpt>
<trkpt lat="48.912146938964725" lon="9.769652970135212">
<ele>440</ele>
<time>2023-05-16T09:49:57Z</time>
</trkpt>
<trkpt lat="48.912166971713305" lon="9.769589938223362">
<ele>440</ele>
<time>2023-05-16T09:49:58Z</time>
</trkpt>
<trkpt lat="48.91218499280512" lon="9.769514920189977">
<ele>440</ele>
<time>2023-05-16T09:49:59Z</time>
</trkpt>
<trkpt lat="48.91220293007791" lon="9.769446942955256">
<ele>440</ele>
<time>2023-05-16T09:50:00Z</time>
</trkpt>
<trkpt lat="48.91221994534135" lon="9.769386928528547">
<ele>440</ele>
<time>2023-05-16T09:50:01Z</time>
</trkpt>
<trkpt lat="48.91223796643317" lon="9.769319957122207">
<ele>440</ele>
<time>2023-05-16T09:50:02Z</time>
</trkpt>
<trkpt lat="48.91225799918175" lon="9.769251979887486">
<ele>440</ele>
<time>2023-05-16T09:50:03Z</time>
</trkpt>
<trkpt lat="48.912276942282915" lon="9.769186936318874">
<ele>440.20000000000005</ele>
<time>2023-05-16T09:50:04Z</time>
</trkpt>
<trkpt lat="48.912294963374734" lon="9.769119964912534">
<ele>440.20000000000005</ele>
<time>2023-05-16T09:50:05Z</time>
</trkpt>
<trkpt lat="48.91231298446655" lon="9.769051987677813">
<ele>440.20000000000005</ele>
<time>2023-05-16T09:50:06Z</time>
</trkpt>
<trkpt lat="48.91232999972999" lon="9.768979987129569">
<ele>440.4</ele>
<time>2023-05-16T09:50:07Z</time>
</trkpt>
<trkpt lat="48.91234994865954" lon="9.76891997270286">
<ele>440.4</ele>
<time>2023-05-16T09:50:08Z</time>
</trkpt>
<trkpt lat="48.91236998140812" lon="9.768852917477489">
<ele>440.4</ele>
<time>2023-05-16T09:50:09Z</time>
</trkpt>
<trkpt lat="48.91238699667156" lon="9.768794998526573">
<ele>440.4</ele>
<time>2023-05-16T09:50:10Z</time>
</trkpt>
<trkpt lat="48.912404933944345" lon="9.768734984099865">
<ele>440.4</ele>
<time>2023-05-16T09:50:11Z</time>
</trkpt>
<trkpt lat="48.91242194920778" lon="9.768677987158298">
<ele>440.4</ele>
<time>2023-05-16T09:50:12Z</time>
</trkpt>
<trkpt lat="48.91243695281446" lon="9.768622918054461">
<ele>440.4</ele>
<time>2023-05-16T09:50:13Z</time>
</trkpt>
<trkpt lat="48.91245195642114" lon="9.768567932769656">
<ele>440.4</ele>
<time>2023-05-16T09:50:14Z</time>
</trkpt>
<trkpt lat="48.912467965856194" lon="9.768502973020077">
<ele>440.4</ele>
<time>2023-05-16T09:50:15Z</time>
</trkpt>
<trkpt lat="48.91248498111963" lon="9.768439941108227">
<ele>440.6</ele>
<time>2023-05-16T09:50:16Z</time>
</trkpt>
<trkpt lat="48.91250694170594" lon="9.768369952216744">
<ele>440.6</ele>
<time>2023-05-16T09:50:17Z</time>
</trkpt>
<trkpt lat="48.91254692338407" lon="9.768291916698217">
<ele>440.6</ele>
<time>2023-05-16T09:50:18Z</time>
</trkpt>
<trkpt lat="48.912576930597425" lon="9.768222933635116">
<ele>440.6</ele>
<time>2023-05-16T09:50:19Z</time>
</trkpt>
<trkpt lat="48.912599980831146" lon="9.768154956400394">
<ele>440.6</ele>
<time>2023-05-16T09:50:20Z</time>
</trkpt>
<trkpt lat="48.912621941417456" lon="9.768086979165673">
<ele>440.6</ele>
<time>2023-05-16T09:50:21Z</time>
</trkpt>
<trkpt lat="48.912641974166036" lon="9.768019923940301">
<ele>440.6</ele>
<time>2023-05-16T09:50:22Z</time>
</trkpt>
<trkpt lat="48.91265697777271" lon="9.767949935048819">
<ele>440.6</ele>
<time>2023-05-16T09:50:23Z</time>
</trkpt>
<trkpt lat="48.91267298720777" lon="9.767879946157336">
<ele>440.6</ele>
<time>2023-05-16T09:50:24Z</time>
</trkpt>
<trkpt lat="48.91269494779408" lon="9.767811968922615">
<ele>440.6</ele>
<time>2023-05-16T09:50:25Z</time>
</trkpt>
<trkpt lat="48.9127179980278" lon="9.767739968374372">
<ele>440.6</ele>
<time>2023-05-16T09:50:26Z</time>
</trkpt>
<trkpt lat="48.91274297609925" lon="9.76767492480576">
<ele>440.6</ele>
<time>2023-05-16T09:50:27Z</time>
</trkpt>
<trkpt lat="48.9127629250288" lon="9.767614994198084">
<ele>440.79999999999995</ele>
<time>2023-05-16T09:50:28Z</time>
</trkpt>
<trkpt lat="48.91278496943414" lon="9.767554979771376">
<ele>440.79999999999995</ele>
<time>2023-05-16T09:50:29Z</time>
</trkpt>
<trkpt lat="48.91280491836369" lon="9.76749798282981">
<ele>440.79999999999995</ele>
<time>2023-05-16T09:50:30Z</time>
</trkpt>
<trkpt lat="48.91282495111227" lon="9.767439980059862">
<ele>440.79999999999995</ele>
<time>2023-05-16T09:50:31Z</time>
</trkpt>
<trkpt lat="48.91284699551761" lon="9.767379965633154">
<ele>440.79999999999995</ele>
<time>2023-05-16T09:50:32Z</time>
</trkpt>
<trkpt lat="48.91286795027554" lon="9.767321962863207">
<ele>440.79999999999995</ele>
<time>2023-05-16T09:50:33Z</time>
</trkpt>
<trkpt lat="48.91289292834699" lon="9.767259936779737">
<ele>440.79999999999995</ele>
<time>2023-05-16T09:50:34Z</time>
</trkpt>
<trkpt lat="48.912916984409094" lon="9.76719992235303">
<ele>440.79999999999995</ele>
<time>2023-05-16T09:50:35Z</time>
</trkpt>
<trkpt lat="48.912941962480545" lon="9.767137980088592">
<ele>441</ele>
<time>2023-05-16T09:50:36Z</time>
</trkpt>
<trkpt lat="48.912964928895235" lon="9.767079977318645">
<ele>441</ele>
<time>2023-05-16T09:50:37Z</time>
</trkpt>
<trkpt lat="48.91298999078572" lon="9.767021974548697">
<ele>441</ele>
<time>2023-05-16T09:50:38Z</time>
</trkpt>
<trkpt lat="48.91301295720041" lon="9.76696296595037">
<ele>441</ele>
<time>2023-05-16T09:50:39Z</time>
</trkpt>
<trkpt lat="48.91303793527186" lon="9.766904963180423">
<ele>441</ele>
<time>2023-05-16T09:50:40Z</time>
</trkpt>
<trkpt lat="48.91306492500007" lon="9.76685299538076">
<ele>441.20000000000005</ele>
<time>2023-05-16T09:50:41Z</time>
</trkpt>
<trkpt lat="48.913091998547316" lon="9.766797926276922">
<ele>441.20000000000005</ele>
<time>2023-05-16T09:50:42Z</time>
</trkpt>
<trkpt lat="48.91311999410391" lon="9.76674797013402">
<ele>441.20000000000005</ele>
<time>2023-05-16T09:50:43Z</time>
</trkpt>
<trkpt lat="48.91315192915499" lon="9.766701953485608">
<ele>441.20000000000005</ele>
<time>2023-05-16T09:50:44Z</time>
</trkpt>
<trkpt lat="48.91318294219673" lon="9.766652919352055">
<ele>441.4</ele>
<time>2023-05-16T09:50:45Z</time>
</trkpt>
<trkpt lat="48.91321294941008" lon="9.766609920188785">
<ele>441.4</ele>
<time>2023-05-16T09:50:46Z</time>
</trkpt>
<trkpt lat="48.91324697993696" lon="9.766567926853895">
<ele>441.6</ele>
<time>2023-05-16T09:50:47Z</time>
</trkpt>
<trkpt lat="48.91327992081642" lon="9.76653196848929">
<ele>441.6</ele>
<time>2023-05-16T09:50:48Z</time>
</trkpt>
<trkpt lat="48.91331294551492" lon="9.766496932134032">
<ele>441.79999999999995</ele>
<time>2023-05-16T09:50:49Z</time>
</trkpt>
<trkpt lat="48.913346976041794" lon="9.766462985426188">
<ele>441.79999999999995</ele>
<time>2023-05-16T09:50:50Z</time>
</trkpt>
<trkpt lat="48.91337991692126" lon="9.766431972384453">
<ele>442</ele>
<time>2023-05-16T09:50:51Z</time>
</trkpt>
<trkpt lat="48.91341193579137" lon="9.766399953514338">
<ele>442</ele>
<time>2023-05-16T09:50:52Z</time>
</trkpt>
<trkpt lat="48.91344496048987" lon="9.766367934644222">
<ele>442</ele>
<time>2023-05-16T09:50:53Z</time>
</trkpt>
<trkpt lat="48.913476979359984" lon="9.76633993908763">
<ele>442.20000000000005</ele>
<time>2023-05-16T09:50:54Z</time>
</trkpt>
<trkpt lat="48.91350698657334" lon="9.766314961016178">
<ele>442.20000000000005</ele>
<time>2023-05-16T09:50:55Z</time>
</trkpt>
<trkpt lat="48.91353799961507" lon="9.766289982944727">
<ele>442.4</ele>
<time>2023-05-16T09:50:56Z</time>
</trkpt>
<trkpt lat="48.91356993466616" lon="9.766266932711005">
<ele>442.4</ele>
<time>2023-05-16T09:50:57Z</time>
</trkpt>
<trkpt lat="48.91359994187951" lon="9.766241954639554">
<ele>442.6</ele>
<time>2023-05-16T09:50:58Z</time>
</trkpt>
<trkpt lat="48.91363296657801" lon="9.766219994053245">
<ele>442.79999999999995</ele>
<time>2023-05-16T09:50:59Z</time>
</trkpt>
<trkpt lat="48.91366791911423" lon="9.766201972961426">
<ele>443</ele>
<time>2023-05-16T09:51:00Z</time>
</trkpt>
<trkpt lat="48.91370194964111" lon="9.766186969354749">
<ele>443.20000000000005</ele>
<time>2023-05-16T09:51:01Z</time>
</trkpt>
<trkpt lat="48.913734974339604" lon="9.76616794243455">
<ele>443.4</ele>
<time>2023-05-16T09:51:02Z</time>
</trkpt>
<trkpt lat="48.9137679990381" lon="9.766147993505001">
<ele>443.6</ele>
<time>2023-05-16T09:51:03Z</time>
</trkpt>
<trkpt lat="48.913799934089184" lon="9.766129972413182">
<ele>443.79999999999995</ele>
<time>2023-05-16T09:51:04Z</time>
</trkpt>
<trkpt lat="48.91383497044444" lon="9.766111951321363">
<ele>444</ele>
<time>2023-05-16T09:51:05Z</time>
</trkpt>
<trkpt lat="48.913869922980666" lon="9.766099965199828">
<ele>444.20000000000005</ele>
<time>2023-05-16T09:51:06Z</time>
</trkpt>
<trkpt lat="48.913906970992684" lon="9.766089990735054">
<ele>444.20000000000005</ele>
<time>2023-05-16T09:51:07Z</time>
</trkpt>
<trkpt lat="48.91393999569118" lon="9.766077920794487">
<ele>444.4</ele>
<time>2023-05-16T09:51:08Z</time>
</trkpt>
<trkpt lat="48.913974948227406" lon="9.766069957986474">
<ele>444.6</ele>
<time>2023-05-16T09:51:09Z</time>
</trkpt>
<trkpt lat="48.91400998458266" lon="9.766061995178461">
<ele>444.79999999999995</ele>
<time>2023-05-16T09:51:10Z</time>
</trkpt>
<trkpt lat="48.91404493711889" lon="9.766054954379797">
<ele>445</ele>
<time>2023-05-16T09:51:11Z</time>
</trkpt>
<trkpt lat="48.914079973474145" lon="9.766046991571784">
<ele>445.20000000000005</ele>
<time>2023-05-16T09:51:12Z</time>
</trkpt>
<trkpt lat="48.91411693766713" lon="9.766037939116359">
<ele>445.6</ele>
<time>2023-05-16T09:51:13Z</time>
</trkpt>
<trkpt lat="48.91415197402239" lon="9.766029976308346">
<ele>445.79999999999995</ele>
<time>2023-05-16T09:51:14Z</time>
</trkpt>
<trkpt lat="48.914186926558614" lon="9.766021929681301">
<ele>446</ele>
<time>2023-05-16T09:51:15Z</time>
</trkpt>
<trkpt lat="48.91421995125711" lon="9.766014972701669">
<ele>446.20000000000005</ele>
<time>2023-05-16T09:51:16Z</time>
</trkpt>
<trkpt lat="48.91425498761237" lon="9.766006926074624">
<ele>446.4</ele>
<time>2023-05-16T09:51:17Z</time>
</trkpt>
<trkpt lat="48.91428994014859" lon="9.76599695160985">
<ele>446.6</ele>
<time>2023-05-16T09:51:18Z</time>
</trkpt>
<trkpt lat="48.91432296484709" lon="9.765987982973456">
<ele>446.79999999999995</ele>
<time>2023-05-16T09:51:19Z</time>
</trkpt>
<trkpt lat="48.914356995373964" lon="9.765982953831553">
<ele>447</ele>
<time>2023-05-16T09:51:20Z</time>
</trkpt>
<trkpt lat="48.91438499093056" lon="9.76597792468965">
<ele>447.20000000000005</ele>
<time>2023-05-16T09:51:21Z</time>
</trkpt>
<trkpt lat="48.91441198065877" lon="9.765967950224876">
<ele>447.4</ele>
<time>2023-05-16T09:51:22Z</time>
</trkpt>
<trkpt lat="48.914442993700504" lon="9.765957975760102">
<ele>447.4</ele>
<time>2023-05-16T09:51:23Z</time>
</trkpt>
<trkpt lat="48.91447291709483" lon="9.765946995466948">
<ele>447.6</ele>
<time>2023-05-16T09:51:24Z</time>
</trkpt>
<trkpt lat="48.91450493596494" lon="9.765936937183142">
<ele>447.79999999999995</ele>
<time>2023-05-16T09:51:25Z</time>
</trkpt>
<trkpt lat="48.914534943178296" lon="9.765926962718368">
<ele>447.79999999999995</ele>
<time>2023-05-16T09:51:26Z</time>
</trkpt>
<trkpt lat="48.91456293873489" lon="9.765914976596832">
<ele>448</ele>
<time>2023-05-16T09:51:27Z</time>
</trkpt>
<trkpt lat="48.91459194011986" lon="9.765896955505013">
<ele>448.20000000000005</ele>
<time>2023-05-16T09:51:28Z</time>
</trkpt>
<trkpt lat="48.914617924019694" lon="9.765877928584814">
<ele>448.4</ele>
<time>2023-05-16T09:51:29Z</time>
</trkpt>
<trkpt lat="48.914639968425035" lon="9.765859991312027">
<ele>448.79999999999995</ele>
<time>2023-05-16T09:51:30Z</time>
</trkpt>
<trkpt lat="48.914662934839725" lon="9.765841970220208">
<ele>449</ele>
<time>2023-05-16T09:51:31Z</time>
</trkpt>
<trkpt lat="48.91468699090183" lon="9.765821937471628">
<ele>449.20000000000005</ele>
<time>2023-05-16T09:51:32Z</time>
</trkpt>
<trkpt lat="48.91470995731652" lon="9.765797965228558">
<ele>449.4</ele>
<time>2023-05-16T09:51:33Z</time>
</trkpt>
<trkpt lat="48.91473996452987" lon="9.765771981328726">
<ele>449.6</ele>
<time>2023-05-16T09:51:34Z</time>
</trkpt>
<trkpt lat="48.914769971743226" lon="9.765746919438243">
<ele>449.79999999999995</ele>
<time>2023-05-16T09:51:35Z</time>
</trkpt>
<trkpt lat="48.91479696147144" lon="9.76571992971003">
<ele>450</ele>
<time>2023-05-16T09:51:36Z</time>
</trkpt>
<trkpt lat="48.91481992788613" lon="9.765692939981818">
<ele>450.20000000000005</ele>
<time>2023-05-16T09:51:37Z</time>
</trkpt>
<trkpt lat="48.91484498977661" lon="9.765664944425225">
<ele>450.4</ele>
<time>2023-05-16T09:51:38Z</time>
</trkpt>
<trkpt lat="48.91486996784806" lon="9.765637954697013">
<ele>450.6</ele>
<time>2023-05-16T09:51:39Z</time>
</trkpt>
<trkpt lat="48.914894945919514" lon="9.765607947483659">
<ele>450.79999999999995</ele>
<time>2023-05-16T09:51:40Z</time>
</trkpt>
<trkpt lat="48.914919923990965" lon="9.765574922785163">
<ele>451</ele>
<time>2023-05-16T09:51:41Z</time>
</trkpt>
<trkpt lat="48.914941968396306" lon="9.76554499939084">
<ele>451.20000000000005</ele>
<time>2023-05-16T09:51:42Z</time>
</trkpt>
<trkpt lat="48.914962923154235" lon="9.765506945550442">
<ele>451.4</ele>
<time>2023-05-16T09:51:43Z</time>
</trkpt>
<trkpt lat="48.91498798504472" lon="9.765466963872313">
<ele>451.6</ele>
<time>2023-05-16T09:51:44Z</time>
</trkpt>
<trkpt lat="48.91500994563103" lon="9.765431927517056">
<ele>451.79999999999995</ele>
<time>2023-05-16T09:51:45Z</time>
</trkpt>
<trkpt lat="48.91503299586475" lon="9.76539496332407">
<ele>452</ele>
<time>2023-05-16T09:51:46Z</time>
</trkpt>
<trkpt lat="48.91505495645106" lon="9.765364956110716">
<ele>452.20000000000005</ele>
<time>2023-05-16T09:51:47Z</time>
</trkpt>
<trkpt lat="48.91507792286575" lon="9.76533193141222">
<ele>452.4</ele>
<time>2023-05-16T09:51:48Z</time>
</trkpt>
<trkpt lat="48.91510298475623" lon="9.765294967219234">
<ele>452.6</ele>
<time>2023-05-16T09:51:49Z</time>
</trkpt>
<trkpt lat="48.9151269569993" lon="9.765257919207215">
<ele>452.79999999999995</ele>
<time>2023-05-16T09:51:50Z</time>
</trkpt>
<trkpt lat="48.915152940899134" lon="9.765219949185848">
<ele>453</ele>
<time>2023-05-16T09:51:51Z</time>
</trkpt>
<trkpt lat="48.915176996961236" lon="9.765189941972494">
<ele>453.20000000000005</ele>
<time>2023-05-16T09:51:52Z</time>
</trkpt>
<trkpt lat="48.91520197503269" lon="9.765157923102379">
<ele>453.6</ele>
<time>2023-05-16T09:51:53Z</time>
</trkpt>
<trkpt lat="48.91522494144738" lon="9.765127999708056">
<ele>453.79999999999995</ele>
<time>2023-05-16T09:51:54Z</time>
</trkpt>
<trkpt lat="48.9152479916811" lon="9.765096986666322">
<ele>454</ele>
<time>2023-05-16T09:51:55Z</time>
</trkpt>
<trkpt lat="48.91527296975255" lon="9.765067985281348">
<ele>454.20000000000005</ele>
<time>2023-05-16T09:51:56Z</time>
</trkpt>
<trkpt lat="48.915302976965904" lon="9.765042923390865">
<ele>454.4</ele>
<time>2023-05-16T09:51:57Z</time>
</trkpt>
<trkpt lat="48.91533197835088" lon="9.765017945319414">
<ele>454.6</ele>
<time>2023-05-16T09:51:58Z</time>
</trkpt>
<trkpt lat="48.91536198556423" lon="9.764991961419582">
<ele>454.79999999999995</ele>
<time>2023-05-16T09:51:59Z</time>
</trkpt>
<trkpt lat="48.915391992777586" lon="9.764966983348131">
<ele>455</ele>
<time>2023-05-16T09:52:00Z</time>
</trkpt>
<trkpt lat="48.91542292200029" lon="9.76494493894279">
<ele>455.20000000000005</ele>
<time>2023-05-16T09:52:01Z</time>
</trkpt>
<trkpt lat="48.91545292921364" lon="9.764926917850971">
<ele>455.4</ele>
<time>2023-05-16T09:52:02Z</time>
</trkpt>
<trkpt lat="48.91548193059862" lon="9.764909986406565">
<ele>455.6</ele>
<time>2023-05-16T09:52:03Z</time>
</trkpt>
<trkpt lat="48.91551193781197" lon="9.764892971143126">
<ele>455.79999999999995</ele>
<time>2023-05-16T09:52:04Z</time>
</trkpt>
<trkpt lat="48.915541945025325" lon="9.764881990849972">
<ele>456</ele>
<time>2023-05-16T09:52:05Z</time>
</trkpt>
<trkpt lat="48.91557295806706" lon="9.76487796753645">
<ele>456.20000000000005</ele>
<time>2023-05-16T09:52:06Z</time>
</trkpt>
<trkpt lat="48.915604976937175" lon="9.764876961708069">
<ele>456.4</ele>
<time>2023-05-16T09:52:07Z</time>
</trkpt>
<trkpt lat="48.91563699580729" lon="9.764874950051308">
<ele>456.4</ele>
<time>2023-05-16T09:52:08Z</time>
</trkpt>
<trkpt lat="48.915669936686754" lon="9.76487796753645">
<ele>456.6</ele>
<time>2023-05-16T09:52:09Z</time>
</trkpt>
<trkpt lat="48.91570296138525" lon="9.764882996678352">
<ele>456.79999999999995</ele>
<time>2023-05-16T09:52:10Z</time>
</trkpt>
<trkpt lat="48.91573699191213" lon="9.764891965314746">
<ele>457</ele>
<time>2023-05-16T09:52:11Z</time>
</trkpt>
<trkpt lat="48.91576792113483" lon="9.7649029456079">
<ele>457.20000000000005</ele>
<time>2023-05-16T09:52:12Z</time>
</trkpt>
<trkpt lat="48.915801951661706" lon="9.764916943386197">
<ele>457.4</ele>
<time>2023-05-16T09:52:13Z</time>
</trkpt>
<trkpt lat="48.91583195887506" lon="9.764932952821255">
<ele>457.6</ele>
<time>2023-05-16T09:52:14Z</time>
</trkpt>
<trkpt lat="48.915861966088414" lon="9.764952985569835">
<ele>457.79999999999995</ele>
<time>2023-05-16T09:52:15Z</time>
</trkpt>
<trkpt lat="48.91588996164501" lon="9.764974946156144">
<ele>457.79999999999995</ele>
<time>2023-05-16T09:52:16Z</time>
</trkpt>
<trkpt lat="48.9159179572016" lon="9.764999924227595">
<ele>458</ele>
<time>2023-05-16T09:52:17Z</time>
</trkpt>
<trkpt lat="48.915946958586574" lon="9.76502699777484">
<ele>458</ele>
<time>2023-05-16T09:52:18Z</time>
</trkpt>
<trkpt lat="48.915972942486405" lon="9.765052981674671">
<ele>458.20000000000005</ele>
<time>2023-05-16T09:52:19Z</time>
</trkpt>
<trkpt lat="48.91599792055786" lon="9.765079971402884">
<ele>458.4</ele>
<time>2023-05-16T09:52:20Z</time>
</trkpt>
<trkpt lat="48.91602298244834" lon="9.765107966959476">
<ele>458.4</ele>
<time>2023-05-16T09:52:21Z</time>
</trkpt>
<trkpt lat="48.91605198383331" lon="9.765134956687689">
<ele>458.6</ele>
<time>2023-05-16T09:52:22Z</time>
</trkpt>
<trkpt lat="48.91608199104667" lon="9.765162952244282">
<ele>458.79999999999995</ele>
<time>2023-05-16T09:52:23Z</time>
</trkpt>
<trkpt lat="48.91610998660326" lon="9.765191953629255">
<ele>458.79999999999995</ele>
<time>2023-05-16T09:52:24Z</time>
</trkpt>
<trkpt lat="48.91613798215985" lon="9.765219949185848">
<ele>459</ele>
<time>2023-05-16T09:52:25Z</time>
</trkpt>
<trkpt lat="48.91616698354483" lon="9.765247944742441">
<ele>459.20000000000005</ele>
<time>2023-05-16T09:52:26Z</time>
</trkpt>
<trkpt lat="48.91619296744466" lon="9.765274934470654">
<ele>459.4</ele>
<time>2023-05-16T09:52:27Z</time>
</trkpt>
<trkpt lat="48.91621995717287" lon="9.765301924198866">
<ele>459.6</ele>
<time>2023-05-16T09:52:28Z</time>
</trkpt>
<trkpt lat="48.916249964386225" lon="9.765326986089349">
<ele>459.79999999999995</ele>
<time>2023-05-16T09:52:29Z</time>
</trkpt>
<trkpt lat="48.91627695411444" lon="9.765354981645942">
<ele>460</ele>
<time>2023-05-16T09:52:30Z</time>
</trkpt>
<trkpt lat="48.91630293801427" lon="9.765381971374154">
<ele>460.20000000000005</ele>
<time>2023-05-16T09:52:31Z</time>
</trkpt>
<trkpt lat="48.91633193939924" lon="9.765404937788844">
<ele>460.20000000000005</ele>
<time>2023-05-16T09:52:32Z</time>
</trkpt>
<trkpt lat="48.91636295244098" lon="9.765426982194185">
<ele>460.4</ele>
<time>2023-05-16T09:52:33Z</time>
</trkpt>
<trkpt lat="48.91639698296785" lon="9.765444919466972">
<ele>460.6</ele>
<time>2023-05-16T09:52:34Z</time>
</trkpt>
<trkpt lat="48.91642992384732" lon="9.76546193473041">
<ele>460.79999999999995</ele>
<time>2023-05-16T09:52:35Z</time>
</trkpt>
<trkpt lat="48.916462948545814" lon="9.765474926680326">
<ele>461</ele>
<time>2023-05-16T09:52:36Z</time>
</trkpt>
<trkpt lat="48.91649697907269" lon="9.765482973307371">
<ele>461</ele>
<time>2023-05-16T09:52:37Z</time>
</trkpt>
<trkpt lat="48.916531931608915" lon="9.765487918630242">
<ele>461.20000000000005</ele>
<time>2023-05-16T09:52:38Z</time>
</trkpt>
<trkpt lat="48.91656294465065" lon="9.765489930287004">
<ele>461.4</ele>
<time>2023-05-16T09:52:39Z</time>
</trkpt>
<trkpt lat="48.91659697517753" lon="9.765489930287004">
<ele>461.4</ele>
<time>2023-05-16T09:52:40Z</time>
</trkpt>
<trkpt lat="48.91662999987602" lon="9.765482973307371">
<ele>461.6</ele>
<time>2023-05-16T09:52:41Z</time>
</trkpt>
<trkpt lat="48.916661934927106" lon="9.765472998842597">
<ele>461.6</ele>
<time>2023-05-16T09:52:42Z</time>
</trkpt>
<trkpt lat="48.9166949596256" lon="9.76545698940754">
<ele>461.79999999999995</ele>
<time>2023-05-16T09:52:43Z</time>
</trkpt>
<trkpt lat="48.91672697849572" lon="9.76543695665896">
<ele>461.79999999999995</ele>
<time>2023-05-16T09:52:44Z</time>
</trkpt>
<trkpt lat="48.91675799153745" lon="9.765412984415889">
<ele>462</ele>
<time>2023-05-16T09:52:45Z</time>
</trkpt>
<trkpt lat="48.916789926588535" lon="9.765384988859296">
<ele>462.20000000000005</ele>
<time>2023-05-16T09:52:46Z</time>
</trkpt>
<trkpt lat="48.91681691631675" lon="9.7653519641608">
<ele>462.20000000000005</ele>
<time>2023-05-16T09:52:47Z</time>
</trkpt>
<trkpt lat="48.91684197820723" lon="9.765314999967813">
<ele>462.4</ele>
<time>2023-05-16T09:52:48Z</time>
</trkpt>
<trkpt lat="48.91686695627868" lon="9.765277951955795">
<ele>462.6</ele>
<time>2023-05-16T09:52:49Z</time>
</trkpt>
<trkpt lat="48.91688992269337" lon="9.765236964449286">
<ele>462.79999999999995</ele>
<time>2023-05-16T09:52:50Z</time>
</trkpt>
<trkpt lat="48.91690995544195" lon="9.765192959457636">
<ele>462.79999999999995</ele>
<time>2023-05-16T09:52:51Z</time>
</trkpt>
<trkpt lat="48.91693199984729" lon="9.765151971951127">
<ele>463</ele>
<time>2023-05-16T09:52:52Z</time>
</trkpt>
<trkpt lat="48.91694993712008" lon="9.765111990272999">
<ele>463.20000000000005</ele>
<time>2023-05-16T09:52:53Z</time>
</trkpt>
<trkpt lat="48.91696695238352" lon="9.765067985281348">
<ele>463.4</ele>
<time>2023-05-16T09:52:54Z</time>
</trkpt>
<trkpt lat="48.91698497347534" lon="9.765024986118078">
<ele>463.6</ele>
<time>2023-05-16T09:52:55Z</time>
</trkpt>
<trkpt lat="48.917004922404885" lon="9.764981986954808">
<ele>463.6</ele>
<time>2023-05-16T09:52:56Z</time>
</trkpt>
<trkpt lat="48.917024955153465" lon="9.764936976134777">
<ele>463.79999999999995</ele>
<time>2023-05-16T09:52:57Z</time>
</trkpt>
<trkpt lat="48.917046999558806" lon="9.764892971143126">
<ele>464</ele>
<time>2023-05-16T09:52:58Z</time>
</trkpt>
<trkpt lat="48.917067954316735" lon="9.764847960323095">
<ele>464.20000000000005</ele>
<time>2023-05-16T09:52:59Z</time>
</trkpt>
<trkpt lat="48.917087987065315" lon="9.764802949503064">
<ele>464.4</ele>
<time>2023-05-16T09:53:00Z</time>
</trkpt>
<trkpt lat="48.91710793599486" lon="9.764761961996555">
<ele>464.6</ele>
<time>2023-05-16T09:53:01Z</time>
</trkpt>
<trkpt lat="48.9171249512583" lon="9.764717957004905">
<ele>464.79999999999995</ele>
<time>2023-05-16T09:53:02Z</time>
</trkpt>
<trkpt lat="48.91714297235012" lon="9.764672946184874">
<ele>465</ele>
<time>2023-05-16T09:53:03Z</time>
</trkpt>
<trkpt lat="48.91716292127967" lon="9.764627935364842">
<ele>465.20000000000005</ele>
<time>2023-05-16T09:53:04Z</time>
</trkpt>
<trkpt lat="48.91718295402825" lon="9.764586947858334">
<ele>465.20000000000005</ele>
<time>2023-05-16T09:53:05Z</time>
</trkpt>
<trkpt lat="48.91720298677683" lon="9.764541937038302">
<ele>465.4</ele>
<time>2023-05-16T09:53:06Z</time>
</trkpt>
<trkpt lat="48.91722494736314" lon="9.764497932046652">
<ele>465.6</ele>
<time>2023-05-16T09:53:07Z</time>
</trkpt>
<trkpt lat="48.91724498011172" lon="9.764456944540143">
<ele>465.6</ele>
<time>2023-05-16T09:53:08Z</time>
</trkpt>
<trkpt lat="48.917262917384505" lon="9.764414951205254">
<ele>465.79999999999995</ele>
<time>2023-05-16T09:53:09Z</time>
</trkpt>
<trkpt lat="48.917281944304705" lon="9.764371952041984">
<ele>466</ele>
<time>2023-05-16T09:53:10Z</time>
</trkpt>
<trkpt lat="48.91729795373976" lon="9.764327947050333">
<ele>466.20000000000005</ele>
<time>2023-05-16T09:53:11Z</time>
</trkpt>
<trkpt lat="48.91731698065996" lon="9.764281930401921">
<ele>466.20000000000005</ele>
<time>2023-05-16T09:53:12Z</time>
</trkpt>
<trkpt lat="48.91733692958951" lon="9.76423691958189">
<ele>466.4</ele>
<time>2023-05-16T09:53:13Z</time>
</trkpt>
<trkpt lat="48.91735696233809" lon="9.76419199258089">
<ele>466.4</ele>
<time>2023-05-16T09:53:14Z</time>
</trkpt>
<trkpt lat="48.91737699508667" lon="9.76414798758924">
<ele>466.6</ele>
<time>2023-05-16T09:53:15Z</time>
</trkpt>
<trkpt lat="48.9173979498446" lon="9.764101970940828">
<ele>466.6</ele>
<time>2023-05-16T09:53:16Z</time>
</trkpt>
<trkpt lat="48.9174169767648" lon="9.764054948464036">
<ele>466.6</ele>
<time>2023-05-16T09:53:17Z</time>
</trkpt>
<trkpt lat="48.91743499785662" lon="9.764006920158863">
<ele>466.79999999999995</ele>
<time>2023-05-16T09:53:18Z</time>
</trkpt>
<trkpt lat="48.917452935129404" lon="9.763959981501102">
<ele>466.79999999999995</ele>
<time>2023-05-16T09:53:19Z</time>
</trkpt>
<trkpt lat="48.917474979534745" lon="9.763914970681071">
<ele>467</ele>
<time>2023-05-16T09:53:20Z</time>
</trkpt>
<trkpt lat="48.91749492846429" lon="9.76386995986104">
<ele>467</ele>
<time>2023-05-16T09:53:21Z</time>
</trkpt>
<trkpt lat="48.91751496121287" lon="9.763824949041009">
<ele>467.20000000000005</ele>
<time>2023-05-16T09:53:22Z</time>
</trkpt>
<trkpt lat="48.91753499396145" lon="9.763777926564217">
<ele>467.20000000000005</ele>
<time>2023-05-16T09:53:23Z</time>
</trkpt>
<trkpt lat="48.917554942891" lon="9.763729982078075">
<ele>467.4</ele>
<time>2023-05-16T09:53:24Z</time>
</trkpt>
<trkpt lat="48.91757799312472" lon="9.763682959601283">
<ele>467.4</ele>
<time>2023-05-16T09:53:25Z</time>
</trkpt>
<trkpt lat="48.917601965367794" lon="9.76363493129611">
<ele>467.6</ele>
<time>2023-05-16T09:53:26Z</time>
</trkpt>
<trkpt lat="48.917624931782484" lon="9.763581957668066">
<ele>467.6</ele>
<time>2023-05-16T09:53:27Z</time>
</trkpt>
<trkpt lat="48.917647982016206" lon="9.763527978211641">
<ele>467.6</ele>
<time>2023-05-16T09:53:28Z</time>
</trkpt>
<trkpt lat="48.917671954259276" lon="9.763474920764565">
<ele>467.79999999999995</ele>
<time>2023-05-16T09:53:29Z</time>
</trkpt>
<trkpt lat="48.91769299283624" lon="9.763422952964902">
<ele>467.79999999999995</ele>
<time>2023-05-16T09:53:30Z</time>
</trkpt>
<trkpt lat="48.91771696507931" lon="9.763369979336858">
<ele>467.79999999999995</ele>
<time>2023-05-16T09:53:31Z</time>
</trkpt>
<trkpt lat="48.917739931494" lon="9.763317927718163">
<ele>468</ele>
<time>2023-05-16T09:53:32Z</time>
</trkpt>
<trkpt lat="48.91776499338448" lon="9.763264954090118">
<ele>468</ele>
<time>2023-05-16T09:53:33Z</time>
</trkpt>
<trkpt lat="48.91778795979917" lon="9.763209968805313">
<ele>468</ele>
<time>2023-05-16T09:53:34Z</time>
</trkpt>
<trkpt lat="48.91781293787062" lon="9.763156995177269">
<ele>468.20000000000005</ele>
<time>2023-05-16T09:53:35Z</time>
</trkpt>
<trkpt lat="48.917837999761105" lon="9.763102931901813">
<ele>468.20000000000005</ele>
<time>2023-05-16T09:53:36Z</time>
</trkpt>
<trkpt lat="48.917861972004175" lon="9.763046940788627">
<ele>468.20000000000005</ele>
<time>2023-05-16T09:53:37Z</time>
</trkpt>
<trkpt lat="48.917882926762104" lon="9.762991955503821">
<ele>468.20000000000005</ele>
<time>2023-05-16T09:53:38Z</time>
</trkpt>
<trkpt lat="48.91790798865259" lon="9.762936970219016">
<ele>468.4</ele>
<time>2023-05-16T09:53:39Z</time>
</trkpt>
<trkpt lat="48.91793296672404" lon="9.76288198493421">
<ele>468.4</ele>
<time>2023-05-16T09:53:40Z</time>
</trkpt>
<trkpt lat="48.91795794479549" lon="9.762824987992644">
<ele>468.4</ele>
<time>2023-05-16T09:53:41Z</time>
</trkpt>
<trkpt lat="48.91798292286694" lon="9.762767991051078">
<ele>468.4</ele>
<time>2023-05-16T09:53:42Z</time>
</trkpt>
<trkpt lat="48.918009996414185" lon="9.76271292194724">
<ele>468.6</ele>
<time>2023-05-16T09:53:43Z</time>
</trkpt>
<trkpt lat="48.918034974485636" lon="9.762661959975958">
<ele>468.6</ele>
<time>2023-05-16T09:53:44Z</time>
</trkpt>
<trkpt lat="48.91805995255709" lon="9.762609992176294">
<ele>468.6</ele>
<time>2023-05-16T09:53:45Z</time>
</trkpt>
<trkpt lat="48.91808291897178" lon="9.762557940557599">
<ele>468.6</ele>
<time>2023-05-16T09:53:46Z</time>
</trkpt>
<trkpt lat="48.91810697503388" lon="9.762504966929555">
<ele>468.6</ele>
<time>2023-05-16T09:53:47Z</time>
</trkpt>
<trkpt lat="48.91812994144857" lon="9.76245199330151">
<ele>468.79999999999995</ele>
<time>2023-05-16T09:53:48Z</time>
</trkpt>
<trkpt lat="48.91815299168229" lon="9.762394996359944">
<ele>468.79999999999995</ele>
<time>2023-05-16T09:53:49Z</time>
</trkpt>
<trkpt lat="48.91817696392536" lon="9.762337999418378">
<ele>468.79999999999995</ele>
<time>2023-05-16T09:53:50Z</time>
</trkpt>
<trkpt lat="48.91819993034005" lon="9.76228293031454">
<ele>468.79999999999995</ele>
<time>2023-05-16T09:53:51Z</time>
</trkpt>
<trkpt lat="48.918226920068264" lon="9.762229956686497">
<ele>469</ele>
<time>2023-05-16T09:53:52Z</time>
</trkpt>
<trkpt lat="48.918249970301986" lon="9.762177988886833">
<ele>469</ele>
<time>2023-05-16T09:53:53Z</time>
</trkpt>
<trkpt lat="48.91827494837344" lon="9.762124931439757">
<ele>469</ele>
<time>2023-05-16T09:53:54Z</time>
</trkpt>
<trkpt lat="48.91829699277878" lon="9.76206793449819">
<ele>469.20000000000005</ele>
<time>2023-05-16T09:53:55Z</time>
</trkpt>
<trkpt lat="48.91831995919347" lon="9.762012949213386">
<ele>469.4</ele>
<time>2023-05-16T09:53:56Z</time>
</trkpt>
<trkpt lat="48.91834292560816" lon="9.761961987242103">
<ele>469.4</ele>
<time>2023-05-16T09:53:57Z</time>
</trkpt>
<trkpt lat="48.9183649700135" lon="9.761909935623407">
<ele>469.6</ele>
<time>2023-05-16T09:53:58Z</time>
</trkpt>
<trkpt lat="48.91838793642819" lon="9.761857967823744">
<ele>469.6</ele>
<time>2023-05-16T09:53:59Z</time>
</trkpt>
<trkpt lat="48.91841199249029" lon="9.76180792786181">
<ele>469.6</ele>
<time>2023-05-16T09:54:00Z</time>
</trkpt>
<trkpt lat="48.91843495890498" lon="9.761754954233766">
<ele>469.6</ele>
<time>2023-05-16T09:54:01Z</time>
</trkpt>
<trkpt lat="48.91845691949129" lon="9.761701980605721">
<ele>469.6</ele>
<time>2023-05-16T09:54:02Z</time>
</trkpt>
<trkpt lat="48.91847996972501" lon="9.761646995320916">
<ele>469.6</ele>
<time>2023-05-16T09:54:03Z</time>
</trkpt>
<trkpt lat="48.918504947796464" lon="9.76158999837935">
<ele>469.6</ele>
<time>2023-05-16T09:54:04Z</time>
</trkpt>
<trkpt lat="48.918527998030186" lon="9.761532917618752">
<ele>469.6</ele>
<time>2023-05-16T09:54:05Z</time>
</trkpt>
<trkpt lat="48.918551970273256" lon="9.761477932333946">
<ele>469.6</ele>
<time>2023-05-16T09:54:06Z</time>
</trkpt>
<trkpt lat="48.918574936687946" lon="9.761424958705902">
<ele>469.6</ele>
<time>2023-05-16T09:54:07Z</time>
</trkpt>
<trkpt lat="48.91859698109329" lon="9.761372990906239">
<ele>469.79999999999995</ele>
<time>2023-05-16T09:54:08Z</time>
</trkpt>
<trkpt lat="48.91861994750798" lon="9.761319933459163">
<ele>469.79999999999995</ele>
<time>2023-05-16T09:54:09Z</time>
</trkpt>
<trkpt lat="48.91864199191332" lon="9.761262936517596">
<ele>469.79999999999995</ele>
<time>2023-05-16T09:54:10Z</time>
</trkpt>
<trkpt lat="48.91866495832801" lon="9.761209962889552">
<ele>469.79999999999995</ele>
<time>2023-05-16T09:54:11Z</time>
</trkpt>
<trkpt lat="48.91868993639946" lon="9.761156989261508">
<ele>469.79999999999995</ele>
<time>2023-05-16T09:54:12Z</time>
</trkpt>
<trkpt lat="48.91871499828994" lon="9.761101920157671">
<ele>469.79999999999995</ele>
<time>2023-05-16T09:54:13Z</time>
</trkpt>
<trkpt lat="48.91873695887625" lon="9.761047940701246">
<ele>469.79999999999995</ele>
<time>2023-05-16T09:54:14Z</time>
</trkpt>
<trkpt lat="48.91875799745321" lon="9.760996978729963">
<ele>469.79999999999995</ele>
<time>2023-05-16T09:54:15Z</time>
</trkpt>
<trkpt lat="48.91878196969628" lon="9.760944927111268">
<ele>470</ele>
<time>2023-05-16T09:54:16Z</time>
</trkpt>
<trkpt lat="48.91880493611097" lon="9.760891953483224">
<ele>470</ele>
<time>2023-05-16T09:54:17Z</time>
</trkpt>
<trkpt lat="48.918829998001456" lon="9.760836968198419">
<ele>470</ele>
<time>2023-05-16T09:54:18Z</time>
</trkpt>
<trkpt lat="48.918852964416146" lon="9.760784916579723">
<ele>470</ele>
<time>2023-05-16T09:54:19Z</time>
</trkpt>
<trkpt lat="48.91887693665922" lon="9.76073294878006">
<ele>470</ele>
<time>2023-05-16T09:54:20Z</time>
</trkpt>
<trkpt lat="48.91890292055905" lon="9.760682992637157">
<ele>470.20000000000005</ele>
<time>2023-05-16T09:54:21Z</time>
</trkpt>
<trkpt lat="48.91892697662115" lon="9.760632952675223">
<ele>470.20000000000005</ele>
<time>2023-05-16T09:54:22Z</time>
</trkpt>
<trkpt lat="48.91894994303584" lon="9.76058199070394">
<ele>470.20000000000005</ele>
<time>2023-05-16T09:54:23Z</time>
</trkpt>
<trkpt lat="48.91897198744118" lon="9.760529939085245">
<ele>470.20000000000005</ele>
<time>2023-05-16T09:54:24Z</time>
</trkpt>
<trkpt lat="48.91899495385587" lon="9.760477971285582">
<ele>470.4</ele>
<time>2023-05-16T09:54:25Z</time>
</trkpt>
<trkpt lat="48.91901792027056" lon="9.760426925495267">
<ele>470.4</ele>
<time>2023-05-16T09:54:26Z</time>
</trkpt>
<trkpt lat="48.919041976332664" lon="9.760371940210462">
<ele>470.4</ele>
<time>2023-05-16T09:54:27Z</time>
</trkpt>
<trkpt lat="48.91906293109059" lon="9.760319972410798">
<ele>470.6</ele>
<time>2023-05-16T09:54:28Z</time>
</trkpt>
<trkpt lat="48.919084975495934" lon="9.760266998782754">
<ele>470.6</ele>
<time>2023-05-16T09:54:29Z</time>
</trkpt>
<trkpt lat="48.919107941910625" lon="9.760214947164059">
<ele>470.6</ele>
<time>2023-05-16T09:54:30Z</time>
</trkpt>
<trkpt lat="48.91913199797273" lon="9.760159961879253">
<ele>470.6</ele>
<time>2023-05-16T09:54:31Z</time>
</trkpt>
<trkpt lat="48.91915496438742" lon="9.76010799407959">
<ele>470.6</ele>
<time>2023-05-16T09:54:32Z</time>
</trkpt>
<trkpt lat="48.91917994245887" lon="9.760054936632514">
<ele>470.6</ele>
<time>2023-05-16T09:54:33Z</time>
</trkpt>
<trkpt lat="48.91920198686421" lon="9.76000196300447">
<ele>470.6</ele>
<time>2023-05-16T09:54:34Z</time>
</trkpt>
<trkpt lat="48.91922294162214" lon="9.759947983548045">
<ele>470.79999999999995</ele>
<time>2023-05-16T09:54:35Z</time>
</trkpt>
<trkpt lat="48.91924699768424" lon="9.75989492610097">
<ele>470.79999999999995</ele>
<time>2023-05-16T09:54:36Z</time>
</trkpt>
<trkpt lat="48.91926996409893" lon="9.759841952472925">
<ele>470.79999999999995</ele>
<time>2023-05-16T09:54:37Z</time>
</trkpt>
<trkpt lat="48.91929293051362" lon="9.7597879730165">
<ele>470.79999999999995</ele>
<time>2023-05-16T09:54:38Z</time>
</trkpt>
<trkpt lat="48.91931698657572" lon="9.759732987731695">
<ele>471</ele>
<time>2023-05-16T09:54:39Z</time>
</trkpt>
<trkpt lat="48.91933794133365" lon="9.75967699661851">
<ele>471</ele>
<time>2023-05-16T09:54:40Z</time>
</trkpt>
<trkpt lat="48.9193629194051" lon="9.759621927514672">
<ele>471</ele>
<time>2023-05-16T09:54:41Z</time>
</trkpt>
<trkpt lat="48.919386975467205" lon="9.759566942229867">
<ele>471</ele>
<time>2023-05-16T09:54:42Z</time>
</trkpt>
<trkpt lat="48.919411953538656" lon="9.759512962773442">
<ele>471</ele>
<time>2023-05-16T09:54:43Z</time>
</trkpt>
<trkpt lat="48.919434919953346" lon="9.759459989145398">
<ele>471</ele>
<time>2023-05-16T09:54:44Z</time>
</trkpt>
<trkpt lat="48.91945797018707" lon="9.759407937526703">
<ele>471.20000000000005</ele>
<time>2023-05-16T09:54:45Z</time>
</trkpt>
<trkpt lat="48.91947993077338" lon="9.7593579813838">
<ele>471.20000000000005</ele>
<time>2023-05-16T09:54:46Z</time>
</trkpt>
<trkpt lat="48.91950197517872" lon="9.759309953078628">
<ele>471.20000000000005</ele>
<time>2023-05-16T09:54:47Z</time>
</trkpt>
<trkpt lat="48.91952292993665" lon="9.759257985278964">
<ele>471.20000000000005</ele>
<time>2023-05-16T09:54:48Z</time>
</trkpt>
<trkpt lat="48.91954698599875" lon="9.75920693948865">
<ele>471.20000000000005</ele>
<time>2023-05-16T09:54:49Z</time>
</trkpt>
<trkpt lat="48.91956794075668" lon="9.759151954203844">
<ele>471.4</ele>
<time>2023-05-16T09:54:50Z</time>
</trkpt>
<trkpt lat="48.91959199681878" lon="9.75909797474742">
<ele>471.4</ele>
<time>2023-05-16T09:54:51Z</time>
</trkpt>
<trkpt lat="48.91961496323347" lon="9.759044917300344">
<ele>471.4</ele>
<time>2023-05-16T09:54:52Z</time>
</trkpt>
<trkpt lat="48.91963792964816" lon="9.758989932015538">
<ele>471.6</ele>
<time>2023-05-16T09:54:53Z</time>
</trkpt>
<trkpt lat="48.919662991538644" lon="9.758937964215875">
<ele>471.6</ele>
<time>2023-05-16T09:54:54Z</time>
</trkpt>
<trkpt lat="48.919686963781714" lon="9.75888792425394">
<ele>471.79999999999995</ele>
<time>2023-05-16T09:54:55Z</time>
</trkpt>
<trkpt lat="48.919709930196404" lon="9.758837968111038">
<ele>471.79999999999995</ele>
<time>2023-05-16T09:54:56Z</time>
</trkpt>
<trkpt lat="48.919732980430126" lon="9.758787928149104">
<ele>471.79999999999995</ele>
<time>2023-05-16T09:54:57Z</time>
</trkpt>
<trkpt lat="48.9197569526732" lon="9.758736966177821">
<ele>472</ele>
<time>2023-05-16T09:54:58Z</time>
</trkpt>
<trkpt lat="48.91977991908789" lon="9.758687932044268">
<ele>472</ele>
<time>2023-05-16T09:54:59Z</time>
</trkpt>
<trkpt lat="48.91980196349323" lon="9.758637975901365">
<ele>472</ele>
<time>2023-05-16T09:55:00Z</time>
</trkpt>
<trkpt lat="48.91982291825116" lon="9.75858491845429">
<ele>472</ele>
<time>2023-05-16T09:55:01Z</time>
</trkpt>
<trkpt lat="48.9198449626565" lon="9.758532950654626">
<ele>472</ele>
<time>2023-05-16T09:55:02Z</time>
</trkpt>
<trkpt lat="48.91986692324281" lon="9.758481988683343">
<ele>472.20000000000005</ele>
<time>2023-05-16T09:55:03Z</time>
</trkpt>
<trkpt lat="48.91988997347653" lon="9.758427925407887">
<ele>472.20000000000005</ele>
<time>2023-05-16T09:55:04Z</time>
</trkpt>
<trkpt lat="48.91991193406284" lon="9.758372940123081">
<ele>472.20000000000005</ele>
<time>2023-05-16T09:55:05Z</time>
</trkpt>
<trkpt lat="48.91993498429656" lon="9.758321978151798">
<ele>472.4</ele>
<time>2023-05-16T09:55:06Z</time>
</trkpt>
<trkpt lat="48.91995996236801" lon="9.758269926533103">
<ele>472.4</ele>
<time>2023-05-16T09:55:07Z</time>
</trkpt>
<trkpt lat="48.91998192295432" lon="9.75821795873344">
<ele>472.4</ele>
<time>2023-05-16T09:55:08Z</time>
</trkpt>
<trkpt lat="48.920006984844804" lon="9.758162973448634">
<ele>472.4</ele>
<time>2023-05-16T09:55:09Z</time>
</trkpt>
<trkpt lat="48.920031962916255" lon="9.758107988163829">
<ele>472.4</ele>
<time>2023-05-16T09:55:10Z</time>
</trkpt>
<trkpt lat="48.920056940987706" lon="9.758054930716753">
<ele>472.6</ele>
<time>2023-05-16T09:55:11Z</time>
</trkpt>
<trkpt lat="48.92007797956467" lon="9.758001957088709">
<ele>472.6</ele>
<time>2023-05-16T09:55:12Z</time>
</trkpt>
<trkpt lat="48.920097928494215" lon="9.757947977632284">
<ele>472.6</ele>
<time>2023-05-16T09:55:13Z</time>
</trkpt>
<trkpt lat="48.920119972899556" lon="9.75789793767035">
<ele>472.6</ele>
<time>2023-05-16T09:55:14Z</time>
</trkpt>
<trkpt lat="48.920139921829104" lon="9.757846975699067">
<ele>472.6</ele>
<time>2023-05-16T09:55:15Z</time>
</trkpt>
<trkpt lat="48.920161966234446" lon="9.757791990414262">
<ele>472.79999999999995</ele>
<time>2023-05-16T09:55:16Z</time>
</trkpt>
<trkpt lat="48.920182920992374" lon="9.757736921310425">
<ele>472.79999999999995</ele>
<time>2023-05-16T09:55:17Z</time>
</trkpt>
<trkpt lat="48.92020697705448" lon="9.75768193602562">
<ele>472.79999999999995</ele>
<time>2023-05-16T09:55:18Z</time>
</trkpt>
<trkpt lat="48.920226925984025" lon="9.757622927427292">
<ele>472.79999999999995</ele>
<time>2023-05-16T09:55:19Z</time>
</trkpt>
<trkpt lat="48.920246958732605" lon="9.757566936314106">
<ele>472.79999999999995</ele>
<time>2023-05-16T09:55:20Z</time>
</trkpt>
<trkpt lat="48.920267997309566" lon="9.75750993937254">
<ele>472.79999999999995</ele>
<time>2023-05-16T09:55:21Z</time>
</trkpt>
<trkpt lat="48.920289957895875" lon="9.757454954087734">
<ele>472.79999999999995</ele>
<time>2023-05-16T09:55:22Z</time>
</trkpt>
<trkpt lat="48.920309990644455" lon="9.757397957146168">
<ele>473</ele>
<time>2023-05-16T09:55:23Z</time>
</trkpt>
<trkpt lat="48.920331951230764" lon="9.757342971861362">
<ele>473</ele>
<time>2023-05-16T09:55:24Z</time>
</trkpt>
<trkpt lat="48.920351983979344" lon="9.757286980748177">
<ele>473</ele>
<time>2023-05-16T09:55:25Z</time>
</trkpt>
<trkpt lat="48.92037293873727" lon="9.757227972149849">
<ele>473</ele>
<time>2023-05-16T09:55:26Z</time>
</trkpt>
<trkpt lat="48.92039297148585" lon="9.757171981036663">
<ele>473</ele>
<time>2023-05-16T09:55:27Z</time>
</trkpt>
<trkpt lat="48.92041493207216" lon="9.757116995751858">
<ele>473</ele>
<time>2023-05-16T09:55:28Z</time>
</trkpt>
<trkpt lat="48.920436976477504" lon="9.75706192664802">
<ele>473</ele>
<time>2023-05-16T09:55:29Z</time>
</trkpt>
<trkpt lat="48.92045793123543" lon="9.757007947191596">
<ele>473</ele>
<time>2023-05-16T09:55:30Z</time>
</trkpt>
<trkpt lat="48.92047796398401" lon="9.756956985220313">
<ele>473</ele>
<time>2023-05-16T09:55:31Z</time>
</trkpt>
<trkpt lat="48.92049699090421" lon="9.756901999935508">
<ele>473</ele>
<time>2023-05-16T09:55:32Z</time>
</trkpt>
<trkpt lat="48.92051291652024" lon="9.756847936660051">
<ele>473.20000000000005</ele>
<time>2023-05-16T09:55:33Z</time>
</trkpt>
<trkpt lat="48.92053294926882" lon="9.756794963032007">
<ele>473.20000000000005</ele>
<time>2023-05-16T09:55:34Z</time>
</trkpt>
<trkpt lat="48.92055197618902" lon="9.756739977747202">
<ele>473.20000000000005</ele>
<time>2023-05-16T09:55:35Z</time>
</trkpt>
<trkpt lat="48.920571925118566" lon="9.756686920300126">
<ele>473.20000000000005</ele>
<time>2023-05-16T09:55:36Z</time>
</trkpt>
<trkpt lat="48.920589946210384" lon="9.756636964157224">
<ele>473.20000000000005</ele>
<time>2023-05-16T09:55:37Z</time>
</trkpt>
<trkpt lat="48.9206079673022" lon="9.756582984700799">
<ele>473.4</ele>
<time>2023-05-16T09:55:38Z</time>
</trkpt>
<trkpt lat="48.92062791623175" lon="9.756529927253723">
<ele>473.4</ele>
<time>2023-05-16T09:55:39Z</time>
</trkpt>
<trkpt lat="48.92064996063709" lon="9.756472930312157">
<ele>473.4</ele>
<time>2023-05-16T09:55:40Z</time>
</trkpt>
<trkpt lat="48.92066999338567" lon="9.75641492754221">
<ele>473.6</ele>
<time>2023-05-16T09:55:41Z</time>
</trkpt>
<trkpt lat="48.92068793065846" lon="9.756356924772263">
<ele>473.6</ele>
<time>2023-05-16T09:55:42Z</time>
</trkpt>
<trkpt lat="48.92070695757866" lon="9.756299927830696">
<ele>473.6</ele>
<time>2023-05-16T09:55:43Z</time>
</trkpt>
<trkpt lat="48.92072699032724" lon="9.75624293088913">
<ele>473.79999999999995</ele>
<time>2023-05-16T09:55:44Z</time>
</trkpt>
<trkpt lat="48.92074794508517" lon="9.756189957261086">
<ele>473.79999999999995</ele>
<time>2023-05-16T09:55:45Z</time>
</trkpt>
<trkpt lat="48.92076697200537" lon="9.756137989461422">
<ele>473.79999999999995</ele>
<time>2023-05-16T09:55:46Z</time>
</trkpt>
<trkpt lat="48.920781975612044" lon="9.756081998348236">
<ele>474</ele>
<time>2023-05-16T09:55:47Z</time>
</trkpt>
<trkpt lat="48.9207979850471" lon="9.756026929244399">
<ele>474</ele>
<time>2023-05-16T09:55:48Z</time>
</trkpt>
<trkpt lat="48.92081793397665" lon="9.755969932302833">
<ele>474</ele>
<time>2023-05-16T09:55:49Z</time>
</trkpt>
<trkpt lat="48.92084299586713" lon="9.755911929532886">
<ele>474</ele>
<time>2023-05-16T09:55:50Z</time>
</trkpt>
<trkpt lat="48.920867973938584" lon="9.755851998925209">
<ele>474</ele>
<time>2023-05-16T09:55:51Z</time>
</trkpt>
<trkpt lat="48.920889934524894" lon="9.755792990326881">
<ele>474.20000000000005</ele>
<time>2023-05-16T09:55:52Z</time>
</trkpt>
<trkpt lat="48.920909967273474" lon="9.755734987556934">
<ele>474.20000000000005</ele>
<time>2023-05-16T09:55:53Z</time>
</trkpt>
<trkpt lat="48.92092798836529" lon="9.755674973130226">
<ele>474.20000000000005</ele>
<time>2023-05-16T09:55:54Z</time>
</trkpt>
<trkpt lat="48.92094793729484" lon="9.75561797618866">
<ele>474.20000000000005</ele>
<time>2023-05-16T09:55:55Z</time>
</trkpt>
<trkpt lat="48.92096797004342" lon="9.755562990903854">
<ele>474.4</ele>
<time>2023-05-16T09:55:56Z</time>
</trkpt>
<trkpt lat="48.92098699696362" lon="9.755507921800017">
<ele>474.4</ele>
<time>2023-05-16T09:55:57Z</time>
</trkpt>
<trkpt lat="48.92100694589317" lon="9.755452936515212">
<ele>474.4</ele>
<time>2023-05-16T09:55:58Z</time>
</trkpt>
<trkpt lat="48.92102697864175" lon="9.755392922088504">
<ele>474.4</ele>
<time>2023-05-16T09:55:59Z</time>
</trkpt>
<trkpt lat="48.9210519567132" lon="9.755334919318557">
<ele>474.4</ele>
<time>2023-05-16T09:56:00Z</time>
</trkpt>
<trkpt lat="48.92107198946178" lon="9.755281945690513">
<ele>474.4</ele>
<time>2023-05-16T09:56:01Z</time>
</trkpt>
<trkpt lat="48.92109294421971" lon="9.755222937092185">
<ele>474.4</ele>
<time>2023-05-16T09:56:02Z</time>
</trkpt>
<trkpt lat="48.92110995948315" lon="9.755166945979">
<ele>474.6</ele>
<time>2023-05-16T09:56:03Z</time>
</trkpt>
<trkpt lat="48.921127980574965" lon="9.755109949037433">
<ele>474.6</ele>
<time>2023-05-16T09:56:04Z</time>
</trkpt>
<trkpt lat="48.921144995838404" lon="9.755049934610724">
<ele>474.6</ele>
<time>2023-05-16T09:56:05Z</time>
</trkpt>
<trkpt lat="48.92116695642471" lon="9.754991931840777">
<ele>474.6</ele>
<time>2023-05-16T09:56:06Z</time>
</trkpt>
<trkpt lat="48.92118497751653" lon="9.754941975697875">
<ele>474.6</ele>
<time>2023-05-16T09:56:07Z</time>
</trkpt>
<trkpt lat="48.92120794393122" lon="9.754884978756309">
<ele>474.6</ele>
<time>2023-05-16T09:56:08Z</time>
</trkpt>
<trkpt lat="48.92123292200267" lon="9.754829993471503">
<ele>474.79999999999995</ele>
<time>2023-05-16T09:56:09Z</time>
</trkpt>
<trkpt lat="48.92125194892287" lon="9.754777941852808">
<ele>474.79999999999995</ele>
<time>2023-05-16T09:56:10Z</time>
</trkpt>
<trkpt lat="48.92126695252955" lon="9.754732931032777">
<ele>474.79999999999995</ele>
<time>2023-05-16T09:56:11Z</time>
</trkpt>
<trkpt lat="48.92128195613623" lon="9.754687920212746">
<ele>474.79999999999995</ele>
<time>2023-05-16T09:56:12Z</time>
</trkpt>
<trkpt lat="48.921299977228045" lon="9.754646932706237">
<ele>474.79999999999995</ele>
<time>2023-05-16T09:56:13Z</time>
</trkpt>
<trkpt lat="48.92132696695626" lon="9.754614997655153">
<ele>474.79999999999995</ele>
<time>2023-05-16T09:56:14Z</time>
</trkpt>
<trkpt lat="48.92135496251285" lon="9.754586918279529">
<ele>474.79999999999995</ele>
<time>2023-05-16T09:56:15Z</time>
</trkpt>
<trkpt lat="48.92137499526143" lon="9.754551965743303">
<ele>475</ele>
<time>2023-05-16T09:56:16Z</time>
</trkpt>
<trkpt lat="48.92139494419098" lon="9.754507960751653">
<ele>475</ele>
<time>2023-05-16T09:56:17Z</time>
</trkpt>
<trkpt lat="48.92141698859632" lon="9.754454987123609">
<ele>475</ele>
<time>2023-05-16T09:56:18Z</time>
</trkpt>
<trkpt lat="48.92143794335425" lon="9.754402935504913">
<ele>475</ele>
<time>2023-05-16T09:56:19Z</time>
</trkpt>
<trkpt lat="48.92146199941635" lon="9.754354991018772">
<ele>475</ele>
<time>2023-05-16T09:56:20Z</time>
</trkpt>
<trkpt lat="48.92148496583104" lon="9.754301933571696">
<ele>475.20000000000005</ele>
<time>2023-05-16T09:56:21Z</time>
</trkpt>
<trkpt lat="48.92150994390249" lon="9.754242924973369">
<ele>475.20000000000005</ele>
<time>2023-05-16T09:56:22Z</time>
</trkpt>
<trkpt lat="48.921534921973944" lon="9.754187939688563">
<ele>475.20000000000005</ele>
<time>2023-05-16T09:56:23Z</time>
</trkpt>
<trkpt lat="48.92155998386443" lon="9.754131948575377">
<ele>475.4</ele>
<time>2023-05-16T09:56:24Z</time>
</trkpt>
<trkpt lat="48.92158697359264" lon="9.75407293997705">
<ele>475.4</ele>
<time>2023-05-16T09:56:25Z</time>
</trkpt>
<trkpt lat="48.92161195166409" lon="9.754017954692245">
<ele>475.6</ele>
<time>2023-05-16T09:56:26Z</time>
</trkpt>
<trkpt lat="48.92163491807878" lon="9.753957940265536">
<ele>475.6</ele>
<time>2023-05-16T09:56:27Z</time>
</trkpt>
<trkpt lat="48.9216579683125" lon="9.753897925838828">
<ele>475.6</ele>
<time>2023-05-16T09:56:28Z</time>
</trkpt>
<trkpt lat="48.92168294638395" lon="9.753837995231152">
<ele>475.6</ele>
<time>2023-05-16T09:56:29Z</time>
</trkpt>
<trkpt lat="48.921707924455404" lon="9.753777980804443">
<ele>475.79999999999995</ele>
<time>2023-05-16T09:56:30Z</time>
</trkpt>
<trkpt lat="48.92173499800265" lon="9.753714948892593">
<ele>475.79999999999995</ele>
<time>2023-05-16T09:56:31Z</time>
</trkpt>
<trkpt lat="48.9217599760741" lon="9.753654934465885">
<ele>475.79999999999995</ele>
<time>2023-05-16T09:56:32Z</time>
</trkpt>
<trkpt lat="48.92178495414555" lon="9.753594920039177">
<ele>476</ele>
<time>2023-05-16T09:56:33Z</time>
</trkpt>
<trkpt lat="48.921809932217" lon="9.7535349894315">
<ele>476</ele>
<time>2023-05-16T09:56:34Z</time>
</trkpt>
<trkpt lat="48.921834994107485" lon="9.753481931984425">
<ele>476</ele>
<time>2023-05-16T09:56:35Z</time>
</trkpt>
<trkpt lat="48.921859972178936" lon="9.75342694669962">
<ele>476</ele>
<time>2023-05-16T09:56:36Z</time>
</trkpt>
<trkpt lat="48.921881932765245" lon="9.753372967243195">
<ele>476.20000000000005</ele>
<time>2023-05-16T09:56:37Z</time>
</trkpt>
<trkpt lat="48.921901965513825" lon="9.75332292728126">
<ele>476.20000000000005</ele>
<time>2023-05-16T09:56:38Z</time>
</trkpt>
<trkpt lat="48.921924931928515" lon="9.753269953653216">
<ele>476.4</ele>
<time>2023-05-16T09:56:39Z</time>
</trkpt>
<trkpt lat="48.92194798216224" lon="9.753219997510314">
<ele>476.4</ele>
<time>2023-05-16T09:56:40Z</time>
</trkpt>
<trkpt lat="48.92196994274855" lon="9.753164928406477">
<ele>476.6</ele>
<time>2023-05-16T09:56:41Z</time>
</trkpt>
<trkpt lat="48.92199198715389" lon="9.75310793146491">
<ele>476.6</ele>
<time>2023-05-16T09:56:42Z</time>
</trkpt>
<trkpt lat="48.92201495356858" lon="9.753049928694963">
<ele>476.6</ele>
<time>2023-05-16T09:56:43Z</time>
</trkpt>
<trkpt lat="48.92203699797392" lon="9.752999972552061">
<ele>476.79999999999995</ele>
<time>2023-05-16T09:56:44Z</time>
</trkpt>
<trkpt lat="48.92205996438861" lon="9.752942975610495">
<ele>476.79999999999995</ele>
<time>2023-05-16T09:56:45Z</time>
</trkpt>
<trkpt lat="48.9220829308033" lon="9.752884972840548">
<ele>476.79999999999995</ele>
<time>2023-05-16T09:56:46Z</time>
</trkpt>
<trkpt lat="48.9221069868654" lon="9.752829987555742">
<ele>477</ele>
<time>2023-05-16T09:56:47Z</time>
</trkpt>
<trkpt lat="48.92212995328009" lon="9.752777935937047">
<ele>477</ele>
<time>2023-05-16T09:56:48Z</time>
</trkpt>
<trkpt lat="48.92215291969478" lon="9.752726973965764">
<ele>477</ele>
<time>2023-05-16T09:56:49Z</time>
</trkpt>
<trkpt lat="48.92217496410012" lon="9.75267693400383">
<ele>477.20000000000005</ele>
<time>2023-05-16T09:56:50Z</time>
</trkpt>
<trkpt lat="48.92219298519194" lon="9.75263292901218">
<ele>477.20000000000005</ele>
<time>2023-05-16T09:56:51Z</time>
</trkpt>
<trkpt lat="48.92221695743501" lon="9.75258992984891">
<ele>477.20000000000005</ele>
<time>2023-05-16T09:56:52Z</time>
</trkpt>
<trkpt lat="48.9222399238497" lon="9.752544919028878">
<ele>477.20000000000005</ele>
<time>2023-05-16T09:56:53Z</time>
</trkpt>
<trkpt lat="48.922262974083424" lon="9.752492951229215">
<ele>477.4</ele>
<time>2023-05-16T09:56:54Z</time>
</trkpt>
<trkpt lat="48.92228493466973" lon="9.75243997760117">
<ele>477.4</ele>
<time>2023-05-16T09:56:55Z</time>
</trkpt>
<trkpt lat="48.922306979075074" lon="9.75239496678114">
<ele>477.4</ele>
<time>2023-05-16T09:56:56Z</time>
</trkpt>
<trkpt lat="48.92232692800462" lon="9.75235196761787">
<ele>477.4</ele>
<time>2023-05-16T09:56:57Z</time>
</trkpt>
<trkpt lat="48.92234796658158" lon="9.752297988161445">
<ele>477.6</ele>
<time>2023-05-16T09:56:58Z</time>
</trkpt>
<trkpt lat="48.92236992716789" lon="9.75224794819951">
<ele>477.6</ele>
<time>2023-05-16T09:56:59Z</time>
</trkpt>
<trkpt lat="48.922392977401614" lon="9.752187933772802">
<ele>477.6</ele>
<time>2023-05-16T09:57:00Z</time>
</trkpt>
<trkpt lat="48.922417955473065" lon="9.752126997336745">
<ele>477.6</ele>
<time>2023-05-16T09:57:01Z</time>
</trkpt>
<trkpt lat="48.922437988221645" lon="9.752071928232908">
<ele>477.79999999999995</ele>
<time>2023-05-16T09:57:02Z</time>
</trkpt>
<trkpt lat="48.922459948807955" lon="9.752014931291342">
<ele>477.79999999999995</ele>
<time>2023-05-16T09:57:03Z</time>
</trkpt>
<trkpt lat="48.92248299904168" lon="9.751961957663298">
<ele>477.79999999999995</ele>
<time>2023-05-16T09:57:04Z</time>
</trkpt>
<trkpt lat="48.922512922436" lon="9.751904960721731">
<ele>477.79999999999995</ele>
<time>2023-05-16T09:57:05Z</time>
</trkpt>
<trkpt lat="48.92253999598324" lon="9.751849975436926">
<ele>477.79999999999995</ele>
<time>2023-05-16T09:57:06Z</time>
</trkpt>
<trkpt lat="48.922566985711455" lon="9.751789961010218">
<ele>477.79999999999995</ele>
<time>2023-05-16T09:57:07Z</time>
</trkpt>
<trkpt lat="48.92259196378291" lon="9.75173195824027">
<ele>477.79999999999995</ele>
<time>2023-05-16T09:57:08Z</time>
</trkpt>
<trkpt lat="48.92261794768274" lon="9.751671943813562">
<ele>477.79999999999995</ele>
<time>2023-05-16T09:57:09Z</time>
</trkpt>
<trkpt lat="48.92264493741095" lon="9.751609917730093">
<ele>477.79999999999995</ele>
<time>2023-05-16T09:57:10Z</time>
</trkpt>
<trkpt lat="48.92267192713916" lon="9.751549987122416">
<ele>478</ele>
<time>2023-05-16T09:57:11Z</time>
</trkpt>
<trkpt lat="48.92269799485803" lon="9.751489972695708">
<ele>478</ele>
<time>2023-05-16T09:57:12Z</time>
</trkpt>
<trkpt lat="48.9227219671011" lon="9.751431969925761">
<ele>478</ele>
<time>2023-05-16T09:57:13Z</time>
</trkpt>
<trkpt lat="48.92274795100093" lon="9.751372961327434">
<ele>478</ele>
<time>2023-05-16T09:57:14Z</time>
</trkpt>
<trkpt lat="48.92277292907238" lon="9.751316970214248">
<ele>478</ele>
<time>2023-05-16T09:57:15Z</time>
</trkpt>
<trkpt lat="48.92279799096286" lon="9.751266930252314">
<ele>478</ele>
<time>2023-05-16T09:57:16Z</time>
</trkpt>
<trkpt lat="48.922821963205934" lon="9.751222925260663">
<ele>478</ele>
<time>2023-05-16T09:57:17Z</time>
</trkpt>
<trkpt lat="48.922847947105765" lon="9.751181937754154">
<ele>478</ele>
<time>2023-05-16T09:57:18Z</time>
</trkpt>
<trkpt lat="48.92287996597588" lon="9.751134999096394">
<ele>478.20000000000005</ele>
<time>2023-05-16T09:57:19Z</time>
</trkpt>
<trkpt lat="48.92291299067438" lon="9.751089988276362">
<ele>478.20000000000005</ele>
<time>2023-05-16T09:57:20Z</time>
</trkpt>
<trkpt lat="48.92294199205935" lon="9.751047994941473">
<ele>478.20000000000005</ele>
<time>2023-05-16T09:57:21Z</time>
</trkpt>
<trkpt lat="48.92296998761594" lon="9.751007929444313">
<ele>478.20000000000005</ele>
<time>2023-05-16T09:57:22Z</time>
</trkpt>
<trkpt lat="48.922997983172536" lon="9.750974988564849">
<ele>478.20000000000005</ele>
<time>2023-05-16T09:57:23Z</time>
</trkpt>
<trkpt lat="48.92302799038589" lon="9.750944981351495">
<ele>478.20000000000005</ele>
<time>2023-05-16T09:57:24Z</time>
</trkpt>
<trkpt lat="48.92306797206402" lon="9.750916985794902">
<ele>478.20000000000005</ele>
<time>2023-05-16T09:57:25Z</time>
</trkpt>
<trkpt lat="48.92311298288405" lon="9.750877926126122">
<ele>478.20000000000005</ele>
<time>2023-05-16T09:57:26Z</time>
</trkpt>
<trkpt lat="48.92315992154181" lon="9.750842973589897">
<ele>478.20000000000005</ele>
<time>2023-05-16T09:57:27Z</time>
</trkpt>
<trkpt lat="48.92320292070508" lon="9.750811960548162">
<ele>478.20000000000005</ele>
<time>2023-05-16T09:57:28Z</time>
</trkpt>
<trkpt lat="48.92324692569673" lon="9.75078497081995">
<ele>478.20000000000005</ele>
<time>2023-05-16T09:57:29Z</time>
</trkpt>
<trkpt lat="48.92328992486" lon="9.750756975263357">
<ele>478</ele>
<time>2023-05-16T09:57:30Z</time>
</trkpt>
<trkpt lat="48.92333191819489" lon="9.750727973878384">
<ele>478</ele>
<time>2023-05-16T09:57:31Z</time>
</trkpt>
<trkpt lat="48.92337692901492" lon="9.750706935301423">
<ele>478</ele>
<time>2023-05-16T09:57:32Z</time>
</trkpt>
<trkpt lat="48.92342294566333" lon="9.750684974715114">
<ele>478</ele>
<time>2023-05-16T09:57:33Z</time>
</trkpt>
<trkpt lat="48.92346292734146" lon="9.75065496750176">
<ele>477.79999999999995</ele>
<time>2023-05-16T09:57:34Z</time>
</trkpt>
<trkpt lat="48.92349796369672" lon="9.750614985823631">
<ele>477.79999999999995</ele>
<time>2023-05-16T09:57:35Z</time>
</trkpt>
<trkpt lat="48.92353291623294" lon="9.750576931983232">
<ele>477.79999999999995</ele>
<time>2023-05-16T09:57:36Z</time>
</trkpt>
<trkpt lat="48.923574993386865" lon="9.750541979447007">
<ele>477.6</ele>
<time>2023-05-16T09:57:37Z</time>
</trkpt>
<trkpt lat="48.923621932044625" lon="9.75050794892013">
<ele>477.6</ele>
<time>2023-05-16T09:57:38Z</time>
</trkpt>
<trkpt lat="48.9236749894917" lon="9.750472996383905">
<ele>477.6</ele>
<time>2023-05-16T09:57:39Z</time>
</trkpt>
<trkpt lat="48.9237249456346" lon="9.750436954200268">
<ele>477.6</ele>
<time>2023-05-16T09:57:40Z</time>
</trkpt>
<trkpt lat="48.92377791926265" lon="9.750392949208617">
<ele>477.4</ele>
<time>2023-05-16T09:57:41Z</time>
</trkpt>
<trkpt lat="48.923834916204214" lon="9.750349950045347">
<ele>477.20000000000005</ele>
<time>2023-05-16T09:57:42Z</time>
</trkpt>
<trkpt lat="48.92389694228768" lon="9.750304939225316">
<ele>477</ele>
<time>2023-05-16T09:57:43Z</time>
</trkpt>
<trkpt lat="48.923962991684675" lon="9.750256994739175">
<ele>476.79999999999995</ele>
<time>2023-05-16T09:57:44Z</time>
</trkpt>
<trkpt lat="48.92403499223292" lon="9.75020494312048">
<ele>476.6</ele>
<time>2023-05-16T09:57:45Z</time>
</trkpt>
<trkpt lat="48.92410992644727" lon="9.750151969492435">
<ele>476.20000000000005</ele>
<time>2023-05-16T09:57:46Z</time>
</trkpt>
<trkpt lat="48.92418997362256" lon="9.750091955065727">
<ele>475.79999999999995</ele>
<time>2023-05-16T09:57:47Z</time>
</trkpt>
<trkpt lat="48.924264991655946" lon="9.750027917325497">
<ele>475.4</ele>
<time>2023-05-16T09:57:48Z</time>
</trkpt>
<trkpt lat="48.9243449550122" lon="9.749961951747537">
<ele>475</ele>
<time>2023-05-16T09:57:49Z</time>
</trkpt>
<trkpt lat="48.92442198470235" lon="9.749891962856054">
<ele>474.6</ele>
<time>2023-05-16T09:57:50Z</time>
</trkpt>
<trkpt lat="48.9244969189167" lon="9.74981996230781">
<ele>474.20000000000005</ele>
<time>2023-05-16T09:57:51Z</time>
</trkpt>
<trkpt lat="48.92457193695009" lon="9.749746955931187">
<ele>473.6</ele>
<time>2023-05-16T09:57:52Z</time>
</trkpt>
<trkpt lat="48.92464796081185" lon="9.749664980918169">
<ele>473.20000000000005</ele>
<time>2023-05-16T09:57:53Z</time>
</trkpt>
<trkpt lat="48.92472197301686" lon="9.74958292208612">
<ele>472.79999999999995</ele>
<time>2023-05-16T09:57:54Z</time>
</trkpt>
<trkpt lat="48.92479992471635" lon="9.749507987871766">
<ele>472.20000000000005</ele>
<time>2023-05-16T09:57:55Z</time>
</trkpt>
<trkpt lat="48.92487796023488" lon="9.749434981495142">
<ele>471.79999999999995</ele>
<time>2023-05-16T09:57:56Z</time>
</trkpt>
<trkpt lat="48.92494794912636" lon="9.74936499260366">
<ele>471.4</ele>
<time>2023-05-16T09:57:57Z</time>
</trkpt>
<trkpt lat="48.92502196133137" lon="9.749299949035048">
<ele>471.20000000000005</ele>
<time>2023-05-16T09:57:58Z</time>
</trkpt>
<trkpt lat="48.92508792690933" lon="9.749234989285469">
<ele>470.79999999999995</ele>
<time>2023-05-16T09:57:59Z</time>
</trkpt>
<trkpt lat="48.9251549821347" lon="9.749166928231716">
<ele>470.6</ele>
<time>2023-05-16T09:58:00Z</time>
</trkpt>
<trkpt lat="48.92521793022752" lon="9.749099956825376">
<ele>470.4</ele>
<time>2023-05-16T09:58:01Z</time>
</trkpt>
<trkpt lat="48.92527995631099" lon="9.749036924913526">
<ele>470.20000000000005</ele>
<time>2023-05-16T09:58:02Z</time>
</trkpt>
<trkpt lat="48.925339970737696" lon="9.748971965163946">
<ele>470</ele>
<time>2023-05-16T09:58:03Z</time>
</trkpt>
<trkpt lat="48.92539797350764" lon="9.748912956565619">
<ele>470</ele>
<time>2023-05-16T09:58:04Z</time>
</trkpt>
<trkpt lat="48.92545195296407" lon="9.748854953795671">
<ele>469.79999999999995</ele>
<time>2023-05-16T09:58:05Z</time>
</trkpt>
<trkpt lat="48.925501992926" lon="9.748802985996008">
<ele>469.79999999999995</ele>
<time>2023-05-16T09:58:06Z</time>
</trkpt>
<trkpt lat="48.92554792575538" lon="9.748754957690835">
<ele>469.79999999999995</ele>
<time>2023-05-16T09:58:07Z</time>
</trkpt>
<trkpt lat="48.92559293657541" lon="9.748707935214043">
<ele>469.79999999999995</ele>
<time>2023-05-16T09:58:08Z</time>
</trkpt>
<trkpt lat="48.92563694156706" lon="9.748662924394011">
<ele>469.79999999999995</ele>
<time>2023-05-16T09:58:09Z</time>
</trkpt>
<trkpt lat="48.92567994073033" lon="9.748622942715883">
<ele>469.79999999999995</ele>
<time>2023-05-16T09:58:10Z</time>
</trkpt>
<trkpt lat="48.9257229398936" lon="9.748581955209374">
<ele>470</ele>
<time>2023-05-16T09:58:11Z</time>
</trkpt>
<trkpt lat="48.92576493322849" lon="9.748536944389343">
<ele>470</ele>
<time>2023-05-16T09:58:12Z</time>
</trkpt>
<trkpt lat="48.92580499872565" lon="9.748492939397693">
<ele>470</ele>
<time>2023-05-16T09:58:13Z</time>
</trkpt>
<trkpt lat="48.92584498040378" lon="9.748451951891184">
<ele>470</ele>
<time>2023-05-16T09:58:14Z</time>
</trkpt>
<trkpt lat="48.92588797956705" lon="9.748414987698197">
<ele>470</ele>
<time>2023-05-16T09:58:15Z</time>
</trkpt>
<trkpt lat="48.92592796124518" lon="9.748376933857799">
<ele>470</ele>
<time>2023-05-16T09:58:16Z</time>
</trkpt>
<trkpt lat="48.92596995458007" lon="9.74833494052291">
<ele>470</ele>
<time>2023-05-16T09:58:17Z</time>
</trkpt>
<trkpt lat="48.92601295374334" lon="9.748294958844781">
<ele>470</ele>
<time>2023-05-16T09:58:18Z</time>
</trkpt>
<trkpt lat="48.92605494707823" lon="9.748256988823414">
<ele>470.20000000000005</ele>
<time>2023-05-16T09:58:19Z</time>
</trkpt>
<trkpt lat="48.926094928756356" lon="9.748222958296537">
<ele>470.20000000000005</ele>
<time>2023-05-16T09:58:20Z</time>
</trkpt>
<trkpt lat="48.926134994253516" lon="9.748189933598042">
<ele>470.20000000000005</ele>
<time>2023-05-16T09:58:21Z</time>
</trkpt>
<trkpt lat="48.926176987588406" lon="9.748159926384687">
<ele>470.20000000000005</ele>
<time>2023-05-16T09:58:22Z</time>
</trkpt>
<trkpt lat="48.926219986751676" lon="9.748124973848462">
<ele>470.20000000000005</ele>
<time>2023-05-16T09:58:23Z</time>
</trkpt>
<trkpt lat="48.926262985914946" lon="9.748087925836444">
<ele>470.20000000000005</ele>
<time>2023-05-16T09:58:24Z</time>
</trkpt>
<trkpt lat="48.92630799673498" lon="9.748051967471838">
<ele>470.20000000000005</ele>
<time>2023-05-16T09:58:25Z</time>
</trkpt>
<trkpt lat="48.92635493539274" lon="9.748017936944962">
<ele>470.20000000000005</ele>
<time>2023-05-16T09:58:26Z</time>
</trkpt>
<trkpt lat="48.92640195786953" lon="9.74799195304513">
<ele>470.20000000000005</ele>
<time>2023-05-16T09:58:27Z</time>
</trkpt>
<trkpt lat="48.9264499861747" lon="9.747961945831776">
<ele>470.20000000000005</ele>
<time>2023-05-16T09:58:28Z</time>
</trkpt>
<trkpt lat="48.926497930660844" lon="9.747934956103563">
<ele>470.20000000000005</ele>
<time>2023-05-16T09:58:29Z</time>
</trkpt>
<trkpt lat="48.926544953137636" lon="9.747902937233448">
<ele>470.20000000000005</ele>
<time>2023-05-16T09:58:30Z</time>
</trkpt>
<trkpt lat="48.92659298144281" lon="9.747872930020094">
<ele>470</ele>
<time>2023-05-16T09:58:31Z</time>
</trkpt>
<trkpt lat="48.92664193175733" lon="9.747846946120262">
<ele>470</ele>
<time>2023-05-16T09:58:32Z</time>
</trkpt>
<trkpt lat="48.926692977547646" lon="9.74781995639205">
<ele>470</ele>
<time>2023-05-16T09:58:33Z</time>
</trkpt>
<trkpt lat="48.92674494534731" lon="9.747789949178696">
<ele>470</ele>
<time>2023-05-16T09:58:34Z</time>
</trkpt>
<trkpt lat="48.92679498530924" lon="9.747762959450483">
<ele>470</ele>
<time>2023-05-16T09:58:35Z</time>
</trkpt>
<trkpt lat="48.92684695310891" lon="9.747736975550652">
<ele>470</ele>
<time>2023-05-16T09:58:36Z</time>
</trkpt>
<trkpt lat="48.92689992673695" lon="9.7477119974792">
<ele>470</ele>
<time>2023-05-16T09:58:37Z</time>
</trkpt>
<trkpt lat="48.926951978355646" lon="9.747682996094227">
<ele>470</ele>
<time>2023-05-16T09:58:38Z</time>
</trkpt>
<trkpt lat="48.92700294032693" lon="9.747656928375363">
<ele>469.79999999999995</ele>
<time>2023-05-16T09:58:39Z</time>
</trkpt>
<trkpt lat="48.927056919783354" lon="9.74762499332428">
<ele>469.79999999999995</ele>
<time>2023-05-16T09:58:40Z</time>
</trkpt>
<trkpt lat="48.92710997723043" lon="9.747591968625784">
<ele>469.79999999999995</ele>
<time>2023-05-16T09:58:41Z</time>
</trkpt>
<trkpt lat="48.927162950858474" lon="9.747559949755669">
<ele>469.6</ele>
<time>2023-05-16T09:58:42Z</time>
</trkpt>
<trkpt lat="48.92721793614328" lon="9.747524997219443">
<ele>469.6</ele>
<time>2023-05-16T09:58:43Z</time>
</trkpt>
<trkpt lat="48.927274933084846" lon="9.747489960864186">
<ele>469.4</ele>
<time>2023-05-16T09:58:44Z</time>
</trkpt>
<trkpt lat="48.92733193002641" lon="9.74745693616569">
<ele>469.20000000000005</ele>
<time>2023-05-16T09:58:45Z</time>
</trkpt>
<trkpt lat="48.92738699913025" lon="9.747421983629465">
<ele>469</ele>
<time>2023-05-16T09:58:46Z</time>
</trkpt>
<trkpt lat="48.92743796110153" lon="9.747382923960686">
<ele>468.79999999999995</ele>
<time>2023-05-16T09:58:47Z</time>
</trkpt>
<trkpt lat="48.927489928901196" lon="9.747344953939319">
<ele>468.4</ele>
<time>2023-05-16T09:58:48Z</time>
</trkpt>
<trkpt lat="48.92754198051989" lon="9.74730296060443">
<ele>468.20000000000005</ele>
<time>2023-05-16T09:58:49Z</time>
</trkpt>
<trkpt lat="48.92758992500603" lon="9.747271947562695">
<ele>468</ele>
<time>2023-05-16T09:58:50Z</time>
</trkpt>
<trkpt lat="48.9276469219476" lon="9.74723699502647">
<ele>467.6</ele>
<time>2023-05-16T09:58:51Z</time>
</trkpt>
<trkpt lat="48.92770693637431" lon="9.747214950621128">
<ele>467.4</ele>
<time>2023-05-16T09:58:52Z</time>
</trkpt>
<trkpt lat="48.92776996828616" lon="9.747179998084903">
<ele>467</ele>
<time>2023-05-16T09:58:53Z</time>
</trkpt>
<trkpt lat="48.927831994369626" lon="9.747147979214787">
<ele>466.79999999999995</ele>
<time>2023-05-16T09:58:54Z</time>
</trkpt>
<trkpt lat="48.927897959947586" lon="9.747122917324305">
<ele>466.4</ele>
<time>2023-05-16T09:58:55Z</time>
</trkpt>
<trkpt lat="48.92796794883907" lon="9.747092993929982">
<ele>466</ele>
<time>2023-05-16T09:58:56Z</time>
</trkpt>
<trkpt lat="48.928044978529215" lon="9.747066926211119">
<ele>465.6</ele>
<time>2023-05-16T09:58:57Z</time>
</trkpt>
<trkpt lat="48.92812494188547" lon="9.747032979503274">
<ele>465.20000000000005</ele>
<time>2023-05-16T09:58:58Z</time>
</trkpt>
<trkpt lat="48.92820498906076" lon="9.746994925662875">
<ele>464.6</ele>
<time>2023-05-16T09:58:59Z</time>
</trkpt>
<trkpt lat="48.928282940760255" lon="9.746952932327986">
<ele>464.20000000000005</ele>
<time>2023-05-16T09:59:00Z</time>
</trkpt>
<trkpt lat="48.92836198210716" lon="9.746906999498606">
<ele>463.6</ele>
<time>2023-05-16T09:59:01Z</time>
</trkpt>
<trkpt lat="48.9284429512918" lon="9.746856959536672">
<ele>463.20000000000005</ele>
<time>2023-05-16T09:59:02Z</time>
</trkpt>
<trkpt lat="48.92852199263871" lon="9.746806919574738">
<ele>462.79999999999995</ele>
<time>2023-05-16T09:59:03Z</time>
</trkpt>
<trkpt lat="48.928601955994964" lon="9.746752940118313">
<ele>462.4</ele>
<time>2023-05-16T09:59:04Z</time>
</trkpt>
<trkpt lat="48.92867697402835" lon="9.746697954833508">
<ele>462</ele>
<time>2023-05-16T09:59:05Z</time>
</trkpt>
<trkpt lat="48.928752997890115" lon="9.746644981205463">
<ele>461.79999999999995</ele>
<time>2023-05-16T09:59:06Z</time>
</trkpt>
<trkpt lat="48.92882499843836" lon="9.746587984263897">
<ele>461.4</ele>
<time>2023-05-16T09:59:07Z</time>
</trkpt>
<trkpt lat="48.92889297567308" lon="9.746527969837189">
<ele>461</ele>
<time>2023-05-16T09:59:08Z</time>
</trkpt>
<trkpt lat="48.92896195873618" lon="9.746469967067242">
<ele>460.79999999999995</ele>
<time>2023-05-16T09:59:09Z</time>
</trkpt>
<trkpt lat="48.92902197316289" lon="9.746406935155392">
<ele>460.6</ele>
<time>2023-05-16T09:59:10Z</time>
</trkpt>
<trkpt lat="48.92907997593284" lon="9.746346920728683">
<ele>460.6</ele>
<time>2023-05-16T09:59:11Z</time>
</trkpt>
<trkpt lat="48.92913496121764" lon="9.746291935443878">
<ele>460.6</ele>
<time>2023-05-16T09:59:12Z</time>
</trkpt>
<trkpt lat="48.929184917360544" lon="9.746234938502312">
<ele>460.6</ele>
<time>2023-05-16T09:59:13Z</time>
</trkpt>
<trkpt lat="48.92923193983734" lon="9.74618498235941">
<ele>460.6</ele>
<time>2023-05-16T09:59:14Z</time>
</trkpt>
<trkpt lat="48.92927695065737" lon="9.746134942397475">
<ele>460.79999999999995</ele>
<time>2023-05-16T09:59:15Z</time>
</trkpt>
<trkpt lat="48.9293219614774" lon="9.746084986254573">
<ele>460.79999999999995</ele>
<time>2023-05-16T09:59:16Z</time>
</trkpt>
<trkpt lat="48.929359931498766" lon="9.74603796377778">
<ele>460.79999999999995</ele>
<time>2023-05-16T09:59:17Z</time>
</trkpt>
<trkpt lat="48.929397985339165" lon="9.745996976271272">
<ele>461</ele>
<time>2023-05-16T09:59:18Z</time>
</trkpt>
<trkpt lat="48.92943494953215" lon="9.745952971279621">
<ele>461</ele>
<time>2023-05-16T09:59:19Z</time>
</trkpt>
<trkpt lat="48.92947199754417" lon="9.745914917439222">
<ele>461.20000000000005</ele>
<time>2023-05-16T09:59:20Z</time>
</trkpt>
<trkpt lat="48.929507955908775" lon="9.745874935761094">
<ele>461.4</ele>
<time>2023-05-16T09:59:21Z</time>
</trkpt>
<trkpt lat="48.92954492010176" lon="9.745836965739727">
<ele>461.6</ele>
<time>2023-05-16T09:59:22Z</time>
</trkpt>
<trkpt lat="48.92957995645702" lon="9.74579798988998">
<ele>462</ele>
<time>2023-05-16T09:59:23Z</time>
</trkpt>
<trkpt lat="48.929614992812276" lon="9.74575792439282">
<ele>462.4</ele>
<time>2023-05-16T09:59:24Z</time>
</trkpt>
<trkpt lat="48.92965195700526" lon="9.745722971856594">
<ele>462.79999999999995</ele>
<time>2023-05-16T09:59:25Z</time>
</trkpt>
<trkpt lat="48.92968699336052" lon="9.745689947158098">
<ele>463.20000000000005</ele>
<time>2023-05-16T09:59:26Z</time>
</trkpt>
<trkpt lat="48.929722951725125" lon="9.745656922459602">
<ele>463.6</ele>
<time>2023-05-16T09:59:27Z</time>
</trkpt>
<trkpt lat="48.92975798808038" lon="9.745624987408519">
<ele>463.79999999999995</ele>
<time>2023-05-16T09:59:28Z</time>
</trkpt>
<trkpt lat="48.92979495227337" lon="9.745597997680306">
<ele>464.20000000000005</ele>
<time>2023-05-16T09:59:29Z</time>
</trkpt>
<trkpt lat="48.929831916466355" lon="9.745571929961443">
<ele>464.6</ele>
<time>2023-05-16T09:59:30Z</time>
</trkpt>
<trkpt lat="48.92986695282161" lon="9.74554494023323">
<ele>464.79999999999995</ele>
<time>2023-05-16T09:59:31Z</time>
</trkpt>
<trkpt lat="48.92990299500525" lon="9.745522979646921">
<ele>465.20000000000005</ele>
<time>2023-05-16T09:59:32Z</time>
</trkpt>
<trkpt lat="48.92993995919824" lon="9.745502946898341">
<ele>465.4</ele>
<time>2023-05-16T09:59:33Z</time>
</trkpt>
<trkpt lat="48.92997692339122" lon="9.745481992140412">
<ele>465.79999999999995</ele>
<time>2023-05-16T09:59:34Z</time>
</trkpt>
<trkpt lat="48.93001497723162" lon="9.74545793607831">
<ele>466</ele>
<time>2023-05-16T09:59:35Z</time>
</trkpt>
<trkpt lat="48.93005495890975" lon="9.745436981320381">
<ele>466.4</ele>
<time>2023-05-16T09:59:36Z</time>
</trkpt>
<trkpt lat="48.93009494058788" lon="9.745421977713704">
<ele>466.6</ele>
<time>2023-05-16T09:59:37Z</time>
</trkpt>
<trkpt lat="48.93013492226601" lon="9.745406974107027">
<ele>467</ele>
<time>2023-05-16T09:59:38Z</time>
</trkpt>
<trkpt lat="48.930172976106405" lon="9.74539297632873">
<ele>467.20000000000005</ele>
<time>2023-05-16T09:59:39Z</time>
</trkpt>
<trkpt lat="48.93021195195615" lon="9.745381996035576">
<ele>467.6</ele>
<time>2023-05-16T09:59:40Z</time>
</trkpt>
<trkpt lat="48.93024992197752" lon="9.745369926095009">
<ele>468</ele>
<time>2023-05-16T09:59:41Z</time>
</trkpt>
<trkpt lat="48.93028797581792" lon="9.745359951630235">
<ele>468.20000000000005</ele>
<time>2023-05-16T09:59:42Z</time>
</trkpt>
<trkpt lat="48.93032795749605" lon="9.74534997716546">
<ele>468.6</ele>
<time>2023-05-16T09:59:43Z</time>
</trkpt>
<trkpt lat="48.930366933345795" lon="9.745341930538416">
<ele>469</ele>
<time>2023-05-16T09:59:44Z</time>
</trkpt>
<trkpt lat="48.930406998842955" lon="9.745332961902022">
<ele>469.20000000000005</ele>
<time>2023-05-16T09:59:45Z</time>
</trkpt>
<trkpt lat="48.93044496886432" lon="9.74532793276012">
<ele>469.6</ele>
<time>2023-05-16T09:59:46Z</time>
</trkpt>
<trkpt lat="48.93048293888569" lon="9.745319969952106">
<ele>469.79999999999995</ele>
<time>2023-05-16T09:59:47Z</time>
</trkpt>
<trkpt lat="48.93052199855447" lon="9.745314940810204">
<ele>470</ele>
<time>2023-05-16T09:59:48Z</time>
</trkpt>
<trkpt lat="48.930559968575835" lon="9.745307983830571">
<ele>470.20000000000005</ele>
<time>2023-05-16T09:59:49Z</time>
</trkpt>
<trkpt lat="48.93059995025396" lon="9.745301948860288">
<ele>470.4</ele>
<time>2023-05-16T09:59:50Z</time>
</trkpt>
<trkpt lat="48.93063699826598" lon="9.745297925546765">
<ele>470.6</ele>
<time>2023-05-16T09:59:51Z</time>
</trkpt>
<trkpt lat="48.93067295663059" lon="9.745292980223894">
<ele>470.6</ele>
<time>2023-05-16T09:59:52Z</time>
</trkpt>
<trkpt lat="48.93071494996548" lon="9.745291974395514">
<ele>470.79999999999995</ele>
<time>2023-05-16T09:59:53Z</time>
</trkpt>
<trkpt lat="48.930752919986844" lon="9.745287951081991">
<ele>470.79999999999995</ele>
<time>2023-05-16T09:59:54Z</time>
</trkpt>
<trkpt lat="48.93078996799886" lon="9.74528493359685">
<ele>471</ele>
<time>2023-05-16T09:59:55Z</time>
</trkpt>
<trkpt lat="48.93083196133375" lon="9.745282921940088">
<ele>471</ele>
<time>2023-05-16T09:59:56Z</time>
</trkpt>
<trkpt lat="48.93087697215378" lon="9.745282921940088">
<ele>471</ele>
<time>2023-05-16T09:59:57Z</time>
</trkpt>
<trkpt lat="48.930922988802195" lon="9.74528493359685">
<ele>471.20000000000005</ele>
<time>2023-05-16T09:59:58Z</time>
</trkpt>
<trkpt lat="48.9309729449451" lon="9.74528694525361">
<ele>471.20000000000005</ele>
<time>2023-05-16T09:59:59Z</time>
</trkpt>
<trkpt lat="48.93102197907865" lon="9.74528199993074">
<ele>471</ele>
<time>2023-05-16T10:00:00Z</time>
</trkpt>
<trkpt lat="48.931074952706695" lon="9.745279988273978">
<ele>471</ele>
<time>2023-05-16T10:00:01Z</time>
</trkpt>
<trkpt lat="48.9311299379915" lon="9.74528493359685">
<ele>471</ele>
<time>2023-05-16T10:00:02Z</time>
</trkpt>
<trkpt lat="48.931184923276305" lon="9.745289962738752">
<ele>471</ele>
<time>2023-05-16T10:00:03Z</time>
</trkpt>
<trkpt lat="48.93124192021787" lon="9.745294991880655">
<ele>470.79999999999995</ele>
<time>2023-05-16T10:00:04Z</time>
</trkpt>
<trkpt lat="48.93130294047296" lon="9.74530496634543">
<ele>470.79999999999995</ele>
<time>2023-05-16T10:00:05Z</time>
</trkpt>
<trkpt lat="48.93136999569833" lon="9.745316952466965">
<ele>470.6</ele>
<time>2023-05-16T10:00:06Z</time>
</trkpt>
<trkpt lat="48.931437972933054" lon="9.74532499909401">
<ele>470.6</ele>
<time>2023-05-16T10:00:07Z</time>
</trkpt>
<trkpt lat="48.9315099734813" lon="9.745332961902022">
<ele>470.20000000000005</ele>
<time>2023-05-16T10:00:08Z</time>
</trkpt>
<trkpt lat="48.93158499151468" lon="9.745337991043925">
<ele>470</ele>
<time>2023-05-16T10:00:09Z</time>
</trkpt>
<trkpt lat="48.93165799789131" lon="9.7453479655087">
<ele>469.6</ele>
<time>2023-05-16T10:00:10Z</time>
</trkpt>
<trkpt lat="48.93173293210566" lon="9.745359951630235">
<ele>469</ele>
<time>2023-05-16T10:00:11Z</time>
</trkpt>
<trkpt lat="48.931804932653904" lon="9.745366992428899">
<ele>468.4</ele>
<time>2023-05-16T10:00:12Z</time>
</trkpt>
<trkpt lat="48.931874921545386" lon="9.74537294358015">
<ele>467.79999999999995</ele>
<time>2023-05-16T10:00:13Z</time>
</trkpt>
<trkpt lat="48.93194692209363" lon="9.745381996035576">
<ele>467.20000000000005</ele>
<time>2023-05-16T10:00:14Z</time>
</trkpt>
<trkpt lat="48.932019928470254" lon="9.745387947186828">
<ele>466.6</ele>
<time>2023-05-16T10:00:15Z</time>
</trkpt>
<trkpt lat="48.93209494650364" lon="9.745386941358447">
<ele>466</ele>
<time>2023-05-16T10:00:16Z</time>
</trkpt>
<trkpt lat="48.932169964537024" lon="9.745386941358447">
<ele>465.4</ele>
<time>2023-05-16T10:00:17Z</time>
</trkpt>
<trkpt lat="48.93224791623652" lon="9.745389958843589">
<ele>465</ele>
<time>2023-05-16T10:00:18Z</time>
</trkpt>
<trkpt lat="48.93232796341181" lon="9.74539197050035">
<ele>464.4</ele>
<time>2023-05-16T10:00:19Z</time>
</trkpt>
<trkpt lat="48.932409938424826" lon="9.745381996035576">
<ele>464</ele>
<time>2023-05-16T10:00:20Z</time>
</trkpt>
<trkpt lat="48.932489985600114" lon="9.745362969115376">
<ele>463.6</ele>
<time>2023-05-16T10:00:21Z</time>
</trkpt>
<trkpt lat="48.93256793729961" lon="9.745334973558784">
<ele>463.20000000000005</ele>
<time>2023-05-16T10:00:22Z</time>
</trkpt>
<trkpt lat="48.9326479844749" lon="9.74530697800219">
<ele>462.79999999999995</ele>
<time>2023-05-16T10:00:23Z</time>
</trkpt>
<trkpt lat="48.932727947831154" lon="9.745274959132075">
<ele>462.4</ele>
<time>2023-05-16T10:00:24Z</time>
</trkpt>
<trkpt lat="48.9328049775213" lon="9.74524193443358">
<ele>462</ele>
<time>2023-05-16T10:00:25Z</time>
</trkpt>
<trkpt lat="48.9328879583627" lon="9.745196923613548">
<ele>461.6</ele>
<time>2023-05-16T10:00:26Z</time>
</trkpt>
<trkpt lat="48.93297999165952" lon="9.745164988562465">
<ele>461</ele>
<time>2023-05-16T10:00:27Z</time>
</trkpt>
<trkpt lat="48.933071941137314" lon="9.745136993005872">
<ele>460.4</ele>
<time>2023-05-16T10:00:28Z</time>
</trkpt>
<trkpt lat="48.93316498026252" lon="9.745107991620898">
<ele>459.79999999999995</ele>
<time>2023-05-16T10:00:29Z</time>
</trkpt>
<trkpt lat="48.93325793556869" lon="9.745081923902035">
<ele>459</ele>
<time>2023-05-16T10:00:30Z</time>
</trkpt>
<trkpt lat="48.933351980522275" lon="9.745052922517061">
<ele>458.4</ele>
<time>2023-05-16T10:00:31Z</time>
</trkpt>
<trkpt lat="48.93344795331359" lon="9.745016964152455">
<ele>457.79999999999995</ele>
<time>2023-05-16T10:00:32Z</time>
</trkpt>
<trkpt lat="48.933546943590045" lon="9.744979999959469">
<ele>457</ele>
<time>2023-05-16T10:00:33Z</time>
</trkpt>
<trkpt lat="48.93364199437201" lon="9.744937922805548">
<ele>456.4</ele>
<time>2023-05-16T10:00:34Z</time>
</trkpt>
<trkpt lat="48.93373293802142" lon="9.744896935299039">
<ele>456</ele>
<time>2023-05-16T10:00:35Z</time>
</trkpt>
<trkpt lat="48.933822959661484" lon="9.744869945570827">
<ele>455.4</ele>
<time>2023-05-16T10:00:36Z</time>
</trkpt>
<trkpt lat="48.93390795215964" lon="9.74485494196415">
<ele>455.20000000000005</ele>
<time>2023-05-16T10:00:37Z</time>
</trkpt>
<trkpt lat="48.93398699350655" lon="9.744852930307388">
<ele>454.79999999999995</ele>
<time>2023-05-16T10:00:38Z</time>
</trkpt>
<trkpt lat="48.93404792994261" lon="9.74485494196415">
<ele>454.6</ele>
<time>2023-05-16T10:00:39Z</time>
</trkpt>
<trkpt lat="48.93409193493426" lon="9.744861982762814">
<ele>454.4</ele>
<time>2023-05-16T10:00:40Z</time>
</trkpt>
<trkpt lat="48.934126971289515" lon="9.744869945570827">
<ele>454.20000000000005</ele>
<time>2023-05-16T10:00:41Z</time>
</trkpt>
<trkpt lat="48.93415496684611" lon="9.74487698636949">
<ele>454</ele>
<time>2023-05-16T10:00:42Z</time>
</trkpt>
<trkpt lat="48.9341829624027" lon="9.744884949177504">
<ele>453.79999999999995</ele>
<time>2023-05-16T10:00:43Z</time>
</trkpt>
<trkpt lat="48.93420794047415" lon="9.744901964440942">
<ele>453.6</ele>
<time>2023-05-16T10:00:44Z</time>
</trkpt>
<trkpt lat="48.934229984879494" lon="9.74491998553276">
<ele>453.6</ele>
<time>2023-05-16T10:00:45Z</time>
</trkpt>
<trkpt lat="48.93424792215228" lon="9.744931971654296">
<ele>453.4</ele>
<time>2023-05-16T10:00:46Z</time>
</trkpt>
<trkpt lat="48.93426292575896" lon="9.744937922805548">
<ele>453.4</ele>
<time>2023-05-16T10:00:47Z</time>
</trkpt>
<trkpt lat="48.934272984042764" lon="9.74494194611907">
<ele>453.4</ele>
<time>2023-05-16T10:00:48Z</time>
</trkpt>
<trkpt lat="48.93428798764944" lon="9.744944963604212">
<ele>453.20000000000005</ele>
<time>2023-05-16T10:00:49Z</time>
</trkpt>
<trkpt lat="48.93430994823575" lon="9.744937922805548">
<ele>453.20000000000005</ele>
<time>2023-05-16T10:00:50Z</time>
</trkpt>
<trkpt lat="48.93432495184243" lon="9.744911938905716">
<ele>453.20000000000005</ele>
<time>2023-05-16T10:00:51Z</time>
</trkpt>
<trkpt lat="48.93432998098433" lon="9.744872963055968">
<ele>453.20000000000005</ele>
<time>2023-05-16T10:00:52Z</time>
</trkpt>
<trkpt lat="48.93432998098433" lon="9.744829963892698">
<ele>453.20000000000005</ele>
<time>2023-05-16T10:00:53Z</time>
</trkpt>
<trkpt lat="48.93432796932757" lon="9.744781935587525">
<ele>453.4</ele>
<time>2023-05-16T10:00:54Z</time>
</trkpt>
<trkpt lat="48.93432495184243" lon="9.744729967787862">
<ele>453.4</ele>
<time>2023-05-16T10:00:55Z</time>
</trkpt>
<trkpt lat="48.934319922700524" lon="9.744674982503057">
<ele>453.4</ele>
<time>2023-05-16T10:00:56Z</time>
</trkpt>
<trkpt lat="48.93431296572089" lon="9.74461697973311">
<ele>453.6</ele>
<time>2023-05-16T10:00:57Z</time>
</trkpt>
<trkpt lat="48.93430693075061" lon="9.744556965306401">
<ele>453.6</ele>
<time>2023-05-16T10:00:58Z</time>
</trkpt>
<trkpt lat="48.93430198542774" lon="9.744496950879693">
<ele>453.6</ele>
<time>2023-05-16T10:00:59Z</time>
</trkpt>
<trkpt lat="48.93429494462907" lon="9.744436936452985">
<ele>453.6</ele>
<time>2023-05-16T10:01:00Z</time>
</trkpt>
<trkpt lat="48.93428698182106" lon="9.744377927854657">
<ele>453.79999999999995</ele>
<time>2023-05-16T10:01:01Z</time>
</trkpt>
<trkpt lat="48.93428195267916" lon="9.744322942569852">
<ele>453.79999999999995</ele>
<time>2023-05-16T10:01:02Z</time>
</trkpt>
<trkpt lat="48.934279941022396" lon="9.74427499808371">
<ele>454</ele>
<time>2023-05-16T10:01:03Z</time>
</trkpt>
<trkpt lat="48.934276923537254" lon="9.744226969778538">
<ele>454.20000000000005</ele>
<time>2023-05-16T10:01:04Z</time>
</trkpt>
<trkpt lat="48.93427197821438" lon="9.744177935644984">
<ele>454.4</ele>
<time>2023-05-16T10:01:05Z</time>
</trkpt>
<trkpt lat="48.93426191993058" lon="9.744127979502082">
<ele>454.4</ele>
<time>2023-05-16T10:01:06Z</time>
</trkpt>
<trkpt lat="48.934254962950945" lon="9.744086991995573">
<ele>454.6</ele>
<time>2023-05-16T10:01:07Z</time>
</trkpt>
<trkpt lat="48.93424197100103" lon="9.744049943983555">
<ele>454.79999999999995</ele>
<time>2023-05-16T10:01:08Z</time>
</trkpt>
<trkpt lat="48.934232918545604" lon="9.744016919285059">
<ele>455</ele>
<time>2023-05-16T10:01:09Z</time>
</trkpt>
<trkpt lat="48.93422495573759" lon="9.743986995890737">
<ele>455</ele>
<time>2023-05-16T10:01:10Z</time>
</trkpt>
<trkpt lat="48.934209952130914" lon="9.743962939828634">
<ele>455.20000000000005</ele>
<time>2023-05-16T10:01:11Z</time>
</trkpt>
<trkpt lat="48.934191931039095" lon="9.743946930393577">
<ele>455.20000000000005</ele>
<time>2023-05-16T10:01:12Z</time>
</trkpt>
<trkpt lat="48.93417298793793" lon="9.743941985070705">
<ele>455.4</ele>
<time>2023-05-16T10:01:13Z</time>
</trkpt>
<trkpt lat="48.93415496684611" lon="9.743944918736815">
<ele>455.4</ele>
<time>2023-05-16T10:01:14Z</time>
</trkpt>
<trkpt lat="48.93413996323943" lon="9.743944918736815">
<ele>455.6</ele>
<time>2023-05-16T10:01:15Z</time>
</trkpt>
<trkpt lat="48.934124959632754" lon="9.743944918736815">
<ele>455.6</ele>
<time>2023-05-16T10:01:16Z</time>
</trkpt>
<trkpt lat="48.934106938540936" lon="9.743941985070705">
<ele>455.6</ele>
<time>2023-05-16T10:01:17Z</time>
</trkpt>
<trkpt lat="48.93408799543977" lon="9.743934944272041">
<ele>455.6</ele>
<time>2023-05-16T10:01:18Z</time>
</trkpt>
<trkpt lat="48.93406997434795" lon="9.74393293261528">
<ele>455.6</ele>
<time>2023-05-16T10:01:19Z</time>
</trkpt>
<trkpt lat="48.93404994159937" lon="9.74392999894917">
<ele>455.6</ele>
<time>2023-05-16T10:01:20Z</time>
</trkpt>
<trkpt lat="48.93403192050755" lon="9.74393293261528">
<ele>455.6</ele>
<time>2023-05-16T10:01:21Z</time>
</trkpt>
<trkpt lat="48.934014989063144" lon="9.743937961757183">
<ele>455.6</ele>
<time>2023-05-16T10:01:22Z</time>
</trkpt>
<trkpt lat="48.93400199711323" lon="9.743942990899086">
<ele>455.6</ele>
<time>2023-05-16T10:01:23Z</time>
</trkpt>
<trkpt lat="48.93398498184979" lon="9.743941985070705">
<ele>455.6</ele>
<time>2023-05-16T10:01:24Z</time>
</trkpt>
<trkpt lat="48.933974923565984" lon="9.743939973413944">
<ele>455.6</ele>
<time>2023-05-16T10:01:25Z</time>
</trkpt>
<trkpt lat="48.933974923565984" lon="9.743937961757183">
<ele>455.6</ele>
<time>2023-05-16T10:01:27Z</time>
</trkpt>
<trkpt lat="48.933954974636436" lon="9.743857998400927">
<ele>455.79999999999995</ele>
<time>2023-05-16T10:01:28Z</time>
</trkpt>
<trkpt lat="48.933951957151294" lon="9.743836959823966">
<ele>455.79999999999995</ele>
<time>2023-05-16T10:01:29Z</time>
</trkpt>
<trkpt lat="48.93394491635263" lon="9.743817932903767">
<ele>455.79999999999995</ele>
<time>2023-05-16T10:01:30Z</time>
</trkpt>
<trkpt lat="48.93393997102976" lon="9.743801923468709">
<ele>455.79999999999995</ele>
<time>2023-05-16T10:01:31Z</time>
</trkpt>
<trkpt lat="48.933934941887856" lon="9.7437799628824">
<ele>455.79999999999995</ele>
<time>2023-05-16T10:01:32Z</time>
</trkpt>
<trkpt lat="48.93392697907984" lon="9.74375699646771">
<ele>455.79999999999995</ele>
<time>2023-05-16T10:01:33Z</time>
</trkpt>
<trkpt lat="48.93391692079604" lon="9.743731934577227">
<ele>455.79999999999995</ele>
<time>2023-05-16T10:01:34Z</time>
</trkpt>
<trkpt lat="48.93390694633126" lon="9.743707962334156">
<ele>455.79999999999995</ele>
<time>2023-05-16T10:01:35Z</time>
</trkpt>
<trkpt lat="48.93389797769487" lon="9.743682984262705">
<ele>455.79999999999995</ele>
<time>2023-05-16T10:01:36Z</time>
</trkpt>
<trkpt lat="48.93388791941106" lon="9.743662951514125">
<ele>455.79999999999995</ele>
<time>2023-05-16T10:01:37Z</time>
</trkpt>
<trkpt lat="48.93387995660305" lon="9.743647947907448">
<ele>455.79999999999995</ele>
<time>2023-05-16T10:01:38Z</time>
</trkpt>
<trkpt lat="48.933869982138276" lon="9.743637973442674">
<ele>455.79999999999995</ele>
<time>2023-05-16T10:01:39Z</time>
</trkpt>
<trkpt lat="48.933849949389696" lon="9.743616934865713">
<ele>455.79999999999995</ele>
<time>2023-05-16T10:01:40Z</time>
</trkpt>
<trkpt lat="48.933842992410064" lon="9.743606960400939">
<ele>455.79999999999995</ele>
<time>2023-05-16T10:01:41Z</time>
</trkpt>
<trkpt lat="48.93383997492492" lon="9.743599919602275">
<ele>455.79999999999995</ele>
<time>2023-05-16T10:01:42Z</time>
</trkpt>
<trkpt lat="48.93383997492492" lon="9.743594974279404">
<ele>455.79999999999995</ele>
<time>2023-05-16T10:01:43Z</time>
</trkpt>
<trkpt lat="48.93383796326816" lon="9.743591956794262">
<ele>455.6</ele>
<time>2023-05-16T10:01:44Z</time>
</trkpt>
<trkpt lat="48.93383796326816" lon="9.7435899451375">
<ele>455.6</ele>
<time>2023-05-16T10:01:45Z</time>
</trkpt>
<trkpt lat="48.933786917477846" lon="9.743552980944514">
<ele>455.6</ele>
<time>2023-05-16T10:01:45Z</time>
</trkpt>
<trkpt lat="48.933762945234776" lon="9.743552980944514">
<ele>455.6</ele>
<time>2023-05-16T10:01:46Z</time>
</trkpt>
<trkpt lat="48.933737967163324" lon="9.743557926267385">
<ele>455.6</ele>
<time>2023-05-16T10:01:47Z</time>
</trkpt>
<trkpt lat="48.93371298909187" lon="9.743561949580908">
<ele>455.6</ele>
<time>2023-05-16T10:01:48Z</time>
</trkpt>
<trkpt lat="48.93368692137301" lon="9.743562955409288">
<ele>455.4</ele>
<time>2023-05-16T10:01:49Z</time>
</trkpt>
<trkpt lat="48.9336599316448" lon="9.743569996207952">
<ele>455.4</ele>
<time>2023-05-16T10:01:50Z</time>
</trkpt>
<trkpt lat="48.933631936088204" lon="9.743561949580908">
<ele>455.20000000000005</ele>
<time>2023-05-16T10:01:51Z</time>
</trkpt>
<trkpt lat="48.93360293470323" lon="9.743559937924147">
<ele>455.20000000000005</ele>
<time>2023-05-16T10:01:52Z</time>
</trkpt>
<trkpt lat="48.9335769508034" lon="9.743557926267385">
<ele>455</ele>
<time>2023-05-16T10:01:53Z</time>
</trkpt>
<trkpt lat="48.933547949418426" lon="9.743552980944514">
<ele>455</ele>
<time>2023-05-16T10:01:54Z</time>
</trkpt>
<trkpt lat="48.93351693637669" lon="9.743542922660708">
<ele>454.79999999999995</ele>
<time>2023-05-16T10:01:55Z</time>
</trkpt>
<trkpt lat="48.933482989668846" lon="9.743524985387921">
<ele>454.79999999999995</ele>
<time>2023-05-16T10:01:56Z</time>
</trkpt>
<trkpt lat="48.93345298245549" lon="9.743516938760877">
<ele>454.6</ele>
<time>2023-05-16T10:01:57Z</time>
</trkpt>
<trkpt lat="48.933416940271854" lon="9.743529930710793">
<ele>454.6</ele>
<time>2023-05-16T10:01:58Z</time>
</trkpt>
<trkpt lat="48.93337997607887" lon="9.743514927104115">
<ele>454.4</ele>
<time>2023-05-16T10:01:59Z</time>
</trkpt>
<trkpt lat="48.93333999440074" lon="9.743494978174567">
<ele>454.4</ele>
<time>2023-05-16T10:02:00Z</time>
</trkpt>
<trkpt lat="48.93329498358071" lon="9.743469916284084">
<ele>454.20000000000005</ele>
<time>2023-05-16T10:02:01Z</time>
</trkpt>
<trkpt lat="48.93325491808355" lon="9.743449967354536">
<ele>454.20000000000005</ele>
<time>2023-05-16T10:02:02Z</time>
</trkpt>
<trkpt lat="48.93321795389056" lon="9.743434963747859">
<ele>454</ele>
<time>2023-05-16T10:02:03Z</time>
</trkpt>
<trkpt lat="48.933184929192066" lon="9.74341794848442">
<ele>454</ele>
<time>2023-05-16T10:02:04Z</time>
</trkpt>
<trkpt lat="48.93315693363547" lon="9.743396993726492">
<ele>453.79999999999995</ele>
<time>2023-05-16T10:02:05Z</time>
</trkpt>
<trkpt lat="48.93312994390726" lon="9.743376960977912">
<ele>453.79999999999995</ele>
<time>2023-05-16T10:02:06Z</time>
</trkpt>
<trkpt lat="48.93310295417905" lon="9.743356928229332">
<ele>453.79999999999995</ele>
<time>2023-05-16T10:02:07Z</time>
</trkpt>
<trkpt lat="48.93307998776436" lon="9.743336979299784">
<ele>453.6</ele>
<time>2023-05-16T10:02:08Z</time>
</trkpt>
<trkpt lat="48.933054925873876" lon="9.743314934894443">
<ele>453.6</ele>
<time>2023-05-16T10:02:09Z</time>
</trkpt>
<trkpt lat="48.93302693031728" lon="9.743296997621655">
<ele>453.6</ele>
<time>2023-05-16T10:02:10Z</time>
</trkpt>
<trkpt lat="48.93299792893231" lon="9.743279982358217">
<ele>453.6</ele>
<time>2023-05-16T10:02:11Z</time>
</trkpt>
<trkpt lat="48.93297798000276" lon="9.743256932124496">
<ele>453.6</ele>
<time>2023-05-16T10:02:12Z</time>
</trkpt>
<trkpt lat="48.93295995891094" lon="9.743234971538186">
<ele>453.6</ele>
<time>2023-05-16T10:02:13Z</time>
</trkpt>
<trkpt lat="48.93293992616236" lon="9.743212927132845">
<ele>453.4</ele>
<time>2023-05-16T10:02:14Z</time>
</trkpt>
<trkpt lat="48.93292995169759" lon="9.743196917697787">
<ele>453.4</ele>
<time>2023-05-16T10:02:15Z</time>
</trkpt>
<trkpt lat="48.93291695974767" lon="9.74318291991949">
<ele>453.6</ele>
<time>2023-05-16T10:02:16Z</time>
</trkpt>
<trkpt lat="48.93290497362614" lon="9.743167916312814">
<ele>453.6</ele>
<time>2023-05-16T10:02:17Z</time>
</trkpt>
<trkpt lat="48.932881923392415" lon="9.743147967383265">
<ele>453.6</ele>
<time>2023-05-16T10:02:18Z</time>
</trkpt>
<trkpt lat="48.93287194892764" lon="9.74311695434153">
<ele>453.6</ele>
<time>2023-05-16T10:02:19Z</time>
</trkpt>
<trkpt lat="48.932859962806106" lon="9.743111925199628">
<ele>453.6</ele>
<time>2023-05-16T10:02:20Z</time>
</trkpt>
<trkpt lat="48.932839930057526" lon="9.743112931028008">
<ele>453.6</ele>
<time>2023-05-16T10:02:21Z</time>
</trkpt>
<trkpt lat="48.93282995559275" lon="9.743107985705137">
<ele>453.6</ele>
<time>2023-05-16T10:02:22Z</time>
</trkpt>
<trkpt lat="48.93282492645085" lon="9.743107985705137">
<ele>453.6</ele>
<time>2023-05-16T10:02:23Z</time>
</trkpt>
<trkpt lat="48.93282492645085" lon="9.743111925199628">
<ele>453.6</ele>
<time>2023-05-16T10:02:24Z</time>
</trkpt>
<trkpt lat="48.93282199278474" lon="9.743111925199628">
<ele>453.79999999999995</ele>
<time>2023-05-16T10:02:25Z</time>
</trkpt>
<trkpt lat="48.932817969471216" lon="9.743111925199628">
<ele>453.79999999999995</ele>
<time>2023-05-16T10:02:26Z</time>
</trkpt>
<trkpt lat="48.932796930894256" lon="9.743076972663403">
<ele>454.4</ele>
<time>2023-05-16T10:02:26Z</time>
</trkpt>
<trkpt lat="48.932791985571384" lon="9.743066998198628">
<ele>454.4</ele>
<time>2023-05-16T10:02:27Z</time>
</trkpt>
<trkpt lat="48.93278494477272" lon="9.743057945743203">
<ele>454.4</ele>
<time>2023-05-16T10:02:28Z</time>
</trkpt>
<trkpt lat="48.93277798779309" lon="9.743051994591951">
<ele>454.4</ele>
<time>2023-05-16T10:02:29Z</time>
</trkpt>
<trkpt lat="48.93276994116604" lon="9.743046965450048">
<ele>454.4</ele>
<time>2023-05-16T10:02:30Z</time>
</trkpt>
<trkpt lat="48.93276499584317" lon="9.743042942136526">
<ele>454.4</ele>
<time>2023-05-16T10:02:31Z</time>
</trkpt>
<trkpt lat="48.93276197835803" lon="9.743041936308146">
<ele>454.6</ele>
<time>2023-05-16T10:02:32Z</time>
</trkpt>
<trkpt lat="48.93275996670127" lon="9.743036990985274">
<ele>454.6</ele>
<time>2023-05-16T10:02:33Z</time>
</trkpt>
<trkpt lat="48.93275694921613" lon="9.743032967671752">
<ele>454.6</ele>
<time>2023-05-16T10:02:34Z</time>
</trkpt>
<trkpt lat="48.932752925902605" lon="9.74302995018661">
<ele>454.6</ele>
<time>2023-05-16T10:02:35Z</time>
</trkpt>
<trkpt lat="48.93274697475135" lon="9.743024921044707">
<ele>454.79999999999995</ele>
<time>2023-05-16T10:02:36Z</time>
</trkpt>
<trkpt lat="48.93262996338308" lon="9.742969935759902">
<ele>453.79999999999995</ele>
<time>2023-05-16T10:02:36Z</time>
</trkpt>
<trkpt lat="48.9326479844749" lon="9.742974964901805">
<ele>453.79999999999995</ele>
<time>2023-05-16T10:02:37Z</time>
</trkpt>
<trkpt lat="48.932667933404446" lon="9.74298695102334">
<ele>453.79999999999995</ele>
<time>2023-05-16T10:02:38Z</time>
</trkpt>
<trkpt lat="48.93269995227456" lon="9.743002960458398">
<ele>453.79999999999995</ele>
<time>2023-05-16T10:02:39Z</time>
</trkpt>
<trkpt lat="48.93273691646755" lon="9.743032967671752">
<ele>453.6</ele>
<time>2023-05-16T10:02:40Z</time>
</trkpt>
<trkpt lat="48.93277798779309" lon="9.743076972663403">
<ele>453.6</ele>
<time>2023-05-16T10:02:41Z</time>
</trkpt>
<trkpt lat="48.93282199278474" lon="9.74311494268477">
<ele>453.6</ele>
<time>2023-05-16T10:02:42Z</time>
</trkpt>
<trkpt lat="48.93286197446287" lon="9.743152996525168">
<ele>453.6</ele>
<time>2023-05-16T10:02:43Z</time>
</trkpt>
<trkpt lat="48.93291193060577" lon="9.743194989860058">
<ele>453.4</ele>
<time>2023-05-16T10:02:44Z</time>
</trkpt>
<trkpt lat="48.93295995891094" lon="9.743232959881425">
<ele>453.4</ele>
<time>2023-05-16T10:02:45Z</time>
</trkpt>
<trkpt lat="48.93300195224583" lon="9.743266990408301">
<ele>453.4</ele>
<time>2023-05-16T10:02:46Z</time>
</trkpt>
<trkpt lat="48.9330449514091" lon="9.743296997621655">
<ele>453.4</ele>
<time>2023-05-16T10:02:47Z</time>
</trkpt>
<trkpt lat="48.93308493308723" lon="9.743326921015978">
<ele>453.4</ele>
<time>2023-05-16T10:02:48Z</time>
</trkpt>
<trkpt lat="48.93312692642212" lon="9.74335491657257">
<ele>453.4</ele>
<time>2023-05-16T10:02:49Z</time>
</trkpt>
<trkpt lat="48.93316699191928" lon="9.743379978463054">
<ele>453.4</ele>
<time>2023-05-16T10:02:50Z</time>
</trkpt>
<trkpt lat="48.93320797942579" lon="9.743401939049363">
<ele>453.4</ele>
<time>2023-05-16T10:02:51Z</time>
</trkpt>
<trkpt lat="48.93325692974031" lon="9.743422977626324">
<ele>453.6</ele>
<time>2023-05-16T10:02:52Z</time>
</trkpt>
<trkpt lat="48.93329699523747" lon="9.743444938212633">
<ele>453.6</ele>
<time>2023-05-16T10:02:53Z</time>
</trkpt>
<trkpt lat="48.933329936116934" lon="9.743467988446355">
<ele>453.6</ele>
<time>2023-05-16T10:02:54Z</time>
</trkpt>
<trkpt lat="48.93336497247219" lon="9.743489949032664">
<ele>453.6</ele>
<time>2023-05-16T10:02:55Z</time>
</trkpt>
<trkpt lat="48.933399925008416" lon="9.743499923497438">
<ele>453.6</ele>
<time>2023-05-16T10:02:56Z</time>
</trkpt>
<trkpt lat="48.933437978848815" lon="9.7435019351542">
<ele>453.6</ele>
<time>2023-05-16T10:02:57Z</time>
</trkpt>
<trkpt lat="48.93347695469856" lon="9.743494978174567">
<ele>453.6</ele>
<time>2023-05-16T10:02:58Z</time>
</trkpt>
<trkpt lat="48.933504950255156" lon="9.743491960689425">
<ele>453.6</ele>
<time>2023-05-16T10:02:59Z</time>
</trkpt>
<trkpt lat="48.93353696912527" lon="9.743486931547523">
<ele>453.6</ele>
<time>2023-05-16T10:03:00Z</time>
</trkpt>
<trkpt lat="48.93356194719672" lon="9.743476957082748">
<ele>453.6</ele>
<time>2023-05-16T10:03:01Z</time>
</trkpt>
<trkpt lat="48.93359698355198" lon="9.743474945425987">
<ele>453.6</ele>
<time>2023-05-16T10:03:02Z</time>
</trkpt>
<trkpt lat="48.933634953573346" lon="9.743471927940845">
<ele>453.6</ele>
<time>2023-05-16T10:03:03Z</time>
</trkpt>
<trkpt lat="48.9336649607867" lon="9.743461953476071">
<ele>453.6</ele>
<time>2023-05-16T10:03:04Z</time>
</trkpt>
<trkpt lat="48.93369195051491" lon="9.743446949869394">
<ele>453.6</ele>
<time>2023-05-16T10:03:05Z</time>
</trkpt>
<trkpt lat="48.93372195772827" lon="9.743432952091098">
<ele>453.6</ele>
<time>2023-05-16T10:03:06Z</time>
</trkpt>
<trkpt lat="48.933759927749634" lon="9.743432952091098">
<ele>453.6</ele>
<time>2023-05-16T10:03:07Z</time>
</trkpt>
<trkpt lat="48.933802926912904" lon="9.743426917120814">
<ele>453.79999999999995</ele>
<time>2023-05-16T10:03:08Z</time>
</trkpt>
<trkpt lat="48.93383494578302" lon="9.74341794848442">
<ele>453.79999999999995</ele>
<time>2023-05-16T10:03:09Z</time>
</trkpt>
<trkpt lat="48.933866964653134" lon="9.743407974019647">
<ele>454</ele>
<time>2023-05-16T10:03:10Z</time>
</trkpt>
<trkpt lat="48.93389797769487" lon="9.743401939049363">
<ele>454</ele>
<time>2023-05-16T10:03:11Z</time>
</trkpt>
<trkpt lat="48.933937959373" lon="9.743402944877744">
<ele>454.20000000000005</ele>
<time>2023-05-16T10:03:12Z</time>
</trkpt>
<trkpt lat="48.93396997824311" lon="9.743389952927828">
<ele>454.4</ele>
<time>2023-05-16T10:03:13Z</time>
</trkpt>
<trkpt lat="48.9340069424361" lon="9.743387941271067">
<ele>454.4</ele>
<time>2023-05-16T10:03:14Z</time>
</trkpt>
<trkpt lat="48.934041978791356" lon="9.74337494932115">
<ele>454.6</ele>
<time>2023-05-16T10:03:15Z</time>
</trkpt>
<trkpt lat="48.93407299183309" lon="9.743356928229332">
<ele>454.79999999999995</ele>
<time>2023-05-16T10:03:16Z</time>
</trkpt>
<trkpt lat="48.9340999815613" lon="9.743326921015978">
<ele>454.79999999999995</ele>
<time>2023-05-16T10:03:17Z</time>
</trkpt>
<trkpt lat="48.93411791883409" lon="9.743296997621655">
<ele>455</ele>
<time>2023-05-16T10:03:18Z</time>
</trkpt>
<trkpt lat="48.93413292244077" lon="9.743256932124496">
<ele>455.20000000000005</ele>
<time>2023-05-16T10:03:19Z</time>
</trkpt>
<trkpt lat="48.93414298072457" lon="9.743204964324832">
<ele>455.4</ele>
<time>2023-05-16T10:03:20Z</time>
</trkpt>
<trkpt lat="48.934147926047444" lon="9.743156936019659">
<ele>455.6</ele>
<time>2023-05-16T10:03:21Z</time>
</trkpt>
<trkpt lat="48.934147926047444" lon="9.743104968219995">
<ele>455.6</ele>
<time>2023-05-16T10:03:22Z</time>
</trkpt>
<trkpt lat="48.934147926047444" lon="9.74304998293519">
<ele>455.79999999999995</ele>
<time>2023-05-16T10:03:23Z</time>
</trkpt>
<trkpt lat="48.934147926047444" lon="9.742999942973256">
<ele>456</ele>
<time>2023-05-16T10:03:24Z</time>
</trkpt>
<trkpt lat="48.93415194936097" lon="9.742951998487115">
<ele>456.20000000000005</ele>
<time>2023-05-16T10:03:25Z</time>
</trkpt>
<trkpt lat="48.93415999598801" lon="9.742906987667084">
<ele>456.6</ele>
<time>2023-05-16T10:03:26Z</time>
</trkpt>
<trkpt lat="48.934166952967644" lon="9.742859965190291">
<ele>456.79999999999995</ele>
<time>2023-05-16T10:03:27Z</time>
</trkpt>
<trkpt lat="48.93417298793793" lon="9.74281495437026">
<ele>457</ele>
<time>2023-05-16T10:03:28Z</time>
</trkpt>
<trkpt lat="48.93417994491756" lon="9.742767931893468">
<ele>457.20000000000005</ele>
<time>2023-05-16T10:03:29Z</time>
</trkpt>
<trkpt lat="48.93418497405946" lon="9.742721999064088">
<ele>457.4</ele>
<time>2023-05-16T10:03:30Z</time>
</trkpt>
<trkpt lat="48.9341829624027" lon="9.74266299046576">
<ele>457.6</ele>
<time>2023-05-16T10:03:31Z</time>
</trkpt>
<trkpt lat="48.934186985716224" lon="9.742601970210671">
<ele>457.6</ele>
<time>2023-05-16T10:03:32Z</time>
</trkpt>
<trkpt lat="48.934186985716224" lon="9.742544973269105">
<ele>457.79999999999995</ele>
<time>2023-05-16T10:03:33Z</time>
</trkpt>
<trkpt lat="48.934191931039095" lon="9.742496944963932">
<ele>458</ele>
<time>2023-05-16T10:03:34Z</time>
</trkpt>
<trkpt lat="48.934196960181" lon="9.742442965507507">
<ele>458.20000000000005</ele>
<time>2023-05-16T10:03:35Z</time>
</trkpt>
<trkpt lat="48.93420299515128" lon="9.742397954687476">
<ele>458.4</ele>
<time>2023-05-16T10:03:36Z</time>
</trkpt>
<trkpt lat="48.934212969616055" lon="9.742347998544574">
<ele>458.6</ele>
<time>2023-05-16T10:03:37Z</time>
</trkpt>
<trkpt lat="48.93422294408083" lon="9.742294941097498">
<ele>458.79999999999995</ele>
<time>2023-05-16T10:03:38Z</time>
</trkpt>
<trkpt lat="48.93422696739435" lon="9.742244984954596">
<ele>459</ele>
<time>2023-05-16T10:03:39Z</time>
</trkpt>
<trkpt lat="48.934232918545604" lon="9.742197962477803">
<ele>459.20000000000005</ele>
<time>2023-05-16T10:03:40Z</time>
</trkpt>
<trkpt lat="48.93424197100103" lon="9.74214993417263">
<ele>459.4</ele>
<time>2023-05-16T10:03:41Z</time>
</trkpt>
<trkpt lat="48.9342519454658" lon="9.7421049233526">
<ele>459.6</ele>
<time>2023-05-16T10:03:42Z</time>
</trkpt>
<trkpt lat="48.93425798043609" lon="9.742051949724555">
<ele>459.79999999999995</ele>
<time>2023-05-16T10:03:43Z</time>
</trkpt>
<trkpt lat="48.93426694907248" lon="9.74199797026813">
<ele>459.79999999999995</ele>
<time>2023-05-16T10:03:44Z</time>
</trkpt>
<trkpt lat="48.934274995699525" lon="9.741949941962957">
<ele>460</ele>
<time>2023-05-16T10:03:45Z</time>
</trkpt>
<trkpt lat="48.9342849701643" lon="9.741899985820055">
<ele>460.20000000000005</ele>
<time>2023-05-16T10:03:46Z</time>
</trkpt>
<trkpt lat="48.934297962114215" lon="9.74184692837298">
<ele>460.4</ele>
<time>2023-05-16T10:03:47Z</time>
</trkpt>
<trkpt lat="48.93430994823575" lon="9.741796972230077">
<ele>460.4</ele>
<time>2023-05-16T10:03:48Z</time>
</trkpt>
<trkpt lat="48.934317994862795" lon="9.74173997528851">
<ele>460.6</ele>
<time>2023-05-16T10:03:49Z</time>
</trkpt>
<trkpt lat="48.93432998098433" lon="9.741687923669815">
<ele>460.6</ele>
<time>2023-05-16T10:03:50Z</time>
</trkpt>
<trkpt lat="48.934339955449104" lon="9.74163293838501">
<ele>460.79999999999995</ele>
<time>2023-05-16T10:03:51Z</time>
</trkpt>
<trkpt lat="48.93435194157064" lon="9.741579964756966">
<ele>460.79999999999995</ele>
<time>2023-05-16T10:03:52Z</time>
</trkpt>
<trkpt lat="48.934359988197684" lon="9.741526991128922">
<ele>461</ele>
<time>2023-05-16T10:03:53Z</time>
</trkpt>
<trkpt lat="48.93436996266246" lon="9.741469994187355">
<ele>461</ele>
<time>2023-05-16T10:03:54Z</time>
</trkpt>
<trkpt lat="48.934382954612374" lon="9.741412997245789">
<ele>461.20000000000005</ele>
<time>2023-05-16T10:03:55Z</time>
</trkpt>
<trkpt lat="48.93439695239067" lon="9.741361951455474">
<ele>461.20000000000005</ele>
<time>2023-05-16T10:03:56Z</time>
</trkpt>
<trkpt lat="48.934404999017715" lon="9.741304954513907">
<ele>461.20000000000005</ele>
<time>2023-05-16T10:03:57Z</time>
</trkpt>
<trkpt lat="48.93441497348249" lon="9.7412449400872">
<ele>461.4</ele>
<time>2023-05-16T10:03:58Z</time>
</trkpt>
<trkpt lat="48.93441991880536" lon="9.741184925660491">
<ele>461.4</ele>
<time>2023-05-16T10:03:59Z</time>
</trkpt>
<trkpt lat="48.9344229362905" lon="9.741121977567673">
<ele>461.6</ele>
<time>2023-05-16T10:04:00Z</time>
</trkpt>
<trkpt lat="48.934427965432405" lon="9.741057939827442">
<ele>461.6</ele>
<time>2023-05-16T10:04:01Z</time>
</trkpt>
<trkpt lat="48.93443299457431" lon="9.740997925400734">
<ele>461.79999999999995</ele>
<time>2023-05-16T10:04:02Z</time>
</trkpt>
<trkpt lat="48.9344419632107" lon="9.740932965651155">
<ele>461.79999999999995</ele>
<time>2023-05-16T10:04:03Z</time>
</trkpt>
<trkpt lat="48.934446992352605" lon="9.740869933739305">
<ele>461.79999999999995</ele>
<time>2023-05-16T10:04:04Z</time>
</trkpt>
<trkpt lat="48.934449926018715" lon="9.74081696011126">
<ele>462</ele>
<time>2023-05-16T10:04:05Z</time>
</trkpt>
<trkpt lat="48.93445495516062" lon="9.740754934027791">
<ele>462</ele>
<time>2023-05-16T10:04:06Z</time>
</trkpt>
<trkpt lat="48.93445998430252" lon="9.740692991763353">
<ele>462.20000000000005</ele>
<time>2023-05-16T10:04:07Z</time>
</trkpt>
<trkpt lat="48.93446291796863" lon="9.740634988993406">
<ele>462.4</ele>
<time>2023-05-16T10:04:08Z</time>
</trkpt>
<trkpt lat="48.934467947110534" lon="9.74058193154633">
<ele>462.6</ele>
<time>2023-05-16T10:04:09Z</time>
</trkpt>
<trkpt lat="48.934471970424056" lon="9.740524934604764">
<ele>462.79999999999995</ele>
<time>2023-05-16T10:04:10Z</time>
</trkpt>
<trkpt lat="48.9344749879092" lon="9.740464920178056">
<ele>462.79999999999995</ele>
<time>2023-05-16T10:04:11Z</time>
</trkpt>
<trkpt lat="48.93447792157531" lon="9.740401972085238">
<ele>463</ele>
<time>2023-05-16T10:04:12Z</time>
</trkpt>
<trkpt lat="48.93447993323207" lon="9.740337934345007">
<ele>463</ele>
<time>2023-05-16T10:04:13Z</time>
</trkpt>
<trkpt lat="48.93447993323207" lon="9.740274986252189">
<ele>463.20000000000005</ele>
<time>2023-05-16T10:04:14Z</time>
</trkpt>
<trkpt lat="48.93448496237397" lon="9.740211954340339">
<ele>463.20000000000005</ele>
<time>2023-05-16T10:04:15Z</time>
</trkpt>
<trkpt lat="48.934491919353604" lon="9.740144982933998">
<ele>463.20000000000005</ele>
<time>2023-05-16T10:04:16Z</time>
</trkpt>
<trkpt lat="48.93450197763741" lon="9.740074994042516">
<ele>463.4</ele>
<time>2023-05-16T10:04:17Z</time>
</trkpt>
<trkpt lat="48.93450994044542" lon="9.740004921332002">
<ele>463.6</ele>
<time>2023-05-16T10:04:18Z</time>
</trkpt>
<trkpt lat="48.93451698124409" lon="9.739932920783758">
<ele>463.6</ele>
<time>2023-05-16T10:04:19Z</time>
</trkpt>
<trkpt lat="48.93452192656696" lon="9.739866955205798">
<ele>463.79999999999995</ele>
<time>2023-05-16T10:04:20Z</time>
</trkpt>
<trkpt lat="48.9345249440521" lon="9.739799983799458">
<ele>464</ele>
<time>2023-05-16T10:04:21Z</time>
</trkpt>
<trkpt lat="48.93452796153724" lon="9.739732928574085">
<ele>464</ele>
<time>2023-05-16T10:04:22Z</time>
</trkpt>
<trkpt lat="48.934529973194" lon="9.739669980481267">
<ele>464.20000000000005</ele>
<time>2023-05-16T10:04:23Z</time>
</trkpt>
<trkpt lat="48.934529973194" lon="9.739604936912656">
<ele>464.4</ele>
<time>2023-05-16T10:04:24Z</time>
</trkpt>
<trkpt lat="48.934532990679145" lon="9.739537965506315">
<ele>464.6</ele>
<time>2023-05-16T10:04:25Z</time>
</trkpt>
<trkpt lat="48.934536930173635" lon="9.739474933594465">
<ele>464.79999999999995</ele>
<time>2023-05-16T10:04:26Z</time>
</trkpt>
<trkpt lat="48.93454195931554" lon="9.739411985501647">
<ele>464.79999999999995</ele>
<time>2023-05-16T10:04:27Z</time>
</trkpt>
<trkpt lat="48.93454992212355" lon="9.739346941933036">
<ele>465</ele>
<time>2023-05-16T10:04:28Z</time>
</trkpt>
<trkpt lat="48.934554951265454" lon="9.739286927506328">
<ele>465.20000000000005</ele>
<time>2023-05-16T10:04:29Z</time>
</trkpt>
<trkpt lat="48.93455998040736" lon="9.739219956099987">
<ele>465.4</ele>
<time>2023-05-16T10:04:30Z</time>
</trkpt>
<trkpt lat="48.93456199206412" lon="9.739154996350408">
<ele>465.6</ele>
<time>2023-05-16T10:04:31Z</time>
</trkpt>
<trkpt lat="48.93456492573023" lon="9.739089952781796">
<ele>465.79999999999995</ele>
<time>2023-05-16T10:04:32Z</time>
</trkpt>
<trkpt lat="48.93457196652889" lon="9.739026920869946">
<ele>466</ele>
<time>2023-05-16T10:04:33Z</time>
</trkpt>
<trkpt lat="48.934579929336905" lon="9.738959949463606">
<ele>466.20000000000005</ele>
<time>2023-05-16T10:04:34Z</time>
</trkpt>
<trkpt lat="48.93458797596395" lon="9.738894989714026">
<ele>466.4</ele>
<time>2023-05-16T10:04:35Z</time>
</trkpt>
<trkpt lat="48.934597950428724" lon="9.738827934488654">
<ele>466.6</ele>
<time>2023-05-16T10:04:36Z</time>
</trkpt>
<trkpt lat="48.9346079248935" lon="9.738761968910694">
<ele>466.79999999999995</ele>
<time>2023-05-16T10:04:37Z</time>
</trkpt>
<trkpt lat="48.934617983177304" lon="9.738697931170464">
<ele>467</ele>
<time>2023-05-16T10:04:38Z</time>
</trkpt>
<trkpt lat="48.9346269518137" lon="9.738631965592504">
<ele>467.20000000000005</ele>
<time>2023-05-16T10:04:39Z</time>
</trkpt>
<trkpt lat="48.93463692627847" lon="9.738564994186163">
<ele>467.4</ele>
<time>2023-05-16T10:04:40Z</time>
</trkpt>
<trkpt lat="48.93464991822839" lon="9.738499950617552">
<ele>467.4</ele>
<time>2023-05-16T10:04:41Z</time>
</trkpt>
<trkpt lat="48.934662993997335" lon="9.738432979211211">
<ele>467.6</ele>
<time>2023-05-16T10:04:42Z</time>
</trkpt>
<trkpt lat="48.93467498011887" lon="9.738364918157458">
<ele>467.79999999999995</ele>
<time>2023-05-16T10:04:43Z</time>
</trkpt>
<trkpt lat="48.934686966240406" lon="9.738287972286344">
<ele>467.79999999999995</ele>
<time>2023-05-16T10:04:44Z</time>
</trkpt>
<trkpt lat="48.93469794653356" lon="9.738219995051622">
<ele>468</ele>
<time>2023-05-16T10:04:45Z</time>
</trkpt>
<trkpt lat="48.934707920998335" lon="9.738157968968153">
<ele>468</ele>
<time>2023-05-16T10:04:46Z</time>
</trkpt>
<trkpt lat="48.93471697345376" lon="9.738097954541445">
<ele>468.20000000000005</ele>
<time>2023-05-16T10:04:47Z</time>
</trkpt>
<trkpt lat="48.93472493626177" lon="9.738034922629595">
<ele>468.4</ele>
<time>2023-05-16T10:04:48Z</time>
</trkpt>
<trkpt lat="48.93473499454558" lon="9.737982954829931">
<ele>468.4</ele>
<time>2023-05-16T10:04:49Z</time>
</trkpt>
<trkpt lat="48.934746980667114" lon="9.737924952059984">
<ele>468.6</ele>
<time>2023-05-16T10:04:50Z</time>
</trkpt>
<trkpt lat="48.93475494347513" lon="9.737862925976515">
<ele>468.79999999999995</ele>
<time>2023-05-16T10:04:51Z</time>
</trkpt>
<trkpt lat="48.93475997261703" lon="9.737806934863329">
<ele>469</ele>
<time>2023-05-16T10:04:52Z</time>
</trkpt>
<trkpt lat="48.93476793542504" lon="9.737752955406904">
<ele>469.20000000000005</ele>
<time>2023-05-16T10:04:53Z</time>
</trkpt>
<trkpt lat="48.93477698788047" lon="9.737697970122099">
<ele>469.4</ele>
<time>2023-05-16T10:04:54Z</time>
</trkpt>
<trkpt lat="48.93478495068848" lon="9.737639967352152">
<ele>469.4</ele>
<time>2023-05-16T10:04:55Z</time>
</trkpt>
<trkpt lat="48.934792997315526" lon="9.737572995945811">
<ele>469.6</ele>
<time>2023-05-16T10:04:56Z</time>
</trkpt>
<trkpt lat="48.93480196595192" lon="9.7375079523772">
<ele>469.79999999999995</ele>
<time>2023-05-16T10:04:57Z</time>
</trkpt>
<trkpt lat="48.93480791710317" lon="9.737447937950492">
<ele>470</ele>
<time>2023-05-16T10:04:58Z</time>
</trkpt>
<trkpt lat="48.93481797538698" lon="9.737389935180545">
<ele>470.20000000000005</ele>
<time>2023-05-16T10:04:59Z</time>
</trkpt>
<trkpt lat="48.93482794985175" lon="9.737329920753837">
<ele>470.4</ele>
<time>2023-05-16T10:05:00Z</time>
</trkpt>
<trkpt lat="48.934837924316525" lon="9.73726999014616">
<ele>470.6</ele>
<time>2023-05-16T10:05:01Z</time>
</trkpt>
<trkpt lat="48.93485192209482" lon="9.737209975719452">
<ele>470.79999999999995</ele>
<time>2023-05-16T10:05:02Z</time>
</trkpt>
<trkpt lat="48.93486298620701" lon="9.737149961292744">
<ele>470.79999999999995</ele>
<time>2023-05-16T10:05:03Z</time>
</trkpt>
<trkpt lat="48.93487296067178" lon="9.737082989886403">
<ele>471</ele>
<time>2023-05-16T10:05:04Z</time>
</trkpt>
<trkpt lat="48.934879917651415" lon="9.737017946317792">
<ele>471.20000000000005</ele>
<time>2023-05-16T10:05:05Z</time>
</trkpt>
<trkpt lat="48.93488494679332" lon="9.736954998224974">
<ele>471.4</ele>
<time>2023-05-16T10:05:06Z</time>
</trkpt>
<trkpt lat="48.93489198759198" lon="9.736891966313124">
<ele>471.6</ele>
<time>2023-05-16T10:05:07Z</time>
</trkpt>
<trkpt lat="48.93489693291485" lon="9.736827928572893">
<ele>471.6</ele>
<time>2023-05-16T10:05:08Z</time>
</trkpt>
<trkpt lat="48.9349049795419" lon="9.736767997965217">
<ele>471.79999999999995</ele>
<time>2023-05-16T10:05:09Z</time>
</trkpt>
<trkpt lat="48.93491294234991" lon="9.73670999519527">
<ele>472</ele>
<time>2023-05-16T10:05:10Z</time>
</trkpt>
<trkpt lat="48.934919983148575" lon="9.736649980768561">
<ele>472</ele>
<time>2023-05-16T10:05:11Z</time>
</trkpt>
<trkpt lat="48.934924928471446" lon="9.736589966341853">
<ele>472.20000000000005</ele>
<time>2023-05-16T10:05:12Z</time>
</trkpt>
<trkpt lat="48.93493196927011" lon="9.736531963571906">
<ele>472.4</ele>
<time>2023-05-16T10:05:13Z</time>
</trkpt>
<trkpt lat="48.93493993207812" lon="9.736472954973578">
<ele>472.4</ele>
<time>2023-05-16T10:05:14Z</time>
</trkpt>
<trkpt lat="48.93494999036193" lon="9.736414952203631">
<ele>472.6</ele>
<time>2023-05-16T10:05:15Z</time>
</trkpt>
<trkpt lat="48.9349599648267" lon="9.736354937776923">
<ele>472.79999999999995</ele>
<time>2023-05-16T10:05:16Z</time>
</trkpt>
<trkpt lat="48.93496993929148" lon="9.736289978027344">
<ele>473</ele>
<time>2023-05-16T10:05:17Z</time>
</trkpt>
<trkpt lat="48.93497999757528" lon="9.736224934458733">
<ele>473.20000000000005</ele>
<time>2023-05-16T10:05:18Z</time>
</trkpt>
<trkpt lat="48.934987960383296" lon="9.736164920032024">
<ele>473.20000000000005</ele>
<time>2023-05-16T10:05:19Z</time>
</trkpt>
<trkpt lat="48.93499692901969" lon="9.736102977767587">
<ele>473.4</ele>
<time>2023-05-16T10:05:20Z</time>
</trkpt>
<trkpt lat="48.93500296398997" lon="9.736041957512498">
<ele>473.6</ele>
<time>2023-05-16T10:05:21Z</time>
</trkpt>
<trkpt lat="48.935007993131876" lon="9.735979931429029">
<ele>473.6</ele>
<time>2023-05-16T10:05:22Z</time>
</trkpt>
<trkpt lat="48.93501495011151" lon="9.735914971679449">
<ele>473.79999999999995</ele>
<time>2023-05-16T10:05:23Z</time>
</trkpt>
<trkpt lat="48.93502199091017" lon="9.735851939767599">
<ele>474</ele>
<time>2023-05-16T10:05:24Z</time>
</trkpt>
<trkpt lat="48.935029953718185" lon="9.7357879858464">
<ele>474</ele>
<time>2023-05-16T10:05:25Z</time>
</trkpt>
<trkpt lat="48.93503992818296" lon="9.73572294227779">
<ele>474.20000000000005</ele>
<time>2023-05-16T10:05:26Z</time>
</trkpt>
<trkpt lat="48.935046968981624" lon="9.73565999418497">
<ele>474.4</ele>
<time>2023-05-16T10:05:27Z</time>
</trkpt>
<trkpt lat="48.93505493178964" lon="9.735592938959599">
<ele>474.6</ele>
<time>2023-05-16T10:05:28Z</time>
</trkpt>
<trkpt lat="48.9350619725883" lon="9.735527979210019">
<ele>474.6</ele>
<time>2023-05-16T10:05:29Z</time>
</trkpt>
<trkpt lat="48.93506792373955" lon="9.735462935641408">
<ele>474.79999999999995</ele>
<time>2023-05-16T10:05:30Z</time>
</trkpt>
<trkpt lat="48.93507496453822" lon="9.735396970063448">
<ele>474.79999999999995</ele>
<time>2023-05-16T10:05:31Z</time>
</trkpt>
<trkpt lat="48.93508292734623" lon="9.735327987000346">
<ele>475</ele>
<time>2023-05-16T10:05:32Z</time>
</trkpt>
<trkpt lat="48.935092985630035" lon="9.735261937603354">
<ele>475</ele>
<time>2023-05-16T10:05:33Z</time>
</trkpt>
<trkpt lat="48.93510195426643" lon="9.735194966197014">
<ele>475</ele>
<time>2023-05-16T10:05:34Z</time>
</trkpt>
<trkpt lat="48.9351119287312" lon="9.735124977305532">
<ele>475</ele>
<time>2023-05-16T10:05:35Z</time>
</trkpt>
<trkpt lat="48.93511796370149" lon="9.73505498841405">
<ele>475.20000000000005</ele>
<time>2023-05-16T10:05:36Z</time>
</trkpt>
<trkpt lat="48.93512693233788" lon="9.734986927360296">
<ele>475.20000000000005</ele>
<time>2023-05-16T10:05:37Z</time>
</trkpt>
<trkpt lat="48.93513196147978" lon="9.734914926812053">
<ele>475.20000000000005</ele>
<time>2023-05-16T10:05:38Z</time>
</trkpt>
<trkpt lat="48.935136990621686" lon="9.73484292626381">
<ele>475.4</ele>
<time>2023-05-16T10:05:39Z</time>
</trkpt>
<trkpt lat="48.93514193594456" lon="9.734769919887185">
<ele>475.4</ele>
<time>2023-05-16T10:05:40Z</time>
</trkpt>
<trkpt lat="48.93514797091484" lon="9.734694985672832">
<ele>475.4</ele>
<time>2023-05-16T10:05:41Z</time>
</trkpt>
<trkpt lat="48.935156939551234" lon="9.734621979296207">
<ele>475.6</ele>
<time>2023-05-16T10:05:42Z</time>
</trkpt>
<trkpt lat="48.93516699783504" lon="9.734551990404725">
<ele>475.6</ele>
<time>2023-05-16T10:05:43Z</time>
</trkpt>
<trkpt lat="48.93517194315791" lon="9.734482923522592">
<ele>475.79999999999995</ele>
<time>2023-05-16T10:05:44Z</time>
</trkpt>
<trkpt lat="48.93517496064305" lon="9.73441293463111">
<ele>476</ele>
<time>2023-05-16T10:05:45Z</time>
</trkpt>
<trkpt lat="48.935177978128195" lon="9.734342945739627">
<ele>476</ele>
<time>2023-05-16T10:05:46Z</time>
</trkpt>
<trkpt lat="48.935181917622685" lon="9.734271951019764">
<ele>476.20000000000005</ele>
<time>2023-05-16T10:05:47Z</time>
</trkpt>
<trkpt lat="48.93518493510783" lon="9.734202967956662">
<ele>476.20000000000005</ele>
<time>2023-05-16T10:05:48Z</time>
</trkpt>
<trkpt lat="48.93518493510783" lon="9.734137924388051">
<ele>476.4</ele>
<time>2023-05-16T10:05:49Z</time>
</trkpt>
<trkpt lat="48.93518996424973" lon="9.734072964638472">
<ele>476.4</ele>
<time>2023-05-16T10:05:50Z</time>
</trkpt>
<trkpt lat="48.93519499339163" lon="9.73400792106986">
<ele>476.6</ele>
<time>2023-05-16T10:05:51Z</time>
</trkpt>
<trkpt lat="48.935199938714504" lon="9.733946984633803">
<ele>476.79999999999995</ele>
<time>2023-05-16T10:05:52Z</time>
</trkpt>
<trkpt lat="48.93520496785641" lon="9.733882946893573">
<ele>476.79999999999995</ele>
<time>2023-05-16T10:05:53Z</time>
</trkpt>
<trkpt lat="48.93520798534155" lon="9.733819998800755">
<ele>477</ele>
<time>2023-05-16T10:05:54Z</time>
</trkpt>
<trkpt lat="48.93520999699831" lon="9.733751937747002">
<ele>477</ele>
<time>2023-05-16T10:05:55Z</time>
</trkpt>
<trkpt lat="48.93521293066442" lon="9.73368194885552">
<ele>477.20000000000005</ele>
<time>2023-05-16T10:05:56Z</time>
</trkpt>
<trkpt lat="48.93521795980632" lon="9.733614977449179">
<ele>477.20000000000005</ele>
<time>2023-05-16T10:05:57Z</time>
</trkpt>
<trkpt lat="48.935224916785955" lon="9.733546916395426">
<ele>477.4</ele>
<time>2023-05-16T10:05:58Z</time>
</trkpt>
<trkpt lat="48.935232963413" lon="9.733479944989085">
<ele>477.4</ele>
<time>2023-05-16T10:05:59Z</time>
</trkpt>
<trkpt lat="48.9352379925549" lon="9.733416996896267">
<ele>477.4</ele>
<time>2023-05-16T10:06:00Z</time>
</trkpt>
<trkpt lat="48.935242937877774" lon="9.733349941670895">
<ele>477.6</ele>
<time>2023-05-16T10:06:01Z</time>
</trkpt>
<trkpt lat="48.93524997867644" lon="9.733279952779412">
<ele>477.6</ele>
<time>2023-05-16T10:06:02Z</time>
</trkpt>
<trkpt lat="48.93525492399931" lon="9.733212981373072">
<ele>477.6</ele>
<time>2023-05-16T10:06:03Z</time>
</trkpt>
<trkpt lat="48.93525794148445" lon="9.73314793780446">
<ele>477.6</ele>
<time>2023-05-16T10:06:04Z</time>
</trkpt>
<trkpt lat="48.93525995314121" lon="9.733084989711642">
<ele>477.6</ele>
<time>2023-05-16T10:06:05Z</time>
</trkpt>
<trkpt lat="48.93525995314121" lon="9.733022963628173">
<ele>477.79999999999995</ele>
<time>2023-05-16T10:06:06Z</time>
</trkpt>
<trkpt lat="48.93525794148445" lon="9.732957920059562">
<ele>477.79999999999995</ele>
<time>2023-05-16T10:06:07Z</time>
</trkpt>
<trkpt lat="48.93525693565607" lon="9.73288994282484">
<ele>478</ele>
<time>2023-05-16T10:06:08Z</time>
</trkpt>
<trkpt lat="48.93525693565607" lon="9.73282196559012">
<ele>478</ele>
<time>2023-05-16T10:06:09Z</time>
</trkpt>
<trkpt lat="48.93525299616158" lon="9.732751976698637">
<ele>478.20000000000005</ele>
<time>2023-05-16T10:06:10Z</time>
</trkpt>
<trkpt lat="48.93524997867644" lon="9.732682993635535">
<ele>478.20000000000005</ele>
<time>2023-05-16T10:06:11Z</time>
</trkpt>
<trkpt lat="48.935244949534535" lon="9.732616944238544">
<ele>478.4</ele>
<time>2023-05-16T10:06:12Z</time>
</trkpt>
<trkpt lat="48.9352379925549" lon="9.732551984488964">
<ele>478.4</ele>
<time>2023-05-16T10:06:13Z</time>
</trkpt>
<trkpt lat="48.93523195758462" lon="9.732486940920353">
<ele>478.6</ele>
<time>2023-05-16T10:06:14Z</time>
</trkpt>
<trkpt lat="48.9352279342711" lon="9.732417957857251">
<ele>478.6</ele>
<time>2023-05-16T10:06:15Z</time>
</trkpt>
<trkpt lat="48.9352279342711" lon="9.73234998062253">
<ele>478.79999999999995</ele>
<time>2023-05-16T10:06:16Z</time>
</trkpt>
<trkpt lat="48.93522692844272" lon="9.732281919568777">
<ele>479</ele>
<time>2023-05-16T10:06:17Z</time>
</trkpt>
<trkpt lat="48.93522692844272" lon="9.732211930677295">
<ele>479</ele>
<time>2023-05-16T10:06:18Z</time>
</trkpt>
<trkpt lat="48.935224916785955" lon="9.732144959270954">
<ele>479.20000000000005</ele>
<time>2023-05-16T10:06:19Z</time>
</trkpt>
<trkpt lat="48.935222988948226" lon="9.732077987864614">
<ele>479.4</ele>
<time>2023-05-16T10:06:20Z</time>
</trkpt>
<trkpt lat="48.935222988948226" lon="9.73200992681086">
<ele>479.4</ele>
<time>2023-05-16T10:06:21Z</time>
</trkpt>
<trkpt lat="48.935222988948226" lon="9.73194194957614">
<ele>479.6</ele>
<time>2023-05-16T10:06:22Z</time>
</trkpt>
<trkpt lat="48.935224916785955" lon="9.731869949027896">
<ele>479.6</ele>
<time>2023-05-16T10:06:23Z</time>
</trkpt>
<trkpt lat="48.93522692844272" lon="9.731797948479652">
<ele>479.79999999999995</ele>
<time>2023-05-16T10:06:24Z</time>
</trkpt>
<trkpt lat="48.9352279342711" lon="9.73172795958817">
<ele>479.79999999999995</ele>
<time>2023-05-16T10:06:25Z</time>
</trkpt>
<trkpt lat="48.93522692844272" lon="9.731659982353449">
<ele>480</ele>
<time>2023-05-16T10:06:26Z</time>
</trkpt>
<trkpt lat="48.935222988948226" lon="9.731592927128077">
<ele>480</ele>
<time>2023-05-16T10:06:27Z</time>
</trkpt>
<trkpt lat="48.935219971463084" lon="9.731526961550117">
<ele>480.20000000000005</ele>
<time>2023-05-16T10:06:28Z</time>
</trkpt>
<trkpt lat="48.935219971463084" lon="9.731461917981505">
<ele>480.4</ele>
<time>2023-05-16T10:06:29Z</time>
</trkpt>
<trkpt lat="48.93521795980632" lon="9.731396958231926">
<ele>480.4</ele>
<time>2023-05-16T10:06:30Z</time>
</trkpt>
<trkpt lat="48.93521695397794" lon="9.731331998482347">
<ele>480.6</ele>
<time>2023-05-16T10:06:31Z</time>
</trkpt>
<trkpt lat="48.93521293066442" lon="9.731262931600213">
<ele>480.6</ele>
<time>2023-05-16T10:06:32Z</time>
</trkpt>
<trkpt lat="48.93521192483604" lon="9.731196966022253">
<ele>480.79999999999995</ele>
<time>2023-05-16T10:06:33Z</time>
</trkpt>
<trkpt lat="48.93520798534155" lon="9.731129994615912">
<ele>480.79999999999995</ele>
<time>2023-05-16T10:06:34Z</time>
</trkpt>
<trkpt lat="48.93520496785641" lon="9.731064951047301">
<ele>481</ele>
<time>2023-05-16T10:06:35Z</time>
</trkpt>
<trkpt lat="48.935201950371265" lon="9.73099697381258">
<ele>481</ele>
<time>2023-05-16T10:06:36Z</time>
</trkpt>
<trkpt lat="48.93519792705774" lon="9.730926984921098">
<ele>481</ele>
<time>2023-05-16T10:06:37Z</time>
</trkpt>
<trkpt lat="48.93519499339163" lon="9.730856996029615">
<ele>481.20000000000005</ele>
<time>2023-05-16T10:06:38Z</time>
</trkpt>
<trkpt lat="48.93519298173487" lon="9.730786923319101">
<ele>481.20000000000005</ele>
<time>2023-05-16T10:06:39Z</time>
</trkpt>
<trkpt lat="48.93518996424973" lon="9.730712994933128">
<ele>481.4</ele>
<time>2023-05-16T10:06:40Z</time>
</trkpt>
<trkpt lat="48.93518694676459" lon="9.730642922222614">
<ele>481.6</ele>
<time>2023-05-16T10:06:41Z</time>
</trkpt>
<trkpt lat="48.93518493510783" lon="9.730569999665022">
<ele>481.6</ele>
<time>2023-05-16T10:06:42Z</time>
</trkpt>
<trkpt lat="48.93518493510783" lon="9.730497999116778">
<ele>481.79999999999995</ele>
<time>2023-05-16T10:06:43Z</time>
</trkpt>
<trkpt lat="48.935181917622685" lon="9.730429938063025">
<ele>482</ele>
<time>2023-05-16T10:06:44Z</time>
</trkpt>
<trkpt lat="48.935177978128195" lon="9.730361960828304">
<ele>482</ele>
<time>2023-05-16T10:06:45Z</time>
</trkpt>
<trkpt lat="48.93517496064305" lon="9.730292977765203">
<ele>482.20000000000005</ele>
<time>2023-05-16T10:06:46Z</time>
</trkpt>
<trkpt lat="48.93516993150115" lon="9.73022692836821">
<ele>482.20000000000005</ele>
<time>2023-05-16T10:06:47Z</time>
</trkpt>
<trkpt lat="48.93516699783504" lon="9.730161968618631">
<ele>482.4</ele>
<time>2023-05-16T10:06:48Z</time>
</trkpt>
<trkpt lat="48.93516297452152" lon="9.73009692505002">
<ele>482.6</ele>
<time>2023-05-16T10:06:49Z</time>
</trkpt>
<trkpt lat="48.93516196869314" lon="9.73002995364368">
<ele>482.6</ele>
<time>2023-05-16T10:06:50Z</time>
</trkpt>
<trkpt lat="48.93516297452152" lon="9.729962982237339">
<ele>482.79999999999995</ele>
<time>2023-05-16T10:06:51Z</time>
</trkpt>
<trkpt lat="48.93516297452152" lon="9.729897938668728">
<ele>482.79999999999995</ele>
<time>2023-05-16T10:06:52Z</time>
</trkpt>
<trkpt lat="48.93516196869314" lon="9.729836918413639">
<ele>483</ele>
<time>2023-05-16T10:06:53Z</time>
</trkpt>
<trkpt lat="48.935157945379615" lon="9.72977296449244">
<ele>483.20000000000005</ele>
<time>2023-05-16T10:06:54Z</time>
</trkpt>
<trkpt lat="48.93515291623771" lon="9.729707920923829">
<ele>483.20000000000005</ele>
<time>2023-05-16T10:06:55Z</time>
</trkpt>
<trkpt lat="48.9351499825716" lon="9.72964497283101">
<ele>483.4</ele>
<time>2023-05-16T10:06:56Z</time>
</trkpt>
<trkpt lat="48.93514696508646" lon="9.72958194091916">
<ele>483.6</ele>
<time>2023-05-16T10:06:57Z</time>
</trkpt>
<trkpt lat="48.9351449534297" lon="9.729516981169581">
<ele>483.6</ele>
<time>2023-05-16T10:06:58Z</time>
</trkpt>
<trkpt lat="48.93514294177294" lon="9.72945193760097">
<ele>483.79999999999995</ele>
<time>2023-05-16T10:06:59Z</time>
</trkpt>
<trkpt lat="48.93514193594456" lon="9.729392929002643">
<ele>484</ele>
<time>2023-05-16T10:07:00Z</time>
</trkpt>
<trkpt lat="48.93513799645007" lon="9.729332998394966">
<ele>484</ele>
<time>2023-05-16T10:07:01Z</time>
</trkpt>
<trkpt lat="48.935136990621686" lon="9.729271978139877">
<ele>484.20000000000005</ele>
<time>2023-05-16T10:07:02Z</time>
</trkpt>
<trkpt lat="48.93513196147978" lon="9.729211963713169">
<ele>484.4</ele>
<time>2023-05-16T10:07:03Z</time>
</trkpt>
<trkpt lat="48.93512693233788" lon="9.7291499376297">
<ele>484.6</ele>
<time>2023-05-16T10:07:04Z</time>
</trkpt>
<trkpt lat="48.93512299284339" lon="9.729086989536881">
<ele>484.79999999999995</ele>
<time>2023-05-16T10:07:05Z</time>
</trkpt>
<trkpt lat="48.93511997535825" lon="9.729024963453412">
<ele>485</ele>
<time>2023-05-16T10:07:06Z</time>
</trkpt>
<trkpt lat="48.93511997535825" lon="9.728959919884801">
<ele>485.20000000000005</ele>
<time>2023-05-16T10:07:07Z</time>
</trkpt>
<trkpt lat="48.93511997535825" lon="9.728896971791983">
<ele>485.20000000000005</ele>
<time>2023-05-16T10:07:08Z</time>
</trkpt>
<trkpt lat="48.93511997535825" lon="9.728836957365274">
<ele>485.4</ele>
<time>2023-05-16T10:07:09Z</time>
</trkpt>
<trkpt lat="48.93511997535825" lon="9.728774931281805">
<ele>485.4</ele>
<time>2023-05-16T10:07:10Z</time>
</trkpt>
<trkpt lat="48.93511997535825" lon="9.728712989017367">
<ele>485.6</ele>
<time>2023-05-16T10:07:11Z</time>
</trkpt>
<trkpt lat="48.93511997535825" lon="9.728649957105517">
<ele>485.6</ele>
<time>2023-05-16T10:07:12Z</time>
</trkpt>
<trkpt lat="48.93511796370149" lon="9.728584997355938">
<ele>485.79999999999995</ele>
<time>2023-05-16T10:07:13Z</time>
</trkpt>
<trkpt lat="48.935116957873106" lon="9.728519953787327">
<ele>485.79999999999995</ele>
<time>2023-05-16T10:07:14Z</time>
</trkpt>
<trkpt lat="48.935116957873106" lon="9.728454994037747">
<ele>485.79999999999995</ele>
<time>2023-05-16T10:07:15Z</time>
</trkpt>
<trkpt lat="48.935114946216345" lon="9.728389950469136">
<ele>486</ele>
<time>2023-05-16T10:07:16Z</time>
</trkpt>
<trkpt lat="48.935114946216345" lon="9.728326918557286">
<ele>486</ele>
<time>2023-05-16T10:07:17Z</time>
</trkpt>
<trkpt lat="48.935114946216345" lon="9.728264976292849">
<ele>486.20000000000005</ele>
<time>2023-05-16T10:07:18Z</time>
</trkpt>
<trkpt lat="48.935114946216345" lon="9.728201944380999">
<ele>486.20000000000005</ele>
<time>2023-05-16T10:07:19Z</time>
</trkpt>
<trkpt lat="48.935114946216345" lon="9.72813991829753">
<ele>486.4</ele>
<time>2023-05-16T10:07:20Z</time>
</trkpt>
<trkpt lat="48.935112934559584" lon="9.728076970204711">
<ele>486.4</ele>
<time>2023-05-16T10:07:21Z</time>
</trkpt>
<trkpt lat="48.935112934559584" lon="9.72801293246448">
<ele>486.6</ele>
<time>2023-05-16T10:07:22Z</time>
</trkpt>
<trkpt lat="48.935112934559584" lon="9.727947972714901">
<ele>486.6</ele>
<time>2023-05-16T10:07:23Z</time>
</trkpt>
<trkpt lat="48.935112934559584" lon="9.727884940803051">
<ele>486.6</ele>
<time>2023-05-16T10:07:24Z</time>
</trkpt>
<trkpt lat="48.935114946216345" lon="9.727821992710233">
<ele>486.79999999999995</ele>
<time>2023-05-16T10:07:25Z</time>
</trkpt>
<trkpt lat="48.935114946216345" lon="9.727757954970002">
<ele>486.79999999999995</ele>
<time>2023-05-16T10:07:26Z</time>
</trkpt>
<trkpt lat="48.935116957873106" lon="9.727692995220423">
<ele>486.79999999999995</ele>
<time>2023-05-16T10:07:27Z</time>
</trkpt>
<trkpt lat="48.935114946216345" lon="9.727629963308573">
<ele>487</ele>
<time>2023-05-16T10:07:28Z</time>
</trkpt>
<trkpt lat="48.935114946216345" lon="9.727564919739962">
<ele>487</ele>
<time>2023-05-16T10:07:29Z</time>
</trkpt>
<trkpt lat="48.935116957873106" lon="9.727497948333621">
<ele>487.20000000000005</ele>
<time>2023-05-16T10:07:30Z</time>
</trkpt>
<trkpt lat="48.93511796370149" lon="9.727431982755661">
<ele>487.20000000000005</ele>
<time>2023-05-16T10:07:31Z</time>
</trkpt>
<trkpt lat="48.93511796370149" lon="9.72736693918705">
<ele>487.4</ele>
<time>2023-05-16T10:07:32Z</time>
</trkpt>
<trkpt lat="48.93511796370149" lon="9.72730197943747">
<ele>487.6</ele>
<time>2023-05-16T10:07:33Z</time>
</trkpt>
<trkpt lat="48.93511997535825" lon="9.72723693586886">
<ele>487.6</ele>
<time>2023-05-16T10:07:34Z</time>
</trkpt>
<trkpt lat="48.93512198701501" lon="9.727174993604422">
<ele>487.79999999999995</ele>
<time>2023-05-16T10:07:35Z</time>
</trkpt>
<trkpt lat="48.93512299284339" lon="9.727112967520952">
<ele>487.79999999999995</ele>
<time>2023-05-16T10:07:36Z</time>
</trkpt>
<trkpt lat="48.93512492068112" lon="9.727051947265863">
<ele>488</ele>
<time>2023-05-16T10:07:37Z</time>
</trkpt>
<trkpt lat="48.93512492068112" lon="9.726991932839155">
<ele>488</ele>
<time>2023-05-16T10:07:38Z</time>
</trkpt>
<trkpt lat="48.93512693233788" lon="9.726929990574718">
<ele>488.20000000000005</ele>
<time>2023-05-16T10:07:39Z</time>
</trkpt>
<trkpt lat="48.93512693233788" lon="9.72686997614801">
<ele>488.4</ele>
<time>2023-05-16T10:07:40Z</time>
</trkpt>
<trkpt lat="48.93512994982302" lon="9.726809961721301">
<ele>488.4</ele>
<time>2023-05-16T10:07:41Z</time>
</trkpt>
<trkpt lat="48.93513196147978" lon="9.726747935637832">
<ele>488.6</ele>
<time>2023-05-16T10:07:42Z</time>
</trkpt>
<trkpt lat="48.935134978964925" lon="9.726687921211123">
<ele>488.6</ele>
<time>2023-05-16T10:07:43Z</time>
</trkpt>
<trkpt lat="48.935136990621686" lon="9.726626984775066">
<ele>488.6</ele>
<time>2023-05-16T10:07:44Z</time>
</trkpt>
<trkpt lat="48.935134978964925" lon="9.726564958691597">
<ele>488.79999999999995</ele>
<time>2023-05-16T10:07:45Z</time>
</trkpt>
<trkpt lat="48.935134978964925" lon="9.726504944264889">
<ele>488.79999999999995</ele>
<time>2023-05-16T10:07:46Z</time>
</trkpt>
<trkpt lat="48.935132967308164" lon="9.72644492983818">
<ele>488.79999999999995</ele>
<time>2023-05-16T10:07:47Z</time>
</trkpt>
<trkpt lat="48.93513196147978" lon="9.726384999230504">
<ele>489</ele>
<time>2023-05-16T10:07:48Z</time>
</trkpt>
<trkpt lat="48.93512793816626" lon="9.726322973147035">
<ele>489</ele>
<time>2023-05-16T10:07:49Z</time>
</trkpt>
<trkpt lat="48.93512492068112" lon="9.726261952891946">
<ele>489.20000000000005</ele>
<time>2023-05-16T10:07:50Z</time>
</trkpt>
<trkpt lat="48.93512299284339" lon="9.726197998970747">
<ele>489.20000000000005</ele>
<time>2023-05-16T10:07:51Z</time>
</trkpt>
<trkpt lat="48.93511997535825" lon="9.726134967058897">
<ele>489.20000000000005</ele>
<time>2023-05-16T10:07:52Z</time>
</trkpt>
<trkpt lat="48.93511796370149" lon="9.726072940975428">
<ele>489.20000000000005</ele>
<time>2023-05-16T10:07:53Z</time>
</trkpt>
<trkpt lat="48.935112934559584" lon="9.726011920720339">
<ele>489.20000000000005</ele>
<time>2023-05-16T10:07:54Z</time>
</trkpt>
<trkpt lat="48.93510798923671" lon="9.72594796679914">
<ele>489.20000000000005</ele>
<time>2023-05-16T10:07:55Z</time>
</trkpt>
<trkpt lat="48.93510296009481" lon="9.72588493488729">
<ele>489.20000000000005</ele>
<time>2023-05-16T10:07:56Z</time>
</trkpt>
<trkpt lat="48.93509793095291" lon="9.725821986794472">
<ele>489.20000000000005</ele>
<time>2023-05-16T10:07:57Z</time>
</trkpt>
<trkpt lat="48.935091979801655" lon="9.725759960711002">
<ele>489.4</ele>
<time>2023-05-16T10:07:58Z</time>
</trkpt>
<trkpt lat="48.93508493900299" lon="9.725697934627533">
<ele>489.4</ele>
<time>2023-05-16T10:07:59Z</time>
</trkpt>
<trkpt lat="48.93507798202336" lon="9.725639931857586">
<ele>489.4</ele>
<time>2023-05-16T10:08:00Z</time>
</trkpt>
<trkpt lat="48.935069935396314" lon="9.72558293491602">
<ele>489.4</ele>
<time>2023-05-16T10:08:01Z</time>
</trkpt>
<trkpt lat="48.9350619725883" lon="9.725519986823201">
<ele>489.4</ele>
<time>2023-05-16T10:08:02Z</time>
</trkpt>
<trkpt lat="48.93505199812353" lon="9.725456954911351">
<ele>489.20000000000005</ele>
<time>2023-05-16T10:08:03Z</time>
</trkpt>
<trkpt lat="48.93503992818296" lon="9.725391995161772">
<ele>489.20000000000005</ele>
<time>2023-05-16T10:08:04Z</time>
</trkpt>
<trkpt lat="48.935026936233044" lon="9.725321922451258">
<ele>489.20000000000005</ele>
<time>2023-05-16T10:08:05Z</time>
</trkpt>
<trkpt lat="48.93501495011151" lon="9.725252939388156">
<ele>489.20000000000005</ele>
<time>2023-05-16T10:08:06Z</time>
</trkpt>
<trkpt lat="48.93500195816159" lon="9.725184962153435">
<ele>489</ele>
<time>2023-05-16T10:08:07Z</time>
</trkpt>
<trkpt lat="48.934986954554915" lon="9.725114973261952">
<ele>489</ele>
<time>2023-05-16T10:08:08Z</time>
</trkpt>
<trkpt lat="48.93497295677662" lon="9.72504498437047">
<ele>489</ele>
<time>2023-05-16T10:08:09Z</time>
</trkpt>
<trkpt lat="48.93495795316994" lon="9.724974995478988">
<ele>488.79999999999995</ele>
<time>2023-05-16T10:08:10Z</time>
</trkpt>
<trkpt lat="48.934944961220026" lon="9.724904922768474">
<ele>488.6</ele>
<time>2023-05-16T10:08:11Z</time>
</trkpt>
<trkpt lat="48.93492995761335" lon="9.724837951362133">
<ele>488.6</ele>
<time>2023-05-16T10:08:12Z</time>
</trkpt>
<trkpt lat="48.93491495400667" lon="9.72476796247065">
<ele>488.4</ele>
<time>2023-05-16T10:08:13Z</time>
</trkpt>
<trkpt lat="48.934899950399995" lon="9.724692944437265">
<ele>488.20000000000005</ele>
<time>2023-05-16T10:08:14Z</time>
</trkpt>
<trkpt lat="48.934881929308176" lon="9.7246169205755">
<ele>488</ele>
<time>2023-05-16T10:08:15Z</time>
</trkpt>
<trkpt lat="48.93486298620701" lon="9.724536957219243">
<ele>487.79999999999995</ele>
<time>2023-05-16T10:08:16Z</time>
</trkpt>
<trkpt lat="48.93484798260033" lon="9.724452970549464">
<ele>487.6</ele>
<time>2023-05-16T10:08:17Z</time>
</trkpt>
<trkpt lat="48.934831973165274" lon="9.724364960566163">
<ele>487.4</ele>
<time>2023-05-16T10:08:18Z</time>
</trkpt>
<trkpt lat="48.934812946245074" lon="9.724276950582862">
<ele>487.20000000000005</ele>
<time>2023-05-16T10:08:19Z</time>
</trkpt>
<trkpt lat="48.934794925153255" lon="9.724182989448309">
<ele>486.79999999999995</ele>
<time>2023-05-16T10:08:20Z</time>
</trkpt>
<trkpt lat="48.934772964566946" lon="9.724089950323105">
<ele>486.6</ele>
<time>2023-05-16T10:08:21Z</time>
</trkpt>
<trkpt lat="48.934751925989985" lon="9.723994983360171">
<ele>486.20000000000005</ele>
<time>2023-05-16T10:08:22Z</time>
</trkpt>
<trkpt lat="48.934729965403676" lon="9.723897920921445">
<ele>485.79999999999995</ele>
<time>2023-05-16T10:08:23Z</time>
</trkpt>
<trkpt lat="48.934709932655096" lon="9.723802953958511">
<ele>485.4</ele>
<time>2023-05-16T10:08:24Z</time>
</trkpt>
<trkpt lat="48.93468797206879" lon="9.723709998652339">
<ele>485.20000000000005</ele>
<time>2023-05-16T10:08:25Z</time>
</trkpt>
<trkpt lat="48.93466995097697" lon="9.723614947870374">
<ele>484.79999999999995</ele>
<time>2023-05-16T10:08:26Z</time>
</trkpt>
<trkpt lat="48.93465192988515" lon="9.723516963422298">
<ele>484.6</ele>
<time>2023-05-16T10:08:27Z</time>
</trkpt>
<trkpt lat="48.93463298678398" lon="9.723419984802604">
<ele>484.4</ele>
<time>2023-05-16T10:08:28Z</time>
</trkpt>
<trkpt lat="48.934621922671795" lon="9.723331974819303">
<ele>484</ele>
<time>2023-05-16T10:08:29Z</time>
</trkpt>
<trkpt lat="48.93460297957063" lon="9.723247988149524">
<ele>483.79999999999995</ele>
<time>2023-05-16T10:08:30Z</time>
</trkpt>
<trkpt lat="48.934579929336905" lon="9.723171964287758">
<ele>483.4</ele>
<time>2023-05-16T10:08:31Z</time>
</trkpt>
<trkpt lat="48.934554951265454" lon="9.723097952082753">
<ele>483.20000000000005</ele>
<time>2023-05-16T10:08:32Z</time>
</trkpt>
<trkpt lat="48.93452695570886" lon="9.72302796319127">
<ele>482.79999999999995</ele>
<time>2023-05-16T10:08:33Z</time>
</trkpt>
<trkpt lat="48.93449694849551" lon="9.72296493127942">
<ele>482.20000000000005</ele>
<time>2023-05-16T10:08:34Z</time>
</trkpt>
<trkpt lat="48.93446492962539" lon="9.722909945994616">
<ele>481.79999999999995</ele>
<time>2023-05-16T10:08:35Z</time>
</trkpt>
<trkpt lat="48.93443492241204" lon="9.722856972366571">
<ele>481.4</ele>
<time>2023-05-16T10:08:36Z</time>
</trkpt>
<trkpt lat="48.934404999017715" lon="9.722806932404637">
<ele>481</ele>
<time>2023-05-16T10:08:37Z</time>
</trkpt>
<trkpt lat="48.93437792547047" lon="9.722759993746877">
<ele>480.4</ele>
<time>2023-05-16T10:08:38Z</time>
</trkpt>
<trkpt lat="48.93435697071254" lon="9.722714982926846">
<ele>480</ele>
<time>2023-05-16T10:08:39Z</time>
</trkpt>
<trkpt lat="48.934342972934246" lon="9.722674917429686">
<ele>479.6</ele>
<time>2023-05-16T10:08:40Z</time>
</trkpt>
<trkpt lat="48.93434699624777" lon="9.722632924094796">
<ele>479.20000000000005</ele>
<time>2023-05-16T10:08:41Z</time>
</trkpt>
<trkpt lat="48.93436694517732" lon="9.72259797155857">
<ele>478.79999999999995</ele>
<time>2023-05-16T10:08:42Z</time>
</trkpt>
<trkpt lat="48.934384966269135" lon="9.72257492132485">
<ele>478.6</ele>
<time>2023-05-16T10:08:43Z</time>
</trkpt>
<trkpt lat="48.93439996987581" lon="9.722557989880443">
<ele>478.4</ele>
<time>2023-05-16T10:08:44Z</time>
</trkpt>
<trkpt lat="48.93441296182573" lon="9.722551954910159">
<ele>478.20000000000005</ele>
<time>2023-05-16T10:08:45Z</time>
</trkpt>
<trkpt lat="48.93441991880536" lon="9.72253192216158">
<ele>478.20000000000005</ele>
<time>2023-05-16T10:08:46Z</time>
</trkpt>
<trkpt lat="48.9344369340688" lon="9.722504932433367">
<ele>478</ele>
<time>2023-05-16T10:08:47Z</time>
</trkpt>
<trkpt lat="48.9344419632107" lon="9.722466962412">
<ele>478</ele>
<time>2023-05-16T10:08:48Z</time>
</trkpt>
<trkpt lat="48.9344369340688" lon="9.722434943541884">
<ele>478</ele>
<time>2023-05-16T10:08:49Z</time>
</trkpt>
<trkpt lat="48.93441296182573" lon="9.72240292467177">
<ele>478.20000000000005</ele>
<time>2023-05-16T10:08:50Z</time>
</trkpt>
<trkpt lat="48.934381948783994" lon="9.72236193716526">
<ele>478.20000000000005</ele>
<time>2023-05-16T10:08:51Z</time>
</trkpt>
<trkpt lat="48.93434498459101" lon="9.722321955487132">
<ele>478.4</ele>
<time>2023-05-16T10:08:52Z</time>
</trkpt>
<trkpt lat="48.93430693075061" lon="9.722279962152243">
<ele>478.4</ele>
<time>2023-05-16T10:08:53Z</time>
</trkpt>
<trkpt lat="48.93426795490086" lon="9.722234951332211">
<ele>478.6</ele>
<time>2023-05-16T10:08:54Z</time>
</trkpt>
<trkpt lat="48.934229984879494" lon="9.72218994051218">
<ele>478.6</ele>
<time>2023-05-16T10:08:55Z</time>
</trkpt>
<trkpt lat="48.934189919382334" lon="9.72214199602604">
<ele>478.79999999999995</ele>
<time>2023-05-16T10:08:56Z</time>
</trkpt>
<trkpt lat="48.934149937704206" lon="9.722089944407344">
<ele>478.79999999999995</ele>
<time>2023-05-16T10:08:57Z</time>
</trkpt>
<trkpt lat="48.93410995602608" lon="9.722034959122539">
<ele>479</ele>
<time>2023-05-16T10:08:58Z</time>
</trkpt>
<trkpt lat="48.93407198600471" lon="9.721981985494494">
<ele>479</ele>
<time>2023-05-16T10:08:59Z</time>
</trkpt>
<trkpt lat="48.93403292633593" lon="9.721921971067786">
<ele>479.20000000000005</ele>
<time>2023-05-16T10:09:00Z</time>
</trkpt>
<trkpt lat="48.933996967971325" lon="9.721862962469459">
<ele>479.4</ele>
<time>2023-05-16T10:09:01Z</time>
</trkpt>
<trkpt lat="48.93396193161607" lon="9.721804959699512">
<ele>479.4</ele>
<time>2023-05-16T10:09:02Z</time>
</trkpt>
<trkpt lat="48.93392798490822" lon="9.721746956929564">
<ele>479.4</ele>
<time>2023-05-16T10:09:03Z</time>
</trkpt>
<trkpt lat="48.93389697186649" lon="9.72169197164476">
<ele>479.6</ele>
<time>2023-05-16T10:09:04Z</time>
</trkpt>
<trkpt lat="48.933866964653134" lon="9.721634974703193">
<ele>479.6</ele>
<time>2023-05-16T10:09:05Z</time>
</trkpt>
<trkpt lat="48.93383494578302" lon="9.721577977761626">
<ele>479.6</ele>
<time>2023-05-16T10:09:06Z</time>
</trkpt>
<trkpt lat="48.933806950226426" lon="9.721522992476821">
<ele>479.79999999999995</ele>
<time>2023-05-16T10:09:07Z</time>
</trkpt>
<trkpt lat="48.933779960498214" lon="9.721464989706874">
<ele>479.79999999999995</ele>
<time>2023-05-16T10:09:08Z</time>
</trkpt>
<trkpt lat="48.93375297077" lon="9.721404975280166">
<ele>479.79999999999995</ele>
<time>2023-05-16T10:09:09Z</time>
</trkpt>
<trkpt lat="48.93372698687017" lon="9.72134998999536">
<ele>479.79999999999995</ele>
<time>2023-05-16T10:09:10Z</time>
</trkpt>
<trkpt lat="48.93370192497969" lon="9.721292993053794">
<ele>480</ele>
<time>2023-05-16T10:09:11Z</time>
</trkpt>
<trkpt lat="48.933676946908236" lon="9.721232978627086">
<ele>480</ele>
<time>2023-05-16T10:09:12Z</time>
</trkpt>
<trkpt lat="48.933652974665165" lon="9.721172964200377">
<ele>480</ele>
<time>2023-05-16T10:09:13Z</time>
</trkpt>
<trkpt lat="48.933631936088204" lon="9.72111294977367">
<ele>480</ele>
<time>2023-05-16T10:09:14Z</time>
</trkpt>
<trkpt lat="48.933609975501895" lon="9.721052935346961">
<ele>480</ele>
<time>2023-05-16T10:09:15Z</time>
</trkpt>
<trkpt lat="48.933587931096554" lon="9.720994932577014">
<ele>480</ele>
<time>2023-05-16T10:09:16Z</time>
</trkpt>
<trkpt lat="48.933566976338625" lon="9.720934918150306">
<ele>480</ele>
<time>2023-05-16T10:09:17Z</time>
</trkpt>
<trkpt lat="48.933544931933284" lon="9.720872975885868">
<ele>480</ele>
<time>2023-05-16T10:09:18Z</time>
</trkpt>
<trkpt lat="48.933521965518594" lon="9.720814973115921">
<ele>480</ele>
<time>2023-05-16T10:09:19Z</time>
</trkpt>
<trkpt lat="48.93349799327552" lon="9.720752947032452">
<ele>480</ele>
<time>2023-05-16T10:09:20Z</time>
</trkpt>
<trkpt lat="48.93347695469856" lon="9.720689998939633">
<ele>480</ele>
<time>2023-05-16T10:09:21Z</time>
</trkpt>
<trkpt lat="48.93345692194998" lon="9.720627972856164">
<ele>480</ele>
<time>2023-05-16T10:09:22Z</time>
</trkpt>
<trkpt lat="48.93343496136367" lon="9.720564940944314">
<ele>480</ele>
<time>2023-05-16T10:09:23Z</time>
</trkpt>
<trkpt lat="48.93341492861509" lon="9.720501992851496">
<ele>480.20000000000005</ele>
<time>2023-05-16T10:09:24Z</time>
</trkpt>
<trkpt lat="48.933394979685545" lon="9.720437955111265">
<ele>480.20000000000005</ele>
<time>2023-05-16T10:09:25Z</time>
</trkpt>
<trkpt lat="48.933374946936965" lon="9.720371989533305">
<ele>480.20000000000005</ele>
<time>2023-05-16T10:09:26Z</time>
</trkpt>
<trkpt lat="48.93335499800742" lon="9.720306945964694">
<ele>480.20000000000005</ele>
<time>2023-05-16T10:09:27Z</time>
</trkpt>
<trkpt lat="48.93333496525884" lon="9.720239974558353">
<ele>480.4</ele>
<time>2023-05-16T10:09:28Z</time>
</trkpt>
<trkpt lat="48.93331493251026" lon="9.720171997323632">
<ele>480.4</ele>
<time>2023-05-16T10:09:29Z</time>
</trkpt>
<trkpt lat="48.93329498358071" lon="9.720101924613118">
<ele>480.4</ele>
<time>2023-05-16T10:09:30Z</time>
</trkpt>
<trkpt lat="48.93327495083213" lon="9.720031935721636">
<ele>480.4</ele>
<time>2023-05-16T10:09:31Z</time>
</trkpt>
<trkpt lat="48.93325692974031" lon="9.719961946830153">
<ele>480.6</ele>
<time>2023-05-16T10:09:32Z</time>
</trkpt>
<trkpt lat="48.93324192613363" lon="9.719887934625149">
<ele>480.6</ele>
<time>2023-05-16T10:09:33Z</time>
</trkpt>
<trkpt lat="48.933224994689226" lon="9.719816939905286">
<ele>480.79999999999995</ele>
<time>2023-05-16T10:09:34Z</time>
</trkpt>
<trkpt lat="48.93320797942579" lon="9.719744939357042">
<ele>480.79999999999995</ele>
<time>2023-05-16T10:09:35Z</time>
</trkpt>
<trkpt lat="48.93319196999073" lon="9.719672938808799">
<ele>480.79999999999995</ele>
<time>2023-05-16T10:09:36Z</time>
</trkpt>
<trkpt lat="48.93317495472729" lon="9.719599932432175">
<ele>481</ele>
<time>2023-05-16T10:09:37Z</time>
</trkpt>
<trkpt lat="48.93315693363547" lon="9.719524998217821">
<ele>481</ele>
<time>2023-05-16T10:09:38Z</time>
</trkpt>
<trkpt lat="48.93314293585718" lon="9.719447968527675">
<ele>481.20000000000005</ele>
<time>2023-05-16T10:09:39Z</time>
</trkpt>
<trkpt lat="48.93312994390726" lon="9.719371944665909">
<ele>481.20000000000005</ele>
<time>2023-05-16T10:09:40Z</time>
</trkpt>
<trkpt lat="48.933116951957345" lon="9.719294998794794">
<ele>481.4</ele>
<time>2023-05-16T10:09:41Z</time>
</trkpt>
<trkpt lat="48.93310295417905" lon="9.719219980761409">
<ele>481.6</ele>
<time>2023-05-16T10:09:42Z</time>
</trkpt>
<trkpt lat="48.93308795057237" lon="9.719146974384785">
<ele>481.6</ele>
<time>2023-05-16T10:09:43Z</time>
</trkpt>
<trkpt lat="48.933074958622456" lon="9.7190719563514">
<ele>481.79999999999995</ele>
<time>2023-05-16T10:09:44Z</time>
</trkpt>
<trkpt lat="48.93306297250092" lon="9.718996938318014">
<ele>481.79999999999995</ele>
<time>2023-05-16T10:09:45Z</time>
</trkpt>
<trkpt lat="48.933051992207766" lon="9.71892493776977">
<ele>482</ele>
<time>2023-05-16T10:09:46Z</time>
</trkpt>
<trkpt lat="48.93304193392396" lon="9.718851931393147">
<ele>482</ele>
<time>2023-05-16T10:09:47Z</time>
</trkpt>
<trkpt lat="48.933029947802424" lon="9.718777919188142">
<ele>482.20000000000005</ele>
<time>2023-05-16T10:09:48Z</time>
</trkpt>
<trkpt lat="48.93301796168089" lon="9.71870793029666">
<ele>482.20000000000005</ele>
<time>2023-05-16T10:09:49Z</time>
</trkpt>
<trkpt lat="48.933007987216115" lon="9.718637941405177">
<ele>482.4</ele>
<time>2023-05-16T10:09:50Z</time>
</trkpt>
<trkpt lat="48.93299792893231" lon="9.718567952513695">
<ele>482.4</ele>
<time>2023-05-16T10:09:51Z</time>
</trkpt>
<trkpt lat="48.932989966124296" lon="9.718497963622212">
<ele>482.6</ele>
<time>2023-05-16T10:09:52Z</time>
</trkpt>
<trkpt lat="48.93297999165952" lon="9.71842797473073">
<ele>482.79999999999995</ele>
<time>2023-05-16T10:09:53Z</time>
</trkpt>
<trkpt lat="48.93297194503248" lon="9.718359997496009">
<ele>483</ele>
<time>2023-05-16T10:09:54Z</time>
</trkpt>
<trkpt lat="48.932964988052845" lon="9.718287996947765">
<ele>483.20000000000005</ele>
<time>2023-05-16T10:09:55Z</time>
</trkpt>
<trkpt lat="48.93295492976904" lon="9.718217924237251">
<ele>483.20000000000005</ele>
<time>2023-05-16T10:09:56Z</time>
</trkpt>
<trkpt lat="48.932944955304265" lon="9.718144917860627">
<ele>483.4</ele>
<time>2023-05-16T10:09:57Z</time>
</trkpt>
<trkpt lat="48.93293498083949" lon="9.718072917312384">
<ele>483.6</ele>
<time>2023-05-16T10:09:58Z</time>
</trkpt>
<trkpt lat="48.932922994717956" lon="9.718004940077662">
<ele>483.6</ele>
<time>2023-05-16T10:09:59Z</time>
</trkpt>
<trkpt lat="48.93291193060577" lon="9.717937968671322">
<ele>483.79999999999995</ele>
<time>2023-05-16T10:10:00Z</time>
</trkpt>
<trkpt lat="48.932901956140995" lon="9.71787191927433">
<ele>484</ele>
<time>2023-05-16T10:10:01Z</time>
</trkpt>
<trkpt lat="48.93289198167622" lon="9.717801930382848">
<ele>484.20000000000005</ele>
<time>2023-05-16T10:10:02Z</time>
</trkpt>
<trkpt lat="48.932882929220796" lon="9.717732947319746">
<ele>484.4</ele>
<time>2023-05-16T10:10:03Z</time>
</trkpt>
<trkpt lat="48.93287496641278" lon="9.717664970085025">
<ele>484.6</ele>
<time>2023-05-16T10:10:04Z</time>
</trkpt>
<trkpt lat="48.93286691978574" lon="9.717596992850304">
<ele>484.79999999999995</ele>
<time>2023-05-16T10:10:05Z</time>
</trkpt>
<trkpt lat="48.932859962806106" lon="9.71752692013979">
<ele>485</ele>
<time>2023-05-16T10:10:06Z</time>
</trkpt>
<trkpt lat="48.93285292200744" lon="9.717459948733449">
<ele>485.20000000000005</ele>
<time>2023-05-16T10:10:07Z</time>
</trkpt>
<trkpt lat="48.93284495919943" lon="9.71739498898387">
<ele>485.4</ele>
<time>2023-05-16T10:10:08Z</time>
</trkpt>
<trkpt lat="48.932836996391416" lon="9.71733195707202">
<ele>485.6</ele>
<time>2023-05-16T10:10:09Z</time>
</trkpt>
<trkpt lat="48.93282794393599" lon="9.717267919331789">
<ele>485.79999999999995</ele>
<time>2023-05-16T10:10:10Z</time>
</trkpt>
<trkpt lat="48.932817969471216" lon="9.717206982895732">
<ele>486</ele>
<time>2023-05-16T10:10:11Z</time>
</trkpt>
<trkpt lat="48.93280992284417" lon="9.717144956812263">
<ele>486.20000000000005</ele>
<time>2023-05-16T10:10:12Z</time>
</trkpt>
<trkpt lat="48.93280196003616" lon="9.717082930728793">
<ele>486.4</ele>
<time>2023-05-16T10:10:13Z</time>
</trkpt>
<trkpt lat="48.932792991399765" lon="9.717022916302085">
<ele>486.6</ele>
<time>2023-05-16T10:10:14Z</time>
</trkpt>
<trkpt lat="48.93278695642948" lon="9.716961979866028">
<ele>486.79999999999995</ele>
<time>2023-05-16T10:10:15Z</time>
</trkpt>
<trkpt lat="48.93277798779309" lon="9.716899953782558">
<ele>487.20000000000005</ele>
<time>2023-05-16T10:10:16Z</time>
</trkpt>
<trkpt lat="48.932771952822804" lon="9.716837927699089">
<ele>487.4</ele>
<time>2023-05-16T10:10:17Z</time>
</trkpt>
<trkpt lat="48.93276499584317" lon="9.716781936585903">
<ele>487.6</ele>
<time>2023-05-16T10:10:18Z</time>
</trkpt>
<trkpt lat="48.93275694921613" lon="9.71672996878624">
<ele>487.79999999999995</ele>
<time>2023-05-16T10:10:19Z</time>
</trkpt>
<trkpt lat="48.932749992236495" lon="9.716681940481067">
<ele>487.79999999999995</ele>
<time>2023-05-16T10:10:20Z</time>
</trkpt>
<trkpt lat="48.93274194560945" lon="9.716632990166545">
<ele>488</ele>
<time>2023-05-16T10:10:21Z</time>
</trkpt>
<trkpt lat="48.932729959487915" lon="9.71658295020461">
<ele>488.20000000000005</ele>
<time>2023-05-16T10:10:22Z</time>
</trkpt>
<trkpt lat="48.93271797336638" lon="9.716534921899438">
<ele>488.20000000000005</ele>
<time>2023-05-16T10:10:23Z</time>
</trkpt>
<trkpt lat="48.932704981416464" lon="9.716491922736168">
<ele>488.4</ele>
<time>2023-05-16T10:10:24Z</time>
</trkpt>
<trkpt lat="48.93269492313266" lon="9.716441966593266">
<ele>488.6</ele>
<time>2023-05-16T10:10:25Z</time>
</trkpt>
<trkpt lat="48.932686960324645" lon="9.716389998793602">
<ele>488.6</ele>
<time>2023-05-16T10:10:26Z</time>
</trkpt>
<trkpt lat="48.93267698585987" lon="9.716332918033004">
<ele>488.79999999999995</ele>
<time>2023-05-16T10:10:27Z</time>
</trkpt>
<trkpt lat="48.932666927576065" lon="9.716271981596947">
<ele>489</ele>
<time>2023-05-16T10:10:28Z</time>
</trkpt>
<trkpt lat="48.93265795893967" lon="9.716206938028336">
<ele>489.20000000000005</ele>
<time>2023-05-16T10:10:29Z</time>
</trkpt>
<trkpt lat="48.93265192396939" lon="9.716144995763898">
<ele>489.4</ele>
<time>2023-05-16T10:10:30Z</time>
</trkpt>
<trkpt lat="48.932644966989756" lon="9.716081963852048">
<ele>489.6</ele>
<time>2023-05-16T10:10:31Z</time>
</trkpt>
<trkpt lat="48.93263692036271" lon="9.716016920283437">
<ele>489.6</ele>
<time>2023-05-16T10:10:32Z</time>
</trkpt>
<trkpt lat="48.93262996338308" lon="9.715954978018999">
<ele>489.79999999999995</ele>
<time>2023-05-16T10:10:33Z</time>
</trkpt>
<trkpt lat="48.932621916756034" lon="9.715889934450388">
<ele>489.79999999999995</ele>
<time>2023-05-16T10:10:34Z</time>
</trkpt>
<trkpt lat="48.93261294811964" lon="9.71582992002368">
<ele>490</ele>
<time>2023-05-16T10:10:35Z</time>
</trkpt>
<trkpt lat="48.93260699696839" lon="9.715771917253733">
<ele>490.20000000000005</ele>
<time>2023-05-16T10:10:36Z</time>
</trkpt>
<trkpt lat="48.93259794451296" lon="9.715709974989295">
<ele>490.20000000000005</ele>
<time>2023-05-16T10:10:37Z</time>
</trkpt>
<trkpt lat="48.93259199336171" lon="9.715649960562587">
<ele>490.4</ele>
<time>2023-05-16T10:10:38Z</time>
</trkpt>
<trkpt lat="48.93258495256305" lon="9.715587934479117">
<ele>490.4</ele>
<time>2023-05-16T10:10:39Z</time>
</trkpt>
<trkpt lat="48.932579923421144" lon="9.715522974729538">
<ele>490.6</ele>
<time>2023-05-16T10:10:40Z</time>
</trkpt>
<trkpt lat="48.93257196061313" lon="9.71546296030283">
<ele>490.6</ele>
<time>2023-05-16T10:10:41Z</time>
</trkpt>
<trkpt lat="48.93256198614836" lon="9.715401940047741">
<ele>490.79999999999995</ele>
<time>2023-05-16T10:10:42Z</time>
</trkpt>
<trkpt lat="48.93255192786455" lon="9.715342931449413">
<ele>490.79999999999995</ele>
<time>2023-05-16T10:10:43Z</time>
</trkpt>
<trkpt lat="48.932539941743016" lon="9.71528995782137">
<ele>490.79999999999995</ele>
<time>2023-05-16T10:10:44Z</time>
</trkpt>
<trkpt lat="48.932532984763384" lon="9.715229943394661">
<ele>491</ele>
<time>2023-05-16T10:10:45Z</time>
</trkpt>
<trkpt lat="48.93252493813634" lon="9.715167917311192">
<ele>491</ele>
<time>2023-05-16T10:10:46Z</time>
</trkpt>
<trkpt lat="48.932514963671565" lon="9.715092983096838">
<ele>491.20000000000005</ele>
<time>2023-05-16T10:10:47Z</time>
</trkpt>
<trkpt lat="48.93250691704452" lon="9.715014947578311">
<ele>491.20000000000005</ele>
<time>2023-05-16T10:10:48Z</time>
</trkpt>
<trkpt lat="48.932496942579746" lon="9.71494797617197">
<ele>491.20000000000005</ele>
<time>2023-05-16T10:10:49Z</time>
</trkpt>
<trkpt lat="48.93248696811497" lon="9.714876981452107">
<ele>491.20000000000005</ele>
<time>2023-05-16T10:10:50Z</time>
</trkpt>
<trkpt lat="48.9324769936502" lon="9.714804980903864">
<ele>491.20000000000005</ele>
<time>2023-05-16T10:10:51Z</time>
</trkpt>
<trkpt lat="48.93246693536639" lon="9.714737925678492">
<ele>491.4</ele>
<time>2023-05-16T10:10:52Z</time>
</trkpt>
<trkpt lat="48.93245997838676" lon="9.71466994844377">
<ele>491.4</ele>
<time>2023-05-16T10:10:53Z</time>
</trkpt>
<trkpt lat="48.932449920102954" lon="9.714597947895527">
<ele>491.4</ele>
<time>2023-05-16T10:10:54Z</time>
</trkpt>
<trkpt lat="48.93244296312332" lon="9.71453994512558">
<ele>491.4</ele>
<time>2023-05-16T10:10:55Z</time>
</trkpt>
<trkpt lat="48.93244296312332" lon="9.714474985376">
<ele>491.6</ele>
<time>2023-05-16T10:10:56Z</time>
</trkpt>
<trkpt lat="48.93243793398142" lon="9.714414970949292">
<ele>491.6</ele>
<time>2023-05-16T10:10:57Z</time>
</trkpt>
<trkpt lat="48.932427959516644" lon="9.714352944865823">
<ele>491.6</ele>
<time>2023-05-16T10:10:58Z</time>
</trkpt>
<trkpt lat="48.93241999670863" lon="9.714277926832438">
<ele>491.6</ele>
<time>2023-05-16T10:10:59Z</time>
</trkpt>
<trkpt lat="48.93241496756673" lon="9.714199975132942">
<ele>491.6</ele>
<time>2023-05-16T10:11:00Z</time>
</trkpt>
<trkpt lat="48.93241496756673" lon="9.714097967371345">
<ele>491.6</ele>
<time>2023-05-16T10:11:01Z</time>
</trkpt>
<trkpt lat="48.93241999670863" lon="9.714006939902902">
<ele>491.6</ele>
<time>2023-05-16T10:11:02Z</time>
</trkpt>
<trkpt lat="48.932426953688264" lon="9.713924964889884">
<ele>491.6</ele>
<time>2023-05-16T10:11:03Z</time>
</trkpt>
<trkpt lat="48.932427959516644" lon="9.713839972391725">
<ele>491.79999999999995</ele>
<time>2023-05-16T10:11:04Z</time>
</trkpt>
<trkpt lat="48.93243298865855" lon="9.713769983500242">
<ele>491.79999999999995</ele>
<time>2023-05-16T10:11:05Z</time>
</trkpt>
<trkpt lat="48.93243994563818" lon="9.713692953810096">
<ele>491.79999999999995</ele>
<time>2023-05-16T10:11:06Z</time>
</trkpt>
<trkpt lat="48.93244497478008" lon="9.713629921898246">
<ele>491.79999999999995</ele>
<time>2023-05-16T10:11:07Z</time>
</trkpt>
<trkpt lat="48.932452937588096" lon="9.713562950491905">
<ele>491.79999999999995</ele>
<time>2023-05-16T10:11:08Z</time>
</trkpt>
<trkpt lat="48.93247498199344" lon="9.713456919416785">
<ele>491.79999999999995</ele>
<time>2023-05-16T10:11:09Z</time>
</trkpt>
<trkpt lat="48.932489985600114" lon="9.713371926918626">
<ele>491.79999999999995</ele>
<time>2023-05-16T10:11:10Z</time>
</trkpt>
<trkpt lat="48.93250498920679" lon="9.713289951905608">
<ele>491.79999999999995</ele>
<time>2023-05-16T10:11:11Z</time>
</trkpt>
<trkpt lat="48.9325269497931" lon="9.71320697106421">
<ele>491.79999999999995</ele>
<time>2023-05-16T10:11:12Z</time>
</trkpt>
<trkpt lat="48.93254195339978" lon="9.713127929717302">
<ele>492</ele>
<time>2023-05-16T10:11:13Z</time>
</trkpt>
<trkpt lat="48.932559974491596" lon="9.713059952482581">
<ele>492</ele>
<time>2023-05-16T10:11:14Z</time>
</trkpt>
<trkpt lat="48.93257497809827" lon="9.713002955541015">
<ele>492</ele>
<time>2023-05-16T10:11:15Z</time>
</trkpt>
<trkpt lat="48.93259299919009" lon="9.712926931679249">
<ele>492</ele>
<time>2023-05-16T10:11:16Z</time>
</trkpt>
<trkpt lat="48.932601967826486" lon="9.712857948616147">
<ele>492</ele>
<time>2023-05-16T10:11:17Z</time>
</trkpt>
<trkpt lat="48.93260791897774" lon="9.7127999458462">
<ele>492.20000000000005</ele>
<time>2023-05-16T10:11:18Z</time>
</trkpt>
<trkpt lat="48.9326149597764" lon="9.712749989703298">
<ele>492.20000000000005</ele>
<time>2023-05-16T10:11:19Z</time>
</trkpt>
<trkpt lat="48.932621916756034" lon="9.712702967226505">
<ele>492.20000000000005</ele>
<time>2023-05-16T10:11:20Z</time>
</trkpt>
<trkpt lat="48.93262996338308" lon="9.712642952799797">
<ele>492.20000000000005</ele>
<time>2023-05-16T10:11:21Z</time>
</trkpt>
<trkpt lat="48.93263792619109" lon="9.71258495002985">
<ele>492.4</ele>
<time>2023-05-16T10:11:22Z</time>
</trkpt>
<trkpt lat="48.93264697864652" lon="9.712524935603142">
<ele>492.4</ele>
<time>2023-05-16T10:11:23Z</time>
</trkpt>
<trkpt lat="48.93265292979777" lon="9.712464921176434">
<ele>492.4</ele>
<time>2023-05-16T10:11:24Z</time>
</trkpt>
<trkpt lat="48.93265795893967" lon="9.712364925071597">
<ele>492.4</ele>
<time>2023-05-16T10:11:25Z</time>
</trkpt>
<trkpt lat="48.93265997059643" lon="9.712291918694973">
<ele>492.4</ele>
<time>2023-05-16T10:11:26Z</time>
</trkpt>
<trkpt lat="48.93265292979777" lon="9.712232993915677">
<ele>492.4</ele>
<time>2023-05-16T10:11:27Z</time>
</trkpt>
<trkpt lat="48.932644966989756" lon="9.71215495839715">
<ele>492.4</ele>
<time>2023-05-16T10:11:28Z</time>
</trkpt>
<trkpt lat="48.93262795172632" lon="9.71208999864757">
<ele>492.4</ele>
<time>2023-05-16T10:11:29Z</time>
</trkpt>
<trkpt lat="48.93261294811964" lon="9.71200492233038">
<ele>492.6</ele>
<time>2023-05-16T10:11:30Z</time>
</trkpt>
<trkpt lat="48.93259199336171" lon="9.711914984509349">
<ele>492.6</ele>
<time>2023-05-16T10:11:31Z</time>
</trkpt>
<trkpt lat="48.93256994895637" lon="9.71183493733406">
<ele>492.6</ele>
<time>2023-05-16T10:11:32Z</time>
</trkpt>
<trkpt lat="48.93254195339978" lon="9.711772995069623">
<ele>492.6</ele>
<time>2023-05-16T10:11:33Z</time>
</trkpt>
<trkpt lat="48.93251194618642" lon="9.711719937622547">
<ele>492.6</ele>
<time>2023-05-16T10:11:34Z</time>
</trkpt>
<trkpt lat="48.93247992731631" lon="9.711672998964787">
<ele>492.6</ele>
<time>2023-05-16T10:11:35Z</time>
</trkpt>
<trkpt lat="48.932446986436844" lon="9.71161792986095">
<ele>492.6</ele>
<time>2023-05-16T10:11:36Z</time>
</trkpt>
<trkpt lat="48.93241195008159" lon="9.711572919040918">
<ele>492.6</ele>
<time>2023-05-16T10:11:37Z</time>
</trkpt>
<trkpt lat="48.93237699754536" lon="9.711519945412874">
<ele>492.6</ele>
<time>2023-05-16T10:11:38Z</time>
</trkpt>
<trkpt lat="48.93233994953334" lon="9.711474934592843">
<ele>492.79999999999995</ele>
<time>2023-05-16T10:11:39Z</time>
</trkpt>
<trkpt lat="48.93230298534036" lon="9.711426990106702">
<ele>492.79999999999995</ele>
<time>2023-05-16T10:11:40Z</time>
</trkpt>
<trkpt lat="48.93226996064186" lon="9.71137996762991">
<ele>492.79999999999995</ele>
<time>2023-05-16T10:11:41Z</time>
</trkpt>
<trkpt lat="48.932232996448874" lon="9.711329927667975">
<ele>492.79999999999995</ele>
<time>2023-05-16T10:11:42Z</time>
</trkpt>
<trkpt lat="48.93219796009362" lon="9.711284916847944">
<ele>492.79999999999995</ele>
<time>2023-05-16T10:11:43Z</time>
</trkpt>
<trkpt lat="48.93215999007225" lon="9.711234960705042">
<ele>492.79999999999995</ele>
<time>2023-05-16T10:11:44Z</time>
</trkpt>
<trkpt lat="48.93211992457509" lon="9.711182992905378">
<ele>492.79999999999995</ele>
<time>2023-05-16T10:11:45Z</time>
</trkpt>
<trkpt lat="48.9320779312402" lon="9.71112297847867">
<ele>492.79999999999995</ele>
<time>2023-05-16T10:11:46Z</time>
</trkpt>
<trkpt lat="48.932046918198466" lon="9.711069921031594">
<ele>492.79999999999995</ele>
<time>2023-05-16T10:11:47Z</time>
</trkpt>
<trkpt lat="48.932016994804144" lon="9.71101795323193">
<ele>492.79999999999995</ele>
<time>2023-05-16T10:11:48Z</time>
</trkpt>
<trkpt lat="48.93198195844889" lon="9.710966991260648">
<ele>492.79999999999995</ele>
<time>2023-05-16T10:11:49Z</time>
</trkpt>
<trkpt lat="48.93194792792201" lon="9.71090798266232">
<ele>492.79999999999995</ele>
<time>2023-05-16T10:11:50Z</time>
</trkpt>
<trkpt lat="48.93192194402218" lon="9.710846962407231">
<ele>492.79999999999995</ele>
<time>2023-05-16T10:11:51Z</time>
</trkpt>
<trkpt lat="48.93189696595073" lon="9.710789965465665">
<ele>492.79999999999995</ele>
<time>2023-05-16T10:11:52Z</time>
</trkpt>
<trkpt lat="48.931869976222515" lon="9.71073992550373">
<ele>493</ele>
<time>2023-05-16T10:11:53Z</time>
</trkpt>
<trkpt lat="48.9318379573524" lon="9.710686951875687">
<ele>493</ele>
<time>2023-05-16T10:11:54Z</time>
</trkpt>
<trkpt lat="48.931807950139046" lon="9.710632972419262">
<ele>493</ele>
<time>2023-05-16T10:11:55Z</time>
</trkpt>
<trkpt lat="48.93177492544055" lon="9.710572957992554">
<ele>493</ele>
<time>2023-05-16T10:11:56Z</time>
</trkpt>
<trkpt lat="48.93174793571234" lon="9.71051998436451">
<ele>493</ele>
<time>2023-05-16T10:11:57Z</time>
</trkpt>
<trkpt lat="48.93173192627728" lon="9.710459969937801">
<ele>493</ele>
<time>2023-05-16T10:11:58Z</time>
</trkpt>
<trkpt lat="48.93171298317611" lon="9.710397943854332">
<ele>493</ele>
<time>2023-05-16T10:11:59Z</time>
</trkpt>
<trkpt lat="48.93169295042753" lon="9.710336923599243">
<ele>493</ele>
<time>2023-05-16T10:12:00Z</time>
</trkpt>
<trkpt lat="48.931677946820855" lon="9.71026198938489">
<ele>493</ele>
<time>2023-05-16T10:12:01Z</time>
</trkpt>
<trkpt lat="48.9316669665277" lon="9.710196945816278">
<ele>493</ele>
<time>2023-05-16T10:12:02Z</time>
</trkpt>
<trkpt lat="48.9316479396075" lon="9.710107930004597">
<ele>493</ele>
<time>2023-05-16T10:12:03Z</time>
</trkpt>
<trkpt lat="48.9316479396075" lon="9.710036935284734">
<ele>493.20000000000005</ele>
<time>2023-05-16T10:12:04Z</time>
</trkpt>
<trkpt lat="48.931634947657585" lon="9.70996493473649">
<ele>493.20000000000005</ele>
<time>2023-05-16T10:12:05Z</time>
</trkpt>
<trkpt lat="48.931632936000824" lon="9.70989796333015">
<ele>493.20000000000005</ele>
<time>2023-05-16T10:12:06Z</time>
</trkpt>
<trkpt lat="48.93164198845625" lon="9.709839960560203">
<ele>493.20000000000005</ele>
<time>2023-05-16T10:12:07Z</time>
</trkpt>
<trkpt lat="48.93166797235608" lon="9.709801990538836">
<ele>493.20000000000005</ele>
<time>2023-05-16T10:12:08Z</time>
</trkpt>
<trkpt lat="48.93169496208429" lon="9.709767960011959">
<ele>493.20000000000005</ele>
<time>2023-05-16T10:12:09Z</time>
</trkpt>
<trkpt lat="48.931721951812506" lon="9.709734935313463">
<ele>493.20000000000005</ele>
<time>2023-05-16T10:12:10Z</time>
</trkpt>
<trkpt lat="48.931744918227196" lon="9.709702916443348">
<ele>493.20000000000005</ele>
<time>2023-05-16T10:12:11Z</time>
</trkpt>
<trkpt lat="48.93176796846092" lon="9.709661928936839">
<ele>493.20000000000005</ele>
<time>2023-05-16T10:12:12Z</time>
</trkpt>
<trkpt lat="48.93177199177444" lon="9.709611972793937">
<ele>493.20000000000005</ele>
<time>2023-05-16T10:12:13Z</time>
</trkpt>
<trkpt lat="48.931782972067595" lon="9.70955497585237">
<ele>493.20000000000005</ele>
<time>2023-05-16T10:12:14Z</time>
</trkpt>
<trkpt lat="48.93179495818913" lon="9.709496973082423">
<ele>493.20000000000005</ele>
<time>2023-05-16T10:12:15Z</time>
</trkpt>
<trkpt lat="48.93179998733103" lon="9.709434946998954">
<ele>493</ele>
<time>2023-05-16T10:12:16Z</time>
</trkpt>
<trkpt lat="48.93180292099714" lon="9.709379961714149">
<ele>492.79999999999995</ele>
<time>2023-05-16T10:12:17Z</time>
</trkpt>
<trkpt lat="48.931807950139046" lon="9.709326988086104">
<ele>492.79999999999995</ele>
<time>2023-05-16T10:12:18Z</time>
</trkpt>
<trkpt lat="48.93181499093771" lon="9.709256999194622">
<ele>492.6</ele>
<time>2023-05-16T10:12:19Z</time>
</trkpt>
<trkpt lat="48.93182194791734" lon="9.709179969504476">
<ele>492.4</ele>
<time>2023-05-16T10:12:20Z</time>
</trkpt>
<trkpt lat="48.931826977059245" lon="9.709099922329187">
<ele>492.20000000000005</ele>
<time>2023-05-16T10:12:21Z</time>
</trkpt>
<trkpt lat="48.93183695152402" lon="9.708997998386621">
<ele>491.79999999999995</ele>
<time>2023-05-16T10:12:22Z</time>
</trkpt>
<trkpt lat="48.931847931817174" lon="9.70888794399798">
<ele>491.6</ele>
<time>2023-05-16T10:12:23Z</time>
</trkpt>
<trkpt lat="48.93186192959547" lon="9.708774955943227">
<ele>491.20000000000005</ele>
<time>2023-05-16T10:12:24Z</time>
</trkpt>
<trkpt lat="48.93187793903053" lon="9.708661967888474">
<ele>490.79999999999995</ele>
<time>2023-05-16T10:12:25Z</time>
</trkpt>
<trkpt lat="48.93189696595073" lon="9.7085449565202">
<ele>490.4</ele>
<time>2023-05-16T10:12:26Z</time>
</trkpt>
<trkpt lat="48.931917920708656" lon="9.708427945151925">
<ele>489.79999999999995</ele>
<time>2023-05-16T10:12:27Z</time>
</trkpt>
<trkpt lat="48.931934935972095" lon="9.708319986239076">
<ele>489.4</ele>
<time>2023-05-16T10:12:28Z</time>
</trkpt>
<trkpt lat="48.93194993957877" lon="9.708204986527562">
<ele>488.79999999999995</ele>
<time>2023-05-16T10:12:29Z</time>
</trkpt>
<trkpt lat="48.93196695484221" lon="9.70809493213892">
<ele>488.4</ele>
<time>2023-05-16T10:12:30Z</time>
</trkpt>
<trkpt lat="48.93198296427727" lon="9.707981944084167">
<ele>487.79999999999995</ele>
<time>2023-05-16T10:12:31Z</time>
</trkpt>
<trkpt lat="48.93200492486358" lon="9.707854958251119">
<ele>487.20000000000005</ele>
<time>2023-05-16T10:12:32Z</time>
</trkpt>
<trkpt lat="48.932022945955396" lon="9.707722943276167">
<ele>486.79999999999995</ele>
<time>2023-05-16T10:12:33Z</time>
</trkpt>
<trkpt lat="48.93204792402685" lon="9.707586988806725">
<ele>486.20000000000005</ele>
<time>2023-05-16T10:12:34Z</time>
</trkpt>
<trkpt lat="48.93207499757409" lon="9.707446927204728">
<ele>485.4</ele>
<time>2023-05-16T10:12:35Z</time>
</trkpt>
<trkpt lat="48.93209997564554" lon="9.707306949421763">
<ele>484.79999999999995</ele>
<time>2023-05-16T10:12:36Z</time>
</trkpt>
<trkpt lat="48.932126965373755" lon="9.70717292279005">
<ele>484</ele>
<time>2023-05-16T10:12:37Z</time>
</trkpt>
<trkpt lat="48.932149931788445" lon="9.707027999684215">
<ele>483.4</ele>
<time>2023-05-16T10:12:38Z</time>
</trkpt>
<trkpt lat="48.93217499367893" lon="9.706884920597076">
<ele>482.6</ele>
<time>2023-05-16T10:12:39Z</time>
</trkpt>
<trkpt lat="48.93219695426524" lon="9.706734968349338">
<ele>481.79999999999995</ele>
<time>2023-05-16T10:12:40Z</time>
</trkpt>
<trkpt lat="48.93221992067993" lon="9.706584932282567">
<ele>481</ele>
<time>2023-05-16T10:12:41Z</time>
</trkpt>
<trkpt lat="48.93224498257041" lon="9.706427939236164">
<ele>480.20000000000005</ele>
<time>2023-05-16T10:12:42Z</time>
</trkpt>
<trkpt lat="48.932274989783764" lon="9.706271952018142">
<ele>479.4</ele>
<time>2023-05-16T10:12:43Z</time>
</trkpt>
<trkpt lat="48.93230793066323" lon="9.706106996163726">
<ele>478.6</ele>
<time>2023-05-16T10:12:44Z</time>
</trkpt>
<trkpt lat="48.93233793787658" lon="9.705939944833517">
<ele>477.6</ele>
<time>2023-05-16T10:12:45Z</time>
</trkpt>
<trkpt lat="48.93237699754536" lon="9.705782951787114">
<ele>476.79999999999995</ele>
<time>2023-05-16T10:12:46Z</time>
</trkpt>
<trkpt lat="48.93241798505187" lon="9.705621935427189">
<ele>475.79999999999995</ele>
<time>2023-05-16T10:12:47Z</time>
</trkpt>
<trkpt lat="48.93245696090162" lon="9.705459997057915">
<ele>475</ele>
<time>2023-05-16T10:12:48Z</time>
</trkpt>
<trkpt lat="48.932496942579746" lon="9.705296969041228">
<ele>474.20000000000005</ele>
<time>2023-05-16T10:12:49Z</time>
</trkpt>
<trkpt lat="48.932537930086255" lon="9.705132935196161">
<ele>473.4</ele>
<time>2023-05-16T10:12:50Z</time>
</trkpt>
<trkpt lat="48.932576989755034" lon="9.704971918836236">
<ele>472.6</ele>
<time>2023-05-16T10:12:51Z</time>
</trkpt>
<trkpt lat="48.93261194229126" lon="9.704811992123723">
<ele>471.6</ele>
<time>2023-05-16T10:12:52Z</time>
</trkpt>
<trkpt lat="48.9326479844749" lon="9.704649969935417">
<ele>470.79999999999995</ele>
<time>2023-05-16T10:12:53Z</time>
</trkpt>
<trkpt lat="48.932686960324645" lon="9.70448493026197">
<ele>469.79999999999995</ele>
<time>2023-05-16T10:12:54Z</time>
</trkpt>
<trkpt lat="48.93272493034601" lon="9.704322991892695">
<ele>469</ele>
<time>2023-05-16T10:12:55Z</time>
</trkpt>
<trkpt lat="48.93276197835803" lon="9.70416298136115">
<ele>468</ele>
<time>2023-05-16T10:12:56Z</time>
</trkpt>
<trkpt lat="48.9327999483794" lon="9.704007999971509">
<ele>467.20000000000005</ele>
<time>2023-05-16T10:12:57Z</time>
</trkpt>
<trkpt lat="48.93282995559275" lon="9.703852934762836">
<ele>466.20000000000005</ele>
<time>2023-05-16T10:12:58Z</time>
</trkpt>
<trkpt lat="48.93286298029125" lon="9.703696947544813">
<ele>465.4</ele>
<time>2023-05-16T10:12:59Z</time>
</trkpt>
<trkpt lat="48.932902961969376" lon="9.70353995449841">
<ele>464.6</ele>
<time>2023-05-16T10:13:00Z</time>
</trkpt>
<trkpt lat="48.93294797278941" lon="9.703381955623627">
<ele>463.6</ele>
<time>2023-05-16T10:13:01Z</time>
</trkpt>
<trkpt lat="48.932989966124296" lon="9.70321498811245">
<ele>462.79999999999995</ele>
<time>2023-05-16T10:13:02Z</time>
</trkpt>
<trkpt lat="48.93302491866052" lon="9.70304693095386">
<ele>462</ele>
<time>2023-05-16T10:13:03Z</time>
</trkpt>
<trkpt lat="48.93306196667254" lon="9.702884992584586">
<ele>461.4</ele>
<time>2023-05-16T10:13:04Z</time>
</trkpt>
<trkpt lat="48.933092979714274" lon="9.702724982053041">
<ele>460.79999999999995</ele>
<time>2023-05-16T10:13:05Z</time>
</trkpt>
<trkpt lat="48.9331329613924" lon="9.702597996219993">
<ele>460.4</ele>
<time>2023-05-16T10:13:06Z</time>
</trkpt>
<trkpt lat="48.933179983869195" lon="9.702481990680099">
<ele>460</ele>
<time>2023-05-16T10:13:07Z</time>
</trkpt>
<trkpt lat="48.933234969154" lon="9.702381994575262">
<ele>459.6</ele>
<time>2023-05-16T10:13:08Z</time>
</trkpt>
<trkpt lat="48.93329699523747" lon="9.702289961278439">
<ele>459.4</ele>
<time>2023-05-16T10:13:09Z</time>
</trkpt>
<trkpt lat="48.93336195498705" lon="9.702216954901814">
<ele>459.20000000000005</ele>
<time>2023-05-16T10:13:10Z</time>
</trkpt>
<trkpt lat="48.93342699855566" lon="9.702164987102151">
<ele>459</ele>
<time>2023-05-16T10:13:11Z</time>
</trkpt>
<trkpt lat="48.93348692916334" lon="9.702146966010332">
<ele>459</ele>
<time>2023-05-16T10:13:12Z</time>
</trkpt>
<trkpt lat="48.93353495746851" lon="9.702151995152235">
<ele>459</ele>
<time>2023-05-16T10:13:13Z</time>
</trkpt>
<trkpt lat="48.93358298577368" lon="9.702144954353571">
<ele>459</ele>
<time>2023-05-16T10:13:14Z</time>
</trkpt>
<trkpt lat="48.933632941916585" lon="9.702132968232036">
<ele>459</ele>
<time>2023-05-16T10:13:15Z</time>
</trkpt>
<trkpt lat="48.933674935251474" lon="9.702111929655075">
<ele>459</ele>
<time>2023-05-16T10:13:16Z</time>
</trkpt>
<trkpt lat="48.933717934414744" lon="9.702096926048398">
<ele>459</ele>
<time>2023-05-16T10:13:17Z</time>
</trkpt>
<trkpt lat="48.93375498242676" lon="9.70207798294723">
<ele>459</ele>
<time>2023-05-16T10:13:18Z</time>
</trkpt>
<trkpt lat="48.93379697576165" lon="9.70205694437027">
<ele>459</ele>
<time>2023-05-16T10:13:19Z</time>
</trkpt>
<trkpt lat="48.93383997492492" lon="9.7020329721272">
<ele>459</ele>
<time>2023-05-16T10:13:20Z</time>
</trkpt>
<trkpt lat="48.93390292301774" lon="9.702017968520522">
<ele>459.20000000000005</ele>
<time>2023-05-16T10:13:21Z</time>
</trkpt>
<trkpt lat="48.93396494910121" lon="9.701999947428703">
<ele>459.20000000000005</ele>
<time>2023-05-16T10:13:22Z</time>
</trkpt>
<trkpt lat="48.93402295187116" lon="9.701987961307168">
<ele>459.20000000000005</ele>
<time>2023-05-16T10:13:23Z</time>
</trkpt>
<trkpt lat="48.934082966297865" lon="9.701972957700491">
<ele>459.20000000000005</ele>
<time>2023-05-16T10:13:24Z</time>
</trkpt>
<trkpt lat="48.93413493409753" lon="9.70194797962904">
<ele>459.4</ele>
<time>2023-05-16T10:13:25Z</time>
</trkpt>
<trkpt lat="48.9341779332608" lon="9.701917972415686">
<ele>459.4</ele>
<time>2023-05-16T10:13:26Z</time>
</trkpt>
<trkpt lat="48.93422294408083" lon="9.701882936060429">
<ele>459.6</ele>
<time>2023-05-16T10:13:27Z</time>
</trkpt>
<trkpt lat="48.93426694907248" lon="9.701856952160597">
<ele>459.6</ele>
<time>2023-05-16T10:13:28Z</time>
</trkpt>
<trkpt lat="48.93431296572089" lon="9.7018429543823">
<ele>459.79999999999995</ele>
<time>2023-05-16T10:13:29Z</time>
</trkpt>
<trkpt lat="48.9343729801476" lon="9.701826944947243">
<ele>460</ele>
<time>2023-05-16T10:13:30Z</time>
</trkpt>
<trkpt lat="48.93443198874593" lon="9.701789980754256">
<ele>460</ele>
<time>2023-05-16T10:13:31Z</time>
</trkpt>
<trkpt lat="48.93447699956596" lon="9.701761985197663">
<ele>460.20000000000005</ele>
<time>2023-05-16T10:13:32Z</time>
</trkpt>
<trkpt lat="48.93452293239534" lon="9.701737929135561">
<ele>460.4</ele>
<time>2023-05-16T10:13:33Z</time>
</trkpt>
<trkpt lat="48.934574984014034" lon="9.701716974377632">
<ele>460.4</ele>
<time>2023-05-16T10:13:34Z</time>
</trkpt>
<trkpt lat="48.9346319809556" lon="9.701696941629052">
<ele>460.6</ele>
<time>2023-05-16T10:13:35Z</time>
</trkpt>
<trkpt lat="48.93469199538231" lon="9.701697947457433">
<ele>460.79999999999995</ele>
<time>2023-05-16T10:13:36Z</time>
</trkpt>
<trkpt lat="48.93475494347513" lon="9.701704988256097">
<ele>460.79999999999995</ele>
<time>2023-05-16T10:13:37Z</time>
</trkpt>
<trkpt lat="48.93482493236661" lon="9.701704988256097">
<ele>461</ele>
<time>2023-05-16T10:13:38Z</time>
</trkpt>
<trkpt lat="48.93490699119866" lon="9.701706999912858">
<ele>461.20000000000005</ele>
<time>2023-05-16T10:13:39Z</time>
</trkpt>
<trkpt lat="48.93499692901969" lon="9.701721919700503">
<ele>461.20000000000005</ele>
<time>2023-05-16T10:13:40Z</time>
</trkpt>
<trkpt lat="48.93507798202336" lon="9.701749999076128">
<ele>461.4</ele>
<time>2023-05-16T10:13:41Z</time>
</trkpt>
<trkpt lat="48.935157945379615" lon="9.701781934127212">
<ele>461.4</ele>
<time>2023-05-16T10:13:42Z</time>
</trkpt>
<trkpt lat="48.935222988948226" lon="9.701806996017694">
<ele>461.6</ele>
<time>2023-05-16T10:13:43Z</time>
</trkpt>
<trkpt lat="48.935281997546554" lon="9.70181998796761">
<ele>461.79999999999995</ele>
<time>2023-05-16T10:13:44Z</time>
</trkpt>
<trkpt lat="48.93533991649747" lon="9.701832979917526">
<ele>461.79999999999995</ele>
<time>2023-05-16T10:13:45Z</time>
</trkpt>
<trkpt lat="48.935397919267416" lon="9.701847983524203">
<ele>462</ele>
<time>2023-05-16T10:13:46Z</time>
</trkpt>
<trkpt lat="48.935456927865744" lon="9.701864998787642">
<ele>462.20000000000005</ele>
<time>2023-05-16T10:13:47Z</time>
</trkpt>
<trkpt lat="48.93550797365606" lon="9.701876984909177">
<ele>462.20000000000005</ele>
<time>2023-05-16T10:13:48Z</time>
</trkpt>
<trkpt lat="48.93555994145572" lon="9.701887965202332">
<ele>462.4</ele>
<time>2023-05-16T10:13:49Z</time>
</trkpt>
<trkpt lat="48.935609981417656" lon="9.701897939667106">
<ele>462.6</ele>
<time>2023-05-16T10:13:50Z</time>
</trkpt>
<trkpt lat="48.93565499223769" lon="9.701907997950912">
<ele>462.79999999999995</ele>
<time>2023-05-16T10:13:51Z</time>
</trkpt>
<trkpt lat="48.93570193089545" lon="9.701914954930544">
<ele>463</ele>
<time>2023-05-16T10:13:52Z</time>
</trkpt>
<trkpt lat="48.93574694171548" lon="9.701924929395318">
<ele>463.20000000000005</ele>
<time>2023-05-16T10:13:53Z</time>
</trkpt>
<trkpt lat="48.93579497002065" lon="9.701937921345234">
<ele>463.4</ele>
<time>2023-05-16T10:13:54Z</time>
</trkpt>
<trkpt lat="48.935841992497444" lon="9.70195191912353">
<ele>463.4</ele>
<time>2023-05-16T10:13:55Z</time>
</trkpt>
<trkpt lat="48.935886919498444" lon="9.701962983235717">
<ele>463.6</ele>
<time>2023-05-16T10:13:56Z</time>
</trkpt>
<trkpt lat="48.935931930318475" lon="9.701976981014013">
<ele>463.79999999999995</ele>
<time>2023-05-16T10:13:57Z</time>
</trkpt>
<trkpt lat="48.935976941138506" lon="9.701986955478787">
<ele>464</ele>
<time>2023-05-16T10:13:58Z</time>
</trkpt>
<trkpt lat="48.936019940301776" lon="9.701996929943562">
<ele>464</ele>
<time>2023-05-16T10:13:59Z</time>
</trkpt>
<trkpt lat="48.93606495112181" lon="9.701999947428703">
<ele>464.20000000000005</ele>
<time>2023-05-16T10:14:00Z</time>
</trkpt>
<trkpt lat="48.93610996194184" lon="9.702004976570606">
<ele>464.4</ele>
<time>2023-05-16T10:14:01Z</time>
</trkpt>
<trkpt lat="48.93615296110511" lon="9.702009921893477">
<ele>464.4</ele>
<time>2023-05-16T10:14:02Z</time>
</trkpt>
<trkpt lat="48.93619696609676" lon="9.70201495103538">
<ele>464.6</ele>
<time>2023-05-16T10:14:03Z</time>
</trkpt>
<trkpt lat="48.93624197691679" lon="9.702011933550239">
<ele>464.6</ele>
<time>2023-05-16T10:14:04Z</time>
</trkpt>
<trkpt lat="48.93628698773682" lon="9.701999947428703">
<ele>464.79999999999995</ele>
<time>2023-05-16T10:14:05Z</time>
</trkpt>
<trkpt lat="48.93633199855685" lon="9.70199198462069">
<ele>464.79999999999995</ele>
<time>2023-05-16T10:14:06Z</time>
</trkpt>
<trkpt lat="48.93637499772012" lon="9.701986955478787">
<ele>465</ele>
<time>2023-05-16T10:14:07Z</time>
</trkpt>
<trkpt lat="48.93641497939825" lon="9.701984943822026">
<ele>465</ele>
<time>2023-05-16T10:14:08Z</time>
</trkpt>
<trkpt lat="48.93645496107638" lon="9.701982932165265">
<ele>465.20000000000005</ele>
<time>2023-05-16T10:14:09Z</time>
</trkpt>
<trkpt lat="48.936492931097746" lon="9.701979998499155">
<ele>465.20000000000005</ele>
<time>2023-05-16T10:14:10Z</time>
</trkpt>
<trkpt lat="48.936532996594906" lon="9.701972957700491">
<ele>465.4</ele>
<time>2023-05-16T10:14:11Z</time>
</trkpt>
<trkpt lat="48.936574989929795" lon="9.701961977407336">
<ele>465.4</ele>
<time>2023-05-16T10:14:12Z</time>
</trkpt>
<trkpt lat="48.93661295995116" lon="9.70195191912353">
<ele>465.6</ele>
<time>2023-05-16T10:14:13Z</time>
</trkpt>
<trkpt lat="48.93665294162929" lon="9.701942950487137">
<ele>465.6</ele>
<time>2023-05-16T10:14:14Z</time>
</trkpt>
<trkpt lat="48.93669191747904" lon="9.701936999335885">
<ele>465.79999999999995</ele>
<time>2023-05-16T10:14:15Z</time>
</trkpt>
<trkpt lat="48.936726953834295" lon="9.70192794688046">
<ele>465.79999999999995</ele>
<time>2023-05-16T10:14:16Z</time>
</trkpt>
<trkpt lat="48.93676492385566" lon="9.701909925788641">
<ele>465.79999999999995</ele>
<time>2023-05-16T10:14:17Z</time>
</trkpt>
<trkpt lat="48.93679996021092" lon="9.701901962980628">
<ele>465.79999999999995</ele>
<time>2023-05-16T10:14:18Z</time>
</trkpt>
<trkpt lat="48.936834996566176" lon="9.701901962980628">
<ele>466</ele>
<time>2023-05-16T10:14:19Z</time>
</trkpt>
<trkpt lat="48.9368699491024" lon="9.701894922181964">
<ele>466</ele>
<time>2023-05-16T10:14:20Z</time>
</trkpt>
<trkpt lat="48.93691294826567" lon="9.701886959373951">
<ele>466</ele>
<time>2023-05-16T10:14:21Z</time>
</trkpt>
<trkpt lat="48.93695494160056" lon="9.701882936060429">
<ele>466.20000000000005</ele>
<time>2023-05-16T10:14:22Z</time>
</trkpt>
<trkpt lat="48.93699299544096" lon="9.701876984909177">
<ele>466.20000000000005</ele>
<time>2023-05-16T10:14:23Z</time>
</trkpt>
<trkpt lat="48.93703197129071" lon="9.701869944110513">
<ele>466.20000000000005</ele>
<time>2023-05-16T10:14:24Z</time>
</trkpt>
<trkpt lat="48.937069941312075" lon="9.701867932453752">
<ele>466.4</ele>
<time>2023-05-16T10:14:25Z</time>
</trkpt>
<trkpt lat="48.93710497766733" lon="9.7018619813025">
<ele>466.4</ele>
<time>2023-05-16T10:14:26Z</time>
</trkpt>
<trkpt lat="48.93713699653745" lon="9.701852928847075">
<ele>466.6</ele>
<time>2023-05-16T10:14:27Z</time>
</trkpt>
<trkpt lat="48.93716691993177" lon="9.701839936897159">
<ele>466.6</ele>
<time>2023-05-16T10:14:28Z</time>
</trkpt>
<trkpt lat="48.93720296211541" lon="9.701832979917526">
<ele>466.79999999999995</ele>
<time>2023-05-16T10:14:29Z</time>
</trkpt>
<trkpt lat="48.937241937965155" lon="9.701831974089146">
<ele>466.79999999999995</ele>
<time>2023-05-16T10:14:30Z</time>
</trkpt>
<trkpt lat="48.937267921864986" lon="9.701824933290482">
<ele>466.79999999999995</ele>
<time>2023-05-16T10:14:31Z</time>
</trkpt>
<trkpt lat="48.93730999901891" lon="9.70181998796761">
<ele>467</ele>
<time>2023-05-16T10:14:32Z</time>
</trkpt>
<trkpt lat="48.93734293989837" lon="9.70181998796761">
<ele>467</ele>
<time>2023-05-16T10:14:33Z</time>
</trkpt>
<trkpt lat="48.93737998791039" lon="9.70182292163372">
<ele>467.20000000000005</ele>
<time>2023-05-16T10:14:34Z</time>
</trkpt>
<trkpt lat="48.93741996958852" lon="9.701831974089146">
<ele>467.20000000000005</ele>
<time>2023-05-16T10:14:35Z</time>
</trkpt>
<trkpt lat="48.93745492212474" lon="9.701821999624372">
<ele>467.4</ele>
<time>2023-05-16T10:14:36Z</time>
</trkpt>
<trkpt lat="48.937501944601536" lon="9.701807918027043">
<ele>467.4</ele>
<time>2023-05-16T10:14:37Z</time>
</trkpt>
<trkpt lat="48.93753798678517" lon="9.701786963269114">
<ele>467.6</ele>
<time>2023-05-16T10:14:38Z</time>
</trkpt>
<trkpt lat="48.93757193349302" lon="9.701772965490818">
<ele>467.6</ele>
<time>2023-05-16T10:14:39Z</time>
</trkpt>
<trkpt lat="48.937606969848275" lon="9.70175695605576">
<ele>467.79999999999995</ele>
<time>2023-05-16T10:14:40Z</time>
</trkpt>
<trkpt lat="48.93763496540487" lon="9.70173197798431">
<ele>467.79999999999995</ele>
<time>2023-05-16T10:14:41Z</time>
</trkpt>
<trkpt lat="48.93765994347632" lon="9.70171194523573">
<ele>468</ele>
<time>2023-05-16T10:14:42Z</time>
</trkpt>
<trkpt lat="48.93770193681121" lon="9.701682943850756">
<ele>468</ele>
<time>2023-05-16T10:14:43Z</time>
</trkpt>
<trkpt lat="48.937736973166466" lon="9.70164698548615">
<ele>468.20000000000005</ele>
<time>2023-05-16T10:14:44Z</time>
</trkpt>
<trkpt lat="48.93776999786496" lon="9.70162695273757">
<ele>468.20000000000005</ele>
<time>2023-05-16T10:14:45Z</time>
</trkpt>
<trkpt lat="48.93781199119985" lon="9.701586971059442">
<ele>468.4</ele>
<time>2023-05-16T10:14:46Z</time>
</trkpt>
<trkpt lat="48.93784794956446" lon="9.701546989381313">
<ele>468.4</ele>
<time>2023-05-16T10:14:47Z</time>
</trkpt>
<trkpt lat="48.93789296038449" lon="9.701511953026056">
<ele>468.6</ele>
<time>2023-05-16T10:14:48Z</time>
</trkpt>
<trkpt lat="48.93794492818415" lon="9.7014769166708">
<ele>468.6</ele>
<time>2023-05-16T10:14:49Z</time>
</trkpt>
<trkpt lat="48.93798993900418" lon="9.701439952477813">
<ele>468.79999999999995</ele>
<time>2023-05-16T10:14:50Z</time>
</trkpt>
<trkpt lat="48.93803293816745" lon="9.701399970799685">
<ele>468.79999999999995</ele>
<time>2023-05-16T10:14:51Z</time>
</trkpt>
<trkpt lat="48.93807291984558" lon="9.701362922787666">
<ele>469</ele>
<time>2023-05-16T10:14:52Z</time>
</trkpt>
<trkpt lat="48.93811298534274" lon="9.701321935281157">
<ele>469</ele>
<time>2023-05-16T10:14:53Z</time>
</trkpt>
<trkpt lat="48.93815497867763" lon="9.701279941946268">
<ele>469</ele>
<time>2023-05-16T10:14:54Z</time>
</trkpt>
<trkpt lat="48.938189931213856" lon="9.701234931126237">
<ele>469.20000000000005</ele>
<time>2023-05-16T10:14:55Z</time>
</trkpt>
<trkpt lat="48.93821499310434" lon="9.701191931962967">
<ele>469.20000000000005</ele>
<time>2023-05-16T10:14:56Z</time>
</trkpt>
<trkpt lat="48.93823795951903" lon="9.701147926971316">
<ele>469.4</ele>
<time>2023-05-16T10:14:57Z</time>
</trkpt>
<trkpt lat="48.93826796673238" lon="9.701099982485175">
<ele>469.4</ele>
<time>2023-05-16T10:14:58Z</time>
</trkpt>
<trkpt lat="48.938292944803834" lon="9.701056983321905">
<ele>469.6</ele>
<time>2023-05-16T10:14:59Z</time>
</trkpt>
<trkpt lat="48.938317922875285" lon="9.701014989987016">
<ele>469.6</ele>
<time>2023-05-16T10:15:00Z</time>
</trkpt>
<trkpt lat="48.93834298476577" lon="9.700976936146617">
<ele>469.79999999999995</ele>
<time>2023-05-16T10:15:01Z</time>
</trkpt>
<trkpt lat="48.93837299197912" lon="9.700951958075166">
<ele>469.79999999999995</ele>
<time>2023-05-16T10:15:02Z</time>
</trkpt>
<trkpt lat="48.93839797005057" lon="9.700921950861812">
<ele>470</ele>
<time>2023-05-16T10:15:03Z</time>
</trkpt>
<trkpt lat="48.938422948122025" lon="9.700884986668825">
<ele>470</ele>
<time>2023-05-16T10:15:04Z</time>
</trkpt>
<trkpt lat="48.93844993785024" lon="9.700854979455471">
<ele>470.20000000000005</ele>
<time>2023-05-16T10:15:05Z</time>
</trkpt>
<trkpt lat="48.93847994506359" lon="9.700822960585356">
<ele>470.20000000000005</ele>
<time>2023-05-16T10:15:06Z</time>
</trkpt>
<trkpt lat="48.93851699307561" lon="9.700784990563989">
<ele>470.4</ele>
<time>2023-05-16T10:15:07Z</time>
</trkpt>
<trkpt lat="48.93854792229831" lon="9.7007429972291">
<ele>470.4</ele>
<time>2023-05-16T10:15:08Z</time>
</trkpt>
<trkpt lat="48.938571978360415" lon="9.700707960873842">
<ele>470.6</ele>
<time>2023-05-16T10:15:09Z</time>
</trkpt>
<trkpt lat="48.93860198557377" lon="9.700671918690205">
<ele>470.6</ele>
<time>2023-05-16T10:15:10Z</time>
</trkpt>
<trkpt lat="48.9386279694736" lon="9.700631937012076">
<ele>470.79999999999995</ele>
<time>2023-05-16T10:15:11Z</time>
</trkpt>
<trkpt lat="48.938661916181445" lon="9.700584998354316">
<ele>470.79999999999995</ele>
<time>2023-05-16T10:15:12Z</time>
</trkpt>
<trkpt lat="48.93869292922318" lon="9.700554991140962">
<ele>471</ele>
<time>2023-05-16T10:15:13Z</time>
</trkpt>
<trkpt lat="48.938724948093295" lon="9.700517943128943">
<ele>471</ele>
<time>2023-05-16T10:15:14Z</time>
</trkpt>
<trkpt lat="48.93875998444855" lon="9.700481984764338">
<ele>471.20000000000005</ele>
<time>2023-05-16T10:15:15Z</time>
</trkpt>
<trkpt lat="48.938789991661906" lon="9.700441919267178">
<ele>471.20000000000005</ele>
<time>2023-05-16T10:15:16Z</time>
</trkpt>
<trkpt lat="48.93881496973336" lon="9.700416941195726">
<ele>471.4</ele>
<time>2023-05-16T10:15:17Z</time>
</trkpt>
<trkpt lat="48.93884195946157" lon="9.70037997700274">
<ele>471.4</ele>
<time>2023-05-16T10:15:18Z</time>
</trkpt>
<trkpt lat="48.938871966674924" lon="9.700346952304244">
<ele>471.6</ele>
<time>2023-05-16T10:15:19Z</time>
</trkpt>
<trkpt lat="48.93890792503953" lon="9.70031795091927">
<ele>471.6</ele>
<time>2023-05-16T10:15:20Z</time>
</trkpt>
<trkpt lat="48.93895293585956" lon="9.700274951756">
<ele>471.79999999999995</ele>
<time>2023-05-16T10:15:21Z</time>
</trkpt>
<trkpt lat="48.93898998387158" lon="9.700256930664182">
<ele>471.79999999999995</ele>
<time>2023-05-16T10:15:22Z</time>
</trkpt>
<trkpt lat="48.939026948064566" lon="9.700246956199408">
<ele>472</ele>
<time>2023-05-16T10:15:23Z</time>
</trkpt>
<trkpt lat="48.9390579611063" lon="9.700244944542646">
<ele>472</ele>
<time>2023-05-16T10:15:24Z</time>
</trkpt>
<trkpt lat="48.93909492529929" lon="9.700241927057505">
<ele>472</ele>
<time>2023-05-16T10:15:25Z</time>
</trkpt>
<trkpt lat="48.939131973311305" lon="9.700246956199408">
<ele>472.20000000000005</ele>
<time>2023-05-16T10:15:26Z</time>
</trkpt>
<trkpt lat="48.939174972474575" lon="9.70025198534131">
<ele>472.20000000000005</ele>
<time>2023-05-16T10:15:27Z</time>
</trkpt>
<trkpt lat="48.939217971637845" lon="9.700247962027788">
<ele>472.20000000000005</ele>
<time>2023-05-16T10:15:28Z</time>
</trkpt>
<trkpt lat="48.939261976629496" lon="9.70025198534131">
<ele>472.4</ele>
<time>2023-05-16T10:15:29Z</time>
</trkpt>
<trkpt lat="48.939304975792766" lon="9.700252991169691">
<ele>472.4</ele>
<time>2023-05-16T10:15:30Z</time>
</trkpt>
<trkpt lat="48.939346969127655" lon="9.700256930664182">
<ele>472.6</ele>
<time>2023-05-16T10:15:31Z</time>
</trkpt>
<trkpt lat="48.93939298577607" lon="9.700262965634465">
<ele>472.6</ele>
<time>2023-05-16T10:15:32Z</time>
</trkpt>
<trkpt lat="48.939432967454195" lon="9.70027294009924">
<ele>472.6</ele>
<time>2023-05-16T10:15:33Z</time>
</trkpt>
<trkpt lat="48.93947294913232" lon="9.700277969241142">
<ele>472.79999999999995</ele>
<time>2023-05-16T10:15:34Z</time>
</trkpt>
<trkpt lat="48.93950798548758" lon="9.700282998383045">
<ele>472.79999999999995</ele>
<time>2023-05-16T10:15:35Z</time>
</trkpt>
<trkpt lat="48.939542938023806" lon="9.700291967019439">
<ele>473</ele>
<time>2023-05-16T10:15:36Z</time>
</trkpt>
<trkpt lat="48.939579986035824" lon="9.700302947312593">
<ele>473.20000000000005</ele>
<time>2023-05-16T10:15:37Z</time>
</trkpt>
<trkpt lat="48.93961795605719" lon="9.700312921777368">
<ele>473.20000000000005</ele>
<time>2023-05-16T10:15:38Z</time>
</trkpt>
<trkpt lat="48.93965693190694" lon="9.700321974232793">
<ele>473.4</ele>
<time>2023-05-16T10:15:39Z</time>
</trkpt>
<trkpt lat="48.939692974090576" lon="9.70033697783947">
<ele>473.4</ele>
<time>2023-05-16T10:15:40Z</time>
</trkpt>
<trkpt lat="48.93972993828356" lon="9.700347958132625">
<ele>473.6</ele>
<time>2023-05-16T10:15:41Z</time>
</trkpt>
<trkpt lat="48.93976698629558" lon="9.700354998931289">
<ele>473.79999999999995</ele>
<time>2023-05-16T10:15:42Z</time>
</trkpt>
<trkpt lat="48.939801938831806" lon="9.700357932597399">
<ele>473.79999999999995</ele>
<time>2023-05-16T10:15:43Z</time>
</trkpt>
<trkpt lat="48.93983295187354" lon="9.700357932597399">
<ele>474</ele>
<time>2023-05-16T10:15:44Z</time>
</trkpt>
<trkpt lat="48.93986999988556" lon="9.700364973396063">
<ele>474</ele>
<time>2023-05-16T10:15:45Z</time>
</trkpt>
<trkpt lat="48.939904952421784" lon="9.70037997700274">
<ele>474.20000000000005</ele>
<time>2023-05-16T10:15:46Z</time>
</trkpt>
<trkpt lat="48.93995298072696" lon="9.700399925932288">
<ele>474.4</ele>
<time>2023-05-16T10:15:47Z</time>
</trkpt>
<trkpt lat="48.93998793326318" lon="9.700407972559333">
<ele>474.4</ele>
<time>2023-05-16T10:15:48Z</time>
</trkpt>
<trkpt lat="48.94001794047654" lon="9.700419958680868">
<ele>474.6</ele>
<time>2023-05-16T10:15:49Z</time>
</trkpt>
<trkpt lat="48.94006798043847" lon="9.700437979772687">
<ele>474.6</ele>
<time>2023-05-16T10:15:50Z</time>
</trkpt>
<trkpt lat="48.94011693075299" lon="9.700454995036125">
<ele>474.79999999999995</ele>
<time>2023-05-16T10:15:51Z</time>
</trkpt>
<trkpt lat="48.9401579182595" lon="9.700469998642802">
<ele>474.79999999999995</ele>
<time>2023-05-16T10:15:52Z</time>
</trkpt>
<trkpt lat="48.94018993712962" lon="9.700472932308912">
<ele>475</ele>
<time>2023-05-16T10:15:53Z</time>
</trkpt>
<trkpt lat="48.94021994434297" lon="9.700479973107576">
<ele>475</ele>
<time>2023-05-16T10:15:54Z</time>
</trkpt>
<trkpt lat="48.940251963213086" lon="9.70048994757235">
<ele>475.20000000000005</ele>
<time>2023-05-16T10:15:55Z</time>
</trkpt>
<trkpt lat="48.94029697403312" lon="9.70050998032093">
<ele>475.20000000000005</ele>
<time>2023-05-16T10:15:56Z</time>
</trkpt>
<trkpt lat="48.94034198485315" lon="9.700526995584369">
<ele>475.4</ele>
<time>2023-05-16T10:15:57Z</time>
</trkpt>
<trkpt lat="48.9403719920665" lon="9.70053194090724">
<ele>475.4</ele>
<time>2023-05-16T10:15:58Z</time>
</trkpt>
<trkpt lat="48.94040493294597" lon="9.700537975877523">
<ele>475.6</ele>
<time>2023-05-16T10:15:59Z</time>
</trkpt>
<trkpt lat="48.940449943766" lon="9.700549961999059">
<ele>475.6</ele>
<time>2023-05-16T10:16:00Z</time>
</trkpt>
<trkpt lat="48.94048196263611" lon="9.700567983090878">
<ele>475.6</ele>
<time>2023-05-16T10:16:01Z</time>
</trkpt>
<trkpt lat="48.940527979284525" lon="9.700582986697555">
<ele>475.6</ele>
<time>2023-05-16T10:16:02Z</time>
</trkpt>
<trkpt lat="48.94056695513427" lon="9.700591955333948">
<ele>475.79999999999995</ele>
<time>2023-05-16T10:16:03Z</time>
</trkpt>
<trkpt lat="48.94060299731791" lon="9.700592961162329">
<ele>475.79999999999995</ele>
<time>2023-05-16T10:16:04Z</time>
</trkpt>
<trkpt lat="48.94064993597567" lon="9.700602935627103">
<ele>475.79999999999995</ele>
<time>2023-05-16T10:16:05Z</time>
</trkpt>
<trkpt lat="48.94068798981607" lon="9.7006169334054">
<ele>475.79999999999995</ele>
<time>2023-05-16T10:16:06Z</time>
</trkpt>
<trkpt lat="48.94073995761573" lon="9.700644928961992">
<ele>475.79999999999995</ele>
<time>2023-05-16T10:16:07Z</time>
</trkpt>
<trkpt lat="48.94078195095062" lon="9.700657920911908">
<ele>475.79999999999995</ele>
<time>2023-05-16T10:16:08Z</time>
</trkpt>
<trkpt lat="48.94082495011389" lon="9.700664961710572">
<ele>475.79999999999995</ele>
<time>2023-05-16T10:16:09Z</time>
</trkpt>
<trkpt lat="48.940876917913556" lon="9.700674936175346">
<ele>475.79999999999995</ele>
<time>2023-05-16T10:16:10Z</time>
</trkpt>
<trkpt lat="48.940916983410716" lon="9.700677953660488">
<ele>475.79999999999995</ele>
<time>2023-05-16T10:16:11Z</time>
</trkpt>
<trkpt lat="48.94096492789686" lon="9.70068197697401">
<ele>475.79999999999995</ele>
<time>2023-05-16T10:16:12Z</time>
</trkpt>
<trkpt lat="48.94100499339402" lon="9.700687928125262">
<ele>475.79999999999995</ele>
<time>2023-05-16T10:16:13Z</time>
</trkpt>
<trkpt lat="48.94105696119368" lon="9.700719946995378">
<ele>475.79999999999995</ele>
<time>2023-05-16T10:16:14Z</time>
</trkpt>
<trkpt lat="48.94111295230687" lon="9.700751965865493">
<ele>475.79999999999995</ele>
<time>2023-05-16T10:16:15Z</time>
</trkpt>
<trkpt lat="48.94116994924843" lon="9.700771998614073">
<ele>475.79999999999995</ele>
<time>2023-05-16T10:16:16Z</time>
</trkpt>
<trkpt lat="48.94122996367514" lon="9.700794965028763">
<ele>475.79999999999995</ele>
<time>2023-05-16T10:16:17Z</time>
</trkpt>
<trkpt lat="48.94128696061671" lon="9.700814997777343">
<ele>475.79999999999995</ele>
<time>2023-05-16T10:16:18Z</time>
</trkpt>
<trkpt lat="48.941344963386655" lon="9.70083293505013">
<ele>475.79999999999995</ele>
<time>2023-05-16T10:16:19Z</time>
</trkpt>
<trkpt lat="48.94139491952956" lon="9.700846932828426">
<ele>475.79999999999995</ele>
<time>2023-05-16T10:16:20Z</time>
</trkpt>
<trkpt lat="48.94144797697663" lon="9.700859924778342">
<ele>475.79999999999995</ele>
<time>2023-05-16T10:16:21Z</time>
</trkpt>
<trkpt lat="48.941497933119535" lon="9.700867971405387">
<ele>475.79999999999995</ele>
<time>2023-05-16T10:16:22Z</time>
</trkpt>
<trkpt lat="48.94154797308147" lon="9.700882975012064">
<ele>475.79999999999995</ele>
<time>2023-05-16T10:16:23Z</time>
</trkpt>
<trkpt lat="48.94159692339599" lon="9.700892949476838">
<ele>475.79999999999995</ele>
<time>2023-05-16T10:16:24Z</time>
</trkpt>
<trkpt lat="48.9416429400444" lon="9.700904935598373">
<ele>475.79999999999995</ele>
<time>2023-05-16T10:16:25Z</time>
</trkpt>
<trkpt lat="48.941689962521195" lon="9.70091792754829">
<ele>475.79999999999995</ele>
<time>2023-05-16T10:16:26Z</time>
</trkpt>
<trkpt lat="48.94173497334123" lon="9.700927985832095">
<ele>475.79999999999995</ele>
<time>2023-05-16T10:16:27Z</time>
</trkpt>
<trkpt lat="48.94178199581802" lon="9.70093796029687">
<ele>475.79999999999995</ele>
<time>2023-05-16T10:16:28Z</time>
</trkpt>
<trkpt lat="48.94182499498129" lon="9.700947934761643">
<ele>475.79999999999995</ele>
<time>2023-05-16T10:16:29Z</time>
</trkpt>
<trkpt lat="48.94186992198229" lon="9.70095799304545">
<ele>475.79999999999995</ele>
<time>2023-05-16T10:16:30Z</time>
</trkpt>
<trkpt lat="48.94191292114556" lon="9.700967967510223">
<ele>475.79999999999995</ele>
<time>2023-05-16T10:16:31Z</time>
</trkpt>
<trkpt lat="48.94195499829948" lon="9.700976936146617">
<ele>475.79999999999995</ele>
<time>2023-05-16T10:16:32Z</time>
</trkpt>
<trkpt lat="48.94199497997761" lon="9.70098196528852">
<ele>476</ele>
<time>2023-05-16T10:16:33Z</time>
</trkpt>
<trkpt lat="48.942032949998975" lon="9.700989928096533">
<ele>476</ele>
<time>2023-05-16T10:16:34Z</time>
</trkpt>
<trkpt lat="48.94206698052585" lon="9.700996968895197">
<ele>476.20000000000005</ele>
<time>2023-05-16T10:16:35Z</time>
</trkpt>
<trkpt lat="48.942099921405315" lon="9.70100493170321">
<ele>476.20000000000005</ele>
<time>2023-05-16T10:16:36Z</time>
</trkpt>
<trkpt lat="48.94213294610381" lon="9.701012978330255">
<ele>476.4</ele>
<time>2023-05-16T10:16:37Z</time>
</trkpt>
<trkpt lat="48.94216697663069" lon="9.701022952795029">
<ele>476.6</ele>
<time>2023-05-16T10:16:38Z</time>
</trkpt>
<trkpt lat="48.94220192916691" lon="9.701032927259803">
<ele>476.79999999999995</ele>
<time>2023-05-16T10:16:39Z</time>
</trkpt>
<trkpt lat="48.94223998300731" lon="9.701042985543609">
<ele>477</ele>
<time>2023-05-16T10:16:40Z</time>
</trkpt>
<trkpt lat="48.9422769472003" lon="9.701051954180002">
<ele>477.20000000000005</ele>
<time>2023-05-16T10:16:41Z</time>
</trkpt>
<trkpt lat="48.942312989383936" lon="9.701059916988015">
<ele>477.4</ele>
<time>2023-05-16T10:16:42Z</time>
</trkpt>
<trkpt lat="48.94234995357692" lon="9.70106796361506">
<ele>477.79999999999995</ele>
<time>2023-05-16T10:16:43Z</time>
</trkpt>
<trkpt lat="48.94238691776991" lon="9.701076932251453">
<ele>478</ele>
<time>2023-05-16T10:16:44Z</time>
</trkpt>
<trkpt lat="48.942419942468405" lon="9.701084978878498">
<ele>478.20000000000005</ele>
<time>2023-05-16T10:16:45Z</time>
</trkpt>
<trkpt lat="48.94245497882366" lon="9.701092941686511">
<ele>478.4</ele>
<time>2023-05-16T10:16:46Z</time>
</trkpt>
<trkpt lat="48.942487919703126" lon="9.701102999970317">
<ele>478.6</ele>
<time>2023-05-16T10:16:47Z</time>
</trkpt>
<trkpt lat="48.94252195023" lon="9.701114986091852">
<ele>479</ele>
<time>2023-05-16T10:16:48Z</time>
</trkpt>
<trkpt lat="48.94255698658526" lon="9.701122948899865">
<ele>479.20000000000005</ele>
<time>2023-05-16T10:16:49Z</time>
</trkpt>
<trkpt lat="48.942591939121485" lon="9.701131917536259">
<ele>479.4</ele>
<time>2023-05-16T10:16:50Z</time>
</trkpt>
<trkpt lat="48.94262798130512" lon="9.701139964163303">
<ele>479.6</ele>
<time>2023-05-16T10:16:51Z</time>
</trkpt>
<trkpt lat="48.94266293384135" lon="9.701147926971316">
<ele>479.79999999999995</ele>
<time>2023-05-16T10:16:52Z</time>
</trkpt>
<trkpt lat="48.942699981853366" lon="9.701157985255122">
<ele>480.20000000000005</ele>
<time>2023-05-16T10:16:53Z</time>
</trkpt>
<trkpt lat="48.94273493438959" lon="9.701167959719896">
<ele>480.4</ele>
<time>2023-05-16T10:16:54Z</time>
</trkpt>
<trkpt lat="48.94276795908809" lon="9.70117692835629">
<ele>480.6</ele>
<time>2023-05-16T10:16:55Z</time>
</trkpt>
<trkpt lat="48.94280198961496" lon="9.701186986640096">
<ele>480.79999999999995</ele>
<time>2023-05-16T10:16:56Z</time>
</trkpt>
<trkpt lat="48.94283493049443" lon="9.701192937791348">
<ele>481</ele>
<time>2023-05-16T10:16:57Z</time>
</trkpt>
<trkpt lat="48.94286694936454" lon="9.701199978590012">
<ele>481.20000000000005</ele>
<time>2023-05-16T10:16:58Z</time>
</trkpt>
<trkpt lat="48.94289796240628" lon="9.701207941398025">
<ele>481.4</ele>
<time>2023-05-16T10:16:59Z</time>
</trkpt>
<trkpt lat="48.94292998127639" lon="9.701214982196689">
<ele>481.6</ele>
<time>2023-05-16T10:17:00Z</time>
</trkpt>
<trkpt lat="48.94295998848975" lon="9.701221939176321">
<ele>481.79999999999995</ele>
<time>2023-05-16T10:17:01Z</time>
</trkpt>
<trkpt lat="48.94298798404634" lon="9.701227974146605">
<ele>482</ele>
<time>2023-05-16T10:17:02Z</time>
</trkpt>
<trkpt lat="48.94301497377455" lon="9.701234931126237">
<ele>482.20000000000005</ele>
<time>2023-05-16T10:17:03Z</time>
</trkpt>
<trkpt lat="48.943041963502765" lon="9.701242977753282">
<ele>482.4</ele>
<time>2023-05-16T10:17:04Z</time>
</trkpt>
<trkpt lat="48.943066941574216" lon="9.701252952218056">
<ele>482.6</ele>
<time>2023-05-16T10:17:05Z</time>
</trkpt>
<trkpt lat="48.943086974322796" lon="9.70125999301672">
<ele>482.79999999999995</ele>
<time>2023-05-16T10:17:06Z</time>
</trkpt>
<trkpt lat="48.943104995414615" lon="9.701266949996352">
<ele>483</ele>
<time>2023-05-16T10:17:07Z</time>
</trkpt>
<trkpt lat="48.94312494434416" lon="9.701271979138255">
<ele>483.20000000000005</ele>
<time>2023-05-16T10:17:08Z</time>
</trkpt>
<trkpt lat="48.943146988749504" lon="9.701277930289507">
<ele>483.4</ele>
<time>2023-05-16T10:17:09Z</time>
</trkpt>
<trkpt lat="48.943169955164194" lon="9.701286982744932">
<ele>483.6</ele>
<time>2023-05-16T10:17:10Z</time>
</trkpt>
<trkpt lat="48.943191999569535" lon="9.701287988573313">
<ele>483.6</ele>
<time>2023-05-16T10:17:11Z</time>
</trkpt>
<trkpt lat="48.94320792518556" lon="9.701279941946268">
<ele>483.79999999999995</ele>
<time>2023-05-16T10:17:12Z</time>
</trkpt>
<trkpt lat="48.943224940449" lon="9.701264938339591">
<ele>484</ele>
<time>2023-05-16T10:17:13Z</time>
</trkpt>
<trkpt lat="48.94324195571244" lon="9.701244989410043">
<ele>484</ele>
<time>2023-05-16T10:17:14Z</time>
</trkpt>
<trkpt lat="48.943256959319115" lon="9.701214982196689">
<ele>484.20000000000005</ele>
<time>2023-05-16T10:17:15Z</time>
</trkpt>
<trkpt lat="48.94326793961227" lon="9.701174916699529">
<ele>484.20000000000005</ele>
<time>2023-05-16T10:17:16Z</time>
</trkpt>
<trkpt lat="48.943281937390566" lon="9.7011349350214">
<ele>484.4</ele>
<time>2023-05-16T10:17:17Z</time>
</trkpt>
<trkpt lat="48.94329492934048" lon="9.70108992420137">
<ele>484.6</ele>
<time>2023-05-16T10:17:18Z</time>
</trkpt>
<trkpt lat="48.94330498762429" lon="9.70104499720037">
<ele>484.6</ele>
<time>2023-05-16T10:17:19Z</time>
</trkpt>
<trkpt lat="48.94331496208906" lon="9.700999986380339">
<ele>484.79999999999995</ele>
<time>2023-05-16T10:17:20Z</time>
</trkpt>
<trkpt lat="48.94332795403898" lon="9.700951958075166">
<ele>484.79999999999995</ele>
<time>2023-05-16T10:17:21Z</time>
</trkpt>
<trkpt lat="48.943342957645655" lon="9.700897978618741">
<ele>484.79999999999995</ele>
<time>2023-05-16T10:17:22Z</time>
</trkpt>
<trkpt lat="48.94335796125233" lon="9.70083192922175">
<ele>485</ele>
<time>2023-05-16T10:17:23Z</time>
</trkpt>
<trkpt lat="48.94336994737387" lon="9.700769986957312">
<ele>485</ele>
<time>2023-05-16T10:17:24Z</time>
</trkpt>
<trkpt lat="48.94338293932378" lon="9.700714917853475">
<ele>485</ele>
<time>2023-05-16T10:17:25Z</time>
</trkpt>
<trkpt lat="48.94339693710208" lon="9.700657920911908">
<ele>485.20000000000005</ele>
<time>2023-05-16T10:17:26Z</time>
</trkpt>
<trkpt lat="48.943411940708756" lon="9.700599918141961">
<ele>485.20000000000005</ele>
<time>2023-05-16T10:17:27Z</time>
</trkpt>
<trkpt lat="48.94342493265867" lon="9.700537975877523">
<ele>485.4</ele>
<time>2023-05-16T10:17:28Z</time>
</trkpt>
<trkpt lat="48.94343792460859" lon="9.700476955622435">
<ele>485.4</ele>
<time>2023-05-16T10:17:29Z</time>
</trkpt>
<trkpt lat="48.943449994549155" lon="9.700414929538965">
<ele>485.4</ele>
<time>2023-05-16T10:17:30Z</time>
</trkpt>
<trkpt lat="48.94346298649907" lon="9.700351981446147">
<ele>485.6</ele>
<time>2023-05-16T10:17:31Z</time>
</trkpt>
<trkpt lat="48.94347698427737" lon="9.700286937877536">
<ele>485.6</ele>
<time>2023-05-16T10:17:32Z</time>
</trkpt>
<trkpt lat="48.943491987884045" lon="9.700219966471195">
<ele>485.6</ele>
<time>2023-05-16T10:17:33Z</time>
</trkpt>
<trkpt lat="48.94350699149072" lon="9.700151989236474">
<ele>485.6</ele>
<time>2023-05-16T10:17:34Z</time>
</trkpt>
<trkpt lat="48.9435219950974" lon="9.70008191652596">
<ele>485.79999999999995</ele>
<time>2023-05-16T10:17:35Z</time>
</trkpt>
<trkpt lat="48.943537920713425" lon="9.700009999796748">
<ele>485.79999999999995</ele>
<time>2023-05-16T10:17:36Z</time>
</trkpt>
<trkpt lat="48.9435529243201" lon="9.699944956228137">
<ele>485.79999999999995</ele>
<time>2023-05-16T10:17:37Z</time>
</trkpt>
<trkpt lat="48.94356993958354" lon="9.699871949851513">
<ele>485.79999999999995</ele>
<time>2023-05-16T10:17:38Z</time>
</trkpt>
<trkpt lat="48.94358796067536" lon="9.699787963181734">
<ele>485.79999999999995</ele>
<time>2023-05-16T10:17:39Z</time>
</trkpt>
<trkpt lat="48.94360698759556" lon="9.699702970683575">
<ele>485.79999999999995</ele>
<time>2023-05-16T10:17:40Z</time>
</trkpt>
<trkpt lat="48.943624924868345" lon="9.699617978185415">
<ele>485.79999999999995</ele>
<time>2023-05-16T10:17:41Z</time>
</trkpt>
<trkpt lat="48.94363992847502" lon="9.699529968202114">
<ele>485.79999999999995</ele>
<time>2023-05-16T10:17:42Z</time>
</trkpt>
<trkpt lat="48.94365794956684" lon="9.699439946562052">
<ele>485.6</ele>
<time>2023-05-16T10:17:43Z</time>
</trkpt>
<trkpt lat="48.94367697648704" lon="9.69934699125588">
<ele>485.6</ele>
<time>2023-05-16T10:17:44Z</time>
</trkpt>
<trkpt lat="48.94369692541659" lon="9.69926199875772">
<ele>485.4</ele>
<time>2023-05-16T10:17:45Z</time>
</trkpt>
<trkpt lat="48.94371695816517" lon="9.69917792826891">
<ele>485.4</ele>
<time>2023-05-16T10:17:46Z</time>
</trkpt>
<trkpt lat="48.94374193623662" lon="9.69909293577075">
<ele>485.4</ele>
<time>2023-05-16T10:17:47Z</time>
</trkpt>
<trkpt lat="48.94376993179321" lon="9.69900299794972">
<ele>485.20000000000005</ele>
<time>2023-05-16T10:17:48Z</time>
</trkpt>
<trkpt lat="48.943797927349806" lon="9.698912976309657">
<ele>485.20000000000005</ele>
<time>2023-05-16T10:17:49Z</time>
</trkpt>
<trkpt lat="48.943834975361824" lon="9.698821948841214">
<ele>485</ele>
<time>2023-05-16T10:17:50Z</time>
</trkpt>
<trkpt lat="48.943884931504726" lon="9.698737962171435">
<ele>484.79999999999995</ele>
<time>2023-05-16T10:17:51Z</time>
</trkpt>
<trkpt lat="48.94394293427467" lon="9.698667973279953">
<ele>484.6</ele>
<time>2023-05-16T10:17:52Z</time>
</trkpt>
<trkpt lat="48.944006972014904" lon="9.698621956631541">
<ele>484.4</ele>
<time>2023-05-16T10:17:53Z</time>
</trkpt>
<trkpt lat="48.944076960906386" lon="9.698594966903329">
<ele>484.20000000000005</ele>
<time>2023-05-16T10:17:54Z</time>
</trkpt>
<trkpt lat="48.94414996728301" lon="9.698586920276284">
<ele>484</ele>
<time>2023-05-16T10:17:55Z</time>
</trkpt>
<trkpt lat="48.94421794451773" lon="9.698614999651909">
<ele>483.79999999999995</ele>
<time>2023-05-16T10:17:56Z</time>
</trkpt>
<trkpt lat="48.94427795894444" lon="9.698669984936714">
<ele>483.4</ele>
<time>2023-05-16T10:17:57Z</time>
</trkpt>
<trkpt lat="48.94433797337115" lon="9.698731927201152">
<ele>483.20000000000005</ele>
<time>2023-05-16T10:17:58Z</time>
</trkpt>
<trkpt lat="48.94438692368567" lon="9.698802921921015">
<ele>483</ele>
<time>2023-05-16T10:17:59Z</time>
</trkpt>
<trkpt lat="48.94442799501121" lon="9.698887998238206">
<ele>482.79999999999995</ele>
<time>2023-05-16T10:18:00Z</time>
</trkpt>
<trkpt lat="48.944456996396184" lon="9.698972990736365">
<ele>482.6</ele>
<time>2023-05-16T10:18:01Z</time>
</trkpt>
<trkpt lat="48.94448499195278" lon="9.699061922729015">
<ele>482.4</ele>
<time>2023-05-16T10:18:02Z</time>
</trkpt>
<trkpt lat="48.94450997002423" lon="9.699159990996122">
<ele>482.4</ele>
<time>2023-05-16T10:18:03Z</time>
</trkpt>
<trkpt lat="48.94453997723758" lon="9.699254957959056">
<ele>482.20000000000005</ele>
<time>2023-05-16T10:18:04Z</time>
</trkpt>
<trkpt lat="48.94456294365227" lon="9.69934992492199">
<ele>482</ele>
<time>2023-05-16T10:18:05Z</time>
</trkpt>
<trkpt lat="48.94458498805761" lon="9.699439946562052">
<ele>481.79999999999995</ele>
<time>2023-05-16T10:18:06Z</time>
</trkpt>
<trkpt lat="48.9446029253304" lon="9.699529968202114">
<ele>481.6</ele>
<time>2023-05-16T10:18:07Z</time>
</trkpt>
<trkpt lat="48.94462798722088" lon="9.6996049862355">
<ele>481.4</ele>
<time>2023-05-16T10:18:08Z</time>
</trkpt>
<trkpt lat="48.94465799443424" lon="9.699686961248517">
<ele>481.20000000000005</ele>
<time>2023-05-16T10:18:09Z</time>
</trkpt>
<trkpt lat="48.94468498416245" lon="9.69975795596838">
<ele>481.20000000000005</ele>
<time>2023-05-16T10:18:10Z</time>
</trkpt>
<trkpt lat="48.944721948355436" lon="9.699851917102933">
<ele>481</ele>
<time>2023-05-16T10:18:11Z</time>
</trkpt>
<trkpt lat="48.94475195556879" lon="9.699944956228137">
<ele>480.79999999999995</ele>
<time>2023-05-16T10:18:12Z</time>
</trkpt>
<trkpt lat="48.944782968610525" lon="9.70005995593965">
<ele>480.6</ele>
<time>2023-05-16T10:18:13Z</time>
</trkpt>
<trkpt lat="48.94481297582388" lon="9.700149977579713">
<ele>480.6</ele>
<time>2023-05-16T10:18:14Z</time>
</trkpt>
<trkpt lat="48.944846922531724" lon="9.700237987563014">
<ele>480.4</ele>
<time>2023-05-16T10:18:15Z</time>
</trkpt>
<trkpt lat="48.94487692974508" lon="9.700324991717935">
<ele>480.20000000000005</ele>
<time>2023-05-16T10:18:16Z</time>
</trkpt>
<trkpt lat="48.94490199163556" lon="9.700412917882204">
<ele>480</ele>
<time>2023-05-16T10:18:17Z</time>
</trkpt>
<trkpt lat="48.944952953606844" lon="9.700512997806072">
<ele>479.79999999999995</ele>
<time>2023-05-16T10:18:18Z</time>
</trkpt>
<trkpt lat="48.94499293528497" lon="9.700604947283864">
<ele>479.6</ele>
<time>2023-05-16T10:18:19Z</time>
</trkpt>
<trkpt lat="48.9450329169631" lon="9.700692957267165">
<ele>479.6</ele>
<time>2023-05-16T10:18:20Z</time>
</trkpt>
<trkpt lat="48.94507499411702" lon="9.70078993588686">
<ele>479.4</ele>
<time>2023-05-16T10:18:21Z</time>
</trkpt>
<trkpt lat="48.94511992111802" lon="9.700891943648458">
<ele>479.20000000000005</ele>
<time>2023-05-16T10:18:22Z</time>
</trkpt>
<trkpt lat="48.9451729785651" lon="9.700966961681843">
<ele>478.79999999999995</ele>
<time>2023-05-16T10:18:23Z</time>
</trkpt>
<trkpt lat="48.94522997550666" lon="9.701026976108551">
<ele>478.6</ele>
<time>2023-05-16T10:18:24Z</time>
</trkpt>
<trkpt lat="48.9452919177711" lon="9.701081961393356">
<ele>478.4</ele>
<time>2023-05-16T10:18:25Z</time>
</trkpt>
<trkpt lat="48.94535696133971" lon="9.701127978041768">
<ele>478</ele>
<time>2023-05-16T10:18:26Z</time>
</trkpt>
<trkpt lat="48.945427956059575" lon="9.701162930577993">
<ele>477.79999999999995</ele>
<time>2023-05-16T10:18:27Z</time>
</trkpt>
<trkpt lat="48.94549995660782" lon="9.701199978590012">
<ele>477.4</ele>
<time>2023-05-16T10:18:28Z</time>
</trkpt>
<trkpt lat="48.94557296298444" lon="9.701229985803366">
<ele>477</ele>
<time>2023-05-16T10:18:29Z</time>
</trkpt>
<trkpt lat="48.94564798101783" lon="9.701256975531578">
<ele>476.6</ele>
<time>2023-05-16T10:18:30Z</time>
</trkpt>
<trkpt lat="48.94571796990931" lon="9.701286982744932">
<ele>476.20000000000005</ele>
<time>2023-05-16T10:18:31Z</time>
</trkpt>
<trkpt lat="48.945791982114315" lon="9.701319923624396">
<ele>475.79999999999995</ele>
<time>2023-05-16T10:18:32Z</time>
</trkpt>
<trkpt lat="48.94586691632867" lon="9.70136795192957">
<ele>475.4</ele>
<time>2023-05-16T10:18:33Z</time>
</trkpt>
<trkpt lat="48.94593992270529" lon="9.7014319896698">
<ele>475</ele>
<time>2023-05-16T10:18:34Z</time>
</trkpt>
<trkpt lat="48.94600999541581" lon="9.701511953026056">
<ele>474.6</ele>
<time>2023-05-16T10:18:35Z</time>
</trkpt>
<trkpt lat="48.94608199596405" lon="9.701589988544583">
<ele>474</ele>
<time>2023-05-16T10:18:36Z</time>
</trkpt>
<trkpt lat="48.94614796154201" lon="9.701674981042743">
<ele>473.6</ele>
<time>2023-05-16T10:18:37Z</time>
</trkpt>
<trkpt lat="48.94621493294835" lon="9.701764918863773">
<ele>473.20000000000005</ele>
<time>2023-05-16T10:18:38Z</time>
</trkpt>
<trkpt lat="48.94628198817372" lon="9.701852928847075">
<ele>472.6</ele>
<time>2023-05-16T10:18:39Z</time>
</trkpt>
<trkpt lat="48.9463469479233" lon="9.701952924951911">
<ele>472.20000000000005</ele>
<time>2023-05-16T10:18:40Z</time>
</trkpt>
<trkpt lat="48.94640293903649" lon="9.70205795019865">
<ele>471.6</ele>
<time>2023-05-16T10:18:41Z</time>
</trkpt>
<trkpt lat="48.94645197317004" lon="9.70216297544539">
<ele>471.20000000000005</ele>
<time>2023-05-16T10:18:42Z</time>
</trkpt>
<trkpt lat="48.94650796428323" lon="9.702279986813664">
<ele>470.6</ele>
<time>2023-05-16T10:18:43Z</time>
</trkpt>
<trkpt lat="48.946564961224794" lon="9.702391969040036">
<ele>470</ele>
<time>2023-05-16T10:18:44Z</time>
</trkpt>
<trkpt lat="48.94662296399474" lon="9.702517949044704">
<ele>469.6</ele>
<time>2023-05-16T10:18:45Z</time>
</trkpt>
<trkpt lat="48.94667996093631" lon="9.70263797789812">
<ele>469</ele>
<time>2023-05-16T10:18:46Z</time>
</trkpt>
<trkpt lat="48.94674198701978" lon="9.702754989266396">
<ele>468.6</ele>
<time>2023-05-16T10:18:47Z</time>
</trkpt>
<trkpt lat="48.94681197591126" lon="9.70287292264402">
<ele>468</ele>
<time>2023-05-16T10:18:48Z</time>
</trkpt>
<trkpt lat="48.94692194648087" lon="9.70310996286571">
<ele>467.4</ele>
<time>2023-05-16T10:18:49Z</time>
</trkpt>
<trkpt lat="48.94698799587786" lon="9.703236948698759">
<ele>466.79999999999995</ele>
<time>2023-05-16T10:18:50Z</time>
</trkpt>
<trkpt lat="48.94705295562744" lon="9.70334499143064">
<ele>466.20000000000005</ele>
<time>2023-05-16T10:18:51Z</time>
</trkpt>
<trkpt lat="48.9471569750458" lon="9.703414980322123">
<ele>465.6</ele>
<time>2023-05-16T10:18:52Z</time>
</trkpt>
<trkpt lat="48.947234926745296" lon="9.70349796116352">
<ele>465.20000000000005</ele>
<time>2023-05-16T10:18:53Z</time>
</trkpt>
<trkpt lat="48.947317991405725" lon="9.703587982803583">
<ele>464.6</ele>
<time>2023-05-16T10:18:54Z</time>
</trkpt>
<trkpt lat="48.947407929226756" lon="9.703657971695065">
<ele>464</ele>
<time>2023-05-16T10:18:55Z</time>
</trkpt>
<trkpt lat="48.947489988058805" lon="9.703721925616264">
<ele>463.4</ele>
<time>2023-05-16T10:18:56Z</time>
</trkpt>
<trkpt lat="48.94756198860705" lon="9.703769953921437">
<ele>462.79999999999995</ele>
<time>2023-05-16T10:18:57Z</time>
</trkpt>
<trkpt lat="48.94762996584177" lon="9.703806918114424">
<ele>462.20000000000005</ele>
<time>2023-05-16T10:18:58Z</time>
</trkpt>
<trkpt lat="48.94769492559135" lon="9.703834997490048">
<ele>461.6</ele>
<time>2023-05-16T10:18:59Z</time>
</trkpt>
<trkpt lat="48.94775494001806" lon="9.7038599755615">
<ele>461</ele>
<time>2023-05-16T10:19:00Z</time>
</trkpt>
<trkpt lat="48.94780992530286" lon="9.703872967511415">
<ele>460.4</ele>
<time>2023-05-16T10:19:01Z</time>
</trkpt>
<trkpt lat="48.9478649944067" lon="9.70388495363295">
<ele>459.79999999999995</ele>
<time>2023-05-16T10:19:02Z</time>
</trkpt>
<trkpt lat="48.947917968034744" lon="9.703892916440964">
<ele>459.4</ele>
<time>2023-05-16T10:19:03Z</time>
</trkpt>
<trkpt lat="48.94796993583441" lon="9.70390297472477">
<ele>459</ele>
<time>2023-05-16T10:19:04Z</time>
</trkpt>
<trkpt lat="48.94801997579634" lon="9.70390792004764">
<ele>458.6</ele>
<time>2023-05-16T10:19:05Z</time>
</trkpt>
<trkpt lat="48.94806498661637" lon="9.70390792004764">
<ele>458.20000000000005</ele>
<time>2023-05-16T10:19:06Z</time>
</trkpt>
<trkpt lat="48.9480999391526" lon="9.703906998038292">
<ele>457.79999999999995</ele>
<time>2023-05-16T10:19:07Z</time>
</trkpt>
<trkpt lat="48.94812692888081" lon="9.703906998038292">
<ele>457.6</ele>
<time>2023-05-16T10:19:08Z</time>
</trkpt>
<trkpt lat="48.94814696162939" lon="9.703906998038292">
<ele>457.20000000000005</ele>
<time>2023-05-16T10:19:09Z</time>
</trkpt>
<trkpt lat="48.94816498272121" lon="9.70390792004764">
<ele>457</ele>
<time>2023-05-16T10:19:10Z</time>
</trkpt>
<trkpt lat="48.948177974671125" lon="9.70390297472477">
<ele>456.79999999999995</ele>
<time>2023-05-16T10:19:11Z</time>
</trkpt>
<trkpt lat="48.94818996079266" lon="9.703896939754486">
<ele>456.6</ele>
<time>2023-05-16T10:19:12Z</time>
</trkpt>
<trkpt lat="48.948199935257435" lon="9.703891994431615">
<ele>456.6</ele>
<time>2023-05-16T10:19:13Z</time>
</trkpt>
<trkpt lat="48.94821192137897" lon="9.703886965289712">
<ele>456.4</ele>
<time>2023-05-16T10:19:14Z</time>
</trkpt>
<trkpt lat="48.94822499714792" lon="9.703876990824938">
<ele>456.4</ele>
<time>2023-05-16T10:19:15Z</time>
</trkpt>
<trkpt lat="48.948237989097834" lon="9.703862993046641">
<ele>456.20000000000005</ele>
<time>2023-05-16T10:19:16Z</time>
</trkpt>
<trkpt lat="48.94825198687613" lon="9.703849917277694">
<ele>456.20000000000005</ele>
<time>2023-05-16T10:19:17Z</time>
</trkpt>
<trkpt lat="48.948262967169285" lon="9.703829968348145">
<ele>456.20000000000005</ele>
<time>2023-05-16T10:19:18Z</time>
</trkpt>
<trkpt lat="48.94827193580568" lon="9.703801972791553">
<ele>456.20000000000005</ele>
<time>2023-05-16T10:19:19Z</time>
</trkpt>
<trkpt lat="48.948281994089484" lon="9.703769953921437">
<ele>456.20000000000005</ele>
<time>2023-05-16T10:19:20Z</time>
</trkpt>
<trkpt lat="48.9482899568975" lon="9.70373298972845">
<ele>456.20000000000005</ele>
<time>2023-05-16T10:19:21Z</time>
</trkpt>
<trkpt lat="48.94829791970551" lon="9.70368999056518">
<ele>456.4</ele>
<time>2023-05-16T10:19:22Z</time>
</trkpt>
<trkpt lat="48.948307977989316" lon="9.703636933118105">
<ele>456.4</ele>
<time>2023-05-16T10:19:23Z</time>
</trkpt>
<trkpt lat="48.94831694662571" lon="9.703572979196906">
<ele>456.4</ele>
<time>2023-05-16T10:19:24Z</time>
</trkpt>
<trkpt lat="48.94831996411085" lon="9.703502990305424">
<ele>456.4</ele>
<time>2023-05-16T10:19:25Z</time>
</trkpt>
<trkpt lat="48.94832197576761" lon="9.70343199558556">
<ele>456.4</ele>
<time>2023-05-16T10:19:26Z</time>
</trkpt>
<trkpt lat="48.948324993252754" lon="9.703351948410273">
<ele>456.4</ele>
<time>2023-05-16T10:19:27Z</time>
</trkpt>
<trkpt lat="48.948327926918864" lon="9.703272990882397">
<ele>456.4</ele>
<time>2023-05-16T10:19:28Z</time>
</trkpt>
<trkpt lat="48.94833195023239" lon="9.703197972849011">
<ele>456.4</ele>
<time>2023-05-16T10:19:29Z</time>
</trkpt>
<trkpt lat="48.94833798520267" lon="9.703121948987246">
<ele>456.4</ele>
<time>2023-05-16T10:19:30Z</time>
</trkpt>
<trkpt lat="48.9483449421823" lon="9.7030449192971">
<ele>456.4</ele>
<time>2023-05-16T10:19:31Z</time>
</trkpt>
<trkpt lat="48.94835298880935" lon="9.702966967597604">
<ele>456.6</ele>
<time>2023-05-16T10:19:32Z</time>
</trkpt>
<trkpt lat="48.94835793413222" lon="9.702884992584586">
<ele>456.6</ele>
<time>2023-05-16T10:19:33Z</time>
</trkpt>
<trkpt lat="48.94836296327412" lon="9.70280695706606">
<ele>456.6</ele>
<time>2023-05-16T10:19:34Z</time>
</trkpt>
<trkpt lat="48.948366986587644" lon="9.702726993709803">
<ele>456.6</ele>
<time>2023-05-16T10:19:35Z</time>
</trkpt>
<trkpt lat="48.948369920253754" lon="9.702646946534514">
<ele>456.6</ele>
<time>2023-05-16T10:19:36Z</time>
</trkpt>
<trkpt lat="48.948371931910515" lon="9.702566983178258">
<ele>456.6</ele>
<time>2023-05-16T10:19:37Z</time>
</trkpt>
<trkpt lat="48.94837696105242" lon="9.70248794183135">
<ele>456.79999999999995</ele>
<time>2023-05-16T10:19:38Z</time>
</trkpt>
<trkpt lat="48.94837997853756" lon="9.702412923797965">
<ele>456.79999999999995</ele>
<time>2023-05-16T10:19:39Z</time>
</trkpt>
<trkpt lat="48.9483829960227" lon="9.702337989583611">
<ele>456.79999999999995</ele>
<time>2023-05-16T10:19:40Z</time>
</trkpt>
<trkpt lat="48.94838794134557" lon="9.702261965721846">
<ele>456.79999999999995</ele>
<time>2023-05-16T10:19:41Z</time>
</trkpt>
<trkpt lat="48.948392970487475" lon="9.702179990708828">
<ele>456.79999999999995</ele>
<time>2023-05-16T10:19:42Z</time>
</trkpt>
<trkpt lat="48.94839799962938" lon="9.702101955190301">
<ele>456.79999999999995</ele>
<time>2023-05-16T10:19:43Z</time>
</trkpt>
<trkpt lat="48.94839992746711" lon="9.702026937156916">
<ele>456.79999999999995</ele>
<time>2023-05-16T10:19:44Z</time>
</trkpt>
<trkpt lat="48.94840294495225" lon="9.701949991285801">
<ele>456.79999999999995</ele>
<time>2023-05-16T10:19:45Z</time>
</trkpt>
<trkpt lat="48.94840495660901" lon="9.701871955767274">
<ele>456.79999999999995</ele>
<time>2023-05-16T10:19:46Z</time>
</trkpt>
<trkpt lat="48.948409985750914" lon="9.701787969097495">
<ele>456.79999999999995</ele>
<time>2023-05-16T10:19:47Z</time>
</trkpt>
<trkpt lat="48.948411997407675" lon="9.701704988256097">
<ele>456.79999999999995</ele>
<time>2023-05-16T10:19:48Z</time>
</trkpt>
<trkpt lat="48.948414931073785" lon="9.701619995757937">
<ele>456.79999999999995</ele>
<time>2023-05-16T10:19:49Z</time>
</trkpt>
<trkpt lat="48.94841794855893" lon="9.701531985774636">
<ele>456.79999999999995</ele>
<time>2023-05-16T10:19:50Z</time>
</trkpt>
<trkpt lat="48.94842297770083" lon="9.701446993276477">
<ele>456.79999999999995</ele>
<time>2023-05-16T10:19:51Z</time>
</trkpt>
<trkpt lat="48.94842691719532" lon="9.701364934444427">
<ele>456.79999999999995</ele>
<time>2023-05-16T10:19:52Z</time>
</trkpt>
<trkpt lat="48.94842993468046" lon="9.70128295943141">
<ele>456.6</ele>
<time>2023-05-16T10:19:53Z</time>
</trkpt>
<trkpt lat="48.948432952165604" lon="9.70119796693325">
<ele>456.6</ele>
<time>2023-05-16T10:19:54Z</time>
</trkpt>
<trkpt lat="48.94843798130751" lon="9.70111196860671">
<ele>456.4</ele>
<time>2023-05-16T10:19:55Z</time>
</trkpt>
<trkpt lat="48.94844292663038" lon="9.70102496445179">
<ele>456.4</ele>
<time>2023-05-16T10:19:56Z</time>
</trkpt>
<trkpt lat="48.9484469499439" lon="9.700934942811728">
<ele>456.4</ele>
<time>2023-05-16T10:19:57Z</time>
</trkpt>
<trkpt lat="48.94844996742904" lon="9.700841987505555">
<ele>456.20000000000005</ele>
<time>2023-05-16T10:19:58Z</time>
</trkpt>
<trkpt lat="48.948454996570945" lon="9.700751965865493">
<ele>456.20000000000005</ele>
<time>2023-05-16T10:19:59Z</time>
</trkpt>
<trkpt lat="48.948457930237055" lon="9.700657920911908">
<ele>456</ele>
<time>2023-05-16T10:20:00Z</time>
</trkpt>
<trkpt lat="48.94846195355058" lon="9.700564965605736">
<ele>456</ele>
<time>2023-05-16T10:20:01Z</time>
</trkpt>
<trkpt lat="48.94846698269248" lon="9.700469998642802">
<ele>456</ele>
<time>2023-05-16T10:20:02Z</time>
</trkpt>
<trkpt lat="48.94847192801535" lon="9.700376959517598">
<ele>455.79999999999995</ele>
<time>2023-05-16T10:20:03Z</time>
</trkpt>
<trkpt lat="48.948476957157254" lon="9.700282998383045">
<ele>455.6</ele>
<time>2023-05-16T10:20:04Z</time>
</trkpt>
<trkpt lat="48.94848299212754" lon="9.700189959257841">
<ele>455.6</ele>
<time>2023-05-16T10:20:05Z</time>
</trkpt>
<trkpt lat="48.94848793745041" lon="9.700096920132637">
<ele>455.4</ele>
<time>2023-05-16T10:20:06Z</time>
</trkpt>
<trkpt lat="48.94849497824907" lon="9.700002958998084">
<ele>455.4</ele>
<time>2023-05-16T10:20:07Z</time>
</trkpt>
<trkpt lat="48.948499923571944" lon="9.69990799203515">
<ele>455.4</ele>
<time>2023-05-16T10:20:08Z</time>
</trkpt>
<trkpt lat="48.948502941057086" lon="9.699812941253185">
<ele>455.20000000000005</ele>
<time>2023-05-16T10:20:09Z</time>
</trkpt>
<trkpt lat="48.94850797019899" lon="9.699721997603774">
<ele>455.20000000000005</ele>
<time>2023-05-16T10:20:10Z</time>
</trkpt>
<trkpt lat="48.94851199351251" lon="9.699631975963712">
<ele>455.20000000000005</ele>
<time>2023-05-16T10:20:11Z</time>
</trkpt>
<trkpt lat="48.94851492717862" lon="9.699546983465552">
<ele>455.20000000000005</ele>
<time>2023-05-16T10:20:12Z</time>
</trkpt>
<trkpt lat="48.94851794466376" lon="9.699462996795774">
<ele>455.20000000000005</ele>
<time>2023-05-16T10:20:13Z</time>
</trkpt>
<trkpt lat="48.948522973805666" lon="9.699381943792105">
<ele>455.20000000000005</ele>
<time>2023-05-16T10:20:14Z</time>
</trkpt>
<trkpt lat="48.94852791912854" lon="9.699299968779087">
<ele>455</ele>
<time>2023-05-16T10:20:15Z</time>
</trkpt>
<trkpt lat="48.94853294827044" lon="9.69921799376607">
<ele>455</ele>
<time>2023-05-16T10:20:16Z</time>
</trkpt>
<trkpt lat="48.94853697158396" lon="9.699132917448878">
<ele>455</ele>
<time>2023-05-16T10:20:17Z</time>
</trkpt>
<trkpt lat="48.948539989069104" lon="9.69904993660748">
<ele>455</ele>
<time>2023-05-16T10:20:18Z</time>
</trkpt>
<trkpt lat="48.948544934391975" lon="9.69896494410932">
<ele>455</ele>
<time>2023-05-16T10:20:19Z</time>
</trkpt>
<trkpt lat="48.94854996353388" lon="9.698882969096303">
<ele>455</ele>
<time>2023-05-16T10:20:20Z</time>
</trkpt>
<trkpt lat="48.94855197519064" lon="9.698806945234537">
<ele>455</ele>
<time>2023-05-16T10:20:21Z</time>
</trkpt>
<trkpt lat="48.94855499267578" lon="9.698729999363422">
<ele>455</ele>
<time>2023-05-16T10:20:22Z</time>
</trkpt>
<trkpt lat="48.94855993799865" lon="9.698654981330037">
<ele>455</ele>
<time>2023-05-16T10:20:23Z</time>
</trkpt>
<trkpt lat="48.948564967140555" lon="9.698579963296652">
<ele>455</ele>
<time>2023-05-16T10:20:24Z</time>
</trkpt>
<trkpt lat="48.94856999628246" lon="9.698502933606505">
<ele>455</ele>
<time>2023-05-16T10:20:25Z</time>
</trkpt>
<trkpt lat="48.94857292994857" lon="9.698427999392152">
<ele>455</ele>
<time>2023-05-16T10:20:26Z</time>
</trkpt>
<trkpt lat="48.94857695326209" lon="9.698354993015528">
<ele>455</ele>
<time>2023-05-16T10:20:27Z</time>
</trkpt>
<trkpt lat="48.948581982403994" lon="9.698281986638904">
<ele>455</ele>
<time>2023-05-16T10:20:28Z</time>
</trkpt>
<trkpt lat="48.948584999889135" lon="9.698207974433899">
<ele>455</ele>
<time>2023-05-16T10:20:29Z</time>
</trkpt>
<trkpt lat="48.948587933555245" lon="9.698132956400514">
<ele>455</ele>
<time>2023-05-16T10:20:30Z</time>
</trkpt>
<trkpt lat="48.94858994521201" lon="9.69806196168065">
<ele>455.20000000000005</ele>
<time>2023-05-16T10:20:31Z</time>
</trkpt>
<trkpt lat="48.94859497435391" lon="9.697989961132407">
<ele>455.20000000000005</ele>
<time>2023-05-16T10:20:32Z</time>
</trkpt>
<trkpt lat="48.94859991967678" lon="9.697919972240925">
<ele>455.20000000000005</ele>
<time>2023-05-16T10:20:33Z</time>
</trkpt>
<trkpt lat="48.948604948818684" lon="9.697849983349442">
<ele>455.4</ele>
<time>2023-05-16T10:20:34Z</time>
</trkpt>
<trkpt lat="48.948606960475445" lon="9.697777982801199">
<ele>455.4</ele>
<time>2023-05-16T10:20:35Z</time>
</trkpt>
<trkpt lat="48.94860997796059" lon="9.697706988081336">
<ele>455.6</ele>
<time>2023-05-16T10:20:36Z</time>
</trkpt>
<trkpt lat="48.94861492328346" lon="9.697636999189854">
<ele>455.6</ele>
<time>2023-05-16T10:20:37Z</time>
</trkpt>
<trkpt lat="48.9486179407686" lon="9.69756499864161">
<ele>455.79999999999995</ele>
<time>2023-05-16T10:20:38Z</time>
</trkpt>
<trkpt lat="48.94862196408212" lon="9.697494925931096">
<ele>455.79999999999995</ele>
<time>2023-05-16T10:20:39Z</time>
</trkpt>
<trkpt lat="48.948626993224025" lon="9.697424937039614">
<ele>455.79999999999995</ele>
<time>2023-05-16T10:20:40Z</time>
</trkpt>
<trkpt lat="48.948629926890135" lon="9.697354948148131">
<ele>456</ele>
<time>2023-05-16T10:20:41Z</time>
</trkpt>
<trkpt lat="48.94863294437528" lon="9.697284959256649">
<ele>456</ele>
<time>2023-05-16T10:20:42Z</time>
</trkpt>
<trkpt lat="48.9486369676888" lon="9.697211952880025">
<ele>456</ele>
<time>2023-05-16T10:20:43Z</time>
</trkpt>
<trkpt lat="48.94863998517394" lon="9.69713794067502">
<ele>456.20000000000005</ele>
<time>2023-05-16T10:20:44Z</time>
</trkpt>
<trkpt lat="48.94864493049681" lon="9.697064934298396">
<ele>456.20000000000005</ele>
<time>2023-05-16T10:20:45Z</time>
</trkpt>
<trkpt lat="48.94864694215357" lon="9.696991927921772">
<ele>456.20000000000005</ele>
<time>2023-05-16T10:20:46Z</time>
</trkpt>
<trkpt lat="48.948649959638715" lon="9.69692193903029">
<ele>456.20000000000005</ele>
<time>2023-05-16T10:20:47Z</time>
</trkpt>
<trkpt lat="48.94865498878062" lon="9.696851950138807">
<ele>456.4</ele>
<time>2023-05-16T10:20:48Z</time>
</trkpt>
<trkpt lat="48.94865792244673" lon="9.696781961247325">
<ele>456.4</ele>
<time>2023-05-16T10:20:49Z</time>
</trkpt>
<trkpt lat="48.94866194576025" lon="9.696709960699081">
<ele>456.4</ele>
<time>2023-05-16T10:20:50Z</time>
</trkpt>
<trkpt lat="48.94866496324539" lon="9.696639971807599">
<ele>456.4</ele>
<time>2023-05-16T10:20:51Z</time>
</trkpt>
<trkpt lat="48.948669992387295" lon="9.696571994572878">
<ele>456.6</ele>
<time>2023-05-16T10:20:52Z</time>
</trkpt>
<trkpt lat="48.948674937710166" lon="9.696499994024634">
<ele>456.6</ele>
<time>2023-05-16T10:20:53Z</time>
</trkpt>
<trkpt lat="48.94867996685207" lon="9.69642992131412">
<ele>456.6</ele>
<time>2023-05-16T10:20:54Z</time>
</trkpt>
<trkpt lat="48.94868298433721" lon="9.696357920765877">
<ele>456.6</ele>
<time>2023-05-16T10:20:55Z</time>
</trkpt>
<trkpt lat="48.94868792966008" lon="9.696292961016297">
<ele>456.79999999999995</ele>
<time>2023-05-16T10:20:56Z</time>
</trkpt>
<trkpt lat="48.94868994131684" lon="9.696229929104447">
<ele>456.79999999999995</ele>
<time>2023-05-16T10:20:57Z</time>
</trkpt>
<trkpt lat="48.948692958801985" lon="9.696164969354868">
<ele>457</ele>
<time>2023-05-16T10:20:58Z</time>
</trkpt>
<trkpt lat="48.94869798794389" lon="9.696102943271399">
<ele>457</ele>
<time>2023-05-16T10:20:59Z</time>
</trkpt>
<trkpt lat="48.94870192743838" lon="9.69604292884469">
<ele>457.20000000000005</ele>
<time>2023-05-16T10:21:00Z</time>
</trkpt>
<trkpt lat="48.94870494492352" lon="9.695979980751872">
<ele>457.4</ele>
<time>2023-05-16T10:21:01Z</time>
</trkpt>
<trkpt lat="48.94870695658028" lon="9.695914937183261">
<ele>457.4</ele>
<time>2023-05-16T10:21:02Z</time>
</trkpt>
<trkpt lat="48.94870796240866" lon="9.695851989090443">
<ele>457.6</ele>
<time>2023-05-16T10:21:03Z</time>
</trkpt>
<trkpt lat="48.948711985722184" lon="9.695791974663734">
<ele>457.79999999999995</ele>
<time>2023-05-16T10:21:04Z</time>
</trkpt>
<trkpt lat="48.948716931045055" lon="9.695727936923504">
<ele>458</ele>
<time>2023-05-16T10:21:05Z</time>
</trkpt>
<trkpt lat="48.94872196018696" lon="9.695664988830686">
<ele>458</ele>
<time>2023-05-16T10:21:06Z</time>
</trkpt>
<trkpt lat="48.9487249776721" lon="9.695599945262074">
<ele>458.20000000000005</ele>
<time>2023-05-16T10:21:07Z</time>
</trkpt>
<trkpt lat="48.94872992299497" lon="9.695536997169256">
<ele>458.4</ele>
<time>2023-05-16T10:21:08Z</time>
</trkpt>
<trkpt lat="48.94873294048011" lon="9.695476982742548">
<ele>458.4</ele>
<time>2023-05-16T10:21:09Z</time>
</trkpt>
<trkpt lat="48.948734952136874" lon="9.695419985800982">
<ele>458.6</ele>
<time>2023-05-16T10:21:10Z</time>
</trkpt>
<trkpt lat="48.948736963793635" lon="9.695361983031034">
<ele>458.6</ele>
<time>2023-05-16T10:21:11Z</time>
</trkpt>
<trkpt lat="48.94873998127878" lon="9.695302974432707">
<ele>458.79999999999995</ele>
<time>2023-05-16T10:21:12Z</time>
</trkpt>
<trkpt lat="48.94874299876392" lon="9.695239942520857">
<ele>458.79999999999995</ele>
<time>2023-05-16T10:21:13Z</time>
</trkpt>
<trkpt lat="48.94874492660165" lon="9.695176994428039">
<ele>458.79999999999995</ele>
<time>2023-05-16T10:21:14Z</time>
</trkpt>
<trkpt lat="48.94874794408679" lon="9.695112956687808">
<ele>459</ele>
<time>2023-05-16T10:21:15Z</time>
</trkpt>
<trkpt lat="48.94875297322869" lon="9.695047996938229">
<ele>459</ele>
<time>2023-05-16T10:21:16Z</time>
</trkpt>
<trkpt lat="48.948756996542215" lon="9.694981947541237">
<ele>459</ele>
<time>2023-05-16T10:21:17Z</time>
</trkpt>
<trkpt lat="48.948759930208325" lon="9.694912964478135">
<ele>459</ele>
<time>2023-05-16T10:21:18Z</time>
</trkpt>
<trkpt lat="48.94876294769347" lon="9.694844987243414">
<ele>459</ele>
<time>2023-05-16T10:21:19Z</time>
</trkpt>
<trkpt lat="48.94876697100699" lon="9.69477298669517">
<ele>459.20000000000005</ele>
<time>2023-05-16T10:21:20Z</time>
</trkpt>
<trkpt lat="48.94877191632986" lon="9.694699980318546">
<ele>459.20000000000005</ele>
<time>2023-05-16T10:21:21Z</time>
</trkpt>
<trkpt lat="48.948774933815" lon="9.694629991427064">
<ele>459.20000000000005</ele>
<time>2023-05-16T10:21:22Z</time>
</trkpt>
<trkpt lat="48.948777951300144" lon="9.69455698505044">
<ele>459.20000000000005</ele>
<time>2023-05-16T10:21:23Z</time>
</trkpt>
<trkpt lat="48.94878197461367" lon="9.694484984502196">
<ele>459.20000000000005</ele>
<time>2023-05-16T10:21:24Z</time>
</trkpt>
<trkpt lat="48.94878499209881" lon="9.694414995610714">
<ele>459.20000000000005</ele>
<time>2023-05-16T10:21:25Z</time>
</trkpt>
<trkpt lat="48.94878691993654" lon="9.6943449229002">
<ele>459.20000000000005</ele>
<time>2023-05-16T10:21:26Z</time>
</trkpt>
<trkpt lat="48.94878792576492" lon="9.694274934008718">
<ele>459.20000000000005</ele>
<time>2023-05-16T10:21:27Z</time>
</trkpt>
<trkpt lat="48.94878993742168" lon="9.694202933460474">
<ele>459.20000000000005</ele>
<time>2023-05-16T10:21:28Z</time>
</trkpt>
<trkpt lat="48.94879194907844" lon="9.69412799924612">
<ele>459.4</ele>
<time>2023-05-16T10:21:29Z</time>
</trkpt>
<trkpt lat="48.94879496656358" lon="9.694049963727593">
<ele>459.4</ele>
<time>2023-05-16T10:21:30Z</time>
</trkpt>
<trkpt lat="48.948799995705485" lon="9.693971928209066">
<ele>459.4</ele>
<time>2023-05-16T10:21:31Z</time>
</trkpt>
<trkpt lat="48.948802929371595" lon="9.693894982337952">
<ele>459.4</ele>
<time>2023-05-16T10:21:32Z</time>
</trkpt>
<trkpt lat="48.94880695268512" lon="9.693814935162663">
<ele>459.4</ele>
<time>2023-05-16T10:21:33Z</time>
</trkpt>
<trkpt lat="48.94880997017026" lon="9.693736983463168">
<ele>459.4</ele>
<time>2023-05-16T10:21:34Z</time>
</trkpt>
<trkpt lat="48.9488129876554" lon="9.693659953773022">
<ele>459.4</ele>
<time>2023-05-16T10:21:35Z</time>
</trkpt>
<trkpt lat="48.94881692714989" lon="9.693576972931623">
<ele>459.20000000000005</ele>
<time>2023-05-16T10:21:36Z</time>
</trkpt>
<trkpt lat="48.948819944635034" lon="9.693492986261845">
<ele>459.20000000000005</ele>
<time>2023-05-16T10:21:37Z</time>
</trkpt>
<trkpt lat="48.948821956291795" lon="9.693411933258176">
<ele>459.20000000000005</ele>
<time>2023-05-16T10:21:38Z</time>
</trkpt>
<trkpt lat="48.94882497377694" lon="9.693327946588397">
<ele>459.20000000000005</ele>
<time>2023-05-16T10:21:39Z</time>
</trkpt>
<trkpt lat="48.94882991909981" lon="9.693244965746999">
<ele>459</ele>
<time>2023-05-16T10:21:40Z</time>
</trkpt>
<trkpt lat="48.94883293658495" lon="9.693156955763698">
<ele>459</ele>
<time>2023-05-16T10:21:41Z</time>
</trkpt>
<trkpt lat="48.94883293658495" lon="9.693064922466874">
<ele>458.79999999999995</ele>
<time>2023-05-16T10:21:42Z</time>
</trkpt>
<trkpt lat="48.94883695989847" lon="9.692971967160702">
<ele>458.79999999999995</ele>
<time>2023-05-16T10:21:43Z</time>
</trkpt>
<trkpt lat="48.948839977383614" lon="9.69288194552064">
<ele>458.6</ele>
<time>2023-05-16T10:21:44Z</time>
</trkpt>
<trkpt lat="48.948842994868755" lon="9.692787984386086">
<ele>458.20000000000005</ele>
<time>2023-05-16T10:21:45Z</time>
</trkpt>
<trkpt lat="48.948842994868755" lon="9.69269192777574">
<ele>458</ele>
<time>2023-05-16T10:21:46Z</time>
</trkpt>
<trkpt lat="48.948844922706485" lon="9.692591931670904">
<ele>457.6</ele>
<time>2023-05-16T10:21:47Z</time>
</trkpt>
<trkpt lat="48.94884794019163" lon="9.69249696470797">
<ele>457.4</ele>
<time>2023-05-16T10:21:48Z</time>
</trkpt>
<trkpt lat="48.94885196350515" lon="9.692394956946373">
<ele>457</ele>
<time>2023-05-16T10:21:49Z</time>
</trkpt>
<trkpt lat="48.94884995184839" lon="9.692289931699634">
<ele>456.79999999999995</ele>
<time>2023-05-16T10:21:50Z</time>
</trkpt>
<trkpt lat="48.94885196350515" lon="9.692179961130023">
<ele>456.6</ele>
<time>2023-05-16T10:21:51Z</time>
</trkpt>
<trkpt lat="48.94885196350515" lon="9.692071918398142">
<ele>456.20000000000005</ele>
<time>2023-05-16T10:21:52Z</time>
</trkpt>
<trkpt lat="48.948846934363246" lon="9.691961947828531">
<ele>456</ele>
<time>2023-05-16T10:21:53Z</time>
</trkpt>
<trkpt lat="48.948844922706485" lon="9.691846948117018">
<ele>455.79999999999995</ele>
<time>2023-05-16T10:21:54Z</time>
</trkpt>
<trkpt lat="48.94884794019163" lon="9.691732954233885">
<ele>455.4</ele>
<time>2023-05-16T10:21:55Z</time>
</trkpt>
<trkpt lat="48.94884995184839" lon="9.69161493703723">
<ele>455.20000000000005</ele>
<time>2023-05-16T10:21:56Z</time>
</trkpt>
<trkpt lat="48.94885196350515" lon="9.691501948982477">
<ele>455</ele>
<time>2023-05-16T10:21:57Z</time>
</trkpt>
<trkpt lat="48.94885296933353" lon="9.691389966756105">
<ele>454.6</ele>
<time>2023-05-16T10:21:58Z</time>
</trkpt>
<trkpt lat="48.94885498099029" lon="9.69127194955945">
<ele>454.4</ele>
<time>2023-05-16T10:21:59Z</time>
</trkpt>
<trkpt lat="48.94885296933353" lon="9.691147981211543">
<ele>454.20000000000005</ele>
<time>2023-05-16T10:22:00Z</time>
</trkpt>
<trkpt lat="48.94885196350515" lon="9.691027952358127">
<ele>453.79999999999995</ele>
<time>2023-05-16T10:22:01Z</time>
</trkpt>
<trkpt lat="48.94885699264705" lon="9.69090792350471">
<ele>453.6</ele>
<time>2023-05-16T10:22:02Z</time>
</trkpt>
<trkpt lat="48.94885699264705" lon="9.690782949328423">
<ele>453.20000000000005</ele>
<time>2023-05-16T10:22:03Z</time>
</trkpt>
<trkpt lat="48.94885699264705" lon="9.690654957666993">
<ele>452.79999999999995</ele>
<time>2023-05-16T10:22:04Z</time>
</trkpt>
<trkpt lat="48.94885296933353" lon="9.690526966005564">
<ele>452.4</ele>
<time>2023-05-16T10:22:05Z</time>
</trkpt>
<trkpt lat="48.94885296933353" lon="9.690396962687373">
<ele>452</ele>
<time>2023-05-16T10:22:06Z</time>
</trkpt>
<trkpt lat="48.94884995184839" lon="9.690254973247647">
<ele>451.6</ele>
<time>2023-05-16T10:22:07Z</time>
</trkpt>
<trkpt lat="48.94884794019163" lon="9.690114995464683">
<ele>451.20000000000005</ele>
<time>2023-05-16T10:22:08Z</time>
</trkpt>
<trkpt lat="48.94885498099029" lon="9.689972922205925">
<ele>450.79999999999995</ele>
<time>2023-05-16T10:22:09Z</time>
</trkpt>
<trkpt lat="48.94885498099029" lon="9.689827999100089">
<ele>450.4</ele>
<time>2023-05-16T10:22:10Z</time>
</trkpt>
<trkpt lat="48.94885498099029" lon="9.689677963033319">
<ele>450</ele>
<time>2023-05-16T10:22:11Z</time>
</trkpt>
<trkpt lat="48.94885992631316" lon="9.689519964158535">
<ele>449.4</ele>
<time>2023-05-16T10:22:12Z</time>
</trkpt>
<trkpt lat="48.94886797294021" lon="9.689352996647358">
<ele>448.79999999999995</ele>
<time>2023-05-16T10:22:13Z</time>
</trkpt>
<trkpt lat="48.94887995906174" lon="9.68918695114553">
<ele>448.20000000000005</ele>
<time>2023-05-16T10:22:14Z</time>
</trkpt>
<trkpt lat="48.94889295101166" lon="9.689021995291114">
<ele>447.79999999999995</ele>
<time>2023-05-16T10:22:15Z</time>
</trkpt>
<trkpt lat="48.948906948789954" lon="9.68886299058795">
<ele>447.4</ele>
<time>2023-05-16T10:22:16Z</time>
</trkpt>
<trkpt lat="48.94892295822501" lon="9.688716977834702">
<ele>447</ele>
<time>2023-05-16T10:22:17Z</time>
</trkpt>
<trkpt lat="48.94894299097359" lon="9.688572976738214">
<ele>446.79999999999995</ele>
<time>2023-05-16T10:22:18Z</time>
</trkpt>
<trkpt lat="48.94896696321666" lon="9.688451942056417">
<ele>446.6</ele>
<time>2023-05-16T10:22:19Z</time>
</trkpt>
<trkpt lat="48.94898992963135" lon="9.688339959830046">
<ele>446.4</ele>
<time>2023-05-16T10:22:20Z</time>
</trkpt>
<trkpt lat="48.949014991521835" lon="9.688229989260435">
<ele>446.20000000000005</ele>
<time>2023-05-16T10:22:21Z</time>
</trkpt>
<trkpt lat="48.94904298707843" lon="9.688124964013696">
<ele>446</ele>
<time>2023-05-16T10:22:22Z</time>
</trkpt>
<trkpt lat="48.94906997680664" lon="9.688016921281815">
<ele>445.6</ele>
<time>2023-05-16T10:22:23Z</time>
</trkpt>
<trkpt lat="48.94909495487809" lon="9.687901921570301">
<ele>445.20000000000005</ele>
<time>2023-05-16T10:22:24Z</time>
</trkpt>
<trkpt lat="48.94911993294954" lon="9.687781976535916">
<ele>444.79999999999995</ele>
<time>2023-05-16T10:22:25Z</time>
</trkpt>
<trkpt lat="48.94913996569812" lon="9.687659936025739">
<ele>444.4</ele>
<time>2023-05-16T10:22:26Z</time>
</trkpt>
<trkpt lat="48.9491549693048" lon="9.687541918829083">
<ele>444</ele>
<time>2023-05-16T10:22:27Z</time>
</trkpt>
<trkpt lat="48.94917299039662" lon="9.687421973794699">
<ele>443.6</ele>
<time>2023-05-16T10:22:28Z</time>
</trkpt>
<trkpt lat="48.94919696263969" lon="9.687299933284521">
<ele>443</ele>
<time>2023-05-16T10:22:29Z</time>
</trkpt>
<trkpt lat="48.94921992905438" lon="9.687176970764995">
<ele>442.4</ele>
<time>2023-05-16T10:22:30Z</time>
</trkpt>
<trkpt lat="48.94923996180296" lon="9.687049984931946">
<ele>441.79999999999995</ele>
<time>2023-05-16T10:22:31Z</time>
</trkpt>
<trkpt lat="48.94926292821765" lon="9.686921993270516">
<ele>441</ele>
<time>2023-05-16T10:22:32Z</time>
</trkpt>
<trkpt lat="48.94928991794586" lon="9.686792995780706">
<ele>440.4</ele>
<time>2023-05-16T10:22:33Z</time>
</trkpt>
<trkpt lat="48.949316991493106" lon="9.686662992462516">
<ele>439.6</ele>
<time>2023-05-16T10:22:34Z</time>
</trkpt>
<trkpt lat="48.94934699870646" lon="9.686527960002422">
<ele>438.79999999999995</ele>
<time>2023-05-16T10:22:35Z</time>
</trkpt>
<trkpt lat="48.949379939585924" lon="9.686397956684232">
<ele>438</ele>
<time>2023-05-16T10:22:36Z</time>
</trkpt>
<trkpt lat="48.94941799342632" lon="9.686274994164705">
<ele>437.4</ele>
<time>2023-05-16T10:22:37Z</time>
</trkpt>
<trkpt lat="48.94946199841797" lon="9.686154965311289">
<ele>436.6</ele>
<time>2023-05-16T10:22:38Z</time>
</trkpt>
<trkpt lat="48.94950692541897" lon="9.686037953943014">
<ele>436</ele>
<time>2023-05-16T10:22:39Z</time>
</trkpt>
<trkpt lat="48.949552942067385" lon="9.685927983373404">
<ele>435.4</ele>
<time>2023-05-16T10:22:40Z</time>
</trkpt>
<trkpt lat="48.94959996454418" lon="9.685829998925328">
<ele>435</ele>
<time>2023-05-16T10:22:41Z</time>
</trkpt>
<trkpt lat="48.94964296370745" lon="9.685736959800124">
<ele>434.79999999999995</ele>
<time>2023-05-16T10:22:42Z</time>
</trkpt>
<trkpt lat="48.949681939557195" lon="9.685646938160062">
<ele>434.79999999999995</ele>
<time>2023-05-16T10:22:43Z</time>
</trkpt>
<trkpt lat="48.94972192123532" lon="9.685569992288947">
<ele>434.79999999999995</ele>
<time>2023-05-16T10:22:44Z</time>
</trkpt>
<trkpt lat="48.94975997507572" lon="9.685502937063575">
<ele>435</ele>
<time>2023-05-16T10:22:45Z</time>
</trkpt>
<trkpt lat="48.94979199394584" lon="9.685436971485615">
<ele>435.20000000000005</ele>
<time>2023-05-16T10:22:46Z</time>
</trkpt>
<trkpt lat="48.9498249348253" lon="9.685371927917004">
<ele>435.4</ele>
<time>2023-05-16T10:22:47Z</time>
</trkpt>
<trkpt lat="48.94985695369542" lon="9.685304956510663">
<ele>435.4</ele>
<time>2023-05-16T10:22:48Z</time>
</trkpt>
<trkpt lat="48.94989199005067" lon="9.685241924598813">
<ele>435.6</ele>
<time>2023-05-16T10:22:49Z</time>
</trkpt>
<trkpt lat="48.9499269425869" lon="9.685176964849234">
<ele>435.79999999999995</ele>
<time>2023-05-16T10:22:50Z</time>
</trkpt>
<trkpt lat="48.949959967285395" lon="9.685111921280622">
<ele>435.79999999999995</ele>
<time>2023-05-16T10:22:51Z</time>
</trkpt>
<trkpt lat="48.94998997449875" lon="9.685047967359424">
<ele>436</ele>
<time>2023-05-16T10:22:52Z</time>
</trkpt>
<trkpt lat="48.95001696422696" lon="9.684987952932715">
<ele>436.20000000000005</ele>
<time>2023-05-16T10:22:53Z</time>
</trkpt>
<trkpt lat="48.95003699697554" lon="9.684936990961432">
<ele>436.6</ele>
<time>2023-05-16T10:22:54Z</time>
</trkpt>
<trkpt lat="48.95005292259157" lon="9.684886950999498">
<ele>436.79999999999995</ele>
<time>2023-05-16T10:22:55Z</time>
</trkpt>
<trkpt lat="48.950069937855005" lon="9.684834983199835">
<ele>437</ele>
<time>2023-05-16T10:22:56Z</time>
</trkpt>
<trkpt lat="48.95008494146168" lon="9.684781925752759">
<ele>437.4</ele>
<time>2023-05-16T10:22:57Z</time>
</trkpt>
<trkpt lat="48.95010497421026" lon="9.684732975438237">
<ele>437.6</ele>
<time>2023-05-16T10:22:58Z</time>
</trkpt>
<trkpt lat="48.95012492313981" lon="9.684684947133064">
<ele>437.79999999999995</ele>
<time>2023-05-16T10:22:59Z</time>
</trkpt>
<trkpt lat="48.95014696754515" lon="9.684629961848259">
<ele>438</ele>
<time>2023-05-16T10:23:00Z</time>
</trkpt>
<trkpt lat="48.95016197115183" lon="9.684577994048595">
<ele>438.20000000000005</ele>
<time>2023-05-16T10:23:01Z</time>
</trkpt>
<trkpt lat="48.9501669164747" lon="9.684517979621887">
<ele>438.4</ele>
<time>2023-05-16T10:23:02Z</time>
</trkpt>
<trkpt lat="48.9501669164747" lon="9.684454947710037">
<ele>438.6</ele>
<time>2023-05-16T10:23:03Z</time>
</trkpt>
<trkpt lat="48.95016498863697" lon="9.684394933283329">
<ele>438.6</ele>
<time>2023-05-16T10:23:04Z</time>
</trkpt>
<trkpt lat="48.95016297698021" lon="9.68433198519051">
<ele>438.79999999999995</ele>
<time>2023-05-16T10:23:05Z</time>
</trkpt>
<trkpt lat="48.95016498863697" lon="9.6842669416219">
<ele>438.79999999999995</ele>
<time>2023-05-16T10:23:06Z</time>
</trkpt>
<trkpt lat="48.95016993395984" lon="9.684199970215559">
<ele>438.79999999999995</ele>
<time>2023-05-16T10:23:07Z</time>
</trkpt>
<trkpt lat="48.95017295144498" lon="9.68411992304027">
<ele>438.79999999999995</ele>
<time>2023-05-16T10:23:08Z</time>
</trkpt>
<trkpt lat="48.950174963101745" lon="9.68403291888535">
<ele>438.79999999999995</ele>
<time>2023-05-16T10:23:09Z</time>
</trkpt>
<trkpt lat="48.95017999224365" lon="9.68394792638719">
<ele>438.79999999999995</ele>
<time>2023-05-16T10:23:10Z</time>
</trkpt>
<trkpt lat="48.95018996670842" lon="9.683862933889031">
<ele>438.79999999999995</ele>
<time>2023-05-16T10:23:11Z</time>
</trkpt>
<trkpt lat="48.950197929516435" lon="9.68377492390573">
<ele>438.79999999999995</ele>
<time>2023-05-16T10:23:12Z</time>
</trkpt>
<trkpt lat="48.95020195282996" lon="9.683694960549474">
<ele>438.79999999999995</ele>
<time>2023-05-16T10:23:13Z</time>
</trkpt>
<trkpt lat="48.95020698197186" lon="9.683617930859327">
<ele>438.79999999999995</ele>
<time>2023-05-16T10:23:14Z</time>
</trkpt>
<trkpt lat="48.95021192729473" lon="9.683546936139464">
<ele>438.79999999999995</ele>
<time>2023-05-16T10:23:15Z</time>
</trkpt>
<trkpt lat="48.950217962265015" lon="9.683477953076363">
<ele>438.79999999999995</ele>
<time>2023-05-16T10:23:16Z</time>
</trkpt>
<trkpt lat="48.95022198557854" lon="9.683414921164513">
<ele>438.6</ele>
<time>2023-05-16T10:23:17Z</time>
</trkpt>
<trkpt lat="48.95022693090141" lon="9.683351973071694">
<ele>438.6</ele>
<time>2023-05-16T10:23:18Z</time>
</trkpt>
<trkpt lat="48.95023497752845" lon="9.683289946988225">
<ele>438.6</ele>
<time>2023-05-16T10:23:19Z</time>
</trkpt>
<trkpt lat="48.95024495199323" lon="9.683229932561517">
<ele>438.4</ele>
<time>2023-05-16T10:23:20Z</time>
</trkpt>
<trkpt lat="48.950254926458" lon="9.683164972811937">
<ele>438.20000000000005</ele>
<time>2023-05-16T10:23:21Z</time>
</trkpt>
<trkpt lat="48.950262973085046" lon="9.683099929243326">
<ele>438.20000000000005</ele>
<time>2023-05-16T10:23:22Z</time>
</trkpt>
<trkpt lat="48.95027194172144" lon="9.683032957836986">
<ele>438</ele>
<time>2023-05-16T10:23:23Z</time>
</trkpt>
<trkpt lat="48.950279988348484" lon="9.682964980602264">
<ele>437.79999999999995</ele>
<time>2023-05-16T10:23:24Z</time>
</trkpt>
<trkpt lat="48.950286945328116" lon="9.682894991710782">
<ele>437.79999999999995</ele>
<time>2023-05-16T10:23:25Z</time>
</trkpt>
<trkpt lat="48.95028996281326" lon="9.68282793648541">
<ele>437.6</ele>
<time>2023-05-16T10:23:26Z</time>
</trkpt>
<trkpt lat="48.95029691979289" lon="9.682757947593927">
<ele>437.6</ele>
<time>2023-05-16T10:23:27Z</time>
</trkpt>
<trkpt lat="48.950306978076696" lon="9.682687958702445">
<ele>437.6</ele>
<time>2023-05-16T10:23:28Z</time>
</trkpt>
<trkpt lat="48.95031494088471" lon="9.682614952325821">
<ele>437.4</ele>
<time>2023-05-16T10:23:29Z</time>
</trkpt>
<trkpt lat="48.950324999168515" lon="9.682537922635674">
<ele>437.4</ele>
<time>2023-05-16T10:23:30Z</time>
</trkpt>
<trkpt lat="48.95033195614815" lon="9.682467933744192">
<ele>437.4</ele>
<time>2023-05-16T10:23:31Z</time>
</trkpt>
<trkpt lat="48.95034193061292" lon="9.682394927367568">
<ele>437.20000000000005</ele>
<time>2023-05-16T10:23:32Z</time>
</trkpt>
<trkpt lat="48.950349977239966" lon="9.682319993153214">
<ele>437.20000000000005</ele>
<time>2023-05-16T10:23:33Z</time>
</trkpt>
<trkpt lat="48.95035995170474" lon="9.68224698677659">
<ele>437.20000000000005</ele>
<time>2023-05-16T10:23:34Z</time>
</trkpt>
<trkpt lat="48.950367998331785" lon="9.682174986228347">
<ele>437.20000000000005</ele>
<time>2023-05-16T10:23:35Z</time>
</trkpt>
<trkpt lat="48.95037998445332" lon="9.682101979851723">
<ele>437</ele>
<time>2023-05-16T10:23:36Z</time>
</trkpt>
<trkpt lat="48.950392976403236" lon="9.68203199096024">
<ele>437</ele>
<time>2023-05-16T10:23:37Z</time>
</trkpt>
<trkpt lat="48.95040798000991" lon="9.681959990411997">
<ele>437</ele>
<time>2023-05-16T10:23:38Z</time>
</trkpt>
<trkpt lat="48.95042499527335" lon="9.681887989863753">
<ele>436.79999999999995</ele>
<time>2023-05-16T10:23:39Z</time>
</trkpt>
<trkpt lat="48.95044192671776" lon="9.68181498348713">
<ele>436.79999999999995</ele>
<time>2023-05-16T10:23:40Z</time>
</trkpt>
<trkpt lat="48.950456930324435" lon="9.681742982938886">
<ele>436.79999999999995</ele>
<time>2023-05-16T10:23:41Z</time>
</trkpt>
<trkpt lat="48.95047193393111" lon="9.681677939370275">
<ele>436.79999999999995</ele>
<time>2023-05-16T10:23:42Z</time>
</trkpt>
<trkpt lat="48.95048693753779" lon="9.681609962135553">
<ele>437</ele>
<time>2023-05-16T10:23:43Z</time>
</trkpt>
<trkpt lat="48.95050294697285" lon="9.681544918566942">
<ele>437</ele>
<time>2023-05-16T10:23:44Z</time>
</trkpt>
<trkpt lat="48.95051694475114" lon="9.681481970474124">
<ele>437</ele>
<time>2023-05-16T10:23:45Z</time>
</trkpt>
<trkpt lat="48.95053697749972" lon="9.681416926905513">
<ele>437</ele>
<time>2023-05-16T10:23:46Z</time>
</trkpt>
<trkpt lat="48.95055793225765" lon="9.681354984641075">
<ele>437</ele>
<time>2023-05-16T10:23:47Z</time>
</trkpt>
<trkpt lat="48.95057997666299" lon="9.681292958557606">
<ele>437</ele>
<time>2023-05-16T10:23:48Z</time>
</trkpt>
<trkpt lat="48.95059992559254" lon="9.681232944130898">
<ele>437</ele>
<time>2023-05-16T10:23:49Z</time>
</trkpt>
<trkpt lat="48.95062196999788" lon="9.68116999603808">
<ele>437</ele>
<time>2023-05-16T10:23:50Z</time>
</trkpt>
<trkpt lat="48.95064191892743" lon="9.68110796995461">
<ele>437</ele>
<time>2023-05-16T10:23:51Z</time>
</trkpt>
<trkpt lat="48.95066195167601" lon="9.681049967184663">
<ele>437.20000000000005</ele>
<time>2023-05-16T10:23:52Z</time>
</trkpt>
<trkpt lat="48.95067796111107" lon="9.680986935272813">
<ele>437.20000000000005</ele>
<time>2023-05-16T10:23:53Z</time>
</trkpt>
<trkpt lat="48.95069799385965" lon="9.680917952209711">
<ele>437.20000000000005</ele>
<time>2023-05-16T10:23:54Z</time>
</trkpt>
<trkpt lat="48.9507179427892" lon="9.680846957489848">
<ele>437.4</ele>
<time>2023-05-16T10:23:55Z</time>
</trkpt>
<trkpt lat="48.95073998719454" lon="9.680777974426746">
<ele>437.4</ele>
<time>2023-05-16T10:23:56Z</time>
</trkpt>
<trkpt lat="48.950759936124086" lon="9.680714942514896">
<ele>437.4</ele>
<time>2023-05-16T10:23:57Z</time>
</trkpt>
<trkpt lat="48.950779968872666" lon="9.680647971108556">
<ele>437.6</ele>
<time>2023-05-16T10:23:58Z</time>
</trkpt>
<trkpt lat="48.950797989964485" lon="9.680584939196706">
<ele>437.6</ele>
<time>2023-05-16T10:23:59Z</time>
</trkpt>
<trkpt lat="48.95081492140889" lon="9.680522996932268">
<ele>437.6</ele>
<time>2023-05-16T10:24:00Z</time>
</trkpt>
<trkpt lat="48.95082992501557" lon="9.680464994162321">
<ele>437.79999999999995</ele>
<time>2023-05-16T10:24:01Z</time>
</trkpt>
<trkpt lat="48.95084694027901" lon="9.680404979735613">
<ele>437.79999999999995</ele>
<time>2023-05-16T10:24:02Z</time>
</trkpt>
<trkpt lat="48.950864961370826" lon="9.68033691868186">
<ele>437.79999999999995</ele>
<time>2023-05-16T10:24:03Z</time>
</trkpt>
<trkpt lat="48.950881976634264" lon="9.68027195893228">
<ele>438</ele>
<time>2023-05-16T10:24:04Z</time>
</trkpt>
<trkpt lat="48.95089698024094" lon="9.680206999182701">
<ele>438</ele>
<time>2023-05-16T10:24:05Z</time>
</trkpt>
<trkpt lat="48.95091198384762" lon="9.68014296144247">
<ele>438.20000000000005</ele>
<time>2023-05-16T10:24:06Z</time>
</trkpt>
<trkpt lat="48.950927993282676" lon="9.680072972550988">
<ele>438.4</ele>
<time>2023-05-16T10:24:07Z</time>
</trkpt>
<trkpt lat="48.95094492472708" lon="9.680001977831125">
<ele>438.4</ele>
<time>2023-05-16T10:24:08Z</time>
</trkpt>
<trkpt lat="48.950957916677" lon="9.679936934262514">
<ele>438.6</ele>
<time>2023-05-16T10:24:09Z</time>
</trkpt>
<trkpt lat="48.950972920283675" lon="9.679872980341315">
<ele>438.6</ele>
<time>2023-05-16T10:24:10Z</time>
</trkpt>
<trkpt lat="48.95098691806197" lon="9.679809948429465">
<ele>438.79999999999995</ele>
<time>2023-05-16T10:24:11Z</time>
</trkpt>
<trkpt lat="48.95100192166865" lon="9.679749934002757">
<ele>438.79999999999995</ele>
<time>2023-05-16T10:24:12Z</time>
</trkpt>
<trkpt lat="48.951016925275326" lon="9.67968799173832">
<ele>439</ele>
<time>2023-05-16T10:24:13Z</time>
</trkpt>
<trkpt lat="48.951031928882" lon="9.679622948169708">
<ele>439</ele>
<time>2023-05-16T10:24:14Z</time>
</trkpt>
<trkpt lat="48.95104793831706" lon="9.679559916257858">
<ele>439.20000000000005</ele>
<time>2023-05-16T10:24:15Z</time>
</trkpt>
<trkpt lat="48.9510649535805" lon="9.679499985650182">
<ele>439.4</ele>
<time>2023-05-16T10:24:16Z</time>
</trkpt>
<trkpt lat="48.95108196884394" lon="9.679439971223474">
<ele>439.4</ele>
<time>2023-05-16T10:24:17Z</time>
</trkpt>
<trkpt lat="48.951096972450614" lon="9.679379956796765">
<ele>439.6</ele>
<time>2023-05-16T10:24:18Z</time>
</trkpt>
<trkpt lat="48.95111298188567" lon="9.679317930713296">
<ele>439.79999999999995</ele>
<time>2023-05-16T10:24:19Z</time>
</trkpt>
<trkpt lat="48.95112999714911" lon="9.679257916286588">
<ele>440</ele>
<time>2023-05-16T10:24:20Z</time>
</trkpt>
<trkpt lat="48.951142989099026" lon="9.679201925173402">
<ele>440.20000000000005</ele>
<time>2023-05-16T10:24:21Z</time>
</trkpt>
<trkpt lat="48.95115497522056" lon="9.679142916575074">
<ele>440.20000000000005</ele>
<time>2023-05-16T10:24:22Z</time>
</trkpt>
<trkpt lat="48.95116796717048" lon="9.679081980139017">
<ele>440.4</ele>
<time>2023-05-16T10:24:23Z</time>
</trkpt>
<trkpt lat="48.951182970777154" lon="9.679021965712309">
<ele>440.6</ele>
<time>2023-05-16T10:24:24Z</time>
</trkpt>
<trkpt lat="48.95119797438383" lon="9.678962957113981">
<ele>440.79999999999995</ele>
<time>2023-05-16T10:24:25Z</time>
</trkpt>
<trkpt lat="48.95121498964727" lon="9.678902942687273">
<ele>440.79999999999995</ele>
<time>2023-05-16T10:24:26Z</time>
</trkpt>
<trkpt lat="48.951231921091676" lon="9.678844939917326">
<ele>441</ele>
<time>2023-05-16T10:24:27Z</time>
</trkpt>
<trkpt lat="48.95124793052673" lon="9.678784925490618">
<ele>441.20000000000005</ele>
<time>2023-05-16T10:24:28Z</time>
</trkpt>
<trkpt lat="48.95126494579017" lon="9.678724994882941">
<ele>441.4</ele>
<time>2023-05-16T10:24:29Z</time>
</trkpt>
<trkpt lat="48.95127994939685" lon="9.678662968799472">
<ele>441.4</ele>
<time>2023-05-16T10:24:30Z</time>
</trkpt>
<trkpt lat="48.951294953003526" lon="9.678604966029525">
<ele>441.6</ele>
<time>2023-05-16T10:24:31Z</time>
</trkpt>
<trkpt lat="48.9513099566102" lon="9.678544951602817">
<ele>441.6</ele>
<time>2023-05-16T10:24:32Z</time>
</trkpt>
<trkpt lat="48.95132697187364" lon="9.678481919690967">
<ele>441.79999999999995</ele>
<time>2023-05-16T10:24:33Z</time>
</trkpt>
<trkpt lat="48.95134197548032" lon="9.67842299491167">
<ele>442</ele>
<time>2023-05-16T10:24:34Z</time>
</trkpt>
<trkpt lat="48.951357984915376" lon="9.678364992141724">
<ele>442.20000000000005</ele>
<time>2023-05-16T10:24:35Z</time>
</trkpt>
<trkpt lat="48.95137298852205" lon="9.678311934694648">
<ele>442.4</ele>
<time>2023-05-16T10:24:36Z</time>
</trkpt>
<trkpt lat="48.95138799212873" lon="9.678254937753081">
<ele>442.4</ele>
<time>2023-05-16T10:24:37Z</time>
</trkpt>
<trkpt lat="48.951401989907026" lon="9.678202969953418">
<ele>442.6</ele>
<time>2023-05-16T10:24:38Z</time>
</trkpt>
<trkpt lat="48.9514169935137" lon="9.67814496718347">
<ele>442.6</ele>
<time>2023-05-16T10:24:39Z</time>
</trkpt>
<trkpt lat="48.95143199712038" lon="9.678089981898665">
<ele>442.79999999999995</ele>
<time>2023-05-16T10:24:40Z</time>
</trkpt>
<trkpt lat="48.951446916908026" lon="9.678032984957099">
<ele>442.79999999999995</ele>
<time>2023-05-16T10:24:41Z</time>
</trkpt>
<trkpt lat="48.9514619205147" lon="9.677976993843913">
<ele>442.79999999999995</ele>
<time>2023-05-16T10:24:42Z</time>
</trkpt>
<trkpt lat="48.95147792994976" lon="9.677917985245585">
<ele>443</ele>
<time>2023-05-16T10:24:43Z</time>
</trkpt>
<trkpt lat="48.95149192772806" lon="9.67786492779851">
<ele>443</ele>
<time>2023-05-16T10:24:44Z</time>
</trkpt>
<trkpt lat="48.951506931334734" lon="9.677806925028563">
<ele>443</ele>
<time>2023-05-16T10:24:45Z</time>
</trkpt>
<trkpt lat="48.95152193494141" lon="9.677747916430235">
<ele>443.20000000000005</ele>
<time>2023-05-16T10:24:46Z</time>
</trkpt>
<trkpt lat="48.95153492689133" lon="9.677697960287333">
<ele>443.20000000000005</ele>
<time>2023-05-16T10:24:47Z</time>
</trkpt>
<trkpt lat="48.951549930498004" lon="9.677641969174147">
<ele>443.20000000000005</ele>
<time>2023-05-16T10:24:48Z</time>
</trkpt>
<trkpt lat="48.95156493410468" lon="9.67758497223258">
<ele>443.20000000000005</ele>
<time>2023-05-16T10:24:49Z</time>
</trkpt>
<trkpt lat="48.95157993771136" lon="9.677527975291014">
<ele>443.20000000000005</ele>
<time>2023-05-16T10:24:50Z</time>
</trkpt>
<trkpt lat="48.951594941318035" lon="9.677469972521067">
<ele>443.20000000000005</ele>
<time>2023-05-16T10:24:51Z</time>
</trkpt>
<trkpt lat="48.95161195658147" lon="9.677406940609217">
<ele>443.20000000000005</ele>
<time>2023-05-16T10:24:52Z</time>
</trkpt>
<trkpt lat="48.95162696018815" lon="9.677346926182508">
<ele>443.20000000000005</ele>
<time>2023-05-16T10:24:53Z</time>
</trkpt>
<trkpt lat="48.95164196379483" lon="9.67728498391807">
<ele>443.20000000000005</ele>
<time>2023-05-16T10:24:54Z</time>
</trkpt>
<trkpt lat="48.951656967401505" lon="9.677226981148124">
<ele>443.20000000000005</ele>
<time>2023-05-16T10:24:55Z</time>
</trkpt>
<trkpt lat="48.95167498849332" lon="9.677164955064654">
<ele>443.20000000000005</ele>
<time>2023-05-16T10:24:56Z</time>
</trkpt>
<trkpt lat="48.95169292576611" lon="9.677099995315075">
<ele>443.20000000000005</ele>
<time>2023-05-16T10:24:57Z</time>
</trkpt>
<trkpt lat="48.95170994102955" lon="9.677027994766831">
<ele>443.20000000000005</ele>
<time>2023-05-16T10:24:58Z</time>
</trkpt>
<trkpt lat="48.95172695629299" lon="9.67696194536984">
<ele>443.20000000000005</ele>
<time>2023-05-16T10:24:59Z</time>
</trkpt>
<trkpt lat="48.951742965728045" lon="9.67689698562026">
<ele>443.20000000000005</ele>
<time>2023-05-16T10:25:00Z</time>
</trkpt>
<trkpt lat="48.95175796933472" lon="9.676831942051649">
<ele>443.20000000000005</ele>
<time>2023-05-16T10:25:01Z</time>
</trkpt>
<trkpt lat="48.9517729729414" lon="9.67677192762494">
<ele>443.20000000000005</ele>
<time>2023-05-16T10:25:02Z</time>
</trkpt>
<trkpt lat="48.951786970719695" lon="9.676709985360503">
<ele>443.20000000000005</ele>
<time>2023-05-16T10:25:03Z</time>
</trkpt>
<trkpt lat="48.95180197432637" lon="9.676651982590556">
<ele>443.20000000000005</ele>
<time>2023-05-16T10:25:04Z</time>
</trkpt>
<trkpt lat="48.95181496627629" lon="9.676586939021945">
<ele>443</ele>
<time>2023-05-16T10:25:05Z</time>
</trkpt>
<trkpt lat="48.951827958226204" lon="9.676526924595237">
<ele>443</ele>
<time>2023-05-16T10:25:06Z</time>
</trkpt>
<trkpt lat="48.95183994434774" lon="9.676471939310431">
<ele>443</ele>
<time>2023-05-16T10:25:07Z</time>
</trkpt>
<trkpt lat="48.951852936297655" lon="9.676416954025626">
<ele>443</ele>
<time>2023-05-16T10:25:08Z</time>
</trkpt>
<trkpt lat="48.95186793990433" lon="9.676362974569201">
<ele>443</ele>
<time>2023-05-16T10:25:09Z</time>
</trkpt>
<trkpt lat="48.95188294351101" lon="9.676309917122126">
<ele>442.79999999999995</ele>
<time>2023-05-16T10:25:10Z</time>
</trkpt>
<trkpt lat="48.951896941289306" lon="9.67625493183732">
<ele>442.79999999999995</ele>
<time>2023-05-16T10:25:11Z</time>
</trkpt>
<trkpt lat="48.95191194489598" lon="9.676197934895754">
<ele>442.79999999999995</ele>
<time>2023-05-16T10:25:12Z</time>
</trkpt>
<trkpt lat="48.95192795433104" lon="9.676141943782568">
<ele>442.79999999999995</ele>
<time>2023-05-16T10:25:13Z</time>
</trkpt>
<trkpt lat="48.95194496959448" lon="9.67608293518424">
<ele>442.6</ele>
<time>2023-05-16T10:25:14Z</time>
</trkpt>
<trkpt lat="48.9519629906863" lon="9.676017975434661">
<ele>442.6</ele>
<time>2023-05-16T10:25:15Z</time>
</trkpt>
<trkpt lat="48.951979922130704" lon="9.67595192603767">
<ele>442.4</ele>
<time>2023-05-16T10:25:16Z</time>
</trkpt>
<trkpt lat="48.95199492573738" lon="9.675881937146187">
<ele>442.20000000000005</ele>
<time>2023-05-16T10:25:17Z</time>
</trkpt>
<trkpt lat="48.95201495848596" lon="9.675807924941182">
<ele>442.20000000000005</ele>
<time>2023-05-16T10:25:18Z</time>
</trkpt>
<trkpt lat="48.95203792490065" lon="9.675729973241687">
<ele>442</ele>
<time>2023-05-16T10:25:19Z</time>
</trkpt>
<trkpt lat="48.95205996930599" lon="9.67565193772316">
<ele>442</ele>
<time>2023-05-16T10:25:20Z</time>
</trkpt>
<trkpt lat="48.95208293572068" lon="9.675569962710142">
<ele>441.79999999999995</ele>
<time>2023-05-16T10:25:21Z</time>
</trkpt>
<trkpt lat="48.95210296846926" lon="9.675489999353886">
<ele>441.6</ele>
<time>2023-05-16T10:25:22Z</time>
</trkpt>
<trkpt lat="48.95212199538946" lon="9.675404923036695">
<ele>441.6</ele>
<time>2023-05-16T10:25:23Z</time>
</trkpt>
<trkpt lat="48.95214194431901" lon="9.675317918881774">
<ele>441.4</ele>
<time>2023-05-16T10:25:24Z</time>
</trkpt>
<trkpt lat="48.95216298289597" lon="9.675234938040376">
<ele>441.20000000000005</ele>
<time>2023-05-16T10:25:25Z</time>
</trkpt>
<trkpt lat="48.95218997262418" lon="9.675149945542216">
<ele>441</ele>
<time>2023-05-16T10:25:26Z</time>
</trkpt>
<trkpt lat="48.952216962352395" lon="9.675062941387296">
<ele>440.79999999999995</ele>
<time>2023-05-16T10:25:27Z</time>
</trkpt>
<trkpt lat="48.95224294625223" lon="9.674974931403995">
<ele>440.6</ele>
<time>2023-05-16T10:25:28Z</time>
</trkpt>
<trkpt lat="48.95226993598044" lon="9.674889938905835">
<ele>440.4</ele>
<time>2023-05-16T10:25:29Z</time>
</trkpt>
<trkpt lat="48.95229692570865" lon="9.674802934750915">
<ele>440.20000000000005</ele>
<time>2023-05-16T10:25:30Z</time>
</trkpt>
<trkpt lat="48.952322993427515" lon="9.674714924767613">
<ele>440</ele>
<time>2023-05-16T10:25:31Z</time>
</trkpt>
<trkpt lat="48.95235291682184" lon="9.674624986946583">
<ele>439.79999999999995</ele>
<time>2023-05-16T10:25:32Z</time>
</trkpt>
<trkpt lat="48.95238191820681" lon="9.674536976963282">
<ele>439.6</ele>
<time>2023-05-16T10:25:33Z</time>
</trkpt>
<trkpt lat="48.952411925420165" lon="9.674442932009697">
<ele>439.20000000000005</ele>
<time>2023-05-16T10:25:34Z</time>
</trkpt>
<trkpt lat="48.9524429384619" lon="9.674347965046763">
<ele>439</ele>
<time>2023-05-16T10:25:35Z</time>
</trkpt>
<trkpt lat="48.952476968988776" lon="9.67425199225545">
<ele>438.79999999999995</ele>
<time>2023-05-16T10:25:36Z</time>
</trkpt>
<trkpt lat="48.95250999368727" lon="9.674159958958626">
<ele>438.4</ele>
<time>2023-05-16T10:25:37Z</time>
</trkpt>
<trkpt lat="48.952542934566736" lon="9.674064991995692">
<ele>438</ele>
<time>2023-05-16T10:25:38Z</time>
</trkpt>
<trkpt lat="48.95257495343685" lon="9.673964995890856">
<ele>437.79999999999995</ele>
<time>2023-05-16T10:25:39Z</time>
</trkpt>
<trkpt lat="48.95260998979211" lon="9.673862988129258">
<ele>437.4</ele>
<time>2023-05-16T10:25:40Z</time>
</trkpt>
<trkpt lat="48.952646953985095" lon="9.673757962882519">
<ele>437.20000000000005</ele>
<time>2023-05-16T10:25:41Z</time>
</trkpt>
<trkpt lat="48.95268693566322" lon="9.673651931807399">
<ele>436.79999999999995</ele>
<time>2023-05-16T10:25:42Z</time>
</trkpt>
<trkpt lat="48.95272498950362" lon="9.67354497872293">
<ele>436.4</ele>
<time>2023-05-16T10:25:43Z</time>
</trkpt>
<trkpt lat="48.95276195369661" lon="9.673434924334288">
<ele>436.20000000000005</ele>
<time>2023-05-16T10:25:44Z</time>
</trkpt>
<trkpt lat="48.952797995880246" lon="9.673324953764677">
<ele>435.79999999999995</ele>
<time>2023-05-16T10:25:45Z</time>
</trkpt>
<trkpt lat="48.952836971729994" lon="9.673214983195066">
<ele>435.4</ele>
<time>2023-05-16T10:25:46Z</time>
</trkpt>
<trkpt lat="48.9528729300946" lon="9.673097971826792">
<ele>434.79999999999995</ele>
<time>2023-05-16T10:25:47Z</time>
</trkpt>
<trkpt lat="48.95290997810662" lon="9.672977942973375">
<ele>434.4</ele>
<time>2023-05-16T10:25:48Z</time>
</trkpt>
<trkpt lat="48.952947948127985" lon="9.672861937433481">
<ele>434</ele>
<time>2023-05-16T10:25:49Z</time>
</trkpt>
<trkpt lat="48.95298499614" lon="9.672746937721968">
<ele>433.4</ele>
<time>2023-05-16T10:25:50Z</time>
</trkpt>
<trkpt lat="48.95302196033299" lon="9.672627998515964">
<ele>432.79999999999995</ele>
<time>2023-05-16T10:25:51Z</time>
</trkpt>
<trkpt lat="48.953057918697596" lon="9.672509981319308">
<ele>432.20000000000005</ele>
<time>2023-05-16T10:25:52Z</time>
</trkpt>
<trkpt lat="48.953096978366375" lon="9.67238794080913">
<ele>431.6</ele>
<time>2023-05-16T10:25:53Z</time>
</trkpt>
<trkpt lat="48.95313494838774" lon="9.672269923612475">
<ele>431</ele>
<time>2023-05-16T10:25:54Z</time>
</trkpt>
<trkpt lat="48.95317794755101" lon="9.672142937779427">
<ele>430.4</ele>
<time>2023-05-16T10:25:55Z</time>
</trkpt>
<trkpt lat="48.95322195254266" lon="9.672014946117997">
<ele>429.79999999999995</ele>
<time>2023-05-16T10:25:56Z</time>
</trkpt>
<trkpt lat="48.953269980847836" lon="9.671886954456568">
<ele>429.20000000000005</ele>
<time>2023-05-16T10:25:57Z</time>
</trkpt>
<trkpt lat="48.95331499166787" lon="9.67176198028028">
<ele>428.6</ele>
<time>2023-05-16T10:25:58Z</time>
</trkpt>
<trkpt lat="48.953359918668866" lon="9.671634994447231">
<ele>428</ele>
<time>2023-05-16T10:25:59Z</time>
</trkpt>
<trkpt lat="48.953397972509265" lon="9.67150499112904">
<ele>427.4</ele>
<time>2023-05-16T10:26:00Z</time>
</trkpt>
<trkpt lat="48.95343493670225" lon="9.671362917870283">
<ele>426.79999999999995</ele>
<time>2023-05-16T10:26:01Z</time>
</trkpt>
<trkpt lat="48.953462932258844" lon="9.671214977279305">
<ele>426.20000000000005</ele>
<time>2023-05-16T10:26:02Z</time>
</trkpt>
<trkpt lat="48.953482965007424" lon="9.671057984232903">
<ele>425.6</ele>
<time>2023-05-16T10:26:03Z</time>
</trkpt>
<trkpt lat="48.9534929394722" lon="9.670899985358119">
<ele>424.79999999999995</ele>
<time>2023-05-16T10:26:04Z</time>
</trkpt>
<trkpt lat="48.9534979686141" lon="9.670746931806207">
<ele>424.20000000000005</ele>
<time>2023-05-16T10:26:05Z</time>
</trkpt>
<trkpt lat="48.95349495112896" lon="9.670594967901707">
<ele>423.6</ele>
<time>2023-05-16T10:26:06Z</time>
</trkpt>
<trkpt lat="48.95348698832095" lon="9.670447949320078">
<ele>423</ele>
<time>2023-05-16T10:26:07Z</time>
</trkpt>
<trkpt lat="48.95346997305751" lon="9.67030294239521">
<ele>422.20000000000005</ele>
<time>2023-05-16T10:26:08Z</time>
</trkpt>
<trkpt lat="48.953442983329296" lon="9.670166987925768">
<ele>421.6</ele>
<time>2023-05-16T10:26:09Z</time>
</trkpt>
<trkpt lat="48.95340694114566" lon="9.670041929930449">
<ele>421</ele>
<time>2023-05-16T10:26:10Z</time>
</trkpt>
<trkpt lat="48.95336193032563" lon="9.669922990724444">
<ele>420.20000000000005</ele>
<time>2023-05-16T10:26:11Z</time>
</trkpt>
<trkpt lat="48.95331499166787" lon="9.669817965477705">
<ele>419.6</ele>
<time>2023-05-16T10:26:12Z</time>
</trkpt>
<trkpt lat="48.95326294004917" lon="9.669734984636307">
<ele>419</ele>
<time>2023-05-16T10:26:13Z</time>
</trkpt>
<trkpt lat="48.95319295115769" lon="9.669661978259683">
<ele>418.4</ele>
<time>2023-05-16T10:26:14Z</time>
</trkpt>
<trkpt lat="48.953117933124304" lon="9.66959299519658">
<ele>417.79999999999995</ele>
<time>2023-05-16T10:26:15Z</time>
</trkpt>
<trkpt lat="48.953034952282906" lon="9.669541949406266">
<ele>417.20000000000005</ele>
<time>2023-05-16T10:26:16Z</time>
</trkpt>
<trkpt lat="48.95295498892665" lon="9.669496938586235">
<ele>416.6</ele>
<time>2023-05-16T10:26:17Z</time>
</trkpt>
<trkpt lat="48.95287494175136" lon="9.669454945251346">
<ele>416</ele>
<time>2023-05-16T10:26:18Z</time>
</trkpt>
<trkpt lat="48.95280495285988" lon="9.669414963573217">
<ele>415.4</ele>
<time>2023-05-16T10:26:19Z</time>
</trkpt>
<trkpt lat="48.95273798145354" lon="9.669357966631651">
<ele>414.79999999999995</ele>
<time>2023-05-16T10:26:20Z</time>
</trkpt>
<trkpt lat="48.95267696119845" lon="9.669276997447014">
<ele>414</ele>
<time>2023-05-16T10:26:21Z</time>
</trkpt>
<trkpt lat="48.952621975913644" lon="9.669172978028655">
<ele>413.4</ele>
<time>2023-05-16T10:26:22Z</time>
</trkpt>
<trkpt lat="48.95257797092199" lon="9.669047920033336">
<ele>412.79999999999995</ele>
<time>2023-05-16T10:26:23Z</time>
</trkpt>
<trkpt lat="48.9525499753654" lon="9.668907942250371">
<ele>412</ele>
<time>2023-05-16T10:26:24Z</time>
</trkpt>
<trkpt lat="48.95252692513168" lon="9.668739968910813">
<ele>411.4</ele>
<time>2023-05-16T10:26:25Z</time>
</trkpt>
<trkpt lat="48.95253296010196" lon="9.668571995571256">
<ele>410.6</ele>
<time>2023-05-16T10:26:26Z</time>
</trkpt>
<trkpt lat="48.95256992429495" lon="9.668411985039711">
<ele>410</ele>
<time>2023-05-16T10:26:27Z</time>
</trkpt>
<trkpt lat="48.952624993398786" lon="9.668277958407998">
<ele>409.4</ele>
<time>2023-05-16T10:26:28Z</time>
</trkpt>
<trkpt lat="48.95268199034035" lon="9.668154995888472">
<ele>408.79999999999995</ele>
<time>2023-05-16T10:26:29Z</time>
</trkpt>
<trkpt lat="48.95274493843317" lon="9.668032955378294">
<ele>408.20000000000005</ele>
<time>2023-05-16T10:26:30Z</time>
</trkpt>
<trkpt lat="48.95280294120312" lon="9.66789498925209">
<ele>407.6</ele>
<time>2023-05-16T10:26:31Z</time>
</trkpt>
<trkpt lat="48.95285298116505" lon="9.667752999812365">
<ele>407</ele>
<time>2023-05-16T10:26:32Z</time>
</trkpt>
<trkpt lat="48.95289296284318" lon="9.667601957917213">
<ele>406.4</ele>
<time>2023-05-16T10:26:33Z</time>
</trkpt>
<trkpt lat="48.95293696783483" lon="9.66744295321405">
<ele>405.6</ele>
<time>2023-05-16T10:26:34Z</time>
</trkpt>
<trkpt lat="48.95298499614" lon="9.667286965996027">
<ele>404.79999999999995</ele>
<time>2023-05-16T10:26:35Z</time>
</trkpt>
<trkpt lat="48.95303796976805" lon="9.667129972949624">
<ele>404.20000000000005</ele>
<time>2023-05-16T10:26:36Z</time>
</trkpt>
<trkpt lat="48.953094966709614" lon="9.666964933276176">
<ele>403.4</ele>
<time>2023-05-16T10:26:37Z</time>
</trkpt>
<trkpt lat="48.953157998621464" lon="9.666806934401393">
<ele>402.6</ele>
<time>2023-05-16T10:26:38Z</time>
</trkpt>
<trkpt lat="48.95322295837104" lon="9.666659999638796">
<ele>402</ele>
<time>2023-05-16T10:26:39Z</time>
</trkpt>
<trkpt lat="48.953292947262526" lon="9.666522955521941">
<ele>401.20000000000005</ele>
<time>2023-05-16T10:26:40Z</time>
</trkpt>
<trkpt lat="48.953359918668866" lon="9.666384989395738">
<ele>400.4</ele>
<time>2023-05-16T10:26:41Z</time>
</trkpt>
<trkpt lat="48.95342496223748" lon="9.666242999956012">
<ele>399.79999999999995</ele>
<time>2023-05-16T10:26:42Z</time>
</trkpt>
<trkpt lat="48.953484976664186" lon="9.666094975546002">
<ele>399</ele>
<time>2023-05-16T10:26:43Z</time>
</trkpt>
<trkpt lat="48.95353996194899" lon="9.6659379824996">
<ele>398.4</ele>
<time>2023-05-16T10:26:44Z</time>
</trkpt>
<trkpt lat="48.953592935577035" lon="9.665776966139674">
<ele>397.6</ele>
<time>2023-05-16T10:26:45Z</time>
</trkpt>
<trkpt lat="48.95364498719573" lon="9.665606981143355">
<ele>396.79999999999995</ele>
<time>2023-05-16T10:26:46Z</time>
</trkpt>
<trkpt lat="48.95369192585349" lon="9.66544495895505">
<ele>396.20000000000005</ele>
<time>2023-05-16T10:26:47Z</time>
</trkpt>
<trkpt lat="48.95373693667352" lon="9.665276985615492">
<ele>395.4</ele>
<time>2023-05-16T10:26:48Z</time>
</trkpt>
<trkpt lat="48.95376996137202" lon="9.665084956213832">
<ele>394.79999999999995</ele>
<time>2023-05-16T10:26:49Z</time>
</trkpt>
<trkpt lat="48.953804997727275" lon="9.664911953732371">
<ele>394</ele>
<time>2023-05-16T10:26:50Z</time>
</trkpt>
<trkpt lat="48.9538449794054" lon="9.664747919887304">
<ele>393.20000000000005</ele>
<time>2023-05-16T10:26:51Z</time>
</trkpt>
<trkpt lat="48.953871969133615" lon="9.664556980133057">
<ele>392.6</ele>
<time>2023-05-16T10:26:52Z</time>
</trkpt>
<trkpt lat="48.95390298217535" lon="9.664401998743415">
<ele>391.79999999999995</ele>
<time>2023-05-16T10:26:53Z</time>
</trkpt>
<trkpt lat="48.9539229311049" lon="9.664212986826897">
<ele>391</ele>
<time>2023-05-16T10:26:54Z</time>
</trkpt>
<trkpt lat="48.953954949975014" lon="9.664032943546772">
<ele>390.20000000000005</ele>
<time>2023-05-16T10:26:55Z</time>
</trkpt>
<trkpt lat="48.953981939703226" lon="9.663861952722073">
<ele>389.4</ele>
<time>2023-05-16T10:26:56Z</time>
</trkpt>
<trkpt lat="48.95400792360306" lon="9.663687944412231">
<ele>388.6</ele>
<time>2023-05-16T10:26:57Z</time>
</trkpt>
<trkpt lat="48.9540299680084" lon="9.663492981344461">
<ele>387.79999999999995</ele>
<time>2023-05-16T10:26:58Z</time>
</trkpt>
<trkpt lat="48.95405796356499" lon="9.66334193944931">
<ele>387</ele>
<time>2023-05-16T10:26:59Z</time>
</trkpt>
<trkpt lat="48.954087970778346" lon="9.663181928917766">
<ele>386.20000000000005</ele>
<time>2023-05-16T10:27:00Z</time>
</trkpt>
<trkpt lat="48.95410297438502" lon="9.663022924214602">
<ele>385.4</ele>
<time>2023-05-16T10:27:01Z</time>
</trkpt>
<trkpt lat="48.9541179779917" lon="9.662862997502089">
<ele>384.4</ele>
<time>2023-05-16T10:27:02Z</time>
</trkpt>
<trkpt lat="48.954152930527925" lon="9.662706926465034">
<ele>383.6</ele>
<time>2023-05-16T10:27:03Z</time>
</trkpt>
<trkpt lat="48.95417799241841" lon="9.662546999752522">
<ele>382.79999999999995</ele>
<time>2023-05-16T10:27:04Z</time>
</trkpt>
<trkpt lat="48.954214956611395" lon="9.66239495202899">
<ele>382</ele>
<time>2023-05-16T10:27:05Z</time>
</trkpt>
<trkpt lat="48.95426197908819" lon="9.662249945104122">
<ele>381.20000000000005</ele>
<time>2023-05-16T10:27:06Z</time>
</trkpt>
<trkpt lat="48.9543079957366" lon="9.66211499646306">
<ele>380.4</ele>
<time>2023-05-16T10:27:07Z</time>
</trkpt>
<trkpt lat="48.954362981021404" lon="9.661991950124502">
<ele>379.6</ele>
<time>2023-05-16T10:27:08Z</time>
</trkpt>
<trkpt lat="48.95442299544811" lon="9.661871921271086">
<ele>379</ele>
<time>2023-05-16T10:27:09Z</time>
</trkpt>
<trkpt lat="48.95448493771255" lon="9.661757927387953">
<ele>378.20000000000005</ele>
<time>2023-05-16T10:27:10Z</time>
</trkpt>
<trkpt lat="48.95454696379602" lon="9.661652985960245">
<ele>377.4</ele>
<time>2023-05-16T10:27:11Z</time>
</trkpt>
<trkpt lat="48.95463195629418" lon="9.661567993462086">
<ele>376.79999999999995</ele>
<time>2023-05-16T10:27:12Z</time>
</trkpt>
<trkpt lat="48.954709991812706" lon="9.661482917144895">
<ele>376</ele>
<time>2023-05-16T10:27:13Z</time>
</trkpt>
<trkpt lat="48.954794984310865" lon="9.661419969052076">
<ele>375.20000000000005</ele>
<time>2023-05-16T10:27:14Z</time>
</trkpt>
<trkpt lat="48.95488793961704" lon="9.661377975717187">
<ele>374.4</ele>
<time>2023-05-16T10:27:15Z</time>
</trkpt>
<trkpt lat="48.954986929893494" lon="9.661349980160594">
<ele>373.79999999999995</ele>
<time>2023-05-16T10:27:16Z</time>
</trkpt>
<trkpt lat="48.95508692599833" lon="9.66134293936193">
<ele>373</ele>
<time>2023-05-16T10:27:17Z</time>
</trkpt>
<trkpt lat="48.95518499426544" lon="9.661346962675452">
<ele>372.4</ele>
<time>2023-05-16T10:27:18Z</time>
</trkpt>
<trkpt lat="48.95528297871351" lon="9.661369929090142">
<ele>371.6</ele>
<time>2023-05-16T10:27:19Z</time>
</trkpt>
<trkpt lat="48.95538196898997" lon="9.661396918818355">
<ele>371</ele>
<time>2023-05-16T10:27:20Z</time>
</trkpt>
<trkpt lat="48.95547794178128" lon="9.661422986537218">
<ele>370.4</ele>
<time>2023-05-16T10:27:21Z</time>
</trkpt>
<trkpt lat="48.95557793788612" lon="9.661454921588302">
<ele>369.6</ele>
<time>2023-05-16T10:27:22Z</time>
</trkpt>
<trkpt lat="48.955672988668084" lon="9.661484928801656">
<ele>369</ele>
<time>2023-05-16T10:27:23Z</time>
</trkpt>
<trkpt lat="48.955764938145876" lon="9.661517953500152">
<ele>368.4</ele>
<time>2023-05-16T10:27:24Z</time>
</trkpt>
<trkpt lat="48.95585998892784" lon="9.661549972370267">
<ele>367.6</ele>
<time>2023-05-16T10:27:25Z</time>
</trkpt>
<trkpt lat="48.955954955890775" lon="9.661579979583621">
<ele>367</ele>
<time>2023-05-16T10:27:26Z</time>
</trkpt>
<trkpt lat="48.95604799501598" lon="9.661614932119846">
<ele>366.20000000000005</ele>
<time>2023-05-16T10:27:27Z</time>
</trkpt>
<trkpt lat="48.95614296197891" lon="9.661666983738542">
<ele>365.6</ele>
<time>2023-05-16T10:27:28Z</time>
</trkpt>
<trkpt lat="48.95623994059861" lon="9.661727920174599">
<ele>365</ele>
<time>2023-05-16T10:27:29Z</time>
</trkpt>
<trkpt lat="48.95632795058191" lon="9.661801932379603">
<ele>364.20000000000005</ele>
<time>2023-05-16T10:27:30Z</time>
</trkpt>
<trkpt lat="48.95641294308007" lon="9.661884997040033">
<ele>363.6</ele>
<time>2023-05-16T10:27:31Z</time>
</trkpt>
<trkpt lat="48.95649692974985" lon="9.661981975659728">
<ele>363</ele>
<time>2023-05-16T10:27:32Z</time>
</trkpt>
<trkpt lat="48.956581922248006" lon="9.662079960107803">
<ele>362.20000000000005</ele>
<time>2023-05-16T10:27:33Z</time>
</trkpt>
<trkpt lat="48.956662975251675" lon="9.662176938727498">
<ele>361.6</ele>
<time>2023-05-16T10:27:34Z</time>
</trkpt>
<trkpt lat="48.95674293860793" lon="9.6622649487108">
<ele>360.79999999999995</ele>
<time>2023-05-16T10:27:35Z</time>
</trkpt>
<trkpt lat="48.95682298578322" lon="9.662346923723817">
<ele>360.20000000000005</ele>
<time>2023-05-16T10:27:36Z</time>
</trkpt>
<trkpt lat="48.956899931654334" lon="9.662432922050357">
<ele>359.4</ele>
<time>2023-05-16T10:27:37Z</time>
</trkpt>
<trkpt lat="48.95697293803096" lon="9.662531996145844">
<ele>358.6</ele>
<time>2023-05-16T10:27:38Z</time>
</trkpt>
<trkpt lat="48.95703999325633" lon="9.662636937573552">
<ele>358</ele>
<time>2023-05-16T10:27:39Z</time>
</trkpt>
<trkpt lat="48.95710193552077" lon="9.662749925628304">
<ele>357.4</ele>
<time>2023-05-16T10:27:40Z</time>
</trkpt>
<trkpt lat="48.957157926633954" lon="9.66286794282496">
<ele>356.6</ele>
<time>2023-05-16T10:27:41Z</time>
</trkpt>
<trkpt lat="48.95721492357552" lon="9.662987971678376">
<ele>356</ele>
<time>2023-05-16T10:27:42Z</time>
</trkpt>
<trkpt lat="48.95726999267936" lon="9.663106994703412">
<ele>355.20000000000005</ele>
<time>2023-05-16T10:27:43Z</time>
</trkpt>
<trkpt lat="48.957326989620924" lon="9.663221994414926">
<ele>354.6</ele>
<time>2023-05-16T10:27:44Z</time>
</trkpt>
<trkpt lat="48.95738499239087" lon="9.663329953327775">
<ele>354</ele>
<time>2023-05-16T10:27:45Z</time>
</trkpt>
<trkpt lat="48.95744794048369" lon="9.663431961089373">
<ele>353.4</ele>
<time>2023-05-16T10:27:46Z</time>
</trkpt>
<trkpt lat="48.95751499570906" lon="9.663521982729435">
<ele>352.79999999999995</ele>
<time>2023-05-16T10:27:47Z</time>
</trkpt>
<trkpt lat="48.95758297294378" lon="9.66359993442893">
<ele>352.20000000000005</ele>
<time>2023-05-16T10:27:48Z</time>
</trkpt>
<trkpt lat="48.95765799097717" lon="9.663669923320413">
<ele>351.6</ele>
<time>2023-05-16T10:27:49Z</time>
</trkpt>
<trkpt lat="48.957737954333425" lon="9.663731949403882">
<ele>351</ele>
<time>2023-05-16T10:27:50Z</time>
</trkpt>
<trkpt lat="48.957824958488345" lon="9.663782995194197">
<ele>350.6</ele>
<time>2023-05-16T10:27:51Z</time>
</trkpt>
<trkpt lat="48.95791699178517" lon="9.663819959387183">
<ele>350</ele>
<time>2023-05-16T10:27:52Z</time>
</trkpt>
<trkpt lat="48.9580119587481" lon="9.663842925801873">
<ele>349.4</ele>
<time>2023-05-16T10:27:53Z</time>
</trkpt>
<trkpt lat="48.95810994319618" lon="9.663847954943776">
<ele>349</ele>
<time>2023-05-16T10:27:54Z</time>
</trkpt>
<trkpt lat="48.95820298232138" lon="9.663826916366816">
<ele>348.4</ele>
<time>2023-05-16T10:27:55Z</time>
</trkpt>
<trkpt lat="48.95829493179917" lon="9.663786934688687">
<ele>347.79999999999995</ele>
<time>2023-05-16T10:27:56Z</time>
</trkpt>
<trkpt lat="48.958382941782475" lon="9.663726920261979">
<ele>347</ele>
<time>2023-05-16T10:27:57Z</time>
</trkpt>
<trkpt lat="48.958451924845576" lon="9.663647962734103">
<ele>346.6</ele>
<time>2023-05-16T10:27:58Z</time>
</trkpt>
<trkpt lat="48.95850699394941" lon="9.6635549236089">
<ele>346</ele>
<time>2023-05-16T10:27:59Z</time>
</trkpt>
<trkpt lat="48.95854697562754" lon="9.663441935554147">
<ele>345.4</ele>
<time>2023-05-16T10:28:00Z</time>
</trkpt>
<trkpt lat="48.958576982840896" lon="9.663314949721098">
<ele>345</ele>
<time>2023-05-16T10:28:01Z</time>
</trkpt>
<trkpt lat="48.95858796313405" lon="9.663177989423275">
<ele>344.4</ele>
<time>2023-05-16T10:28:02Z</time>
</trkpt>
<trkpt lat="48.95858796313405" lon="9.663032982498407">
<ele>344</ele>
<time>2023-05-16T10:28:03Z</time>
</trkpt>
<trkpt lat="48.958576982840896" lon="9.662884958088398">
<ele>343.4</ele>
<time>2023-05-16T10:28:04Z</time>
</trkpt>
<trkpt lat="48.95855996757746" lon="9.662742968648672">
<ele>342.79999999999995</ele>
<time>2023-05-16T10:28:05Z</time>
</trkpt>
<trkpt lat="48.958531972020864" lon="9.662604918703437">
<ele>342.4</ele>
<time>2023-05-16T10:28:06Z</time>
</trkpt>
<trkpt lat="48.95849693566561" lon="9.662459995597601">
<ele>342</ele>
<time>2023-05-16T10:28:07Z</time>
</trkpt>
<trkpt lat="48.95847296342254" lon="9.662311971187592">
<ele>341.4</ele>
<time>2023-05-16T10:28:08Z</time>
</trkpt>
<trkpt lat="48.95845293067396" lon="9.662166964262724">
<ele>341</ele>
<time>2023-05-16T10:28:09Z</time>
</trkpt>
<trkpt lat="48.9584419503808" lon="9.662014916539192">
<ele>340.4</ele>
<time>2023-05-16T10:28:10Z</time>
</trkpt>
<trkpt lat="48.95844295620918" lon="9.661861946806312">
<ele>340</ele>
<time>2023-05-16T10:28:11Z</time>
</trkpt>
<trkpt lat="48.95845795981586" lon="9.661709982901812">
<ele>339.4</ele>
<time>2023-05-16T10:28:12Z</time>
</trkpt>
<trkpt lat="48.95848494954407" lon="9.661561958491802">
<ele>338.79999999999995</ele>
<time>2023-05-16T10:28:13Z</time>
</trkpt>
<trkpt lat="48.95852291956544" lon="9.661419969052076">
<ele>338.20000000000005</ele>
<time>2023-05-16T10:28:14Z</time>
</trkpt>
<trkpt lat="48.95856994204223" lon="9.661291977390647">
<ele>337.6</ele>
<time>2023-05-16T10:28:15Z</time>
</trkpt>
<trkpt lat="48.95862299948931" lon="9.661174966022372">
<ele>337</ele>
<time>2023-05-16T10:28:16Z</time>
</trkpt>
<trkpt lat="48.958679996430874" lon="9.661064995452762">
<ele>336.4</ele>
<time>2023-05-16T10:28:17Z</time>
</trkpt>
<trkpt lat="48.95873297005892" lon="9.660959970206022">
<ele>335.79999999999995</ele>
<time>2023-05-16T10:28:18Z</time>
</trkpt>
<trkpt lat="48.95878292620182" lon="9.660862991586328">
<ele>335.20000000000005</ele>
<time>2023-05-16T10:28:19Z</time>
</trkpt>
<trkpt lat="48.958831960335374" lon="9.660777999088168">
<ele>334.6</ele>
<time>2023-05-16T10:28:20Z</time>
</trkpt>
<trkpt lat="48.95887998864055" lon="9.660699963569641">
<ele>334.20000000000005</ele>
<time>2023-05-16T10:28:21Z</time>
</trkpt>
<trkpt lat="48.95892692729831" lon="9.66063198633492">
<ele>333.6</ele>
<time>2023-05-16T10:28:22Z</time>
</trkpt>
<trkpt lat="48.95896699279547" lon="9.660562919452786">
<ele>333.20000000000005</ele>
<time>2023-05-16T10:28:23Z</time>
</trkpt>
<trkpt lat="48.959004962816834" lon="9.660497959703207">
<ele>332.79999999999995</ele>
<time>2023-05-16T10:28:24Z</time>
</trkpt>
<trkpt lat="48.95904494449496" lon="9.660436939448118">
<ele>332.4</ele>
<time>2023-05-16T10:28:25Z</time>
</trkpt>
<trkpt lat="48.95907998085022" lon="9.660387989133596">
<ele>332.20000000000005</ele>
<time>2023-05-16T10:28:26Z</time>
</trkpt>
<trkpt lat="48.959116945043206" lon="9.660336943343282">
<ele>331.79999999999995</ele>
<time>2023-05-16T10:28:27Z</time>
</trkpt>
<trkpt lat="48.959152987226844" lon="9.660282963886857">
<ele>331.4</ele>
<time>2023-05-16T10:28:28Z</time>
</trkpt>
<trkpt lat="48.95918995141983" lon="9.660227978602052">
<ele>331.20000000000005</ele>
<time>2023-05-16T10:28:29Z</time>
</trkpt>
<trkpt lat="48.95922498777509" lon="9.660171987488866">
<ele>330.79999999999995</ele>
<time>2023-05-16T10:28:30Z</time>
</trkpt>
<trkpt lat="48.959261951968074" lon="9.6601149905473">
<ele>330.4</ele>
<time>2023-05-16T10:28:31Z</time>
</trkpt>
<trkpt lat="48.9593019336462" lon="9.660054976120591">
<ele>330.20000000000005</ele>
<time>2023-05-16T10:28:32Z</time>
</trkpt>
<trkpt lat="48.95934292115271" lon="9.659992950037122">
<ele>329.79999999999995</ele>
<time>2023-05-16T10:28:33Z</time>
</trkpt>
<trkpt lat="48.95938692614436" lon="9.659932935610414">
<ele>329.4</ele>
<time>2023-05-16T10:28:34Z</time>
</trkpt>
<trkpt lat="48.959434954449534" lon="9.659877950325608">
<ele>329</ele>
<time>2023-05-16T10:28:35Z</time>
</trkpt>
<trkpt lat="48.9594919513911" lon="9.65981693007052">
<ele>328.6</ele>
<time>2023-05-16T10:28:36Z</time>
</trkpt>
<trkpt lat="48.95955196581781" lon="9.659747947007418">
<ele>328.20000000000005</ele>
<time>2023-05-16T10:28:37Z</time>
</trkpt>
<trkpt lat="48.95961198024452" lon="9.659679969772696">
<ele>327.79999999999995</ele>
<time>2023-05-16T10:28:38Z</time>
</trkpt>
<trkpt lat="48.959669983014464" lon="9.659619955345988">
<ele>327.6</ele>
<time>2023-05-16T10:28:39Z</time>
</trkpt>
<trkpt lat="48.95972798578441" lon="9.65955994091928">
<ele>327.4</ele>
<time>2023-05-16T10:28:40Z</time>
</trkpt>
<trkpt lat="48.95978498272598" lon="9.659504955634475">
<ele>327.20000000000005</ele>
<time>2023-05-16T10:28:41Z</time>
</trkpt>
<trkpt lat="48.959844997152686" lon="9.659442929551005">
<ele>327</ele>
<time>2023-05-16T10:28:42Z</time>
</trkpt>
<trkpt lat="48.95990299992263" lon="9.659384926781058">
<ele>327</ele>
<time>2023-05-16T10:28:43Z</time>
</trkpt>
<trkpt lat="48.95995798520744" lon="9.659326924011111">
<ele>327</ele>
<time>2023-05-16T10:28:44Z</time>
</trkpt>
<trkpt lat="48.9600099530071" lon="9.659269927069545">
<ele>326.79999999999995</ele>
<time>2023-05-16T10:28:45Z</time>
</trkpt>
<trkpt lat="48.960059992969036" lon="9.65921494178474">
<ele>326.79999999999995</ele>
<time>2023-05-16T10:28:46Z</time>
</trkpt>
<trkpt lat="48.96010793745518" lon="9.659157944843173">
<ele>326.79999999999995</ele>
<time>2023-05-16T10:28:47Z</time>
</trkpt>
<trkpt lat="48.96015194244683" lon="9.659097930416465">
<ele>326.79999999999995</ele>
<time>2023-05-16T10:28:48Z</time>
</trkpt>
<trkpt lat="48.9601949416101" lon="9.659037999808788">
<ele>326.79999999999995</ele>
<time>2023-05-16T10:28:49Z</time>
</trkpt>
<trkpt lat="48.96023995243013" lon="9.658967927098274">
<ele>326.79999999999995</ele>
<time>2023-05-16T10:28:50Z</time>
</trkpt>
<trkpt lat="48.96028496325016" lon="9.65889299288392">
<ele>326.79999999999995</ele>
<time>2023-05-16T10:28:51Z</time>
</trkpt>
<trkpt lat="48.96032695658505" lon="9.658812945708632">
<ele>326.79999999999995</ele>
<time>2023-05-16T10:28:52Z</time>
</trkpt>
<trkpt lat="48.96036492660642" lon="9.65872292406857">
<ele>326.6</ele>
<time>2023-05-16T10:28:53Z</time>
</trkpt>
<trkpt lat="48.96040499210358" lon="9.658631980419159">
<ele>326.6</ele>
<time>2023-05-16T10:28:54Z</time>
</trkpt>
<trkpt lat="48.96044195629656" lon="9.658536929637194">
<ele>326.4</ele>
<time>2023-05-16T10:28:55Z</time>
</trkpt>
<trkpt lat="48.9604729693383" lon="9.658432994037867">
<ele>326.20000000000005</ele>
<time>2023-05-16T10:28:56Z</time>
</trkpt>
<trkpt lat="48.96050197072327" lon="9.658324951305985">
<ele>325.79999999999995</ele>
<time>2023-05-16T10:28:57Z</time>
</trkpt>
<trkpt lat="48.96052694879472" lon="9.658212969079614">
<ele>325.6</ele>
<time>2023-05-16T10:28:58Z</time>
</trkpt>
<trkpt lat="48.9605469815433" lon="9.658092940226197">
<ele>325.20000000000005</ele>
<time>2023-05-16T10:28:59Z</time>
</trkpt>
<trkpt lat="48.96055997349322" lon="9.65796796604991">
<ele>324.79999999999995</ele>
<time>2023-05-16T10:29:00Z</time>
</trkpt>
<trkpt lat="48.96056693047285" lon="9.657832933589816">
<ele>324.4</ele>
<time>2023-05-16T10:29:01Z</time>
</trkpt>
<trkpt lat="48.96056793630123" lon="9.657696979120374">
<ele>324</ele>
<time>2023-05-16T10:29:02Z</time>
</trkpt>
<trkpt lat="48.96056693047285" lon="9.657559935003519">
<ele>323.6</ele>
<time>2023-05-16T10:29:03Z</time>
</trkpt>
<trkpt lat="48.96056793630123" lon="9.657421968877316">
<ele>323.20000000000005</ele>
<time>2023-05-16T10:29:04Z</time>
</trkpt>
<trkpt lat="48.960574977099895" lon="9.657287942245603">
<ele>322.79999999999995</ele>
<time>2023-05-16T10:29:05Z</time>
</trkpt>
<trkpt lat="48.96058696322143" lon="9.65715299360454">
<ele>322.4</ele>
<time>2023-05-16T10:29:06Z</time>
</trkpt>
<trkpt lat="48.96060498431325" lon="9.65702692978084">
<ele>322</ele>
<time>2023-05-16T10:29:07Z</time>
</trkpt>
<trkpt lat="48.96062795072794" lon="9.656909918412566">
<ele>321.6</ele>
<time>2023-05-16T10:29:08Z</time>
</trkpt>
<trkpt lat="48.96065292879939" lon="9.656804976984859">
<ele>321.20000000000005</ele>
<time>2023-05-16T10:29:09Z</time>
</trkpt>
<trkpt lat="48.960684947669506" lon="9.656706992536783">
<ele>320.79999999999995</ele>
<time>2023-05-16T10:29:10Z</time>
</trkpt>
<trkpt lat="48.960726941004395" lon="9.65661697089672">
<ele>320.6</ele>
<time>2023-05-16T10:29:11Z</time>
</trkpt>
<trkpt lat="48.96077496930957" lon="9.656536923721433">
<ele>320.20000000000005</ele>
<time>2023-05-16T10:29:12Z</time>
</trkpt>
<trkpt lat="48.96082492545247" lon="9.656457966193557">
<ele>320</ele>
<time>2023-05-16T10:29:13Z</time>
</trkpt>
<trkpt lat="48.96087798289955" lon="9.656377919018269">
<ele>319.79999999999995</ele>
<time>2023-05-16T10:29:14Z</time>
</trkpt>
<trkpt lat="48.96093196235597" lon="9.656301978975534">
<ele>319.4</ele>
<time>2023-05-16T10:29:15Z</time>
</trkpt>
<trkpt lat="48.96098694764078" lon="9.656217992305756">
<ele>319.20000000000005</ele>
<time>2023-05-16T10:29:16Z</time>
</trkpt>
<trkpt lat="48.961047967895865" lon="9.656136939302087">
<ele>318.79999999999995</ele>
<time>2023-05-16T10:29:17Z</time>
</trkpt>
<trkpt lat="48.96110697649419" lon="9.656049935147166">
<ele>318.6</ele>
<time>2023-05-16T10:29:18Z</time>
</trkpt>
<trkpt lat="48.961161961779" lon="9.655961925163865">
<ele>318.4</ele>
<time>2023-05-16T10:29:19Z</time>
</trkpt>
<trkpt lat="48.96122197620571" lon="9.655874921008945">
<ele>318</ele>
<time>2023-05-16T10:29:20Z</time>
</trkpt>
<trkpt lat="48.961281990632415" lon="9.655789928510785">
<ele>317.79999999999995</ele>
<time>2023-05-16T10:29:21Z</time>
</trkpt>
<trkpt lat="48.96133697591722" lon="9.655704936012626">
<ele>317.6</ele>
<time>2023-05-16T10:29:22Z</time>
</trkpt>
<trkpt lat="48.961392967030406" lon="9.655617931857705">
<ele>317.4</ele>
<time>2023-05-16T10:29:23Z</time>
</trkpt>
<trkpt lat="48.96144694648683" lon="9.655526988208294">
<ele>317</ele>
<time>2023-05-16T10:29:24Z</time>
</trkpt>
<trkpt lat="48.96149195730686" lon="9.655426992103457">
<ele>316.79999999999995</ele>
<time>2023-05-16T10:29:25Z</time>
</trkpt>
<trkpt lat="48.96153294481337" lon="9.655321966856718">
<ele>316.6</ele>
<time>2023-05-16T10:29:26Z</time>
</trkpt>
<trkpt lat="48.96156999282539" lon="9.655214929953218">
<ele>316.4</ele>
<time>2023-05-16T10:29:27Z</time>
</trkpt>
<trkpt lat="48.961604945361614" lon="9.655107976868749">
<ele>316.20000000000005</ele>
<time>2023-05-16T10:29:28Z</time>
</trkpt>
<trkpt lat="48.96163294091821" lon="9.654996916651726">
<ele>316</ele>
<time>2023-05-16T10:29:29Z</time>
</trkpt>
<trkpt lat="48.96165791898966" lon="9.654877977445722">
<ele>315.79999999999995</ele>
<time>2023-05-16T10:29:30Z</time>
</trkpt>
<trkpt lat="48.96168298088014" lon="9.65476498939097">
<ele>315.6</ele>
<time>2023-05-16T10:29:31Z</time>
</trkpt>
<trkpt lat="48.96170695312321" lon="9.654654935002327">
<ele>315.4</ele>
<time>2023-05-16T10:29:32Z</time>
</trkpt>
<trkpt lat="48.961734948679805" lon="9.654547981917858">
<ele>315.20000000000005</ele>
<time>2023-05-16T10:29:33Z</time>
</trkpt>
<trkpt lat="48.9617679733783" lon="9.654447985813022">
<ele>315</ele>
<time>2023-05-16T10:29:34Z</time>
</trkpt>
<trkpt lat="48.96180493757129" lon="9.654352935031056">
<ele>314.79999999999995</ele>
<time>2023-05-16T10:29:35Z</time>
</trkpt>
<trkpt lat="48.96184693090618" lon="9.654264925047755">
<ele>314.6</ele>
<time>2023-05-16T10:29:36Z</time>
</trkpt>
<trkpt lat="48.96189194172621" lon="9.65418797917664">
<ele>314.4</ele>
<time>2023-05-16T10:29:37Z</time>
</trkpt>
<trkpt lat="48.96194198168814" lon="9.654116984456778">
<ele>314.4</ele>
<time>2023-05-16T10:29:38Z</time>
</trkpt>
<trkpt lat="48.961987998336554" lon="9.654052946716547">
<ele>314.4</ele>
<time>2023-05-16T10:29:39Z</time>
</trkpt>
<trkpt lat="48.962034936994314" lon="9.653991926461458">
<ele>314.4</ele>
<time>2023-05-16T10:29:40Z</time>
</trkpt>
<trkpt lat="48.96208195947111" lon="9.653931995853782">
<ele>314.4</ele>
<time>2023-05-16T10:29:41Z</time>
</trkpt>
<trkpt lat="48.962122946977615" lon="9.653877932578325">
<ele>314.4</ele>
<time>2023-05-16T10:29:42Z</time>
</trkpt>
<trkpt lat="48.96216192282736" lon="9.653834933415055">
<ele>314.4</ele>
<time>2023-05-16T10:29:43Z</time>
</trkpt>
<trkpt lat="48.96219695918262" lon="9.653807943686843">
<ele>314.20000000000005</ele>
<time>2023-05-16T10:29:44Z</time>
</trkpt>
<trkpt lat="48.96223199553788" lon="9.65379998087883">
<ele>314.20000000000005</ele>
<time>2023-05-16T10:29:45Z</time>
</trkpt>
<trkpt lat="48.9622619189322" lon="9.653814984485507">
<ele>314.20000000000005</ele>
<time>2023-05-16T10:29:46Z</time>
</trkpt>
<trkpt lat="48.96228798665106" lon="9.653834933415055">
<ele>314.20000000000005</ele>
<time>2023-05-16T10:29:47Z</time>
</trkpt>
<trkpt lat="48.962314976379275" lon="9.653849937021732">
<ele>314.4</ele>
<time>2023-05-16T10:29:48Z</time>
</trkpt>
<trkpt lat="48.962337942793965" lon="9.65386494062841">
<ele>314.4</ele>
<time>2023-05-16T10:29:49Z</time>
</trkpt>
<trkpt lat="48.96236292086542" lon="9.653877932578325">
<ele>314.4</ele>
<time>2023-05-16T10:29:50Z</time>
</trkpt>
<trkpt lat="48.9623879827559" lon="9.653892936185002">
<ele>314.6</ele>
<time>2023-05-16T10:29:51Z</time>
</trkpt>
<trkpt lat="48.96241296082735" lon="9.65390995144844">
<ele>314.79999999999995</ele>
<time>2023-05-16T10:29:52Z</time>
</trkpt>
<trkpt lat="48.96243198774755" lon="9.653931995853782">
<ele>315</ele>
<time>2023-05-16T10:29:53Z</time>
</trkpt>
<trkpt lat="48.962442968040705" lon="9.653954962268472">
<ele>315</ele>
<time>2023-05-16T10:29:54Z</time>
</trkpt>
<trkpt lat="48.96244799718261" lon="9.653964936733246">
<ele>315.20000000000005</ele>
<time>2023-05-16T10:29:55Z</time>
</trkpt>
<trkpt lat="48.9624519366771" lon="9.653966948390007">
<ele>315.4</ele>
<time>2023-05-16T10:29:56Z</time>
</trkpt>
<trkpt lat="48.9624519366771" lon="9.653962925076485">
<ele>315.4</ele>
<time>2023-05-16T10:29:57Z</time>
</trkpt>
<trkpt lat="48.962399968877435" lon="9.653911963105202">
<ele>315.6</ele>
<time>2023-05-16T10:29:57Z</time>
</trkpt>
<trkpt lat="48.9623879827559" lon="9.653904922306538">
<ele>315.6</ele>
<time>2023-05-16T10:29:58Z</time>
</trkpt>
<trkpt lat="48.962377924472094" lon="9.653899976983666">
<ele>315.6</ele>
<time>2023-05-16T10:29:59Z</time>
</trkpt>
<trkpt lat="48.96237197332084" lon="9.653897965326905">
<ele>315.6</ele>
<time>2023-05-16T10:30:00Z</time>
</trkpt>
<trkpt lat="48.962357975542545" lon="9.653894947841763">
<ele>315.4</ele>
<time>2023-05-16T10:30:01Z</time>
</trkpt>
<trkpt lat="48.9623499289155" lon="9.65388991869986">
<ele>315.4</ele>
<time>2023-05-16T10:30:02Z</time>
</trkpt>
<trkpt lat="48.96234699524939" lon="9.653887990862131">
<ele>315.4</ele>
<time>2023-05-16T10:30:03Z</time>
</trkpt>
<trkpt lat="48.96233995445073" lon="9.65388497337699">
<ele>315.20000000000005</ele>
<time>2023-05-16T10:30:04Z</time>
</trkpt>
<trkpt lat="48.962334925308824" lon="9.653879944235086">
<ele>315.20000000000005</ele>
<time>2023-05-16T10:30:05Z</time>
</trkpt>
<trkpt lat="48.96232997998595" lon="9.653876926749945">
<ele>315.20000000000005</ele>
<time>2023-05-16T10:30:06Z</time>
</trkpt>
<trkpt lat="48.96232696250081" lon="9.653871981427073">
<ele>315</ele>
<time>2023-05-16T10:30:07Z</time>
</trkpt>
<trkpt lat="48.96232495084405" lon="9.653867958113551">
<ele>315</ele>
<time>2023-05-16T10:30:08Z</time>
</trkpt>
<trkpt lat="48.96232193335891" lon="9.65386695228517">
<ele>315</ele>
<time>2023-05-16T10:30:09Z</time>
</trkpt>
<trkpt lat="48.9622999727726" lon="9.65384197421372">
<ele>314.6</ele>
<time>2023-05-16T10:30:09Z</time>
</trkpt>
<trkpt lat="48.962291926145554" lon="9.653839962556958">
<ele>314.6</ele>
<time>2023-05-16T10:30:10Z</time>
</trkpt>
<trkpt lat="48.96228798665106" lon="9.653839962556958">
<ele>314.6</ele>
<time>2023-05-16T10:30:11Z</time>
</trkpt>
<trkpt lat="48.96228698082268" lon="9.653837950900197">
<ele>314.4</ele>
<time>2023-05-16T10:30:12Z</time>
</trkpt>
<trkpt lat="48.962272983044386" lon="9.653789922595024">
<ele>313.79999999999995</ele>
<time>2023-05-16T10:30:13Z</time>
</trkpt>
<trkpt lat="48.96227994002402" lon="9.653766956180334">
<ele>313.79999999999995</ele>
<time>2023-05-16T10:30:14Z</time>
</trkpt>
<trkpt lat="48.96228698082268" lon="9.653746923431754">
<ele>313.79999999999995</ele>
<time>2023-05-16T10:30:15Z</time>
</trkpt>
<trkpt lat="48.962294943630695" lon="9.653726974502206">
<ele>313.79999999999995</ele>
<time>2023-05-16T10:30:16Z</time>
</trkpt>
<trkpt lat="48.96230491809547" lon="9.653707947582006">
<ele>313.79999999999995</ele>
<time>2023-05-16T10:30:17Z</time>
</trkpt>
<trkpt lat="48.96231799386442" lon="9.653689926490188">
<ele>313.79999999999995</ele>
<time>2023-05-16T10:30:18Z</time>
</trkpt>
<trkpt lat="48.962332997471094" lon="9.65366997756064">
<ele>313.79999999999995</ele>
<time>2023-05-16T10:30:19Z</time>
</trkpt>
<trkpt lat="48.9623499289155" lon="9.653644999489188">
<ele>313.79999999999995</ele>
<time>2023-05-16T10:30:20Z</time>
</trkpt>
<trkpt lat="48.96236795000732" lon="9.653617925941944">
<ele>313.79999999999995</ele>
<time>2023-05-16T10:30:21Z</time>
</trkpt>
<trkpt lat="48.9623879827559" lon="9.653589930385351">
<ele>313.79999999999995</ele>
<time>2023-05-16T10:30:22Z</time>
</trkpt>
<trkpt lat="48.96240793168545" lon="9.653557995334268">
<ele>313.79999999999995</ele>
<time>2023-05-16T10:30:23Z</time>
</trkpt>
<trkpt lat="48.96243198774755" lon="9.653524970635772">
<ele>313.79999999999995</ele>
<time>2023-05-16T10:30:24Z</time>
</trkpt>
<trkpt lat="48.96245495416224" lon="9.653487922623754">
<ele>314</ele>
<time>2023-05-16T10:30:25Z</time>
</trkpt>
<trkpt lat="48.96247993223369" lon="9.653446935117245">
<ele>314</ele>
<time>2023-05-16T10:30:26Z</time>
</trkpt>
<trkpt lat="48.962504994124174" lon="9.653399996459484">
<ele>314.20000000000005</ele>
<time>2023-05-16T10:30:27Z</time>
</trkpt>
<trkpt lat="48.962529972195625" lon="9.653347944840789">
<ele>314.20000000000005</ele>
<time>2023-05-16T10:30:28Z</time>
</trkpt>
<trkpt lat="48.96255696192384" lon="9.653291953727603">
<ele>314.20000000000005</ele>
<time>2023-05-16T10:30:29Z</time>
</trkpt>
<trkpt lat="48.96258193999529" lon="9.653234956786036">
<ele>314.4</ele>
<time>2023-05-16T10:30:30Z</time>
</trkpt>
<trkpt lat="48.96260499022901" lon="9.653174942359328">
<ele>314.4</ele>
<time>2023-05-16T10:30:31Z</time>
</trkpt>
<trkpt lat="48.96262695081532" lon="9.653112916275859">
<ele>314.6</ele>
<time>2023-05-16T10:30:32Z</time>
</trkpt>
<trkpt lat="48.96264798939228" lon="9.653051979839802">
<ele>314.6</ele>
<time>2023-05-16T10:30:33Z</time>
</trkpt>
<trkpt lat="48.96266793832183" lon="9.65298693627119">
<ele>314.79999999999995</ele>
<time>2023-05-16T10:30:34Z</time>
</trkpt>
<trkpt lat="48.96268495358527" lon="9.65291996486485">
<ele>314.79999999999995</ele>
<time>2023-05-16T10:30:35Z</time>
</trkpt>
<trkpt lat="48.9626969397068" lon="9.652846958488226">
<ele>314.79999999999995</ele>
<time>2023-05-16T10:30:36Z</time>
</trkpt>
<trkpt lat="48.96270791999996" lon="9.65276992879808">
<ele>314.79999999999995</ele>
<time>2023-05-16T10:30:37Z</time>
</trkpt>
<trkpt lat="48.962721917778254" lon="9.652691977098584">
<ele>314.79999999999995</ele>
<time>2023-05-16T10:30:38Z</time>
</trkpt>
<trkpt lat="48.96273197606206" lon="9.652614947408438">
<ele>314.79999999999995</ele>
<time>2023-05-16T10:30:39Z</time>
</trkpt>
<trkpt lat="48.96273692138493" lon="9.652536995708942">
<ele>314.79999999999995</ele>
<time>2023-05-16T10:30:40Z</time>
</trkpt>
<trkpt lat="48.96273993887007" lon="9.652454936876893">
<ele>314.79999999999995</ele>
<time>2023-05-16T10:30:41Z</time>
</trkpt>
<trkpt lat="48.96274195052683" lon="9.652372961863875">
<ele>314.79999999999995</ele>
<time>2023-05-16T10:30:42Z</time>
</trkpt>
<trkpt lat="48.96274195052683" lon="9.652287969365716">
<ele>314.79999999999995</ele>
<time>2023-05-16T10:30:43Z</time>
</trkpt>
<trkpt lat="48.96274195052683" lon="9.652204988524318">
<ele>314.6</ele>
<time>2023-05-16T10:30:44Z</time>
</trkpt>
<trkpt lat="48.96274195052683" lon="9.652116978541017">
<ele>314.6</ele>
<time>2023-05-16T10:30:45Z</time>
</trkpt>
<trkpt lat="48.96274195052683" lon="9.652024945244193">
<ele>314.4</ele>
<time>2023-05-16T10:30:46Z</time>
</trkpt>
<trkpt lat="48.96274195052683" lon="9.65193198993802">
<ele>314.20000000000005</ele>
<time>2023-05-16T10:30:47Z</time>
</trkpt>
<trkpt lat="48.962744968011975" lon="9.651834927499294">
<ele>313.79999999999995</ele>
<time>2023-05-16T10:30:48Z</time>
</trkpt>
<trkpt lat="48.962744968011975" lon="9.651736943051219">
<ele>313.6</ele>
<time>2023-05-16T10:30:49Z</time>
</trkpt>
<trkpt lat="48.962744968011975" lon="9.651634935289621">
<ele>313.20000000000005</ele>
<time>2023-05-16T10:30:50Z</time>
</trkpt>
<trkpt lat="48.962744968011975" lon="9.651531921699643">
<ele>312.79999999999995</ele>
<time>2023-05-16T10:30:51Z</time>
</trkpt>
<trkpt lat="48.962744968011975" lon="9.651426980271935">
<ele>312.4</ele>
<time>2023-05-16T10:30:52Z</time>
</trkpt>
<trkpt lat="48.962744968011975" lon="9.651319943368435">
<ele>312.20000000000005</ele>
<time>2023-05-16T10:30:53Z</time>
</trkpt>
<trkpt lat="48.962742956355214" lon="9.651211984455585">
<ele>311.79999999999995</ele>
<time>2023-05-16T10:30:54Z</time>
</trkpt>
<trkpt lat="48.96273792721331" lon="9.651102935895324">
<ele>311.6</ele>
<time>2023-05-16T10:30:55Z</time>
</trkpt>
<trkpt lat="48.96272694692016" lon="9.650999922305346">
<ele>311.4</ele>
<time>2023-05-16T10:30:56Z</time>
</trkpt>
<trkpt lat="48.96271294914186" lon="9.650904955342412">
<ele>311</ele>
<time>2023-05-16T10:30:57Z</time>
</trkpt>
<trkpt lat="48.962699957191944" lon="9.650824991986156">
<ele>310.6</ele>
<time>2023-05-16T10:30:58Z</time>
</trkpt>
<trkpt lat="48.96269291639328" lon="9.650761960074306">
<ele>310.20000000000005</ele>
<time>2023-05-16T10:30:59Z</time>
</trkpt>
<trkpt lat="48.96268998272717" lon="9.650719966739416">
<ele>310</ele>
<time>2023-05-16T10:31:00Z</time>
</trkpt>
<trkpt lat="48.96268696524203" lon="9.650699933990836">
<ele>309.79999999999995</ele>
<time>2023-05-16T10:31:01Z</time>
</trkpt>
<trkpt lat="48.96268696524203" lon="9.650692977011204">
<ele>309.79999999999995</ele>
<time>2023-05-16T10:31:02Z</time>
</trkpt>
<trkpt lat="48.96268797107041" lon="9.650692977011204">
<ele>309.6</ele>
<time>2023-05-16T10:31:02Z</time>
</trkpt>
<trkpt lat="48.96271194331348" lon="9.650657940655947">
<ele>309.6</ele>
<time>2023-05-16T10:31:06Z</time>
</trkpt>
<trkpt lat="48.962721917778254" lon="9.650624999776483">
<ele>309.6</ele>
<time>2023-05-16T10:31:07Z</time>
</trkpt>
<trkpt lat="48.96273197606206" lon="9.650584934279323">
<ele>309.6</ele>
<time>2023-05-16T10:31:08Z</time>
</trkpt>
<trkpt lat="48.96273993887007" lon="9.650541935116053">
<ele>309.6</ele>
<time>2023-05-16T10:31:09Z</time>
</trkpt>
<trkpt lat="48.96274798549712" lon="9.65049197897315">
<ele>309.6</ele>
<time>2023-05-16T10:31:10Z</time>
</trkpt>
<trkpt lat="48.96275192499161" lon="9.650436993688345">
<ele>309.6</ele>
<time>2023-05-16T10:31:11Z</time>
</trkpt>
<trkpt lat="48.96275192499161" lon="9.650381924584508">
<ele>309.6</ele>
<time>2023-05-16T10:31:12Z</time>
</trkpt>
<trkpt lat="48.96275293081999" lon="9.650322999805212">
<ele>309.6</ele>
<time>2023-05-16T10:31:13Z</time>
</trkpt>
<trkpt lat="48.96275795996189" lon="9.650259967893362">
<ele>309.6</ele>
<time>2023-05-16T10:31:14Z</time>
</trkpt>
<trkpt lat="48.962762989103794" lon="9.650192996487021">
<ele>309.6</ele>
<time>2023-05-16T10:31:15Z</time>
</trkpt>
<trkpt lat="48.962766928598285" lon="9.650124935433269">
<ele>309.6</ele>
<time>2023-05-16T10:31:16Z</time>
</trkpt>
<trkpt lat="48.96277296356857" lon="9.650054946541786">
<ele>309.6</ele>
<time>2023-05-16T10:31:17Z</time>
</trkpt>
<trkpt lat="48.96278293803334" lon="9.649986969307065">
<ele>309.4</ele>
<time>2023-05-16T10:31:18Z</time>
</trkpt>
<trkpt lat="48.96279199048877" lon="9.649916980415583">
<ele>309.4</ele>
<time>2023-05-16T10:31:19Z</time>
</trkpt>
<trkpt lat="48.96279693581164" lon="9.6498469915241">
<ele>309.20000000000005</ele>
<time>2023-05-16T10:31:20Z</time>
</trkpt>
<trkpt lat="48.96280498243868" lon="9.649771973490715">
<ele>309.20000000000005</ele>
<time>2023-05-16T10:31:21Z</time>
</trkpt>
<trkpt lat="48.96281495690346" lon="9.649701984599233">
<ele>309</ele>
<time>2023-05-16T10:31:22Z</time>
</trkpt>
<trkpt lat="48.96282493136823" lon="9.64962998405099">
<ele>308.79999999999995</ele>
<time>2023-05-16T10:31:23Z</time>
</trkpt>
<trkpt lat="48.96283691748977" lon="9.649557983502746">
<ele>308.6</ele>
<time>2023-05-16T10:31:24Z</time>
</trkpt>
<trkpt lat="48.96284697577357" lon="9.649491934105754">
<ele>308.6</ele>
<time>2023-05-16T10:31:25Z</time>
</trkpt>
<trkpt lat="48.96285695023835" lon="9.649432925507426">
<ele>308.4</ele>
<time>2023-05-16T10:31:26Z</time>
</trkpt>
<trkpt lat="48.96286692470312" lon="9.649384981021285">
<ele>308.20000000000005</ele>
<time>2023-05-16T10:31:27Z</time>
</trkpt>
<trkpt lat="48.962874971330166" lon="9.649337958544493">
<ele>308.20000000000005</ele>
<time>2023-05-16T10:31:28Z</time>
</trkpt>
<trkpt lat="48.96287991665304" lon="9.649296971037984">
<ele>308</ele>
<time>2023-05-16T10:31:29Z</time>
</trkpt>
<trkpt lat="48.96288796328008" lon="9.649261934682727">
<ele>307.79999999999995</ele>
<time>2023-05-16T10:31:30Z</time>
</trkpt>
<trkpt lat="48.962894920259714" lon="9.649229999631643">
<ele>307.79999999999995</ele>
<time>2023-05-16T10:31:31Z</time>
</trkpt>
<trkpt lat="48.96289994940162" lon="9.64920493774116">
<ele>307.6</ele>
<time>2023-05-16T10:31:32Z</time>
</trkpt>
<trkpt lat="48.96290497854352" lon="9.64918197132647">
<ele>307.6</ele>
<time>2023-05-16T10:31:33Z</time>
</trkpt>
<trkpt lat="48.96291193552315" lon="9.649152969941497">
<ele>307.4</ele>
<time>2023-05-16T10:31:34Z</time>
</trkpt>
<trkpt lat="48.96292299963534" lon="9.649112988263369">
<ele>307.4</ele>
<time>2023-05-16T10:31:35Z</time>
</trkpt>
<trkpt lat="48.962939931079745" lon="9.649062948301435">
<ele>307.20000000000005</ele>
<time>2023-05-16T10:31:36Z</time>
</trkpt>
<trkpt lat="48.962961975485086" lon="9.64900997467339">
<ele>307.20000000000005</ele>
<time>2023-05-16T10:31:37Z</time>
</trkpt>
<trkpt lat="48.962982930243015" lon="9.648957923054695">
<ele>307</ele>
<time>2023-05-16T10:31:38Z</time>
</trkpt>
<trkpt lat="48.96300698630512" lon="9.648906961083412">
<ele>307</ele>
<time>2023-05-16T10:31:39Z</time>
</trkpt>
<trkpt lat="48.96302995271981" lon="9.64885993860662">
<ele>306.79999999999995</ele>
<time>2023-05-16T10:31:40Z</time>
</trkpt>
<trkpt lat="48.96305493079126" lon="9.648811994120479">
<ele>306.79999999999995</ele>
<time>2023-05-16T10:31:41Z</time>
</trkpt>
<trkpt lat="48.96308192051947" lon="9.648759942501783">
<ele>306.79999999999995</ele>
<time>2023-05-16T10:31:42Z</time>
</trkpt>
<trkpt lat="48.963109999895096" lon="9.64870797470212">
<ele>306.6</ele>
<time>2023-05-16T10:31:43Z</time>
</trkpt>
<trkpt lat="48.96314294077456" lon="9.648657934740186">
<ele>306.6</ele>
<time>2023-05-16T10:31:44Z</time>
</trkpt>
<trkpt lat="48.96317998878658" lon="9.648606972768903">
<ele>306.4</ele>
<time>2023-05-16T10:31:45Z</time>
</trkpt>
<trkpt lat="48.963219970464706" lon="9.64855793863535">
<ele>306.4</ele>
<time>2023-05-16T10:31:46Z</time>
</trkpt>
<trkpt lat="48.963262969627976" lon="9.648511921986938">
<ele>306.20000000000005</ele>
<time>2023-05-16T10:31:47Z</time>
</trkpt>
<trkpt lat="48.9633119199425" lon="9.648467916995287">
<ele>306.20000000000005</ele>
<time>2023-05-16T10:31:48Z</time>
</trkpt>
<trkpt lat="48.96335793659091" lon="9.648426929488778">
<ele>306</ele>
<time>2023-05-16T10:31:49Z</time>
</trkpt>
<trkpt lat="48.96340697072446" lon="9.648382924497128">
<ele>305.79999999999995</ele>
<time>2023-05-16T10:31:50Z</time>
</trkpt>
<trkpt lat="48.963452987372875" lon="9.648337997496128">
<ele>305.79999999999995</ele>
<time>2023-05-16T10:31:51Z</time>
</trkpt>
<trkpt lat="48.963499926030636" lon="9.648291980847716">
<ele>305.6</ele>
<time>2023-05-16T10:31:52Z</time>
</trkpt>
<trkpt lat="48.963541919365525" lon="9.648252921178937">
<ele>305.4</ele>
<time>2023-05-16T10:31:53Z</time>
</trkpt>
<trkpt lat="48.963584918528795" lon="9.648207994177938">
<ele>305.4</ele>
<time>2023-05-16T10:31:54Z</time>
</trkpt>
<trkpt lat="48.963627917692065" lon="9.648162983357906">
<ele>305.20000000000005</ele>
<time>2023-05-16T10:31:55Z</time>
</trkpt>
<trkpt lat="48.963669994845986" lon="9.648114955052733">
<ele>305.20000000000005</ele>
<time>2023-05-16T10:31:56Z</time>
</trkpt>
<trkpt lat="48.963711988180876" lon="9.648064998909831">
<ele>305.20000000000005</ele>
<time>2023-05-16T10:31:57Z</time>
</trkpt>
<trkpt lat="48.963751969859004" lon="9.648011941462755">
<ele>305</ele>
<time>2023-05-16T10:31:58Z</time>
</trkpt>
<trkpt lat="48.96379195153713" lon="9.64795695617795">
<ele>305</ele>
<time>2023-05-16T10:31:59Z</time>
</trkpt>
<trkpt lat="48.9638299215585" lon="9.647899959236383">
<ele>305</ele>
<time>2023-05-16T10:32:00Z</time>
</trkpt>
<trkpt lat="48.96386696957052" lon="9.647837933152914">
<ele>305</ele>
<time>2023-05-16T10:32:01Z</time>
</trkpt>
<trkpt lat="48.96390192210674" lon="9.647774985060096">
<ele>304.79999999999995</ele>
<time>2023-05-16T10:32:02Z</time>
</trkpt>
<trkpt lat="48.96393997594714" lon="9.647706924006343">
<ele>304.79999999999995</ele>
<time>2023-05-16T10:32:03Z</time>
</trkpt>
<trkpt lat="48.96397794596851" lon="9.647637940943241">
<ele>304.79999999999995</ele>
<time>2023-05-16T10:32:04Z</time>
</trkpt>
<trkpt lat="48.964016921818256" lon="9.647567952051759">
<ele>304.6</ele>
<time>2023-05-16T10:32:05Z</time>
</trkpt>
<trkpt lat="48.964056987315416" lon="9.647494945675135">
<ele>304.4</ele>
<time>2023-05-16T10:32:06Z</time>
</trkpt>
<trkpt lat="48.964097974821925" lon="9.64742193929851">
<ele>304.20000000000005</ele>
<time>2023-05-16T10:32:07Z</time>
</trkpt>
<trkpt lat="48.96413795650005" lon="9.647346921265125">
<ele>304.20000000000005</ele>
<time>2023-05-16T10:32:08Z</time>
</trkpt>
<trkpt lat="48.9641769323498" lon="9.64726997539401">
<ele>304</ele>
<time>2023-05-16T10:32:09Z</time>
</trkpt>
<trkpt lat="48.9642149861902" lon="9.647196969017386">
<ele>303.79999999999995</ele>
<time>2023-05-16T10:32:10Z</time>
</trkpt>
<trkpt lat="48.964251950383186" lon="9.647124968469143">
<ele>303.6</ele>
<time>2023-05-16T10:32:11Z</time>
</trkpt>
<trkpt lat="48.96428992040455" lon="9.64705497957766">
<ele>303.4</ele>
<time>2023-05-16T10:32:12Z</time>
</trkpt>
<trkpt lat="48.96432797424495" lon="9.646982979029417">
<ele>303.20000000000005</ele>
<time>2023-05-16T10:32:13Z</time>
</trkpt>
<trkpt lat="48.96436996757984" lon="9.646909972652793">
<ele>303</ele>
<time>2023-05-16T10:32:14Z</time>
</trkpt>
<trkpt lat="48.96440793760121" lon="9.646836966276169">
<ele>302.79999999999995</ele>
<time>2023-05-16T10:32:15Z</time>
</trkpt>
<trkpt lat="48.96444699726999" lon="9.646762954071164">
<ele>302.79999999999995</ele>
<time>2023-05-16T10:32:16Z</time>
</trkpt>
<trkpt lat="48.964484967291355" lon="9.646691959351301">
<ele>302.6</ele>
<time>2023-05-16T10:32:17Z</time>
</trkpt>
<trkpt lat="48.96452193148434" lon="9.646621970459819">
<ele>302.4</ele>
<time>2023-05-16T10:32:18Z</time>
</trkpt>
<trkpt lat="48.96455998532474" lon="9.646547958254814">
<ele>302.4</ele>
<time>2023-05-16T10:32:19Z</time>
</trkpt>
<trkpt lat="48.96459694951773" lon="9.646476963534951">
<ele>302.20000000000005</ele>
<time>2023-05-16T10:32:20Z</time>
</trkpt>
<trkpt lat="48.964634919539094" lon="9.64640798047185">
<ele>302.20000000000005</ele>
<time>2023-05-16T10:32:21Z</time>
</trkpt>
<trkpt lat="48.96467196755111" lon="9.646339919418097">
<ele>302.20000000000005</ele>
<time>2023-05-16T10:32:22Z</time>
</trkpt>
<trkpt lat="48.96470792591572" lon="9.646267918869853">
<ele>302</ele>
<time>2023-05-16T10:32:23Z</time>
</trkpt>
<trkpt lat="48.964741956442595" lon="9.646201953291893">
<ele>302</ele>
<time>2023-05-16T10:32:24Z</time>
</trkpt>
<trkpt lat="48.96477799862623" lon="9.646134981885552">
<ele>301.79999999999995</ele>
<time>2023-05-16T10:32:25Z</time>
</trkpt>
<trkpt lat="48.96481496281922" lon="9.64606792666018">
<ele>301.79999999999995</ele>
<time>2023-05-16T10:32:26Z</time>
</trkpt>
<trkpt lat="48.964849999174476" lon="9.645997937768698">
<ele>301.6</ele>
<time>2023-05-16T10:32:27Z</time>
</trkpt>
<trkpt lat="48.9648849517107" lon="9.645931972190738">
<ele>301.6</ele>
<time>2023-05-16T10:32:28Z</time>
</trkpt>
<trkpt lat="48.96491998806596" lon="9.645864916965365">
<ele>301.6</ele>
<time>2023-05-16T10:32:29Z</time>
</trkpt>
<trkpt lat="48.964956952258945" lon="9.645797945559025">
<ele>301.6</ele>
<time>2023-05-16T10:32:30Z</time>
</trkpt>
<trkpt lat="48.96498997695744" lon="9.645734997466207">
<ele>301.6</ele>
<time>2023-05-16T10:32:31Z</time>
</trkpt>
<trkpt lat="48.965022917836905" lon="9.645671965554357">
<ele>301.6</ele>
<time>2023-05-16T10:32:32Z</time>
</trkpt>
<trkpt lat="48.96505795419216" lon="9.645604994148016">
<ele>301.4</ele>
<time>2023-05-16T10:32:33Z</time>
</trkpt>
<trkpt lat="48.96509299054742" lon="9.645536933094263">
<ele>301.4</ele>
<time>2023-05-16T10:32:34Z</time>
</trkpt>
<trkpt lat="48.96512693725526" lon="9.64546694420278">
<ele>301.4</ele>
<time>2023-05-16T10:32:35Z</time>
</trkpt>
<trkpt lat="48.96515996195376" lon="9.645396955311298">
<ele>301.4</ele>
<time>2023-05-16T10:32:36Z</time>
</trkpt>
<trkpt lat="48.965194998309016" lon="9.645327972248197">
<ele>301.20000000000005</ele>
<time>2023-05-16T10:32:37Z</time>
</trkpt>
<trkpt lat="48.965231962502" lon="9.645262928679585">
<ele>301.20000000000005</ele>
<time>2023-05-16T10:32:38Z</time>
</trkpt>
<trkpt lat="48.96526792086661" lon="9.645196963101625">
<ele>301.20000000000005</ele>
<time>2023-05-16T10:32:39Z</time>
</trkpt>
<trkpt lat="48.96530496887863" lon="9.645131919533014">
<ele>301.20000000000005</ele>
<time>2023-05-16T10:32:40Z</time>
</trkpt>
<trkpt lat="48.96533992141485" lon="9.645064948126674">
<ele>301.20000000000005</ele>
<time>2023-05-16T10:32:41Z</time>
</trkpt>
<trkpt lat="48.96537495777011" lon="9.644997976720333">
<ele>301.20000000000005</ele>
<time>2023-05-16T10:32:42Z</time>
</trkpt>
<trkpt lat="48.965409994125366" lon="9.644929999485612">
<ele>301.20000000000005</ele>
<time>2023-05-16T10:32:43Z</time>
</trkpt>
<trkpt lat="48.96544695831835" lon="9.64486294426024">
<ele>301.20000000000005</ele>
<time>2023-05-16T10:32:44Z</time>
</trkpt>
<trkpt lat="48.96548199467361" lon="9.644794967025518">
<ele>301.20000000000005</ele>
<time>2023-05-16T10:32:45Z</time>
</trkpt>
<trkpt lat="48.965517953038216" lon="9.644727995619178">
<ele>301.20000000000005</ele>
<time>2023-05-16T10:32:46Z</time>
</trkpt>
<trkpt lat="48.9655549172312" lon="9.644659934565425">
<ele>301.20000000000005</ele>
<time>2023-05-16T10:32:47Z</time>
</trkpt>
<trkpt lat="48.96559196524322" lon="9.644587934017181">
<ele>301.20000000000005</ele>
<time>2023-05-16T10:32:48Z</time>
</trkpt>
<trkpt lat="48.96562993526459" lon="9.644517945125699">
<ele>301.20000000000005</ele>
<time>2023-05-16T10:32:49Z</time>
</trkpt>
<trkpt lat="48.965666983276606" lon="9.644447956234217">
<ele>301.20000000000005</ele>
<time>2023-05-16T10:32:50Z</time>
</trkpt>
<trkpt lat="48.96570495329797" lon="9.64437193237245">
<ele>301.20000000000005</ele>
<time>2023-05-16T10:32:51Z</time>
</trkpt>
<trkpt lat="48.96574191749096" lon="9.644299931824207">
<ele>301.20000000000005</ele>
<time>2023-05-16T10:32:52Z</time>
</trkpt>
<trkpt lat="48.965776953846216" lon="9.644231954589486">
<ele>301.20000000000005</ele>
<time>2023-05-16T10:32:53Z</time>
</trkpt>
<trkpt lat="48.96581199020147" lon="9.644169928506017">
<ele>301.20000000000005</ele>
<time>2023-05-16T10:32:54Z</time>
</trkpt>
<trkpt lat="48.96584794856608" lon="9.644104968756437">
<ele>301.20000000000005</ele>
<time>2023-05-16T10:32:55Z</time>
</trkpt>
<trkpt lat="48.9658849965781" lon="9.644036991521716">
<ele>301.20000000000005</ele>
<time>2023-05-16T10:32:56Z</time>
</trkpt>
<trkpt lat="48.965921960771084" lon="9.643969936296344">
<ele>301.20000000000005</ele>
<time>2023-05-16T10:32:57Z</time>
</trkpt>
<trkpt lat="48.96595791913569" lon="9.643902964890003">
<ele>301.20000000000005</ele>
<time>2023-05-16T10:32:58Z</time>
</trkpt>
<trkpt lat="48.96599697880447" lon="9.643834987655282">
<ele>301.20000000000005</ele>
<time>2023-05-16T10:32:59Z</time>
</trkpt>
<trkpt lat="48.9660369604826" lon="9.643771955743432">
<ele>301.20000000000005</ele>
<time>2023-05-16T10:33:00Z</time>
</trkpt>
<trkpt lat="48.96607995964587" lon="9.643709929659963">
<ele>301.20000000000005</ele>
<time>2023-05-16T10:33:01Z</time>
</trkpt>
<trkpt lat="48.96612295880914" lon="9.643651926890016">
<ele>301.20000000000005</ele>
<time>2023-05-16T10:33:02Z</time>
</trkpt>
<trkpt lat="48.96616998128593" lon="9.64359694160521">
<ele>301.20000000000005</ele>
<time>2023-05-16T10:33:03Z</time>
</trkpt>
<trkpt lat="48.96622194908559" lon="9.643544973805547">
<ele>301</ele>
<time>2023-05-16T10:33:04Z</time>
</trkpt>
<trkpt lat="48.96627299487591" lon="9.643499962985516">
<ele>301</ele>
<time>2023-05-16T10:33:05Z</time>
</trkpt>
<trkpt lat="48.96632697433233" lon="9.643454952165484">
<ele>301</ele>
<time>2023-05-16T10:33:06Z</time>
</trkpt>
<trkpt lat="48.96637994796038" lon="9.643411953002214">
<ele>301</ele>
<time>2023-05-16T10:33:07Z</time>
</trkpt>
<trkpt lat="48.96643493324518" lon="9.643366942182183">
<ele>300.79999999999995</ele>
<time>2023-05-16T10:33:08Z</time>
</trkpt>
<trkpt lat="48.96648799069226" lon="9.643322937190533">
<ele>300.79999999999995</ele>
<time>2023-05-16T10:33:09Z</time>
</trkpt>
<trkpt lat="48.96654297597706" lon="9.643279938027263">
<ele>300.79999999999995</ele>
<time>2023-05-16T10:33:10Z</time>
</trkpt>
<trkpt lat="48.96659494377673" lon="9.643239956349134">
<ele>300.6</ele>
<time>2023-05-16T10:33:11Z</time>
</trkpt>
<trkpt lat="48.96664791740477" lon="9.643197963014245">
<ele>300.6</ele>
<time>2023-05-16T10:33:12Z</time>
</trkpt>
<trkpt lat="48.96670198068023" lon="9.643156975507736">
<ele>300.6</ele>
<time>2023-05-16T10:33:13Z</time>
</trkpt>
<trkpt lat="48.96675294265151" lon="9.643114982172847">
<ele>300.6</ele>
<time>2023-05-16T10:33:14Z</time>
</trkpt>
<trkpt lat="48.966804994270205" lon="9.643074916675687">
<ele>300.6</ele>
<time>2023-05-16T10:33:15Z</time>
</trkpt>
<trkpt lat="48.96685495041311" lon="9.643032923340797">
<ele>300.6</ele>
<time>2023-05-16T10:33:16Z</time>
</trkpt>
<trkpt lat="48.96690297871828" lon="9.64299495331943">
<ele>300.6</ele>
<time>2023-05-16T10:33:17Z</time>
</trkpt>
<trkpt lat="48.96695293486118" lon="9.642952959984541">
<ele>300.6</ele>
<time>2023-05-16T10:33:18Z</time>
</trkpt>
<trkpt lat="48.96700297482312" lon="9.64290694333613">
<ele>300.6</ele>
<time>2023-05-16T10:33:19Z</time>
</trkpt>
<trkpt lat="48.96705293096602" lon="9.642859920859337">
<ele>300.6</ele>
<time>2023-05-16T10:33:20Z</time>
</trkpt>
<trkpt lat="48.96710196509957" lon="9.64280292391777">
<ele>300.6</ele>
<time>2023-05-16T10:33:21Z</time>
</trkpt>
<trkpt lat="48.967146975919604" lon="9.642739975824952">
<ele>300.4</ele>
<time>2023-05-16T10:33:22Z</time>
</trkpt>
<trkpt lat="48.967189975082874" lon="9.642666969448328">
<ele>300.4</ele>
<time>2023-05-16T10:33:23Z</time>
</trkpt>
<trkpt lat="48.967232974246144" lon="9.642589939758182">
<ele>300.20000000000005</ele>
<time>2023-05-16T10:33:24Z</time>
</trkpt>
<trkpt lat="48.967274967581034" lon="9.642509976401925">
<ele>300.20000000000005</ele>
<time>2023-05-16T10:33:25Z</time>
</trkpt>
<trkpt lat="48.9673129376024" lon="9.642426995560527">
<ele>300</ele>
<time>2023-05-16T10:33:26Z</time>
</trkpt>
<trkpt lat="48.96735199727118" lon="9.642336973920465">
<ele>299.79999999999995</ele>
<time>2023-05-16T10:33:27Z</time>
</trkpt>
<trkpt lat="48.967387955635786" lon="9.6422419231385">
<ele>299.6</ele>
<time>2023-05-16T10:33:28Z</time>
</trkpt>
<trkpt lat="48.967426931485534" lon="9.642146956175566">
<ele>299.4</ele>
<time>2023-05-16T10:33:29Z</time>
</trkpt>
<trkpt lat="48.967466996982694" lon="9.642049977555871">
<ele>299</ele>
<time>2023-05-16T10:33:30Z</time>
</trkpt>
<trkpt lat="48.96750496700406" lon="9.641951993107796">
<ele>298.79999999999995</ele>
<time>2023-05-16T10:33:31Z</time>
</trkpt>
<trkpt lat="48.96754494868219" lon="9.641852919012308">
<ele>298.6</ele>
<time>2023-05-16T10:33:32Z</time>
</trkpt>
<trkpt lat="48.967582918703556" lon="9.641754934564233">
<ele>298.20000000000005</ele>
<time>2023-05-16T10:33:33Z</time>
</trkpt>
<trkpt lat="48.967622984200716" lon="9.641656950116158">
<ele>298</ele>
<time>2023-05-16T10:33:34Z</time>
</trkpt>
<trkpt lat="48.967662965878844" lon="9.641557959839702">
<ele>297.6</ele>
<time>2023-05-16T10:33:35Z</time>
</trkpt>
<trkpt lat="48.96770294755697" lon="9.641459975391626">
<ele>297.4</ele>
<time>2023-05-16T10:33:36Z</time>
</trkpt>
<trkpt lat="48.9677429292351" lon="9.641361990943551">
<ele>297.20000000000005</ele>
<time>2023-05-16T10:33:37Z</time>
</trkpt>
<trkpt lat="48.96778198890388" lon="9.641264928504825">
<ele>296.79999999999995</ele>
<time>2023-05-16T10:33:38Z</time>
</trkpt>
<trkpt lat="48.967816941440105" lon="9.64116694405675">
<ele>296.6</ele>
<time>2023-05-16T10:33:39Z</time>
</trkpt>
<trkpt lat="48.96785197779536" lon="9.641069965437055">
<ele>296.6</ele>
<time>2023-05-16T10:33:40Z</time>
</trkpt>
<trkpt lat="48.96788491867483" lon="9.64097692631185">
<ele>296.4</ele>
<time>2023-05-16T10:33:41Z</time>
</trkpt>
<trkpt lat="48.96791794337332" lon="9.64088698849082">
<ele>296.20000000000005</ele>
<time>2023-05-16T10:33:42Z</time>
</trkpt>
<trkpt lat="48.96794996224344" lon="9.640797972679138">
<ele>296</ele>
<time>2023-05-16T10:33:43Z</time>
</trkpt>
<trkpt lat="48.967982986941934" lon="9.640712980180979">
<ele>296</ele>
<time>2023-05-16T10:33:44Z</time>
</trkpt>
<trkpt lat="48.96801492199302" lon="9.640624970197678">
<ele>295.79999999999995</ele>
<time>2023-05-16T10:33:45Z</time>
</trkpt>
<trkpt lat="48.96804694086313" lon="9.640536960214376">
<ele>295.79999999999995</ele>
<time>2023-05-16T10:33:46Z</time>
</trkpt>
<trkpt lat="48.96807795390487" lon="9.640449956059456">
<ele>295.6</ele>
<time>2023-05-16T10:33:47Z</time>
</trkpt>
<trkpt lat="48.96810997277498" lon="9.640362951904535">
<ele>295.6</ele>
<time>2023-05-16T10:33:48Z</time>
</trkpt>
<trkpt lat="48.96813997998834" lon="9.640276953577995">
<ele>295.4</ele>
<time>2023-05-16T10:33:49Z</time>
</trkpt>
<trkpt lat="48.96816998720169" lon="9.640187937766314">
<ele>295.4</ele>
<time>2023-05-16T10:33:50Z</time>
</trkpt>
<trkpt lat="48.968201922252774" lon="9.640097999945283">
<ele>295.20000000000005</ele>
<time>2023-05-16T10:33:51Z</time>
</trkpt>
<trkpt lat="48.96823293529451" lon="9.640011917799711">
<ele>295.20000000000005</ele>
<time>2023-05-16T10:33:52Z</time>
</trkpt>
<trkpt lat="48.968266965821385" lon="9.639924997463822">
<ele>295</ele>
<time>2023-05-16T10:33:53Z</time>
</trkpt>
<trkpt lat="48.96829797886312" lon="9.639836987480521">
<ele>295</ele>
<time>2023-05-16T10:33:54Z</time>
</trkpt>
<trkpt lat="48.968329997733235" lon="9.63974797166884">
<ele>294.79999999999995</ele>
<time>2023-05-16T10:33:55Z</time>
</trkpt>
<trkpt lat="48.96836193278432" lon="9.639659961685538">
<ele>294.79999999999995</ele>
<time>2023-05-16T10:33:56Z</time>
</trkpt>
<trkpt lat="48.968392945826054" lon="9.639569940045476">
<ele>294.6</ele>
<time>2023-05-16T10:33:57Z</time>
</trkpt>
<trkpt lat="48.96842295303941" lon="9.639477990567684">
<ele>294.6</ele>
<time>2023-05-16T10:33:58Z</time>
</trkpt>
<trkpt lat="48.96845497190952" lon="9.63938495144248">
<ele>294.4</ele>
<time>2023-05-16T10:33:59Z</time>
</trkpt>
<trkpt lat="48.96848497912288" lon="9.639296941459179">
<ele>294.20000000000005</ele>
<time>2023-05-16T10:34:00Z</time>
</trkpt>
<trkpt lat="48.96851498633623" lon="9.639206919819117">
<ele>294.20000000000005</ele>
<time>2023-05-16T10:34:01Z</time>
</trkpt>
<trkpt lat="48.968544993549585" lon="9.639117987826467">
<ele>294</ele>
<time>2023-05-16T10:34:02Z</time>
</trkpt>
<trkpt lat="48.96857692860067" lon="9.639029977843165">
<ele>294</ele>
<time>2023-05-16T10:34:03Z</time>
</trkpt>
<trkpt lat="48.96860492415726" lon="9.638941967859864">
<ele>293.79999999999995</ele>
<time>2023-05-16T10:34:04Z</time>
</trkpt>
<trkpt lat="48.968632919713855" lon="9.638852952048182">
<ele>293.6</ele>
<time>2023-05-16T10:34:05Z</time>
</trkpt>
<trkpt lat="48.96866192109883" lon="9.638766953721642">
<ele>293.6</ele>
<time>2023-05-16T10:34:06Z</time>
</trkpt>
<trkpt lat="48.96869192831218" lon="9.638674920424819">
<ele>293.6</ele>
<time>2023-05-16T10:34:07Z</time>
</trkpt>
<trkpt lat="48.968717996031046" lon="9.638584982603788">
<ele>293.4</ele>
<time>2023-05-16T10:34:08Z</time>
</trkpt>
<trkpt lat="48.96874699741602" lon="9.638494960963726">
<ele>293.4</ele>
<time>2023-05-16T10:34:09Z</time>
</trkpt>
<trkpt lat="48.96877692081034" lon="9.638406950980425">
<ele>293.20000000000005</ele>
<time>2023-05-16T10:34:10Z</time>
</trkpt>
<trkpt lat="48.968806928023696" lon="9.638316929340363">
<ele>293.20000000000005</ele>
<time>2023-05-16T10:34:11Z</time>
</trkpt>
<trkpt lat="48.96883492358029" lon="9.638227997347713">
<ele>293</ele>
<time>2023-05-16T10:34:12Z</time>
</trkpt>
<trkpt lat="48.96886291913688" lon="9.638139987364411">
<ele>293</ele>
<time>2023-05-16T10:34:13Z</time>
</trkpt>
<trkpt lat="48.968891920521855" lon="9.63805197738111">
<ele>293</ele>
<time>2023-05-16T10:34:14Z</time>
</trkpt>
<trkpt lat="48.96891798824072" lon="9.63796698488295">
<ele>292.79999999999995</ele>
<time>2023-05-16T10:34:15Z</time>
</trkpt>
<trkpt lat="48.96894698962569" lon="9.637877969071269">
<ele>292.79999999999995</ele>
<time>2023-05-16T10:34:16Z</time>
</trkpt>
<trkpt lat="48.968972973525524" lon="9.637791970744729">
<ele>292.79999999999995</ele>
<time>2023-05-16T10:34:17Z</time>
</trkpt>
<trkpt lat="48.96899996325374" lon="9.63770697824657">
<ele>292.6</ele>
<time>2023-05-16T10:34:18Z</time>
</trkpt>
<trkpt lat="48.96902695298195" lon="9.63762299157679">
<ele>292.6</ele>
<time>2023-05-16T10:34:19Z</time>
</trkpt>
<trkpt lat="48.9690519310534" lon="9.637537999078631">
<ele>292.6</ele>
<time>2023-05-16T10:34:20Z</time>
</trkpt>
<trkpt lat="48.96907699294388" lon="9.637454934418201">
<ele>292.6</ele>
<time>2023-05-16T10:34:21Z</time>
</trkpt>
<trkpt lat="48.969102976843715" lon="9.637371953576803">
<ele>292.6</ele>
<time>2023-05-16T10:34:22Z</time>
</trkpt>
<trkpt lat="48.96912996657193" lon="9.637289978563786">
<ele>292.4</ele>
<time>2023-05-16T10:34:23Z</time>
</trkpt>
<trkpt lat="48.96915695630014" lon="9.637206997722387">
<ele>292.4</ele>
<time>2023-05-16T10:34:24Z</time>
</trkpt>
<trkpt lat="48.96918294019997" lon="9.637124938890338">
<ele>292.4</ele>
<time>2023-05-16T10:34:25Z</time>
</trkpt>
<trkpt lat="48.969209929928184" lon="9.63704296387732">
<ele>292.20000000000005</ele>
<time>2023-05-16T10:34:26Z</time>
</trkpt>
<trkpt lat="48.969236919656396" lon="9.63695797137916">
<ele>292.20000000000005</ele>
<time>2023-05-16T10:34:27Z</time>
</trkpt>
<trkpt lat="48.96926499903202" lon="9.636874990537763">
<ele>292.20000000000005</ele>
<time>2023-05-16T10:34:28Z</time>
</trkpt>
<trkpt lat="48.96929492242634" lon="9.636791925877333">
<ele>292</ele>
<time>2023-05-16T10:34:29Z</time>
</trkpt>
<trkpt lat="48.969322917982936" lon="9.636707939207554">
<ele>292</ele>
<time>2023-05-16T10:34:30Z</time>
</trkpt>
<trkpt lat="48.96935191936791" lon="9.636621940881014">
<ele>292</ele>
<time>2023-05-16T10:34:31Z</time>
</trkpt>
<trkpt lat="48.96938192658126" lon="9.636537954211235">
<ele>292</ele>
<time>2023-05-16T10:34:32Z</time>
</trkpt>
<trkpt lat="48.96940799430013" lon="9.636454973369837">
<ele>291.79999999999995</ele>
<time>2023-05-16T10:34:33Z</time>
</trkpt>
<trkpt lat="48.9694369956851" lon="9.636371992528439">
<ele>291.79999999999995</ele>
<time>2023-05-16T10:34:34Z</time>
</trkpt>
<trkpt lat="48.96946499124169" lon="9.636287922039628">
<ele>291.79999999999995</ele>
<time>2023-05-16T10:34:35Z</time>
</trkpt>
<trkpt lat="48.969492986798286" lon="9.636202929541469">
<ele>291.6</ele>
<time>2023-05-16T10:34:36Z</time>
</trkpt>
<trkpt lat="48.96952198818326" lon="9.63611994870007">
<ele>291.6</ele>
<time>2023-05-16T10:34:37Z</time>
</trkpt>
<trkpt lat="48.96954797208309" lon="9.636036967858672">
<ele>291.6</ele>
<time>2023-05-16T10:34:38Z</time>
</trkpt>
<trkpt lat="48.969574961811304" lon="9.635954992845654">
<ele>291.6</ele>
<time>2023-05-16T10:34:39Z</time>
</trkpt>
<trkpt lat="48.9696029573679" lon="9.635874945670366">
<ele>291.4</ele>
<time>2023-05-16T10:34:40Z</time>
</trkpt>
<trkpt lat="48.96963195875287" lon="9.635791964828968">
<ele>291.4</ele>
<time>2023-05-16T10:34:41Z</time>
</trkpt>
<trkpt lat="48.9696579426527" lon="9.63571191765368">
<ele>291.4</ele>
<time>2023-05-16T10:34:42Z</time>
</trkpt>
<trkpt lat="48.969687949866056" lon="9.635629942640662">
<ele>291.20000000000005</ele>
<time>2023-05-16T10:34:43Z</time>
</trkpt>
<trkpt lat="48.96971695125103" lon="9.635547967627645">
<ele>291.20000000000005</ele>
<time>2023-05-16T10:34:44Z</time>
</trkpt>
<trkpt lat="48.96974293515086" lon="9.635466998443007">
<ele>291.20000000000005</ele>
<time>2023-05-16T10:34:45Z</time>
</trkpt>
<trkpt lat="48.969771936535835" lon="9.6353879570961">
<ele>291.20000000000005</ele>
<time>2023-05-16T10:34:46Z</time>
</trkpt>
<trkpt lat="48.96979993209243" lon="9.635307993739843">
<ele>291</ele>
<time>2023-05-16T10:34:47Z</time>
</trkpt>
<trkpt lat="48.96982692182064" lon="9.635226940736175">
<ele>291</ele>
<time>2023-05-16T10:34:48Z</time>
</trkpt>
<trkpt lat="48.96985491737723" lon="9.635146977379918">
<ele>291</ele>
<time>2023-05-16T10:34:49Z</time>
</trkpt>
<trkpt lat="48.96988199092448" lon="9.63506793603301">
<ele>291</ele>
<time>2023-05-16T10:34:50Z</time>
</trkpt>
<trkpt lat="48.96990797482431" lon="9.634989984333515">
<ele>291</ele>
<time>2023-05-16T10:34:51Z</time>
</trkpt>
<trkpt lat="48.96993496455252" lon="9.634912954643369">
<ele>291</ele>
<time>2023-05-16T10:34:52Z</time>
</trkpt>
<trkpt lat="48.969961954280734" lon="9.634836930781603">
<ele>290.79999999999995</ele>
<time>2023-05-16T10:34:53Z</time>
</trkpt>
<trkpt lat="48.969986932352185" lon="9.634757973253727">
<ele>290.79999999999995</ele>
<time>2023-05-16T10:34:54Z</time>
</trkpt>
<trkpt lat="48.97001492790878" lon="9.6346799377352">
<ele>290.79999999999995</ele>
<time>2023-05-16T10:34:55Z</time>
</trkpt>
<trkpt lat="48.97004292346537" lon="9.634604919701815">
<ele>290.79999999999995</ele>
<time>2023-05-16T10:34:56Z</time>
</trkpt>
<trkpt lat="48.970069997012615" lon="9.6345279738307">
<ele>290.6</ele>
<time>2023-05-16T10:34:57Z</time>
</trkpt>
<trkpt lat="48.97009698674083" lon="9.634451949968934">
<ele>290.6</ele>
<time>2023-05-16T10:34:58Z</time>
</trkpt>
<trkpt lat="48.97012297064066" lon="9.634376931935549">
<ele>290.4</ele>
<time>2023-05-16T10:34:59Z</time>
</trkpt>
<trkpt lat="48.97014996036887" lon="9.634297974407673">
<ele>290.4</ele>
<time>2023-05-16T10:35:00Z</time>
</trkpt>
<trkpt lat="48.970179967582226" lon="9.634219938889146">
<ele>290.20000000000005</ele>
<time>2023-05-16T10:35:01Z</time>
</trkpt>
<trkpt lat="48.97020997479558" lon="9.634146932512522">
<ele>290</ele>
<time>2023-05-16T10:35:02Z</time>
</trkpt>
<trkpt lat="48.970239982008934" lon="9.634072920307517">
<ele>289.79999999999995</ele>
<time>2023-05-16T10:35:03Z</time>
</trkpt>
<trkpt lat="48.97027493454516" lon="9.634002931416035">
<ele>289.6</ele>
<time>2023-05-16T10:35:04Z</time>
</trkpt>
<trkpt lat="48.97031298838556" lon="9.633936965838075">
<ele>289.4</ele>
<time>2023-05-16T10:35:05Z</time>
</trkpt>
<trkpt lat="48.970351964235306" lon="9.633871922269464">
<ele>289.20000000000005</ele>
<time>2023-05-16T10:35:06Z</time>
</trkpt>
<trkpt lat="48.970394963398576" lon="9.633814925327897">
<ele>289</ele>
<time>2023-05-16T10:35:07Z</time>
</trkpt>
<trkpt lat="48.97043997421861" lon="9.633762957528234">
<ele>288.79999999999995</ele>
<time>2023-05-16T10:35:08Z</time>
</trkpt>
<trkpt lat="48.97048297338188" lon="9.6337129175663">
<ele>288.6</ele>
<time>2023-05-16T10:35:09Z</time>
</trkpt>
<trkpt lat="48.970524966716766" lon="9.633659943938255">
<ele>288.4</ele>
<time>2023-05-16T10:35:10Z</time>
</trkpt>
<trkpt lat="48.970564948394895" lon="9.633611999452114">
<ele>288.4</ele>
<time>2023-05-16T10:35:11Z</time>
</trkpt>
<trkpt lat="48.970607947558165" lon="9.633564976975322">
<ele>288.4</ele>
<time>2023-05-16T10:35:12Z</time>
</trkpt>
<trkpt lat="48.970651952549815" lon="9.63351795449853">
<ele>288.4</ele>
<time>2023-05-16T10:35:13Z</time>
</trkpt>
<trkpt lat="48.970694951713085" lon="9.633467998355627">
<ele>288.4</ele>
<time>2023-05-16T10:35:14Z</time>
</trkpt>
<trkpt lat="48.970736945047975" lon="9.633417958393693">
<ele>288.4</ele>
<time>2023-05-16T10:35:15Z</time>
</trkpt>
<trkpt lat="48.97077793255448" lon="9.63336699642241">
<ele>288.6</ele>
<time>2023-05-16T10:35:16Z</time>
</trkpt>
<trkpt lat="48.970821937546134" lon="9.633312933146954">
<ele>288.4</ele>
<time>2023-05-16T10:35:17Z</time>
</trkpt>
<trkpt lat="48.97086292505264" lon="9.63325995951891">
<ele>288.4</ele>
<time>2023-05-16T10:35:18Z</time>
</trkpt>
<trkpt lat="48.9709029905498" lon="9.633209919556975">
<ele>288.4</ele>
<time>2023-05-16T10:35:19Z</time>
</trkpt>
<trkpt lat="48.97094297222793" lon="9.633157951757312">
<ele>288.4</ele>
<time>2023-05-16T10:35:20Z</time>
</trkpt>
<trkpt lat="48.97097993642092" lon="9.63310799561441">
<ele>288.4</ele>
<time>2023-05-16T10:35:21Z</time>
</trkpt>
<trkpt lat="48.971014972776175" lon="9.633061978965998">
<ele>288.4</ele>
<time>2023-05-16T10:35:22Z</time>
</trkpt>
<trkpt lat="48.97104497998953" lon="9.633014956489205">
<ele>288.20000000000005</ele>
<time>2023-05-16T10:35:23Z</time>
</trkpt>
<trkpt lat="48.97106995806098" lon="9.632964916527271">
<ele>288.20000000000005</ele>
<time>2023-05-16T10:35:24Z</time>
</trkpt>
<trkpt lat="48.97108999080956" lon="9.632919989526272">
<ele>288.20000000000005</ele>
<time>2023-05-16T10:35:25Z</time>
</trkpt>
<trkpt lat="48.971106922253966" lon="9.632882941514254">
<ele>288</ele>
<time>2023-05-16T10:35:26Z</time>
</trkpt>
<trkpt lat="48.97112192586064" lon="9.632847988978028">
<ele>288</ele>
<time>2023-05-16T10:35:27Z</time>
</trkpt>
<trkpt lat="48.97113692946732" lon="9.632821921259165">
<ele>288</ele>
<time>2023-05-16T10:35:28Z</time>
</trkpt>
<trkpt lat="48.97115495055914" lon="9.632797949016094">
<ele>288</ele>
<time>2023-05-16T10:35:29Z</time>
</trkpt>
<trkpt lat="48.97117196582258" lon="9.632774982601404">
<ele>288</ele>
<time>2023-05-16T10:35:30Z</time>
</trkpt>
<trkpt lat="48.971189986914396" lon="9.632751932367682">
<ele>288</ele>
<time>2023-05-16T10:35:31Z</time>
</trkpt>
<trkpt lat="48.97120792418718" lon="9.632721925154328">
<ele>288</ele>
<time>2023-05-16T10:35:32Z</time>
</trkpt>
<trkpt lat="48.97122292779386" lon="9.632686972618103">
<ele>288</ele>
<time>2023-05-16T10:35:33Z</time>
</trkpt>
<trkpt lat="48.97122795693576" lon="9.632641961798072">
<ele>288</ele>
<time>2023-05-16T10:35:34Z</time>
</trkpt>
<trkpt lat="48.97122695110738" lon="9.632592927664518">
<ele>288</ele>
<time>2023-05-16T10:35:35Z</time>
</trkpt>
<trkpt lat="48.97121697664261" lon="9.632542971521616">
<ele>288</ele>
<time>2023-05-16T10:35:36Z</time>
</trkpt>
<trkpt lat="48.97120297886431" lon="9.632492931559682">
<ele>288</ele>
<time>2023-05-16T10:35:37Z</time>
</trkpt>
<trkpt lat="48.971189986914396" lon="9.632446998730302">
<ele>288</ele>
<time>2023-05-16T10:35:38Z</time>
</trkpt>
<trkpt lat="48.97117791697383" lon="9.63239997625351">
<ele>288</ele>
<time>2023-05-16T10:35:39Z</time>
</trkpt>
<trkpt lat="48.97116492502391" lon="9.632347924634814">
<ele>288</ele>
<time>2023-05-16T10:35:40Z</time>
</trkpt>
<trkpt lat="48.97115495055914" lon="9.632292939350009">
<ele>288</ele>
<time>2023-05-16T10:35:41Z</time>
</trkpt>
<trkpt lat="48.971144976094365" lon="9.632237954065204">
<ele>288</ele>
<time>2023-05-16T10:35:42Z</time>
</trkpt>
<trkpt lat="48.97113491781056" lon="9.632177939638495">
<ele>288</ele>
<time>2023-05-16T10:35:43Z</time>
</trkpt>
<trkpt lat="48.971119998022914" lon="9.632117925211787">
<ele>288</ele>
<time>2023-05-16T10:35:44Z</time>
</trkpt>
<trkpt lat="48.971106922253966" lon="9.63205799460411">
<ele>288</ele>
<time>2023-05-16T10:35:45Z</time>
</trkpt>
<trkpt lat="48.97109493613243" lon="9.6319929510355">
<ele>288</ele>
<time>2023-05-16T10:35:46Z</time>
</trkpt>
<trkpt lat="48.97108496166766" lon="9.63192991912365">
<ele>288</ele>
<time>2023-05-16T10:35:47Z</time>
</trkpt>
<trkpt lat="48.97107792086899" lon="9.631867976859212">
<ele>288</ele>
<time>2023-05-16T10:35:48Z</time>
</trkpt>
<trkpt lat="48.97106995806098" lon="9.6318029332906">
<ele>288</ele>
<time>2023-05-16T10:35:49Z</time>
</trkpt>
<trkpt lat="48.971062917262316" lon="9.631737973541021">
<ele>288.20000000000005</ele>
<time>2023-05-16T10:35:50Z</time>
</trkpt>
<trkpt lat="48.971057971939445" lon="9.63167192414403">
<ele>288.20000000000005</ele>
<time>2023-05-16T10:35:51Z</time>
</trkpt>
<trkpt lat="48.97105193696916" lon="9.631602941080928">
<ele>288.20000000000005</ele>
<time>2023-05-16T10:35:52Z</time>
</trkpt>
<trkpt lat="48.97104699164629" lon="9.631532952189445">
<ele>288.20000000000005</ele>
<time>2023-05-16T10:35:53Z</time>
</trkpt>
<trkpt lat="48.97104196250439" lon="9.631459945812821">
<ele>288.4</ele>
<time>2023-05-16T10:35:54Z</time>
</trkpt>
<trkpt lat="48.971039950847626" lon="9.631382999941707">
<ele>288.4</ele>
<time>2023-05-16T10:35:55Z</time>
</trkpt>
<trkpt lat="48.971037939190865" lon="9.631309993565083">
<ele>288.4</ele>
<time>2023-05-16T10:35:56Z</time>
</trkpt>
<trkpt lat="48.971037939190865" lon="9.631232963874936">
<ele>288.4</ele>
<time>2023-05-16T10:35:57Z</time>
</trkpt>
<trkpt lat="48.971037939190865" lon="9.63115794584155">
<ele>288.4</ele>
<time>2023-05-16T10:35:58Z</time>
</trkpt>
<trkpt lat="48.971037939190865" lon="9.631079994142056">
<ele>288.6</ele>
<time>2023-05-16T10:35:59Z</time>
</trkpt>
<trkpt lat="48.971039950847626" lon="9.63100497610867">
<ele>288.6</ele>
<time>2023-05-16T10:36:00Z</time>
</trkpt>
<trkpt lat="48.97104296833277" lon="9.630929958075285">
<ele>288.6</ele>
<time>2023-05-16T10:36:01Z</time>
</trkpt>
<trkpt lat="48.97104497998953" lon="9.63085695169866">
<ele>288.6</ele>
<time>2023-05-16T10:36:02Z</time>
</trkpt>
<trkpt lat="48.97104799747467" lon="9.630782939493656">
<ele>288.79999999999995</ele>
<time>2023-05-16T10:36:03Z</time>
</trkpt>
<trkpt lat="48.9710499253124" lon="9.630709933117032">
<ele>288.79999999999995</ele>
<time>2023-05-16T10:36:04Z</time>
</trkpt>
<trkpt lat="48.97105294279754" lon="9.630634998902678">
<ele>288.79999999999995</ele>
<time>2023-05-16T10:36:05Z</time>
</trkpt>
<trkpt lat="48.971056966111064" lon="9.630559980869293">
<ele>288.79999999999995</ele>
<time>2023-05-16T10:36:06Z</time>
</trkpt>
<trkpt lat="48.971059983596206" lon="9.630486974492669">
<ele>288.79999999999995</ele>
<time>2023-05-16T10:36:07Z</time>
</trkpt>
<trkpt lat="48.97106694057584" lon="9.630411956459284">
<ele>289</ele>
<time>2023-05-16T10:36:08Z</time>
</trkpt>
<trkpt lat="48.97107498720288" lon="9.630336938425899">
<ele>289</ele>
<time>2023-05-16T10:36:09Z</time>
</trkpt>
<trkpt lat="48.971081944182515" lon="9.630262926220894">
<ele>289</ele>
<time>2023-05-16T10:36:10Z</time>
</trkpt>
<trkpt lat="48.9710879791528" lon="9.63018698617816">
<ele>289</ele>
<time>2023-05-16T10:36:11Z</time>
</trkpt>
<trkpt lat="48.97109493613243" lon="9.630111968144774">
<ele>289.20000000000005</ele>
<time>2023-05-16T10:36:12Z</time>
</trkpt>
<trkpt lat="48.971101976931095" lon="9.630034938454628">
<ele>289.20000000000005</ele>
<time>2023-05-16T10:36:13Z</time>
</trkpt>
<trkpt lat="48.97110792808235" lon="9.629956986755133">
<ele>289.20000000000005</ele>
<time>2023-05-16T10:36:14Z</time>
</trkpt>
<trkpt lat="48.97111698053777" lon="9.629879957064986">
<ele>289.20000000000005</ele>
<time>2023-05-16T10:36:15Z</time>
</trkpt>
<trkpt lat="48.971126955002546" lon="9.62980192154646">
<ele>289.20000000000005</ele>
<time>2023-05-16T10:36:16Z</time>
</trkpt>
<trkpt lat="48.97113994695246" lon="9.629722964018583">
<ele>289.20000000000005</ele>
<time>2023-05-16T10:36:17Z</time>
</trkpt>
<trkpt lat="48.971151933074" lon="9.629644928500056">
<ele>289.20000000000005</ele>
<time>2023-05-16T10:36:18Z</time>
</trkpt>
<trkpt lat="48.971162997186184" lon="9.6295649651438">
<ele>289.20000000000005</ele>
<time>2023-05-16T10:36:19Z</time>
</trkpt>
<trkpt lat="48.97117498330772" lon="9.629484917968512">
<ele>289.20000000000005</ele>
<time>2023-05-16T10:36:20Z</time>
</trkpt>
<trkpt lat="48.97118495777249" lon="9.629402942955494">
<ele>289.20000000000005</ele>
<time>2023-05-16T10:36:21Z</time>
</trkpt>
<trkpt lat="48.97119794972241" lon="9.629322979599237">
<ele>289.20000000000005</ele>
<time>2023-05-16T10:36:22Z</time>
</trkpt>
<trkpt lat="48.971209935843945" lon="9.629241926595569">
<ele>289.20000000000005</ele>
<time>2023-05-16T10:36:23Z</time>
</trkpt>
<trkpt lat="48.97121999412775" lon="9.629161963239312">
<ele>289.20000000000005</ele>
<time>2023-05-16T10:36:24Z</time>
</trkpt>
<trkpt lat="48.971229968592525" lon="9.629076970741153">
<ele>289</ele>
<time>2023-05-16T10:36:25Z</time>
</trkpt>
<trkpt lat="48.97124296054244" lon="9.628991978242993">
<ele>289</ele>
<time>2023-05-16T10:36:26Z</time>
</trkpt>
<trkpt lat="48.97125796414912" lon="9.628904974088073">
<ele>289</ele>
<time>2023-05-16T10:36:27Z</time>
</trkpt>
<trkpt lat="48.971272967755795" lon="9.628817969933152">
<ele>288.79999999999995</ele>
<time>2023-05-16T10:36:28Z</time>
</trkpt>
<trkpt lat="48.97128998301923" lon="9.628729959949851">
<ele>288.79999999999995</ele>
<time>2023-05-16T10:36:29Z</time>
</trkpt>
<trkpt lat="48.97130792029202" lon="9.628644967451692">
<ele>288.6</ele>
<time>2023-05-16T10:36:30Z</time>
</trkpt>
<trkpt lat="48.9713279530406" lon="9.628557963296771">
<ele>288.4</ele>
<time>2023-05-16T10:36:31Z</time>
</trkpt>
<trkpt lat="48.9713469799608" lon="9.628471964970231">
<ele>288.4</ele>
<time>2023-05-16T10:36:32Z</time>
</trkpt>
<trkpt lat="48.971364917233586" lon="9.62838294915855">
<ele>288.20000000000005</ele>
<time>2023-05-16T10:36:33Z</time>
</trkpt>
<trkpt lat="48.971381932497025" lon="9.628292927518487">
<ele>288.20000000000005</ele>
<time>2023-05-16T10:36:34Z</time>
</trkpt>
<trkpt lat="48.97139995358884" lon="9.628202989697456">
<ele>288</ele>
<time>2023-05-16T10:36:35Z</time>
</trkpt>
<trkpt lat="48.97141797468066" lon="9.628112968057394">
<ele>287.79999999999995</ele>
<time>2023-05-16T10:36:36Z</time>
</trkpt>
<trkpt lat="48.97143691778183" lon="9.628026969730854">
<ele>287.79999999999995</ele>
<time>2023-05-16T10:36:37Z</time>
</trkpt>
<trkpt lat="48.97145292721689" lon="9.627937953919172">
<ele>287.6</ele>
<time>2023-05-16T10:36:38Z</time>
</trkpt>
<trkpt lat="48.971469942480326" lon="9.627851955592632">
<ele>287.6</ele>
<time>2023-05-16T10:36:39Z</time>
</trkpt>
<trkpt lat="48.971489975228906" lon="9.627764951437712">
<ele>287.4</ele>
<time>2023-05-16T10:36:40Z</time>
</trkpt>
<trkpt lat="48.971509924158454" lon="9.627679958939552">
<ele>287.20000000000005</ele>
<time>2023-05-16T10:36:41Z</time>
</trkpt>
<trkpt lat="48.971529956907034" lon="9.627596978098154">
<ele>287.20000000000005</ele>
<time>2023-05-16T10:36:42Z</time>
</trkpt>
<trkpt lat="48.97154797799885" lon="9.627514919266105">
<ele>287.20000000000005</ele>
<time>2023-05-16T10:36:43Z</time>
</trkpt>
<trkpt lat="48.97156692110002" lon="9.627432944253087">
<ele>287</ele>
<time>2023-05-16T10:36:44Z</time>
</trkpt>
<trkpt lat="48.97158293053508" lon="9.627347951754928">
<ele>287</ele>
<time>2023-05-16T10:36:45Z</time>
</trkpt>
<trkpt lat="48.971599945798516" lon="9.627262959256768">
<ele>287</ele>
<time>2023-05-16T10:36:46Z</time>
</trkpt>
<trkpt lat="48.971616961061954" lon="9.62717997841537">
<ele>286.79999999999995</ele>
<time>2023-05-16T10:36:47Z</time>
</trkpt>
<trkpt lat="48.97163297049701" lon="9.627096997573972">
<ele>286.79999999999995</ele>
<time>2023-05-16T10:36:48Z</time>
</trkpt>
<trkpt lat="48.97164998576045" lon="9.627012927085161">
<ele>286.79999999999995</ele>
<time>2023-05-16T10:36:49Z</time>
</trkpt>
<trkpt lat="48.97166792303324" lon="9.626929946243763">
<ele>286.79999999999995</ele>
<time>2023-05-16T10:36:50Z</time>
</trkpt>
<trkpt lat="48.97168694995344" lon="9.626844953745604">
<ele>286.6</ele>
<time>2023-05-16T10:36:51Z</time>
</trkpt>
<trkpt lat="48.97170698270202" lon="9.626757949590683">
<ele>286.6</ele>
<time>2023-05-16T10:36:52Z</time>
</trkpt>
<trkpt lat="48.971724919974804" lon="9.626671951264143">
<ele>286.6</ele>
<time>2023-05-16T10:36:53Z</time>
</trkpt>
<trkpt lat="48.97174294106662" lon="9.626584947109222">
<ele>286.6</ele>
<time>2023-05-16T10:36:54Z</time>
</trkpt>
<trkpt lat="48.9717629738152" lon="9.626496937125921">
<ele>286.4</ele>
<time>2023-05-16T10:36:55Z</time>
</trkpt>
<trkpt lat="48.97177998907864" lon="9.62640792131424">
<ele>286.4</ele>
<time>2023-05-16T10:36:56Z</time>
</trkpt>
<trkpt lat="48.97179692052305" lon="9.62632292881608">
<ele>286.4</ele>
<time>2023-05-16T10:36:57Z</time>
</trkpt>
<trkpt lat="48.971812929958105" lon="9.62623693048954">
<ele>286.4</ele>
<time>2023-05-16T10:36:58Z</time>
</trkpt>
<trkpt lat="48.971831956878304" lon="9.62614992633462">
<ele>286.20000000000005</ele>
<time>2023-05-16T10:36:59Z</time>
</trkpt>
<trkpt lat="48.97184796631336" lon="9.626066945493221">
<ele>286.20000000000005</ele>
<time>2023-05-16T10:37:00Z</time>
</trkpt>
<trkpt lat="48.97186699323356" lon="9.625981952995062">
<ele>286</ele>
<time>2023-05-16T10:37:01Z</time>
</trkpt>
<trkpt lat="48.97188493050635" lon="9.625897966325283">
<ele>286</ele>
<time>2023-05-16T10:37:02Z</time>
</trkpt>
<trkpt lat="48.97190295159817" lon="9.625811967998743">
<ele>286</ele>
<time>2023-05-16T10:37:03Z</time>
</trkpt>
<trkpt lat="48.97192197851837" lon="9.625727981328964">
<ele>285.79999999999995</ele>
<time>2023-05-16T10:37:04Z</time>
</trkpt>
<trkpt lat="48.971937987953424" lon="9.625641983002424">
<ele>285.79999999999995</ele>
<time>2023-05-16T10:37:05Z</time>
</trkpt>
<trkpt lat="48.97195491939783" lon="9.625554978847504">
<ele>285.79999999999995</ele>
<time>2023-05-16T10:37:06Z</time>
</trkpt>
<trkpt lat="48.97197193466127" lon="9.625469986349344">
<ele>285.6</ele>
<time>2023-05-16T10:37:07Z</time>
</trkpt>
<trkpt lat="48.97198794409633" lon="9.625382982194424">
<ele>285.4</ele>
<time>2023-05-16T10:37:08Z</time>
</trkpt>
<trkpt lat="48.972004959359765" lon="9.625296983867884">
<ele>285.4</ele>
<time>2023-05-16T10:37:09Z</time>
</trkpt>
<trkpt lat="48.9720219746232" lon="9.625209979712963">
<ele>285.20000000000005</ele>
<time>2023-05-16T10:37:10Z</time>
</trkpt>
<trkpt lat="48.97203798405826" lon="9.625121969729662">
<ele>285.20000000000005</ele>
<time>2023-05-16T10:37:11Z</time>
</trkpt>
<trkpt lat="48.9720549993217" lon="9.625034965574741">
<ele>285</ele>
<time>2023-05-16T10:37:12Z</time>
</trkpt>
<trkpt lat="48.972071930766106" lon="9.62494695559144">
<ele>285</ele>
<time>2023-05-16T10:37:13Z</time>
</trkpt>
<trkpt lat="48.972089951857924" lon="9.624857939779758">
<ele>284.79999999999995</ele>
<time>2023-05-16T10:37:14Z</time>
</trkpt>
<trkpt lat="48.97210696712136" lon="9.624769929796457">
<ele>284.79999999999995</ele>
<time>2023-05-16T10:37:15Z</time>
</trkpt>
<trkpt lat="48.97212498821318" lon="9.624682925641537">
<ele>284.6</ele>
<time>2023-05-16T10:37:16Z</time>
</trkpt>
<trkpt lat="48.97214191965759" lon="9.624596927314997">
<ele>284.6</ele>
<time>2023-05-16T10:37:17Z</time>
</trkpt>
<trkpt lat="48.972154995426536" lon="9.624504977837205">
<ele>284.6</ele>
<time>2023-05-16T10:37:18Z</time>
</trkpt>
<trkpt lat="48.97216698154807" lon="9.624412944540381">
<ele>284.6</ele>
<time>2023-05-16T10:37:19Z</time>
</trkpt>
<trkpt lat="48.97217293269932" lon="9.624322922900319">
<ele>284.6</ele>
<time>2023-05-16T10:37:20Z</time>
</trkpt>
<trkpt lat="48.97218198515475" lon="9.624232985079288">
<ele>284.6</ele>
<time>2023-05-16T10:37:21Z</time>
</trkpt>
<trkpt lat="48.97218693047762" lon="9.624141957610846">
<ele>284.6</ele>
<time>2023-05-16T10:37:22Z</time>
</trkpt>
<trkpt lat="48.97219195961952" lon="9.624049924314022">
<ele>284.4</ele>
<time>2023-05-16T10:37:23Z</time>
</trkpt>
<trkpt lat="48.972194977104664" lon="9.62395696900785">
<ele>284.4</ele>
<time>2023-05-16T10:37:24Z</time>
</trkpt>
<trkpt lat="48.972197994589806" lon="9.623862924054265">
<ele>284.4</ele>
<time>2023-05-16T10:37:25Z</time>
</trkpt>
<trkpt lat="48.972197994589806" lon="9.623771980404854">
<ele>284.4</ele>
<time>2023-05-16T10:37:26Z</time>
</trkpt>
<trkpt lat="48.972196988761425" lon="9.623681958764791">
<ele>284.4</ele>
<time>2023-05-16T10:37:27Z</time>
</trkpt>
<trkpt lat="48.9721929654479" lon="9.623589925467968">
<ele>284.4</ele>
<time>2023-05-16T10:37:28Z</time>
</trkpt>
<trkpt lat="48.97218994796276" lon="9.623497975990176">
<ele>284.4</ele>
<time>2023-05-16T10:37:29Z</time>
</trkpt>
<trkpt lat="48.97218693047762" lon="9.623406948521733">
<ele>284.20000000000005</ele>
<time>2023-05-16T10:37:30Z</time>
</trkpt>
<trkpt lat="48.97217997349799" lon="9.623316926881671">
<ele>284.20000000000005</ele>
<time>2023-05-16T10:37:31Z</time>
</trkpt>
<trkpt lat="48.972174944356084" lon="9.62322497740388">
<ele>284.20000000000005</ele>
<time>2023-05-16T10:37:32Z</time>
</trkpt>
<trkpt lat="48.97216999903321" lon="9.623132944107056">
<ele>284.20000000000005</ele>
<time>2023-05-16T10:37:33Z</time>
</trkpt>
<trkpt lat="48.97216496989131" lon="9.623042922466993">
<ele>284</ele>
<time>2023-05-16T10:37:34Z</time>
</trkpt>
<trkpt lat="48.972157929092646" lon="9.622954996302724">
<ele>284</ele>
<time>2023-05-16T10:37:35Z</time>
</trkpt>
<trkpt lat="48.972154995426536" lon="9.622864974662662">
<ele>284</ele>
<time>2023-05-16T10:37:36Z</time>
</trkpt>
<trkpt lat="48.97214996628463" lon="9.6227749530226">
<ele>284</ele>
<time>2023-05-16T10:37:37Z</time>
</trkpt>
<trkpt lat="48.97214493714273" lon="9.622686943039298">
<ele>284</ele>
<time>2023-05-16T10:37:38Z</time>
</trkpt>
<trkpt lat="48.97213999181986" lon="9.622596921399236">
<ele>283.79999999999995</ele>
<time>2023-05-16T10:37:39Z</time>
</trkpt>
<trkpt lat="48.972132951021194" lon="9.622506983578205">
<ele>283.79999999999995</ele>
<time>2023-05-16T10:37:40Z</time>
</trkpt>
<trkpt lat="48.97212699986994" lon="9.622414950281382">
<ele>283.79999999999995</ele>
<time>2023-05-16T10:37:41Z</time>
</trkpt>
<trkpt lat="48.97211794741452" lon="9.62232492864132">
<ele>283.79999999999995</ele>
<time>2023-05-16T10:37:42Z</time>
</trkpt>
<trkpt lat="48.972112918272614" lon="9.622231973335147">
<ele>283.79999999999995</ele>
<time>2023-05-16T10:37:43Z</time>
</trkpt>
<trkpt lat="48.97210797294974" lon="9.622139940038323">
<ele>283.6</ele>
<time>2023-05-16T10:37:44Z</time>
</trkpt>
<trkpt lat="48.97210294380784" lon="9.622046984732151">
<ele>283.6</ele>
<time>2023-05-16T10:37:45Z</time>
</trkpt>
<trkpt lat="48.9720999263227" lon="9.621952939778566">
<ele>283.6</ele>
<time>2023-05-16T10:37:46Z</time>
</trkpt>
<trkpt lat="48.97209498099983" lon="9.621864929795265">
<ele>283.6</ele>
<time>2023-05-16T10:37:47Z</time>
</trkpt>
<trkpt lat="48.97208794020116" lon="9.621776919811964">
<ele>283.6</ele>
<time>2023-05-16T10:37:48Z</time>
</trkpt>
<trkpt lat="48.97207997739315" lon="9.621687987819314">
<ele>283.4</ele>
<time>2023-05-16T10:37:49Z</time>
</trkpt>
<trkpt lat="48.972072936594486" lon="9.621601989492774">
<ele>283.4</ele>
<time>2023-05-16T10:37:50Z</time>
</trkpt>
<trkpt lat="48.972067991271615" lon="9.621511967852712">
<ele>283.4</ele>
<time>2023-05-16T10:37:51Z</time>
</trkpt>
<trkpt lat="48.97205994464457" lon="9.62142194621265">
<ele>283.4</ele>
<time>2023-05-16T10:37:52Z</time>
</trkpt>
<trkpt lat="48.9720549993217" lon="9.621331924572587">
<ele>283.4</ele>
<time>2023-05-16T10:37:53Z</time>
</trkpt>
<trkpt lat="48.972049970179796" lon="9.621241986751556">
<ele>283.4</ele>
<time>2023-05-16T10:37:54Z</time>
</trkpt>
<trkpt lat="48.97204494103789" lon="9.621152970939875">
<ele>283.20000000000005</ele>
<time>2023-05-16T10:37:55Z</time>
</trkpt>
<trkpt lat="48.97204192355275" lon="9.621062949299812">
<ele>283.20000000000005</ele>
<time>2023-05-16T10:37:56Z</time>
</trkpt>
<trkpt lat="48.97203798405826" lon="9.620974939316511">
<ele>283.20000000000005</ele>
<time>2023-05-16T10:37:57Z</time>
</trkpt>
<trkpt lat="48.97203697822988" lon="9.62088793516159">
<ele>283.20000000000005</ele>
<time>2023-05-16T10:37:58Z</time>
</trkpt>
<trkpt lat="48.97203295491636" lon="9.62079799734056">
<ele>283.20000000000005</ele>
<time>2023-05-16T10:37:59Z</time>
</trkpt>
<trkpt lat="48.97203194908798" lon="9.620709987357259">
<ele>283.20000000000005</ele>
<time>2023-05-16T10:38:00Z</time>
</trkpt>
<trkpt lat="48.97203194908798" lon="9.620619965717196">
<ele>283.20000000000005</ele>
<time>2023-05-16T10:38:01Z</time>
</trkpt>
<trkpt lat="48.97203697822988" lon="9.620532961562276">
<ele>283</ele>
<time>2023-05-16T10:38:02Z</time>
</trkpt>
<trkpt lat="48.97204292938113" lon="9.620444951578975">
<ele>283</ele>
<time>2023-05-16T10:38:03Z</time>
</trkpt>
<trkpt lat="48.972049970179796" lon="9.620356941595674">
<ele>283</ele>
<time>2023-05-16T10:38:04Z</time>
</trkpt>
<trkpt lat="48.97205994464457" lon="9.620266919955611">
<ele>283</ele>
<time>2023-05-16T10:38:05Z</time>
</trkpt>
<trkpt lat="48.972069919109344" lon="9.62017698213458">
<ele>283</ele>
<time>2023-05-16T10:38:06Z</time>
</trkpt>
<trkpt lat="48.97208299487829" lon="9.620086960494518">
<ele>283</ele>
<time>2023-05-16T10:38:07Z</time>
</trkpt>
<trkpt lat="48.97209799848497" lon="9.619994927197695">
<ele>282.79999999999995</ele>
<time>2023-05-16T10:38:08Z</time>
</trkpt>
<trkpt lat="48.972112918272614" lon="9.619906917214394">
<ele>282.79999999999995</ele>
<time>2023-05-16T10:38:09Z</time>
</trkpt>
<trkpt lat="48.97212792187929" lon="9.619817985221744">
<ele>282.79999999999995</ele>
<time>2023-05-16T10:38:10Z</time>
</trkpt>
<trkpt lat="48.97214493714273" lon="9.619729975238442">
<ele>282.79999999999995</ele>
<time>2023-05-16T10:38:11Z</time>
</trkpt>
<trkpt lat="48.97216195240617" lon="9.61963995359838">
<ele>282.6</ele>
<time>2023-05-16T10:38:12Z</time>
</trkpt>
<trkpt lat="48.97217997349799" lon="9.619551943615079">
<ele>282.6</ele>
<time>2023-05-16T10:38:13Z</time>
</trkpt>
<trkpt lat="48.972197994589806" lon="9.619462927803397">
<ele>282.6</ele>
<time>2023-05-16T10:38:14Z</time>
</trkpt>
<trkpt lat="48.97221693769097" lon="9.619372989982367">
<ele>282.4</ele>
<time>2023-05-16T10:38:15Z</time>
</trkpt>
<trkpt lat="48.97223697043955" lon="9.619284979999065">
<ele>282.4</ele>
<time>2023-05-16T10:38:16Z</time>
</trkpt>
<trkpt lat="48.9722569193691" lon="9.619196970015764">
<ele>282.4</ele>
<time>2023-05-16T10:38:17Z</time>
</trkpt>
<trkpt lat="48.97227695211768" lon="9.619106948375702">
<ele>282.4</ele>
<time>2023-05-16T10:38:18Z</time>
</trkpt>
<trkpt lat="48.9722949732095" lon="9.61901692673564">
<ele>282.20000000000005</ele>
<time>2023-05-16T10:38:19Z</time>
</trkpt>
<trkpt lat="48.97231492213905" lon="9.618926988914609">
<ele>282.20000000000005</ele>
<time>2023-05-16T10:38:20Z</time>
</trkpt>
<trkpt lat="48.97233696654439" lon="9.618837973102927">
<ele>282.20000000000005</ele>
<time>2023-05-16T10:38:21Z</time>
</trkpt>
<trkpt lat="48.97235792130232" lon="9.618752980604768">
<ele>282</ele>
<time>2023-05-16T10:38:22Z</time>
</trkpt>
<trkpt lat="48.9723779540509" lon="9.618662958964705">
<ele>282</ele>
<time>2023-05-16T10:38:23Z</time>
</trkpt>
<trkpt lat="48.9723969809711" lon="9.618572937324643">
<ele>282</ele>
<time>2023-05-16T10:38:24Z</time>
</trkpt>
<trkpt lat="48.972414918243885" lon="9.618484927341342">
<ele>281.79999999999995</ele>
<time>2023-05-16T10:38:25Z</time>
</trkpt>
<trkpt lat="48.97243193350732" lon="9.61839691735804">
<ele>281.79999999999995</ele>
<time>2023-05-16T10:38:26Z</time>
</trkpt>
<trkpt lat="48.97244794294238" lon="9.61830798536539">
<ele>281.6</ele>
<time>2023-05-16T10:38:27Z</time>
</trkpt>
<trkpt lat="48.97246294654906" lon="9.61822198703885">
<ele>281.6</ele>
<time>2023-05-16T10:38:28Z</time>
</trkpt>
<trkpt lat="48.972476944327354" lon="9.618136994540691">
<ele>281.6</ele>
<time>2023-05-16T10:38:29Z</time>
</trkpt>
<trkpt lat="48.97248792462051" lon="9.61804999038577">
<ele>281.6</ele>
<time>2023-05-16T10:38:30Z</time>
</trkpt>
<trkpt lat="48.972499994561076" lon="9.61796198040247">
<ele>281.4</ele>
<time>2023-05-16T10:38:31Z</time>
</trkpt>
<trkpt lat="48.97250996902585" lon="9.617871958762407">
<ele>281.4</ele>
<time>2023-05-16T10:38:32Z</time>
</trkpt>
<trkpt lat="48.97251793183386" lon="9.617779925465584">
<ele>281.4</ele>
<time>2023-05-16T10:38:33Z</time>
</trkpt>
<trkpt lat="48.972522960975766" lon="9.617686970159411">
<ele>281.20000000000005</ele>
<time>2023-05-16T10:38:34Z</time>
</trkpt>
<trkpt lat="48.97252698428929" lon="9.617592925205827">
<ele>281.20000000000005</ele>
<time>2023-05-16T10:38:35Z</time>
</trkpt>
<trkpt lat="48.97252497263253" lon="9.617501981556416">
<ele>281.20000000000005</ele>
<time>2023-05-16T10:38:36Z</time>
</trkpt>
<trkpt lat="48.972522960975766" lon="9.617409948259592">
<ele>281.20000000000005</ele>
<time>2023-05-16T10:38:37Z</time>
</trkpt>
<trkpt lat="48.972519943490624" lon="9.61731699295342">
<ele>281.20000000000005</ele>
<time>2023-05-16T10:38:38Z</time>
</trkpt>
<trkpt lat="48.972519943490624" lon="9.617224959656596">
<ele>281.20000000000005</ele>
<time>2023-05-16T10:38:39Z</time>
</trkpt>
<trkpt lat="48.972519943490624" lon="9.617132926359773">
<ele>281.20000000000005</ele>
<time>2023-05-16T10:38:40Z</time>
</trkpt>
<trkpt lat="48.972521955147386" lon="9.617044916376472">
<ele>281.20000000000005</ele>
<time>2023-05-16T10:38:41Z</time>
</trkpt>
<trkpt lat="48.97252497263253" lon="9.616957996040583">
<ele>281</ele>
<time>2023-05-16T10:38:42Z</time>
</trkpt>
<trkpt lat="48.97252799011767" lon="9.616872919723392">
<ele>280.79999999999995</ele>
<time>2023-05-16T10:38:43Z</time>
</trkpt>
<trkpt lat="48.97252497263253" lon="9.616786921396852">
<ele>280.6</ele>
<time>2023-05-16T10:38:44Z</time>
</trkpt>
<trkpt lat="48.972521955147386" lon="9.616702934727073">
<ele>280.6</ele>
<time>2023-05-16T10:38:45Z</time>
</trkpt>
<trkpt lat="48.97251793183386" lon="9.616619953885674">
<ele>280.4</ele>
<time>2023-05-16T10:38:46Z</time>
</trkpt>
<trkpt lat="48.97251298651099" lon="9.616539990529418">
<ele>280.4</ele>
<time>2023-05-16T10:38:47Z</time>
</trkpt>
<trkpt lat="48.97251198068261" lon="9.616461955010891">
<ele>280.4</ele>
<time>2023-05-16T10:38:48Z</time>
</trkpt>
<trkpt lat="48.97250795736909" lon="9.616377968341112">
<ele>280.6</ele>
<time>2023-05-16T10:38:49Z</time>
</trkpt>
<trkpt lat="48.97250493988395" lon="9.616292975842953">
<ele>280.6</ele>
<time>2023-05-16T10:38:50Z</time>
</trkpt>
<trkpt lat="48.972501922398806" lon="9.616204965859652">
<ele>280.6</ele>
<time>2023-05-16T10:38:51Z</time>
</trkpt>
<trkpt lat="48.97249496541917" lon="9.616117961704731">
<ele>280.6</ele>
<time>2023-05-16T10:38:52Z</time>
</trkpt>
<trkpt lat="48.97248993627727" lon="9.61602995172143">
<ele>280.6</ele>
<time>2023-05-16T10:38:53Z</time>
</trkpt>
<trkpt lat="48.97248297929764" lon="9.61594495922327">
<ele>280.6</ele>
<time>2023-05-16T10:38:54Z</time>
</trkpt>
<trkpt lat="48.972477950155735" lon="9.61585795506835">
<ele>280.6</ele>
<time>2023-05-16T10:38:55Z</time>
</trkpt>
<trkpt lat="48.97247493267059" lon="9.615769945085049">
<ele>280.6</ele>
<time>2023-05-16T10:38:56Z</time>
</trkpt>
<trkpt lat="48.97247199900448" lon="9.615679923444986">
<ele>280.6</ele>
<time>2023-05-16T10:38:57Z</time>
</trkpt>
<trkpt lat="48.97246797569096" lon="9.615592919290066">
<ele>280.6</ele>
<time>2023-05-16T10:38:58Z</time>
</trkpt>
<trkpt lat="48.97246495820582" lon="9.615501975640655">
<ele>280.6</ele>
<time>2023-05-16T10:38:59Z</time>
</trkpt>
<trkpt lat="48.97246194072068" lon="9.615414971485734">
<ele>280.79999999999995</ele>
<time>2023-05-16T10:39:00Z</time>
</trkpt>
<trkpt lat="48.972457917407155" lon="9.615327967330813">
<ele>280.79999999999995</ele>
<time>2023-05-16T10:39:01Z</time>
</trkpt>
<trkpt lat="48.972456995397806" lon="9.615239957347512">
<ele>280.79999999999995</ele>
<time>2023-05-16T10:39:02Z</time>
</trkpt>
<trkpt lat="48.972454983741045" lon="9.615152953192592">
<ele>281</ele>
<time>2023-05-16T10:39:03Z</time>
</trkpt>
<trkpt lat="48.972452972084284" lon="9.61506494320929">
<ele>281</ele>
<time>2023-05-16T10:39:04Z</time>
</trkpt>
<trkpt lat="48.972452972084284" lon="9.614974921569228">
<ele>281</ele>
<time>2023-05-16T10:39:05Z</time>
</trkpt>
<trkpt lat="48.972452972084284" lon="9.614884983748198">
<ele>281</ele>
<time>2023-05-16T10:39:06Z</time>
</trkpt>
<trkpt lat="48.972454983741045" lon="9.614792950451374">
<ele>281</ele>
<time>2023-05-16T10:39:07Z</time>
</trkpt>
<trkpt lat="48.972456995397806" lon="9.614701922982931">
<ele>281</ele>
<time>2023-05-16T10:39:08Z</time>
</trkpt>
<trkpt lat="48.972457917407155" lon="9.614607961848378">
<ele>281</ele>
<time>2023-05-16T10:39:09Z</time>
</trkpt>
<trkpt lat="48.972459929063916" lon="9.614512994885445">
<ele>281</ele>
<time>2023-05-16T10:39:10Z</time>
</trkpt>
<trkpt lat="48.97246194072068" lon="9.61441995576024">
<ele>281</ele>
<time>2023-05-16T10:39:11Z</time>
</trkpt>
<trkpt lat="48.97246696986258" lon="9.614324988797307">
<ele>281</ele>
<time>2023-05-16T10:39:12Z</time>
</trkpt>
<trkpt lat="48.97247292101383" lon="9.614231949672103">
<ele>281</ele>
<time>2023-05-16T10:39:13Z</time>
</trkpt>
<trkpt lat="48.972479961812496" lon="9.614134971052408">
<ele>281</ele>
<time>2023-05-16T10:39:14Z</time>
</trkpt>
<trkpt lat="48.97248993627727" lon="9.614039920270443">
<ele>281</ele>
<time>2023-05-16T10:39:15Z</time>
</trkpt>
<trkpt lat="48.972499994561076" lon="9.613942941650748">
<ele>281</ele>
<time>2023-05-16T10:39:16Z</time>
</trkpt>
<trkpt lat="48.97250996902585" lon="9.613847974687815">
<ele>281</ele>
<time>2023-05-16T10:39:17Z</time>
</trkpt>
<trkpt lat="48.97252497263253" lon="9.61375292390585">
<ele>280.79999999999995</ele>
<time>2023-05-16T10:39:18Z</time>
</trkpt>
<trkpt lat="48.97253796458244" lon="9.613661980256438">
<ele>280.79999999999995</ele>
<time>2023-05-16T10:39:19Z</time>
</trkpt>
<trkpt lat="48.97255296818912" lon="9.613571958616376">
<ele>280.79999999999995</ele>
<time>2023-05-16T10:39:20Z</time>
</trkpt>
<trkpt lat="48.97256998345256" lon="9.613479925319552">
<ele>280.79999999999995</ele>
<time>2023-05-16T10:39:21Z</time>
</trkpt>
<trkpt lat="48.972587920725346" lon="9.61338797584176">
<ele>280.6</ele>
<time>2023-05-16T10:39:22Z</time>
</trkpt>
<trkpt lat="48.972607953473926" lon="9.613297954201698">
<ele>280.6</ele>
<time>2023-05-16T10:39:23Z</time>
</trkpt>
<trkpt lat="48.97262999787927" lon="9.613209944218397">
<ele>280.6</ele>
<time>2023-05-16T10:39:24Z</time>
</trkpt>
<trkpt lat="48.972651958465576" lon="9.613121934235096">
<ele>280.4</ele>
<time>2023-05-16T10:39:25Z</time>
</trkpt>
<trkpt lat="48.972674924880266" lon="9.613032918423414">
<ele>280.4</ele>
<time>2023-05-16T10:39:26Z</time>
</trkpt>
<trkpt lat="48.97269797511399" lon="9.612942980602384">
<ele>280.4</ele>
<time>2023-05-16T10:39:27Z</time>
</trkpt>
<trkpt lat="48.97272194735706" lon="9.612856982275844">
<ele>280.4</ele>
<time>2023-05-16T10:39:28Z</time>
</trkpt>
<trkpt lat="48.97274793125689" lon="9.612769978120923">
<ele>280.4</ele>
<time>2023-05-16T10:39:29Z</time>
</trkpt>
<trkpt lat="48.9727749209851" lon="9.612684985622764">
<ele>280.4</ele>
<time>2023-05-16T10:39:30Z</time>
</trkpt>
<trkpt lat="48.972802916541696" lon="9.612599993124604">
<ele>280.4</ele>
<time>2023-05-16T10:39:31Z</time>
</trkpt>
<trkpt lat="48.97282797843218" lon="9.612512988969684">
<ele>280.4</ele>
<time>2023-05-16T10:39:32Z</time>
</trkpt>
<trkpt lat="48.97285496816039" lon="9.612426990643144">
<ele>280.4</ele>
<time>2023-05-16T10:39:33Z</time>
</trkpt>
<trkpt lat="48.97287994623184" lon="9.612336969003081">
<ele>280.4</ele>
<time>2023-05-16T10:39:34Z</time>
</trkpt>
<trkpt lat="48.972906935960054" lon="9.61224996484816">
<ele>280.20000000000005</ele>
<time>2023-05-16T10:39:35Z</time>
</trkpt>
<trkpt lat="48.972932919859886" lon="9.61216296069324">
<ele>280.20000000000005</ele>
<time>2023-05-16T10:39:36Z</time>
</trkpt>
<trkpt lat="48.97295798175037" lon="9.612074950709939">
<ele>280.20000000000005</ele>
<time>2023-05-16T10:39:37Z</time>
</trkpt>
<trkpt lat="48.97298295982182" lon="9.611987946555018">
<ele>280.20000000000005</ele>
<time>2023-05-16T10:39:38Z</time>
</trkpt>
<trkpt lat="48.97300793789327" lon="9.611901948228478">
<ele>280.20000000000005</ele>
<time>2023-05-16T10:39:39Z</time>
</trkpt>
<trkpt lat="48.973032999783754" lon="9.611809998750687">
<ele>280.20000000000005</ele>
<time>2023-05-16T10:39:40Z</time>
</trkpt>
<trkpt lat="48.973054960370064" lon="9.611719977110624">
<ele>280.20000000000005</ele>
<time>2023-05-16T10:39:41Z</time>
</trkpt>
<trkpt lat="48.973077926784754" lon="9.6116279438138">
<ele>280.20000000000005</ele>
<time>2023-05-16T10:39:42Z</time>
</trkpt>
<trkpt lat="48.973099971190095" lon="9.611532976850867">
<ele>280.20000000000005</ele>
<time>2023-05-16T10:39:43Z</time>
</trkpt>
<trkpt lat="48.973121931776404" lon="9.611437926068902">
<ele>280.20000000000005</ele>
<time>2023-05-16T10:39:44Z</time>
</trkpt>
<trkpt lat="48.973142970353365" lon="9.61134698241949">
<ele>280</ele>
<time>2023-05-16T10:39:45Z</time>
</trkpt>
<trkpt lat="48.973164930939674" lon="9.611254949122667">
<ele>280</ele>
<time>2023-05-16T10:39:46Z</time>
</trkpt>
<trkpt lat="48.973186975345016" lon="9.611166939139366">
<ele>280</ele>
<time>2023-05-16T10:39:47Z</time>
</trkpt>
<trkpt lat="48.973204996436834" lon="9.611074989661574">
<ele>279.79999999999995</ele>
<time>2023-05-16T10:39:48Z</time>
</trkpt>
<trkpt lat="48.97322192788124" lon="9.610986979678273">
<ele>279.79999999999995</ele>
<time>2023-05-16T10:39:49Z</time>
</trkpt>
<trkpt lat="48.9732379373163" lon="9.61089695803821">
<ele>279.79999999999995</ele>
<time>2023-05-16T10:39:50Z</time>
</trkpt>
<trkpt lat="48.97325495257974" lon="9.610806936398149">
<ele>279.79999999999995</ele>
<time>2023-05-16T10:39:51Z</time>
</trkpt>
<trkpt lat="48.973271967843175" lon="9.610719932243228">
<ele>279.79999999999995</ele>
<time>2023-05-16T10:39:52Z</time>
</trkpt>
<trkpt lat="48.97328797727823" lon="9.610632928088307">
<ele>279.79999999999995</ele>
<time>2023-05-16T10:39:53Z</time>
</trkpt>
<trkpt lat="48.97330197505653" lon="9.610542990267277">
<ele>279.79999999999995</ele>
<time>2023-05-16T10:39:54Z</time>
</trkpt>
<trkpt lat="48.973314967006445" lon="9.610454980283976">
<ele>279.79999999999995</ele>
<time>2023-05-16T10:39:55Z</time>
</trkpt>
<trkpt lat="48.97332494147122" lon="9.610364958643913">
<ele>279.79999999999995</ele>
<time>2023-05-16T10:39:56Z</time>
</trkpt>
<trkpt lat="48.973336927592754" lon="9.61027292534709">
<ele>279.79999999999995</ele>
<time>2023-05-16T10:39:57Z</time>
</trkpt>
<trkpt lat="48.97334799170494" lon="9.610181981697679">
<ele>279.79999999999995</ele>
<time>2023-05-16T10:39:58Z</time>
</trkpt>
<trkpt lat="48.973359977826476" lon="9.610087936744094">
<ele>279.79999999999995</ele>
<time>2023-05-16T10:39:59Z</time>
</trkpt>
<trkpt lat="48.97337296977639" lon="9.609996993094683">
<ele>279.79999999999995</ele>
<time>2023-05-16T10:40:00Z</time>
</trkpt>
<trkpt lat="48.97338495589793" lon="9.609902948141098">
<ele>279.79999999999995</ele>
<time>2023-05-16T10:40:01Z</time>
</trkpt>
<trkpt lat="48.97339794784784" lon="9.609809992834926">
<ele>279.79999999999995</ele>
<time>2023-05-16T10:40:02Z</time>
</trkpt>
<trkpt lat="48.97340792231262" lon="9.609716953709722">
<ele>279.79999999999995</ele>
<time>2023-05-16T10:40:03Z</time>
</trkpt>
<trkpt lat="48.973419992253184" lon="9.609621986746788">
<ele>279.79999999999995</ele>
<time>2023-05-16T10:40:04Z</time>
</trkpt>
<trkpt lat="48.9734279550612" lon="9.609526935964823">
<ele>279.79999999999995</ele>
<time>2023-05-16T10:40:05Z</time>
</trkpt>
<trkpt lat="48.97343792952597" lon="9.609429957345128">
<ele>279.79999999999995</ele>
<time>2023-05-16T10:40:06Z</time>
</trkpt>
<trkpt lat="48.97344798780978" lon="9.609334990382195">
<ele>279.79999999999995</ele>
<time>2023-05-16T10:40:07Z</time>
</trkpt>
<trkpt lat="48.97345997393131" lon="9.60923993960023">
<ele>279.79999999999995</ele>
<time>2023-05-16T10:40:08Z</time>
</trkpt>
<trkpt lat="48.97347196005285" lon="9.609146984294057">
<ele>279.79999999999995</ele>
<time>2023-05-16T10:40:09Z</time>
</trkpt>
<trkpt lat="48.97348193451762" lon="9.609051933512092">
<ele>279.79999999999995</ele>
<time>2023-05-16T10:40:10Z</time>
</trkpt>
<trkpt lat="48.97349199280143" lon="9.608954954892397">
<ele>279.79999999999995</ele>
<time>2023-05-16T10:40:11Z</time>
</trkpt>
<trkpt lat="48.9735019672662" lon="9.608857976272702">
<ele>279.79999999999995</ele>
<time>2023-05-16T10:40:12Z</time>
</trkpt>
<trkpt lat="48.973511941730976" lon="9.608762925490737">
<ele>279.6</ele>
<time>2023-05-16T10:40:13Z</time>
</trkpt>
<trkpt lat="48.97352191619575" lon="9.608667958527803">
<ele>279.6</ele>
<time>2023-05-16T10:40:14Z</time>
</trkpt>
<trkpt lat="48.973531974479556" lon="9.60857198573649">
<ele>279.6</ele>
<time>2023-05-16T10:40:15Z</time>
</trkpt>
<trkpt lat="48.97354295477271" lon="9.608476934954524">
<ele>279.4</ele>
<time>2023-05-16T10:40:16Z</time>
</trkpt>
<trkpt lat="48.973552929237485" lon="9.60838196799159">
<ele>279.4</ele>
<time>2023-05-16T10:40:17Z</time>
</trkpt>
<trkpt lat="48.97356198169291" lon="9.608287923038006">
<ele>279.4</ele>
<time>2023-05-16T10:40:18Z</time>
</trkpt>
<trkpt lat="48.973572961986065" lon="9.608192956075072">
<ele>279.20000000000005</ele>
<time>2023-05-16T10:40:19Z</time>
</trkpt>
<trkpt lat="48.9735849481076" lon="9.608099916949868">
<ele>279.20000000000005</ele>
<time>2023-05-16T10:40:20Z</time>
</trkpt>
<trkpt lat="48.973594922572374" lon="9.608002938330173">
<ele>279.20000000000005</ele>
<time>2023-05-16T10:40:21Z</time>
</trkpt>
<trkpt lat="48.97360498085618" lon="9.60790696553886">
<ele>279</ele>
<time>2023-05-16T10:40:22Z</time>
</trkpt>
<trkpt lat="48.97361294366419" lon="9.607809986919165">
<ele>279</ele>
<time>2023-05-16T10:40:23Z</time>
</trkpt>
<trkpt lat="48.97362291812897" lon="9.6077149361372">
<ele>279</ele>
<time>2023-05-16T10:40:24Z</time>
</trkpt>
<trkpt lat="48.97363197058439" lon="9.607617957517505">
<ele>278.79999999999995</ele>
<time>2023-05-16T10:40:25Z</time>
</trkpt>
<trkpt lat="48.97364295087755" lon="9.607522990554571">
<ele>278.79999999999995</ele>
<time>2023-05-16T10:40:26Z</time>
</trkpt>
<trkpt lat="48.97365292534232" lon="9.607427939772606">
<ele>278.79999999999995</ele>
<time>2023-05-16T10:40:27Z</time>
</trkpt>
<trkpt lat="48.97366499528289" lon="9.607332972809672">
<ele>278.79999999999995</ele>
<time>2023-05-16T10:40:28Z</time>
</trkpt>
<trkpt lat="48.9736729580909" lon="9.607237922027707">
<ele>278.79999999999995</ele>
<time>2023-05-16T10:40:29Z</time>
</trkpt>
<trkpt lat="48.973681926727295" lon="9.607142955064774">
<ele>278.79999999999995</ele>
<time>2023-05-16T10:40:30Z</time>
</trkpt>
<trkpt lat="48.97368997335434" lon="9.60704798810184">
<ele>278.79999999999995</ele>
<time>2023-05-16T10:40:31Z</time>
</trkpt>
<trkpt lat="48.973699947819114" lon="9.606952937319875">
<ele>278.79999999999995</ele>
<time>2023-05-16T10:40:32Z</time>
</trkpt>
<trkpt lat="48.97370992228389" lon="9.60685696452856">
<ele>278.6</ele>
<time>2023-05-16T10:40:33Z</time>
</trkpt>
<trkpt lat="48.973719980567694" lon="9.606761997565627">
<ele>278.6</ele>
<time>2023-05-16T10:40:34Z</time>
</trkpt>
<trkpt lat="48.97372995503247" lon="9.606669964268804">
<ele>278.6</ele>
<time>2023-05-16T10:40:35Z</time>
</trkpt>
<trkpt lat="48.97373992949724" lon="9.60657499730587">
<ele>278.6</ele>
<time>2023-05-16T10:40:36Z</time>
</trkpt>
<trkpt lat="48.97374797612429" lon="9.606479946523905">
<ele>278.4</ele>
<time>2023-05-16T10:40:37Z</time>
</trkpt>
<trkpt lat="48.97375795058906" lon="9.606387997046113">
<ele>278.4</ele>
<time>2023-05-16T10:40:38Z</time>
</trkpt>
<trkpt lat="48.973767925053835" lon="9.606292946264148">
<ele>278.4</ele>
<time>2023-05-16T10:40:39Z</time>
</trkpt>
<trkpt lat="48.9737799949944" lon="9.606201918795705">
<ele>278.4</ele>
<time>2023-05-16T10:40:40Z</time>
</trkpt>
<trkpt lat="48.97379198111594" lon="9.606107957661152">
<ele>278.4</ele>
<time>2023-05-16T10:40:41Z</time>
</trkpt>
<trkpt lat="48.97380296140909" lon="9.606012990698218">
<ele>278.20000000000005</ele>
<time>2023-05-16T10:40:42Z</time>
</trkpt>
<trkpt lat="48.973812935873866" lon="9.605919951573014">
<ele>278.20000000000005</ele>
<time>2023-05-16T10:40:43Z</time>
</trkpt>
<trkpt lat="48.97382693365216" lon="9.60582498461008">
<ele>278.20000000000005</ele>
<time>2023-05-16T10:40:44Z</time>
</trkpt>
<trkpt lat="48.97383799776435" lon="9.605731945484877">
<ele>278</ele>
<time>2023-05-16T10:40:45Z</time>
</trkpt>
<trkpt lat="48.973852917551994" lon="9.605639996007085">
<ele>278</ele>
<time>2023-05-16T10:40:46Z</time>
</trkpt>
<trkpt lat="48.97386699914932" lon="9.605549974367023">
<ele>278</ele>
<time>2023-05-16T10:40:47Z</time>
</trkpt>
<trkpt lat="48.97388191893697" lon="9.605461964383721">
<ele>278</ele>
<time>2023-05-16T10:40:48Z</time>
</trkpt>
<trkpt lat="48.973896922543645" lon="9.60537294857204">
<ele>278</ele>
<time>2023-05-16T10:40:49Z</time>
</trkpt>
<trkpt lat="48.9739129319787" lon="9.6052869502455">
<ele>278</ele>
<time>2023-05-16T10:40:50Z</time>
</trkpt>
<trkpt lat="48.9739319588989" lon="9.605199946090579">
<ele>278</ele>
<time>2023-05-16T10:40:51Z</time>
</trkpt>
<trkpt lat="48.97395199164748" lon="9.605112941935658">
<ele>278</ele>
<time>2023-05-16T10:40:52Z</time>
</trkpt>
<trkpt lat="48.97397696971893" lon="9.605032978579402">
<ele>278</ele>
<time>2023-05-16T10:40:53Z</time>
</trkpt>
<trkpt lat="48.97399993613362" lon="9.604952931404114">
<ele>277.79999999999995</ele>
<time>2023-05-16T10:40:54Z</time>
</trkpt>
<trkpt lat="48.974022986367345" lon="9.604872968047857">
<ele>277.79999999999995</ele>
<time>2023-05-16T10:40:55Z</time>
</trkpt>
<trkpt lat="48.974047964438796" lon="9.604792920872569">
<ele>277.79999999999995</ele>
<time>2023-05-16T10:40:56Z</time>
</trkpt>
<trkpt lat="48.97407294251025" lon="9.604712957516313">
<ele>277.79999999999995</ele>
<time>2023-05-16T10:40:57Z</time>
</trkpt>
<trkpt lat="48.97410194389522" lon="9.604632994160056">
<ele>277.79999999999995</ele>
<time>2023-05-16T10:40:58Z</time>
</trkpt>
<trkpt lat="48.974129939451814" lon="9.604549929499626">
<ele>277.79999999999995</ele>
<time>2023-05-16T10:40:59Z</time>
</trkpt>
<trkpt lat="48.974156929180026" lon="9.60447197780013">
<ele>277.6</ele>
<time>2023-05-16T10:41:00Z</time>
</trkpt>
<trkpt lat="48.97417796775699" lon="9.604399977251887">
<ele>277.6</ele>
<time>2023-05-16T10:41:01Z</time>
</trkpt>
<trkpt lat="48.9742049574852" lon="9.60432294756174">
<ele>277.4</ele>
<time>2023-05-16T10:41:02Z</time>
</trkpt>
<trkpt lat="48.97423194721341" lon="9.604249941185117">
<ele>277.20000000000005</ele>
<time>2023-05-16T10:41:03Z</time>
</trkpt>
<trkpt lat="48.97425793111324" lon="9.604174923151731">
<ele>277</ele>
<time>2023-05-16T10:41:04Z</time>
</trkpt>
<trkpt lat="48.9742879383266" lon="9.60410493426025">
<ele>277</ele>
<time>2023-05-16T10:41:05Z</time>
</trkpt>
<trkpt lat="48.9743119943887" lon="9.604037962853909">
<ele>276.79999999999995</ele>
<time>2023-05-16T10:41:06Z</time>
</trkpt>
<trkpt lat="48.97433496080339" lon="9.603966968134046">
<ele>276.79999999999995</ele>
<time>2023-05-16T10:41:07Z</time>
</trkpt>
<trkpt lat="48.97435792721808" lon="9.60389195010066">
<ele>276.79999999999995</ele>
<time>2023-05-16T10:41:08Z</time>
</trkpt>
<trkpt lat="48.97437695413828" lon="9.603811986744404">
<ele>276.79999999999995</ele>
<time>2023-05-16T10:41:09Z</time>
</trkpt>
<trkpt lat="48.9743949752301" lon="9.603726994246244">
<ele>276.6</ele>
<time>2023-05-16T10:41:10Z</time>
</trkpt>
<trkpt lat="48.974411990493536" lon="9.603637978434563">
<ele>276.6</ele>
<time>2023-05-16T10:41:11Z</time>
</trkpt>
<trkpt lat="48.974431939423084" lon="9.603549968451262">
<ele>276.6</ele>
<time>2023-05-16T10:41:12Z</time>
</trkpt>
<trkpt lat="48.97444694302976" lon="9.603457935154438">
<ele>276.6</ele>
<time>2023-05-16T10:41:13Z</time>
</trkpt>
<trkpt lat="48.97446194663644" lon="9.603366991505027">
<ele>276.6</ele>
<time>2023-05-16T10:41:14Z</time>
</trkpt>
<trkpt lat="48.974476950243115" lon="9.603271940723062">
<ele>276.6</ele>
<time>2023-05-16T10:41:15Z</time>
</trkpt>
<trkpt lat="48.97449195384979" lon="9.603177979588509">
<ele>276.6</ele>
<time>2023-05-16T10:41:16Z</time>
</trkpt>
<trkpt lat="48.97450695745647" lon="9.603089969605207">
<ele>276.6</ele>
<time>2023-05-16T10:41:17Z</time>
</trkpt>
<trkpt lat="48.974517937749624" lon="9.60300799459219">
<ele>276.4</ele>
<time>2023-05-16T10:41:18Z</time>
</trkpt>
<trkpt lat="48.97452799603343" lon="9.60292492993176">
<ele>276.20000000000005</ele>
<time>2023-05-16T10:41:19Z</time>
</trkpt>
<trkpt lat="48.974537970498204" lon="9.6028399374336">
<ele>276.20000000000005</ele>
<time>2023-05-16T10:41:20Z</time>
</trkpt>
<trkpt lat="48.97454794496298" lon="9.602761985734105">
<ele>276</ele>
<time>2023-05-16T10:41:21Z</time>
</trkpt>
<trkpt lat="48.97455297410488" lon="9.602677999064326">
<ele>276</ele>
<time>2023-05-16T10:41:22Z</time>
</trkpt>
<trkpt lat="48.97455791942775" lon="9.602596946060658">
<ele>275.79999999999995</ele>
<time>2023-05-16T10:41:23Z</time>
</trkpt>
<trkpt lat="48.974559931084514" lon="9.602507930248976">
<ele>275.79999999999995</ele>
<time>2023-05-16T10:41:24Z</time>
</trkpt>
<trkpt lat="48.974559931084514" lon="9.602419920265675">
<ele>275.6</ele>
<time>2023-05-16T10:41:25Z</time>
</trkpt>
<trkpt lat="48.974562948569655" lon="9.602331994101405">
<ele>275.6</ele>
<time>2023-05-16T10:41:26Z</time>
</trkpt>
<trkpt lat="48.97456797771156" lon="9.602242978289723">
<ele>275.4</ele>
<time>2023-05-16T10:41:27Z</time>
</trkpt>
<trkpt lat="48.97457292303443" lon="9.60215195082128">
<ele>275.4</ele>
<time>2023-05-16T10:41:28Z</time>
</trkpt>
<trkpt lat="48.974581975489855" lon="9.602066958323121">
<ele>275.20000000000005</ele>
<time>2023-05-16T10:41:29Z</time>
</trkpt>
<trkpt lat="48.97459697909653" lon="9.601974925026298">
<ele>275.20000000000005</ele>
<time>2023-05-16T10:41:30Z</time>
</trkpt>
<trkpt lat="48.97460997104645" lon="9.601881969720125">
<ele>275</ele>
<time>2023-05-16T10:41:31Z</time>
</trkpt>
<trkpt lat="48.97461994551122" lon="9.60178792476654">
<ele>275</ele>
<time>2023-05-16T10:41:32Z</time>
</trkpt>
<trkpt lat="48.97463193163276" lon="9.601692957803607">
<ele>275</ele>
<time>2023-05-16T10:41:33Z</time>
</trkpt>
<trkpt lat="48.974642995744944" lon="9.601601930335164">
<ele>274.79999999999995</ele>
<time>2023-05-16T10:41:34Z</time>
</trkpt>
<trkpt lat="48.97465699352324" lon="9.60150696337223">
<ele>274.79999999999995</ele>
<time>2023-05-16T10:41:35Z</time>
</trkpt>
<trkpt lat="48.974669985473156" lon="9.601412918418646">
<ele>274.6</ele>
<time>2023-05-16T10:41:36Z</time>
</trkpt>
<trkpt lat="48.97468297742307" lon="9.601321974769235">
<ele>274.6</ele>
<time>2023-05-16T10:41:37Z</time>
</trkpt>
<trkpt lat="48.97469999268651" lon="9.601229941472411">
<ele>274.4</ele>
<time>2023-05-16T10:41:38Z</time>
</trkpt>
<trkpt lat="48.9747179299593" lon="9.601134974509478">
<ele>274.4</ele>
<time>2023-05-16T10:41:39Z</time>
</trkpt>
<trkpt lat="48.97473796270788" lon="9.601044952869415">
<ele>274.20000000000005</ele>
<time>2023-05-16T10:41:40Z</time>
</trkpt>
<trkpt lat="48.97476193495095" lon="9.600957948714495">
<ele>274.20000000000005</ele>
<time>2023-05-16T10:41:41Z</time>
</trkpt>
<trkpt lat="48.97478791885078" lon="9.600869938731194">
<ele>274</ele>
<time>2023-05-16T10:41:42Z</time>
</trkpt>
<trkpt lat="48.974817926064134" lon="9.600777989253402">
<ele>274</ele>
<time>2023-05-16T10:41:43Z</time>
</trkpt>
<trkpt lat="48.97484499961138" lon="9.600686961784959">
<ele>274</ele>
<time>2023-05-16T10:41:44Z</time>
</trkpt>
<trkpt lat="48.97487299516797" lon="9.600597945973277">
<ele>273.79999999999995</ele>
<time>2023-05-16T10:41:45Z</time>
</trkpt>
<trkpt lat="48.97490291856229" lon="9.600511947646737">
<ele>273.79999999999995</ele>
<time>2023-05-16T10:41:46Z</time>
</trkpt>
<trkpt lat="48.97493493743241" lon="9.600421926006675">
<ele>273.6</ele>
<time>2023-05-16T10:41:47Z</time>
</trkpt>
<trkpt lat="48.974967962130904" lon="9.600329976528883">
<ele>273.6</ele>
<time>2023-05-16T10:41:48Z</time>
</trkpt>
<trkpt lat="48.97499998100102" lon="9.600241966545582">
<ele>273.4</ele>
<time>2023-05-16T10:41:49Z</time>
</trkpt>
<trkpt lat="48.975031999871135" lon="9.6001529507339">
<ele>273.4</ele>
<time>2023-05-16T10:41:50Z</time>
</trkpt>
<trkpt lat="48.97506292909384" lon="9.60006795823574">
<ele>273.4</ele>
<time>2023-05-16T10:41:51Z</time>
</trkpt>
<trkpt lat="48.975096959620714" lon="9.5999819599092">
<ele>273.20000000000005</ele>
<time>2023-05-16T10:41:52Z</time>
</trkpt>
<trkpt lat="48.97512696683407" lon="9.599897973239422">
<ele>273.20000000000005</ele>
<time>2023-05-16T10:41:53Z</time>
</trkpt>
<trkpt lat="48.9751579798758" lon="9.599814992398024">
<ele>273.20000000000005</ele>
<time>2023-05-16T10:41:54Z</time>
</trkpt>
<trkpt lat="48.97518798708916" lon="9.599734945222735">
<ele>273</ele>
<time>2023-05-16T10:41:55Z</time>
</trkpt>
<trkpt lat="48.97521799430251" lon="9.59965699352324">
<ele>273</ele>
<time>2023-05-16T10:41:56Z</time>
</trkpt>
<trkpt lat="48.975247917696834" lon="9.59957493469119">
<ele>273</ele>
<time>2023-05-16T10:41:57Z</time>
</trkpt>
<trkpt lat="48.97527792491019" lon="9.599494971334934">
<ele>273</ele>
<time>2023-05-16T10:41:58Z</time>
</trkpt>
<trkpt lat="48.97530692629516" lon="9.599417941644788">
<ele>273</ele>
<time>2023-05-16T10:41:59Z</time>
</trkpt>
<trkpt lat="48.975336933508515" lon="9.59933697246015">
<ele>273</ele>
<time>2023-05-16T10:42:00Z</time>
</trkpt>
<trkpt lat="48.97536694072187" lon="9.599254997447133">
<ele>273</ele>
<time>2023-05-16T10:42:01Z</time>
</trkpt>
<trkpt lat="48.975397953763604" lon="9.599171932786703">
<ele>273</ele>
<time>2023-05-16T10:42:02Z</time>
</trkpt>
<trkpt lat="48.97542997263372" lon="9.599089957773685">
<ele>273</ele>
<time>2023-05-16T10:42:03Z</time>
</trkpt>
<trkpt lat="48.975459979847074" lon="9.599009994417429">
<ele>273</ele>
<time>2023-05-16T10:42:04Z</time>
</trkpt>
<trkpt lat="48.975486969575286" lon="9.59892994724214">
<ele>273</ele>
<time>2023-05-16T10:42:05Z</time>
</trkpt>
<trkpt lat="48.97551496513188" lon="9.598852917551994">
<ele>273</ele>
<time>2023-05-16T10:42:06Z</time>
</trkpt>
<trkpt lat="48.97554296068847" lon="9.59877697750926">
<ele>273</ele>
<time>2023-05-16T10:42:07Z</time>
</trkpt>
<trkpt lat="48.975571962073445" lon="9.598701959475875">
<ele>273</ele>
<time>2023-05-16T10:42:08Z</time>
</trkpt>
<trkpt lat="48.97559995763004" lon="9.59862694144249">
<ele>273</ele>
<time>2023-05-16T10:42:09Z</time>
</trkpt>
<trkpt lat="48.97562694735825" lon="9.598549995571375">
<ele>273</ele>
<time>2023-05-16T10:42:10Z</time>
</trkpt>
<trkpt lat="48.9756519254297" lon="9.598471960052848">
<ele>273.20000000000005</ele>
<time>2023-05-16T10:42:11Z</time>
</trkpt>
<trkpt lat="48.97567497566342" lon="9.59839291870594">
<ele>273.20000000000005</ele>
<time>2023-05-16T10:42:12Z</time>
</trkpt>
<trkpt lat="48.97569693624973" lon="9.598314967006445">
<ele>273.20000000000005</ele>
<time>2023-05-16T10:42:13Z</time>
</trkpt>
<trkpt lat="48.97571797482669" lon="9.598232991993427">
<ele>273.4</ele>
<time>2023-05-16T10:42:14Z</time>
</trkpt>
<trkpt lat="48.97573792375624" lon="9.598151938989758">
<ele>273.4</ele>
<time>2023-05-16T10:42:15Z</time>
</trkpt>
<trkpt lat="48.97575493901968" lon="9.598071975633502">
<ele>273.4</ele>
<time>2023-05-16T10:42:16Z</time>
</trkpt>
<trkpt lat="48.97576994262636" lon="9.597989916801453">
<ele>273.4</ele>
<time>2023-05-16T10:42:17Z</time>
</trkpt>
<trkpt lat="48.975784946233034" lon="9.597904924303293">
<ele>273.4</ele>
<time>2023-05-16T10:42:18Z</time>
</trkpt>
<trkpt lat="48.97579492069781" lon="9.597824960947037">
<ele>273.4</ele>
<time>2023-05-16T10:42:19Z</time>
</trkpt>
<trkpt lat="48.975806990638375" lon="9.59774692542851">
<ele>273.6</ele>
<time>2023-05-16T10:42:20Z</time>
</trkpt>
<trkpt lat="48.97581193596125" lon="9.597664950415492">
<ele>273.6</ele>
<time>2023-05-16T10:42:21Z</time>
</trkpt>
<trkpt lat="48.97581797093153" lon="9.597581969574094">
<ele>273.6</ele>
<time>2023-05-16T10:42:22Z</time>
</trkpt>
<trkpt lat="48.97582199424505" lon="9.597499994561076">
<ele>273.79999999999995</ele>
<time>2023-05-16T10:42:23Z</time>
</trkpt>
<trkpt lat="48.9758229162544" lon="9.597417935729027">
<ele>273.79999999999995</ele>
<time>2023-05-16T10:42:24Z</time>
</trkpt>
<trkpt lat="48.9758229162544" lon="9.59733797237277">
<ele>273.79999999999995</ele>
<time>2023-05-16T10:42:25Z</time>
</trkpt>
<trkpt lat="48.97581998258829" lon="9.597257925197482">
<ele>273.79999999999995</ele>
<time>2023-05-16T10:42:26Z</time>
</trkpt>
<trkpt lat="48.97581696510315" lon="9.597174944356084">
<ele>273.79999999999995</ele>
<time>2023-05-16T10:42:27Z</time>
</trkpt>
<trkpt lat="48.97581193596125" lon="9.597091963514686">
<ele>273.79999999999995</ele>
<time>2023-05-16T10:42:28Z</time>
</trkpt>
<trkpt lat="48.975804978981614" lon="9.5970169454813">
<ele>273.79999999999995</ele>
<time>2023-05-16T10:42:29Z</time>
</trkpt>
<trkpt lat="48.97580196149647" lon="9.596932958811522">
<ele>273.79999999999995</ele>
<time>2023-05-16T10:42:30Z</time>
</trkpt>
<trkpt lat="48.9757919870317" lon="9.596841931343079">
<ele>273.79999999999995</ele>
<time>2023-05-16T10:42:31Z</time>
</trkpt>
<trkpt lat="48.97578293457627" lon="9.59675693884492">
<ele>273.79999999999995</ele>
<time>2023-05-16T10:42:32Z</time>
</trkpt>
<trkpt lat="48.97577698342502" lon="9.596661971881986">
<ele>273.6</ele>
<time>2023-05-16T10:42:33Z</time>
</trkpt>
<trkpt lat="48.975767930969596" lon="9.596567926928401">
<ele>273.6</ele>
<time>2023-05-16T10:42:34Z</time>
</trkpt>
<trkpt lat="48.975766925141215" lon="9.59647798910737">
<ele>273.4</ele>
<time>2023-05-16T10:42:35Z</time>
</trkpt>
<trkpt lat="48.975761979818344" lon="9.59638997912407">
<ele>273.20000000000005</ele>
<time>2023-05-16T10:42:36Z</time>
</trkpt>
<trkpt lat="48.97575192153454" lon="9.596291994675994">
<ele>273</ele>
<time>2023-05-16T10:42:37Z</time>
</trkpt>
<trkpt lat="48.97573691792786" lon="9.596196943894029">
<ele>272.79999999999995</ele>
<time>2023-05-16T10:42:38Z</time>
</trkpt>
<trkpt lat="48.97572694346309" lon="9.596096947789192">
<ele>272.6</ele>
<time>2023-05-16T10:42:39Z</time>
</trkpt>
<trkpt lat="48.97571193985641" lon="9.596001980826259">
<ele>272.4</ele>
<time>2023-05-16T10:42:40Z</time>
</trkpt>
<trkpt lat="48.97569693624973" lon="9.595906930044293">
<ele>272.4</ele>
<time>2023-05-16T10:42:41Z</time>
</trkpt>
<trkpt lat="48.97568293847144" lon="9.595814980566502">
<ele>272.20000000000005</ele>
<time>2023-05-16T10:42:42Z</time>
</trkpt>
<trkpt lat="48.97567296400666" lon="9.595721941441298">
<ele>272</ele>
<time>2023-05-16T10:42:43Z</time>
</trkpt>
<trkpt lat="48.97566692903638" lon="9.595626974478364">
<ele>272</ele>
<time>2023-05-16T10:42:44Z</time>
</trkpt>
<trkpt lat="48.97566198371351" lon="9.59553292952478">
<ele>272</ele>
<time>2023-05-16T10:42:45Z</time>
</trkpt>
<trkpt lat="48.975657960399985" lon="9.595441985875368">
<ele>272</ele>
<time>2023-05-16T10:42:46Z</time>
</trkpt>
<trkpt lat="48.97565997205675" lon="9.595347940921783">
<ele>272</ele>
<time>2023-05-16T10:42:47Z</time>
</trkpt>
<trkpt lat="48.97565997205675" lon="9.595261942595243">
<ele>272</ele>
<time>2023-05-16T10:42:48Z</time>
</trkpt>
<trkpt lat="48.97566491737962" lon="9.595171920955181">
<ele>272</ele>
<time>2023-05-16T10:42:49Z</time>
</trkpt>
<trkpt lat="48.97566994652152" lon="9.59508198313415">
<ele>271.79999999999995</ele>
<time>2023-05-16T10:42:50Z</time>
</trkpt>
<trkpt lat="48.975677993148565" lon="9.594992967322469">
<ele>271.79999999999995</ele>
<time>2023-05-16T10:42:51Z</time>
</trkpt>
<trkpt lat="48.97569199092686" lon="9.59490797482431">
<ele>271.79999999999995</ele>
<time>2023-05-16T10:42:52Z</time>
</trkpt>
<trkpt lat="48.97570699453354" lon="9.594827927649021">
<ele>271.79999999999995</ele>
<time>2023-05-16T10:42:53Z</time>
</trkpt>
<trkpt lat="48.975719986483455" lon="9.594746958464384">
<ele>271.6</ele>
<time>2023-05-16T10:42:54Z</time>
</trkpt>
<trkpt lat="48.97573297843337" lon="9.594664983451366">
<ele>271.6</ele>
<time>2023-05-16T10:42:55Z</time>
</trkpt>
<trkpt lat="48.97574798204005" lon="9.59458795376122">
<ele>271.4</ele>
<time>2023-05-16T10:42:56Z</time>
</trkpt>
<trkpt lat="48.975761979818344" lon="9.594517964869738">
<ele>271.4</ele>
<time>2023-05-16T10:42:57Z</time>
</trkpt>
<trkpt lat="48.97577497176826" lon="9.594452921301126">
<ele>271.4</ele>
<time>2023-05-16T10:42:58Z</time>
</trkpt>
<trkpt lat="48.97578997537494" lon="9.594377987086773">
<ele>271.4</ele>
<time>2023-05-16T10:42:59Z</time>
</trkpt>
<trkpt lat="48.975804978981614" lon="9.594301963225007">
<ele>271.4</ele>
<time>2023-05-16T10:43:00Z</time>
</trkpt>
<trkpt lat="48.9758229162544" lon="9.594227951020002">
<ele>271.4</ele>
<time>2023-05-16T10:43:01Z</time>
</trkpt>
<trkpt lat="48.9758419431746" lon="9.594144970178604">
<ele>271.4</ele>
<time>2023-05-16T10:43:02Z</time>
</trkpt>
<trkpt lat="48.97585795260966" lon="9.594074981287122">
<ele>271.4</ele>
<time>2023-05-16T10:43:03Z</time>
</trkpt>
<trkpt lat="48.97587697952986" lon="9.59400792606175">
<ele>271.4</ele>
<time>2023-05-16T10:43:04Z</time>
</trkpt>
<trkpt lat="48.97588997147977" lon="9.593939948827028">
<ele>271.4</ele>
<time>2023-05-16T10:43:05Z</time>
</trkpt>
<trkpt lat="48.97590799257159" lon="9.593869959935546">
<ele>271.20000000000005</ele>
<time>2023-05-16T10:43:06Z</time>
</trkpt>
<trkpt lat="48.97592199034989" lon="9.593801982700825">
<ele>271.20000000000005</ele>
<time>2023-05-16T10:43:07Z</time>
</trkpt>
<trkpt lat="48.97594193927944" lon="9.593732999637723">
<ele>271.20000000000005</ele>
<time>2023-05-16T10:43:08Z</time>
</trkpt>
<trkpt lat="48.97596691735089" lon="9.593676924705505">
<ele>271.20000000000005</ele>
<time>2023-05-16T10:43:09Z</time>
</trkpt>
<trkpt lat="48.97598695009947" lon="9.593616994097829">
<ele>271.20000000000005</ele>
<time>2023-05-16T10:43:10Z</time>
</trkpt>
<trkpt lat="48.97600798867643" lon="9.593561924993992">
<ele>271.20000000000005</ele>
<time>2023-05-16T10:43:11Z</time>
</trkpt>
<trkpt lat="48.976024920120835" lon="9.593501994386315">
<ele>271.20000000000005</ele>
<time>2023-05-16T10:43:12Z</time>
</trkpt>
<trkpt lat="48.97603799588978" lon="9.593444997444749">
<ele>271.20000000000005</ele>
<time>2023-05-16T10:43:13Z</time>
</trkpt>
<trkpt lat="48.97604998201132" lon="9.59338791668415">
<ele>271.20000000000005</ele>
<time>2023-05-16T10:43:14Z</time>
</trkpt>
<trkpt lat="48.976064985617995" lon="9.593324968591332">
<ele>271.20000000000005</ele>
<time>2023-05-16T10:43:15Z</time>
</trkpt>
<trkpt lat="48.97608292289078" lon="9.593266965821385">
<ele>271.20000000000005</ele>
<time>2023-05-16T10:43:16Z</time>
</trkpt>
<trkpt lat="48.97609993815422" lon="9.593206951394677">
<ele>271.20000000000005</ele>
<time>2023-05-16T10:43:17Z</time>
</trkpt>
<trkpt lat="48.9761149417609" lon="9.59314794279635">
<ele>271.20000000000005</ele>
<time>2023-05-16T10:43:18Z</time>
</trkpt>
<trkpt lat="48.976131957024336" lon="9.593089940026402">
<ele>271.20000000000005</ele>
<time>2023-05-16T10:43:19Z</time>
</trkpt>
<trkpt lat="48.976151989772916" lon="9.593029925599694">
<ele>271.20000000000005</ele>
<time>2023-05-16T10:43:20Z</time>
</trkpt>
<trkpt lat="48.9761699270457" lon="9.592969994992018">
<ele>271.20000000000005</ele>
<time>2023-05-16T10:43:21Z</time>
</trkpt>
<trkpt lat="48.97618995979428" lon="9.592907968908548">
<ele>271.4</ele>
<time>2023-05-16T10:43:22Z</time>
</trkpt>
<trkpt lat="48.9762079808861" lon="9.59284694865346">
<ele>271.4</ele>
<time>2023-05-16T10:43:23Z</time>
</trkpt>
<trkpt lat="48.97623195312917" lon="9.59278492256999">
<ele>271.4</ele>
<time>2023-05-16T10:43:24Z</time>
</trkpt>
<trkpt lat="48.97625491954386" lon="9.592722980305552">
<ele>271.6</ele>
<time>2023-05-16T10:43:25Z</time>
</trkpt>
<trkpt lat="48.97627495229244" lon="9.592659948393703">
<ele>271.6</ele>
<time>2023-05-16T10:43:26Z</time>
</trkpt>
<trkpt lat="48.97629498504102" lon="9.592596916481853">
<ele>271.6</ele>
<time>2023-05-16T10:43:27Z</time>
</trkpt>
<trkpt lat="48.97631795145571" lon="9.592532962560654">
<ele>271.6</ele>
<time>2023-05-16T10:43:28Z</time>
</trkpt>
<trkpt lat="48.97634292952716" lon="9.592467918992043">
<ele>271.6</ele>
<time>2023-05-16T10:43:29Z</time>
</trkpt>
<trkpt lat="48.976369919255376" lon="9.592404970899224">
<ele>271.79999999999995</ele>
<time>2023-05-16T10:43:30Z</time>
</trkpt>
<trkpt lat="48.97639498114586" lon="9.592337999492884">
<ele>271.79999999999995</ele>
<time>2023-05-16T10:43:31Z</time>
</trkpt>
<trkpt lat="48.97642197087407" lon="9.592271950095892">
<ele>271.79999999999995</ele>
<time>2023-05-16T10:43:32Z</time>
</trkpt>
<trkpt lat="48.976449966430664" lon="9.592204978689551">
<ele>271.6</ele>
<time>2023-05-16T10:43:33Z</time>
</trkpt>
<trkpt lat="48.976476956158876" lon="9.592137923464179">
<ele>271.6</ele>
<time>2023-05-16T10:43:34Z</time>
</trkpt>
<trkpt lat="48.97650294005871" lon="9.592069946229458">
<ele>271.6</ele>
<time>2023-05-16T10:43:35Z</time>
</trkpt>
<trkpt lat="48.97652992978692" lon="9.592001968994737">
<ele>271.6</ele>
<time>2023-05-16T10:43:36Z</time>
</trkpt>
<trkpt lat="48.97655691951513" lon="9.591932985931635">
<ele>271.6</ele>
<time>2023-05-16T10:43:37Z</time>
</trkpt>
<trkpt lat="48.976582987233996" lon="9.591861991211772">
<ele>271.6</ele>
<time>2023-05-16T10:43:38Z</time>
</trkpt>
<trkpt lat="48.97660695947707" lon="9.591792924329638">
<ele>271.6</ele>
<time>2023-05-16T10:43:39Z</time>
</trkpt>
<trkpt lat="48.97663193754852" lon="9.591724947094917">
<ele>271.4</ele>
<time>2023-05-16T10:43:40Z</time>
</trkpt>
<trkpt lat="48.976647946983576" lon="9.591672979295254">
<ele>271.4</ele>
<time>2023-05-16T10:43:41Z</time>
</trkpt>
<trkpt lat="48.97665792144835" lon="9.591636937111616">
<ele>271.4</ele>
<time>2023-05-16T10:43:42Z</time>
</trkpt>
<trkpt lat="48.97666999138892" lon="9.591589998453856">
<ele>271.4</ele>
<time>2023-05-16T10:43:43Z</time>
</trkpt>
<trkpt lat="48.97668298333883" lon="9.591544987633824">
<ele>271.20000000000005</ele>
<time>2023-05-16T10:43:44Z</time>
</trkpt>
<trkpt lat="48.97669295780361" lon="9.591509951278567">
<ele>271.20000000000005</ele>
<time>2023-05-16T10:43:45Z</time>
</trkpt>
<trkpt lat="48.97670293226838" lon="9.591477932408452">
<ele>271</ele>
<time>2023-05-16T10:43:46Z</time>
</trkpt>
<trkpt lat="48.976709973067045" lon="9.591447925195098">
<ele>271</ele>
<time>2023-05-16T10:43:47Z</time>
</trkpt>
<trkpt lat="48.976714918389916" lon="9.591424958780408">
<ele>271</ele>
<time>2023-05-16T10:43:48Z</time>
</trkpt>
<trkpt lat="48.97671693004668" lon="9.59140995517373">
<ele>271</ele>
<time>2023-05-16T10:43:49Z</time>
</trkpt>
<trkpt lat="48.97671693004668" lon="9.591399980708957">
<ele>271</ele>
<time>2023-05-16T10:43:50Z</time>
</trkpt>
<trkpt lat="48.97671693004668" lon="9.591397969052196">
<ele>270.79999999999995</ele>
<time>2023-05-16T10:43:51Z</time>
</trkpt>
<trkpt lat="48.97671793587506" lon="9.591392939910293">
<ele>270.79999999999995</ele>
<time>2023-05-16T10:43:52Z</time>
</trkpt>
<trkpt lat="48.97672497667372" lon="9.59138497710228">
<ele>270.79999999999995</ele>
<time>2023-05-16T10:43:53Z</time>
</trkpt>
<trkpt lat="48.97673696279526" lon="9.591377936303616">
<ele>270.79999999999995</ele>
<time>2023-05-16T10:43:54Z</time>
</trkpt>
<trkpt lat="48.97674995474517" lon="9.591371985152364">
<ele>270.79999999999995</ele>
<time>2023-05-16T10:43:55Z</time>
</trkpt>
<trkpt lat="48.97676998749375" lon="9.59136695601046">
<ele>270.79999999999995</ele>
<time>2023-05-16T10:43:56Z</time>
</trkpt>
<trkpt lat="48.97678691893816" lon="9.591361926868558">
<ele>270.79999999999995</ele>
<time>2023-05-16T10:43:57Z</time>
</trkpt>
<trkpt lat="48.97680192254484" lon="9.591351952403784">
<ele>270.79999999999995</ele>
<time>2023-05-16T10:43:58Z</time>
</trkpt>
<trkpt lat="48.976816926151514" lon="9.591344995424151">
<ele>270.79999999999995</ele>
<time>2023-05-16T10:43:59Z</time>
</trkpt>
<trkpt lat="48.9768279902637" lon="9.591337954625487">
<ele>270.79999999999995</ele>
<time>2023-05-16T10:44:00Z</time>
</trkpt>
<trkpt lat="48.97682991810143" lon="9.591331919655204">
<ele>270.79999999999995</ele>
<time>2023-05-16T10:44:01Z</time>
</trkpt>
<trkpt lat="48.97683192975819" lon="9.591331919655204">
<ele>270.6</ele>
<time>2023-05-16T10:44:03Z</time>
</trkpt>
<trkpt lat="48.976879958063364" lon="9.591316999867558">
<ele>270.6</ele>
<time>2023-05-16T10:44:03Z</time>
</trkpt>
<trkpt lat="48.9768969733268" lon="9.591326974332333">
<ele>270.6</ele>
<time>2023-05-16T10:44:04Z</time>
</trkpt>
<trkpt lat="48.97691499441862" lon="9.591336948797107">
<ele>270.4</ele>
<time>2023-05-16T10:44:05Z</time>
</trkpt>
<trkpt lat="48.97693494334817" lon="9.591344995424151">
<ele>270.4</ele>
<time>2023-05-16T10:44:06Z</time>
</trkpt>
<trkpt lat="48.97695698775351" lon="9.591347929090261">
<ele>270.4</ele>
<time>2023-05-16T10:44:07Z</time>
</trkpt>
<trkpt lat="48.97697794251144" lon="9.591344995424151">
<ele>270.4</ele>
<time>2023-05-16T10:44:08Z</time>
</trkpt>
<trkpt lat="48.97699998691678" lon="9.591334937140346">
<ele>270.4</ele>
<time>2023-05-16T10:44:09Z</time>
</trkpt>
<trkpt lat="48.97702194750309" lon="9.591311970725656">
<ele>270.4</ele>
<time>2023-05-16T10:44:10Z</time>
</trkpt>
<trkpt lat="48.97704298608005" lon="9.591277940198779">
<ele>270.20000000000005</ele>
<time>2023-05-16T10:44:11Z</time>
</trkpt>
<trkpt lat="48.97706494666636" lon="9.591242987662554">
<ele>270.20000000000005</ele>
<time>2023-05-16T10:44:12Z</time>
</trkpt>
<trkpt lat="48.97708296775818" lon="9.591207951307297">
<ele>270.20000000000005</ele>
<time>2023-05-16T10:44:13Z</time>
</trkpt>
<trkpt lat="48.97710199467838" lon="9.591167969629169">
<ele>270.20000000000005</ele>
<time>2023-05-16T10:44:14Z</time>
</trkpt>
<trkpt lat="48.977119931951165" lon="9.59112698212266">
<ele>270.20000000000005</ele>
<time>2023-05-16T10:44:15Z</time>
</trkpt>
<trkpt lat="48.977139964699745" lon="9.59108498878777">
<ele>270.20000000000005</ele>
<time>2023-05-16T10:44:16Z</time>
</trkpt>
<trkpt lat="48.977157985791564" lon="9.591047940775752">
<ele>270.20000000000005</ele>
<time>2023-05-16T10:44:17Z</time>
</trkpt>
<trkpt lat="48.97717692889273" lon="9.591007959097624">
<ele>270</ele>
<time>2023-05-16T10:44:18Z</time>
</trkpt>
<trkpt lat="48.97719293832779" lon="9.590964959934354">
<ele>270</ele>
<time>2023-05-16T10:44:19Z</time>
</trkpt>
<trkpt lat="48.977206936106086" lon="9.590922966599464">
<ele>270</ele>
<time>2023-05-16T10:44:20Z</time>
</trkpt>
<trkpt lat="48.97722193971276" lon="9.590884996578097">
<ele>269.79999999999995</ele>
<time>2023-05-16T10:44:21Z</time>
</trkpt>
<trkpt lat="48.97723493166268" lon="9.59084996022284">
<ele>269.79999999999995</ele>
<time>2023-05-16T10:44:22Z</time>
</trkpt>
<trkpt lat="48.977247923612595" lon="9.590811990201473">
<ele>269.79999999999995</ele>
<time>2023-05-16T10:44:23Z</time>
</trkpt>
<trkpt lat="48.97726292721927" lon="9.590772930532694">
<ele>269.79999999999995</ele>
<time>2023-05-16T10:44:24Z</time>
</trkpt>
<trkpt lat="48.97727692499757" lon="9.590737977996469">
<ele>269.79999999999995</ele>
<time>2023-05-16T10:44:25Z</time>
</trkpt>
<trkpt lat="48.977291928604245" lon="9.59069992415607">
<ele>269.6</ele>
<time>2023-05-16T10:44:26Z</time>
</trkpt>
<trkpt lat="48.97730299271643" lon="9.590662959963083">
<ele>269.6</ele>
<time>2023-05-16T10:44:27Z</time>
</trkpt>
<trkpt lat="48.97731497883797" lon="9.590624989941716">
<ele>269.6</ele>
<time>2023-05-16T10:44:28Z</time>
</trkpt>
<trkpt lat="48.9773269649595" lon="9.590586936101317">
<ele>269.6</ele>
<time>2023-05-16T10:44:29Z</time>
</trkpt>
<trkpt lat="48.977336939424276" lon="9.59054796025157">
<ele>269.4</ele>
<time>2023-05-16T10:44:30Z</time>
</trkpt>
<trkpt lat="48.97734699770808" lon="9.590507978573442">
<ele>269.4</ele>
<time>2023-05-16T10:44:31Z</time>
</trkpt>
<trkpt lat="48.977354960516095" lon="9.590469924733043">
<ele>269.4</ele>
<time>2023-05-16T10:44:32Z</time>
</trkpt>
<trkpt lat="48.97736493498087" lon="9.590431954711676">
<ele>269.4</ele>
<time>2023-05-16T10:44:33Z</time>
</trkpt>
<trkpt lat="48.977376921102405" lon="9.590387949720025">
<ele>269.4</ele>
<time>2023-05-16T10:44:34Z</time>
</trkpt>
<trkpt lat="48.97738798521459" lon="9.590342938899994">
<ele>269.4</ele>
<time>2023-05-16T10:44:35Z</time>
</trkpt>
<trkpt lat="48.977399971336126" lon="9.590302957221866">
<ele>269.20000000000005</ele>
<time>2023-05-16T10:44:36Z</time>
</trkpt>
<trkpt lat="48.9774099458009" lon="9.590264987200499">
<ele>269.20000000000005</ele>
<time>2023-05-16T10:44:37Z</time>
</trkpt>
<trkpt lat="48.977417992427945" lon="9.590216958895326">
<ele>269.20000000000005</ele>
<time>2023-05-16T10:44:38Z</time>
</trkpt>
<trkpt lat="48.97743199020624" lon="9.590164991095662">
<ele>269.20000000000005</ele>
<time>2023-05-16T10:44:39Z</time>
</trkpt>
<trkpt lat="48.97745294496417" lon="9.590106988325715">
<ele>269.20000000000005</ele>
<time>2023-05-16T10:44:40Z</time>
</trkpt>
<trkpt lat="48.97747197188437" lon="9.590051919221878">
<ele>269</ele>
<time>2023-05-16T10:44:41Z</time>
</trkpt>
<trkpt lat="48.97748798131943" lon="9.589994922280312">
<ele>269</ele>
<time>2023-05-16T10:44:42Z</time>
</trkpt>
<trkpt lat="48.977506924420595" lon="9.589942954480648">
<ele>269</ele>
<time>2023-05-16T10:44:43Z</time>
</trkpt>
<trkpt lat="48.97752293385565" lon="9.589892998337746">
<ele>269</ele>
<time>2023-05-16T10:44:44Z</time>
</trkpt>
<trkpt lat="48.97753994911909" lon="9.589837929233909">
<ele>269</ele>
<time>2023-05-16T10:44:45Z</time>
</trkpt>
<trkpt lat="48.97755797021091" lon="9.589781938120723">
<ele>269</ele>
<time>2023-05-16T10:44:46Z</time>
</trkpt>
<trkpt lat="48.97757297381759" lon="9.589726952835917">
<ele>269.20000000000005</ele>
<time>2023-05-16T10:44:47Z</time>
</trkpt>
<trkpt lat="48.97758697159588" lon="9.58966794423759">
<ele>269.20000000000005</ele>
<time>2023-05-16T10:44:48Z</time>
</trkpt>
<trkpt lat="48.97760197520256" lon="9.589607929810882">
<ele>269.20000000000005</ele>
<time>2023-05-16T10:44:49Z</time>
</trkpt>
<trkpt lat="48.97761999629438" lon="9.589542970061302">
<ele>269.20000000000005</ele>
<time>2023-05-16T10:44:50Z</time>
</trkpt>
<trkpt lat="48.97764296270907" lon="9.589479938149452">
<ele>269.20000000000005</ele>
<time>2023-05-16T10:44:51Z</time>
</trkpt>
<trkpt lat="48.97766492329538" lon="9.589411960914731">
<ele>269.20000000000005</ele>
<time>2023-05-16T10:44:52Z</time>
</trkpt>
<trkpt lat="48.97768998518586" lon="9.589339960366488">
<ele>269.20000000000005</ele>
<time>2023-05-16T10:44:53Z</time>
</trkpt>
<trkpt lat="48.977717980742455" lon="9.589266953989863">
<ele>269.20000000000005</ele>
<time>2023-05-16T10:44:54Z</time>
</trkpt>
<trkpt lat="48.977742958813906" lon="9.58919495344162">
<ele>269.20000000000005</ele>
<time>2023-05-16T10:44:55Z</time>
</trkpt>
<trkpt lat="48.97776793688536" lon="9.589117923751473">
<ele>269.20000000000005</ele>
<time>2023-05-16T10:44:56Z</time>
</trkpt>
<trkpt lat="48.97779299877584" lon="9.58904298953712">
<ele>269.20000000000005</ele>
<time>2023-05-16T10:44:57Z</time>
</trkpt>
<trkpt lat="48.97781697101891" lon="9.588969983160496">
<ele>269.20000000000005</ele>
<time>2023-05-16T10:44:58Z</time>
</trkpt>
<trkpt lat="48.9778399374336" lon="9.588899994269013">
<ele>269.20000000000005</ele>
<time>2023-05-16T10:44:59Z</time>
</trkpt>
<trkpt lat="48.97786298766732" lon="9.58883193321526">
<ele>269.20000000000005</ele>
<time>2023-05-16T10:45:00Z</time>
</trkpt>
<trkpt lat="48.97788796573877" lon="9.588767979294062">
<ele>269.20000000000005</ele>
<time>2023-05-16T10:45:01Z</time>
</trkpt>
<trkpt lat="48.977911937981844" lon="9.588704947382212">
<ele>269.20000000000005</ele>
<time>2023-05-16T10:45:02Z</time>
</trkpt>
<trkpt lat="48.977934988215566" lon="9.588641999289393">
<ele>269.20000000000005</ele>
<time>2023-05-16T10:45:03Z</time>
</trkpt>
<trkpt lat="48.977954937145114" lon="9.588576955720782">
<ele>269.20000000000005</ele>
<time>2023-05-16T10:45:04Z</time>
</trkpt>
<trkpt lat="48.97797195240855" lon="9.588512917980552">
<ele>269.20000000000005</ele>
<time>2023-05-16T10:45:05Z</time>
</trkpt>
<trkpt lat="48.97799299098551" lon="9.588454999029636">
<ele>269.20000000000005</ele>
<time>2023-05-16T10:45:06Z</time>
</trkpt>
<trkpt lat="48.97801293991506" lon="9.58840194158256">
<ele>269.20000000000005</ele>
<time>2023-05-16T10:45:07Z</time>
</trkpt>
<trkpt lat="48.97803196683526" lon="9.588346956297755">
<ele>269</ele>
<time>2023-05-16T10:45:08Z</time>
</trkpt>
<trkpt lat="48.97805493324995" lon="9.588287947699428">
<ele>269</ele>
<time>2023-05-16T10:45:09Z</time>
</trkpt>
<trkpt lat="48.97807697765529" lon="9.58822793327272">
<ele>269</ele>
<time>2023-05-16T10:45:10Z</time>
</trkpt>
<trkpt lat="48.97809994406998" lon="9.588164985179901">
<ele>269</ele>
<time>2023-05-16T10:45:11Z</time>
</trkpt>
<trkpt lat="48.9781229943037" lon="9.588096924126148">
<ele>269</ele>
<time>2023-05-16T10:45:12Z</time>
</trkpt>
<trkpt lat="48.978146966546774" lon="9.588026935234666">
<ele>269</ele>
<time>2023-05-16T10:45:13Z</time>
</trkpt>
<trkpt lat="48.978169932961464" lon="9.587952923029661">
<ele>269</ele>
<time>2023-05-16T10:45:14Z</time>
</trkpt>
<trkpt lat="48.97819499485195" lon="9.587879916653037">
<ele>268.79999999999995</ele>
<time>2023-05-16T10:45:15Z</time>
</trkpt>
<trkpt lat="48.97821796126664" lon="9.587806994095445">
<ele>268.79999999999995</ele>
<time>2023-05-16T10:45:16Z</time>
</trkpt>
<trkpt lat="48.978239921852946" lon="9.587734993547201">
<ele>268.79999999999995</ele>
<time>2023-05-16T10:45:17Z</time>
</trkpt>
<trkpt lat="48.978259954601526" lon="9.58766994997859">
<ele>268.79999999999995</ele>
<time>2023-05-16T10:45:18Z</time>
</trkpt>
<trkpt lat="48.97828199900687" lon="9.58760499022901">
<ele>268.6</ele>
<time>2023-05-16T10:45:19Z</time>
</trkpt>
<trkpt lat="48.978301947936416" lon="9.587536929175258">
<ele>268.6</ele>
<time>2023-05-16T10:45:20Z</time>
</trkpt>
<trkpt lat="48.978321980684996" lon="9.587462916970253">
<ele>268.4</ele>
<time>2023-05-16T10:45:21Z</time>
</trkpt>
<trkpt lat="48.97833799012005" lon="9.5873879827559">
<ele>268.4</ele>
<time>2023-05-16T10:45:22Z</time>
</trkpt>
<trkpt lat="48.97835693322122" lon="9.587307935580611">
<ele>268.20000000000005</ele>
<time>2023-05-16T10:45:23Z</time>
</trkpt>
<trkpt lat="48.97836699150503" lon="9.587232917547226">
<ele>268.20000000000005</ele>
<time>2023-05-16T10:45:24Z</time>
</trkpt>
<trkpt lat="48.97837998345494" lon="9.587156977504492">
<ele>268</ele>
<time>2023-05-16T10:45:25Z</time>
</trkpt>
<trkpt lat="48.97839699871838" lon="9.587079947814345">
<ele>267.79999999999995</ele>
<time>2023-05-16T10:45:26Z</time>
</trkpt>
<trkpt lat="48.97841292433441" lon="9.587006941437721">
<ele>267.79999999999995</ele>
<time>2023-05-16T10:45:27Z</time>
</trkpt>
<trkpt lat="48.978427927941084" lon="9.586934940889478">
<ele>267.79999999999995</ele>
<time>2023-05-16T10:45:28Z</time>
</trkpt>
<trkpt lat="48.97843999788165" lon="9.586864951997995">
<ele>267.6</ele>
<time>2023-05-16T10:45:29Z</time>
</trkpt>
<trkpt lat="48.978449972346425" lon="9.586794963106513">
<ele>267.6</ele>
<time>2023-05-16T10:45:30Z</time>
</trkpt>
<trkpt lat="48.9784649759531" lon="9.586726985871792">
<ele>267.6</ele>
<time>2023-05-16T10:45:31Z</time>
</trkpt>
<trkpt lat="48.97847796790302" lon="9.586657918989658">
<ele>267.6</ele>
<time>2023-05-16T10:45:32Z</time>
</trkpt>
<trkpt lat="48.978494983166456" lon="9.586577955633402">
<ele>267.6</ele>
<time>2023-05-16T10:45:33Z</time>
</trkpt>
<trkpt lat="48.978517949581146" lon="9.586494974792004">
<ele>267.6</ele>
<time>2023-05-16T10:45:34Z</time>
</trkpt>
<trkpt lat="48.978534964844584" lon="9.586419956758618">
<ele>267.6</ele>
<time>2023-05-16T10:45:35Z</time>
</trkpt>
<trkpt lat="48.9785529859364" lon="9.586339993402362">
<ele>267.6</ele>
<time>2023-05-16T10:45:36Z</time>
</trkpt>
<trkpt lat="48.97856798954308" lon="9.586257934570313">
<ele>267.6</ele>
<time>2023-05-16T10:45:37Z</time>
</trkpt>
<trkpt lat="48.97858299314976" lon="9.586182916536927">
<ele>267.6</ele>
<time>2023-05-16T10:45:38Z</time>
</trkpt>
<trkpt lat="48.978596990928054" lon="9.586106976494193">
<ele>267.4</ele>
<time>2023-05-16T10:45:39Z</time>
</trkpt>
<trkpt lat="48.97861199453473" lon="9.586031958460808">
<ele>267.4</ele>
<time>2023-05-16T10:45:40Z</time>
</trkpt>
<trkpt lat="48.97862699814141" lon="9.585957946255803">
<ele>267.4</ele>
<time>2023-05-16T10:45:41Z</time>
</trkpt>
<trkpt lat="48.978644935414195" lon="9.585882928222418">
<ele>267.4</ele>
<time>2023-05-16T10:45:42Z</time>
</trkpt>
<trkpt lat="48.97866195067763" lon="9.585809921845794">
<ele>267.4</ele>
<time>2023-05-16T10:45:43Z</time>
</trkpt>
<trkpt lat="48.97867293097079" lon="9.585739932954311">
<ele>267.20000000000005</ele>
<time>2023-05-16T10:45:44Z</time>
</trkpt>
<trkpt lat="48.978682989254594" lon="9.58567195571959">
<ele>267.20000000000005</ele>
<time>2023-05-16T10:45:45Z</time>
</trkpt>
<trkpt lat="48.97869296371937" lon="9.585601966828108">
<ele>267.20000000000005</ele>
<time>2023-05-16T10:45:46Z</time>
</trkpt>
<trkpt lat="48.9787049498409" lon="9.585536923259497">
<ele>267.20000000000005</ele>
<time>2023-05-16T10:45:47Z</time>
</trkpt>
<trkpt lat="48.97871693596244" lon="9.58547699265182">
<ele>267</ele>
<time>2023-05-16T10:45:48Z</time>
</trkpt>
<trkpt lat="48.978732945397496" lon="9.585417984053493">
<ele>267</ele>
<time>2023-05-16T10:45:49Z</time>
</trkpt>
<trkpt lat="48.978749960660934" lon="9.585361992940307">
<ele>266.79999999999995</ele>
<time>2023-05-16T10:45:50Z</time>
</trkpt>
<trkpt lat="48.97876295261085" lon="9.585302984341979">
<ele>266.79999999999995</ele>
<time>2023-05-16T10:45:51Z</time>
</trkpt>
<trkpt lat="48.97877695038915" lon="9.585246993228793">
<ele>266.79999999999995</ele>
<time>2023-05-16T10:45:52Z</time>
</trkpt>
<trkpt lat="48.97878994233906" lon="9.585191924124956">
<ele>266.6</ele>
<time>2023-05-16T10:45:53Z</time>
</trkpt>
<trkpt lat="48.9788069576025" lon="9.585137944668531">
<ele>266.6</ele>
<time>2023-05-16T10:45:54Z</time>
</trkpt>
<trkpt lat="48.978816932067275" lon="9.585086982697248">
<ele>266.6</ele>
<time>2023-05-16T10:45:55Z</time>
</trkpt>
<trkpt lat="48.97882992401719" lon="9.585032919421792">
<ele>266.6</ele>
<time>2023-05-16T10:45:56Z</time>
</trkpt>
<trkpt lat="48.97884199395776" lon="9.584981957450509">
<ele>266.6</ele>
<time>2023-05-16T10:45:57Z</time>
</trkpt>
<trkpt lat="48.97885196842253" lon="9.584932923316956">
<ele>266.6</ele>
<time>2023-05-16T10:45:58Z</time>
</trkpt>
<trkpt lat="48.978861942887306" lon="9.584886990487576">
<ele>266.6</ele>
<time>2023-05-16T10:45:59Z</time>
</trkpt>
<trkpt lat="48.97887191735208" lon="9.584841979667544">
<ele>266.6</ele>
<time>2023-05-16T10:46:00Z</time>
</trkpt>
<trkpt lat="48.978881975635886" lon="9.584794957190752">
<ele>266.6</ele>
<time>2023-05-16T10:46:01Z</time>
</trkpt>
<trkpt lat="48.9788899384439" lon="9.58474793471396">
<ele>266.6</ele>
<time>2023-05-16T10:46:02Z</time>
</trkpt>
<trkpt lat="48.978897985070944" lon="9.58470694720745">
<ele>266.6</ele>
<time>2023-05-16T10:46:03Z</time>
</trkpt>
<trkpt lat="48.978904942050576" lon="9.584664953872561">
<ele>266.6</ele>
<time>2023-05-16T10:46:04Z</time>
</trkpt>
<trkpt lat="48.97891198284924" lon="9.584622960537672">
<ele>266.6</ele>
<time>2023-05-16T10:46:05Z</time>
</trkpt>
<trkpt lat="48.978921957314014" lon="9.58457794971764">
<ele>266.6</ele>
<time>2023-05-16T10:46:06Z</time>
</trkpt>
<trkpt lat="48.97893293760717" lon="9.584529921412468">
<ele>266.6</ele>
<time>2023-05-16T10:46:07Z</time>
</trkpt>
<trkpt lat="48.978942995890975" lon="9.584479965269566">
<ele>266.6</ele>
<time>2023-05-16T10:46:08Z</time>
</trkpt>
<trkpt lat="48.97895297035575" lon="9.58442497998476">
<ele>266.6</ele>
<time>2023-05-16T10:46:09Z</time>
</trkpt>
<trkpt lat="48.97895799949765" lon="9.584371922537684">
<ele>266.6</ele>
<time>2023-05-16T10:46:10Z</time>
</trkpt>
<trkpt lat="48.978964956477284" lon="9.58431693725288">
<ele>266.79999999999995</ele>
<time>2023-05-16T10:46:11Z</time>
</trkpt>
<trkpt lat="48.9789729192853" lon="9.584256922826171">
<ele>266.79999999999995</ele>
<time>2023-05-16T10:46:12Z</time>
</trkpt>
<trkpt lat="48.978984989225864" lon="9.584194980561733">
<ele>266.79999999999995</ele>
<time>2023-05-16T10:46:13Z</time>
</trkpt>
<trkpt lat="48.9789969753474" lon="9.584136977791786">
<ele>266.79999999999995</ele>
<time>2023-05-16T10:46:14Z</time>
</trkpt>
<trkpt lat="48.97900493815541" lon="9.584076963365078">
<ele>266.79999999999995</ele>
<time>2023-05-16T10:46:15Z</time>
</trkpt>
<trkpt lat="48.979009967297316" lon="9.584009991958737">
<ele>266.79999999999995</ele>
<time>2023-05-16T10:46:16Z</time>
</trkpt>
<trkpt lat="48.97901499643922" lon="9.583942936733365">
<ele>266.79999999999995</ele>
<time>2023-05-16T10:46:17Z</time>
</trkpt>
<trkpt lat="48.97901692427695" lon="9.583881916478276">
<ele>266.79999999999995</ele>
<time>2023-05-16T10:46:18Z</time>
</trkpt>
<trkpt lat="48.97901994176209" lon="9.583819974213839">
<ele>266.79999999999995</ele>
<time>2023-05-16T10:46:19Z</time>
</trkpt>
<trkpt lat="48.97902195341885" lon="9.583761971443892">
<ele>266.79999999999995</ele>
<time>2023-05-16T10:46:20Z</time>
</trkpt>
<trkpt lat="48.97901793010533" lon="9.583707991987467">
<ele>267</ele>
<time>2023-05-16T10:46:21Z</time>
</trkpt>
<trkpt lat="48.97901298478246" lon="9.58365292288363">
<ele>267</ele>
<time>2023-05-16T10:46:22Z</time>
</trkpt>
<trkpt lat="48.979009967297316" lon="9.583597937598825">
<ele>267</ele>
<time>2023-05-16T10:46:23Z</time>
</trkpt>
<trkpt lat="48.979007955640554" lon="9.583541946485639">
<ele>267.20000000000005</ele>
<time>2023-05-16T10:46:24Z</time>
</trkpt>
<trkpt lat="48.979009967297316" lon="9.583482937887311">
<ele>267.20000000000005</ele>
<time>2023-05-16T10:46:25Z</time>
</trkpt>
<trkpt lat="48.97901197895408" lon="9.583432981744409">
<ele>267.20000000000005</ele>
<time>2023-05-16T10:46:26Z</time>
</trkpt>
<trkpt lat="48.979009967297316" lon="9.58337196148932">
<ele>267.20000000000005</ele>
<time>2023-05-16T10:46:27Z</time>
</trkpt>
<trkpt lat="48.979006949812174" lon="9.583314964547753">
<ele>267.20000000000005</ele>
<time>2023-05-16T10:46:28Z</time>
</trkpt>
<trkpt lat="48.97901197895408" lon="9.58324195817113">
<ele>267.20000000000005</ele>
<time>2023-05-16T10:46:29Z</time>
</trkpt>
<trkpt lat="48.97901298478246" lon="9.583161994814873">
<ele>267.20000000000005</ele>
<time>2023-05-16T10:46:30Z</time>
</trkpt>
<trkpt lat="48.97901298478246" lon="9.583086976781487">
<ele>267.20000000000005</ele>
<time>2023-05-16T10:46:31Z</time>
</trkpt>
<trkpt lat="48.97901692427695" lon="9.583012964576483">
<ele>267.20000000000005</ele>
<time>2023-05-16T10:46:32Z</time>
</trkpt>
<trkpt lat="48.97901692427695" lon="9.582947921007872">
<ele>267.4</ele>
<time>2023-05-16T10:46:33Z</time>
</trkpt>
<trkpt lat="48.97901197895408" lon="9.582882961258292">
<ele>267.4</ele>
<time>2023-05-16T10:46:34Z</time>
</trkpt>
<trkpt lat="48.979009967297316" lon="9.582824958488345">
<ele>267.4</ele>
<time>2023-05-16T10:46:35Z</time>
</trkpt>
<trkpt lat="48.979009967297316" lon="9.582767961546779">
<ele>267.20000000000005</ele>
<time>2023-05-16T10:46:36Z</time>
</trkpt>
<trkpt lat="48.97901197895408" lon="9.582709958776832">
<ele>267.20000000000005</ele>
<time>2023-05-16T10:46:37Z</time>
</trkpt>
<trkpt lat="48.979009967297316" lon="9.582657990977168">
<ele>267.20000000000005</ele>
<time>2023-05-16T10:46:38Z</time>
</trkpt>
<trkpt lat="48.97900292649865" lon="9.582609962671995">
<ele>267.20000000000005</ele>
<time>2023-05-16T10:46:39Z</time>
</trkpt>
<trkpt lat="48.979006949812174" lon="9.582562940195203">
<ele>267.20000000000005</ele>
<time>2023-05-16T10:46:40Z</time>
</trkpt>
<trkpt lat="48.97900493815541" lon="9.582522958517075">
<ele>267.20000000000005</ele>
<time>2023-05-16T10:46:41Z</time>
</trkpt>
<trkpt lat="48.979006949812174" lon="9.582476941868663">
<ele>267.20000000000005</ele>
<time>2023-05-16T10:46:42Z</time>
</trkpt>
<trkpt lat="48.979006949812174" lon="9.582431931048632">
<ele>267.20000000000005</ele>
<time>2023-05-16T10:46:43Z</time>
</trkpt>
<trkpt lat="48.97900192067027" lon="9.582392955198884">
<ele>267.20000000000005</ele>
<time>2023-05-16T10:46:44Z</time>
</trkpt>
<trkpt lat="48.97899798117578" lon="9.582359930500388">
<ele>267.20000000000005</ele>
<time>2023-05-16T10:46:45Z</time>
</trkpt>
<trkpt lat="48.9789969753474" lon="9.582332940772176">
<ele>267.20000000000005</ele>
<time>2023-05-16T10:46:46Z</time>
</trkpt>
<trkpt lat="48.97899798117578" lon="9.582311986014247">
<ele>267.20000000000005</ele>
<time>2023-05-16T10:46:47Z</time>
</trkpt>
<trkpt lat="48.97899999283254" lon="9.582291953265667">
<ele>267.20000000000005</ele>
<time>2023-05-16T10:46:48Z</time>
</trkpt>
<trkpt lat="48.97900192067027" lon="9.58227795548737">
<ele>267.20000000000005</ele>
<time>2023-05-16T10:46:49Z</time>
</trkpt>
<trkpt lat="48.97900493815541" lon="9.582259934395552">
<ele>267.20000000000005</ele>
<time>2023-05-16T10:46:50Z</time>
</trkpt>
<trkpt lat="48.97900493815541" lon="9.582242919132113">
<ele>267.20000000000005</ele>
<time>2023-05-16T10:46:51Z</time>
</trkpt>
<trkpt lat="48.97900292649865" lon="9.582226993516088">
<ele>267.20000000000005</ele>
<time>2023-05-16T10:46:52Z</time>
</trkpt>
<trkpt lat="48.97900192067027" lon="9.582206960767508">
<ele>267.20000000000005</ele>
<time>2023-05-16T10:46:53Z</time>
</trkpt>
<trkpt lat="48.97899798117578" lon="9.582187933847308">
<ele>267.20000000000005</ele>
<time>2023-05-16T10:46:54Z</time>
</trkpt>
<trkpt lat="48.97899798117578" lon="9.582179971039295">
<ele>267.20000000000005</ele>
<time>2023-05-16T10:46:55Z</time>
</trkpt>
<trkpt lat="48.9789969753474" lon="9.582177959382534">
<ele>267.20000000000005</ele>
<time>2023-05-16T10:46:56Z</time>
</trkpt>
<trkpt lat="48.9789969753474" lon="9.582176953554153">
<ele>267.20000000000005</ele>
<time>2023-05-16T10:46:57Z</time>
</trkpt>
<trkpt lat="48.97897694259882" lon="9.582126997411251">
<ele>267.4</ele>
<time>2023-05-16T10:46:57Z</time>
</trkpt>
<trkpt lat="48.97895799949765" lon="9.582114927470684">
<ele>267.4</ele>
<time>2023-05-16T10:46:58Z</time>
</trkpt>
<trkpt lat="48.97893494926393" lon="9.582099923864007">
<ele>267.4</ele>
<time>2023-05-16T10:46:59Z</time>
</trkpt>
<trkpt lat="48.978902930393815" lon="9.582089949399233">
<ele>267.4</ele>
<time>2023-05-16T10:47:00Z</time>
</trkpt>
<trkpt lat="48.97887694649398" lon="9.582086931914091">
<ele>267.6</ele>
<time>2023-05-16T10:47:01Z</time>
</trkpt>
<trkpt lat="48.97885196842253" lon="9.582086931914091">
<ele>267.6</ele>
<time>2023-05-16T10:47:02Z</time>
</trkpt>
<trkpt lat="48.97882992401719" lon="9.582089949399233">
<ele>267.79999999999995</ele>
<time>2023-05-16T10:47:03Z</time>
</trkpt>
<trkpt lat="48.978814920410514" lon="9.582089949399233">
<ele>267.79999999999995</ele>
<time>2023-05-16T10:47:04Z</time>
</trkpt>
<trkpt lat="48.978794971480966" lon="9.582086931914091">
<ele>267.79999999999995</ele>
<time>2023-05-16T10:47:05Z</time>
</trkpt>
<trkpt lat="48.97877695038915" lon="9.58208198659122">
<ele>268</ele>
<time>2023-05-16T10:47:06Z</time>
</trkpt>
<trkpt lat="48.97875993512571" lon="9.582076957449317">
<ele>268</ele>
<time>2023-05-16T10:47:07Z</time>
</trkpt>
<trkpt lat="48.9787379745394" lon="9.582079974934459">
<ele>268.20000000000005</ele>
<time>2023-05-16T10:47:08Z</time>
</trkpt>
<trkpt lat="48.97871693596244" lon="9.58208198659122">
<ele>268.20000000000005</ele>
<time>2023-05-16T10:47:09Z</time>
</trkpt>
<trkpt lat="48.978699920699" lon="9.5820829924196">
<ele>268.4</ele>
<time>2023-05-16T10:47:10Z</time>
</trkpt>
<trkpt lat="48.978686928749084" lon="9.58208198659122">
<ele>268.4</ele>
<time>2023-05-16T10:47:11Z</time>
</trkpt>
<trkpt lat="48.97866999730468" lon="9.5820829924196">
<ele>268.6</ele>
<time>2023-05-16T10:47:12Z</time>
</trkpt>
<trkpt lat="48.97864795289934" lon="9.582087937742472">
<ele>268.6</ele>
<time>2023-05-16T10:47:13Z</time>
</trkpt>
<trkpt lat="48.97863194346428" lon="9.582092966884375">
<ele>268.79999999999995</ele>
<time>2023-05-16T10:47:14Z</time>
</trkpt>
<trkpt lat="48.97861794568598" lon="9.582099923864007">
<ele>268.79999999999995</ele>
<time>2023-05-16T10:47:15Z</time>
</trkpt>
<trkpt lat="48.978596990928054" lon="9.582111993804574">
<ele>269</ele>
<time>2023-05-16T10:47:16Z</time>
</trkpt>
<trkpt lat="48.97857192903757" lon="9.582121968269348">
<ele>269</ele>
<time>2023-05-16T10:47:17Z</time>
</trkpt>
<trkpt lat="48.978536976501346" lon="9.582141917198896">
<ele>269</ele>
<time>2023-05-16T10:47:18Z</time>
</trkpt>
<trkpt lat="48.97849699482322" lon="9.582159938290715">
<ele>269.20000000000005</ele>
<time>2023-05-16T10:47:19Z</time>
</trkpt>
<trkpt lat="48.978447960689664" lon="9.582172930240631">
<ele>269.20000000000005</ele>
<time>2023-05-16T10:47:20Z</time>
</trkpt>
<trkpt lat="48.97839699871838" lon="9.582157926633954">
<ele>269.20000000000005</ele>
<time>2023-05-16T10:47:21Z</time>
</trkpt>
<trkpt lat="48.97835299372673" lon="9.5821279194206">
<ele>269.4</ele>
<time>2023-05-16T10:47:22Z</time>
</trkpt>
<trkpt lat="48.97832499817014" lon="9.582074945792556">
<ele>269.4</ele>
<time>2023-05-16T10:47:23Z</time>
</trkpt>
<trkpt lat="48.97829792462289" lon="9.582027923315763">
<ele>269.6</ele>
<time>2023-05-16T10:47:24Z</time>
</trkpt>
<trkpt lat="48.978277975693345" lon="9.581971932202578">
<ele>269.6</ele>
<time>2023-05-16T10:47:25Z</time>
</trkpt>
<trkpt lat="48.97826196625829" lon="9.581921976059675">
<ele>269.6</ele>
<time>2023-05-16T10:47:26Z</time>
</trkpt>
<trkpt lat="48.97824796847999" lon="9.581856932491064">
<ele>269.79999999999995</ele>
<time>2023-05-16T10:47:27Z</time>
</trkpt>
<trkpt lat="48.978234976530075" lon="9.581796918064356">
<ele>269.79999999999995</ele>
<time>2023-05-16T10:47:28Z</time>
</trkpt>
<trkpt lat="48.9782199729234" lon="9.581747967749834">
<ele>269.79999999999995</ele>
<time>2023-05-16T10:47:29Z</time>
</trkpt>
<trkpt lat="48.97820798680186" lon="9.581702956929803">
<ele>269.79999999999995</ele>
<time>2023-05-16T10:47:30Z</time>
</trkpt>
<trkpt lat="48.978196922689676" lon="9.581659957766533">
<ele>269.79999999999995</ele>
<time>2023-05-16T10:47:31Z</time>
</trkpt>
<trkpt lat="48.978181919083" lon="9.581616958603263">
<ele>269.79999999999995</ele>
<time>2023-05-16T10:47:32Z</time>
</trkpt>
<trkpt lat="48.978166999295354" lon="9.581571947783232">
<ele>269.79999999999995</ele>
<time>2023-05-16T10:47:33Z</time>
</trkpt>
<trkpt lat="48.97814294323325" lon="9.581534983590245">
<ele>269.79999999999995</ele>
<time>2023-05-16T10:47:34Z</time>
</trkpt>
<trkpt lat="48.9781179651618" lon="9.581506988033652">
<ele>269.79999999999995</ele>
<time>2023-05-16T10:47:35Z</time>
</trkpt>
<trkpt lat="48.978104973211884" lon="9.581462983042002">
<ele>269.79999999999995</ele>
<time>2023-05-16T10:47:36Z</time>
</trkpt>
<trkpt lat="48.97810296155512" lon="9.581414954736829">
<ele>269.79999999999995</ele>
<time>2023-05-16T10:47:37Z</time>
</trkpt>
<trkpt lat="48.978107990697026" lon="9.5813749730587">
<ele>269.79999999999995</ele>
<time>2023-05-16T10:47:38Z</time>
</trkpt>
<trkpt lat="48.9781229943037" lon="9.58133197389543">
<ele>269.79999999999995</ele>
<time>2023-05-16T10:47:39Z</time>
</trkpt>
<trkpt lat="48.97813992574811" lon="9.581299955025315">
<ele>269.79999999999995</ele>
<time>2023-05-16T10:47:40Z</time>
</trkpt>
<trkpt lat="48.97815995849669" lon="9.581269947811961">
<ele>269.79999999999995</ele>
<time>2023-05-16T10:47:41Z</time>
</trkpt>
<trkpt lat="48.97818493656814" lon="9.581239940598607">
<ele>269.79999999999995</ele>
<time>2023-05-16T10:47:42Z</time>
</trkpt>
<trkpt lat="48.97820798680186" lon="9.581206999719143">
<ele>269.79999999999995</ele>
<time>2023-05-16T10:47:43Z</time>
</trkpt>
<trkpt lat="48.97823195904493" lon="9.581172969192266">
<ele>269.79999999999995</ele>
<time>2023-05-16T10:47:44Z</time>
</trkpt>
<trkpt lat="48.978256937116385" lon="9.581129970028996">
<ele>269.79999999999995</ele>
<time>2023-05-16T10:47:45Z</time>
</trkpt>
<trkpt lat="48.97827294655144" lon="9.581099962815642">
<ele>269.79999999999995</ele>
<time>2023-05-16T10:47:46Z</time>
</trkpt>
<trkpt lat="48.97829197347164" lon="9.58107196725905">
<ele>269.79999999999995</ele>
<time>2023-05-16T10:47:47Z</time>
</trkpt>
<trkpt lat="48.97830999456346" lon="9.58105193451047">
<ele>269.79999999999995</ele>
<time>2023-05-16T10:47:48Z</time>
</trkpt>
<trkpt lat="48.97832793183625" lon="9.581022933125496">
<ele>269.79999999999995</ele>
<time>2023-05-16T10:47:49Z</time>
</trkpt>
<trkpt lat="48.97834695875645" lon="9.580992925912142">
<ele>269.79999999999995</ele>
<time>2023-05-16T10:47:50Z</time>
</trkpt>
<trkpt lat="48.97836799733341" lon="9.580962918698788">
<ele>269.79999999999995</ele>
<time>2023-05-16T10:47:51Z</time>
</trkpt>
<trkpt lat="48.97839498706162" lon="9.58094296976924">
<ele>269.79999999999995</ele>
<time>2023-05-16T10:47:52Z</time>
</trkpt>
<trkpt lat="48.97841493599117" lon="9.58092494867742">
<ele>269.79999999999995</ele>
<time>2023-05-16T10:47:53Z</time>
</trkpt>
<trkpt lat="48.97843295708299" lon="9.580907933413982">
<ele>269.79999999999995</ele>
<time>2023-05-16T10:47:54Z</time>
</trkpt>
<trkpt lat="48.978447960689664" lon="9.580884966999292">
<ele>269.79999999999995</ele>
<time>2023-05-16T10:47:55Z</time>
</trkpt>
<trkpt lat="48.97846296429634" lon="9.580867951735854">
<ele>269.79999999999995</ele>
<time>2023-05-16T10:47:56Z</time>
</trkpt>
<trkpt lat="48.97847796790302" lon="9.580851942300797">
<ele>269.79999999999995</ele>
<time>2023-05-16T10:47:57Z</time>
</trkpt>
<trkpt lat="48.97848995402455" lon="9.5808379445225">
<ele>269.6</ele>
<time>2023-05-16T10:47:58Z</time>
</trkpt>
<trkpt lat="48.97850696928799" lon="9.580822940915823">
<ele>269.6</ele>
<time>2023-05-16T10:47:59Z</time>
</trkpt>
<trkpt lat="48.97852297872305" lon="9.580806931480765">
<ele>269.6</ele>
<time>2023-05-16T10:48:00Z</time>
</trkpt>
<trkpt lat="48.978536976501346" lon="9.580781953409314">
<ele>269.6</ele>
<time>2023-05-16T10:48:01Z</time>
</trkpt>
<trkpt lat="48.978554997593164" lon="9.580757981166244">
<ele>269.4</ele>
<time>2023-05-16T10:48:02Z</time>
</trkpt>
<trkpt lat="48.97856991738081" lon="9.580739960074425">
<ele>269.4</ele>
<time>2023-05-16T10:48:03Z</time>
</trkpt>
<trkpt lat="48.97858793847263" lon="9.580726968124509">
<ele>269.4</ele>
<time>2023-05-16T10:48:04Z</time>
</trkpt>
<trkpt lat="48.97861199453473" lon="9.580706935375929">
<ele>269.20000000000005</ele>
<time>2023-05-16T10:48:05Z</time>
</trkpt>
<trkpt lat="48.97863797843456" lon="9.5806669536978">
<ele>269.20000000000005</ele>
<time>2023-05-16T10:48:06Z</time>
</trkpt>
<trkpt lat="48.978662956506014" lon="9.580637952312827">
<ele>269</ele>
<time>2023-05-16T10:48:07Z</time>
</trkpt>
<trkpt lat="48.978686928749084" lon="9.580612974241376">
<ele>269</ele>
<time>2023-05-16T10:48:08Z</time>
</trkpt>
<trkpt lat="48.97871693596244" lon="9.580591935664415">
<ele>269</ele>
<time>2023-05-16T10:48:09Z</time>
</trkpt>
<trkpt lat="48.97874291986227" lon="9.580576932057738">
<ele>268.79999999999995</ele>
<time>2023-05-16T10:48:10Z</time>
</trkpt>
<trkpt lat="48.97876798175275" lon="9.580562934279442">
<ele>268.79999999999995</ele>
<time>2023-05-16T10:48:11Z</time>
</trkpt>
<trkpt lat="48.97879698313773" lon="9.580552959814668">
<ele>268.6</ele>
<time>2023-05-16T10:48:12Z</time>
</trkpt>
<trkpt lat="48.97882497869432" lon="9.580532927066088">
<ele>268.6</ele>
<time>2023-05-16T10:48:13Z</time>
</trkpt>
<trkpt lat="48.97884995676577" lon="9.5805149897933">
<ele>268.6</ele>
<time>2023-05-16T10:48:14Z</time>
</trkpt>
<trkpt lat="48.97887493483722" lon="9.58049294538796">
<ele>268.4</ele>
<time>2023-05-16T10:48:15Z</time>
</trkpt>
<trkpt lat="48.978902930393815" lon="9.58046997897327">
<ele>268.4</ele>
<time>2023-05-16T10:48:16Z</time>
</trkpt>
<trkpt lat="48.97893696092069" lon="9.580447934567928">
<ele>268.4</ele>
<time>2023-05-16T10:48:17Z</time>
</trkpt>
<trkpt lat="48.97896294482052" lon="9.58042798563838">
<ele>268.20000000000005</ele>
<time>2023-05-16T10:48:18Z</time>
</trkpt>
<trkpt lat="48.978987922891974" lon="9.580411976203322">
<ele>268.20000000000005</ele>
<time>2023-05-16T10:48:19Z</time>
</trkpt>
<trkpt lat="48.97901692427695" lon="9.58038498647511">
<ele>268.20000000000005</ele>
<time>2023-05-16T10:48:20Z</time>
</trkpt>
<trkpt lat="48.97904491983354" lon="9.580367971211672">
<ele>268</ele>
<time>2023-05-16T10:48:21Z</time>
</trkpt>
<trkpt lat="48.979074927046895" lon="9.580351961776614">
<ele>268</ele>
<time>2023-05-16T10:48:22Z</time>
</trkpt>
<trkpt lat="48.97910493426025" lon="9.580336958169937">
<ele>268</ele>
<time>2023-05-16T10:48:23Z</time>
</trkpt>
<trkpt lat="48.97912999615073" lon="9.580307956784964">
<ele>267.79999999999995</ele>
<time>2023-05-16T10:48:24Z</time>
</trkpt>
<trkpt lat="48.979157991707325" lon="9.58027794957161">
<ele>267.79999999999995</ele>
<time>2023-05-16T10:48:25Z</time>
</trkpt>
<trkpt lat="48.97918992675841" lon="9.580249954015017">
<ele>267.6</ele>
<time>2023-05-16T10:48:26Z</time>
</trkpt>
<trkpt lat="48.979217922315" lon="9.580219946801662">
<ele>267.6</ele>
<time>2023-05-16T10:48:27Z</time>
</trkpt>
<trkpt lat="48.979244995862246" lon="9.58019295707345">
<ele>267.4</ele>
<time>2023-05-16T10:48:28Z</time>
</trkpt>
<trkpt lat="48.979266956448555" lon="9.580154987052083">
<ele>267.4</ele>
<time>2023-05-16T10:48:29Z</time>
</trkpt>
<trkpt lat="48.979291934520006" lon="9.580131936818361">
<ele>267.4</ele>
<time>2023-05-16T10:48:30Z</time>
</trkpt>
<trkpt lat="48.97931498475373" lon="9.580104947090149">
<ele>267.20000000000005</ele>
<time>2023-05-16T10:48:31Z</time>
</trkpt>
<trkpt lat="48.979331916198134" lon="9.580081980675459">
<ele>267.20000000000005</ele>
<time>2023-05-16T10:48:32Z</time>
</trkpt>
<trkpt lat="48.979357983917" lon="9.580049961805344">
<ele>267</ele>
<time>2023-05-16T10:48:33Z</time>
</trkpt>
<trkpt lat="48.97938698530197" lon="9.580014925450087">
<ele>267</ele>
<time>2023-05-16T10:48:34Z</time>
</trkpt>
<trkpt lat="48.97941196337342" lon="9.579979972913861">
<ele>267</ele>
<time>2023-05-16T10:48:35Z</time>
</trkpt>
<trkpt lat="48.979431996122" lon="9.579942924901843">
<ele>266.79999999999995</ele>
<time>2023-05-16T10:48:36Z</time>
</trkpt>
<trkpt lat="48.97944993339479" lon="9.579909984022379">
<ele>266.79999999999995</ele>
<time>2023-05-16T10:48:37Z</time>
</trkpt>
<trkpt lat="48.97946795448661" lon="9.579889951273799">
<ele>266.79999999999995</ele>
<time>2023-05-16T10:48:38Z</time>
</trkpt>
<trkpt lat="48.979482958093286" lon="9.579874947667122">
<ele>266.79999999999995</ele>
<time>2023-05-16T10:48:39Z</time>
</trkpt>
<trkpt lat="48.97949695587158" lon="9.579856926575303">
<ele>266.6</ele>
<time>2023-05-16T10:48:40Z</time>
</trkpt>
<trkpt lat="48.97953299805522" lon="9.579809987917542">
<ele>266.6</ele>
<time>2023-05-16T10:48:41Z</time>
</trkpt>
<trkpt lat="48.979546995833516" lon="9.579787943512201">
<ele>266.6</ele>
<time>2023-05-16T10:48:42Z</time>
</trkpt>
<trkpt lat="48.97956199944019" lon="9.57976195961237">
<ele>266.4</ele>
<time>2023-05-16T10:48:43Z</time>
</trkpt>
<trkpt lat="48.97957993671298" lon="9.579734969884157">
<ele>266.4</ele>
<time>2023-05-16T10:48:44Z</time>
</trkpt>
<trkpt lat="48.97960198111832" lon="9.579706974327564">
<ele>266.4</ele>
<time>2023-05-16T10:48:45Z</time>
</trkpt>
<trkpt lat="48.97962695918977" lon="9.579674955457449">
<ele>266.20000000000005</ele>
<time>2023-05-16T10:48:46Z</time>
</trkpt>
<trkpt lat="48.979651937261224" lon="9.579644948244095">
<ele>266.20000000000005</ele>
<time>2023-05-16T10:48:47Z</time>
</trkpt>
<trkpt lat="48.979674987494946" lon="9.579611923545599">
<ele>266</ele>
<time>2023-05-16T10:48:48Z</time>
</trkpt>
<trkpt lat="48.97970197722316" lon="9.579581916332245">
<ele>266</ele>
<time>2023-05-16T10:48:49Z</time>
</trkpt>
<trkpt lat="48.97972293198109" lon="9.579549981281161">
<ele>265.79999999999995</ele>
<time>2023-05-16T10:48:50Z</time>
</trkpt>
<trkpt lat="48.979741958901286" lon="9.579516956582665">
<ele>265.79999999999995</ele>
<time>2023-05-16T10:48:51Z</time>
</trkpt>
<trkpt lat="48.979757968336344" lon="9.579487955197692">
<ele>265.6</ele>
<time>2023-05-16T10:48:52Z</time>
</trkpt>
<trkpt lat="48.97977297194302" lon="9.579449985176325">
<ele>265.6</ele>
<time>2023-05-16T10:48:53Z</time>
</trkpt>
<trkpt lat="48.9797879755497" lon="9.579412937164307">
<ele>265.6</ele>
<time>2023-05-16T10:48:54Z</time>
</trkpt>
<trkpt lat="48.979802979156375" lon="9.57937496714294">
<ele>265.6</ele>
<time>2023-05-16T10:48:55Z</time>
</trkpt>
<trkpt lat="48.97981295362115" lon="9.579341942444444">
<ele>265.6</ele>
<time>2023-05-16T10:48:56Z</time>
</trkpt>
<trkpt lat="48.97981697693467" lon="9.579297937452793">
<ele>265.6</ele>
<time>2023-05-16T10:48:57Z</time>
</trkpt>
<trkpt lat="48.97981295362115" lon="9.579254938289523">
<ele>265.6</ele>
<time>2023-05-16T10:48:58Z</time>
</trkpt>
<trkpt lat="48.979807924479246" lon="9.579217974096537">
<ele>265.6</ele>
<time>2023-05-16T10:48:59Z</time>
</trkpt>
<trkpt lat="48.97980993613601" lon="9.579197941347957">
<ele>265.6</ele>
<time>2023-05-16T10:49:00Z</time>
</trkpt>
<trkpt lat="48.97981295362115" lon="9.57918293774128">
<ele>265.6</ele>
<time>2023-05-16T10:49:01Z</time>
</trkpt>
<trkpt lat="48.97981496527791" lon="9.579179920256138">
<ele>265.6</ele>
<time>2023-05-16T10:49:02Z</time>
</trkpt>
<trkpt lat="48.97981798276305" lon="9.579181931912899">
<ele>265.79999999999995</ele>
<time>2023-05-16T10:49:03Z</time>
</trkpt>
<trkpt lat="48.97981798276305" lon="9.579157959669828">
<ele>265.79999999999995</ele>
<time>2023-05-16T10:49:03Z</time>
</trkpt>
<trkpt lat="48.97981697693467" lon="9.579144967719913">
<ele>265.79999999999995</ele>
<time>2023-05-16T10:49:04Z</time>
</trkpt>
<trkpt lat="48.97981697693467" lon="9.579131975769997">
<ele>265.79999999999995</ele>
<time>2023-05-16T10:49:05Z</time>
</trkpt>
<trkpt lat="48.97981999441981" lon="9.579127952456474">
<ele>265.79999999999995</ele>
<time>2023-05-16T10:49:06Z</time>
</trkpt>
<trkpt lat="48.97981697693467" lon="9.579119989648461">
<ele>266</ele>
<time>2023-05-16T10:49:07Z</time>
</trkpt>
<trkpt lat="48.97981295362115" lon="9.579111943021417">
<ele>266</ele>
<time>2023-05-16T10:49:08Z</time>
</trkpt>
<trkpt lat="48.97981295362115" lon="9.579104986041784">
<ele>266</ele>
<time>2023-05-16T10:49:09Z</time>
</trkpt>
<trkpt lat="48.97988294251263" lon="9.579152930527925">
<ele>265</ele>
<time>2023-05-16T10:49:09Z</time>
</trkpt>
<trkpt lat="48.979906998574734" lon="9.579207999631763">
<ele>265</ele>
<time>2023-05-16T10:49:10Z</time>
</trkpt>
<trkpt lat="48.97991999052465" lon="9.579209927469492">
<ele>265</ele>
<time>2023-05-16T10:49:11Z</time>
</trkpt>
<trkpt lat="48.97991999052465" lon="9.579206993803382">
<ele>265</ele>
<time>2023-05-16T10:49:12Z</time>
</trkpt>
<trkpt lat="48.97992191836238" lon="9.579194923862815">
<ele>265</ele>
<time>2023-05-16T10:49:13Z</time>
</trkpt>
<trkpt lat="48.97992493584752" lon="9.57918293774128">
<ele>265</ele>
<time>2023-05-16T10:49:14Z</time>
</trkpt>
<trkpt lat="48.97993499413133" lon="9.57916198298335">
<ele>265</ele>
<time>2023-05-16T10:49:15Z</time>
</trkpt>
<trkpt lat="48.97993499413133" lon="9.579149996861815">
<ele>265</ele>
<time>2023-05-16T10:49:16Z</time>
</trkpt>
<trkpt lat="48.97994295693934" lon="9.579134993255138">
<ele>265</ele>
<time>2023-05-16T10:49:17Z</time>
</trkpt>
<trkpt lat="48.97994195111096" lon="9.5791179779917">
<ele>265</ele>
<time>2023-05-16T10:49:18Z</time>
</trkpt>
<trkpt lat="48.97994698025286" lon="9.579114960506558">
<ele>265</ele>
<time>2023-05-16T10:49:19Z</time>
</trkpt>
<trkpt lat="48.97995192557573" lon="9.579109931364655">
<ele>265</ele>
<time>2023-05-16T10:49:20Z</time>
</trkpt>
<trkpt lat="48.979949997738004" lon="9.579114960506558">
<ele>265</ele>
<time>2023-05-16T10:49:22Z</time>
</trkpt>
<trkpt lat="48.979974975809455" lon="9.579326938837767">
<ele>265</ele>
<time>2023-05-16T10:49:22Z</time>
</trkpt>
<trkpt lat="48.979976987466216" lon="9.57933297380805">
<ele>265</ele>
<time>2023-05-16T10:49:23Z</time>
</trkpt>
<trkpt lat="48.979974975809455" lon="9.579334985464811">
<ele>265</ele>
<time>2023-05-16T10:49:24Z</time>
</trkpt>
<trkpt lat="48.9799779932946" lon="9.579337919130921">
<ele>265</ele>
<time>2023-05-16T10:49:25Z</time>
</trkpt>
<trkpt lat="48.979974975809455" lon="9.579264996573329">
<ele>264.79999999999995</ele>
<time>2023-05-16T10:49:25Z</time>
</trkpt>
<trkpt lat="48.97998193278909" lon="9.579274971038103">
<ele>264.79999999999995</ele>
<time>2023-05-16T10:49:26Z</time>
</trkpt>
<trkpt lat="48.97998193278909" lon="9.579277988523245">
<ele>264.79999999999995</ele>
<time>2023-05-16T10:49:27Z</time>
</trkpt>
<trkpt lat="48.97998293861747" lon="9.57928997464478">
<ele>264.79999999999995</ele>
<time>2023-05-16T10:49:28Z</time>
</trkpt>
<trkpt lat="48.9799779932946" lon="9.57931193523109">
<ele>264.79999999999995</ele>
<time>2023-05-16T10:49:29Z</time>
</trkpt>
<trkpt lat="48.9799779932946" lon="9.579326938837767">
<ele>264.79999999999995</ele>
<time>2023-05-16T10:49:30Z</time>
</trkpt>
<trkpt lat="48.9799779932946" lon="9.579344959929585">
<ele>264.79999999999995</ele>
<time>2023-05-16T10:49:31Z</time>
</trkpt>
<trkpt lat="48.97996994666755" lon="9.579367926344275">
<ele>264.79999999999995</ele>
<time>2023-05-16T10:49:32Z</time>
</trkpt>
<trkpt lat="48.97996491752565" lon="9.579382929950953">
<ele>264.79999999999995</ele>
<time>2023-05-16T10:49:33Z</time>
</trkpt>
<trkpt lat="48.979956954717636" lon="9.57939499989152">
<ele>264.79999999999995</ele>
<time>2023-05-16T10:49:34Z</time>
</trkpt>
<trkpt lat="48.97996298968792" lon="9.579396927729249">
<ele>264.79999999999995</ele>
<time>2023-05-16T10:49:35Z</time>
</trkpt>
<trkpt lat="48.97996793501079" lon="9.579406986013055">
<ele>264.79999999999995</ele>
<time>2023-05-16T10:49:36Z</time>
</trkpt>
<trkpt lat="48.97996994666755" lon="9.57941796630621">
<ele>264.79999999999995</ele>
<time>2023-05-16T10:49:37Z</time>
</trkpt>
<trkpt lat="48.97996491752565" lon="9.57941997796297">
<ele>264.79999999999995</ele>
<time>2023-05-16T10:49:38Z</time>
</trkpt>
<trkpt lat="48.97996793501079" lon="9.57941796630621">
<ele>264.79999999999995</ele>
<time>2023-05-16T10:49:39Z</time>
</trkpt>
<trkpt lat="48.97996994666755" lon="9.579414948821068">
<ele>264.79999999999995</ele>
<time>2023-05-16T10:49:40Z</time>
</trkpt>
<trkpt lat="48.97991697303951" lon="9.579286957159638">
<ele>264.79999999999995</ele>
<time>2023-05-16T10:49:40Z</time>
</trkpt>
<trkpt lat="48.97990297526121" lon="9.579271953552961">
<ele>264.79999999999995</ele>
<time>2023-05-16T10:49:41Z</time>
</trkpt>
<trkpt lat="48.97988495416939" lon="9.579256949946284">
<ele>264.79999999999995</ele>
<time>2023-05-16T10:49:42Z</time>
</trkpt>
<trkpt lat="48.97987992502749" lon="9.57924697548151">
<ele>264.79999999999995</ele>
<time>2023-05-16T10:49:43Z</time>
</trkpt>
<trkpt lat="48.97987196221948" lon="9.579234989359975">
<ele>264.79999999999995</ele>
<time>2023-05-16T10:49:44Z</time>
</trkpt>
<trkpt lat="48.979867938905954" lon="9.579222919419408">
<ele>264.6</ele>
<time>2023-05-16T10:49:45Z</time>
</trkpt>
<trkpt lat="48.97986299358308" lon="9.57920498214662">
<ele>264.6</ele>
<time>2023-05-16T10:49:46Z</time>
</trkpt>
<trkpt lat="48.9798569586128" lon="9.579191990196705">
<ele>264.79999999999995</ele>
<time>2023-05-16T10:49:47Z</time>
</trkpt>
<trkpt lat="48.979844972491264" lon="9.579172963276505">
<ele>264.79999999999995</ele>
<time>2023-05-16T10:49:48Z</time>
</trkpt>
<trkpt lat="48.97983692586422" lon="9.579152930527925">
<ele>264.79999999999995</ele>
<time>2023-05-16T10:49:49Z</time>
</trkpt>
<trkpt lat="48.97981295362115" lon="9.579119989648461">
<ele>264.79999999999995</ele>
<time>2023-05-16T10:49:50Z</time>
</trkpt>
<trkpt lat="48.97982192225754" lon="9.57912191748619">
<ele>264.79999999999995</ele>
<time>2023-05-16T10:49:51Z</time>
</trkpt>
<trkpt lat="48.97982192225754" lon="9.579114960506558">
<ele>264.79999999999995</ele>
<time>2023-05-16T10:49:52Z</time>
</trkpt>
<trkpt lat="48.97982192225754" lon="9.579109931364655">
<ele>264.79999999999995</ele>
<time>2023-05-16T10:49:53Z</time>
</trkpt>
<trkpt lat="48.979911943897605" lon="9.579072967171669">
<ele>264.6</ele>
<time>2023-05-16T10:49:56Z</time>
</trkpt>
<trkpt lat="48.979912949725986" lon="9.579101968556643">
<ele>264.6</ele>
<time>2023-05-16T10:49:57Z</time>
</trkpt>
<trkpt lat="48.97991697303951" lon="9.57909794524312">
<ele>264.6</ele>
<time>2023-05-16T10:49:58Z</time>
</trkpt>
<trkpt lat="48.97991797886789" lon="9.57909794524312">
<ele>264.6</ele>
<time>2023-05-16T10:49:59Z</time>
</trkpt>
<trkpt lat="48.97991797886789" lon="9.579089982435107">
<ele>264.6</ele>
<time>2023-05-16T10:50:00Z</time>
</trkpt>
<trkpt lat="48.97991797886789" lon="9.579081935808063">
<ele>264.6</ele>
<time>2023-05-16T10:50:01Z</time>
</trkpt>
<trkpt lat="48.97991496138275" lon="9.579077996313572">
<ele>264.6</ele>
<time>2023-05-16T10:50:02Z</time>
</trkpt>
<trkpt lat="48.97990498691797" lon="9.579072967171669">
<ele>264.6</ele>
<time>2023-05-16T10:50:03Z</time>
</trkpt>
<trkpt lat="48.979912949725986" lon="9.579064920544624">
<ele>264.6</ele>
<time>2023-05-16T10:50:04Z</time>
</trkpt>
<trkpt lat="48.97992292419076" lon="9.579061986878514">
<ele>264.6</ele>
<time>2023-05-16T10:50:05Z</time>
</trkpt>
<trkpt lat="48.97992292419076" lon="9.579019993543625">
<ele>264.6</ele>
<time>2023-05-16T10:50:06Z</time>
</trkpt>
<trkpt lat="48.97992795333266" lon="9.579002978280187">
<ele>264.6</ele>
<time>2023-05-16T10:50:07Z</time>
</trkpt>
<trkpt lat="48.979936921969056" lon="9.57898797467351">
<ele>264.6</ele>
<time>2023-05-16T10:50:08Z</time>
</trkpt>
<trkpt lat="48.979949997738004" lon="9.57898998633027">
<ele>264.6</ele>
<time>2023-05-16T10:50:09Z</time>
</trkpt>
<trkpt lat="48.97994798608124" lon="9.578997949138284">
<ele>264.6</ele>
<time>2023-05-16T10:50:10Z</time>
</trkpt>
<trkpt lat="48.97994698025286" lon="9.579006917774677">
<ele>264.6</ele>
<time>2023-05-16T10:50:11Z</time>
</trkpt>
<trkpt lat="48.97994798608124" lon="9.579017981886864">
<ele>264.6</ele>
<time>2023-05-16T10:50:12Z</time>
</trkpt>
<trkpt lat="48.979949997738004" lon="9.579039942473173">
<ele>264.6</ele>
<time>2023-05-16T10:50:13Z</time>
</trkpt>
<trkpt lat="48.97993792779744" lon="9.579082941636443">
<ele>264.6</ele>
<time>2023-05-16T10:50:14Z</time>
</trkpt>
<trkpt lat="48.97992292419076" lon="9.579114960506558">
<ele>264.6</ele>
<time>2023-05-16T10:50:15Z</time>
</trkpt>
<trkpt lat="48.979936921969056" lon="9.57913993857801">
<ele>264.6</ele>
<time>2023-05-16T10:50:16Z</time>
</trkpt>
<trkpt lat="48.97992191836238" lon="9.57912191748619">
<ele>264.6</ele>
<time>2023-05-16T10:50:17Z</time>
</trkpt>
<trkpt lat="48.97992292419076" lon="9.579129964113235">
<ele>264.6</ele>
<time>2023-05-16T10:50:19Z</time>
</trkpt>
<trkpt lat="48.97992292419076" lon="9.579134993255138">
<ele>264.6</ele>
<time>2023-05-16T10:50:20Z</time>
</trkpt>
<trkpt lat="48.97991797886789" lon="9.579137926921248">
<ele>264.6</ele>
<time>2023-05-16T10:50:21Z</time>
</trkpt>
<trkpt lat="48.979911943897605" lon="9.579144967719913">
<ele>264.6</ele>
<time>2023-05-16T10:50:22Z</time>
</trkpt>
<trkpt lat="48.979912949725986" lon="9.579154942184687">
<ele>264.6</ele>
<time>2023-05-16T10:50:23Z</time>
</trkpt>
<trkpt lat="48.97991496138275" lon="9.579149996861815">
<ele>264.6</ele>
<time>2023-05-16T10:50:24Z</time>
</trkpt>
<trkpt lat="48.97991797886789" lon="9.579147985205054">
<ele>264.6</ele>
<time>2023-05-16T10:50:25Z</time>
</trkpt>
<trkpt lat="48.97992292419076" lon="9.579151924699545">
<ele>264.6</ele>
<time>2023-05-16T10:50:26Z</time>
</trkpt>
<trkpt lat="48.97995796054602" lon="9.579172963276505">
<ele>264.4</ele>
<time>2023-05-16T10:50:26Z</time>
</trkpt>
<trkpt lat="48.97996298968792" lon="9.579174974933267">
<ele>264.4</ele>
<time>2023-05-16T10:50:27Z</time>
</trkpt>
<trkpt lat="48.97995192557573" lon="9.579176986590028">
<ele>264.4</ele>
<time>2023-05-16T10:50:28Z</time>
</trkpt>
<trkpt lat="48.97994195111096" lon="9.579162988811731">
<ele>264.4</ele>
<time>2023-05-16T10:50:29Z</time>
</trkpt>
<trkpt lat="48.979932982474566" lon="9.57916491664946">
<ele>264.4</ele>
<time>2023-05-16T10:50:30Z</time>
</trkpt>
<trkpt lat="48.97991496138275" lon="9.579186961054802">
<ele>264.4</ele>
<time>2023-05-16T10:50:31Z</time>
</trkpt>
<trkpt lat="48.97990792058408" lon="9.579186961054802">
<ele>264.4</ele>
<time>2023-05-16T10:50:32Z</time>
</trkpt>
<trkpt lat="48.97990297526121" lon="9.579199953004718">
<ele>264.4</ele>
<time>2023-05-16T10:50:33Z</time>
</trkpt>
<trkpt lat="48.97989794611931" lon="9.579206993803382">
<ele>264.4</ele>
<time>2023-05-16T10:50:34Z</time>
</trkpt>
<trkpt lat="48.97992694750428" lon="9.579176986590028">
<ele>264.4</ele>
<time>2023-05-16T10:50:35Z</time>
</trkpt>
<trkpt lat="48.97991697303951" lon="9.579171957448125">
<ele>264.4</ele>
<time>2023-05-16T10:50:36Z</time>
</trkpt>
<trkpt lat="48.979909932240844" lon="9.579171957448125">
<ele>264.4</ele>
<time>2023-05-16T10:50:37Z</time>
</trkpt>
<trkpt lat="48.979906998574734" lon="9.579177992418408">
<ele>264.4</ele>
<time>2023-05-16T10:50:38Z</time>
</trkpt>
<trkpt lat="48.979906998574734" lon="9.57918494939804">
<ele>264.4</ele>
<time>2023-05-16T10:50:39Z</time>
</trkpt>
<trkpt lat="48.979909932240844" lon="9.579186961054802">
<ele>264.4</ele>
<time>2023-05-16T10:50:40Z</time>
</trkpt>
<trkpt lat="48.97991697303951" lon="9.579197941347957">
<ele>264.4</ele>
<time>2023-05-16T10:50:41Z</time>
</trkpt>
<trkpt lat="48.979932982474566" lon="9.579151924699545">
<ele>264.4</ele>
<time>2023-05-16T10:50:42Z</time>
</trkpt>
<trkpt lat="48.97993499413133" lon="9.57912191748619">
<ele>264.4</ele>
<time>2023-05-16T10:50:43Z</time>
</trkpt>
<trkpt lat="48.979936921969056" lon="9.579091994091868">
<ele>264.4</ele>
<time>2023-05-16T10:50:44Z</time>
</trkpt>
<trkpt lat="48.97993792779744" lon="9.57909794524312">
<ele>264.4</ele>
<time>2023-05-16T10:50:45Z</time>
</trkpt>
<trkpt lat="48.97993499413133" lon="9.579101968556643">
<ele>264.4</ele>
<time>2023-05-16T10:50:46Z</time>
</trkpt>
<trkpt lat="48.97992694750428" lon="9.579104986041784">
<ele>264.4</ele>
<time>2023-05-16T10:50:47Z</time>
</trkpt>
<trkpt lat="48.97991797886789" lon="9.57911697216332">
<ele>264.4</ele>
<time>2023-05-16T10:50:48Z</time>
</trkpt>
<trkpt lat="48.97991697303951" lon="9.579126946628094">
<ele>264.4</ele>
<time>2023-05-16T10:50:49Z</time>
</trkpt>
<trkpt lat="48.979911943897605" lon="9.579132981598377">
<ele>264.4</ele>
<time>2023-05-16T10:50:50Z</time>
</trkpt>
<trkpt lat="48.97990792058408" lon="9.579131975769997">
<ele>264.4</ele>
<time>2023-05-16T10:50:51Z</time>
</trkpt>
<trkpt lat="48.97990297526121" lon="9.579142956063151">
<ele>264.4</ele>
<time>2023-05-16T10:50:52Z</time>
</trkpt>
<trkpt lat="48.979892916977406" lon="9.579157959669828">
<ele>264.4</ele>
<time>2023-05-16T10:50:53Z</time>
</trkpt>
<trkpt lat="48.97987799718976" lon="9.579174974933267">
<ele>264.4</ele>
<time>2023-05-16T10:50:54Z</time>
</trkpt>
<trkpt lat="48.979886965826154" lon="9.579152930527925">
<ele>264.4</ele>
<time>2023-05-16T10:50:55Z</time>
</trkpt>
<trkpt lat="48.97988294251263" lon="9.579149996861815">
<ele>264.4</ele>
<time>2023-05-16T10:50:56Z</time>
</trkpt>
<trkpt lat="48.97988294251263" lon="9.579146979376674">
<ele>264.4</ele>
<time>2023-05-16T10:50:57Z</time>
</trkpt>
<trkpt lat="48.97987497970462" lon="9.57913993857801">
<ele>264.4</ele>
<time>2023-05-16T10:50:58Z</time>
</trkpt>
<trkpt lat="48.97987497970462" lon="9.579132981598377">
<ele>264.4</ele>
<time>2023-05-16T10:50:59Z</time>
</trkpt>
<trkpt lat="48.97987497970462" lon="9.579126946628094">
<ele>264.4</ele>
<time>2023-05-16T10:51:00Z</time>
</trkpt>
<trkpt lat="48.979866933077574" lon="9.579129964113235">
<ele>264.4</ele>
<time>2023-05-16T10:51:01Z</time>
</trkpt>
<trkpt lat="48.9798619877547" lon="9.579131975769997">
<ele>264.4</ele>
<time>2023-05-16T10:51:02Z</time>
</trkpt>
<trkpt lat="48.97986492142081" lon="9.579142956063151">
<ele>264.4</ele>
<time>2023-05-16T10:51:04Z</time>
</trkpt>
<trkpt lat="48.979866933077574" lon="9.579136921092868">
<ele>264.4</ele>
<time>2023-05-16T10:51:05Z</time>
</trkpt>
<trkpt lat="48.97987196221948" lon="9.57913993857801">
<ele>264.4</ele>
<time>2023-05-16T10:51:06Z</time>
</trkpt>
<trkpt lat="48.979869950562716" lon="9.579154942184687">
<ele>264.4</ele>
<time>2023-05-16T10:51:07Z</time>
</trkpt>
<trkpt lat="48.97988495416939" lon="9.579166928306222">
<ele>264.4</ele>
<time>2023-05-16T10:51:08Z</time>
</trkpt>
<trkpt lat="48.97988495416939" lon="9.57918293774128">
<ele>264.4</ele>
<time>2023-05-16T10:51:09Z</time>
</trkpt>
<trkpt lat="48.97987699136138" lon="9.57920297048986">
<ele>264.4</ele>
<time>2023-05-16T10:51:10Z</time>
</trkpt>
<trkpt lat="48.97987296804786" lon="9.579206993803382">
<ele>264.4</ele>
<time>2023-05-16T10:51:11Z</time>
</trkpt>
<trkpt lat="48.97983298636973" lon="9.579217974096537">
<ele>264.4</ele>
<time>2023-05-16T10:51:12Z</time>
</trkpt>
<trkpt lat="48.97981295362115" lon="9.57922694273293">
<ele>264.4</ele>
<time>2023-05-16T10:51:13Z</time>
</trkpt>
<trkpt lat="48.979804990813136" lon="9.57922794856131">
<ele>264.4</ele>
<time>2023-05-16T10:51:14Z</time>
</trkpt>
<trkpt lat="48.97977498359978" lon="9.579241946339607">
<ele>264.4</ele>
<time>2023-05-16T10:51:15Z</time>
</trkpt>
<trkpt lat="48.9797549508512" lon="9.579252926632762">
<ele>264.4</ele>
<time>2023-05-16T10:51:16Z</time>
</trkpt>
<trkpt lat="48.97974296472967" lon="9.579256949946284">
<ele>264.4</ele>
<time>2023-05-16T10:51:17Z</time>
</trkpt>
<trkpt lat="48.97972293198109" lon="9.579262984916568">
<ele>264.4</ele>
<time>2023-05-16T10:51:18Z</time>
</trkpt>
<trkpt lat="48.97971999831498" lon="9.579272959381342">
<ele>264.4</ele>
<time>2023-05-16T10:51:19Z</time>
</trkpt>
<trkpt lat="48.979717986658216" lon="9.579277988523245">
<ele>264.4</ele>
<time>2023-05-16T10:51:20Z</time>
</trkpt>
<trkpt lat="48.97972494363785" lon="9.579274971038103">
<ele>264.4</ele>
<time>2023-05-16T10:51:21Z</time>
</trkpt>
<trkpt lat="48.97975193336606" lon="9.579266924411058">
<ele>264.4</ele>
<time>2023-05-16T10:51:22Z</time>
</trkpt>
<trkpt lat="48.979741958901286" lon="9.579271953552961">
<ele>264.4</ele>
<time>2023-05-16T10:51:23Z</time>
</trkpt>
<trkpt lat="48.979757968336344" lon="9.579254938289523">
<ele>264.4</ele>
<time>2023-05-16T10:51:24Z</time>
</trkpt>
<trkpt lat="48.979764925315976" lon="9.579254938289523">
<ele>264.4</ele>
<time>2023-05-16T10:51:25Z</time>
</trkpt>
<trkpt lat="48.97977992892265" lon="9.57924697548151">
<ele>264.4</ele>
<time>2023-05-16T10:51:26Z</time>
</trkpt>
<trkpt lat="48.97979199886322" lon="9.579236917197704">
<ele>264.4</ele>
<time>2023-05-16T10:51:27Z</time>
</trkpt>
<trkpt lat="48.979801973327994" lon="9.579232977703214">
<ele>264.4</ele>
<time>2023-05-16T10:51:28Z</time>
</trkpt>
<trkpt lat="48.979802979156375" lon="9.579232977703214">
<ele>264.4</ele>
<time>2023-05-16T10:51:29Z</time>
</trkpt>
<trkpt lat="48.97985494695604" lon="9.57918293774128">
<ele>264.4</ele>
<time>2023-05-16T10:51:31Z</time>
</trkpt>
<trkpt lat="48.97987296804786" lon="9.579177992418408">
<ele>264.4</ele>
<time>2023-05-16T10:51:32Z</time>
</trkpt>
<trkpt lat="48.97989199496806" lon="9.579171957448125">
<ele>264.4</ele>
<time>2023-05-16T10:51:33Z</time>
</trkpt>
<trkpt lat="48.97990498691797" lon="9.57916198298335">
<ele>264.4</ele>
<time>2023-05-16T10:51:34Z</time>
</trkpt>
<trkpt lat="48.97991496138275" lon="9.579166928306222">
<ele>264.4</ele>
<time>2023-05-16T10:51:35Z</time>
</trkpt>
<trkpt lat="48.97990792058408" lon="9.579157959669828">
<ele>264.4</ele>
<time>2023-05-16T10:51:36Z</time>
</trkpt>
<trkpt lat="48.97991697303951" lon="9.579166928306222">
<ele>264.4</ele>
<time>2023-05-16T10:51:37Z</time>
</trkpt>
<trkpt lat="48.97992795333266" lon="9.579167934134603">
<ele>264.20000000000005</ele>
<time>2023-05-16T10:51:38Z</time>
</trkpt>
<trkpt lat="48.979931976646185" lon="9.579177992418408">
<ele>264.20000000000005</ele>
<time>2023-05-16T10:51:39Z</time>
</trkpt>
<trkpt lat="48.9799449685961" lon="9.579167934134603">
<ele>264.20000000000005</ele>
<time>2023-05-16T10:51:40Z</time>
</trkpt>
<trkpt lat="48.97996491752565" lon="9.579157959669828">
<ele>264.20000000000005</ele>
<time>2023-05-16T10:51:41Z</time>
</trkpt>
<trkpt lat="48.97998193278909" lon="9.579136921092868">
<ele>264.20000000000005</ele>
<time>2023-05-16T10:51:42Z</time>
</trkpt>
<trkpt lat="48.97998696193099" lon="9.579136921092868">
<ele>264.20000000000005</ele>
<time>2023-05-16T10:51:43Z</time>
</trkpt>
<trkpt lat="48.98000297136605" lon="9.579127952456474">
<ele>264.20000000000005</ele>
<time>2023-05-16T10:51:44Z</time>
</trkpt>
<trkpt lat="48.98001294583082" lon="9.579129964113235">
<ele>264.20000000000005</ele>
<time>2023-05-16T10:51:45Z</time>
</trkpt>
<trkpt lat="48.97996491752565" lon="9.579171957448125">
<ele>264.20000000000005</ele>
<time>2023-05-16T10:51:46Z</time>
</trkpt>
<trkpt lat="48.9799399394542" lon="9.579166928306222">
<ele>264.20000000000005</ele>
<time>2023-05-16T10:51:47Z</time>
</trkpt>
<trkpt lat="48.97993792779744" lon="9.579167934134603">
<ele>264.20000000000005</ele>
<time>2023-05-16T10:51:48Z</time>
</trkpt>
<trkpt lat="48.97994295693934" lon="9.579187966883183">
<ele>264.20000000000005</ele>
<time>2023-05-16T10:51:49Z</time>
</trkpt>
<trkpt lat="48.97994295693934" lon="9.579191990196705">
<ele>264.20000000000005</ele>
<time>2023-05-16T10:51:50Z</time>
</trkpt>
<trkpt lat="48.97994295693934" lon="9.579196935519576">
<ele>264.20000000000005</ele>
<time>2023-05-16T10:51:51Z</time>
</trkpt>
<trkpt lat="48.979932982474566" lon="9.57920297048986">
<ele>264.20000000000005</ele>
<time>2023-05-16T10:51:52Z</time>
</trkpt>
<trkpt lat="48.97993792779744" lon="9.57920498214662">
<ele>264.20000000000005</ele>
<time>2023-05-16T10:51:53Z</time>
</trkpt>
<trkpt lat="48.979932982474566" lon="9.579201964661479">
<ele>264.20000000000005</ele>
<time>2023-05-16T10:51:54Z</time>
</trkpt>
<trkpt lat="48.97992191836238" lon="9.57920498214662">
<ele>264.20000000000005</ele>
<time>2023-05-16T10:51:55Z</time>
</trkpt>
<trkpt lat="48.97992694750428" lon="9.579211939126253">
<ele>264.20000000000005</ele>
<time>2023-05-16T10:51:56Z</time>
</trkpt>
<trkpt lat="48.97993499413133" lon="9.579216968268156">
<ele>264.20000000000005</ele>
<time>2023-05-16T10:51:57Z</time>
</trkpt>
<trkpt lat="48.979949997738004" lon="9.579211939126253">
<ele>264.20000000000005</ele>
<time>2023-05-16T10:51:58Z</time>
</trkpt>
<trkpt lat="48.979952931404114" lon="9.579217974096537">
<ele>264.20000000000005</ele>
<time>2023-05-16T10:51:59Z</time>
</trkpt>
<trkpt lat="48.97995997220278" lon="9.579212944954634">
<ele>264.20000000000005</ele>
<time>2023-05-16T10:52:00Z</time>
</trkpt>
<trkpt lat="48.97996994666755" lon="9.579214956611395">
<ele>264.20000000000005</ele>
<time>2023-05-16T10:52:01Z</time>
</trkpt>
<trkpt lat="48.97994798608124" lon="9.579199953004718">
<ele>264.20000000000005</ele>
<time>2023-05-16T10:52:02Z</time>
</trkpt>
<trkpt lat="48.979949997738004" lon="9.579199953004718">
<ele>264.20000000000005</ele>
<time>2023-05-16T10:52:03Z</time>
</trkpt>
<trkpt lat="48.979952931404114" lon="9.579192996025085">
<ele>264.20000000000005</ele>
<time>2023-05-16T10:52:04Z</time>
</trkpt>
<trkpt lat="48.979954943060875" lon="9.579192996025085">
<ele>264.20000000000005</ele>
<time>2023-05-16T10:52:05Z</time>
</trkpt>
<trkpt lat="48.97996198385954" lon="9.57918494939804">
<ele>264.20000000000005</ele>
<time>2023-05-16T10:52:06Z</time>
</trkpt>
<trkpt lat="48.979956954717636" lon="9.579179920256138">
<ele>264.20000000000005</ele>
<time>2023-05-16T10:52:07Z</time>
</trkpt>
<trkpt lat="48.97996198385954" lon="9.579189978539944">
<ele>264.20000000000005</ele>
<time>2023-05-16T10:52:08Z</time>
</trkpt>
<trkpt lat="48.97998293861747" lon="9.579191990196705">
<ele>264.20000000000005</ele>
<time>2023-05-16T10:52:09Z</time>
</trkpt>
<trkpt lat="48.980016969144344" lon="9.579154942184687">
<ele>264.20000000000005</ele>
<time>2023-05-16T10:52:10Z</time>
</trkpt>
<trkpt lat="48.98003691807389" lon="9.579154942184687">
<ele>264.20000000000005</ele>
<time>2023-05-16T10:52:11Z</time>
</trkpt>
<trkpt lat="48.9799779932946" lon="9.579192996025085">
<ele>264.20000000000005</ele>
<time>2023-05-16T10:52:12Z</time>
</trkpt>
<trkpt lat="48.97999199107289" lon="9.579179920256138">
<ele>264.20000000000005</ele>
<time>2023-05-16T10:52:13Z</time>
</trkpt>
<trkpt lat="48.97999199107289" lon="9.579174974933267">
<ele>264.20000000000005</ele>
<time>2023-05-16T10:52:14Z</time>
</trkpt>
<trkpt lat="48.97998796775937" lon="9.57916198298335">
<ele>264.20000000000005</ele>
<time>2023-05-16T10:52:15Z</time>
</trkpt>
<trkpt lat="48.97999199107289" lon="9.579156953841448">
<ele>264.20000000000005</ele>
<time>2023-05-16T10:52:16Z</time>
</trkpt>
<trkpt lat="48.98000992834568" lon="9.579144967719913">
<ele>264.20000000000005</ele>
<time>2023-05-16T10:52:17Z</time>
</trkpt>
<trkpt lat="48.98002996109426" lon="9.579132981598377">
<ele>264.20000000000005</ele>
<time>2023-05-16T10:52:18Z</time>
</trkpt>
<trkpt lat="48.98003499023616" lon="9.579124934971333">
<ele>264.20000000000005</ele>
<time>2023-05-16T10:52:19Z</time>
</trkpt>
<trkpt lat="48.98002996109426" lon="9.579129964113235">
<ele>264.20000000000005</ele>
<time>2023-05-16T10:52:20Z</time>
</trkpt>
<trkpt lat="48.980022920295596" lon="9.579122923314571">
<ele>264.20000000000005</ele>
<time>2023-05-16T10:52:21Z</time>
</trkpt>
<trkpt lat="48.98002493195236" lon="9.57911697216332">
<ele>264.20000000000005</ele>
<time>2023-05-16T10:52:22Z</time>
</trkpt>
<trkpt lat="48.98001294583082" lon="9.579114960506558">
<ele>264.20000000000005</ele>
<time>2023-05-16T10:52:23Z</time>
</trkpt>
<trkpt lat="48.98000791668892" lon="9.5791179779917">
<ele>264.20000000000005</ele>
<time>2023-05-16T10:52:25Z</time>
</trkpt>
<trkpt lat="48.98000498302281" lon="9.57911697216332">
<ele>264.20000000000005</ele>
<time>2023-05-16T10:52:26Z</time>
</trkpt>
<trkpt lat="48.98000498302281" lon="9.579111943021417">
<ele>264.20000000000005</ele>
<time>2023-05-16T10:52:27Z</time>
</trkpt>
<trkpt lat="48.98004496470094" lon="9.579082941636443">
<ele>264.20000000000005</ele>
<time>2023-05-16T10:52:28Z</time>
</trkpt>
<trkpt lat="48.9800969325006" lon="9.579052934423089">
<ele>264.20000000000005</ele>
<time>2023-05-16T10:52:29Z</time>
</trkpt>
<trkpt lat="48.98014294914901" lon="9.57901295274496">
<ele>264.20000000000005</ele>
<time>2023-05-16T10:52:30Z</time>
</trkpt>
<trkpt lat="48.98017798550427" lon="9.578972971066833">
<ele>264.20000000000005</ele>
<time>2023-05-16T10:52:31Z</time>
</trkpt>
<trkpt lat="48.98017798550427" lon="9.578931983560324">
<ele>264.20000000000005</ele>
<time>2023-05-16T10:52:32Z</time>
</trkpt>
<trkpt lat="48.98016692139208" lon="9.57892695441842">
<ele>264.20000000000005</ele>
<time>2023-05-16T10:52:33Z</time>
</trkpt>
<trkpt lat="48.980169938877225" lon="9.578934917226434">
<ele>264.20000000000005</ele>
<time>2023-05-16T10:52:34Z</time>
</trkpt>
<trkpt lat="48.98016692139208" lon="9.578937934711576">
<ele>264.20000000000005</ele>
<time>2023-05-16T10:52:35Z</time>
</trkpt>
<trkpt lat="48.98015795275569" lon="9.578951932489872">
<ele>264.20000000000005</ele>
<time>2023-05-16T10:52:36Z</time>
</trkpt>
<trkpt lat="48.980164993554354" lon="9.578947992995381">
<ele>264.20000000000005</ele>
<time>2023-05-16T10:52:37Z</time>
</trkpt>
<trkpt lat="48.98016298189759" lon="9.578951932489872">
<ele>264.20000000000005</ele>
<time>2023-05-16T10:52:38Z</time>
</trkpt>
<trkpt lat="48.98016692139208" lon="9.578956961631775">
<ele>264.20000000000005</ele>
<time>2023-05-16T10:52:39Z</time>
</trkpt>
<trkpt lat="48.98013792000711" lon="9.578974982723594">
<ele>264.20000000000005</ele>
<time>2023-05-16T10:52:40Z</time>
</trkpt>
<trkpt lat="48.98013297468424" lon="9.578984957188368">
<ele>264.20000000000005</ele>
<time>2023-05-16T10:52:41Z</time>
</trkpt>
<trkpt lat="48.98011495359242" lon="9.578951932489872">
<ele>264.20000000000005</ele>
<time>2023-05-16T10:52:42Z</time>
</trkpt>
<trkpt lat="48.9800969325006" lon="9.578912956640124">
<ele>264.20000000000005</ele>
<time>2023-05-16T10:52:43Z</time>
</trkpt>
<trkpt lat="48.98005795665085" lon="9.57890298217535">
<ele>264.20000000000005</ele>
<time>2023-05-16T10:52:44Z</time>
</trkpt>
<trkpt lat="48.980019986629486" lon="9.578937934711576">
<ele>264.20000000000005</ele>
<time>2023-05-16T10:52:45Z</time>
</trkpt>
<trkpt lat="48.98001294583082" lon="9.578941958025098">
<ele>264.20000000000005</ele>
<time>2023-05-16T10:52:46Z</time>
</trkpt>
<trkpt lat="48.979997942224145" lon="9.578946987167">
<ele>264.20000000000005</ele>
<time>2023-05-16T10:52:47Z</time>
</trkpt>
<trkpt lat="48.979997942224145" lon="9.578954949975014">
<ele>264.20000000000005</ele>
<time>2023-05-16T10:52:48Z</time>
</trkpt>
<trkpt lat="48.979999953880906" lon="9.578951932489872">
<ele>264.20000000000005</ele>
<time>2023-05-16T10:52:49Z</time>
</trkpt>
<trkpt lat="48.97998696193099" lon="9.578961990773678">
<ele>264.20000000000005</ele>
<time>2023-05-16T10:52:50Z</time>
</trkpt>
<trkpt lat="48.97998293861747" lon="9.578964924439788">
<ele>264.20000000000005</ele>
<time>2023-05-16T10:52:51Z</time>
</trkpt>
<trkpt lat="48.9799779932946" lon="9.578966936096549">
<ele>264.20000000000005</ele>
<time>2023-05-16T10:52:52Z</time>
</trkpt>
<trkpt lat="48.97996793501079" lon="9.578979928046465">
<ele>264.20000000000005</ele>
<time>2023-05-16T10:52:53Z</time>
</trkpt>
<trkpt lat="48.979974975809455" lon="9.57898797467351">
<ele>264.20000000000005</ele>
<time>2023-05-16T10:52:54Z</time>
</trkpt>
<trkpt lat="48.97998997941613" lon="9.579017981886864">
<ele>264.20000000000005</ele>
<time>2023-05-16T10:52:55Z</time>
</trkpt>
<trkpt lat="48.97998696193099" lon="9.579017981886864">
<ele>264.20000000000005</ele>
<time>2023-05-16T10:52:56Z</time>
</trkpt>
<trkpt lat="48.979976987466216" lon="9.579021921381354">
<ele>264.20000000000005</ele>
<time>2023-05-16T10:52:57Z</time>
</trkpt>
<trkpt lat="48.97998193278909" lon="9.579021921381354">
<ele>264.20000000000005</ele>
<time>2023-05-16T10:52:58Z</time>
</trkpt>
<trkpt lat="48.97998193278909" lon="9.579029968008399">
<ele>264.20000000000005</ele>
<time>2023-05-16T10:52:59Z</time>
</trkpt>
<trkpt lat="48.9799779932946" lon="9.578979928046465">
<ele>264.20000000000005</ele>
<time>2023-05-16T10:53:00Z</time>
</trkpt>
<trkpt lat="48.979976987466216" lon="9.578986968845129">
<ele>264.20000000000005</ele>
<time>2023-05-16T10:53:01Z</time>
</trkpt>
<trkpt lat="48.97995997220278" lon="9.578999960795045">
<ele>264.20000000000005</ele>
<time>2023-05-16T10:53:02Z</time>
</trkpt>
<trkpt lat="48.979954943060875" lon="9.579002978280187">
<ele>264.20000000000005</ele>
<time>2023-05-16T10:53:03Z</time>
</trkpt>
<trkpt lat="48.9799449685961" lon="9.578962996602058">
<ele>264.20000000000005</ele>
<time>2023-05-16T10:53:04Z</time>
</trkpt>
<trkpt lat="48.97993499413133" lon="9.578957967460155">
<ele>264.20000000000005</ele>
<time>2023-05-16T10:53:05Z</time>
</trkpt>
<trkpt lat="48.97992795333266" lon="9.578956961631775">
<ele>264.20000000000005</ele>
<time>2023-05-16T10:53:06Z</time>
</trkpt>
<trkpt lat="48.97992694750428" lon="9.578964924439788">
<ele>264.20000000000005</ele>
<time>2023-05-16T10:53:07Z</time>
</trkpt>
<trkpt lat="48.97991999052465" lon="9.578972971066833">
<ele>264.20000000000005</ele>
<time>2023-05-16T10:53:08Z</time>
</trkpt>
<trkpt lat="48.97991697303951" lon="9.578981939703226">
<ele>264.20000000000005</ele>
<time>2023-05-16T10:53:09Z</time>
</trkpt>
<trkpt lat="48.979889983311296" lon="9.579017981886864">
<ele>264.20000000000005</ele>
<time>2023-05-16T10:53:12Z</time>
</trkpt>
<trkpt lat="48.979886965826154" lon="9.57903298549354">
<ele>264.20000000000005</ele>
<time>2023-05-16T10:53:13Z</time>
</trkpt>
<trkpt lat="48.97987799718976" lon="9.579046983271837">
<ele>264.20000000000005</ele>
<time>2023-05-16T10:53:14Z</time>
</trkpt>
<trkpt lat="48.97987799718976" lon="9.579057963564992">
<ele>264.20000000000005</ele>
<time>2023-05-16T10:53:15Z</time>
</trkpt>
<trkpt lat="48.979892916977406" lon="9.579087970778346">
<ele>264.20000000000005</ele>
<time>2023-05-16T10:53:16Z</time>
</trkpt>
<trkpt lat="48.97990196943283" lon="9.579101968556643">
<ele>264.20000000000005</ele>
<time>2023-05-16T10:53:17Z</time>
</trkpt>
<trkpt lat="48.97989694029093" lon="9.57909794524312">
<ele>264.20000000000005</ele>
<time>2023-05-16T10:53:18Z</time>
</trkpt>
<trkpt lat="48.97991697303951" lon="9.579112948849797">
<ele>264.20000000000005</ele>
<time>2023-05-16T10:53:19Z</time>
</trkpt>
<trkpt lat="48.97992292419076" lon="9.579127952456474">
<ele>264.20000000000005</ele>
<time>2023-05-16T10:53:20Z</time>
</trkpt>
<trkpt lat="48.97992493584752" lon="9.579142956063151">
<ele>264.20000000000005</ele>
<time>2023-05-16T10:53:21Z</time>
</trkpt>
<trkpt lat="48.97992694750428" lon="9.579154942184687">
<ele>264.20000000000005</ele>
<time>2023-05-16T10:53:22Z</time>
</trkpt>
<trkpt lat="48.97993499413133" lon="9.579176986590028">
<ele>264.20000000000005</ele>
<time>2023-05-16T10:53:23Z</time>
</trkpt>
<trkpt lat="48.9799449685961" lon="9.579257955774665">
<ele>264.20000000000005</ele>
<time>2023-05-16T10:53:24Z</time>
</trkpt>
<trkpt lat="48.97993792779744" lon="9.579297937452793">
<ele>264.20000000000005</ele>
<time>2023-05-16T10:53:25Z</time>
</trkpt>
<trkpt lat="48.979932982474566" lon="9.579322999343276">
<ele>264.20000000000005</ele>
<time>2023-05-16T10:53:26Z</time>
</trkpt>
<trkpt lat="48.979929964989424" lon="9.579334985464811">
<ele>264.20000000000005</ele>
<time>2023-05-16T10:53:27Z</time>
</trkpt>
<trkpt lat="48.97991999052465" lon="9.57933196797967">
<ele>264.20000000000005</ele>
<time>2023-05-16T10:53:28Z</time>
</trkpt>
<trkpt lat="48.97992694750428" lon="9.579346971586347">
<ele>264.20000000000005</ele>
<time>2023-05-16T10:53:29Z</time>
</trkpt>
<trkpt lat="48.97992694750428" lon="9.579372955486178">
<ele>264.20000000000005</ele>
<time>2023-05-16T10:53:30Z</time>
</trkpt>
<trkpt lat="48.97990196943283" lon="9.579396927729249">
<ele>264.20000000000005</ele>
<time>2023-05-16T10:53:31Z</time>
</trkpt>
<trkpt lat="48.97990498691797" lon="9.579401956871152">
<ele>264.20000000000005</ele>
<time>2023-05-16T10:53:32Z</time>
</trkpt>
<trkpt lat="48.97990498691797" lon="9.579404974356294">
<ele>264.20000000000005</ele>
<time>2023-05-16T10:53:33Z</time>
</trkpt>
<trkpt lat="48.979911943897605" lon="9.579411931335926">
<ele>264.20000000000005</ele>
<time>2023-05-16T10:53:34Z</time>
</trkpt>
<trkpt lat="48.97990792058408" lon="9.579416960477829">
<ele>264.20000000000005</ele>
<time>2023-05-16T10:53:35Z</time>
</trkpt>
<trkpt lat="48.97990297526121" lon="9.579429952427745">
<ele>264.20000000000005</ele>
<time>2023-05-16T10:53:36Z</time>
</trkpt>
<trkpt lat="48.97990196943283" lon="9.579432969912887">
<ele>264.20000000000005</ele>
<time>2023-05-16T10:53:37Z</time>
</trkpt>
<trkpt lat="48.979892916977406" lon="9.57941997796297">
<ele>264.20000000000005</ele>
<time>2023-05-16T10:53:38Z</time>
</trkpt>
<trkpt lat="48.979887971654534" lon="9.579379996284842">
<ele>264.20000000000005</ele>
<time>2023-05-16T10:53:39Z</time>
</trkpt>
<trkpt lat="48.97988294251263" lon="9.579342948272824">
<ele>264.20000000000005</ele>
<time>2023-05-16T10:53:40Z</time>
</trkpt>
<trkpt lat="48.97988495416939" lon="9.579319981858134">
<ele>264.20000000000005</ele>
<time>2023-05-16T10:53:41Z</time>
</trkpt>
<trkpt lat="48.97989492863417" lon="9.579309923574328">
<ele>264.20000000000005</ele>
<time>2023-05-16T10:53:42Z</time>
</trkpt>
<trkpt lat="48.979892916977406" lon="9.579274971038103">
<ele>264.20000000000005</ele>
<time>2023-05-16T10:53:43Z</time>
</trkpt>
<trkpt lat="48.97988495416939" lon="9.579239934682846">
<ele>264.20000000000005</ele>
<time>2023-05-16T10:53:44Z</time>
</trkpt>
<trkpt lat="48.979867938905954" lon="9.579192996025085">
<ele>264.20000000000005</ele>
<time>2023-05-16T10:53:46Z</time>
</trkpt>
<trkpt lat="48.979867938905954" lon="9.579196935519576">
<ele>264.20000000000005</ele>
<time>2023-05-16T10:53:47Z</time>
</trkpt>
<trkpt lat="48.97987699136138" lon="9.57920297048986">
<ele>264.20000000000005</ele>
<time>2023-05-16T10:53:48Z</time>
</trkpt>
<trkpt lat="48.979889983311296" lon="9.579221997410059">
<ele>264.20000000000005</ele>
<time>2023-05-16T10:53:49Z</time>
</trkpt>
<trkpt lat="48.97990297526121" lon="9.579232977703214">
<ele>264.20000000000005</ele>
<time>2023-05-16T10:53:50Z</time>
</trkpt>
<trkpt lat="48.979912949725986" lon="9.57924798130989">
<ele>264.20000000000005</ele>
<time>2023-05-16T10:53:51Z</time>
</trkpt>
<trkpt lat="48.97990498691797" lon="9.579251920804381">
<ele>264.20000000000005</ele>
<time>2023-05-16T10:53:53Z</time>
</trkpt>
<trkpt lat="48.97989492863417" lon="9.579254938289523">
<ele>264.20000000000005</ele>
<time>2023-05-16T10:53:54Z</time>
</trkpt>
<trkpt lat="48.979886965826154" lon="9.579237923026085">
<ele>264.20000000000005</ele>
<time>2023-05-16T10:53:55Z</time>
</trkpt>
<trkpt lat="48.97988294251263" lon="9.57922694273293">
<ele>264.20000000000005</ele>
<time>2023-05-16T10:53:56Z</time>
</trkpt>
<trkpt lat="48.97989199496806" lon="9.579224931076169">
<ele>264.20000000000005</ele>
<time>2023-05-16T10:53:57Z</time>
</trkpt>
<trkpt lat="48.97989694029093" lon="9.579234989359975">
<ele>264.20000000000005</ele>
<time>2023-05-16T10:53:58Z</time>
</trkpt>
<trkpt lat="48.97989995777607" lon="9.579242952167988">
<ele>264.20000000000005</ele>
<time>2023-05-16T10:53:59Z</time>
</trkpt>
<trkpt lat="48.97989794611931" lon="9.579244963824749">
<ele>264.20000000000005</ele>
<time>2023-05-16T10:54:00Z</time>
</trkpt>
<trkpt lat="48.97989794611931" lon="9.579232977703214">
<ele>264.20000000000005</ele>
<time>2023-05-16T10:54:01Z</time>
</trkpt>
<trkpt lat="48.97989199496806" lon="9.579217974096537">
<ele>264.20000000000005</ele>
<time>2023-05-16T10:54:02Z</time>
</trkpt>
<trkpt lat="48.979889983311296" lon="9.579191990196705">
<ele>264.20000000000005</ele>
<time>2023-05-16T10:54:03Z</time>
</trkpt>
<trkpt lat="48.97989694029093" lon="9.579171957448125">
<ele>264.20000000000005</ele>
<time>2023-05-16T10:54:04Z</time>
</trkpt>
<trkpt lat="48.97990196943283" lon="9.579146979376674">
<ele>264.20000000000005</ele>
<time>2023-05-16T10:54:05Z</time>
</trkpt>
<trkpt lat="48.97992292419076" lon="9.579119989648461">
<ele>264.20000000000005</ele>
<time>2023-05-16T10:54:06Z</time>
</trkpt>
<trkpt lat="48.97994798608124" lon="9.579084953293204">
<ele>264.4</ele>
<time>2023-05-16T10:54:07Z</time>
</trkpt>
<trkpt lat="48.97994195111096" lon="9.579056957736611">
<ele>264.4</ele>
<time>2023-05-16T10:54:08Z</time>
</trkpt>
<trkpt lat="48.97994798608124" lon="9.579061986878514">
<ele>264.4</ele>
<time>2023-05-16T10:54:09Z</time>
</trkpt>
<trkpt lat="48.97996298968792" lon="9.579064920544624">
<ele>264.4</ele>
<time>2023-05-16T10:54:10Z</time>
</trkpt>
<trkpt lat="48.97995997220278" lon="9.579066932201385">
<ele>264.4</ele>
<time>2023-05-16T10:54:11Z</time>
</trkpt>
<trkpt lat="48.97995997220278" lon="9.579064920544624">
<ele>264.4</ele>
<time>2023-05-16T10:54:12Z</time>
</trkpt>
<trkpt lat="48.97995192557573" lon="9.579071961343288">
<ele>264.4</ele>
<time>2023-05-16T10:54:13Z</time>
</trkpt>
<trkpt lat="48.9799449685961" lon="9.579084953293204">
<ele>264.4</ele>
<time>2023-05-16T10:54:14Z</time>
</trkpt>
<trkpt lat="48.97994295693934" lon="9.579089982435107">
<ele>264.4</ele>
<time>2023-05-16T10:54:15Z</time>
</trkpt>
<trkpt lat="48.97992694750428" lon="9.579079924151301">
<ele>264.4</ele>
<time>2023-05-16T10:54:16Z</time>
</trkpt>
<trkpt lat="48.97992191836238" lon="9.579081935808063">
<ele>264.4</ele>
<time>2023-05-16T10:54:17Z</time>
</trkpt>
<trkpt lat="48.97991697303951" lon="9.579091994091868">
<ele>264.4</ele>
<time>2023-05-16T10:54:18Z</time>
</trkpt>
<trkpt lat="48.979909932240844" lon="9.579102974385023">
<ele>264.4</ele>
<time>2023-05-16T10:54:19Z</time>
</trkpt>
<trkpt lat="48.97992493584752" lon="9.579304978251457">
<ele>264.20000000000005</ele>
<time>2023-05-16T10:54:24Z</time>
</trkpt>
<trkpt lat="48.97992191836238" lon="9.579309923574328">
<ele>264.20000000000005</ele>
<time>2023-05-16T10:54:25Z</time>
</trkpt>
<trkpt lat="48.97991999052465" lon="9.579316964372993">
<ele>264.20000000000005</ele>
<time>2023-05-16T10:54:26Z</time>
</trkpt>
<trkpt lat="48.97991999052465" lon="9.57931294105947">
<ele>264.20000000000005</ele>
<time>2023-05-16T10:54:28Z</time>
</trkpt>
<trkpt lat="48.97992292419076" lon="9.579319981858134">
<ele>264.20000000000005</ele>
<time>2023-05-16T10:54:29Z</time>
</trkpt>
<trkpt lat="48.97992292419076" lon="9.579327944666147">
<ele>264.20000000000005</ele>
<time>2023-05-16T10:54:30Z</time>
</trkpt>
<trkpt lat="48.97991496138275" lon="9.579314952716231">
<ele>264.20000000000005</ele>
<time>2023-05-16T10:54:31Z</time>
</trkpt>
<trkpt lat="48.97990297526121" lon="9.579309923574328">
<ele>264</ele>
<time>2023-05-16T10:54:32Z</time>
</trkpt>
<trkpt lat="48.97989199496806" lon="9.579306989908218">
<ele>264</ele>
<time>2023-05-16T10:54:33Z</time>
</trkpt>
<trkpt lat="48.97988193668425" lon="9.579292992129922">
<ele>264</ele>
<time>2023-05-16T10:54:34Z</time>
</trkpt>
<trkpt lat="48.97987196221948" lon="9.579284945502877">
<ele>264</ele>
<time>2023-05-16T10:54:35Z</time>
</trkpt>
<trkpt lat="48.979867938905954" lon="9.579277988523245">
<ele>264</ele>
<time>2023-05-16T10:54:36Z</time>
</trkpt>
<trkpt lat="48.97986299358308" lon="9.579256949946284">
<ele>264</ele>
<time>2023-05-16T10:54:37Z</time>
</trkpt>
<trkpt lat="48.9798569586128" lon="9.579242952167988">
<ele>264</ele>
<time>2023-05-16T10:54:38Z</time>
</trkpt>
<trkpt lat="48.97985494695604" lon="9.57922794856131">
<ele>264</ele>
<time>2023-05-16T10:54:39Z</time>
</trkpt>
<trkpt lat="48.979847989976406" lon="9.579196935519576">
<ele>264</ele>
<time>2023-05-16T10:54:42Z</time>
</trkpt>
<trkpt lat="48.979847989976406" lon="9.579174974933267">
<ele>264</ele>
<time>2023-05-16T10:54:43Z</time>
</trkpt>
<trkpt lat="48.979849917814136" lon="9.57914195023477">
<ele>264</ele>
<time>2023-05-16T10:54:44Z</time>
</trkpt>
<trkpt lat="48.979844972491264" lon="9.579112948849797">
<ele>264</ele>
<time>2023-05-16T10:54:45Z</time>
</trkpt>
<trkpt lat="48.979847989976406" lon="9.579137926921248">
<ele>264</ele>
<time>2023-05-16T10:54:46Z</time>
</trkpt>
<trkpt lat="48.9798379316926" lon="9.579136921092868">
<ele>264.20000000000005</ele>
<time>2023-05-16T10:54:49Z</time>
</trkpt>
<trkpt lat="48.97983692586422" lon="9.579149996861815">
<ele>264.20000000000005</ele>
<time>2023-05-16T10:54:50Z</time>
</trkpt>
<trkpt lat="48.97983499802649" lon="9.57914195023477">
<ele>264.20000000000005</ele>
<time>2023-05-16T10:54:51Z</time>
</trkpt>
<trkpt lat="48.979826951399446" lon="9.57912191748619">
<ele>264.20000000000005</ele>
<time>2023-05-16T10:54:53Z</time>
</trkpt>
<trkpt lat="48.979827957227826" lon="9.5791179779917">
<ele>264.20000000000005</ele>
<time>2023-05-16T10:54:55Z</time>
</trkpt>
<trkpt lat="48.979827957227826" lon="9.579112948849797">
<ele>264.20000000000005</ele>
<time>2023-05-16T10:54:56Z</time>
</trkpt>
<trkpt lat="48.979826951399446" lon="9.579082941636443">
<ele>264.20000000000005</ele>
<time>2023-05-16T10:54:57Z</time>
</trkpt>
<trkpt lat="48.979824939742684" lon="9.579076990485191">
<ele>264.20000000000005</ele>
<time>2023-05-16T10:54:58Z</time>
</trkpt>
<trkpt lat="48.979826951399446" lon="9.579077996313572">
<ele>264.20000000000005</ele>
<time>2023-05-16T10:54:59Z</time>
</trkpt>
<trkpt lat="48.979826951399446" lon="9.579091994091868">
<ele>264.20000000000005</ele>
<time>2023-05-16T10:55:00Z</time>
</trkpt>
<trkpt lat="48.979826951399446" lon="9.579082941636443">
<ele>264.20000000000005</ele>
<time>2023-05-16T10:55:01Z</time>
</trkpt>
<trkpt lat="48.97983298636973" lon="9.579079924151301">
<ele>264.20000000000005</ele>
<time>2023-05-16T10:55:02Z</time>
</trkpt>
<trkpt lat="48.979844972491264" lon="9.579077996313572">
<ele>264.20000000000005</ele>
<time>2023-05-16T10:55:03Z</time>
</trkpt>
<trkpt lat="48.9798569586128" lon="9.579086964949965">
<ele>264.20000000000005</ele>
<time>2023-05-16T10:55:04Z</time>
</trkpt>
<trkpt lat="48.97986299358308" lon="9.579094927757978">
<ele>264.20000000000005</ele>
<time>2023-05-16T10:55:05Z</time>
</trkpt>
<trkpt lat="48.979869950562716" lon="9.57909794524312">
<ele>264.20000000000005</ele>
<time>2023-05-16T10:55:06Z</time>
</trkpt>
<trkpt lat="48.97987497970462" lon="9.579099956899881">
<ele>264.20000000000005</ele>
<time>2023-05-16T10:55:07Z</time>
</trkpt>
<trkpt lat="48.97987992502749" lon="9.579107919707894">
<ele>264.20000000000005</ele>
<time>2023-05-16T10:55:08Z</time>
</trkpt>
<trkpt lat="48.97988193668425" lon="9.5791179779917">
<ele>264.20000000000005</ele>
<time>2023-05-16T10:55:09Z</time>
</trkpt>
<trkpt lat="48.979887971654534" lon="9.579119989648461">
<ele>264.20000000000005</ele>
<time>2023-05-16T10:55:10Z</time>
</trkpt>
<trkpt lat="48.979889983311296" lon="9.579131975769997">
<ele>264.20000000000005</ele>
<time>2023-05-16T10:55:11Z</time>
</trkpt>
<trkpt lat="48.979889983311296" lon="9.579134993255138">
<ele>264.20000000000005</ele>
<time>2023-05-16T10:55:12Z</time>
</trkpt>
<trkpt lat="48.97988495416939" lon="9.579136921092868">
<ele>264.20000000000005</ele>
<time>2023-05-16T10:55:13Z</time>
</trkpt>
<trkpt lat="48.97987799718976" lon="9.579146979376674">
<ele>264.20000000000005</ele>
<time>2023-05-16T10:55:14Z</time>
</trkpt>
<trkpt lat="48.97987196221948" lon="9.579154942184687">
<ele>264.20000000000005</ele>
<time>2023-05-16T10:55:15Z</time>
</trkpt>
<trkpt lat="48.97985997609794" lon="9.579154942184687">
<ele>264.20000000000005</ele>
<time>2023-05-16T10:55:16Z</time>
</trkpt>
<trkpt lat="48.979847989976406" lon="9.57915997132659">
<ele>264.20000000000005</ele>
<time>2023-05-16T10:55:17Z</time>
</trkpt>
<trkpt lat="48.979844972491264" lon="9.579156953841448">
<ele>264.20000000000005</ele>
<time>2023-05-16T10:55:18Z</time>
</trkpt>
<trkpt lat="48.979847989976406" lon="9.579151924699545">
<ele>264.20000000000005</ele>
<time>2023-05-16T10:55:19Z</time>
</trkpt>
<trkpt lat="48.97984195500612" lon="9.579144967719913">
<ele>264.20000000000005</ele>
<time>2023-05-16T10:55:20Z</time>
</trkpt>
<trkpt lat="48.9798429608345" lon="9.579144967719913">
<ele>264.20000000000005</ele>
<time>2023-05-16T10:55:21Z</time>
</trkpt>
<trkpt lat="48.97983994334936" lon="9.57914195023477">
<ele>264.20000000000005</ele>
<time>2023-05-16T10:55:22Z</time>
</trkpt>
<trkpt lat="48.97984195500612" lon="9.579142956063151">
<ele>264.20000000000005</ele>
<time>2023-05-16T10:55:23Z</time>
</trkpt>
<trkpt lat="48.9798379316926" lon="9.579147985205054">
<ele>264.20000000000005</ele>
<time>2023-05-16T10:55:24Z</time>
</trkpt>
<trkpt lat="48.9798429608345" lon="9.579299949109554">
<ele>264</ele>
<time>2023-05-16T10:55:24Z</time>
</trkpt>
<trkpt lat="48.97984195500612" lon="9.579284945502877">
<ele>264</ele>
<time>2023-05-16T10:55:25Z</time>
</trkpt>
<trkpt lat="48.979844972491264" lon="9.579279916360974">
<ele>264</ele>
<time>2023-05-16T10:55:26Z</time>
</trkpt>
<trkpt lat="48.979847989976406" lon="9.579277988523245">
<ele>264</ele>
<time>2023-05-16T10:55:27Z</time>
</trkpt>
<trkpt lat="48.9798519294709" lon="9.579272959381342">
<ele>264</ele>
<time>2023-05-16T10:55:28Z</time>
</trkpt>
<trkpt lat="48.97985293529928" lon="9.579271953552961">
<ele>264</ele>
<time>2023-05-16T10:55:29Z</time>
</trkpt>
<trkpt lat="48.97985997609794" lon="9.579067938029766">
<ele>264.20000000000005</ele>
<time>2023-05-16T10:55:29Z</time>
</trkpt>
<trkpt lat="48.97985494695604" lon="9.579062992706895">
<ele>264.20000000000005</ele>
<time>2023-05-16T10:55:30Z</time>
</trkpt>
<trkpt lat="48.9798429608345" lon="9.579064920544624">
<ele>264.20000000000005</ele>
<time>2023-05-16T10:55:31Z</time>
</trkpt>
<trkpt lat="48.97983692586422" lon="9.579062992706895">
<ele>264.20000000000005</ele>
<time>2023-05-16T10:55:32Z</time>
</trkpt>
<trkpt lat="48.97983298636973" lon="9.579057963564992">
<ele>264.20000000000005</ele>
<time>2023-05-16T10:55:33Z</time>
</trkpt>
<trkpt lat="48.97981496527791" lon="9.579042959958315">
<ele>264.20000000000005</ele>
<time>2023-05-16T10:55:34Z</time>
</trkpt>
<trkpt lat="48.979802979156375" lon="9.579044971615076">
<ele>264.20000000000005</ele>
<time>2023-05-16T10:55:35Z</time>
</trkpt>
<trkpt lat="48.979802979156375" lon="9.579052934423089">
<ele>264.20000000000005</ele>
<time>2023-05-16T10:55:36Z</time>
</trkpt>
<trkpt lat="48.979804990813136" lon="9.579067938029766">
<ele>264.20000000000005</ele>
<time>2023-05-16T10:55:37Z</time>
</trkpt>
<trkpt lat="48.97981194779277" lon="9.579077996313572">
<ele>264.20000000000005</ele>
<time>2023-05-16T10:55:38Z</time>
</trkpt>
<trkpt lat="48.97981295362115" lon="9.579082941636443">
<ele>264.20000000000005</ele>
<time>2023-05-16T10:55:39Z</time>
</trkpt>
<trkpt lat="48.97981194779277" lon="9.579087970778346">
<ele>264.20000000000005</ele>
<time>2023-05-16T10:55:40Z</time>
</trkpt>
<trkpt lat="48.97981999441981" lon="9.579099956899881">
<ele>264.20000000000005</ele>
<time>2023-05-16T10:55:41Z</time>
</trkpt>
<trkpt lat="48.979824939742684" lon="9.57909794524312">
<ele>264.20000000000005</ele>
<time>2023-05-16T10:55:42Z</time>
</trkpt>
<trkpt lat="48.979824939742684" lon="9.579099956899881">
<ele>264.20000000000005</ele>
<time>2023-05-16T10:55:43Z</time>
</trkpt>
<trkpt lat="48.97983994334936" lon="9.579101968556643">
<ele>264.20000000000005</ele>
<time>2023-05-16T10:55:44Z</time>
</trkpt>
<trkpt lat="48.979846984148026" lon="9.579106997698545">
<ele>264.20000000000005</ele>
<time>2023-05-16T10:55:45Z</time>
</trkpt>
<trkpt lat="48.97985494695604" lon="9.579104986041784">
<ele>264.20000000000005</ele>
<time>2023-05-16T10:55:46Z</time>
</trkpt>
<trkpt lat="48.97985796444118" lon="9.579104986041784">
<ele>264.20000000000005</ele>
<time>2023-05-16T10:55:47Z</time>
</trkpt>
<trkpt lat="48.97985796444118" lon="9.579106997698545">
<ele>264.20000000000005</ele>
<time>2023-05-16T10:55:48Z</time>
</trkpt>
<trkpt lat="48.97985796444118" lon="9.579112948849797">
<ele>264.20000000000005</ele>
<time>2023-05-16T10:55:49Z</time>
</trkpt>
<trkpt lat="48.97987799718976" lon="9.579144967719913">
<ele>264</ele>
<time>2023-05-16T10:55:49Z</time>
</trkpt>
<trkpt lat="48.97988294251263" lon="9.57913993857801">
<ele>264</ele>
<time>2023-05-16T10:55:50Z</time>
</trkpt>
<trkpt lat="48.97987992502749" lon="9.579129964113235">
<ele>264</ele>
<time>2023-05-16T10:55:51Z</time>
</trkpt>
<trkpt lat="48.97987992502749" lon="9.5791179779917">
<ele>264</ele>
<time>2023-05-16T10:55:52Z</time>
</trkpt>
<trkpt lat="48.97987497970462" lon="9.579107919707894">
<ele>264</ele>
<time>2023-05-16T10:55:53Z</time>
</trkpt>
<trkpt lat="48.979869950562716" lon="9.57909693941474">
<ele>264</ele>
<time>2023-05-16T10:55:54Z</time>
</trkpt>
<trkpt lat="48.979867938905954" lon="9.579089982435107">
<ele>264</ele>
<time>2023-05-16T10:55:55Z</time>
</trkpt>
<trkpt lat="48.979866933077574" lon="9.579094927757978">
<ele>264</ele>
<time>2023-05-16T10:55:56Z</time>
</trkpt>
<trkpt lat="48.9798619877547" lon="9.579084953293204">
<ele>264</ele>
<time>2023-05-16T10:55:57Z</time>
</trkpt>
<trkpt lat="48.97985494695604" lon="9.579072967171669">
<ele>264</ele>
<time>2023-05-16T10:55:58Z</time>
</trkpt>
<trkpt lat="48.979849917814136" lon="9.579056957736611">
<ele>264</ele>
<time>2023-05-16T10:55:59Z</time>
</trkpt>
<trkpt lat="48.9798429608345" lon="9.579042959958315">
<ele>264</ele>
<time>2023-05-16T10:56:00Z</time>
</trkpt>
<trkpt lat="48.9798379316926" lon="9.579002978280187">
<ele>264</ele>
<time>2023-05-16T10:56:01Z</time>
</trkpt>
<trkpt lat="48.97983499802649" lon="9.579001972451806">
<ele>264</ele>
<time>2023-05-16T10:56:02Z</time>
</trkpt>
<trkpt lat="48.9798379316926" lon="9.579002978280187">
<ele>264</ele>
<time>2023-05-16T10:56:03Z</time>
</trkpt>
<trkpt lat="48.9798569586128" lon="9.578977916389704">
<ele>264</ele>
<time>2023-05-16T10:56:04Z</time>
</trkpt>
<trkpt lat="48.97985494695604" lon="9.57896995358169">
<ele>264</ele>
<time>2023-05-16T10:56:05Z</time>
</trkpt>
<trkpt lat="48.979844972491264" lon="9.578961990773678">
<ele>264</ele>
<time>2023-05-16T10:56:06Z</time>
</trkpt>
<trkpt lat="48.97983499802649" lon="9.578957967460155">
<ele>264</ele>
<time>2023-05-16T10:56:07Z</time>
</trkpt>
<trkpt lat="48.97982192225754" lon="9.578961990773678">
<ele>264</ele>
<time>2023-05-16T10:56:08Z</time>
</trkpt>
<trkpt lat="48.97981999441981" lon="9.57896794192493">
<ele>264</ele>
<time>2023-05-16T10:56:09Z</time>
</trkpt>
<trkpt lat="48.97981496527791" lon="9.57896995358169">
<ele>264</ele>
<time>2023-05-16T10:56:10Z</time>
</trkpt>
<trkpt lat="48.97981295362115" lon="9.578976994380355">
<ele>264</ele>
<time>2023-05-16T10:56:11Z</time>
</trkpt>
<trkpt lat="48.979801973327994" lon="9.57894992083311">
<ele>264</ele>
<time>2023-05-16T10:56:12Z</time>
</trkpt>
<trkpt lat="48.979784958064556" lon="9.57892695441842">
<ele>264</ele>
<time>2023-05-16T10:56:13Z</time>
</trkpt>
<trkpt lat="48.97978696972132" lon="9.578931983560324">
<ele>264</ele>
<time>2023-05-16T10:56:14Z</time>
</trkpt>
<trkpt lat="48.979784958064556" lon="9.578939946368337">
<ele>264</ele>
<time>2023-05-16T10:56:15Z</time>
</trkpt>
<trkpt lat="48.97979292087257" lon="9.578959979116917">
<ele>264</ele>
<time>2023-05-16T10:56:16Z</time>
</trkpt>
<trkpt lat="48.97978696972132" lon="9.578941958025098">
<ele>264</ele>
<time>2023-05-16T10:56:17Z</time>
</trkpt>
<trkpt lat="48.97977196611464" lon="9.578932989388704">
<ele>264</ele>
<time>2023-05-16T10:56:18Z</time>
</trkpt>
<trkpt lat="48.97976995445788" lon="9.578947992995381">
<ele>264</ele>
<time>2023-05-16T10:56:19Z</time>
</trkpt>
<trkpt lat="48.979782946407795" lon="9.578979928046465">
<ele>264</ele>
<time>2023-05-16T10:56:20Z</time>
</trkpt>
<trkpt lat="48.9797549508512" lon="9.57901194691658">
<ele>264</ele>
<time>2023-05-16T10:56:21Z</time>
</trkpt>
<trkpt lat="48.9797499217093" lon="9.578999960795045">
<ele>264</ele>
<time>2023-05-16T10:56:22Z</time>
</trkpt>
<trkpt lat="48.97972997277975" lon="9.578979928046465">
<ele>264</ele>
<time>2023-05-16T10:56:23Z</time>
</trkpt>
<trkpt lat="48.97970692254603" lon="9.578979928046465">
<ele>264</ele>
<time>2023-05-16T10:56:24Z</time>
</trkpt>
<trkpt lat="48.9796999655664" lon="9.57898998633027">
<ele>264</ele>
<time>2023-05-16T10:56:25Z</time>
</trkpt>
<trkpt lat="48.97968797944486" lon="9.579006917774677">
<ele>264</ele>
<time>2023-05-16T10:56:26Z</time>
</trkpt>
<trkpt lat="48.97968999110162" lon="9.579007923603058">
<ele>264.20000000000005</ele>
<time>2023-05-16T10:56:27Z</time>
</trkpt>
<trkpt lat="48.97968496195972" lon="9.579014964401722">
<ele>264.20000000000005</ele>
<time>2023-05-16T10:56:28Z</time>
</trkpt>
<trkpt lat="48.97970692254603" lon="9.579024938866496">
<ele>264.20000000000005</ele>
<time>2023-05-16T10:56:29Z</time>
</trkpt>
<trkpt lat="48.97970792837441" lon="9.579024938866496">
<ele>264.20000000000005</ele>
<time>2023-05-16T10:56:30Z</time>
</trkpt>
<trkpt lat="48.97972494363785" lon="9.579014964401722">
<ele>264.20000000000005</ele>
<time>2023-05-16T10:56:31Z</time>
</trkpt>
<trkpt lat="48.97972796112299" lon="9.579014964401722">
<ele>264.20000000000005</ele>
<time>2023-05-16T10:56:32Z</time>
</trkpt>
<trkpt lat="48.97972494363785" lon="9.579009935259819">
<ele>264.20000000000005</ele>
<time>2023-05-16T10:56:33Z</time>
</trkpt>
<trkpt lat="48.97973198443651" lon="9.579004989936948">
<ele>264.20000000000005</ele>
<time>2023-05-16T10:56:34Z</time>
</trkpt>
<trkpt lat="48.97973491810262" lon="9.579001972451806">
<ele>264.20000000000005</ele>
<time>2023-05-16T10:56:35Z</time>
</trkpt>
<trkpt lat="48.97973692975938" lon="9.57901194691658">
<ele>264.20000000000005</ele>
<time>2023-05-16T10:56:36Z</time>
</trkpt>
<trkpt lat="48.97974497638643" lon="9.579007923603058">
<ele>264.20000000000005</ele>
<time>2023-05-16T10:56:37Z</time>
</trkpt>
<trkpt lat="48.97976995445788" lon="9.579016976058483">
<ele>264.20000000000005</ele>
<time>2023-05-16T10:56:38Z</time>
</trkpt>
<trkpt lat="48.97977699525654" lon="9.579021921381354">
<ele>264.20000000000005</ele>
<time>2023-05-16T10:56:39Z</time>
</trkpt>
<trkpt lat="48.97979694418609" lon="9.579027956351638">
<ele>264.20000000000005</ele>
<time>2023-05-16T10:56:40Z</time>
</trkpt>
<trkpt lat="48.97981697693467" lon="9.579044971615076">
<ele>264.20000000000005</ele>
<time>2023-05-16T10:56:41Z</time>
</trkpt>
<trkpt lat="48.97983692586422" lon="9.579039942473173">
<ele>264.20000000000005</ele>
<time>2023-05-16T10:56:42Z</time>
</trkpt>
<trkpt lat="48.979844972491264" lon="9.579047989100218">
<ele>264.20000000000005</ele>
<time>2023-05-16T10:56:43Z</time>
</trkpt>
<trkpt lat="48.97985494695604" lon="9.579056957736611">
<ele>264.20000000000005</ele>
<time>2023-05-16T10:56:44Z</time>
</trkpt>
<trkpt lat="48.9798569586128" lon="9.579064920544624">
<ele>264.20000000000005</ele>
<time>2023-05-16T10:56:45Z</time>
</trkpt>
<trkpt lat="48.9798619877547" lon="9.579064920544624">
<ele>264.20000000000005</ele>
<time>2023-05-16T10:56:46Z</time>
</trkpt>
<trkpt lat="48.97986492142081" lon="9.579069949686527">
<ele>264.20000000000005</ele>
<time>2023-05-16T10:56:47Z</time>
</trkpt>
<trkpt lat="48.979867938905954" lon="9.579081935808063">
<ele>264.20000000000005</ele>
<time>2023-05-16T10:56:48Z</time>
</trkpt>
<trkpt lat="48.97987992502749" lon="9.579082941636443">
<ele>264.20000000000005</ele>
<time>2023-05-16T10:56:49Z</time>
</trkpt>
<trkpt lat="48.979886965826154" lon="9.57909693941474">
<ele>264.20000000000005</ele>
<time>2023-05-16T10:56:50Z</time>
</trkpt>
<trkpt lat="48.97989995777607" lon="9.579094927757978">
<ele>264.20000000000005</ele>
<time>2023-05-16T10:56:51Z</time>
</trkpt>
<trkpt lat="48.979909932240844" lon="9.57909693941474">
<ele>264.20000000000005</ele>
<time>2023-05-16T10:56:52Z</time>
</trkpt>
<trkpt lat="48.97992292419076" lon="9.579106997698545">
<ele>264.20000000000005</ele>
<time>2023-05-16T10:56:53Z</time>
</trkpt>
<trkpt lat="48.97993792779744" lon="9.579114960506558">
<ele>264.20000000000005</ele>
<time>2023-05-16T10:56:54Z</time>
</trkpt>
<trkpt lat="48.979936921969056" lon="9.579109931364655">
<ele>264.20000000000005</ele>
<time>2023-05-16T10:56:55Z</time>
</trkpt>
<trkpt lat="48.979954943060875" lon="9.579111943021417">
<ele>264.20000000000005</ele>
<time>2023-05-16T10:56:56Z</time>
</trkpt>
<trkpt lat="48.97994698025286" lon="9.579111943021417">
<ele>264.20000000000005</ele>
<time>2023-05-16T10:56:57Z</time>
</trkpt>
<trkpt lat="48.97981295362115" lon="9.579209927469492">
<ele>264.20000000000005</ele>
<time>2023-05-16T10:57:00Z</time>
</trkpt>
<trkpt lat="48.97981496527791" lon="9.579221997410059">
<ele>264.20000000000005</ele>
<time>2023-05-16T10:57:01Z</time>
</trkpt>
<trkpt lat="48.97981999441981" lon="9.57922694273293">
<ele>264.20000000000005</ele>
<time>2023-05-16T10:57:02Z</time>
</trkpt>
<trkpt lat="48.97982292808592" lon="9.579219985753298">
<ele>264.20000000000005</ele>
<time>2023-05-16T10:57:03Z</time>
</trkpt>
<trkpt lat="48.97982996888459" lon="9.579224931076169">
<ele>264.20000000000005</ele>
<time>2023-05-16T10:57:04Z</time>
</trkpt>
<trkpt lat="48.9798379316926" lon="9.579209927469492">
<ele>264.20000000000005</ele>
<time>2023-05-16T10:57:05Z</time>
</trkpt>
<trkpt lat="48.9798429608345" lon="9.579199953004718">
<ele>264.20000000000005</ele>
<time>2023-05-16T10:57:06Z</time>
</trkpt>
<trkpt lat="48.97984195500612" lon="9.579199953004718">
<ele>264.20000000000005</ele>
<time>2023-05-16T10:57:07Z</time>
</trkpt>
<trkpt lat="48.97984195500612" lon="9.579194923862815">
<ele>264.20000000000005</ele>
<time>2023-05-16T10:57:08Z</time>
</trkpt>
<trkpt lat="48.979844972491264" lon="9.579199953004718">
<ele>264.4</ele>
<time>2023-05-16T10:57:09Z</time>
</trkpt>
<trkpt lat="48.97985997609794" lon="9.579197941347957">
<ele>264.4</ele>
<time>2023-05-16T10:57:10Z</time>
</trkpt>
<trkpt lat="48.97986492142081" lon="9.579191990196705">
<ele>264.20000000000005</ele>
<time>2023-05-16T10:57:11Z</time>
</trkpt>
<trkpt lat="48.97988294251263" lon="9.57918293774128">
<ele>264.20000000000005</ele>
<time>2023-05-16T10:57:12Z</time>
</trkpt>
<trkpt lat="48.979906998574734" lon="9.57916491664946">
<ele>264.20000000000005</ele>
<time>2023-05-16T10:57:13Z</time>
</trkpt>
<trkpt lat="48.97987799718976" lon="9.579176986590028">
<ele>264.20000000000005</ele>
<time>2023-05-16T10:57:14Z</time>
</trkpt>
<trkpt lat="48.97989199496806" lon="9.579172963276505">
<ele>264.20000000000005</ele>
<time>2023-05-16T10:57:15Z</time>
</trkpt>
<trkpt lat="48.979912949725986" lon="9.579169945791364">
<ele>264.20000000000005</ele>
<time>2023-05-16T10:57:16Z</time>
</trkpt>
<trkpt lat="48.97992292419076" lon="9.579179920256138">
<ele>264.20000000000005</ele>
<time>2023-05-16T10:57:17Z</time>
</trkpt>
<trkpt lat="48.979936921969056" lon="9.579179920256138">
<ele>264.20000000000005</ele>
<time>2023-05-16T10:57:18Z</time>
</trkpt>
<trkpt lat="48.979929964989424" lon="9.579201964661479">
<ele>264.20000000000005</ele>
<time>2023-05-16T10:57:19Z</time>
</trkpt>
<trkpt lat="48.979936921969056" lon="9.57920498214662">
<ele>264.20000000000005</ele>
<time>2023-05-16T10:57:20Z</time>
</trkpt>
<trkpt lat="48.97993499413133" lon="9.579216968268156">
<ele>264.20000000000005</ele>
<time>2023-05-16T10:57:21Z</time>
</trkpt>
<trkpt lat="48.97992292419076" lon="9.579231971874833">
<ele>264.20000000000005</ele>
<time>2023-05-16T10:57:22Z</time>
</trkpt>
<trkpt lat="48.97992795333266" lon="9.579244963824749">
<ele>264.20000000000005</ele>
<time>2023-05-16T10:57:23Z</time>
</trkpt>
<trkpt lat="48.97992493584752" lon="9.579232977703214">
<ele>264.20000000000005</ele>
<time>2023-05-16T10:57:24Z</time>
</trkpt>
<trkpt lat="48.97992694750428" lon="9.579239934682846">
<ele>264.20000000000005</ele>
<time>2023-05-16T10:57:25Z</time>
</trkpt>
<trkpt lat="48.97992694750428" lon="9.579236917197704">
<ele>264.20000000000005</ele>
<time>2023-05-16T10:57:26Z</time>
</trkpt>
<trkpt lat="48.97993792779744" lon="9.579216968268156">
<ele>264.20000000000005</ele>
<time>2023-05-16T10:57:27Z</time>
</trkpt>
<trkpt lat="48.979906998574734" lon="9.579219985753298">
<ele>264.20000000000005</ele>
<time>2023-05-16T10:57:28Z</time>
</trkpt>
<trkpt lat="48.979909932240844" lon="9.579224931076169">
<ele>264.20000000000005</ele>
<time>2023-05-16T10:57:29Z</time>
</trkpt>
<trkpt lat="48.979909932240844" lon="9.579219985753298">
<ele>264.20000000000005</ele>
<time>2023-05-16T10:57:30Z</time>
</trkpt>
<trkpt lat="48.97991697303951" lon="9.579211939126253">
<ele>264.20000000000005</ele>
<time>2023-05-16T10:57:31Z</time>
</trkpt>
<trkpt lat="48.97992191836238" lon="9.579211939126253">
<ele>264.20000000000005</ele>
<time>2023-05-16T10:57:32Z</time>
</trkpt>
<trkpt lat="48.97991999052465" lon="9.579192996025085">
<ele>264.20000000000005</ele>
<time>2023-05-16T10:57:33Z</time>
</trkpt>
<trkpt lat="48.979909932240844" lon="9.579179920256138">
<ele>264.20000000000005</ele>
<time>2023-05-16T10:57:34Z</time>
</trkpt>
<trkpt lat="48.97989199496806" lon="9.579167934134603">
<ele>264.20000000000005</ele>
<time>2023-05-16T10:57:35Z</time>
</trkpt>
<trkpt lat="48.979869950562716" lon="9.579167934134603">
<ele>264.20000000000005</ele>
<time>2023-05-16T10:57:36Z</time>
</trkpt>
<trkpt lat="48.97986492142081" lon="9.57916198298335">
<ele>264.20000000000005</ele>
<time>2023-05-16T10:57:38Z</time>
</trkpt>
<trkpt lat="48.9798619877547" lon="9.579166928306222">
<ele>264.20000000000005</ele>
<time>2023-05-16T10:57:39Z</time>
</trkpt>
<trkpt lat="48.97985997609794" lon="9.57915997132659">
<ele>264.20000000000005</ele>
<time>2023-05-16T10:57:40Z</time>
</trkpt>
<trkpt lat="48.979849917814136" lon="9.57916491664946">
<ele>264.20000000000005</ele>
<time>2023-05-16T10:57:41Z</time>
</trkpt>
<trkpt lat="48.97983994334936" lon="9.579157959669828">
<ele>264.20000000000005</ele>
<time>2023-05-16T10:57:42Z</time>
</trkpt>
<trkpt lat="48.97983198054135" lon="9.579166928306222">
<ele>264.20000000000005</ele>
<time>2023-05-16T10:57:43Z</time>
</trkpt>
<trkpt lat="48.97982292808592" lon="9.579169945791364">
<ele>264.20000000000005</ele>
<time>2023-05-16T10:57:44Z</time>
</trkpt>
<trkpt lat="48.97982192225754" lon="9.579172963276505">
<ele>264.20000000000005</ele>
<time>2023-05-16T10:57:45Z</time>
</trkpt>
<trkpt lat="48.97981999441981" lon="9.57918494939804">
<ele>264.20000000000005</ele>
<time>2023-05-16T10:57:46Z</time>
</trkpt>
<trkpt lat="48.97981496527791" lon="9.579187966883183">
<ele>264.20000000000005</ele>
<time>2023-05-16T10:57:47Z</time>
</trkpt>
<trkpt lat="48.97981194779277" lon="9.579199953004718">
<ele>264.20000000000005</ele>
<time>2023-05-16T10:57:48Z</time>
</trkpt>
<trkpt lat="48.97981697693467" lon="9.579216968268156">
<ele>264.20000000000005</ele>
<time>2023-05-16T10:57:49Z</time>
</trkpt>
<trkpt lat="48.97981798276305" lon="9.579196935519576">
<ele>264.20000000000005</ele>
<time>2023-05-16T10:57:50Z</time>
</trkpt>
<trkpt lat="48.9798429608345" lon="9.57916491664946">
<ele>264.20000000000005</ele>
<time>2023-05-16T10:57:51Z</time>
</trkpt>
<trkpt lat="48.9798379316926" lon="9.579166928306222">
<ele>264.20000000000005</ele>
<time>2023-05-16T10:57:52Z</time>
</trkpt>
<trkpt lat="48.97983198054135" lon="9.579151924699545">
<ele>264.20000000000005</ele>
<time>2023-05-16T10:57:53Z</time>
</trkpt>
<trkpt lat="48.97982292808592" lon="9.579146979376674">
<ele>264.20000000000005</ele>
<time>2023-05-16T10:57:54Z</time>
</trkpt>
<trkpt lat="48.97979795001447" lon="9.57918293774128">
<ele>264.20000000000005</ele>
<time>2023-05-16T10:57:55Z</time>
</trkpt>
<trkpt lat="48.97979199886322" lon="9.579199953004718">
<ele>264.20000000000005</ele>
<time>2023-05-16T10:57:56Z</time>
</trkpt>
<trkpt lat="48.97978998720646" lon="9.579199953004718">
<ele>264.20000000000005</ele>
<time>2023-05-16T10:57:57Z</time>
</trkpt>
<trkpt lat="48.97979996167123" lon="9.579187966883183">
<ele>264.20000000000005</ele>
<time>2023-05-16T10:57:58Z</time>
</trkpt>
<trkpt lat="48.979807924479246" lon="9.579167934134603">
<ele>264.20000000000005</ele>
<time>2023-05-16T10:57:59Z</time>
</trkpt>
<trkpt lat="48.979802979156375" lon="9.57915997132659">
<ele>264.20000000000005</ele>
<time>2023-05-16T10:58:00Z</time>
</trkpt>
<trkpt lat="48.979806918650866" lon="9.579151924699545">
<ele>264.20000000000005</ele>
<time>2023-05-16T10:58:01Z</time>
</trkpt>
<trkpt lat="48.97981999441981" lon="9.579152930527925">
<ele>264.20000000000005</ele>
<time>2023-05-16T10:58:02Z</time>
</trkpt>
<trkpt lat="48.97983692586422" lon="9.579142956063151">
<ele>264.4</ele>
<time>2023-05-16T10:58:03Z</time>
</trkpt>
<trkpt lat="48.979846984148026" lon="9.5791179779917">
<ele>264.4</ele>
<time>2023-05-16T10:58:04Z</time>
</trkpt>
<trkpt lat="48.97985796444118" lon="9.5791179779917">
<ele>264.4</ele>
<time>2023-05-16T10:58:05Z</time>
</trkpt>
<trkpt lat="48.979866933077574" lon="9.57911697216332">
<ele>264.4</ele>
<time>2023-05-16T10:58:06Z</time>
</trkpt>
<trkpt lat="48.979869950562716" lon="9.5791179779917">
<ele>264.4</ele>
<time>2023-05-16T10:58:07Z</time>
</trkpt>
<trkpt lat="48.97985997609794" lon="9.57914195023477">
<ele>264.4</ele>
<time>2023-05-16T10:58:08Z</time>
</trkpt>
<trkpt lat="48.9798569586128" lon="9.579157959669828">
<ele>264.4</ele>
<time>2023-05-16T10:58:09Z</time>
</trkpt>
<trkpt lat="48.9798569586128" lon="9.579167934134603">
<ele>264.4</ele>
<time>2023-05-16T10:58:10Z</time>
</trkpt>
<trkpt lat="48.979866933077574" lon="9.57918494939804">
<ele>264.4</ele>
<time>2023-05-16T10:58:11Z</time>
</trkpt>
<trkpt lat="48.97987799718976" lon="9.57920297048986">
<ele>264.4</ele>
<time>2023-05-16T10:58:12Z</time>
</trkpt>
<trkpt lat="48.97988294251263" lon="9.579214956611395">
<ele>264.4</ele>
<time>2023-05-16T10:58:13Z</time>
</trkpt>
<trkpt lat="48.97988294251263" lon="9.579216968268156">
<ele>264.4</ele>
<time>2023-05-16T10:58:14Z</time>
</trkpt>
<trkpt lat="48.97987992502749" lon="9.579239934682846">
<ele>264.4</ele>
<time>2023-05-16T10:58:15Z</time>
</trkpt>
<trkpt lat="48.979887971654534" lon="9.579264996573329">
<ele>264.4</ele>
<time>2023-05-16T10:58:16Z</time>
</trkpt>
<trkpt lat="48.97991496138275" lon="9.579264996573329">
<ele>264.4</ele>
<time>2023-05-16T10:58:17Z</time>
</trkpt>
<trkpt lat="48.97992694750428" lon="9.579254938289523">
<ele>264.4</ele>
<time>2023-05-16T10:58:18Z</time>
</trkpt>
<trkpt lat="48.97992191836238" lon="9.579264996573329">
<ele>264.4</ele>
<time>2023-05-16T10:58:19Z</time>
</trkpt>
<trkpt lat="48.979912949725986" lon="9.579267930239439">
<ele>264.4</ele>
<time>2023-05-16T10:58:20Z</time>
</trkpt>
<trkpt lat="48.97990792058408" lon="9.579272959381342">
<ele>264.4</ele>
<time>2023-05-16T10:58:21Z</time>
</trkpt>
<trkpt lat="48.979906998574734" lon="9.579271953552961">
<ele>264.4</ele>
<time>2023-05-16T10:58:22Z</time>
</trkpt>
<trkpt lat="48.97989492863417" lon="9.579291986301541">
<ele>264.4</ele>
<time>2023-05-16T10:58:23Z</time>
</trkpt>
<trkpt lat="48.97989492863417" lon="9.579297937452793">
<ele>264.4</ele>
<time>2023-05-16T10:58:24Z</time>
</trkpt>
<trkpt lat="48.97989199496806" lon="9.579294919967651">
<ele>264.4</ele>
<time>2023-05-16T10:58:25Z</time>
</trkpt>
<trkpt lat="48.97989995777607" lon="9.579251920804381">
<ele>264.4</ele>
<time>2023-05-16T10:58:26Z</time>
</trkpt>
<trkpt lat="48.97989995777607" lon="9.579224931076169">
<ele>264.4</ele>
<time>2023-05-16T10:58:27Z</time>
</trkpt>
<trkpt lat="48.97990297526121" lon="9.579212944954634">
<ele>264.4</ele>
<time>2023-05-16T10:58:28Z</time>
</trkpt>
<trkpt lat="48.979847989976406" lon="9.579029968008399">
<ele>263.6</ele>
<time>2023-05-16T10:58:31Z</time>
</trkpt>
<trkpt lat="48.97985293529928" lon="9.579001972451806">
<ele>263.79999999999995</ele>
<time>2023-05-16T10:58:32Z</time>
</trkpt>
<trkpt lat="48.97987699136138" lon="9.579019993543625">
<ele>264</ele>
<time>2023-05-16T10:58:33Z</time>
</trkpt>
<trkpt lat="48.97987699136138" lon="9.579029968008399">
<ele>264.20000000000005</ele>
<time>2023-05-16T10:58:34Z</time>
</trkpt>
<trkpt lat="48.97988193668425" lon="9.579039942473173">
<ele>264.4</ele>
<time>2023-05-16T10:58:35Z</time>
</trkpt>
<trkpt lat="48.97989199496806" lon="9.579051928594708">
<ele>264.4</ele>
<time>2023-05-16T10:58:36Z</time>
</trkpt>
<trkpt lat="48.97988294251263" lon="9.579061986878514">
<ele>264.6</ele>
<time>2023-05-16T10:58:37Z</time>
</trkpt>
<trkpt lat="48.97987799718976" lon="9.579069949686527">
<ele>264.6</ele>
<time>2023-05-16T10:58:38Z</time>
</trkpt>
<trkpt lat="48.97988193668425" lon="9.579076990485191">
<ele>264.6</ele>
<time>2023-05-16T10:58:39Z</time>
</trkpt>
<trkpt lat="48.97987497970462" lon="9.579099956899881">
<ele>264.79999999999995</ele>
<time>2023-05-16T10:58:40Z</time>
</trkpt>
<trkpt lat="48.979867938905954" lon="9.579114960506558">
<ele>264.79999999999995</ele>
<time>2023-05-16T10:58:41Z</time>
</trkpt>
<trkpt lat="48.979866933077574" lon="9.579124934971333">
<ele>264.79999999999995</ele>
<time>2023-05-16T10:58:42Z</time>
</trkpt>
<trkpt lat="48.97994295693934" lon="9.57909794524312">
<ele>264.79999999999995</ele>
<time>2023-05-16T10:58:43Z</time>
</trkpt>
<trkpt lat="48.97996298968792" lon="9.579104986041784">
<ele>264.79999999999995</ele>
<time>2023-05-16T10:58:44Z</time>
</trkpt>
<trkpt lat="48.97996994666755" lon="9.579119989648461">
<ele>265</ele>
<time>2023-05-16T10:58:45Z</time>
</trkpt>
<trkpt lat="48.979974975809455" lon="9.579124934971333">
<ele>265</ele>
<time>2023-05-16T10:58:46Z</time>
</trkpt>
<trkpt lat="48.9799779932946" lon="9.579127952456474">
<ele>265</ele>
<time>2023-05-16T10:58:47Z</time>
</trkpt>
<trkpt lat="48.97996692918241" lon="9.579144967719913">
<ele>265</ele>
<time>2023-05-16T10:58:48Z</time>
</trkpt>
<trkpt lat="48.97995997220278" lon="9.57916491664946">
<ele>265</ele>
<time>2023-05-16T10:58:49Z</time>
</trkpt>
<trkpt lat="48.9799399394542" lon="9.579187966883183">
<ele>265</ele>
<time>2023-05-16T10:58:50Z</time>
</trkpt>
<trkpt lat="48.97992795333266" lon="9.579187966883183">
<ele>265</ele>
<time>2023-05-16T10:58:51Z</time>
</trkpt>
<trkpt lat="48.97991496138275" lon="9.579181931912899">
<ele>265</ele>
<time>2023-05-16T10:58:52Z</time>
</trkpt>
<trkpt lat="48.979906998574734" lon="9.579171957448125">
<ele>265</ele>
<time>2023-05-16T10:58:53Z</time>
</trkpt>
<trkpt lat="48.979886965826154" lon="9.579154942184687">
<ele>265</ele>
<time>2023-05-16T10:58:54Z</time>
</trkpt>
<trkpt lat="48.979869950562716" lon="9.579146979376674">
<ele>265</ele>
<time>2023-05-16T10:58:55Z</time>
</trkpt>
<trkpt lat="48.979847989976406" lon="9.579132981598377">
<ele>265</ele>
<time>2023-05-16T10:58:56Z</time>
</trkpt>
<trkpt lat="48.97983994334936" lon="9.579124934971333">
<ele>265</ele>
<time>2023-05-16T10:58:57Z</time>
</trkpt>
<trkpt lat="48.97983198054135" lon="9.579112948849797">
<ele>265</ele>
<time>2023-05-16T10:58:58Z</time>
</trkpt>
<trkpt lat="48.97983499802649" lon="9.57909794524312">
<ele>265</ele>
<time>2023-05-16T10:58:59Z</time>
</trkpt>
<trkpt lat="48.97981496527791" lon="9.579094927757978">
<ele>265</ele>
<time>2023-05-16T10:59:00Z</time>
</trkpt>
<trkpt lat="48.979806918650866" lon="9.579091994091868">
<ele>265</ele>
<time>2023-05-16T10:59:01Z</time>
</trkpt>
<trkpt lat="48.97979996167123" lon="9.579094927757978">
<ele>265</ele>
<time>2023-05-16T10:59:02Z</time>
</trkpt>
<trkpt lat="48.97979292087257" lon="9.579089982435107">
<ele>265</ele>
<time>2023-05-16T10:59:03Z</time>
</trkpt>
<trkpt lat="48.9797879755497" lon="9.579089982435107">
<ele>265</ele>
<time>2023-05-16T10:59:04Z</time>
</trkpt>
<trkpt lat="48.97977791726589" lon="9.579087970778346">
<ele>265</ele>
<time>2023-05-16T10:59:05Z</time>
</trkpt>
<trkpt lat="48.97977992892265" lon="9.579077996313572">
<ele>265</ele>
<time>2023-05-16T10:59:06Z</time>
</trkpt>
<trkpt lat="48.9797879755497" lon="9.579067938029766">
<ele>265</ele>
<time>2023-05-16T10:59:07Z</time>
</trkpt>
<trkpt lat="48.97979694418609" lon="9.579062992706895">
<ele>265</ele>
<time>2023-05-16T10:59:08Z</time>
</trkpt>
<trkpt lat="48.979801973327994" lon="9.579056957736611">
<ele>265</ele>
<time>2023-05-16T10:59:09Z</time>
</trkpt>
<trkpt lat="48.979801973327994" lon="9.579047989100218">
<ele>265</ele>
<time>2023-05-16T10:59:10Z</time>
</trkpt>
<trkpt lat="48.979806918650866" lon="9.579042959958315">
<ele>265</ele>
<time>2023-05-16T10:59:11Z</time>
</trkpt>
<trkpt lat="48.979807924479246" lon="9.579034997150302">
<ele>265</ele>
<time>2023-05-16T10:59:12Z</time>
</trkpt>
<trkpt lat="48.97979694418609" lon="9.57903197966516">
<ele>265</ele>
<time>2023-05-16T10:59:14Z</time>
</trkpt>
<trkpt lat="48.97987196221948" lon="9.57943799905479">
<ele>265</ele>
<time>2023-05-16T10:59:14Z</time>
</trkpt>
<trkpt lat="48.979869950562716" lon="9.579434981569648">
<ele>265</ele>
<time>2023-05-16T10:59:15Z</time>
</trkpt>
<trkpt lat="48.979869950562716" lon="9.579429952427745">
<ele>265</ele>
<time>2023-05-16T10:59:16Z</time>
</trkpt>
<trkpt lat="48.979869950562716" lon="9.57941796630621">
<ele>265</ele>
<time>2023-05-16T10:59:17Z</time>
</trkpt>
<trkpt lat="48.979869950562716" lon="9.579406986013055">
<ele>265</ele>
<time>2023-05-16T10:59:18Z</time>
</trkpt>
<trkpt lat="48.979869950562716" lon="9.579366920515895">
<ele>265</ele>
<time>2023-05-16T10:59:19Z</time>
</trkpt>
<trkpt lat="48.979892916977406" lon="9.579321993514895">
<ele>265</ele>
<time>2023-05-16T10:59:20Z</time>
</trkpt>
<trkpt lat="48.97989995777607" lon="9.579292992129922">
<ele>265</ele>
<time>2023-05-16T10:59:21Z</time>
</trkpt>
<trkpt lat="48.97990196943283" lon="9.579276982694864">
<ele>265</ele>
<time>2023-05-16T10:59:22Z</time>
</trkpt>
<trkpt lat="48.979889983311296" lon="9.579244963824749">
<ele>265</ele>
<time>2023-05-16T10:59:23Z</time>
</trkpt>
<trkpt lat="48.97988294251263" lon="9.579217974096537">
<ele>265.20000000000005</ele>
<time>2023-05-16T10:59:24Z</time>
</trkpt>
<trkpt lat="48.979886965826154" lon="9.579176986590028">
<ele>265.20000000000005</ele>
<time>2023-05-16T10:59:25Z</time>
</trkpt>
<trkpt lat="48.979887971654534" lon="9.579149996861815">
<ele>265.20000000000005</ele>
<time>2023-05-16T10:59:26Z</time>
</trkpt>
<trkpt lat="48.979892916977406" lon="9.579126946628094">
<ele>265.20000000000005</ele>
<time>2023-05-16T10:59:27Z</time>
</trkpt>
<trkpt lat="48.979886965826154" lon="9.57909794524312">
<ele>265.20000000000005</ele>
<time>2023-05-16T10:59:28Z</time>
</trkpt>
<trkpt lat="48.979887971654534" lon="9.579092999920249">
<ele>265.20000000000005</ele>
<time>2023-05-16T10:59:29Z</time>
</trkpt>
<trkpt lat="48.97988193668425" lon="9.57909794524312">
<ele>265.20000000000005</ele>
<time>2023-05-16T10:59:30Z</time>
</trkpt>
<trkpt lat="48.97988294251263" lon="9.579092999920249">
<ele>265.20000000000005</ele>
<time>2023-05-16T10:59:31Z</time>
</trkpt>
<trkpt lat="48.97987992502749" lon="9.579086964949965">
<ele>265.20000000000005</ele>
<time>2023-05-16T10:59:32Z</time>
</trkpt>
<trkpt lat="48.97987699136138" lon="9.579052934423089">
<ele>265.20000000000005</ele>
<time>2023-05-16T10:59:33Z</time>
</trkpt>
<trkpt lat="48.97988193668425" lon="9.579044971615076">
<ele>265.20000000000005</ele>
<time>2023-05-16T10:59:34Z</time>
</trkpt>
<trkpt lat="48.97987992502749" lon="9.57901295274496">
<ele>265.20000000000005</ele>
<time>2023-05-16T10:59:37Z</time>
</trkpt>
<trkpt lat="48.97987799718976" lon="9.579009935259819">
<ele>265.20000000000005</ele>
<time>2023-05-16T10:59:38Z</time>
</trkpt>
<trkpt lat="48.97985796444118" lon="9.578994931653142">
<ele>265.20000000000005</ele>
<time>2023-05-16T10:59:39Z</time>
</trkpt>
<trkpt lat="48.9798519294709" lon="9.578982945531607">
<ele>265.20000000000005</ele>
<time>2023-05-16T10:59:40Z</time>
</trkpt>
<trkpt lat="48.979847989976406" lon="9.57896995358169">
<ele>265.20000000000005</ele>
<time>2023-05-16T10:59:41Z</time>
</trkpt>
<trkpt lat="48.979846984148026" lon="9.578964924439788">
<ele>265.20000000000005</ele>
<time>2023-05-16T10:59:42Z</time>
</trkpt>
<trkpt lat="48.97983994334936" lon="9.578954949975014">
<ele>265.20000000000005</ele>
<time>2023-05-16T10:59:43Z</time>
</trkpt>
<trkpt lat="48.9798379316926" lon="9.578961990773678">
<ele>265.20000000000005</ele>
<time>2023-05-16T10:59:44Z</time>
</trkpt>
<trkpt lat="48.979827957227826" lon="9.57896794192493">
<ele>265.20000000000005</ele>
<time>2023-05-16T10:59:45Z</time>
</trkpt>
<trkpt lat="48.979824939742684" lon="9.578976994380355">
<ele>265.20000000000005</ele>
<time>2023-05-16T10:59:46Z</time>
</trkpt>
<trkpt lat="48.97983298636973" lon="9.578972971066833">
<ele>265.20000000000005</ele>
<time>2023-05-16T10:59:47Z</time>
</trkpt>
<trkpt lat="48.9798379316926" lon="9.578952938318253">
<ele>265.20000000000005</ele>
<time>2023-05-16T10:59:48Z</time>
</trkpt>
<trkpt lat="48.97983692586422" lon="9.578952938318253">
<ele>265.20000000000005</ele>
<time>2023-05-16T10:59:49Z</time>
</trkpt>
<trkpt lat="48.97983298636973" lon="9.578952938318253">
<ele>265.20000000000005</ele>
<time>2023-05-16T10:59:50Z</time>
</trkpt>
<trkpt lat="48.97983198054135" lon="9.578952938318253">
<ele>265.20000000000005</ele>
<time>2023-05-16T10:59:51Z</time>
</trkpt>
<trkpt lat="48.97983499802649" lon="9.578954949975014">
<ele>265.20000000000005</ele>
<time>2023-05-16T10:59:52Z</time>
</trkpt>
<trkpt lat="48.9798519294709" lon="9.578964924439788">
<ele>265.20000000000005</ele>
<time>2023-05-16T10:59:53Z</time>
</trkpt>
<trkpt lat="48.9798379316926" lon="9.578957967460155">
<ele>265.20000000000005</ele>
<time>2023-05-16T10:59:54Z</time>
</trkpt>
<trkpt lat="48.979847989976406" lon="9.578962996602058">
<ele>265.20000000000005</ele>
<time>2023-05-16T10:59:55Z</time>
</trkpt>
<trkpt lat="48.9798429608345" lon="9.578961990773678">
<ele>265.20000000000005</ele>
<time>2023-05-16T10:59:56Z</time>
</trkpt>
<trkpt lat="48.97989794611931" lon="9.579187966883183">
<ele>266.79999999999995</ele>
<time>2023-05-16T10:59:58Z</time>
</trkpt>
<trkpt lat="48.97989694029093" lon="9.579196935519576">
<ele>266.79999999999995</ele>
<time>2023-05-16T10:59:59Z</time>
</trkpt>
<trkpt lat="48.97989492863417" lon="9.57920297048986">
<ele>266.79999999999995</ele>
<time>2023-05-16T11:00:00Z</time>
</trkpt>
<trkpt lat="48.97989694029093" lon="9.579207999631763">
<ele>266.79999999999995</ele>
<time>2023-05-16T11:00:01Z</time>
</trkpt>
<trkpt lat="48.97989694029093" lon="9.579211939126253">
<ele>266.79999999999995</ele>
<time>2023-05-16T11:00:02Z</time>
</trkpt>
<trkpt lat="48.97985796444118" lon="9.57939994521439">
<ele>266.6</ele>
<time>2023-05-16T11:00:04Z</time>
</trkpt>
<trkpt lat="48.97985293529928" lon="9.579406986013055">
<ele>266.6</ele>
<time>2023-05-16T11:00:05Z</time>
</trkpt>
<trkpt lat="48.97983994334936" lon="9.579412937164307">
<ele>266.6</ele>
<time>2023-05-16T11:00:06Z</time>
</trkpt>
<trkpt lat="48.979826951399446" lon="9.57941796630621">
<ele>266.6</ele>
<time>2023-05-16T11:00:07Z</time>
</trkpt>
<trkpt lat="48.979807924479246" lon="9.579429952427745">
<ele>266.6</ele>
<time>2023-05-16T11:00:08Z</time>
</trkpt>
<trkpt lat="48.979781940579414" lon="9.579447973519564">
<ele>266.6</ele>
<time>2023-05-16T11:00:09Z</time>
</trkpt>
<trkpt lat="48.97974497638643" lon="9.579467922449112">
<ele>266.6</ele>
<time>2023-05-16T11:00:10Z</time>
</trkpt>
<trkpt lat="48.97970792837441" lon="9.57948493771255">
<ele>266.79999999999995</ele>
<time>2023-05-16T11:00:11Z</time>
</trkpt>
<trkpt lat="48.979672975838184" lon="9.579497929662466">
<ele>266.79999999999995</ele>
<time>2023-05-16T11:00:12Z</time>
</trkpt>
<trkpt lat="48.97964196279645" lon="9.579507987946272">
<ele>266.79999999999995</ele>
<time>2023-05-16T11:00:13Z</time>
</trkpt>
<trkpt lat="48.979616984725" lon="9.579512933269143">
<ele>266.79999999999995</ele>
<time>2023-05-16T11:00:14Z</time>
</trkpt>
<trkpt lat="48.979592928662896" lon="9.579512933269143">
<ele>267</ele>
<time>2023-05-16T11:00:15Z</time>
</trkpt>
<trkpt lat="48.979566944763064" lon="9.579514944925904">
<ele>267</ele>
<time>2023-05-16T11:00:16Z</time>
</trkpt>
<trkpt lat="48.97953794337809" lon="9.579512933269143">
<ele>267</ele>
<time>2023-05-16T11:00:17Z</time>
</trkpt>
<trkpt lat="48.97951296530664" lon="9.579516956582665">
<ele>267</ele>
<time>2023-05-16T11:00:18Z</time>
</trkpt>
<trkpt lat="48.97948999889195" lon="9.579516956582665">
<ele>267.20000000000005</ele>
<time>2023-05-16T11:00:19Z</time>
</trkpt>
<trkpt lat="48.97946795448661" lon="9.579511927440763">
<ele>267.20000000000005</ele>
<time>2023-05-16T11:00:20Z</time>
</trkpt>
<trkpt lat="48.97944792173803" lon="9.579509999603033">
<ele>267.20000000000005</ele>
<time>2023-05-16T11:00:21Z</time>
</trkpt>
<trkpt lat="48.97943291813135" lon="9.57948493771255">
<ele>267.4</ele>
<time>2023-05-16T11:00:22Z</time>
</trkpt>
<trkpt lat="48.9794129692018" lon="9.57946297712624">
<ele>267.4</ele>
<time>2023-05-16T11:00:23Z</time>
</trkpt>
<trkpt lat="48.979397965595126" lon="9.579432969912887">
<ele>267.6</ele>
<time>2023-05-16T11:00:24Z</time>
</trkpt>
<trkpt lat="48.97938698530197" lon="9.579411931335926">
<ele>267.6</ele>
<time>2023-05-16T11:00:25Z</time>
</trkpt>
<trkpt lat="48.97933694534004" lon="9.579344959929585">
<ele>267.79999999999995</ele>
<time>2023-05-16T11:00:26Z</time>
</trkpt>
<trkpt lat="48.97929998114705" lon="9.579294919967651">
<ele>267.79999999999995</ele>
<time>2023-05-16T11:00:27Z</time>
</trkpt>
<trkpt lat="48.979287995025516" lon="9.57924798130989">
<ele>268</ele>
<time>2023-05-16T11:00:28Z</time>
</trkpt>
<trkpt lat="48.97927491925657" lon="9.579191990196705">
<ele>268</ele>
<time>2023-05-16T11:00:29Z</time>
</trkpt>
<trkpt lat="48.97926192730665" lon="9.57914195023477">
<ele>268.20000000000005</ele>
<time>2023-05-16T11:00:30Z</time>
</trkpt>
<trkpt lat="48.97925195284188" lon="9.579107919707894">
<ele>268.20000000000005</ele>
<time>2023-05-16T11:00:31Z</time>
</trkpt>
<trkpt lat="48.979241978377104" lon="9.579082941636443">
<ele>268.20000000000005</ele>
<time>2023-05-16T11:00:32Z</time>
</trkpt>
<trkpt lat="48.97922798059881" lon="9.579072967171669">
<ele>268.4</ele>
<time>2023-05-16T11:00:33Z</time>
</trkpt>
<trkpt lat="48.97921993397176" lon="9.579051928594708">
<ele>268.4</ele>
<time>2023-05-16T11:00:34Z</time>
</trkpt>
<trkpt lat="48.97921197116375" lon="9.579029968008399">
<ele>268.4</ele>
<time>2023-05-16T11:00:35Z</time>
</trkpt>
<trkpt lat="48.979204930365086" lon="9.578996943309903">
<ele>268.6</ele>
<time>2023-05-16T11:00:36Z</time>
</trkpt>
<trkpt lat="48.979201996698976" lon="9.578961990773678">
<ele>268.6</ele>
<time>2023-05-16T11:00:37Z</time>
</trkpt>
<trkpt lat="48.979199985042214" lon="9.578917985782027">
<ele>268.6</ele>
<time>2023-05-16T11:00:38Z</time>
</trkpt>
<trkpt lat="48.97920794785023" lon="9.578887978568673">
<ele>268.6</ele>
<time>2023-05-16T11:00:39Z</time>
</trkpt>
<trkpt lat="48.97921498864889" lon="9.578877920284867">
<ele>268.6</ele>
<time>2023-05-16T11:00:40Z</time>
</trkpt>
<trkpt lat="48.979224963113666" lon="9.578871969133615">
<ele>268.6</ele>
<time>2023-05-16T11:00:41Z</time>
</trkpt>
<trkpt lat="48.979244995862246" lon="9.578854953870177">
<ele>268.79999999999995</ele>
<time>2023-05-16T11:00:42Z</time>
</trkpt>
<trkpt lat="48.97926192730665" lon="9.578849924728274">
<ele>268.79999999999995</ele>
<time>2023-05-16T11:00:43Z</time>
</trkpt>
<trkpt lat="48.97928196005523" lon="9.578832993283868">
<ele>268.79999999999995</ele>
<time>2023-05-16T11:00:44Z</time>
</trkpt>
<trkpt lat="48.97929294034839" lon="9.578824946656823">
<ele>268.79999999999995</ele>
<time>2023-05-16T11:00:45Z</time>
</trkpt>
<trkpt lat="48.979311967268586" lon="9.578802986070514">
<ele>268.79999999999995</ele>
<time>2023-05-16T11:00:46Z</time>
</trkpt>
<trkpt lat="48.9793199300766" lon="9.57877499051392">
<ele>268.79999999999995</ele>
<time>2023-05-16T11:00:47Z</time>
</trkpt>
<trkpt lat="48.97933795116842" lon="9.578751940280199">
<ele>269</ele>
<time>2023-05-16T11:00:48Z</time>
</trkpt>
<trkpt lat="48.97935697808862" lon="9.578741965815425">
<ele>269</ele>
<time>2023-05-16T11:00:49Z</time>
</trkpt>
<trkpt lat="48.979376927018166" lon="9.57873199135065">
<ele>269</ele>
<time>2023-05-16T11:00:50Z</time>
</trkpt>
<trkpt lat="48.979396959766746" lon="9.578726962208748">
<ele>269</ele>
<time>2023-05-16T11:00:51Z</time>
</trkpt>
<trkpt lat="48.979419926181436" lon="9.578702989965677">
<ele>269</ele>
<time>2023-05-16T11:00:52Z</time>
</trkpt>
<trkpt lat="48.979459991678596" lon="9.578677928075194">
<ele>269</ele>
<time>2023-05-16T11:00:53Z</time>
</trkpt>
<trkpt lat="48.979504918679595" lon="9.578652950003743">
<ele>269</ele>
<time>2023-05-16T11:00:54Z</time>
</trkpt>
<trkpt lat="48.97955495864153" lon="9.57860492169857">
<ele>269</ele>
<time>2023-05-16T11:00:55Z</time>
</trkpt>
<trkpt lat="48.979589994996786" lon="9.578587990254164">
<ele>269</ele>
<time>2023-05-16T11:00:56Z</time>
</trkpt>
<trkpt lat="48.97961497306824" lon="9.57855798304081">
<ele>269</ele>
<time>2023-05-16T11:00:57Z</time>
</trkpt>
<trkpt lat="48.97963693365455" lon="9.578524958342314">
<ele>269</ele>
<time>2023-05-16T11:00:58Z</time>
</trkpt>
<trkpt lat="48.979651937261224" lon="9.578491933643818">
<ele>269</ele>
<time>2023-05-16T11:00:59Z</time>
</trkpt>
<trkpt lat="48.97965998388827" lon="9.578436948359013">
<ele>268.79999999999995</ele>
<time>2023-05-16T11:01:00Z</time>
</trkpt>
<trkpt lat="48.97966291755438" lon="9.578376933932304">
<ele>268.79999999999995</ele>
<time>2023-05-16T11:01:01Z</time>
</trkpt>
<trkpt lat="48.97966492921114" lon="9.57832496613264">
<ele>268.79999999999995</ele>
<time>2023-05-16T11:01:02Z</time>
</trkpt>
<trkpt lat="48.97965797223151" lon="9.578272998332977">
<ele>268.79999999999995</ele>
<time>2023-05-16T11:01:03Z</time>
</trkpt>
<trkpt lat="48.97964799776673" lon="9.578221952542663">
<ele>268.79999999999995</ele>
<time>2023-05-16T11:01:04Z</time>
</trkpt>
<trkpt lat="48.979631988331676" lon="9.57817291840911">
<ele>268.79999999999995</ele>
<time>2023-05-16T11:01:05Z</time>
</trkpt>
<trkpt lat="48.97961497306824" lon="9.57812991924584">
<ele>268.79999999999995</ele>
<time>2023-05-16T11:01:06Z</time>
</trkpt>
<trkpt lat="48.9795979578048" lon="9.57808499224484">
<ele>268.79999999999995</ele>
<time>2023-05-16T11:01:07Z</time>
</trkpt>
<trkpt lat="48.97958295419812" lon="9.578036963939667">
<ele>268.6</ele>
<time>2023-05-16T11:01:08Z</time>
</trkpt>
<trkpt lat="48.97955998778343" lon="9.577986923977733">
<ele>268.6</ele>
<time>2023-05-16T11:01:09Z</time>
</trkpt>
<trkpt lat="48.979547917842865" lon="9.577932944521308">
<ele>268.6</ele>
<time>2023-05-16T11:01:10Z</time>
</trkpt>
<trkpt lat="48.97953995503485" lon="9.577877959236503">
<ele>268.6</ele>
<time>2023-05-16T11:01:11Z</time>
</trkpt>
<trkpt lat="48.97953693754971" lon="9.577824985608459">
<ele>268.6</ele>
<time>2023-05-16T11:01:12Z</time>
</trkpt>
<trkpt lat="48.97953492589295" lon="9.577767988666892">
<ele>268.4</ele>
<time>2023-05-16T11:01:13Z</time>
</trkpt>
<trkpt lat="48.97952998057008" lon="9.577709985896945">
<ele>268.4</ele>
<time>2023-05-16T11:01:14Z</time>
</trkpt>
<trkpt lat="48.97951698862016" lon="9.577651983126998">
<ele>268.20000000000005</ele>
<time>2023-05-16T11:01:15Z</time>
</trkpt>
<trkpt lat="48.97949494421482" lon="9.577589957043529">
<ele>268.20000000000005</ele>
<time>2023-05-16T11:01:16Z</time>
</trkpt>
<trkpt lat="48.97947298362851" lon="9.577517956495285">
<ele>268</ele>
<time>2023-05-16T11:01:17Z</time>
</trkpt>
<trkpt lat="48.97944498807192" lon="9.577439920976758">
<ele>268</ele>
<time>2023-05-16T11:01:18Z</time>
</trkpt>
<trkpt lat="48.979419926181436" lon="9.577359957620502">
<ele>267.79999999999995</ele>
<time>2023-05-16T11:01:19Z</time>
</trkpt>
<trkpt lat="48.97938991896808" lon="9.577281922101974">
<ele>267.6</ele>
<time>2023-05-16T11:01:20Z</time>
</trkpt>
<trkpt lat="48.979354966431856" lon="9.577214950695634">
<ele>267.4</ele>
<time>2023-05-16T11:01:21Z</time>
</trkpt>
<trkpt lat="48.97931297309697" lon="9.57716298289597">
<ele>267</ele>
<time>2023-05-16T11:01:22Z</time>
</trkpt>
<trkpt lat="48.9792699739337" lon="9.577114954590797">
<ele>266.79999999999995</ele>
<time>2023-05-16T11:01:23Z</time>
</trkpt>
<trkpt lat="48.9792319200933" lon="9.577062986791134">
<ele>266.6</ele>
<time>2023-05-16T11:01:24Z</time>
</trkpt>
<trkpt lat="48.979202918708324" lon="9.577004984021187">
<ele>266.6</ele>
<time>2023-05-16T11:01:25Z</time>
</trkpt>
<trkpt lat="48.979182969778776" lon="9.576939940452576">
<ele>266.4</ele>
<time>2023-05-16T11:01:26Z</time>
</trkpt>
<trkpt lat="48.97917492315173" lon="9.576871963217854">
<ele>266.4</ele>
<time>2023-05-16T11:01:27Z</time>
</trkpt>
<trkpt lat="48.979182969778776" lon="9.576806919649243">
<ele>266.20000000000005</ele>
<time>2023-05-16T11:01:28Z</time>
</trkpt>
<trkpt lat="48.97919797338545" lon="9.576739948242903">
<ele>266.20000000000005</ele>
<time>2023-05-16T11:01:29Z</time>
</trkpt>
<trkpt lat="48.979221945628524" lon="9.576676916331053">
<ele>266</ele>
<time>2023-05-16T11:01:30Z</time>
</trkpt>
<trkpt lat="48.979246923699975" lon="9.576611956581473">
<ele>266</ele>
<time>2023-05-16T11:01:31Z</time>
</trkpt>
<trkpt lat="48.97927994839847" lon="9.576541967689991">
<ele>265.79999999999995</ele>
<time>2023-05-16T11:01:32Z</time>
</trkpt>
<trkpt lat="48.97931297309697" lon="9.576469967141747">
<ele>265.6</ele>
<time>2023-05-16T11:01:33Z</time>
</trkpt>
<trkpt lat="48.979351948946714" lon="9.576394949108362">
<ele>265.4</ele>
<time>2023-05-16T11:01:34Z</time>
</trkpt>
<trkpt lat="48.979374999180436" lon="9.576314985752106">
<ele>265.4</ele>
<time>2023-05-16T11:01:35Z</time>
</trkpt>
<trkpt lat="48.97940198890865" lon="9.576241979375482">
<ele>265.20000000000005</ele>
<time>2023-05-16T11:01:36Z</time>
</trkpt>
<trkpt lat="48.9794269669801" lon="9.576159920543432">
<ele>265</ele>
<time>2023-05-16T11:01:37Z</time>
</trkpt>
<trkpt lat="48.97944993339479" lon="9.576079957187176">
<ele>265</ele>
<time>2023-05-16T11:01:38Z</time>
</trkpt>
<trkpt lat="48.97946996614337" lon="9.576006950810552">
<ele>264.79999999999995</ele>
<time>2023-05-16T11:01:39Z</time>
</trkpt>
<trkpt lat="48.97949192672968" lon="9.575924975797534">
<ele>264.79999999999995</ele>
<time>2023-05-16T11:01:40Z</time>
</trkpt>
<trkpt lat="48.97951195947826" lon="9.575841994956136">
<ele>264.79999999999995</ele>
<time>2023-05-16T11:01:41Z</time>
</trkpt>
<trkpt lat="48.97952796891332" lon="9.575756918638945">
<ele>264.6</ele>
<time>2023-05-16T11:01:42Z</time>
</trkpt>
<trkpt lat="48.979544984176755" lon="9.575672931969166">
<ele>264.6</ele>
<time>2023-05-16T11:01:43Z</time>
</trkpt>
<trkpt lat="48.97955495864153" lon="9.57559296861291">
<ele>264.4</ele>
<time>2023-05-16T11:01:44Z</time>
</trkpt>
<trkpt lat="48.979566944763064" lon="9.575509987771511">
<ele>264.4</ele>
<time>2023-05-16T11:01:45Z</time>
</trkpt>
<trkpt lat="48.97957499139011" lon="9.575424995273352">
<ele>264.20000000000005</ele>
<time>2023-05-16T11:01:46Z</time>
</trkpt>
<trkpt lat="48.97957499139011" lon="9.575341930612922">
<ele>264.20000000000005</ele>
<time>2023-05-16T11:01:47Z</time>
</trkpt>
<trkpt lat="48.97957792505622" lon="9.575256938114762">
<ele>264.20000000000005</ele>
<time>2023-05-16T11:01:48Z</time>
</trkpt>
<trkpt lat="48.97958194836974" lon="9.575177980586886">
<ele>264.20000000000005</ele>
<time>2023-05-16T11:01:49Z</time>
</trkpt>
<trkpt lat="48.97958295419812" lon="9.575104974210262">
<ele>264</ele>
<time>2023-05-16T11:01:50Z</time>
</trkpt>
<trkpt lat="48.97957691922784" lon="9.575026938691735">
<ele>264</ele>
<time>2023-05-16T11:01:51Z</time>
</trkpt>
<trkpt lat="48.97957792505622" lon="9.574944963678718">
<ele>264</ele>
<time>2023-05-16T11:01:52Z</time>
</trkpt>
<trkpt lat="48.97958194836974" lon="9.57486692816019">
<ele>264</ele>
<time>2023-05-16T11:01:53Z</time>
</trkpt>
<trkpt lat="48.97958496585488" lon="9.574794927611947">
<ele>264</ele>
<time>2023-05-16T11:01:54Z</time>
</trkpt>
<trkpt lat="48.979592928662896" lon="9.574727956205606">
<ele>263.79999999999995</ele>
<time>2023-05-16T11:01:55Z</time>
</trkpt>
<trkpt lat="48.97960499860346" lon="9.574657967314124">
<ele>263.79999999999995</ele>
<time>2023-05-16T11:01:56Z</time>
</trkpt>
<trkpt lat="48.97961497306824" lon="9.574587978422642">
<ele>263.79999999999995</ele>
<time>2023-05-16T11:01:57Z</time>
</trkpt>
<trkpt lat="48.97962796501815" lon="9.57451798953116">
<ele>263.79999999999995</ele>
<time>2023-05-16T11:01:58Z</time>
</trkpt>
<trkpt lat="48.97964296862483" lon="9.57445495761931">
<ele>263.79999999999995</ele>
<time>2023-05-16T11:01:59Z</time>
</trkpt>
<trkpt lat="48.979654954746366" lon="9.574394943192601">
<ele>263.79999999999995</ele>
<time>2023-05-16T11:02:00Z</time>
</trkpt>
<trkpt lat="48.97966492921114" lon="9.574331995099783">
<ele>263.79999999999995</ele>
<time>2023-05-16T11:02:01Z</time>
</trkpt>
<trkpt lat="48.979674987494946" lon="9.574269969016314">
<ele>263.79999999999995</ele>
<time>2023-05-16T11:02:02Z</time>
</trkpt>
<trkpt lat="48.97968194447458" lon="9.57421699538827">
<ele>263.6</ele>
<time>2023-05-16T11:02:03Z</time>
</trkpt>
<trkpt lat="48.97969191893935" lon="9.574172990396619">
<ele>263.6</ele>
<time>2023-05-16T11:02:04Z</time>
</trkpt>
<trkpt lat="48.97970692254603" lon="9.574132924899459">
<ele>263.6</ele>
<time>2023-05-16T11:02:05Z</time>
</trkpt>
<trkpt lat="48.97972695529461" lon="9.57409294322133">
<ele>263.6</ele>
<time>2023-05-16T11:02:06Z</time>
</trkpt>
<trkpt lat="48.97975293919444" lon="9.574046926572919">
<ele>263.6</ele>
<time>2023-05-16T11:02:07Z</time>
</trkpt>
<trkpt lat="48.97977699525654" lon="9.573996970430017">
<ele>263.6</ele>
<time>2023-05-16T11:02:08Z</time>
</trkpt>
<trkpt lat="48.97979292087257" lon="9.573944918811321">
<ele>263.4</ele>
<time>2023-05-16T11:02:09Z</time>
</trkpt>
<trkpt lat="48.97980993613601" lon="9.573894962668419">
<ele>263.4</ele>
<time>2023-05-16T11:02:10Z</time>
</trkpt>
<trkpt lat="48.979824939742684" lon="9.573846934363246">
<ele>263.4</ele>
<time>2023-05-16T11:02:11Z</time>
</trkpt>
<trkpt lat="48.9798379316926" lon="9.57378993742168">
<ele>263.4</ele>
<time>2023-05-16T11:02:12Z</time>
</trkpt>
<trkpt lat="48.979849917814136" lon="9.573722966015339">
<ele>263.4</ele>
<time>2023-05-16T11:02:13Z</time>
</trkpt>
<trkpt lat="48.97986299358308" lon="9.573647947981954">
<ele>263.4</ele>
<time>2023-05-16T11:02:14Z</time>
</trkpt>
<trkpt lat="48.97987992502749" lon="9.573559937998652">
<ele>263.4</ele>
<time>2023-05-16T11:02:15Z</time>
</trkpt>
<trkpt lat="48.97990297526121" lon="9.573471928015351">
<ele>263.4</ele>
<time>2023-05-16T11:02:16Z</time>
</trkpt>
<trkpt lat="48.97992795333266" lon="9.57337997853756">
<ele>263.4</ele>
<time>2023-05-16T11:02:17Z</time>
</trkpt>
<trkpt lat="48.979949997738004" lon="9.573282999917865">
<ele>263.4</ele>
<time>2023-05-16T11:02:18Z</time>
</trkpt>
<trkpt lat="48.97996994666755" lon="9.573186943307519">
<ele>263.4</ele>
<time>2023-05-16T11:02:19Z</time>
</trkpt>
<trkpt lat="48.97998796775937" lon="9.573094993829727">
<ele>263.4</ele>
<time>2023-05-16T11:02:20Z</time>
</trkpt>
<trkpt lat="48.98000196553767" lon="9.573004972189665">
<ele>263.4</ele>
<time>2023-05-16T11:02:21Z</time>
</trkpt>
<trkpt lat="48.98002199828625" lon="9.572912938892841">
<ele>263.4</ele>
<time>2023-05-16T11:02:22Z</time>
</trkpt>
<trkpt lat="48.98004496470094" lon="9.572826940566301">
<ele>263.4</ele>
<time>2023-05-16T11:02:23Z</time>
</trkpt>
<trkpt lat="48.98007497191429" lon="9.572749994695187">
<ele>263.4</ele>
<time>2023-05-16T11:02:24Z</time>
</trkpt>
<trkpt lat="48.98009994998574" lon="9.572679921984673">
<ele>263.4</ele>
<time>2023-05-16T11:02:25Z</time>
</trkpt>
<trkpt lat="48.98012291640043" lon="9.572617979720235">
<ele>263.4</ele>
<time>2023-05-16T11:02:26Z</time>
</trkpt>
<trkpt lat="48.980151917785406" lon="9.572559976950288">
<ele>263.4</ele>
<time>2023-05-16T11:02:27Z</time>
</trkpt>
<trkpt lat="48.98017295636237" lon="9.57250197418034">
<ele>263.4</ele>
<time>2023-05-16T11:02:28Z</time>
</trkpt>
<trkpt lat="48.980194916948676" lon="9.572449922561646">
<ele>263.4</ele>
<time>2023-05-16T11:02:29Z</time>
</trkpt>
<trkpt lat="48.980211932212114" lon="9.572399966418743">
<ele>263.4</ele>
<time>2023-05-16T11:02:30Z</time>
</trkpt>
<trkpt lat="48.980231964960694" lon="9.57235193811357">
<ele>263.4</ele>
<time>2023-05-16T11:02:31Z</time>
</trkpt>
<trkpt lat="48.980254931375384" lon="9.572301981970668">
<ele>263.4</ele>
<time>2023-05-16T11:02:32Z</time>
</trkpt>
<trkpt lat="48.98028292693198" lon="9.572244985029101">
<ele>263.6</ele>
<time>2023-05-16T11:02:33Z</time>
</trkpt>
<trkpt lat="48.980317963287234" lon="9.572184970602393">
<ele>263.6</ele>
<time>2023-05-16T11:02:34Z</time>
</trkpt>
<trkpt lat="48.98034495301545" lon="9.572127973660827">
<ele>263.6</ele>
<time>2023-05-16T11:02:35Z</time>
</trkpt>
<trkpt lat="48.98036699742079" lon="9.572072988376021">
<ele>263.6</ele>
<time>2023-05-16T11:02:36Z</time>
</trkpt>
<trkpt lat="48.98039298132062" lon="9.572019930928946">
<ele>263.6</ele>
<time>2023-05-16T11:02:37Z</time>
</trkpt>
<trkpt lat="48.98041795939207" lon="9.571967963129282">
<ele>263.6</ele>
<time>2023-05-16T11:02:38Z</time>
</trkpt>
<trkpt lat="48.98044494912028" lon="9.571919934824109">
<ele>263.6</ele>
<time>2023-05-16T11:02:39Z</time>
</trkpt>
<trkpt lat="48.980471938848495" lon="9.571871990337968">
<ele>263.6</ele>
<time>2023-05-16T11:02:40Z</time>
</trkpt>
<trkpt lat="48.98049792274833" lon="9.571826979517937">
<ele>263.6</ele>
<time>2023-05-16T11:02:41Z</time>
</trkpt>
<trkpt lat="48.9805269241333" lon="9.571781968697906">
<ele>263.6</ele>
<time>2023-05-16T11:02:42Z</time>
</trkpt>
<trkpt lat="48.980552991852164" lon="9.571737963706255">
<ele>263.6</ele>
<time>2023-05-16T11:02:43Z</time>
</trkpt>
<trkpt lat="48.980577969923615" lon="9.571692952886224">
<ele>263.6</ele>
<time>2023-05-16T11:02:44Z</time>
</trkpt>
<trkpt lat="48.98060797713697" lon="9.571649953722954">
<ele>263.6</ele>
<time>2023-05-16T11:02:45Z</time>
</trkpt>
<trkpt lat="48.980637984350324" lon="9.571606954559684">
<ele>263.6</ele>
<time>2023-05-16T11:02:46Z</time>
</trkpt>
<trkpt lat="48.98066799156368" lon="9.571564961224794">
<ele>263.6</ele>
<time>2023-05-16T11:02:47Z</time>
</trkpt>
<trkpt lat="48.98069498129189" lon="9.571524979546666">
<ele>263.6</ele>
<time>2023-05-16T11:02:48Z</time>
</trkpt>
<trkpt lat="48.9807219710201" lon="9.571479968726635">
<ele>263.6</ele>
<time>2023-05-16T11:02:49Z</time>
</trkpt>
<trkpt lat="48.980749966576695" lon="9.571437975391746">
<ele>263.6</ele>
<time>2023-05-16T11:02:50Z</time>
</trkpt>
<trkpt lat="48.98078299127519" lon="9.571399921551347">
<ele>263.6</ele>
<time>2023-05-16T11:02:51Z</time>
</trkpt>
<trkpt lat="48.98081794381142" lon="9.57136295735836">
<ele>263.6</ele>
<time>2023-05-16T11:02:52Z</time>
</trkpt>
<trkpt lat="48.980854991823435" lon="9.571327921003103">
<ele>263.6</ele>
<time>2023-05-16T11:02:53Z</time>
</trkpt>
<trkpt lat="48.9808929618448" lon="9.571294980123639">
<ele>263.6</ele>
<time>2023-05-16T11:02:54Z</time>
</trkpt>
<trkpt lat="48.98092699237168" lon="9.571261955425143">
<ele>263.6</ele>
<time>2023-05-16T11:02:55Z</time>
</trkpt>
<trkpt lat="48.98095699958503" lon="9.571227924898267">
<ele>263.6</ele>
<time>2023-05-16T11:02:56Z</time>
</trkpt>
<trkpt lat="48.9809899404645" lon="9.571194984018803">
<ele>263.6</ele>
<time>2023-05-16T11:02:57Z</time>
</trkpt>
<trkpt lat="48.98101994767785" lon="9.57116992212832">
<ele>263.4</ele>
<time>2023-05-16T11:02:58Z</time>
</trkpt>
<trkpt lat="48.981049954891205" lon="9.571134969592094">
<ele>263.4</ele>
<time>2023-05-16T11:02:59Z</time>
</trkpt>
<trkpt lat="48.98108499124646" lon="9.571097921580076">
<ele>263.4</ele>
<time>2023-05-16T11:03:00Z</time>
</trkpt>
<trkpt lat="48.98111994378269" lon="9.571069926023483">
<ele>263.20000000000005</ele>
<time>2023-05-16T11:03:01Z</time>
</trkpt>
<trkpt lat="48.98114995099604" lon="9.571044947952032">
<ele>263.20000000000005</ele>
<time>2023-05-16T11:03:02Z</time>
</trkpt>
<trkpt lat="48.98116797208786" lon="9.571024999022484">
<ele>263.20000000000005</ele>
<time>2023-05-16T11:03:03Z</time>
</trkpt>
<trkpt lat="48.981201918795705" lon="9.57099792547524">
<ele>263</ele>
<time>2023-05-16T11:03:04Z</time>
</trkpt>
<trkpt lat="48.98123192600906" lon="9.570967918261886">
<ele>263</ele>
<time>2023-05-16T11:03:05Z</time>
</trkpt>
<trkpt lat="48.981262939050794" lon="9.570937994867563">
<ele>263</ele>
<time>2023-05-16T11:03:06Z</time>
</trkpt>
<trkpt lat="48.981286995112896" lon="9.570906981825829">
<ele>263</ele>
<time>2023-05-16T11:03:07Z</time>
</trkpt>
<trkpt lat="48.98131297901273" lon="9.570877980440855">
<ele>263</ele>
<time>2023-05-16T11:03:08Z</time>
</trkpt>
<trkpt lat="48.9813369512558" lon="9.570849984884262">
<ele>263</ele>
<time>2023-05-16T11:03:09Z</time>
</trkpt>
<trkpt lat="48.98136293515563" lon="9.57082299515605">
<ele>263</ele>
<time>2023-05-16T11:03:10Z</time>
</trkpt>
<trkpt lat="48.98138799704611" lon="9.570799944922328">
<ele>262.79999999999995</ele>
<time>2023-05-16T11:03:11Z</time>
</trkpt>
<trkpt lat="48.98140694014728" lon="9.57078192383051">
<ele>262.79999999999995</ele>
<time>2023-05-16T11:03:12Z</time>
</trkpt>
<trkpt lat="48.98141699843109" lon="9.570769937708974">
<ele>262.79999999999995</ele>
<time>2023-05-16T11:03:13Z</time>
</trkpt>
<trkpt lat="48.9814249612391" lon="9.570762980729342">
<ele>262.79999999999995</ele>
<time>2023-05-16T11:03:14Z</time>
</trkpt>
<trkpt lat="48.98142797872424" lon="9.570761974900961">
<ele>262.79999999999995</ele>
<time>2023-05-16T11:03:15Z</time>
</trkpt>
<trkpt lat="48.98149193264544" lon="9.570721993222833">
<ele>262.6</ele>
<time>2023-05-16T11:03:17Z</time>
</trkpt>
<trkpt lat="48.981521939858794" lon="9.570704977959394">
<ele>262.6</ele>
<time>2023-05-16T11:03:18Z</time>
</trkpt>
<trkpt lat="48.98155496455729" lon="9.570689974352717">
<ele>262.6</ele>
<time>2023-05-16T11:03:19Z</time>
</trkpt>
<trkpt lat="48.98159192875028" lon="9.570671953260899">
<ele>262.6</ele>
<time>2023-05-16T11:03:20Z</time>
</trkpt>
<trkpt lat="48.981626965105534" lon="9.57064999267459">
<ele>262.6</ele>
<time>2023-05-16T11:03:21Z</time>
</trkpt>
<trkpt lat="48.98166694678366" lon="9.570627948269248">
<ele>262.6</ele>
<time>2023-05-16T11:03:22Z</time>
</trkpt>
<trkpt lat="48.9817029889673" lon="9.57060699351132">
<ele>262.6</ele>
<time>2023-05-16T11:03:23Z</time>
</trkpt>
<trkpt lat="48.981736935675144" lon="9.570584949105978">
<ele>262.6</ele>
<time>2023-05-16T11:03:24Z</time>
</trkpt>
<trkpt lat="48.9817719720304" lon="9.570562988519669">
<ele>262.6</ele>
<time>2023-05-16T11:03:25Z</time>
</trkpt>
<trkpt lat="48.98180692456663" lon="9.570542955771089">
<ele>262.6</ele>
<time>2023-05-16T11:03:26Z</time>
</trkpt>
<trkpt lat="48.981842966750264" lon="9.570521917194128">
<ele>262.6</ele>
<time>2023-05-16T11:03:27Z</time>
</trkpt>
<trkpt lat="48.98187993094325" lon="9.570497944951057">
<ele>262.79999999999995</ele>
<time>2023-05-16T11:03:28Z</time>
</trkpt>
<trkpt lat="48.98191999644041" lon="9.570476990193129">
<ele>262.79999999999995</ele>
<time>2023-05-16T11:03:29Z</time>
</trkpt>
<trkpt lat="48.98195997811854" lon="9.570452934131026">
<ele>262.79999999999995</ele>
<time>2023-05-16T11:03:30Z</time>
</trkpt>
<trkpt lat="48.98200197145343" lon="9.570427956059575">
<ele>262.79999999999995</ele>
<time>2023-05-16T11:03:31Z</time>
</trkpt>
<trkpt lat="48.9820449706167" lon="9.570404989644885">
<ele>262.79999999999995</ele>
<time>2023-05-16T11:03:32Z</time>
</trkpt>
<trkpt lat="48.98208796977997" lon="9.570384956896305">
<ele>262.79999999999995</ele>
<time>2023-05-16T11:03:33Z</time>
</trkpt>
<trkpt lat="48.98213197477162" lon="9.570362996309996">
<ele>262.79999999999995</ele>
<time>2023-05-16T11:03:34Z</time>
</trkpt>
<trkpt lat="48.98217497393489" lon="9.570339946076274">
<ele>262.79999999999995</ele>
<time>2023-05-16T11:03:35Z</time>
</trkpt>
<trkpt lat="48.98221797309816" lon="9.570314968004823">
<ele>262.79999999999995</ele>
<time>2023-05-16T11:03:36Z</time>
</trkpt>
<trkpt lat="48.98225996643305" lon="9.57028697244823">
<ele>262.79999999999995</ele>
<time>2023-05-16T11:03:37Z</time>
</trkpt>
<trkpt lat="48.98230497725308" lon="9.570256965234876">
<ele>262.79999999999995</ele>
<time>2023-05-16T11:03:38Z</time>
</trkpt>
<trkpt lat="48.98234697058797" lon="9.570227963849902">
<ele>262.79999999999995</ele>
<time>2023-05-16T11:03:39Z</time>
</trkpt>
<trkpt lat="48.98238795809448" lon="9.57019996829331">
<ele>262.79999999999995</ele>
<time>2023-05-16T11:03:40Z</time>
</trkpt>
<trkpt lat="48.982427939772606" lon="9.570176918059587">
<ele>262.79999999999995</ele>
<time>2023-05-16T11:03:41Z</time>
</trkpt>
<trkpt lat="48.982467921450734" lon="9.570159986615181">
<ele>262.6</ele>
<time>2023-05-16T11:03:42Z</time>
</trkpt>
<trkpt lat="48.982507986947894" lon="9.570139953866601">
<ele>262.6</ele>
<time>2023-05-16T11:03:43Z</time>
</trkpt>
<trkpt lat="48.98254696279764" lon="9.570116987451911">
<ele>262.6</ele>
<time>2023-05-16T11:03:44Z</time>
</trkpt>
<trkpt lat="48.9825819991529" lon="9.570091925561428">
<ele>262.6</ele>
<time>2023-05-16T11:03:45Z</time>
</trkpt>
<trkpt lat="48.982617957517505" lon="9.57007197663188">
<ele>262.6</ele>
<time>2023-05-16T11:03:46Z</time>
</trkpt>
<trkpt lat="48.98265793919563" lon="9.570056973025203">
<ele>262.6</ele>
<time>2023-05-16T11:03:47Z</time>
</trkpt>
<trkpt lat="48.98269297555089" lon="9.570044986903667">
<ele>262.6</ele>
<time>2023-05-16T11:03:48Z</time>
</trkpt>
<trkpt lat="48.982727928087115" lon="9.570024954155087">
<ele>262.6</ele>
<time>2023-05-16T11:03:49Z</time>
</trkpt>
<trkpt lat="48.982749972492456" lon="9.569997964426875">
<ele>262.6</ele>
<time>2023-05-16T11:03:50Z</time>
</trkpt>
<trkpt lat="48.98276497609913" lon="9.569961922243237">
<ele>262.6</ele>
<time>2023-05-16T11:03:51Z</time>
</trkpt>
<trkpt lat="48.98277495056391" lon="9.569917917251587">
<ele>262.6</ele>
<time>2023-05-16T11:03:52Z</time>
</trkpt>
<trkpt lat="48.98278199136257" lon="9.569864943623543">
<ele>262.6</ele>
<time>2023-05-16T11:03:53Z</time>
</trkpt>
<trkpt lat="48.982789954170585" lon="9.56981297582388">
<ele>262.6</ele>
<time>2023-05-16T11:03:54Z</time>
</trkpt>
<trkpt lat="48.98279498331249" lon="9.569752961397171">
<ele>262.6</ele>
<time>2023-05-16T11:03:55Z</time>
</trkpt>
<trkpt lat="48.9828029461205" lon="9.56968791782856">
<ele>262.6</ele>
<time>2023-05-16T11:03:56Z</time>
</trkpt>
<trkpt lat="48.9828079752624" lon="9.56962295807898">
<ele>262.6</ele>
<time>2023-05-16T11:03:57Z</time>
</trkpt>
<trkpt lat="48.9828169438988" lon="9.569551963359118">
<ele>262.6</ele>
<time>2023-05-16T11:03:58Z</time>
</trkpt>
<trkpt lat="48.9828219730407" lon="9.569476945325732">
<ele>262.6</ele>
<time>2023-05-16T11:03:59Z</time>
</trkpt>
<trkpt lat="48.9828219730407" lon="9.569402933120728">
<ele>262.4</ele>
<time>2023-05-16T11:04:00Z</time>
</trkpt>
<trkpt lat="48.98282499052584" lon="9.569327998906374">
<ele>262.4</ele>
<time>2023-05-16T11:04:01Z</time>
</trkpt>
<trkpt lat="48.982831947505474" lon="9.569251975044608">
<ele>262.4</ele>
<time>2023-05-16T11:04:02Z</time>
</trkpt>
<trkpt lat="48.982831947505474" lon="9.5691729336977">
<ele>262.4</ele>
<time>2023-05-16T11:04:03Z</time>
</trkpt>
<trkpt lat="48.98282792419195" lon="9.569094981998205">
<ele>262.4</ele>
<time>2023-05-16T11:04:04Z</time>
</trkpt>
<trkpt lat="48.982831947505474" lon="9.569016946479678">
<ele>262.4</ele>
<time>2023-05-16T11:04:05Z</time>
</trkpt>
<trkpt lat="48.98283798247576" lon="9.568941928446293">
<ele>262.4</ele>
<time>2023-05-16T11:04:06Z</time>
</trkpt>
<trkpt lat="48.98284695111215" lon="9.568867916241288">
<ele>262.4</ele>
<time>2023-05-16T11:04:07Z</time>
</trkpt>
<trkpt lat="48.98286296054721" lon="9.568791976198554">
<ele>262.4</ele>
<time>2023-05-16T11:04:08Z</time>
</trkpt>
<trkpt lat="48.98288492113352" lon="9.568712934851646">
<ele>262.4</ele>
<time>2023-05-16T11:04:09Z</time>
</trkpt>
<trkpt lat="48.982894979417324" lon="9.568636994808912">
<ele>262.20000000000005</ele>
<time>2023-05-16T11:04:10Z</time>
</trkpt>
<trkpt lat="48.982899924740195" lon="9.568561976775527">
<ele>262.20000000000005</ele>
<time>2023-05-16T11:04:11Z</time>
</trkpt>
<trkpt lat="48.98290696553886" lon="9.568487964570522">
<ele>262.20000000000005</ele>
<time>2023-05-16T11:04:12Z</time>
</trkpt>
<trkpt lat="48.98291694000363" lon="9.568414958193898">
<ele>262.20000000000005</ele>
<time>2023-05-16T11:04:13Z</time>
</trkpt>
<trkpt lat="48.982921969145536" lon="9.568346980959177">
<ele>262.20000000000005</ele>
<time>2023-05-16T11:04:14Z</time>
</trkpt>
<trkpt lat="48.98293496109545" lon="9.568276992067695">
<ele>262.20000000000005</ele>
<time>2023-05-16T11:04:15Z</time>
</trkpt>
<trkpt lat="48.98294795304537" lon="9.568207925185561">
<ele>262.20000000000005</ele>
<time>2023-05-16T11:04:16Z</time>
</trkpt>
<trkpt lat="48.98295792751014" lon="9.56813994795084">
<ele>262.20000000000005</ele>
<time>2023-05-16T11:04:17Z</time>
</trkpt>
<trkpt lat="48.982961950823665" lon="9.5680729765445">
<ele>262.20000000000005</ele>
<time>2023-05-16T11:04:18Z</time>
</trkpt>
<trkpt lat="48.982964968308806" lon="9.56801195628941">
<ele>262.20000000000005</ele>
<time>2023-05-16T11:04:19Z</time>
</trkpt>
<trkpt lat="48.98297192528844" lon="9.56794791854918">
<ele>262</ele>
<time>2023-05-16T11:04:20Z</time>
</trkpt>
<trkpt lat="48.982984917238355" lon="9.5678829587996">
<ele>262</ele>
<time>2023-05-16T11:04:21Z</time>
</trkpt>
<trkpt lat="48.98299698717892" lon="9.56781699322164">
<ele>262</ele>
<time>2023-05-16T11:04:22Z</time>
</trkpt>
<trkpt lat="48.9830119907856" lon="9.567747926339507">
<ele>262</ele>
<time>2023-05-16T11:04:23Z</time>
</trkpt>
<trkpt lat="48.98302297107875" lon="9.567674919962883">
<ele>262</ele>
<time>2023-05-16T11:04:24Z</time>
</trkpt>
<trkpt lat="48.98303696885705" lon="9.56760199740529">
<ele>262</ele>
<time>2023-05-16T11:04:25Z</time>
</trkpt>
<trkpt lat="48.98305498994887" lon="9.567534942179918">
<ele>262</ele>
<time>2023-05-16T11:04:26Z</time>
</trkpt>
<trkpt lat="48.98307493887842" lon="9.567461935803294">
<ele>261.79999999999995</ele>
<time>2023-05-16T11:04:27Z</time>
</trkpt>
<trkpt lat="48.983091954141855" lon="9.56738993525505">
<ele>261.79999999999995</ele>
<time>2023-05-16T11:04:28Z</time>
</trkpt>
<trkpt lat="48.98310796357691" lon="9.567317934706807">
<ele>261.79999999999995</ele>
<time>2023-05-16T11:04:29Z</time>
</trkpt>
<trkpt lat="48.98312497884035" lon="9.567244928330183">
<ele>261.79999999999995</ele>
<time>2023-05-16T11:04:30Z</time>
</trkpt>
<trkpt lat="48.98314199410379" lon="9.567171921953559">
<ele>261.79999999999995</ele>
<time>2023-05-16T11:04:31Z</time>
</trkpt>
<trkpt lat="48.98316194303334" lon="9.567102938890457">
<ele>261.79999999999995</ele>
<time>2023-05-16T11:04:32Z</time>
</trkpt>
<trkpt lat="48.983179964125156" lon="9.567032949998975">
<ele>261.79999999999995</ele>
<time>2023-05-16T11:04:33Z</time>
</trkpt>
<trkpt lat="48.983196979388595" lon="9.566966984421015">
<ele>261.79999999999995</ele>
<time>2023-05-16T11:04:34Z</time>
</trkpt>
<trkpt lat="48.98321298882365" lon="9.566901940852404">
<ele>261.79999999999995</ele>
<time>2023-05-16T11:04:35Z</time>
</trkpt>
<trkpt lat="48.98323193192482" lon="9.566836981102824">
<ele>261.79999999999995</ele>
<time>2023-05-16T11:04:36Z</time>
</trkpt>
<trkpt lat="48.9832519646734" lon="9.566771937534213">
<ele>261.79999999999995</ele>
<time>2023-05-16T11:04:37Z</time>
</trkpt>
<trkpt lat="48.98327199742198" lon="9.566704966127872">
<ele>261.79999999999995</ele>
<time>2023-05-16T11:04:38Z</time>
</trkpt>
<trkpt lat="48.983287923038006" lon="9.566639922559261">
<ele>261.6</ele>
<time>2023-05-16T11:04:39Z</time>
</trkpt>
<trkpt lat="48.98330996744335" lon="9.56657295115292">
<ele>261.6</ele>
<time>2023-05-16T11:04:40Z</time>
</trkpt>
<trkpt lat="48.983331928029656" lon="9.5665049739182">
<ele>261.6</ele>
<time>2023-05-16T11:04:41Z</time>
</trkpt>
<trkpt lat="48.98334693163633" lon="9.566439930349588">
<ele>261.6</ele>
<time>2023-05-16T11:04:42Z</time>
</trkpt>
<trkpt lat="48.98336696438491" lon="9.566371953114867">
<ele>261.6</ele>
<time>2023-05-16T11:04:43Z</time>
</trkpt>
<trkpt lat="48.98338196799159" lon="9.566302970051765">
<ele>261.6</ele>
<time>2023-05-16T11:04:44Z</time>
</trkpt>
<trkpt lat="48.983394959941506" lon="9.566234992817044">
<ele>261.6</ele>
<time>2023-05-16T11:04:45Z</time>
</trkpt>
<trkpt lat="48.98340795189142" lon="9.566166931763291">
<ele>261.6</ele>
<time>2023-05-16T11:04:46Z</time>
</trkpt>
<trkpt lat="48.983417926356196" lon="9.566096942871809">
<ele>261.4</ele>
<time>2023-05-16T11:04:47Z</time>
</trkpt>
<trkpt lat="48.98343292996287" lon="9.566026953980327">
<ele>261.4</ele>
<time>2023-05-16T11:04:48Z</time>
</trkpt>
<trkpt lat="48.98345195688307" lon="9.565956965088844">
<ele>261.4</ele>
<time>2023-05-16T11:04:49Z</time>
</trkpt>
<trkpt lat="48.98347198963165" lon="9.5658849645406">
<ele>261.4</ele>
<time>2023-05-16T11:04:50Z</time>
</trkpt>
<trkpt lat="48.98348498158157" lon="9.565814975649118">
<ele>261.4</ele>
<time>2023-05-16T11:04:51Z</time>
</trkpt>
<trkpt lat="48.98349495604634" lon="9.565744986757636">
<ele>261.4</ele>
<time>2023-05-16T11:04:52Z</time>
</trkpt>
<trkpt lat="48.983502918854356" lon="9.565677931532264">
<ele>261.20000000000005</ele>
<time>2023-05-16T11:04:53Z</time>
</trkpt>
<trkpt lat="48.98351691663265" lon="9.565612971782684">
<ele>261.20000000000005</ele>
<time>2023-05-16T11:04:54Z</time>
</trkpt>
<trkpt lat="48.98353292606771" lon="9.565547928214073">
<ele>261.20000000000005</ele>
<time>2023-05-16T11:04:55Z</time>
</trkpt>
<trkpt lat="48.98354792967439" lon="9.565491937100887">
<ele>261</ele>
<time>2023-05-16T11:04:56Z</time>
</trkpt>
<trkpt lat="48.983562933281064" lon="9.56542999483645">
<ele>261</ele>
<time>2023-05-16T11:04:57Z</time>
</trkpt>
<trkpt lat="48.98358196020126" lon="9.56536796875298">
<ele>261</ele>
<time>2023-05-16T11:04:58Z</time>
</trkpt>
<trkpt lat="48.98359796963632" lon="9.565302925184369">
<ele>261</ele>
<time>2023-05-16T11:04:59Z</time>
</trkpt>
<trkpt lat="48.98361196741462" lon="9.56523796543479">
<ele>261</ele>
<time>2023-05-16T11:05:00Z</time>
</trkpt>
<trkpt lat="48.98362495936453" lon="9.565177951008081">
<ele>261</ele>
<time>2023-05-16T11:05:01Z</time>
</trkpt>
<trkpt lat="48.983629988506436" lon="9.565119948238134">
<ele>261</ele>
<time>2023-05-16T11:05:02Z</time>
</trkpt>
<trkpt lat="48.98363493382931" lon="9.565054988488555">
<ele>261</ele>
<time>2023-05-16T11:05:03Z</time>
</trkpt>
<trkpt lat="48.98364691995084" lon="9.564991956576705">
<ele>261</ele>
<time>2023-05-16T11:05:04Z</time>
</trkpt>
<trkpt lat="48.98365798406303" lon="9.564932947978377">
<ele>261</ele>
<time>2023-05-16T11:05:05Z</time>
</trkpt>
<trkpt lat="48.983671981841326" lon="9.564869999885559">
<ele>261</ele>
<time>2023-05-16T11:05:06Z</time>
</trkpt>
<trkpt lat="48.98368497379124" lon="9.564804956316948">
<ele>261</ele>
<time>2023-05-16T11:05:07Z</time>
</trkpt>
<trkpt lat="48.98370198905468" lon="9.564739996567369">
<ele>261</ele>
<time>2023-05-16T11:05:08Z</time>
</trkpt>
<trkpt lat="48.98371699266136" lon="9.564676964655519">
<ele>261</ele>
<time>2023-05-16T11:05:09Z</time>
</trkpt>
<trkpt lat="48.983734929934144" lon="9.564609993249178">
<ele>261</ele>
<time>2023-05-16T11:05:10Z</time>
</trkpt>
<trkpt lat="48.98375295102596" lon="9.564544949680567">
<ele>261</ele>
<time>2023-05-16T11:05:11Z</time>
</trkpt>
<trkpt lat="48.98377197794616" lon="9.564479989930987">
<ele>261</ele>
<time>2023-05-16T11:05:12Z</time>
</trkpt>
<trkpt lat="48.98378999903798" lon="9.564412934705615">
<ele>261</ele>
<time>2023-05-16T11:05:13Z</time>
</trkpt>
<trkpt lat="48.98380793631077" lon="9.564344957470894">
<ele>261</ele>
<time>2023-05-16T11:05:14Z</time>
</trkpt>
<trkpt lat="48.983824951574206" lon="9.56427295692265">
<ele>261</ele>
<time>2023-05-16T11:05:15Z</time>
</trkpt>
<trkpt lat="48.983841966837645" lon="9.5642099250108">
<ele>261</ele>
<time>2023-05-16T11:05:16Z</time>
</trkpt>
<trkpt lat="48.9838579762727" lon="9.564144965261221">
<ele>261</ele>
<time>2023-05-16T11:05:17Z</time>
</trkpt>
<trkpt lat="48.98387297987938" lon="9.5640769880265">
<ele>261</ele>
<time>2023-05-16T11:05:18Z</time>
</trkpt>
<trkpt lat="48.98389192298055" lon="9.56401496194303">
<ele>261</ele>
<time>2023-05-16T11:05:19Z</time>
</trkpt>
<trkpt lat="48.98391195572913" lon="9.563954947516322">
<ele>261</ele>
<time>2023-05-16T11:05:20Z</time>
</trkpt>
<trkpt lat="48.983929976820946" lon="9.563889987766743">
<ele>261</ele>
<time>2023-05-16T11:05:21Z</time>
</trkpt>
<trkpt lat="48.983949925750494" lon="9.563826955854893">
<ele>261</ele>
<time>2023-05-16T11:05:22Z</time>
</trkpt>
<trkpt lat="48.98396694101393" lon="9.563761996105313">
<ele>261</ele>
<time>2023-05-16T11:05:23Z</time>
</trkpt>
<trkpt lat="48.98398496210575" lon="9.563702987506986">
<ele>261</ele>
<time>2023-05-16T11:05:24Z</time>
</trkpt>
<trkpt lat="48.98399996571243" lon="9.563647918403149">
<ele>261</ele>
<time>2023-05-16T11:05:25Z</time>
</trkpt>
<trkpt lat="48.98401798680425" lon="9.563589999452233">
<ele>261</ele>
<time>2023-05-16T11:05:26Z</time>
</trkpt>
<trkpt lat="48.98403491824865" lon="9.563534930348396">
<ele>261</ele>
<time>2023-05-16T11:05:27Z</time>
</trkpt>
<trkpt lat="48.98405495099723" lon="9.56347499974072">
<ele>261</ele>
<time>2023-05-16T11:05:28Z</time>
</trkpt>
<trkpt lat="48.98407196626067" lon="9.563417918980122">
<ele>261</ele>
<time>2023-05-16T11:05:29Z</time>
</trkpt>
<trkpt lat="48.9840929210186" lon="9.563361927866936">
<ele>261</ele>
<time>2023-05-16T11:05:30Z</time>
</trkpt>
<trkpt lat="48.9841119479388" lon="9.563296968117356">
<ele>261</ele>
<time>2023-05-16T11:05:31Z</time>
</trkpt>
<trkpt lat="48.98412795737386" lon="9.563234942033887">
<ele>261</ele>
<time>2023-05-16T11:05:32Z</time>
</trkpt>
<trkpt lat="48.98414799012244" lon="9.56317693926394">
<ele>261</ele>
<time>2023-05-16T11:05:33Z</time>
</trkpt>
<trkpt lat="48.98416995070875" lon="9.563116924837232">
<ele>261</ele>
<time>2023-05-16T11:05:34Z</time>
</trkpt>
<trkpt lat="48.98418998345733" lon="9.563059927895665">
<ele>261</ele>
<time>2023-05-16T11:05:35Z</time>
</trkpt>
<trkpt lat="48.984207920730114" lon="9.56300494261086">
<ele>261</ele>
<time>2023-05-16T11:05:36Z</time>
</trkpt>
<trkpt lat="48.98422493599355" lon="9.562944928184152">
<ele>261</ele>
<time>2023-05-16T11:05:37Z</time>
</trkpt>
<trkpt lat="48.98423792794347" lon="9.562881980091333">
<ele>261</ele>
<time>2023-05-16T11:05:38Z</time>
</trkpt>
<trkpt lat="48.984252931550145" lon="9.562817942351103">
<ele>261</ele>
<time>2023-05-16T11:05:39Z</time>
</trkpt>
<trkpt lat="48.98426793515682" lon="9.562752982601523">
<ele>261</ele>
<time>2023-05-16T11:05:40Z</time>
</trkpt>
<trkpt lat="48.98428495042026" lon="9.562687939032912">
<ele>261</ele>
<time>2023-05-16T11:05:41Z</time>
</trkpt>
<trkpt lat="48.98428997956216" lon="9.562632953748107">
<ele>261</ele>
<time>2023-05-16T11:05:42Z</time>
</trkpt>
<trkpt lat="48.984291991218925" lon="9.562582997605205">
<ele>261</ele>
<time>2023-05-16T11:05:43Z</time>
</trkpt>
<trkpt lat="48.984294924885035" lon="9.56253295764327">
<ele>261</ele>
<time>2023-05-16T11:05:44Z</time>
</trkpt>
<trkpt lat="48.984296936541796" lon="9.562482917681336">
<ele>261</ele>
<time>2023-05-16T11:05:45Z</time>
</trkpt>
<trkpt lat="48.984297942370176" lon="9.562434973195195">
<ele>261</ele>
<time>2023-05-16T11:05:46Z</time>
</trkpt>
<trkpt lat="48.98430498316884" lon="9.562391974031925">
<ele>261</ele>
<time>2023-05-16T11:05:47Z</time>
</trkpt>
<trkpt lat="48.98431194014847" lon="9.562346963211894">
<ele>261</ele>
<time>2023-05-16T11:05:48Z</time>
</trkpt>
<trkpt lat="48.98431998677552" lon="9.562302958220243">
<ele>261</ele>
<time>2023-05-16T11:05:49Z</time>
</trkpt>
<trkpt lat="48.98433197289705" lon="9.562267921864986">
<ele>261</ele>
<time>2023-05-16T11:05:50Z</time>
</trkpt>
<trkpt lat="48.9843519218266" lon="9.562241937965155">
<ele>261</ele>
<time>2023-05-16T11:05:51Z</time>
</trkpt>
<trkpt lat="48.984376983717084" lon="9.562222994863987">
<ele>261</ele>
<time>2023-05-16T11:05:52Z</time>
</trkpt>
<trkpt lat="48.98440799675882" lon="9.562217965722084">
<ele>261</ele>
<time>2023-05-16T11:05:53Z</time>
</trkpt>
<trkpt lat="48.984442949295044" lon="9.562216959893703">
<ele>261</ele>
<time>2023-05-16T11:05:54Z</time>
</trkpt>
<trkpt lat="48.98447496816516" lon="9.562216959893703">
<ele>261</ele>
<time>2023-05-16T11:05:55Z</time>
</trkpt>
<trkpt lat="48.984507992863655" lon="9.562216959893703">
<ele>261</ele>
<time>2023-05-16T11:05:56Z</time>
</trkpt>
<trkpt lat="48.9845419395715" lon="9.562216959893703">
<ele>261</ele>
<time>2023-05-16T11:05:57Z</time>
</trkpt>
<trkpt lat="48.984571946784854" lon="9.562216959893703">
<ele>261</ele>
<time>2023-05-16T11:05:58Z</time>
</trkpt>
<trkpt lat="48.98460195399821" lon="9.562214948236942">
<ele>261</ele>
<time>2023-05-16T11:05:59Z</time>
</trkpt>
<trkpt lat="48.9846249204129" lon="9.562217965722084">
<ele>261</ele>
<time>2023-05-16T11:06:00Z</time>
</trkpt>
<trkpt lat="48.98464495316148" lon="9.562219977378845">
<ele>261</ele>
<time>2023-05-16T11:06:01Z</time>
</trkpt>
<trkpt lat="48.98466699756682" lon="9.562219977378845">
<ele>261</ele>
<time>2023-05-16T11:06:02Z</time>
</trkpt>
<trkpt lat="48.98469298146665" lon="9.562216959893703">
<ele>261.20000000000005</ele>
<time>2023-05-16T11:06:03Z</time>
</trkpt>
<trkpt lat="48.98471997119486" lon="9.562217965722084">
<ele>261.20000000000005</ele>
<time>2023-05-16T11:06:04Z</time>
</trkpt>
<trkpt lat="48.98475199006498" lon="9.562221989035606">
<ele>261.20000000000005</ele>
<time>2023-05-16T11:06:05Z</time>
</trkpt>
<trkpt lat="48.98478493094444" lon="9.562226934358478">
<ele>261.4</ele>
<time>2023-05-16T11:06:06Z</time>
</trkpt>
<trkpt lat="48.98482298478484" lon="9.562242943793535">
<ele>261.6</ele>
<time>2023-05-16T11:06:07Z</time>
</trkpt>
<trkpt lat="48.98486196063459" lon="9.56227295100689">
<ele>261.6</ele>
<time>2023-05-16T11:06:08Z</time>
</trkpt>
<trkpt lat="48.984894985333085" lon="9.56231695599854">
<ele>261.6</ele>
<time>2023-05-16T11:06:09Z</time>
</trkpt>
<trkpt lat="48.98493295535445" lon="9.56235995516181">
<ele>261.79999999999995</ele>
<time>2023-05-16T11:06:10Z</time>
</trkpt>
<trkpt lat="48.9849719312042" lon="9.562406977638602">
<ele>261.79999999999995</ele>
<time>2023-05-16T11:06:11Z</time>
</trkpt>
<trkpt lat="48.98500696755946" lon="9.562452994287014">
<ele>261.79999999999995</ele>
<time>2023-05-16T11:06:12Z</time>
</trkpt>
<trkpt lat="48.98503999225795" lon="9.562492975965142">
<ele>261.79999999999995</ele>
<time>2023-05-16T11:06:13Z</time>
</trkpt>
<trkpt lat="48.98507293313742" lon="9.562522983178496">
<ele>261.79999999999995</ele>
<time>2023-05-16T11:06:14Z</time>
</trkpt>
<trkpt lat="48.98510495200753" lon="9.562529940158129">
<ele>261.79999999999995</ele>
<time>2023-05-16T11:06:15Z</time>
</trkpt>
<trkpt lat="48.985134959220886" lon="9.56250797957182">
<ele>261.79999999999995</ele>
<time>2023-05-16T11:06:16Z</time>
</trkpt>
<trkpt lat="48.985156919807196" lon="9.56246498040855">
<ele>261.6</ele>
<time>2023-05-16T11:06:17Z</time>
</trkpt>
<trkpt lat="48.985177958384156" lon="9.562411922961473">
<ele>261.6</ele>
<time>2023-05-16T11:06:18Z</time>
</trkpt>
<trkpt lat="48.985199918970466" lon="9.562356937676668">
<ele>261.6</ele>
<time>2023-05-16T11:06:19Z</time>
</trkpt>
<trkpt lat="48.98522296920419" lon="9.562299940735102">
<ele>261.6</ele>
<time>2023-05-16T11:06:20Z</time>
</trkpt>
<trkpt lat="48.9852499589324" lon="9.562241937965155">
<ele>261.4</ele>
<time>2023-05-16T11:06:21Z</time>
</trkpt>
<trkpt lat="48.98527694866061" lon="9.562181923538446">
<ele>261.4</ele>
<time>2023-05-16T11:06:22Z</time>
</trkpt>
<trkpt lat="48.985299998894334" lon="9.56212199293077">
<ele>261.4</ele>
<time>2023-05-16T11:06:23Z</time>
</trkpt>
<trkpt lat="48.985322965309024" lon="9.562062984332442">
<ele>261.20000000000005</ele>
<time>2023-05-16T11:06:24Z</time>
</trkpt>
<trkpt lat="48.985347943380475" lon="9.562006993219256">
<ele>261.20000000000005</ele>
<time>2023-05-16T11:06:25Z</time>
</trkpt>
<trkpt lat="48.985372921451926" lon="9.56194999627769">
<ele>261.20000000000005</ele>
<time>2023-05-16T11:06:26Z</time>
</trkpt>
<trkpt lat="48.98539798334241" lon="9.561896938830614">
<ele>261</ele>
<time>2023-05-16T11:06:27Z</time>
</trkpt>
<trkpt lat="48.98542497307062" lon="9.561837930232286">
<ele>261</ele>
<time>2023-05-16T11:06:28Z</time>
</trkpt>
<trkpt lat="48.98544995114207" lon="9.561782944947481">
<ele>261</ele>
<time>2023-05-16T11:06:29Z</time>
</trkpt>
<trkpt lat="48.985474929213524" lon="9.561727959662676">
<ele>261</ele>
<time>2023-05-16T11:06:30Z</time>
</trkpt>
<trkpt lat="48.985501918941736" lon="9.561677919700742">
<ele>261</ele>
<time>2023-05-16T11:06:31Z</time>
</trkpt>
<trkpt lat="48.98553494364023" lon="9.561639949679375">
<ele>260.79999999999995</ele>
<time>2023-05-16T11:06:32Z</time>
</trkpt>
<trkpt lat="48.98557693697512" lon="9.561622934415936">
<ele>260.79999999999995</ele>
<time>2023-05-16T11:06:33Z</time>
</trkpt>
<trkpt lat="48.98561993613839" lon="9.561622934415936">
<ele>260.79999999999995</ele>
<time>2023-05-16T11:06:34Z</time>
</trkpt>
<trkpt lat="48.985666958615184" lon="9.561624946072698">
<ele>260.79999999999995</ele>
<time>2023-05-16T11:06:35Z</time>
</trkpt>
<trkpt lat="48.98571498692036" lon="9.56162796355784">
<ele>260.79999999999995</ele>
<time>2023-05-16T11:06:36Z</time>
</trkpt>
<trkpt lat="48.98575798608363" lon="9.561641961336136">
<ele>260.79999999999995</ele>
<time>2023-05-16T11:06:37Z</time>
</trkpt>
<trkpt lat="48.98580299690366" lon="9.561657970771194">
<ele>260.79999999999995</ele>
<time>2023-05-16T11:06:38Z</time>
</trkpt>
<trkpt lat="48.985842978581786" lon="9.561662999913096">
<ele>260.79999999999995</ele>
<time>2023-05-16T11:06:39Z</time>
</trkpt>
<trkpt lat="48.9858749974519" lon="9.561642967164516">
<ele>260.79999999999995</ele>
<time>2023-05-16T11:06:40Z</time>
</trkpt>
<trkpt lat="48.98589695803821" lon="9.561599968001246">
<ele>260.79999999999995</ele>
<time>2023-05-16T11:06:41Z</time>
</trkpt>
<trkpt lat="48.98591296747327" lon="9.561551939696074">
<ele>261</ele>
<time>2023-05-16T11:06:42Z</time>
</trkpt>
<trkpt lat="48.985927971079946" lon="9.561502989381552">
<ele>261</ele>
<time>2023-05-16T11:06:43Z</time>
</trkpt>
<trkpt lat="48.985944986343384" lon="9.561451943591237">
<ele>261</ele>
<time>2023-05-16T11:06:44Z</time>
</trkpt>
<trkpt lat="48.98596493527293" lon="9.561402993276715">
<ele>261</ele>
<time>2023-05-16T11:06:45Z</time>
</trkpt>
<trkpt lat="48.98598697967827" lon="9.56134993582964">
<ele>261</ele>
<time>2023-05-16T11:06:46Z</time>
</trkpt>
<trkpt lat="48.98600692860782" lon="9.561294950544834">
<ele>261.20000000000005</ele>
<time>2023-05-16T11:06:47Z</time>
</trkpt>
<trkpt lat="48.986031990498304" lon="9.561231918632984">
<ele>261.20000000000005</ele>
<time>2023-05-16T11:06:48Z</time>
</trkpt>
<trkpt lat="48.986054956912994" lon="9.561166958883405">
<ele>261.20000000000005</ele>
<time>2023-05-16T11:06:49Z</time>
</trkpt>
<trkpt lat="48.986079934984446" lon="9.561096969991922">
<ele>261.20000000000005</ele>
<time>2023-05-16T11:06:50Z</time>
</trkpt>
<trkpt lat="48.98610499687493" lon="9.56102698110044">
<ele>261.20000000000005</ele>
<time>2023-05-16T11:06:51Z</time>
</trkpt>
<trkpt lat="48.98612997494638" lon="9.560954980552197">
<ele>261.20000000000005</ele>
<time>2023-05-16T11:06:52Z</time>
</trkpt>
<trkpt lat="48.98615696467459" lon="9.560879962518811">
<ele>261.20000000000005</ele>
<time>2023-05-16T11:06:53Z</time>
</trkpt>
<trkpt lat="48.986186971887946" lon="9.560806956142187">
<ele>261.20000000000005</ele>
<time>2023-05-16T11:06:54Z</time>
</trkpt>
<trkpt lat="48.98621295578778" lon="9.560731938108802">
<ele>261.20000000000005</ele>
<time>2023-05-16T11:06:55Z</time>
</trkpt>
<trkpt lat="48.98623994551599" lon="9.560652980580926">
<ele>261</ele>
<time>2023-05-16T11:06:56Z</time>
</trkpt>
<trkpt lat="48.98626492358744" lon="9.560571927577257">
<ele>261</ele>
<time>2023-05-16T11:06:57Z</time>
</trkpt>
<trkpt lat="48.986291997134686" lon="9.560491964221">
<ele>261</ele>
<time>2023-05-16T11:06:58Z</time>
</trkpt>
<trkpt lat="48.98631999269128" lon="9.560412922874093">
<ele>260.79999999999995</ele>
<time>2023-05-16T11:06:59Z</time>
</trkpt>
<trkpt lat="48.98634999990463" lon="9.560336982831359">
<ele>260.6</ele>
<time>2023-05-16T11:07:00Z</time>
</trkpt>
<trkpt lat="48.986374977976084" lon="9.560259953141212">
<ele>260.6</ele>
<time>2023-05-16T11:07:01Z</time>
</trkpt>
<trkpt lat="48.986401967704296" lon="9.560182923451066">
<ele>260.4</ele>
<time>2023-05-16T11:07:02Z</time>
</trkpt>
<trkpt lat="48.98642795160413" lon="9.560106983408332">
<ele>260.20000000000005</ele>
<time>2023-05-16T11:07:03Z</time>
</trkpt>
<trkpt lat="48.9864569529891" lon="9.560031965374947">
<ele>260</ele>
<time>2023-05-16T11:07:04Z</time>
</trkpt>
<trkpt lat="48.98648193106055" lon="9.559957953169942">
<ele>260</ele>
<time>2023-05-16T11:07:05Z</time>
</trkpt>
<trkpt lat="48.986507998779416" lon="9.559882935136557">
<ele>259.79999999999995</ele>
<time>2023-05-16T11:07:06Z</time>
</trkpt>
<trkpt lat="48.98653691634536" lon="9.559812946245074">
<ele>259.79999999999995</ele>
<time>2023-05-16T11:07:07Z</time>
</trkpt>
<trkpt lat="48.98656499572098" lon="9.55973993986845">
<ele>259.6</ele>
<time>2023-05-16T11:07:08Z</time>
</trkpt>
<trkpt lat="48.986592991277575" lon="9.559667939320207">
<ele>259.6</ele>
<time>2023-05-16T11:07:09Z</time>
</trkpt>
<trkpt lat="48.98662492632866" lon="9.559597950428724">
<ele>259.6</ele>
<time>2023-05-16T11:07:10Z</time>
</trkpt>
<trkpt lat="48.98665292188525" lon="9.559526955708861">
<ele>259.4</ele>
<time>2023-05-16T11:07:11Z</time>
</trkpt>
<trkpt lat="48.986681923270226" lon="9.559454955160618">
<ele>259.4</ele>
<time>2023-05-16T11:07:12Z</time>
</trkpt>
<trkpt lat="48.98670799098909" lon="9.559387983754277">
<ele>259.4</ele>
<time>2023-05-16T11:07:13Z</time>
</trkpt>
<trkpt lat="48.98673699237406" lon="9.55932998098433">
<ele>259.4</ele>
<time>2023-05-16T11:07:14Z</time>
</trkpt>
<trkpt lat="48.98677194491029" lon="9.559272984042764">
<ele>259.4</ele>
<time>2023-05-16T11:07:15Z</time>
</trkpt>
<trkpt lat="48.986804969608784" lon="9.559219926595688">
<ele>259.20000000000005</ele>
<time>2023-05-16T11:07:16Z</time>
</trkpt>
<trkpt lat="48.9868369884789" lon="9.559169970452785">
<ele>259.20000000000005</ele>
<time>2023-05-16T11:07:17Z</time>
</trkpt>
<trkpt lat="48.986871941015124" lon="9.55911498516798">
<ele>259.20000000000005</ele>
<time>2023-05-16T11:07:18Z</time>
</trkpt>
<trkpt lat="48.986894991248846" lon="9.559064945206046">
<ele>259.20000000000005</ele>
<time>2023-05-16T11:07:19Z</time>
</trkpt>
<trkpt lat="48.986917957663536" lon="9.559012977406383">
<ele>259.20000000000005</ele>
<time>2023-05-16T11:07:20Z</time>
</trkpt>
<trkpt lat="48.986939918249846" lon="9.558957992121577">
<ele>259</ele>
<time>2023-05-16T11:07:21Z</time>
</trkpt>
<trkpt lat="48.986957939341664" lon="9.558896971866488">
<ele>259</ele>
<time>2023-05-16T11:07:22Z</time>
</trkpt>
<trkpt lat="48.98697193711996" lon="9.558832934126258">
<ele>259</ele>
<time>2023-05-16T11:07:23Z</time>
</trkpt>
<trkpt lat="48.98698492906988" lon="9.558766968548298">
<ele>259</ele>
<time>2023-05-16T11:07:24Z</time>
</trkpt>
<trkpt lat="48.986996999010444" lon="9.558696979656816">
<ele>259</ele>
<time>2023-05-16T11:07:25Z</time>
</trkpt>
<trkpt lat="48.987002950161695" lon="9.558631936088204">
<ele>259</ele>
<time>2023-05-16T11:07:26Z</time>
</trkpt>
<trkpt lat="48.98700999096036" lon="9.558566976338625">
<ele>259</ele>
<time>2023-05-16T11:07:27Z</time>
</trkpt>
<trkpt lat="48.98701795376837" lon="9.558502938598394">
<ele>259</ele>
<time>2023-05-16T11:07:28Z</time>
</trkpt>
<trkpt lat="48.987019965425134" lon="9.558441918343306">
<ele>259</ele>
<time>2023-05-16T11:07:29Z</time>
</trkpt>
<trkpt lat="48.987021977081895" lon="9.55838299356401">
<ele>259</ele>
<time>2023-05-16T11:07:30Z</time>
</trkpt>
<trkpt lat="48.98702993988991" lon="9.558322979137301">
<ele>259</ele>
<time>2023-05-16T11:07:31Z</time>
</trkpt>
<trkpt lat="48.98703195154667" lon="9.558262964710593">
<ele>259</ele>
<time>2023-05-16T11:07:32Z</time>
</trkpt>
<trkpt lat="48.98703496903181" lon="9.558204961940646">
<ele>259</ele>
<time>2023-05-16T11:07:33Z</time>
</trkpt>
<trkpt lat="48.98704192601144" lon="9.558144947513938">
<ele>259</ele>
<time>2023-05-16T11:07:34Z</time>
</trkpt>
<trkpt lat="48.98704997263849" lon="9.558082921430469">
<ele>259</ele>
<time>2023-05-16T11:07:35Z</time>
</trkpt>
<trkpt lat="48.98706195876002" lon="9.558027936145663">
<ele>259.20000000000005</ele>
<time>2023-05-16T11:07:36Z</time>
</trkpt>
<trkpt lat="48.9870769623667" lon="9.557967921718955">
<ele>259.20000000000005</ele>
<time>2023-05-16T11:07:37Z</time>
</trkpt>
<trkpt lat="48.987089954316616" lon="9.557904973626137">
<ele>259.20000000000005</ele>
<time>2023-05-16T11:07:38Z</time>
</trkpt>
<trkpt lat="48.98709992878139" lon="9.557844959199429">
<ele>259.20000000000005</ele>
<time>2023-05-16T11:07:39Z</time>
</trkpt>
<trkpt lat="48.987107975408435" lon="9.557781927287579">
<ele>259.20000000000005</ele>
<time>2023-05-16T11:07:40Z</time>
</trkpt>
<trkpt lat="48.987109987065196" lon="9.557721996679902">
<ele>259.20000000000005</ele>
<time>2023-05-16T11:07:41Z</time>
</trkpt>
<trkpt lat="48.98711493238807" lon="9.557661982253194">
<ele>259.20000000000005</ele>
<time>2023-05-16T11:07:42Z</time>
</trkpt>
<trkpt lat="48.98712197318673" lon="9.557604985311627">
<ele>259.20000000000005</ele>
<time>2023-05-16T11:07:43Z</time>
</trkpt>
<trkpt lat="48.987129935994744" lon="9.55754497088492">
<ele>259.20000000000005</ele>
<time>2023-05-16T11:07:44Z</time>
</trkpt>
<trkpt lat="48.98713697679341" lon="9.557484956458211">
<ele>259.20000000000005</ele>
<time>2023-05-16T11:07:45Z</time>
</trkpt>
<trkpt lat="48.98714493960142" lon="9.557427959516644">
<ele>259.20000000000005</ele>
<time>2023-05-16T11:07:46Z</time>
</trkpt>
<trkpt lat="48.987152986228466" lon="9.557369956746697">
<ele>259.20000000000005</ele>
<time>2023-05-16T11:07:47Z</time>
</trkpt>
<trkpt lat="48.98715793155134" lon="9.55731195397675">
<ele>259.20000000000005</ele>
<time>2023-05-16T11:07:48Z</time>
</trkpt>
<trkpt lat="48.98716497235" lon="9.557246994227171">
<ele>259.20000000000005</ele>
<time>2023-05-16T11:07:49Z</time>
</trkpt>
<trkpt lat="48.987171929329634" lon="9.55718195065856">
<ele>259.20000000000005</ele>
<time>2023-05-16T11:07:50Z</time>
</trkpt>
<trkpt lat="48.98718299344182" lon="9.557112967595458">
<ele>259.20000000000005</ele>
<time>2023-05-16T11:07:51Z</time>
</trkpt>
<trkpt lat="48.98719699122012" lon="9.557044990360737">
<ele>259.20000000000005</ele>
<time>2023-05-16T11:07:52Z</time>
</trkpt>
<trkpt lat="48.987211994826794" lon="9.556976929306984">
<ele>259.20000000000005</ele>
<time>2023-05-16T11:07:53Z</time>
</trkpt>
<trkpt lat="48.98722498677671" lon="9.556909957900643">
<ele>259.20000000000005</ele>
<time>2023-05-16T11:07:54Z</time>
</trkpt>
<trkpt lat="48.987236972898245" lon="9.5568379573524">
<ele>259.20000000000005</ele>
<time>2023-05-16T11:07:55Z</time>
</trkpt>
<trkpt lat="48.98724694736302" lon="9.556766962632537">
<ele>259.20000000000005</ele>
<time>2023-05-16T11:07:56Z</time>
</trkpt>
<trkpt lat="48.987254993990064" lon="9.556691944599152">
<ele>259.20000000000005</ele>
<time>2023-05-16T11:07:57Z</time>
</trkpt>
<trkpt lat="48.987261950969696" lon="9.55662195570767">
<ele>259.20000000000005</ele>
<time>2023-05-16T11:07:58Z</time>
</trkpt>
<trkpt lat="48.9872669801116" lon="9.556551966816187">
<ele>259.20000000000005</ele>
<time>2023-05-16T11:07:59Z</time>
</trkpt>
<trkpt lat="48.98727494291961" lon="9.556479966267943">
<ele>259.20000000000005</ele>
<time>2023-05-16T11:08:00Z</time>
</trkpt>
<trkpt lat="48.987279972061515" lon="9.556409977376461">
<ele>259.20000000000005</ele>
<time>2023-05-16T11:08:01Z</time>
</trkpt>
<trkpt lat="48.987281983718276" lon="9.55634493380785">
<ele>259.20000000000005</ele>
<time>2023-05-16T11:08:02Z</time>
</trkpt>
<trkpt lat="48.987284917384386" lon="9.556274944916368">
<ele>259.20000000000005</ele>
<time>2023-05-16T11:08:03Z</time>
</trkpt>
<trkpt lat="48.98728793486953" lon="9.556199926882982">
<ele>259.20000000000005</ele>
<time>2023-05-16T11:08:04Z</time>
</trkpt>
<trkpt lat="48.98729195818305" lon="9.556131949648261">
<ele>259.20000000000005</ele>
<time>2023-05-16T11:08:05Z</time>
</trkpt>
<trkpt lat="48.98729497566819" lon="9.556061960756779">
<ele>259</ele>
<time>2023-05-16T11:08:06Z</time>
</trkpt>
<trkpt lat="48.98729992099106" lon="9.555986942723393">
<ele>259</ele>
<time>2023-05-16T11:08:07Z</time>
</trkpt>
<trkpt lat="48.987304950132966" lon="9.555912930518389">
<ele>259</ele>
<time>2023-05-16T11:08:08Z</time>
</trkpt>
<trkpt lat="48.98731492459774" lon="9.555841935798526">
<ele>259</ele>
<time>2023-05-16T11:08:09Z</time>
</trkpt>
<trkpt lat="48.987321965396404" lon="9.555772952735424">
<ele>258.79999999999995</ele>
<time>2023-05-16T11:08:10Z</time>
</trkpt>
<trkpt lat="48.987327916547656" lon="9.5556999463588">
<ele>258.79999999999995</ele>
<time>2023-05-16T11:08:11Z</time>
</trkpt>
<trkpt lat="48.98733696900308" lon="9.555631969124079">
<ele>258.79999999999995</ele>
<time>2023-05-16T11:08:12Z</time>
</trkpt>
<trkpt lat="48.98733998648822" lon="9.555564997717738">
<ele>258.79999999999995</ele>
<time>2023-05-16T11:08:13Z</time>
</trkpt>
<trkpt lat="48.987347949296236" lon="9.555496936663985">
<ele>258.6</ele>
<time>2023-05-16T11:08:14Z</time>
</trkpt>
<trkpt lat="48.98735792376101" lon="9.555427953600883">
<ele>258.6</ele>
<time>2023-05-16T11:08:15Z</time>
</trkpt>
<trkpt lat="48.987366976216435" lon="9.555364921689034">
<ele>258.6</ele>
<time>2023-05-16T11:08:16Z</time>
</trkpt>
<trkpt lat="48.98737695068121" lon="9.555301973596215">
<ele>258.6</ele>
<time>2023-05-16T11:08:17Z</time>
</trkpt>
<trkpt lat="48.987386925145984" lon="9.555236930027604">
<ele>258.6</ele>
<time>2023-05-16T11:08:18Z</time>
</trkpt>
<trkpt lat="48.98739195428789" lon="9.555172976106405">
<ele>258.6</ele>
<time>2023-05-16T11:08:19Z</time>
</trkpt>
<trkpt lat="48.98739698342979" lon="9.555107932537794">
<ele>258.6</ele>
<time>2023-05-16T11:08:20Z</time>
</trkpt>
<trkpt lat="48.98740293458104" lon="9.555041966959834">
<ele>258.6</ele>
<time>2023-05-16T11:08:21Z</time>
</trkpt>
<trkpt lat="48.987409975379705" lon="9.554976923391223">
<ele>258.6</ele>
<time>2023-05-16T11:08:22Z</time>
</trkpt>
<trkpt lat="48.98741793818772" lon="9.554907940328121">
<ele>258.6</ele>
<time>2023-05-16T11:08:23Z</time>
</trkpt>
<trkpt lat="48.98742497898638" lon="9.5548399630934">
<ele>258.6</ele>
<time>2023-05-16T11:08:24Z</time>
</trkpt>
<trkpt lat="48.987429924309254" lon="9.554771985858679">
<ele>258.6</ele>
<time>2023-05-16T11:08:25Z</time>
</trkpt>
<trkpt lat="48.9874379709363" lon="9.554701996967196">
<ele>258.6</ele>
<time>2023-05-16T11:08:26Z</time>
</trkpt>
<trkpt lat="48.98744693957269" lon="9.554629996418953">
<ele>258.6</ele>
<time>2023-05-16T11:08:27Z</time>
</trkpt>
<trkpt lat="48.98745498619974" lon="9.554554978385568">
<ele>258.6</ele>
<time>2023-05-16T11:08:28Z</time>
</trkpt>
<trkpt lat="48.98745993152261" lon="9.554481972008944">
<ele>258.6</ele>
<time>2023-05-16T11:08:29Z</time>
</trkpt>
<trkpt lat="48.98746194317937" lon="9.5544099714607">
<ele>258.6</ele>
<time>2023-05-16T11:08:30Z</time>
</trkpt>
<trkpt lat="48.98745993152261" lon="9.554341994225979">
<ele>258.6</ele>
<time>2023-05-16T11:08:31Z</time>
</trkpt>
<trkpt lat="48.987452974542975" lon="9.554274939000607">
<ele>258.6</ele>
<time>2023-05-16T11:08:32Z</time>
</trkpt>
<trkpt lat="48.98744291625917" lon="9.554207967594266">
<ele>258.6</ele>
<time>2023-05-16T11:08:33Z</time>
</trkpt>
<trkpt lat="48.987431935966015" lon="9.554144935682416">
<ele>258.6</ele>
<time>2023-05-16T11:08:34Z</time>
</trkpt>
<trkpt lat="48.98742196150124" lon="9.554076958447695">
<ele>258.79999999999995</ele>
<time>2023-05-16T11:08:35Z</time>
</trkpt>
<trkpt lat="48.987407963722944" lon="9.554009987041354">
<ele>258.79999999999995</ele>
<time>2023-05-16T11:08:36Z</time>
</trkpt>
<trkpt lat="48.98739296011627" lon="9.553949972614646">
<ele>258.79999999999995</ele>
<time>2023-05-16T11:08:37Z</time>
</trkpt>
<trkpt lat="48.98737695068121" lon="9.553887946531177">
<ele>258.79999999999995</ele>
<time>2023-05-16T11:08:38Z</time>
</trkpt>
<trkpt lat="48.9873549900949" lon="9.55382994376123">
<ele>258.79999999999995</ele>
<time>2023-05-16T11:08:39Z</time>
</trkpt>
<trkpt lat="48.98733696900308" lon="9.553771940991282">
<ele>259</ele>
<time>2023-05-16T11:08:40Z</time>
</trkpt>
<trkpt lat="48.9873169362545" lon="9.553711926564574">
<ele>259</ele>
<time>2023-05-16T11:08:41Z</time>
</trkpt>
<trkpt lat="48.987297993153334" lon="9.553652917966247">
<ele>259</ele>
<time>2023-05-16T11:08:42Z</time>
</trkpt>
<trkpt lat="48.987277960404754" lon="9.553594999015331">
<ele>259</ele>
<time>2023-05-16T11:08:43Z</time>
</trkpt>
<trkpt lat="48.987257927656174" lon="9.553539929911494">
<ele>259</ele>
<time>2023-05-16T11:08:44Z</time>
</trkpt>
<trkpt lat="48.987237978726625" lon="9.553484944626689">
<ele>259</ele>
<time>2023-05-16T11:08:45Z</time>
</trkpt>
<trkpt lat="48.987217945978045" lon="9.553431970998645">
<ele>259</ele>
<time>2023-05-16T11:08:46Z</time>
</trkpt>
<trkpt lat="48.98720294237137" lon="9.55337991937995">
<ele>259</ele>
<time>2023-05-16T11:08:47Z</time>
</trkpt>
<trkpt lat="48.98718693293631" lon="9.553327951580286">
<ele>259</ele>
<time>2023-05-16T11:08:48Z</time>
</trkpt>
<trkpt lat="48.98716798983514" lon="9.553279923275113">
<ele>259</ele>
<time>2023-05-16T11:08:49Z</time>
</trkpt>
<trkpt lat="48.987151980400085" lon="9.553234996274114">
<ele>259</ele>
<time>2023-05-16T11:08:50Z</time>
</trkpt>
<trkpt lat="48.98713496513665" lon="9.553191997110844">
<ele>259</ele>
<time>2023-05-16T11:08:51Z</time>
</trkpt>
<trkpt lat="48.98711794987321" lon="9.553149919956923">
<ele>259</ele>
<time>2023-05-16T11:08:52Z</time>
</trkpt>
<trkpt lat="48.98710294626653" lon="9.553109938278794">
<ele>259</ele>
<time>2023-05-16T11:08:53Z</time>
</trkpt>
<trkpt lat="48.98709498345852" lon="9.553064927458763">
<ele>259</ele>
<time>2023-05-16T11:08:54Z</time>
</trkpt>
<trkpt lat="48.98709699511528" lon="9.553019916638732">
<ele>259</ele>
<time>2023-05-16T11:08:55Z</time>
</trkpt>
<trkpt lat="48.98711493238807" lon="9.552974989637733">
<ele>259.20000000000005</ele>
<time>2023-05-16T11:08:56Z</time>
</trkpt>
<trkpt lat="48.98713999427855" lon="9.552929978817701">
<ele>259.20000000000005</ele>
<time>2023-05-16T11:08:57Z</time>
</trkpt>
<trkpt lat="48.98716991767287" lon="9.552887985482812">
<ele>259.20000000000005</ele>
<time>2023-05-16T11:08:58Z</time>
</trkpt>
<trkpt lat="48.98720797151327" lon="9.552854960784316">
<ele>259.20000000000005</ele>
<time>2023-05-16T11:08:59Z</time>
</trkpt>
<trkpt lat="48.9872479531914" lon="9.552826965227723">
<ele>259.20000000000005</ele>
<time>2023-05-16T11:09:00Z</time>
</trkpt>
<trkpt lat="48.98728994652629" lon="9.55279997549951">
<ele>259.4</ele>
<time>2023-05-16T11:09:01Z</time>
</trkpt>
<trkpt lat="48.98733193986118" lon="9.552772985771298">
<ele>259.4</ele>
<time>2023-05-16T11:09:02Z</time>
</trkpt>
<trkpt lat="48.987364964559674" lon="9.552746918052435">
<ele>259.4</ele>
<time>2023-05-16T11:09:03Z</time>
</trkpt>
<trkpt lat="48.98739698342979" lon="9.552721939980984">
<ele>259.4</ele>
<time>2023-05-16T11:09:04Z</time>
</trkpt>
<trkpt lat="48.987431935966015" lon="9.552694950252771">
<ele>259.6</ele>
<time>2023-05-16T11:09:05Z</time>
</trkpt>
<trkpt lat="48.98746496066451" lon="9.552667960524559">
<ele>259.6</ele>
<time>2023-05-16T11:09:06Z</time>
</trkpt>
<trkpt lat="48.98749999701977" lon="9.552644994109869">
<ele>259.6</ele>
<time>2023-05-16T11:09:07Z</time>
</trkpt>
<trkpt lat="48.98753293789923" lon="9.552624961361289">
<ele>259.6</ele>
<time>2023-05-16T11:09:08Z</time>
</trkpt>
<trkpt lat="48.98756998591125" lon="9.552604928612709">
<ele>259.6</ele>
<time>2023-05-16T11:09:09Z</time>
</trkpt>
<trkpt lat="48.98761298507452" lon="9.552586991339922">
<ele>259.79999999999995</ele>
<time>2023-05-16T11:09:10Z</time>
</trkpt>
<trkpt lat="48.98765699006617" lon="9.552571987733245">
<ele>259.79999999999995</ele>
<time>2023-05-16T11:09:11Z</time>
</trkpt>
<trkpt lat="48.98769797757268" lon="9.552556984126568">
<ele>259.79999999999995</ele>
<time>2023-05-16T11:09:12Z</time>
</trkpt>
<trkpt lat="48.987734941765666" lon="9.552544998005033">
<ele>259.79999999999995</ele>
<time>2023-05-16T11:09:13Z</time>
</trkpt>
<trkpt lat="48.98776997812092" lon="9.552531922236085">
<ele>260</ele>
<time>2023-05-16T11:09:14Z</time>
</trkpt>
<trkpt lat="48.98780694231391" lon="9.552516918629408">
<ele>260</ele>
<time>2023-05-16T11:09:15Z</time>
</trkpt>
<trkpt lat="48.987837955355644" lon="9.552504932507873">
<ele>260</ele>
<time>2023-05-16T11:09:16Z</time>
</trkpt>
<trkpt lat="48.98786695674062" lon="9.552487917244434">
<ele>260</ele>
<time>2023-05-16T11:09:17Z</time>
</trkpt>
<trkpt lat="48.987902998924255" lon="9.552472997456789">
<ele>260.20000000000005</ele>
<time>2023-05-16T11:09:18Z</time>
</trkpt>
<trkpt lat="48.9879369456321" lon="9.552456988021731">
<ele>260.20000000000005</ele>
<time>2023-05-16T11:09:19Z</time>
</trkpt>
<trkpt lat="48.98796494118869" lon="9.55243494361639">
<ele>260.20000000000005</ele>
<time>2023-05-16T11:09:20Z</time>
</trkpt>
<trkpt lat="48.98798497393727" lon="9.552404936403036">
<ele>260.4</ele>
<time>2023-05-16T11:09:21Z</time>
</trkpt>
<trkpt lat="48.988009952008724" lon="9.552387921139598">
<ele>260.4</ele>
<time>2023-05-16T11:09:22Z</time>
</trkpt>
<trkpt lat="48.98804197087884" lon="9.55237291753292">
<ele>260.6</ele>
<time>2023-05-16T11:09:23Z</time>
</trkpt>
<trkpt lat="48.988074995577335" lon="9.552354980260134">
<ele>260.6</ele>
<time>2023-05-16T11:09:24Z</time>
</trkpt>
<trkpt lat="48.98811195977032" lon="9.552342994138598">
<ele>260.79999999999995</ele>
<time>2023-05-16T11:09:25Z</time>
</trkpt>
<trkpt lat="48.98814498446882" lon="9.552337964996696">
<ele>260.79999999999995</ele>
<time>2023-05-16T11:09:26Z</time>
</trkpt>
<trkpt lat="48.9881769195199" lon="9.552336959168315">
<ele>260.79999999999995</ele>
<time>2023-05-16T11:09:27Z</time>
</trkpt>
<trkpt lat="48.988207932561636" lon="9.552334947511554">
<ele>261</ele>
<time>2023-05-16T11:09:28Z</time>
</trkpt>
<trkpt lat="48.98823793977499" lon="9.552331930026412">
<ele>261</ele>
<time>2023-05-16T11:09:29Z</time>
</trkpt>
<trkpt lat="48.98827498778701" lon="9.552327990531921">
<ele>261.20000000000005</ele>
<time>2023-05-16T11:09:30Z</time>
</trkpt>
<trkpt lat="48.98830692283809" lon="9.552314998582006">
<ele>261.20000000000005</ele>
<time>2023-05-16T11:09:31Z</time>
</trkpt>
<trkpt lat="48.98833793587983" lon="9.552289936691523">
<ele>261.20000000000005</ele>
<time>2023-05-16T11:09:32Z</time>
</trkpt>
<trkpt lat="48.98836995474994" lon="9.55226294696331">
<ele>261.20000000000005</ele>
<time>2023-05-16T11:09:33Z</time>
</trkpt>
<trkpt lat="48.98840197362006" lon="9.552232939749956">
<ele>261.4</ele>
<time>2023-05-16T11:09:34Z</time>
</trkpt>
<trkpt lat="48.98843692615628" lon="9.552201926708221">
<ele>261.4</ele>
<time>2023-05-16T11:09:35Z</time>
</trkpt>
<trkpt lat="48.98846995085478" lon="9.552169991657138">
<ele>261.20000000000005</ele>
<time>2023-05-16T11:09:36Z</time>
</trkpt>
<trkpt lat="48.988501969724894" lon="9.55213495530188">
<ele>261.20000000000005</ele>
<time>2023-05-16T11:09:37Z</time>
</trkpt>
<trkpt lat="48.98853197693825" lon="9.552097991108894">
<ele>261.20000000000005</ele>
<time>2023-05-16T11:09:38Z</time>
</trkpt>
<trkpt lat="48.9885619841516" lon="9.552054991945624">
<ele>261.20000000000005</ele>
<time>2023-05-16T11:09:39Z</time>
</trkpt>
<trkpt lat="48.988587968051434" lon="9.552006963640451">
<ele>261.20000000000005</ele>
<time>2023-05-16T11:09:40Z</time>
</trkpt>
<trkpt lat="48.988611940294504" lon="9.551952984184027">
<ele>261</ele>
<time>2023-05-16T11:09:41Z</time>
</trkpt>
<trkpt lat="48.988634990528226" lon="9.55189699307084">
<ele>261</ele>
<time>2023-05-16T11:09:42Z</time>
</trkpt>
<trkpt lat="48.98865192197263" lon="9.551834966987371">
<ele>261</ele>
<time>2023-05-16T11:09:43Z</time>
</trkpt>
<trkpt lat="48.98866692557931" lon="9.55176799558103">
<ele>261</ele>
<time>2023-05-16T11:09:44Z</time>
</trkpt>
<trkpt lat="48.988676983863115" lon="9.551696917042136">
<ele>261</ele>
<time>2023-05-16T11:09:45Z</time>
</trkpt>
<trkpt lat="48.98868293501437" lon="9.551621982827783">
<ele>261</ele>
<time>2023-05-16T11:09:46Z</time>
</trkpt>
<trkpt lat="48.98868494667113" lon="9.551544953137636">
<ele>260.79999999999995</ele>
<time>2023-05-16T11:09:47Z</time>
</trkpt>
<trkpt lat="48.98868796415627" lon="9.55146498978138">
<ele>260.79999999999995</ele>
<time>2023-05-16T11:09:48Z</time>
</trkpt>
<trkpt lat="48.988697938621044" lon="9.551384942606091">
<ele>260.6</ele>
<time>2023-05-16T11:09:49Z</time>
</trkpt>
<trkpt lat="48.98871193639934" lon="9.551302967593074">
<ele>260.6</ele>
<time>2023-05-16T11:09:50Z</time>
</trkpt>
<trkpt lat="48.98872995749116" lon="9.551222920417786">
<ele>260.4</ele>
<time>2023-05-16T11:09:51Z</time>
</trkpt>
<trkpt lat="48.98875191807747" lon="9.55114496871829">
<ele>260.4</ele>
<time>2023-05-16T11:09:52Z</time>
</trkpt>
<trkpt lat="48.98877798579633" lon="9.551066933199763">
<ele>260.4</ele>
<time>2023-05-16T11:09:53Z</time>
</trkpt>
<trkpt lat="48.98880799300969" lon="9.550987975671887">
<ele>260.20000000000005</ele>
<time>2023-05-16T11:09:54Z</time>
</trkpt>
<trkpt lat="48.98883791640401" lon="9.550911951810122">
<ele>260.20000000000005</ele>
<time>2023-05-16T11:09:55Z</time>
</trkpt>
<trkpt lat="48.98886792361736" lon="9.550837939605117">
<ele>260</ele>
<time>2023-05-16T11:09:56Z</time>
</trkpt>
<trkpt lat="48.98889692500234" lon="9.550767950713634">
<ele>260</ele>
<time>2023-05-16T11:09:57Z</time>
</trkpt>
<trkpt lat="48.98892492055893" lon="9.550701985135674">
<ele>260</ele>
<time>2023-05-16T11:09:58Z</time>
</trkpt>
<trkpt lat="48.98894998244941" lon="9.550634929910302">
<ele>260</ele>
<time>2023-05-16T11:09:59Z</time>
</trkpt>
<trkpt lat="48.988976972177625" lon="9.55056494101882">
<ele>259.79999999999995</ele>
<time>2023-05-16T11:10:00Z</time>
</trkpt>
<trkpt lat="48.98900496773422" lon="9.550489922985435">
<ele>259.79999999999995</ele>
<time>2023-05-16T11:10:01Z</time>
</trkpt>
<trkpt lat="48.98903698660433" lon="9.550409959629178">
<ele>259.79999999999995</ele>
<time>2023-05-16T11:10:02Z</time>
</trkpt>
<trkpt lat="48.9890699274838" lon="9.55032798461616">
<ele>259.6</ele>
<time>2023-05-16T11:10:03Z</time>
</trkpt>
<trkpt lat="48.989106975495815" lon="9.550249949097633">
<ele>259.4</ele>
<time>2023-05-16T11:10:04Z</time>
</trkpt>
<trkpt lat="48.98914695717394" lon="9.550171997398138">
<ele>259.4</ele>
<time>2023-05-16T11:10:05Z</time>
</trkpt>
<trkpt lat="48.98918794468045" lon="9.55009195022285">
<ele>259.20000000000005</ele>
<time>2023-05-16T11:10:06Z</time>
</trkpt>
<trkpt lat="48.9892269205302" lon="9.550011986866593">
<ele>259.20000000000005</ele>
<time>2023-05-16T11:10:07Z</time>
</trkpt>
<trkpt lat="48.9892649743706" lon="9.549931939691305">
<ele>259</ele>
<time>2023-05-16T11:10:08Z</time>
</trkpt>
<trkpt lat="48.989302944391966" lon="9.549851976335049">
<ele>258.79999999999995</ele>
<time>2023-05-16T11:10:09Z</time>
</trkpt>
<trkpt lat="48.98934192024171" lon="9.54977192915976">
<ele>258.6</ele>
<time>2023-05-16T11:10:10Z</time>
</trkpt>
<trkpt lat="48.98937796242535" lon="9.549691965803504">
<ele>258.6</ele>
<time>2023-05-16T11:10:11Z</time>
</trkpt>
<trkpt lat="48.98941492661834" lon="9.549607979133725">
<ele>258.4</ele>
<time>2023-05-16T11:10:12Z</time>
</trkpt>
<trkpt lat="48.989451974630356" lon="9.549524998292327">
<ele>258.4</ele>
<time>2023-05-16T11:10:13Z</time>
</trkpt>
<trkpt lat="48.98948793299496" lon="9.549437994137406">
<ele>258.20000000000005</ele>
<time>2023-05-16T11:10:14Z</time>
</trkpt>
<trkpt lat="48.98952498100698" lon="9.549352917820215">
<ele>258</ele>
<time>2023-05-16T11:10:15Z</time>
</trkpt>
<trkpt lat="48.98956295102835" lon="9.549267925322056">
<ele>257.79999999999995</ele>
<time>2023-05-16T11:10:16Z</time>
</trkpt>
<trkpt lat="48.989601926878095" lon="9.549182932823896">
<ele>257.79999999999995</ele>
<time>2023-05-16T11:10:17Z</time>
</trkpt>
<trkpt lat="48.989641992375255" lon="9.54910196363926">
<ele>257.6</ele>
<time>2023-05-16T11:10:18Z</time>
</trkpt>
<trkpt lat="48.98967996239662" lon="9.549021916463971">
<ele>257.4</ele>
<time>2023-05-16T11:10:19Z</time>
</trkpt>
<trkpt lat="48.98971692658961" lon="9.548939941450953">
<ele>257.4</ele>
<time>2023-05-16T11:10:20Z</time>
</trkpt>
<trkpt lat="48.989751962944865" lon="9.548857966437936">
<ele>257.20000000000005</ele>
<time>2023-05-16T11:10:21Z</time>
</trkpt>
<trkpt lat="48.98978498764336" lon="9.548776997253299">
<ele>257</ele>
<time>2023-05-16T11:10:22Z</time>
</trkpt>
<trkpt lat="48.989816922694445" lon="9.54869695007801">
<ele>257</ele>
<time>2023-05-16T11:10:23Z</time>
</trkpt>
<trkpt lat="48.98984491825104" lon="9.548621932044625">
<ele>257</ele>
<time>2023-05-16T11:10:24Z</time>
</trkpt>
<trkpt lat="48.98987299762666" lon="9.54854791983962">
<ele>256.79999999999995</ele>
<time>2023-05-16T11:10:25Z</time>
</trkpt>
<trkpt lat="48.989901999011636" lon="9.548476925119758">
<ele>256.79999999999995</ele>
<time>2023-05-16T11:10:26Z</time>
</trkpt>
<trkpt lat="48.98992798291147" lon="9.548406936228275">
<ele>256.79999999999995</ele>
<time>2023-05-16T11:10:27Z</time>
</trkpt>
<trkpt lat="48.98995698429644" lon="9.548336947336793">
<ele>256.6</ele>
<time>2023-05-16T11:10:28Z</time>
</trkpt>
<trkpt lat="48.98998296819627" lon="9.54826494678855">
<ele>256.6</ele>
<time>2023-05-16T11:10:29Z</time>
</trkpt>
<trkpt lat="48.990009957924485" lon="9.548192946240306">
<ele>256.6</ele>
<time>2023-05-16T11:10:30Z</time>
</trkpt>
<trkpt lat="48.990034935995936" lon="9.548121951520443">
<ele>256.6</ele>
<time>2023-05-16T11:10:31Z</time>
</trkpt>
<trkpt lat="48.99005999788642" lon="9.548052968457341">
<ele>256.4</ele>
<time>2023-05-16T11:10:32Z</time>
</trkpt>
<trkpt lat="48.99008296430111" lon="9.54798691906035">
<ele>256.4</ele>
<time>2023-05-16T11:10:33Z</time>
</trkpt>
<trkpt lat="48.99010794237256" lon="9.547919947654009">
<ele>256.4</ele>
<time>2023-05-16T11:10:34Z</time>
</trkpt>
<trkpt lat="48.99013199843466" lon="9.54785498790443">
<ele>256.20000000000005</ele>
<time>2023-05-16T11:10:35Z</time>
</trkpt>
<trkpt lat="48.990156976506114" lon="9.547789944335818">
<ele>256.20000000000005</ele>
<time>2023-05-16T11:10:36Z</time>
</trkpt>
<trkpt lat="48.990179942920804" lon="9.547727918252349">
<ele>256.20000000000005</ele>
<time>2023-05-16T11:10:37Z</time>
</trkpt>
<trkpt lat="48.990204920992255" lon="9.54766295850277">
<ele>256.20000000000005</ele>
<time>2023-05-16T11:10:38Z</time>
</trkpt>
<trkpt lat="48.9902319945395" lon="9.547594981268048">
<ele>256</ele>
<time>2023-05-16T11:10:39Z</time>
</trkpt>
<trkpt lat="48.99025797843933" lon="9.547524992376566">
<ele>256</ele>
<time>2023-05-16T11:10:40Z</time>
</trkpt>
<trkpt lat="48.99028496816754" lon="9.547456931322813">
<ele>256</ele>
<time>2023-05-16T11:10:41Z</time>
</trkpt>
<trkpt lat="48.990311957895756" lon="9.54738694243133">
<ele>256</ele>
<time>2023-05-16T11:10:42Z</time>
</trkpt>
<trkpt lat="48.99033693596721" lon="9.547316953539848">
<ele>256</ele>
<time>2023-05-16T11:10:43Z</time>
</trkpt>
<trkpt lat="48.99036291986704" lon="9.547246964648366">
<ele>255.79999999999995</ele>
<time>2023-05-16T11:10:44Z</time>
</trkpt>
<trkpt lat="48.99038798175752" lon="9.547174964100122">
<ele>255.79999999999995</ele>
<time>2023-05-16T11:10:45Z</time>
</trkpt>
<trkpt lat="48.990414971485734" lon="9.547102963551879">
<ele>255.79999999999995</ele>
<time>2023-05-16T11:10:46Z</time>
</trkpt>
<trkpt lat="48.990439949557185" lon="9.547032974660397">
<ele>255.79999999999995</ele>
<time>2023-05-16T11:10:47Z</time>
</trkpt>
<trkpt lat="48.9904669392854" lon="9.546962985768914">
<ele>255.79999999999995</ele>
<time>2023-05-16T11:10:48Z</time>
</trkpt>
<trkpt lat="48.99049292318523" lon="9.546896936371922">
<ele>255.79999999999995</ele>
<time>2023-05-16T11:10:49Z</time>
</trkpt>
<trkpt lat="48.99051798507571" lon="9.54682694748044">
<ele>255.79999999999995</ele>
<time>2023-05-16T11:10:50Z</time>
</trkpt>
<trkpt lat="48.990544974803925" lon="9.546756958588958">
<ele>255.79999999999995</ele>
<time>2023-05-16T11:10:51Z</time>
</trkpt>
<trkpt lat="48.99057196453214" lon="9.546687975525856">
<ele>255.60000000000002</ele>
<time>2023-05-16T11:10:52Z</time>
</trkpt>
<trkpt lat="48.99059996008873" lon="9.546617986634374">
<ele>255.60000000000002</ele>
<time>2023-05-16T11:10:53Z</time>
</trkpt>
<trkpt lat="48.99062493816018" lon="9.54654992558062">
<ele>255.60000000000002</ele>
<time>2023-05-16T11:10:54Z</time>
</trkpt>
<trkpt lat="48.99065192788839" lon="9.546479936689138">
<ele>255.60000000000002</ele>
<time>2023-05-16T11:10:55Z</time>
</trkpt>
<trkpt lat="48.990676989778876" lon="9.546409947797656">
<ele>255.60000000000002</ele>
<time>2023-05-16T11:10:56Z</time>
</trkpt>
<trkpt lat="48.99070498533547" lon="9.546339958906174">
<ele>255.60000000000002</ele>
<time>2023-05-16T11:10:57Z</time>
</trkpt>
<trkpt lat="48.99073499254882" lon="9.546269970014691">
<ele>255.60000000000002</ele>
<time>2023-05-16T11:10:58Z</time>
</trkpt>
<trkpt lat="48.99076499976218" lon="9.54620492644608">
<ele>255.39999999999998</ele>
<time>2023-05-16T11:10:59Z</time>
</trkpt>
<trkpt lat="48.9907949231565" lon="9.546142984181643">
<ele>255.39999999999998</ele>
<time>2023-05-16T11:11:00Z</time>
</trkpt>
<trkpt lat="48.990826942026615" lon="9.546081963926554">
<ele>255.39999999999998</ele>
<time>2023-05-16T11:11:01Z</time>
</trkpt>
<trkpt lat="48.99085292592645" lon="9.546021949499846">
<ele>255.39999999999998</ele>
<time>2023-05-16T11:11:02Z</time>
</trkpt>
<trkpt lat="48.99087999947369" lon="9.545957995578647">
<ele>255.39999999999998</ele>
<time>2023-05-16T11:11:03Z</time>
</trkpt>
<trkpt lat="48.9909069892019" lon="9.545892952010036">
<ele>255.39999999999998</ele>
<time>2023-05-16T11:11:04Z</time>
</trkpt>
<trkpt lat="48.99093699641526" lon="9.545829920098186">
<ele>255.39999999999998</ele>
<time>2023-05-16T11:11:05Z</time>
</trkpt>
<trkpt lat="48.99096499197185" lon="9.545766972005367">
<ele>255.20000000000005</ele>
<time>2023-05-16T11:11:06Z</time>
</trkpt>
<trkpt lat="48.99099298752844" lon="9.545701928436756">
<ele>255.20000000000005</ele>
<time>2023-05-16T11:11:07Z</time>
</trkpt>
<trkpt lat="48.99102198891342" lon="9.545637974515557">
<ele>255.20000000000005</ele>
<time>2023-05-16T11:11:08Z</time>
</trkpt>
<trkpt lat="48.99104797281325" lon="9.545574942603707">
<ele>255.20000000000005</ele>
<time>2023-05-16T11:11:09Z</time>
</trkpt>
<trkpt lat="48.99107697419822" lon="9.545512916520238">
<ele>255.20000000000005</ele>
<time>2023-05-16T11:11:10Z</time>
</trkpt>
<trkpt lat="48.991104969754815" lon="9.54544996842742">
<ele>255.20000000000005</ele>
<time>2023-05-16T11:11:11Z</time>
</trkpt>
<trkpt lat="48.99113296531141" lon="9.54538693651557">
<ele>255.20000000000005</ele>
<time>2023-05-16T11:11:12Z</time>
</trkpt>
<trkpt lat="48.99116297252476" lon="9.54532298259437">
<ele>255.20000000000005</ele>
<time>2023-05-16T11:11:13Z</time>
</trkpt>
<trkpt lat="48.991192979738116" lon="9.54525995068252">
<ele>255.20000000000005</ele>
<time>2023-05-16T11:11:14Z</time>
</trkpt>
<trkpt lat="48.99122499860823" lon="9.545194990932941">
<ele>255.20000000000005</ele>
<time>2023-05-16T11:11:15Z</time>
</trkpt>
<trkpt lat="48.991252994164824" lon="9.54512994736433">
<ele>255</ele>
<time>2023-05-16T11:11:16Z</time>
</trkpt>
<trkpt lat="48.9912819955498" lon="9.54506297595799">
<ele>255</ele>
<time>2023-05-16T11:11:17Z</time>
</trkpt>
<trkpt lat="48.99130999110639" lon="9.544996926560998">
<ele>255</ele>
<time>2023-05-16T11:11:18Z</time>
</trkpt>
<trkpt lat="48.9913369808346" lon="9.544929955154657">
<ele>255</ele>
<time>2023-05-16T11:11:19Z</time>
</trkpt>
<trkpt lat="48.991364976391196" lon="9.544864995405078">
<ele>255</ele>
<time>2023-05-16T11:11:20Z</time>
</trkpt>
<trkpt lat="48.99139297194779" lon="9.544799951836467">
<ele>255</ele>
<time>2023-05-16T11:11:21Z</time>
</trkpt>
<trkpt lat="48.99142297916114" lon="9.544734992086887">
<ele>255</ele>
<time>2023-05-16T11:11:22Z</time>
</trkpt>
<trkpt lat="48.99145198054612" lon="9.544671960175037">
<ele>255</ele>
<time>2023-05-16T11:11:23Z</time>
</trkpt>
<trkpt lat="48.99147997610271" lon="9.544604988768697">
<ele>255</ele>
<time>2023-05-16T11:11:24Z</time>
</trkpt>
<trkpt lat="48.99150495417416" lon="9.544539945200086">
<ele>255</ele>
<time>2023-05-16T11:11:25Z</time>
</trkpt>
<trkpt lat="48.99153194390237" lon="9.544476997107267">
<ele>255</ele>
<time>2023-05-16T11:11:26Z</time>
</trkpt>
<trkpt lat="48.99156195111573" lon="9.544414971023798">
<ele>255</ele>
<time>2023-05-16T11:11:27Z</time>
</trkpt>
<trkpt lat="48.99158994667232" lon="9.544351939111948">
<ele>255</ele>
<time>2023-05-16T11:11:28Z</time>
</trkpt>
<trkpt lat="48.99161492474377" lon="9.544286979362369">
<ele>255</ele>
<time>2023-05-16T11:11:29Z</time>
</trkpt>
<trkpt lat="48.991639986634254" lon="9.544221935793757">
<ele>255</ele>
<time>2023-05-16T11:11:30Z</time>
</trkpt>
<trkpt lat="48.991664964705706" lon="9.544156976044178">
<ele>255</ele>
<time>2023-05-16T11:11:31Z</time>
</trkpt>
<trkpt lat="48.991686925292015" lon="9.544091932475567">
<ele>255</ele>
<time>2023-05-16T11:11:32Z</time>
</trkpt>
<trkpt lat="48.99170997552574" lon="9.544024961069226">
<ele>255</ele>
<time>2023-05-16T11:11:33Z</time>
</trkpt>
<trkpt lat="48.99173495359719" lon="9.543954972177744">
<ele>255</ele>
<time>2023-05-16T11:11:34Z</time>
</trkpt>
<trkpt lat="48.99175993166864" lon="9.543886994943023">
<ele>255</ele>
<time>2023-05-16T11:11:35Z</time>
</trkpt>
<trkpt lat="48.99178298190236" lon="9.54381792806089">
<ele>255</ele>
<time>2023-05-16T11:11:36Z</time>
</trkpt>
<trkpt lat="48.99180695414543" lon="9.543747939169407">
<ele>254.79999999999995</ele>
<time>2023-05-16T11:11:37Z</time>
</trkpt>
<trkpt lat="48.99182992056012" lon="9.543679961934686">
<ele>254.79999999999995</ele>
<time>2023-05-16T11:11:38Z</time>
</trkpt>
<trkpt lat="48.991854982450604" lon="9.543612990528345">
<ele>254.79999999999995</ele>
<time>2023-05-16T11:11:39Z</time>
</trkpt>
<trkpt lat="48.991877948865294" lon="9.543544929474592">
<ele>254.79999999999995</ele>
<time>2023-05-16T11:11:40Z</time>
</trkpt>
<trkpt lat="48.99190493859351" lon="9.543476952239871">
<ele>254.79999999999995</ele>
<time>2023-05-16T11:11:41Z</time>
</trkpt>
<trkpt lat="48.99192991666496" lon="9.54340796917677">
<ele>254.79999999999995</ele>
<time>2023-05-16T11:11:42Z</time>
</trkpt>
<trkpt lat="48.99195296689868" lon="9.543339991942048">
<ele>254.79999999999995</ele>
<time>2023-05-16T11:11:43Z</time>
</trkpt>
<trkpt lat="48.99197693914175" lon="9.543272936716676">
<ele>254.79999999999995</ele>
<time>2023-05-16T11:11:44Z</time>
</trkpt>
<trkpt lat="48.9920019172132" lon="9.543207976967096">
<ele>254.79999999999995</ele>
<time>2023-05-16T11:11:45Z</time>
</trkpt>
<trkpt lat="48.992026979103684" lon="9.543142933398485">
<ele>254.60000000000002</ele>
<time>2023-05-16T11:11:46Z</time>
</trkpt>
<trkpt lat="48.992051957175136" lon="9.543076967820525">
<ele>254.60000000000002</ele>
<time>2023-05-16T11:11:47Z</time>
</trkpt>
<trkpt lat="48.992074923589826" lon="9.543009996414185">
<ele>254.60000000000002</ele>
<time>2023-05-16T11:11:48Z</time>
</trkpt>
<trkpt lat="48.99209797382355" lon="9.54293992370367">
<ele>254.60000000000002</ele>
<time>2023-05-16T11:11:49Z</time>
</trkpt>
<trkpt lat="48.99212194606662" lon="9.54287194646895">
<ele>254.60000000000002</ele>
<time>2023-05-16T11:11:50Z</time>
</trkpt>
<trkpt lat="48.99214499630034" lon="9.542804975062609">
<ele>254.60000000000002</ele>
<time>2023-05-16T11:11:51Z</time>
</trkpt>
<trkpt lat="48.99216997437179" lon="9.542736997827888">
<ele>254.39999999999998</ele>
<time>2023-05-16T11:11:52Z</time>
</trkpt>
<trkpt lat="48.99219294078648" lon="9.542669942602515">
<ele>254.39999999999998</ele>
<time>2023-05-16T11:11:53Z</time>
</trkpt>
<trkpt lat="48.99221699684858" lon="9.542606994509697">
<ele>254.39999999999998</ele>
<time>2023-05-16T11:11:54Z</time>
</trkpt>
<trkpt lat="48.99223996326327" lon="9.542539939284325">
<ele>254.39999999999998</ele>
<time>2023-05-16T11:11:55Z</time>
</trkpt>
<trkpt lat="48.99226292967796" lon="9.542472967877984">
<ele>254.39999999999998</ele>
<time>2023-05-16T11:11:56Z</time>
</trkpt>
<trkpt lat="48.992284974083304" lon="9.542407924309373">
<ele>254.39999999999998</ele>
<time>2023-05-16T11:11:57Z</time>
</trkpt>
<trkpt lat="48.992307940497994" lon="9.542341958731413">
<ele>254.20000000000005</ele>
<time>2023-05-16T11:11:58Z</time>
</trkpt>
<trkpt lat="48.9923319965601" lon="9.542274987325072">
<ele>254.20000000000005</ele>
<time>2023-05-16T11:11:59Z</time>
</trkpt>
<trkpt lat="48.99235697463155" lon="9.542209943756461">
<ele>254.20000000000005</ele>
<time>2023-05-16T11:12:00Z</time>
</trkpt>
<trkpt lat="48.99238295853138" lon="9.54214297235012">
<ele>254.20000000000005</ele>
<time>2023-05-16T11:12:01Z</time>
</trkpt>
<trkpt lat="48.99240793660283" lon="9.54207792878151">
<ele>254.20000000000005</ele>
<time>2023-05-16T11:12:02Z</time>
</trkpt>
<trkpt lat="48.99243492633104" lon="9.54201196320355">
<ele>254.20000000000005</ele>
<time>2023-05-16T11:12:03Z</time>
</trkpt>
<trkpt lat="48.992459988221526" lon="9.541946919634938">
<ele>254.20000000000005</ele>
<time>2023-05-16T11:12:04Z</time>
</trkpt>
<trkpt lat="48.99248798377812" lon="9.541879948228598">
<ele>254.20000000000005</ele>
<time>2023-05-16T11:12:05Z</time>
</trkpt>
<trkpt lat="48.99251799099147" lon="9.541817922145128">
<ele>254.20000000000005</ele>
<time>2023-05-16T11:12:06Z</time>
</trkpt>
<trkpt lat="48.99254799820483" lon="9.541751956567168">
<ele>254.20000000000005</ele>
<time>2023-05-16T11:12:07Z</time>
</trkpt>
<trkpt lat="48.99257993325591" lon="9.541686996817589">
<ele>254.20000000000005</ele>
<time>2023-05-16T11:12:08Z</time>
</trkpt>
<trkpt lat="48.992609940469265" lon="9.541619941592216">
<ele>254.20000000000005</ele>
<time>2023-05-16T11:12:09Z</time>
</trkpt>
<trkpt lat="48.99263793602586" lon="9.541551964357495">
<ele>254.20000000000005</ele>
<time>2023-05-16T11:12:10Z</time>
</trkpt>
<trkpt lat="48.99266693741083" lon="9.541481975466013">
<ele>254.20000000000005</ele>
<time>2023-05-16T11:12:11Z</time>
</trkpt>
<trkpt lat="48.992696944624186" lon="9.541412992402911">
<ele>254.20000000000005</ele>
<time>2023-05-16T11:12:12Z</time>
</trkpt>
<trkpt lat="48.99272795766592" lon="9.54134694300592">
<ele>254.20000000000005</ele>
<time>2023-05-16T11:12:13Z</time>
</trkpt>
<trkpt lat="48.992757964879274" lon="9.54128198325634">
<ele>254</ele>
<time>2023-05-16T11:12:14Z</time>
</trkpt>
<trkpt lat="48.99278797209263" lon="9.541216939687729">
<ele>254</ele>
<time>2023-05-16T11:12:15Z</time>
</trkpt>
<trkpt lat="48.992819990962744" lon="9.54115197993815">
<ele>254</ele>
<time>2023-05-16T11:12:16Z</time>
</trkpt>
<trkpt lat="48.9928499981761" lon="9.541087942197919">
<ele>254</ele>
<time>2023-05-16T11:12:17Z</time>
</trkpt>
<trkpt lat="48.99287799373269" lon="9.5410249941051">
<ele>254</ele>
<time>2023-05-16T11:12:18Z</time>
</trkpt>
<trkpt lat="48.99290297180414" lon="9.540962968021631">
<ele>254</ele>
<time>2023-05-16T11:12:19Z</time>
</trkpt>
<trkpt lat="48.992929961532354" lon="9.540899936109781">
<ele>254</ele>
<time>2023-05-16T11:12:20Z</time>
</trkpt>
<trkpt lat="48.99295795708895" lon="9.540836988016963">
<ele>254</ele>
<time>2023-05-16T11:12:21Z</time>
</trkpt>
<trkpt lat="48.99298494681716" lon="9.54076993279159">
<ele>254</ele>
<time>2023-05-16T11:12:22Z</time>
</trkpt>
<trkpt lat="48.99301294237375" lon="9.540704973042011">
<ele>254</ele>
<time>2023-05-16T11:12:23Z</time>
</trkpt>
<trkpt lat="48.993041943758726" lon="9.540637917816639">
<ele>254</ele>
<time>2023-05-16T11:12:24Z</time>
</trkpt>
<trkpt lat="48.99306792765856" lon="9.54057496972382">
<ele>254</ele>
<time>2023-05-16T11:12:25Z</time>
</trkpt>
<trkpt lat="48.99309692904353" lon="9.540514955297112">
<ele>254</ele>
<time>2023-05-16T11:12:26Z</time>
</trkpt>
<trkpt lat="48.993122996762395" lon="9.540454940870404">
<ele>254</ele>
<time>2023-05-16T11:12:27Z</time>
</trkpt>
<trkpt lat="48.993147974833846" lon="9.540394926443696">
<ele>254</ele>
<time>2023-05-16T11:12:28Z</time>
</trkpt>
<trkpt lat="48.99317496456206" lon="9.54033499583602">
<ele>254</ele>
<time>2023-05-16T11:12:29Z</time>
</trkpt>
<trkpt lat="48.99320296011865" lon="9.54027196392417">
<ele>253.79999999999995</ele>
<time>2023-05-16T11:12:30Z</time>
</trkpt>
<trkpt lat="48.993231961503625" lon="9.5402099378407">
<ele>253.79999999999995</ele>
<time>2023-05-16T11:12:31Z</time>
</trkpt>
<trkpt lat="48.99325995706022" lon="9.540147995576262">
<ele>253.79999999999995</ele>
<time>2023-05-16T11:12:32Z</time>
</trkpt>
<trkpt lat="48.99328795261681" lon="9.540086975321174">
<ele>253.79999999999995</ele>
<time>2023-05-16T11:12:33Z</time>
</trkpt>
<trkpt lat="48.99331494234502" lon="9.540024949237704">
<ele>253.79999999999995</ele>
<time>2023-05-16T11:12:34Z</time>
</trkpt>
<trkpt lat="48.993341932073236" lon="9.539966946467757">
<ele>253.79999999999995</ele>
<time>2023-05-16T11:12:35Z</time>
</trkpt>
<trkpt lat="48.99336699396372" lon="9.539904920384288">
<ele>253.79999999999995</ele>
<time>2023-05-16T11:12:36Z</time>
</trkpt>
<trkpt lat="48.99338794872165" lon="9.539844989776611">
<ele>253.79999999999995</ele>
<time>2023-05-16T11:12:37Z</time>
</trkpt>
<trkpt lat="48.99341192096472" lon="9.539784975349903">
<ele>253.79999999999995</ele>
<time>2023-05-16T11:12:38Z</time>
</trkpt>
<trkpt lat="48.99343497119844" lon="9.539727978408337">
<ele>253.79999999999995</ele>
<time>2023-05-16T11:12:39Z</time>
</trkpt>
<trkpt lat="48.99346296675503" lon="9.539679950103164">
<ele>253.79999999999995</ele>
<time>2023-05-16T11:12:40Z</time>
</trkpt>
<trkpt lat="48.99349791929126" lon="9.539642985910177">
<ele>253.79999999999995</ele>
<time>2023-05-16T11:12:41Z</time>
</trkpt>
<trkpt lat="48.99353999644518" lon="9.5396279823035">
<ele>253.79999999999995</ele>
<time>2023-05-16T11:12:42Z</time>
</trkpt>
<trkpt lat="48.99358198978007" lon="9.539639968425035">
<ele>253.79999999999995</ele>
<time>2023-05-16T11:12:43Z</time>
</trkpt>
<trkpt lat="48.99362297728658" lon="9.539667963981628">
<ele>254</ele>
<time>2023-05-16T11:12:44Z</time>
</trkpt>
<trkpt lat="48.993662958964705" lon="9.539697971194983">
<ele>254</ele>
<time>2023-05-16T11:12:45Z</time>
</trkpt>
<trkpt lat="48.993702940642834" lon="9.539724960923195">
<ele>254</ele>
<time>2023-05-16T11:12:46Z</time>
</trkpt>
<trkpt lat="48.99374493397772" lon="9.539739964529872">
<ele>254</ele>
<time>2023-05-16T11:12:47Z</time>
</trkpt>
<trkpt lat="48.99378692731261" lon="9.539741976186633">
<ele>254.20000000000005</ele>
<time>2023-05-16T11:12:48Z</time>
</trkpt>
<trkpt lat="48.99382699280977" lon="9.539722949266434">
<ele>254.20000000000005</ele>
<time>2023-05-16T11:12:49Z</time>
</trkpt>
<trkpt lat="48.993861945346" lon="9.539691936224699">
<ele>254.20000000000005</ele>
<time>2023-05-16T11:12:50Z</time>
</trkpt>
<trkpt lat="48.99389295838773" lon="9.539647931233048">
<ele>254.39999999999998</ele>
<time>2023-05-16T11:12:51Z</time>
</trkpt>
<trkpt lat="48.99392296560109" lon="9.539599986746907">
<ele>254.39999999999998</ele>
<time>2023-05-16T11:12:52Z</time>
</trkpt>
<trkpt lat="48.9939499553293" lon="9.539547935128212">
<ele>254.60000000000002</ele>
<time>2023-05-16T11:12:53Z</time>
</trkpt>
<trkpt lat="48.99397795088589" lon="9.539492949843407">
<ele>254.60000000000002</ele>
<time>2023-05-16T11:12:54Z</time>
</trkpt>
<trkpt lat="48.994004940614104" lon="9.539432935416698">
<ele>254.79999999999995</ele>
<time>2023-05-16T11:12:55Z</time>
</trkpt>
<trkpt lat="48.99403193034232" lon="9.53937292098999">
<ele>254.79999999999995</ele>
<time>2023-05-16T11:12:56Z</time>
</trkpt>
<trkpt lat="48.99405992589891" lon="9.539312990382314">
<ele>254.79999999999995</ele>
<time>2023-05-16T11:12:57Z</time>
</trkpt>
<trkpt lat="48.994089933112264" lon="9.539254987612367">
<ele>254.79999999999995</ele>
<time>2023-05-16T11:12:58Z</time>
</trkpt>
<trkpt lat="48.99411792866886" lon="9.5391979906708">
<ele>254.79999999999995</ele>
<time>2023-05-16T11:12:59Z</time>
</trkpt>
<trkpt lat="48.99414491839707" lon="9.539139987900853">
<ele>255</ele>
<time>2023-05-16T11:13:00Z</time>
</trkpt>
<trkpt lat="48.994172997772694" lon="9.539082990959287">
<ele>255</ele>
<time>2023-05-16T11:13:01Z</time>
</trkpt>
<trkpt lat="48.994199987500906" lon="9.53902792185545">
<ele>255</ele>
<time>2023-05-16T11:13:02Z</time>
</trkpt>
<trkpt lat="48.99422697722912" lon="9.538974948227406">
<ele>255</ele>
<time>2023-05-16T11:13:03Z</time>
</trkpt>
<trkpt lat="48.99424793198705" lon="9.538922980427742">
<ele>255</ele>
<time>2023-05-16T11:13:04Z</time>
</trkpt>
<trkpt lat="48.99426796473563" lon="9.538869922980666">
<ele>255</ele>
<time>2023-05-16T11:13:05Z</time>
</trkpt>
<trkpt lat="48.994284979999065" lon="9.538816949352622">
<ele>255</ele>
<time>2023-05-16T11:13:06Z</time>
</trkpt>
<trkpt lat="48.994301995262504" lon="9.538756934925914">
<ele>255.20000000000005</ele>
<time>2023-05-16T11:13:07Z</time>
</trkpt>
<trkpt lat="48.99431196972728" lon="9.538694992661476">
<ele>255.20000000000005</ele>
<time>2023-05-16T11:13:08Z</time>
</trkpt>
<trkpt lat="48.994306940585375" lon="9.538626931607723">
<ele>255.20000000000005</ele>
<time>2023-05-16T11:13:09Z</time>
</trkpt>
<trkpt lat="48.99428992532194" lon="9.538562977686524">
<ele>255.20000000000005</ele>
<time>2023-05-16T11:13:10Z</time>
</trkpt>
<trkpt lat="48.994261929765344" lon="9.538506986573339">
<ele>255.20000000000005</ele>
<time>2023-05-16T11:13:11Z</time>
</trkpt>
<trkpt lat="48.99422496557236" lon="9.53844797797501">
<ele>255.20000000000005</ele>
<time>2023-05-16T11:13:12Z</time>
</trkpt>
<trkpt lat="48.99418791756034" lon="9.538387963548303">
<ele>255.20000000000005</ele>
<time>2023-05-16T11:13:13Z</time>
</trkpt>
<trkpt lat="48.99414793588221" lon="9.538332978263497">
<ele>255.20000000000005</ele>
<time>2023-05-16T11:13:14Z</time>
</trkpt>
<trkpt lat="48.99410795420408" lon="9.538281932473183">
<ele>255</ele>
<time>2023-05-16T11:13:15Z</time>
</trkpt>
<trkpt lat="48.994069984182715" lon="9.538236921653152">
<ele>255</ele>
<time>2023-05-16T11:13:16Z</time>
</trkpt>
<trkpt lat="48.9940329361707" lon="9.538192916661501">
<ele>255</ele>
<time>2023-05-16T11:13:17Z</time>
</trkpt>
<trkpt lat="48.99399697780609" lon="9.538152934983373">
<ele>255</ele>
<time>2023-05-16T11:13:18Z</time>
</trkpt>
<trkpt lat="48.993964958935976" lon="9.538111947476864">
<ele>255</ele>
<time>2023-05-16T11:13:19Z</time>
</trkpt>
<trkpt lat="48.99393696337938" lon="9.538067942485213">
<ele>255</ele>
<time>2023-05-16T11:13:20Z</time>
</trkpt>
<trkpt lat="48.99390796199441" lon="9.538026954978704">
<ele>255</ele>
<time>2023-05-16T11:13:21Z</time>
</trkpt>
<trkpt lat="48.993877954781055" lon="9.537982949987054">
<ele>255</ele>
<time>2023-05-16T11:13:22Z</time>
</trkpt>
<trkpt lat="48.99384493008256" lon="9.537937939167023">
<ele>255</ele>
<time>2023-05-16T11:13:23Z</time>
</trkpt>
<trkpt lat="48.99380796588957" lon="9.537897957488894">
<ele>255</ele>
<time>2023-05-16T11:13:24Z</time>
</trkpt>
<trkpt lat="48.99377795867622" lon="9.537851940840483">
<ele>255</ele>
<time>2023-05-16T11:13:25Z</time>
</trkpt>
<trkpt lat="48.99374191649258" lon="9.53780491836369">
<ele>254.79999999999995</ele>
<time>2023-05-16T11:13:26Z</time>
</trkpt>
<trkpt lat="48.99370193481445" lon="9.537751944735646">
<ele>254.79999999999995</ele>
<time>2023-05-16T11:13:27Z</time>
</trkpt>
<trkpt lat="48.993659941479564" lon="9.53769494779408">
<ele>254.60000000000002</ele>
<time>2023-05-16T11:13:28Z</time>
</trkpt>
<trkpt lat="48.99361493065953" lon="9.537642979994416">
<ele>254.60000000000002</ele>
<time>2023-05-16T11:13:29Z</time>
</trkpt>
<trkpt lat="48.993574948981404" lon="9.53758992254734">
<ele>254.39999999999998</ele>
<time>2023-05-16T11:13:30Z</time>
</trkpt>
<trkpt lat="48.99352792650461" lon="9.537539966404438">
<ele>254.39999999999998</ele>
<time>2023-05-16T11:13:31Z</time>
</trkpt>
<trkpt lat="48.9934869389981" lon="9.537489926442504">
<ele>254.39999999999998</ele>
<time>2023-05-16T11:13:32Z</time>
</trkpt>
<trkpt lat="48.993444945663214" lon="9.537441981956363">
<ele>254.39999999999998</ele>
<time>2023-05-16T11:13:33Z</time>
</trkpt>
<trkpt lat="48.99340798147023" lon="9.537396971136332">
<ele>254.20000000000005</ele>
<time>2023-05-16T11:13:34Z</time>
</trkpt>
<trkpt lat="48.99337294511497" lon="9.537357995286584">
<ele>254.20000000000005</ele>
<time>2023-05-16T11:13:35Z</time>
</trkpt>
<trkpt lat="48.993337992578745" lon="9.53732798807323">
<ele>254.20000000000005</ele>
<time>2023-05-16T11:13:36Z</time>
</trkpt>
<trkpt lat="48.99330697953701" lon="9.537302926182747">
<ele>254</ele>
<time>2023-05-16T11:13:37Z</time>
</trkpt>
<trkpt lat="48.993276972323656" lon="9.53728498890996">
<ele>254</ele>
<time>2023-05-16T11:13:38Z</time>
</trkpt>
<trkpt lat="48.99325794540346" lon="9.53726495616138">
<ele>254</ele>
<time>2023-05-16T11:13:39Z</time>
</trkpt>
<trkpt lat="48.9932469651103" lon="9.537239978089929">
<ele>253.79999999999995</ele>
<time>2023-05-16T11:13:40Z</time>
</trkpt>
<trkpt lat="48.99324294179678" lon="9.537212988361716">
<ele>253.79999999999995</ele>
<time>2023-05-16T11:13:41Z</time>
</trkpt>
<trkpt lat="48.99324797093868" lon="9.537184992805123">
<ele>253.79999999999995</ele>
<time>2023-05-16T11:13:42Z</time>
</trkpt>
<trkpt lat="48.993254927918315" lon="9.537149956449866">
<ele>253.79999999999995</ele>
<time>2023-05-16T11:13:43Z</time>
</trkpt>
<trkpt lat="48.99326699785888" lon="9.537106957286596">
<ele>253.79999999999995</ele>
<time>2023-05-16T11:13:44Z</time>
</trkpt>
<trkpt lat="48.99328493513167" lon="9.537051972001791">
<ele>253.79999999999995</ele>
<time>2023-05-16T11:13:45Z</time>
</trkpt>
<trkpt lat="48.99330295622349" lon="9.536997992545366">
<ele>253.79999999999995</ele>
<time>2023-05-16T11:13:46Z</time>
</trkpt>
<trkpt lat="48.9933249168098" lon="9.53694493509829">
<ele>253.79999999999995</ele>
<time>2023-05-16T11:13:47Z</time>
</trkpt>
<trkpt lat="48.99334696121514" lon="9.536892967298627">
<ele>253.79999999999995</ele>
<time>2023-05-16T11:13:48Z</time>
</trkpt>
<trkpt lat="48.99337495677173" lon="9.53683496452868">
<ele>253.60000000000002</ele>
<time>2023-05-16T11:13:49Z</time>
</trkpt>
<trkpt lat="48.993404963985085" lon="9.536777967587113">
<ele>253.60000000000002</ele>
<time>2023-05-16T11:13:50Z</time>
</trkpt>
<trkpt lat="48.99343295954168" lon="9.53672993928194">
<ele>253.60000000000002</ele>
<time>2023-05-16T11:13:51Z</time>
</trkpt>
<trkpt lat="48.99345994926989" lon="9.536687945947051">
<ele>253.60000000000002</ele>
<time>2023-05-16T11:13:52Z</time>
</trkpt>
<trkpt lat="48.99347294121981" lon="9.536634972319007">
<ele>253.60000000000002</ele>
<time>2023-05-16T11:13:53Z</time>
</trkpt>
<trkpt lat="48.993489956483245" lon="9.536586944013834">
<ele>253.60000000000002</ele>
<time>2023-05-16T11:13:54Z</time>
</trkpt>
<trkpt lat="48.993512922897935" lon="9.536527935415506">
<ele>253.39999999999998</ele>
<time>2023-05-16T11:13:55Z</time>
</trkpt>
<trkpt lat="48.99352692067623" lon="9.53646699897945">
<ele>253.39999999999998</ele>
<time>2023-05-16T11:13:56Z</time>
</trkpt>
<trkpt lat="48.99354695342481" lon="9.536407990381122">
<ele>253.39999999999998</ele>
<time>2023-05-16T11:13:57Z</time>
</trkpt>
<trkpt lat="48.9935699198395" lon="9.536349987611175">
<ele>253.39999999999998</ele>
<time>2023-05-16T11:13:58Z</time>
</trkpt>
<trkpt lat="48.993594981729984" lon="9.536296930164099">
<ele>253.39999999999998</ele>
<time>2023-05-16T11:13:59Z</time>
</trkpt>
<trkpt lat="48.993617948144674" lon="9.536239933222532">
<ele>253.39999999999998</ele>
<time>2023-05-16T11:14:00Z</time>
</trkpt>
<trkpt lat="48.99364795535803" lon="9.536176985129714">
<ele>253.39999999999998</ele>
<time>2023-05-16T11:14:01Z</time>
</trkpt>
<trkpt lat="48.99367796257138" lon="9.536117976531386">
<ele>253.20000000000005</ele>
<time>2023-05-16T11:14:02Z</time>
</trkpt>
<trkpt lat="48.993706963956356" lon="9.53605997376144">
<ele>253.20000000000005</ele>
<time>2023-05-16T11:14:03Z</time>
</trkpt>
<trkpt lat="48.99373294785619" lon="9.536007922142744">
<ele>253.20000000000005</ele>
<time>2023-05-16T11:14:04Z</time>
</trkpt>
<trkpt lat="48.99375298060477" lon="9.535951931029558">
<ele>253.20000000000005</ele>
<time>2023-05-16T11:14:05Z</time>
</trkpt>
<trkpt lat="48.99378198198974" lon="9.53588797710836">
<ele>253.20000000000005</ele>
<time>2023-05-16T11:14:06Z</time>
</trkpt>
<trkpt lat="48.99380494840443" lon="9.535829974338412">
<ele>253.20000000000005</ele>
<time>2023-05-16T11:14:07Z</time>
</trkpt>
<trkpt lat="48.993831938132644" lon="9.535764930769801">
<ele>253.20000000000005</ele>
<time>2023-05-16T11:14:08Z</time>
</trkpt>
<trkpt lat="48.993854988366365" lon="9.53569795936346">
<ele>253.20000000000005</ele>
<time>2023-05-16T11:14:09Z</time>
</trkpt>
<trkpt lat="48.993876948952675" lon="9.535637944936752">
<ele>253.20000000000005</ele>
<time>2023-05-16T11:14:10Z</time>
</trkpt>
<trkpt lat="48.99390293285251" lon="9.535582959651947">
<ele>253</ele>
<time>2023-05-16T11:14:11Z</time>
</trkpt>
<trkpt lat="48.99392992258072" lon="9.535526968538761">
<ele>253</ele>
<time>2023-05-16T11:14:12Z</time>
</trkpt>
<trkpt lat="48.99395196698606" lon="9.535466954112053">
<ele>253</ele>
<time>2023-05-16T11:14:13Z</time>
</trkpt>
<trkpt lat="48.99397795088589" lon="9.535404928028584">
<ele>253</ele>
<time>2023-05-16T11:14:14Z</time>
</trkpt>
<trkpt lat="48.994004940614104" lon="9.535342985764146">
<ele>253</ele>
<time>2023-05-16T11:14:15Z</time>
</trkpt>
<trkpt lat="48.99403193034232" lon="9.535281965509057">
<ele>253</ele>
<time>2023-05-16T11:14:16Z</time>
</trkpt>
<trkpt lat="48.99405498057604" lon="9.535221951082349">
<ele>253</ele>
<time>2023-05-16T11:14:17Z</time>
</trkpt>
<trkpt lat="48.99407694116235" lon="9.535162942484021">
<ele>253</ele>
<time>2023-05-16T11:14:18Z</time>
</trkpt>
<trkpt lat="48.99409496225417" lon="9.535097982734442">
<ele>253</ele>
<time>2023-05-16T11:14:19Z</time>
</trkpt>
<trkpt lat="48.994111977517605" lon="9.53503193333745">
<ele>253</ele>
<time>2023-05-16T11:14:20Z</time>
</trkpt>
<trkpt lat="48.99413192644715" lon="9.534959932789207">
<ele>252.79999999999995</ele>
<time>2023-05-16T11:14:21Z</time>
</trkpt>
<trkpt lat="48.99414693005383" lon="9.534884998574853">
<ele>252.79999999999995</ele>
<time>2023-05-16T11:14:22Z</time>
</trkpt>
<trkpt lat="48.99416193366051" lon="9.534806963056326">
<ele>252.79999999999995</ele>
<time>2023-05-16T11:14:23Z</time>
</trkpt>
<trkpt lat="48.994172997772694" lon="9.534727921709418">
<ele>252.79999999999995</ele>
<time>2023-05-16T11:14:24Z</time>
</trkpt>
<trkpt lat="48.99418498389423" lon="9.534647958353162">
<ele>252.79999999999995</ele>
<time>2023-05-16T11:14:25Z</time>
</trkpt>
<trkpt lat="48.994196970015764" lon="9.534566989168525">
<ele>252.79999999999995</ele>
<time>2023-05-16T11:14:26Z</time>
</trkpt>
<trkpt lat="48.99421197362244" lon="9.534486941993237">
<ele>252.60000000000002</ele>
<time>2023-05-16T11:14:27Z</time>
</trkpt>
<trkpt lat="48.9942279830575" lon="9.53440697863698">
<ele>252.60000000000002</ele>
<time>2023-05-16T11:14:28Z</time>
</trkpt>
<trkpt lat="48.994241980835795" lon="9.534327937290072">
<ele>252.60000000000002</ele>
<time>2023-05-16T11:14:29Z</time>
</trkpt>
<trkpt lat="48.99425195530057" lon="9.534252919256687">
<ele>252.60000000000002</ele>
<time>2023-05-16T11:14:30Z</time>
</trkpt>
<trkpt lat="48.994264947250485" lon="9.534177985042334">
<ele>252.39999999999998</ele>
<time>2023-05-16T11:14:31Z</time>
</trkpt>
<trkpt lat="48.99427693337202" lon="9.53410497866571">
<ele>252.39999999999998</ele>
<time>2023-05-16T11:14:32Z</time>
</trkpt>
<trkpt lat="48.99428699165583" lon="9.534032978117466">
<ele>252.39999999999998</ele>
<time>2023-05-16T11:14:33Z</time>
</trkpt>
<trkpt lat="48.99429797194898" lon="9.533961983397603">
<ele>252.39999999999998</ele>
<time>2023-05-16T11:14:34Z</time>
</trkpt>
<trkpt lat="48.99430291727185" lon="9.533887971192598">
<ele>252.39999999999998</ele>
<time>2023-05-16T11:14:35Z</time>
</trkpt>
<trkpt lat="48.994306940585375" lon="9.533816976472735">
<ele>252.39999999999998</ele>
<time>2023-05-16T11:14:36Z</time>
</trkpt>
<trkpt lat="48.99430995807052" lon="9.533737935125828">
<ele>252.39999999999998</ele>
<time>2023-05-16T11:14:37Z</time>
</trkpt>
<trkpt lat="48.99431498721242" lon="9.533661995083094">
<ele>252.20000000000005</ele>
<time>2023-05-16T11:14:38Z</time>
</trkpt>
<trkpt lat="48.99431993253529" lon="9.533581947907805">
<ele>252.20000000000005</ele>
<time>2023-05-16T11:14:39Z</time>
</trkpt>
<trkpt lat="48.994324961677194" lon="9.533499972894788">
<ele>252.20000000000005</ele>
<time>2023-05-16T11:14:40Z</time>
</trkpt>
<trkpt lat="48.994331918656826" lon="9.53342193737626">
<ele>252.20000000000005</ele>
<time>2023-05-16T11:14:41Z</time>
</trkpt>
<trkpt lat="48.99433694779873" lon="9.533341974020004">
<ele>252.20000000000005</ele>
<time>2023-05-16T11:14:42Z</time>
</trkpt>
<trkpt lat="48.994344994425774" lon="9.533259999006987">
<ele>252.20000000000005</ele>
<time>2023-05-16T11:14:43Z</time>
</trkpt>
<trkpt lat="48.994349939748645" lon="9.533187998458743">
<ele>252.20000000000005</ele>
<time>2023-05-16T11:14:44Z</time>
</trkpt>
<trkpt lat="48.99435295723379" lon="9.53311993740499">
<ele>252.20000000000005</ele>
<time>2023-05-16T11:14:45Z</time>
</trkpt>
<trkpt lat="48.99435798637569" lon="9.533041985705495">
<ele>252.20000000000005</ele>
<time>2023-05-16T11:14:46Z</time>
</trkpt>
<trkpt lat="48.99436494335532" lon="9.532969985157251">
<ele>252.20000000000005</ele>
<time>2023-05-16T11:14:47Z</time>
</trkpt>
<trkpt lat="48.99437298998237" lon="9.532896978780627">
<ele>252.20000000000005</ele>
<time>2023-05-16T11:14:48Z</time>
</trkpt>
<trkpt lat="48.99438296444714" lon="9.53281793743372">
<ele>252.20000000000005</ele>
<time>2023-05-16T11:14:49Z</time>
</trkpt>
<trkpt lat="48.994392938911915" lon="9.532736968249083">
<ele>252.20000000000005</ele>
<time>2023-05-16T11:14:50Z</time>
</trkpt>
<trkpt lat="48.99440492503345" lon="9.532652981579304">
<ele>252</ele>
<time>2023-05-16T11:14:51Z</time>
</trkpt>
<trkpt lat="48.994417916983366" lon="9.532571928575635">
<ele>252</ele>
<time>2023-05-16T11:14:52Z</time>
</trkpt>
<trkpt lat="48.994431998580694" lon="9.532489953562617">
<ele>252</ele>
<time>2023-05-16T11:14:53Z</time>
</trkpt>
<trkpt lat="48.99444499053061" lon="9.53240999020636">
<ele>252</ele>
<time>2023-05-16T11:14:54Z</time>
</trkpt>
<trkpt lat="48.994457982480526" lon="9.532331954687834">
<ele>252</ele>
<time>2023-05-16T11:14:55Z</time>
</trkpt>
<trkpt lat="48.99447198025882" lon="9.532254924997687">
<ele>252</ele>
<time>2023-05-16T11:14:56Z</time>
</trkpt>
<trkpt lat="48.9944819547236" lon="9.532179990783334">
<ele>252</ele>
<time>2023-05-16T11:14:57Z</time>
</trkpt>
<trkpt lat="48.99449293501675" lon="9.53210698440671">
<ele>252</ele>
<time>2023-05-16T11:14:58Z</time>
</trkpt>
<trkpt lat="48.99450492113829" lon="9.532031966373324">
<ele>252</ele>
<time>2023-05-16T11:14:59Z</time>
</trkpt>
<trkpt lat="48.994516991078854" lon="9.531954936683178">
<ele>252</ele>
<time>2023-05-16T11:15:00Z</time>
</trkpt>
<trkpt lat="48.99452696554363" lon="9.531879918649793">
<ele>251.79999999999995</ele>
<time>2023-05-16T11:15:01Z</time>
</trkpt>
<trkpt lat="48.9945369400084" lon="9.53180791810155">
<ele>251.79999999999995</ele>
<time>2023-05-16T11:15:02Z</time>
</trkpt>
<trkpt lat="48.99454993195832" lon="9.531734995543957">
<ele>251.79999999999995</ele>
<time>2023-05-16T11:15:03Z</time>
</trkpt>
<trkpt lat="48.994559990242124" lon="9.531664922833443">
<ele>251.79999999999995</ele>
<time>2023-05-16T11:15:04Z</time>
</trkpt>
<trkpt lat="48.99457197636366" lon="9.531596945598722">
<ele>251.79999999999995</ele>
<time>2023-05-16T11:15:05Z</time>
</trkpt>
<trkpt lat="48.99458195082843" lon="9.531521927565336">
<ele>251.79999999999995</ele>
<time>2023-05-16T11:15:06Z</time>
</trkpt>
<trkpt lat="48.99459494277835" lon="9.53144297003746">
<ele>251.79999999999995</ele>
<time>2023-05-16T11:15:07Z</time>
</trkpt>
<trkpt lat="48.994606928899884" lon="9.531367952004075">
<ele>251.79999999999995</ele>
<time>2023-05-16T11:15:08Z</time>
</trkpt>
<trkpt lat="48.99461799301207" lon="9.531294945627451">
<ele>251.79999999999995</ele>
<time>2023-05-16T11:15:09Z</time>
</trkpt>
<trkpt lat="48.994627967476845" lon="9.531222945079207">
<ele>251.79999999999995</ele>
<time>2023-05-16T11:15:10Z</time>
</trkpt>
<trkpt lat="48.99464196525514" lon="9.531146921217442">
<ele>251.79999999999995</ele>
<time>2023-05-16T11:15:11Z</time>
</trkpt>
<trkpt lat="48.994651939719915" lon="9.531072992831469">
<ele>251.79999999999995</ele>
<time>2023-05-16T11:15:12Z</time>
</trkpt>
<trkpt lat="48.99465998634696" lon="9.530999986454844">
<ele>251.79999999999995</ele>
<time>2023-05-16T11:15:13Z</time>
</trkpt>
<trkpt lat="48.99466794915497" lon="9.53092698007822">
<ele>251.79999999999995</ele>
<time>2023-05-16T11:15:14Z</time>
</trkpt>
<trkpt lat="48.99467993527651" lon="9.530854979529977">
<ele>251.79999999999995</ele>
<time>2023-05-16T11:15:15Z</time>
</trkpt>
<trkpt lat="48.994689993560314" lon="9.530781973153353">
<ele>251.79999999999995</ele>
<time>2023-05-16T11:15:16Z</time>
</trkpt>
<trkpt lat="48.99469996802509" lon="9.53070997260511">
<ele>251.79999999999995</ele>
<time>2023-05-16T11:15:17Z</time>
</trkpt>
<trkpt lat="48.994712959975004" lon="9.530636966228485">
<ele>251.79999999999995</ele>
<time>2023-05-16T11:15:18Z</time>
</trkpt>
<trkpt lat="48.99472796358168" lon="9.53056295402348">
<ele>251.60000000000002</ele>
<time>2023-05-16T11:15:19Z</time>
</trkpt>
<trkpt lat="48.99474296718836" lon="9.530489947646856">
<ele>251.60000000000002</ele>
<time>2023-05-16T11:15:20Z</time>
</trkpt>
<trkpt lat="48.9947599824518" lon="9.530416941270232">
<ele>251.60000000000002</ele>
<time>2023-05-16T11:15:21Z</time>
</trkpt>
<trkpt lat="48.994777919724584" lon="9.530341923236847">
<ele>251.60000000000002</ele>
<time>2023-05-16T11:15:22Z</time>
</trkpt>
<trkpt lat="48.99479493498802" lon="9.530269922688603">
<ele>251.60000000000002</ele>
<time>2023-05-16T11:15:23Z</time>
</trkpt>
<trkpt lat="48.9948149677366" lon="9.530199933797121">
<ele>251.60000000000002</ele>
<time>2023-05-16T11:15:24Z</time>
</trkpt>
<trkpt lat="48.99483491666615" lon="9.5301319565624">
<ele>251.60000000000002</ele>
<time>2023-05-16T11:15:25Z</time>
</trkpt>
<trkpt lat="48.99485696107149" lon="9.53006699681282">
<ele>251.60000000000002</ele>
<time>2023-05-16T11:15:26Z</time>
</trkpt>
<trkpt lat="48.99488294497132" lon="9.53000195324421">
<ele>251.60000000000002</ele>
<time>2023-05-16T11:15:27Z</time>
</trkpt>
<trkpt lat="48.99491295218468" lon="9.529934981837869">
<ele>251.60000000000002</ele>
<time>2023-05-16T11:15:28Z</time>
</trkpt>
<trkpt lat="48.994946982711554" lon="9.529869938269258">
<ele>251.60000000000002</ele>
<time>2023-05-16T11:15:29Z</time>
</trkpt>
<trkpt lat="48.99497799575329" lon="9.52980992384255">
<ele>251.60000000000002</ele>
<time>2023-05-16T11:15:30Z</time>
</trkpt>
<trkpt lat="48.995014959946275" lon="9.529751921072602">
<ele>251.60000000000002</ele>
<time>2023-05-16T11:15:31Z</time>
</trkpt>
<trkpt lat="48.99504999630153" lon="9.529692996293306">
<ele>251.60000000000002</ele>
<time>2023-05-16T11:15:32Z</time>
</trkpt>
<trkpt lat="48.9950879663229" lon="9.52963792718947">
<ele>251.60000000000002</ele>
<time>2023-05-16T11:15:33Z</time>
</trkpt>
<trkpt lat="48.995124930515885" lon="9.529581936076283">
<ele>251.60000000000002</ele>
<time>2023-05-16T11:15:34Z</time>
</trkpt>
<trkpt lat="48.995162984356284" lon="9.52952996827662">
<ele>251.60000000000002</ele>
<time>2023-05-16T11:15:35Z</time>
</trkpt>
<trkpt lat="48.99519994854927" lon="9.529479928314686">
<ele>251.60000000000002</ele>
<time>2023-05-16T11:15:36Z</time>
</trkpt>
<trkpt lat="48.9952399302274" lon="9.529431983828545">
<ele>251.60000000000002</ele>
<time>2023-05-16T11:15:37Z</time>
</trkpt>
<trkpt lat="48.99527999572456" lon="9.529382949694991">
<ele>251.60000000000002</ele>
<time>2023-05-16T11:15:38Z</time>
</trkpt>
<trkpt lat="48.995317965745926" lon="9.529332993552089">
<ele>251.60000000000002</ele>
<time>2023-05-16T11:15:39Z</time>
</trkpt>
<trkpt lat="48.995357947424054" lon="9.529284965246916">
<ele>251.60000000000002</ele>
<time>2023-05-16T11:15:40Z</time>
</trkpt>
<trkpt lat="48.99539792910218" lon="9.529237942770123">
<ele>251.60000000000002</ele>
<time>2023-05-16T11:15:41Z</time>
</trkpt>
<trkpt lat="48.99543799459934" lon="9.529189998283982">
<ele>251.60000000000002</ele>
<time>2023-05-16T11:15:42Z</time>
</trkpt>
<trkpt lat="48.99547797627747" lon="9.529139958322048">
<ele>251.39999999999998</ele>
<time>2023-05-16T11:15:43Z</time>
</trkpt>
<trkpt lat="48.99551695212722" lon="9.529086984694004">
<ele>251.39999999999998</ele>
<time>2023-05-16T11:15:44Z</time>
</trkpt>
<trkpt lat="48.995551988482475" lon="9.529031999409199">
<ele>251.39999999999998</ele>
<time>2023-05-16T11:15:45Z</time>
</trkpt>
<trkpt lat="48.99558492936194" lon="9.528976930305362">
<ele>251.39999999999998</ele>
<time>2023-05-16T11:15:46Z</time>
</trkpt>
<trkpt lat="48.995616948232055" lon="9.528919933363795">
<ele>251.39999999999998</ele>
<time>2023-05-16T11:15:47Z</time>
</trkpt>
<trkpt lat="48.99564695544541" lon="9.528859918937087">
<ele>251.39999999999998</ele>
<time>2023-05-16T11:15:48Z</time>
</trkpt>
<trkpt lat="48.995674951002" lon="9.52879797667265">
<ele>251.39999999999998</ele>
<time>2023-05-16T11:15:49Z</time>
</trkpt>
<trkpt lat="48.995701940730214" lon="9.52873695641756">
<ele>251.39999999999998</ele>
<time>2023-05-16T11:15:50Z</time>
</trkpt>
<trkpt lat="48.995727924630046" lon="9.528671996667981">
<ele>251.39999999999998</ele>
<time>2023-05-16T11:15:51Z</time>
</trkpt>
<trkpt lat="48.99575499817729" lon="9.528604941442609">
<ele>251.39999999999998</ele>
<time>2023-05-16T11:15:52Z</time>
</trkpt>
<trkpt lat="48.99577997624874" lon="9.528534952551126">
<ele>251.39999999999998</ele>
<time>2023-05-16T11:15:53Z</time>
</trkpt>
<trkpt lat="48.99579992517829" lon="9.528462952002883">
<ele>251.39999999999998</ele>
<time>2023-05-16T11:15:54Z</time>
</trkpt>
<trkpt lat="48.99581794627011" lon="9.528387933969498">
<ele>251.20000000000005</ele>
<time>2023-05-16T11:15:55Z</time>
</trkpt>
<trkpt lat="48.995831944048405" lon="9.528311993926764">
<ele>251.20000000000005</ele>
<time>2023-05-16T11:15:56Z</time>
</trkpt>
<trkpt lat="48.99584795348346" lon="9.528234964236617">
<ele>251.20000000000005</ele>
<time>2023-05-16T11:15:57Z</time>
</trkpt>
<trkpt lat="48.9958649687469" lon="9.52815692871809">
<ele>251</ele>
<time>2023-05-16T11:15:58Z</time>
</trkpt>
<trkpt lat="48.99588198401034" lon="9.528076965361834">
<ele>250.79999999999995</ele>
<time>2023-05-16T11:15:59Z</time>
</trkpt>
<trkpt lat="48.995894975960255" lon="9.527999935671687">
<ele>250.79999999999995</ele>
<time>2023-05-16T11:16:00Z</time>
</trkpt>
<trkpt lat="48.99590696208179" lon="9.527927935123444">
<ele>250.79999999999995</ele>
<time>2023-05-16T11:16:01Z</time>
</trkpt>
<trkpt lat="48.995919954031706" lon="9.527857946231961">
<ele>250.79999999999995</ele>
<time>2023-05-16T11:16:02Z</time>
</trkpt>
<trkpt lat="48.99593294598162" lon="9.52778996899724">
<ele>250.79999999999995</ele>
<time>2023-05-16T11:16:03Z</time>
</trkpt>
<trkpt lat="48.9959479495883" lon="9.527721991762519">
<ele>250.79999999999995</ele>
<time>2023-05-16T11:16:04Z</time>
</trkpt>
<trkpt lat="48.995962953194976" lon="9.527652924880385">
<ele>250.79999999999995</ele>
<time>2023-05-16T11:16:05Z</time>
</trkpt>
<trkpt lat="48.995979968458414" lon="9.527584947645664">
<ele>250.79999999999995</ele>
<time>2023-05-16T11:16:06Z</time>
</trkpt>
<trkpt lat="48.99599698372185" lon="9.527514958754182">
<ele>250.79999999999995</ele>
<time>2023-05-16T11:16:07Z</time>
</trkpt>
<trkpt lat="48.9960169326514" lon="9.527442958205938">
<ele>250.79999999999995</ele>
<time>2023-05-16T11:16:08Z</time>
</trkpt>
<trkpt lat="48.99603495374322" lon="9.527376992627978">
<ele>250.79999999999995</ele>
<time>2023-05-16T11:16:09Z</time>
</trkpt>
<trkpt lat="48.9960549864918" lon="9.527312954887748">
<ele>250.79999999999995</ele>
<time>2023-05-16T11:16:10Z</time>
</trkpt>
<trkpt lat="48.99607694707811" lon="9.527249922975898">
<ele>250.79999999999995</ele>
<time>2023-05-16T11:16:11Z</time>
</trkpt>
<trkpt lat="48.99609999731183" lon="9.527184963226318">
<ele>250.79999999999995</ele>
<time>2023-05-16T11:16:12Z</time>
</trkpt>
<trkpt lat="48.99612497538328" lon="9.527114974334836">
<ele>250.79999999999995</ele>
<time>2023-05-16T11:16:13Z</time>
</trkpt>
<trkpt lat="48.996151965111494" lon="9.527044985443354">
<ele>250.79999999999995</ele>
<time>2023-05-16T11:16:14Z</time>
</trkpt>
<trkpt lat="48.99618197232485" lon="9.5269769243896">
<ele>250.79999999999995</ele>
<time>2023-05-16T11:16:15Z</time>
</trkpt>
<trkpt lat="48.99620996788144" lon="9.526911964640021">
<ele>250.79999999999995</ele>
<time>2023-05-16T11:16:16Z</time>
</trkpt>
<trkpt lat="48.99623695760965" lon="9.52684792689979">
<ele>250.79999999999995</ele>
<time>2023-05-16T11:16:17Z</time>
</trkpt>
<trkpt lat="48.996262941509485" lon="9.526787996292114">
<ele>250.79999999999995</ele>
<time>2023-05-16T11:16:18Z</time>
</trkpt>
<trkpt lat="48.9962899312377" lon="9.526726976037025">
<ele>250.79999999999995</ele>
<time>2023-05-16T11:16:19Z</time>
</trkpt>
<trkpt lat="48.99631792679429" lon="9.526664949953556">
<ele>250.79999999999995</ele>
<time>2023-05-16T11:16:20Z</time>
</trkpt>
<trkpt lat="48.996347934007645" lon="9.526604935526848">
<ele>250.79999999999995</ele>
<time>2023-05-16T11:16:21Z</time>
</trkpt>
<trkpt lat="48.99637995287776" lon="9.52654492110014">
<ele>250.79999999999995</ele>
<time>2023-05-16T11:16:22Z</time>
</trkpt>
<trkpt lat="48.996411971747875" lon="9.526486918330193">
<ele>250.79999999999995</ele>
<time>2023-05-16T11:16:23Z</time>
</trkpt>
<trkpt lat="48.99644197896123" lon="9.526431933045387">
<ele>250.79999999999995</ele>
<time>2023-05-16T11:16:24Z</time>
</trkpt>
<trkpt lat="48.99647198617458" lon="9.526376947760582">
<ele>250.79999999999995</ele>
<time>2023-05-16T11:16:25Z</time>
</trkpt>
<trkpt lat="48.99650199338794" lon="9.526319950819016">
<ele>250.60000000000002</ele>
<time>2023-05-16T11:16:26Z</time>
</trkpt>
<trkpt lat="48.99652998894453" lon="9.526259936392307">
<ele>250.60000000000002</ele>
<time>2023-05-16T11:16:27Z</time>
</trkpt>
<trkpt lat="48.99655697867274" lon="9.526196988299489">
<ele>250.60000000000002</ele>
<time>2023-05-16T11:16:28Z</time>
</trkpt>
<trkpt lat="48.996582962572575" lon="9.526132950559258">
<ele>250.60000000000002</ele>
<time>2023-05-16T11:16:29Z</time>
</trkpt>
<trkpt lat="48.996606934815645" lon="9.52607193030417">
<ele>250.60000000000002</ele>
<time>2023-05-16T11:16:30Z</time>
</trkpt>
<trkpt lat="48.99663291871548" lon="9.526012921705842">
<ele>250.60000000000002</ele>
<time>2023-05-16T11:16:31Z</time>
</trkpt>
<trkpt lat="48.99665798060596" lon="9.525954918935895">
<ele>250.60000000000002</ele>
<time>2023-05-16T11:16:32Z</time>
</trkpt>
<trkpt lat="48.99668195284903" lon="9.52589993365109">
<ele>250.60000000000002</ele>
<time>2023-05-16T11:16:33Z</time>
</trkpt>
<trkpt lat="48.99670299142599" lon="9.525844948366284">
<ele>250.60000000000002</ele>
<time>2023-05-16T11:16:34Z</time>
</trkpt>
<trkpt lat="48.99672796949744" lon="9.52579197473824">
<ele>250.60000000000002</ele>
<time>2023-05-16T11:16:35Z</time>
</trkpt>
<trkpt lat="48.99675294756889" lon="9.525736989453435">
<ele>250.60000000000002</ele>
<time>2023-05-16T11:16:36Z</time>
</trkpt>
<trkpt lat="48.996774991974235" lon="9.525682926177979">
<ele>250.79999999999995</ele>
<time>2023-05-16T11:16:37Z</time>
</trkpt>
<trkpt lat="48.996797958388925" lon="9.525631964206696">
<ele>250.79999999999995</ele>
<time>2023-05-16T11:16:38Z</time>
</trkpt>
<trkpt lat="48.996821930631995" lon="9.52557798475027">
<ele>250.79999999999995</ele>
<time>2023-05-16T11:16:39Z</time>
</trkpt>
<trkpt lat="48.99684498086572" lon="9.525519981980324">
<ele>250.79999999999995</ele>
<time>2023-05-16T11:16:40Z</time>
</trkpt>
<trkpt lat="48.99687197059393" lon="9.525462985038757">
<ele>251</ele>
<time>2023-05-16T11:16:41Z</time>
</trkpt>
<trkpt lat="48.99690197780728" lon="9.525407999753952">
<ele>251</ele>
<time>2023-05-16T11:16:42Z</time>
</trkpt>
<trkpt lat="48.99693491868675" lon="9.525349996984005">
<ele>251</ele>
<time>2023-05-16T11:16:43Z</time>
</trkpt>
<trkpt lat="48.996969955042005" lon="9.525286965072155">
<ele>251</ele>
<time>2023-05-16T11:16:44Z</time>
</trkpt>
<trkpt lat="48.99700691923499" lon="9.525221921503544">
<ele>251</ele>
<time>2023-05-16T11:16:45Z</time>
</trkpt>
<trkpt lat="48.99704195559025" lon="9.525152938440442">
<ele>251</ele>
<time>2023-05-16T11:16:46Z</time>
</trkpt>
<trkpt lat="48.997076991945505" lon="9.525086972862482">
<ele>251</ele>
<time>2023-05-16T11:16:47Z</time>
</trkpt>
<trkpt lat="48.99711295031011" lon="9.52501991763711">
<ele>251</ele>
<time>2023-05-16T11:16:48Z</time>
</trkpt>
<trkpt lat="48.99714999832213" lon="9.52495495788753">
<ele>251</ele>
<time>2023-05-16T11:16:49Z</time>
</trkpt>
<trkpt lat="48.997184950858355" lon="9.52489192597568">
<ele>251</ele>
<time>2023-05-16T11:16:50Z</time>
</trkpt>
<trkpt lat="48.99721998721361" lon="9.524826966226101">
<ele>250.79999999999995</ele>
<time>2023-05-16T11:16:51Z</time>
</trkpt>
<trkpt lat="48.99725493974984" lon="9.52476292848587">
<ele>250.79999999999995</ele>
<time>2023-05-16T11:16:52Z</time>
</trkpt>
<trkpt lat="48.997289976105094" lon="9.52469696290791">
<ele>250.79999999999995</ele>
<time>2023-05-16T11:16:53Z</time>
</trkpt>
<trkpt lat="48.99732492864132" lon="9.52462999150157">
<ele>250.79999999999995</ele>
<time>2023-05-16T11:16:54Z</time>
</trkpt>
<trkpt lat="48.997359964996576" lon="9.524562936276197">
<ele>250.60000000000002</ele>
<time>2023-05-16T11:16:55Z</time>
</trkpt>
<trkpt lat="48.99739298969507" lon="9.524497976526618">
<ele>250.60000000000002</ele>
<time>2023-05-16T11:16:56Z</time>
</trkpt>
<trkpt lat="48.99742693640292" lon="9.524432932958007">
<ele>250.39999999999998</ele>
<time>2023-05-16T11:16:57Z</time>
</trkpt>
<trkpt lat="48.99745794944465" lon="9.524366967380047">
<ele>250.39999999999998</ele>
<time>2023-05-16T11:16:58Z</time>
</trkpt>
<trkpt lat="48.99749197997153" lon="9.524301923811436">
<ele>250.20000000000005</ele>
<time>2023-05-16T11:16:59Z</time>
</trkpt>
<trkpt lat="48.99752492085099" lon="9.524237969890237">
<ele>250.20000000000005</ele>
<time>2023-05-16T11:17:00Z</time>
</trkpt>
<trkpt lat="48.99755995720625" lon="9.524174937978387">
<ele>250.20000000000005</ele>
<time>2023-05-16T11:17:01Z</time>
</trkpt>
<trkpt lat="48.997592981904745" lon="9.524114923551679">
<ele>250</ele>
<time>2023-05-16T11:17:02Z</time>
</trkpt>
<trkpt lat="48.99762994609773" lon="9.524052981287241">
<ele>250</ele>
<time>2023-05-16T11:17:03Z</time>
</trkpt>
<trkpt lat="48.99766297079623" lon="9.523991961032152">
<ele>250</ele>
<time>2023-05-16T11:17:04Z</time>
</trkpt>
<trkpt lat="48.99769691750407" lon="9.523926917463541">
<ele>250</ele>
<time>2023-05-16T11:17:05Z</time>
</trkpt>
<trkpt lat="48.99772994220257" lon="9.523861957713962">
<ele>249.79999999999995</ele>
<time>2023-05-16T11:17:06Z</time>
</trkpt>
<trkpt lat="48.99776196107268" lon="9.523799931630492">
<ele>249.79999999999995</ele>
<time>2023-05-16T11:17:07Z</time>
</trkpt>
<trkpt lat="48.99779297411442" lon="9.523737989366055">
<ele>249.79999999999995</ele>
<time>2023-05-16T11:17:08Z</time>
</trkpt>
<trkpt lat="48.99782499298453" lon="9.523677974939346">
<ele>249.79999999999995</ele>
<time>2023-05-16T11:17:09Z</time>
</trkpt>
<trkpt lat="48.99785692803562" lon="9.523617960512638">
<ele>249.60000000000002</ele>
<time>2023-05-16T11:17:10Z</time>
</trkpt>
<trkpt lat="48.99788693524897" lon="9.52355694025755">
<ele>249.60000000000002</ele>
<time>2023-05-16T11:17:11Z</time>
</trkpt>
<trkpt lat="48.997916942462325" lon="9.523496925830841">
<ele>249.60000000000002</ele>
<time>2023-05-16T11:17:12Z</time>
</trkpt>
<trkpt lat="48.99794694967568" lon="9.523434983566403">
<ele>249.60000000000002</ele>
<time>2023-05-16T11:17:13Z</time>
</trkpt>
<trkpt lat="48.99797494523227" lon="9.523369939997792">
<ele>249.60000000000002</ele>
<time>2023-05-16T11:17:14Z</time>
</trkpt>
<trkpt lat="48.998004952445626" lon="9.523304980248213">
<ele>249.60000000000002</ele>
<time>2023-05-16T11:17:15Z</time>
</trkpt>
<trkpt lat="48.99803495965898" lon="9.52323691919446">
<ele>249.60000000000002</ele>
<time>2023-05-16T11:17:16Z</time>
</trkpt>
<trkpt lat="48.99806295521557" lon="9.52316994778812">
<ele>249.60000000000002</ele>
<time>2023-05-16T11:17:17Z</time>
</trkpt>
<trkpt lat="48.99809296242893" lon="9.523101970553398">
<ele>249.60000000000002</ele>
<time>2023-05-16T11:17:18Z</time>
</trkpt>
<trkpt lat="48.99812498129904" lon="9.523034999147058">
<ele>249.39999999999998</ele>
<time>2023-05-16T11:17:19Z</time>
</trkpt>
<trkpt lat="48.9981549885124" lon="9.522971967235208">
<ele>249.39999999999998</ele>
<time>2023-05-16T11:17:20Z</time>
</trkpt>
<trkpt lat="48.99818298406899" lon="9.522906923666596">
<ele>249.39999999999998</ele>
<time>2023-05-16T11:17:21Z</time>
</trkpt>
<trkpt lat="48.9982099737972" lon="9.522842969745398">
<ele>249.39999999999998</ele>
<time>2023-05-16T11:17:22Z</time>
</trkpt>
<trkpt lat="48.99823495186865" lon="9.522774992510676">
<ele>249.39999999999998</ele>
<time>2023-05-16T11:17:23Z</time>
</trkpt>
<trkpt lat="48.998261941596866" lon="9.522704919800162">
<ele>249.39999999999998</ele>
<time>2023-05-16T11:17:24Z</time>
</trkpt>
<trkpt lat="48.9982879254967" lon="9.522637948393822">
<ele>249.39999999999998</ele>
<time>2023-05-16T11:17:25Z</time>
</trkpt>
<trkpt lat="48.99831692688167" lon="9.52256795950234">
<ele>249.20000000000005</ele>
<time>2023-05-16T11:17:26Z</time>
</trkpt>
<trkpt lat="48.998344922438264" lon="9.522497970610857">
<ele>249.20000000000005</ele>
<time>2023-05-16T11:17:27Z</time>
</trkpt>
<trkpt lat="48.99837291799486" lon="9.522426975890994">
<ele>249.20000000000005</ele>
<time>2023-05-16T11:17:28Z</time>
</trkpt>
<trkpt lat="48.99840191937983" lon="9.522351957857609">
<ele>249.20000000000005</ele>
<time>2023-05-16T11:17:29Z</time>
</trkpt>
<trkpt lat="48.99842698127031" lon="9.522276939824224">
<ele>249</ele>
<time>2023-05-16T11:17:30Z</time>
</trkpt>
<trkpt lat="48.998454976826906" lon="9.522201921790838">
<ele>249</ele>
<time>2023-05-16T11:17:31Z</time>
</trkpt>
<trkpt lat="48.99847995489836" lon="9.522129921242595">
<ele>249</ele>
<time>2023-05-16T11:17:32Z</time>
</trkpt>
<trkpt lat="48.99850694462657" lon="9.522057920694351">
<ele>249</ele>
<time>2023-05-16T11:17:33Z</time>
</trkpt>
<trkpt lat="48.99853192269802" lon="9.521984998136759">
<ele>249</ele>
<time>2023-05-16T11:17:34Z</time>
</trkpt>
<trkpt lat="48.99855497293174" lon="9.521912997588515">
<ele>249</ele>
<time>2023-05-16T11:17:35Z</time>
</trkpt>
<trkpt lat="48.99857793934643" lon="9.521842924878001">
<ele>249</ele>
<time>2023-05-16T11:17:36Z</time>
</trkpt>
<trkpt lat="48.998599983751774" lon="9.521771930158138">
<ele>249</ele>
<time>2023-05-16T11:17:37Z</time>
</trkpt>
<trkpt lat="48.998622950166464" lon="9.521699929609895">
<ele>248.79999999999995</ele>
<time>2023-05-16T11:17:38Z</time>
</trkpt>
<trkpt lat="48.998646922409534" lon="9.521629940718412">
<ele>248.79999999999995</ele>
<time>2023-05-16T11:17:39Z</time>
</trkpt>
<trkpt lat="48.998669972643256" lon="9.521561963483691">
<ele>248.79999999999995</ele>
<time>2023-05-16T11:17:40Z</time>
</trkpt>
<trkpt lat="48.998692939057946" lon="9.52149499207735">
<ele>248.79999999999995</ele>
<time>2023-05-16T11:17:41Z</time>
</trkpt>
<trkpt lat="48.99871498346329" lon="9.521432965993881">
<ele>248.79999999999995</ele>
<time>2023-05-16T11:17:42Z</time>
</trkpt>
<trkpt lat="48.998734932392836" lon="9.521372951567173">
<ele>248.60000000000002</ele>
<time>2023-05-16T11:17:43Z</time>
</trkpt>
<trkpt lat="48.998751947656274" lon="9.521312937140465">
<ele>248.60000000000002</ele>
<time>2023-05-16T11:17:44Z</time>
</trkpt>
<trkpt lat="48.99876795709133" lon="9.521254934370518">
<ele>248.60000000000002</ele>
<time>2023-05-16T11:17:45Z</time>
</trkpt>
<trkpt lat="48.99878798983991" lon="9.52119299210608">
<ele>248.60000000000002</ele>
<time>2023-05-16T11:17:46Z</time>
</trkpt>
<trkpt lat="48.99880492128432" lon="9.521132977679372">
<ele>248.60000000000002</ele>
<time>2023-05-16T11:17:47Z</time>
</trkpt>
<trkpt lat="48.998821936547756" lon="9.521069945767522">
<ele>248.39999999999998</ele>
<time>2023-05-16T11:17:48Z</time>
</trkpt>
<trkpt lat="48.998839957639575" lon="9.521004986017942">
<ele>248.39999999999998</ele>
<time>2023-05-16T11:17:49Z</time>
</trkpt>
<trkpt lat="48.99885697290301" lon="9.520939942449331">
<ele>248.39999999999998</ele>
<time>2023-05-16T11:17:50Z</time>
</trkpt>
<trkpt lat="48.99887499399483" lon="9.52087297104299">
<ele>248.39999999999998</ele>
<time>2023-05-16T11:17:51Z</time>
</trkpt>
<trkpt lat="48.99889293126762" lon="9.52080792747438">
<ele>248.39999999999998</ele>
<time>2023-05-16T11:17:52Z</time>
</trkpt>
<trkpt lat="48.99890994653106" lon="9.520749924704432">
<ele>248.39999999999998</ele>
<time>2023-05-16T11:17:53Z</time>
</trkpt>
<trkpt lat="48.998927967622876" lon="9.520691921934485">
<ele>248.39999999999998</ele>
<time>2023-05-16T11:17:54Z</time>
</trkpt>
<trkpt lat="48.99894297122955" lon="9.520631991326809">
<ele>248.39999999999998</ele>
<time>2023-05-16T11:17:55Z</time>
</trkpt>
<trkpt lat="48.99895998649299" lon="9.52056996524334">
<ele>248.39999999999998</ele>
<time>2023-05-16T11:17:56Z</time>
</trkpt>
<trkpt lat="48.99897499009967" lon="9.52050793915987">
<ele>248.39999999999998</ele>
<time>2023-05-16T11:17:57Z</time>
</trkpt>
<trkpt lat="48.998989993706346" lon="9.520449936389923">
<ele>248.39999999999998</ele>
<time>2023-05-16T11:17:58Z</time>
</trkpt>
<trkpt lat="48.99900692515075" lon="9.520389921963215">
<ele>248.39999999999998</ele>
<time>2023-05-16T11:17:59Z</time>
</trkpt>
<trkpt lat="48.99902796372771" lon="9.520324962213635">
<ele>248.39999999999998</ele>
<time>2023-05-16T11:18:00Z</time>
</trkpt>
<trkpt lat="48.99904296733439" lon="9.520267965272069">
<ele>248.39999999999998</ele>
<time>2023-05-16T11:18:01Z</time>
</trkpt>
<trkpt lat="48.99905797094107" lon="9.520209962502122">
<ele>248.39999999999998</ele>
<time>2023-05-16T11:18:02Z</time>
</trkpt>
<trkpt lat="48.9990699570626" lon="9.520157994702458">
<ele>248.39999999999998</ele>
<time>2023-05-16T11:18:03Z</time>
</trkpt>
<trkpt lat="48.99908294901252" lon="9.52009798027575">
<ele>248.39999999999998</ele>
<time>2023-05-16T11:18:04Z</time>
</trkpt>
<trkpt lat="48.999096946790814" lon="9.520037965849042">
<ele>248.39999999999998</ele>
<time>2023-05-16T11:18:05Z</time>
</trkpt>
<trkpt lat="48.99911195039749" lon="9.519977951422334">
<ele>248.39999999999998</ele>
<time>2023-05-16T11:18:06Z</time>
</trkpt>
<trkpt lat="48.99912494234741" lon="9.519914919510484">
<ele>248.39999999999998</ele>
<time>2023-05-16T11:18:07Z</time>
</trkpt>
<trkpt lat="48.99913793429732" lon="9.519851971417665">
<ele>248.39999999999998</ele>
<time>2023-05-16T11:18:08Z</time>
</trkpt>
<trkpt lat="48.999152937904" lon="9.519787933677435">
<ele>248.39999999999998</ele>
<time>2023-05-16T11:18:09Z</time>
</trkpt>
<trkpt lat="48.9991719648242" lon="9.519724985584617">
<ele>248.39999999999998</ele>
<time>2023-05-16T11:18:10Z</time>
</trkpt>
<trkpt lat="48.99918998591602" lon="9.519661953672767">
<ele>248.39999999999998</ele>
<time>2023-05-16T11:18:11Z</time>
</trkpt>
<trkpt lat="48.999204989522696" lon="9.519601939246058">
<ele>248.39999999999998</ele>
<time>2023-05-16T11:18:12Z</time>
</trkpt>
<trkpt lat="48.99921999312937" lon="9.51954192481935">
<ele>248.39999999999998</ele>
<time>2023-05-16T11:18:13Z</time>
</trkpt>
<trkpt lat="48.99923298507929" lon="9.519481994211674">
<ele>248.39999999999998</ele>
<time>2023-05-16T11:18:14Z</time>
</trkpt>
<trkpt lat="48.999247988685966" lon="9.519421979784966">
<ele>248.39999999999998</ele>
<time>2023-05-16T11:18:15Z</time>
</trkpt>
<trkpt lat="48.99926198646426" lon="9.519361965358257">
<ele>248.39999999999998</ele>
<time>2023-05-16T11:18:16Z</time>
</trkpt>
<trkpt lat="48.99927497841418" lon="9.519296921789646">
<ele>248.39999999999998</ele>
<time>2023-05-16T11:18:17Z</time>
</trkpt>
<trkpt lat="48.999289982020855" lon="9.519229950383306">
<ele>248.39999999999998</ele>
<time>2023-05-16T11:18:18Z</time>
</trkpt>
<trkpt lat="48.99930297397077" lon="9.519161973148584">
<ele>248.39999999999998</ele>
<time>2023-05-16T11:18:19Z</time>
</trkpt>
<trkpt lat="48.999314960092306" lon="9.519092990085483">
<ele>248.20000000000005</ele>
<time>2023-05-16T11:18:20Z</time>
</trkpt>
<trkpt lat="48.99932996369898" lon="9.519016966223717">
<ele>248.20000000000005</ele>
<time>2023-05-16T11:18:21Z</time>
</trkpt>
<trkpt lat="48.9993429556489" lon="9.51893993653357">
<ele>248.20000000000005</ele>
<time>2023-05-16T11:18:22Z</time>
</trkpt>
<trkpt lat="48.99935997091234" lon="9.518862990662456">
<ele>248.20000000000005</ele>
<time>2023-05-16T11:18:23Z</time>
</trkpt>
<trkpt lat="48.999374974519014" lon="9.51878797262907">
<ele>248</ele>
<time>2023-05-16T11:18:24Z</time>
</trkpt>
<trkpt lat="48.99938997812569" lon="9.518716977909207">
<ele>248</ele>
<time>2023-05-16T11:18:25Z</time>
</trkpt>
<trkpt lat="48.99940498173237" lon="9.518642965704203">
<ele>248</ele>
<time>2023-05-16T11:18:26Z</time>
</trkpt>
<trkpt lat="48.999417973682284" lon="9.518569959327579">
<ele>248</ele>
<time>2023-05-16T11:18:27Z</time>
</trkpt>
<trkpt lat="48.99943297728896" lon="9.518491923809052">
<ele>247.79999999999995</ele>
<time>2023-05-16T11:18:28Z</time>
</trkpt>
<trkpt lat="48.99944697506726" lon="9.518417995423079">
<ele>247.79999999999995</ele>
<time>2023-05-16T11:18:29Z</time>
</trkpt>
<trkpt lat="48.99945694953203" lon="9.518346916884184">
<ele>247.79999999999995</ele>
<time>2023-05-16T11:18:30Z</time>
</trkpt>
<trkpt lat="48.99946792982519" lon="9.51827198266983">
<ele>247.79999999999995</ele>
<time>2023-05-16T11:18:31Z</time>
</trkpt>
<trkpt lat="48.99948192760348" lon="9.518196964636445">
<ele>247.79999999999995</ele>
<time>2023-05-16T11:18:32Z</time>
</trkpt>
<trkpt lat="48.99949299171567" lon="9.518129993230104">
<ele>247.60000000000002</ele>
<time>2023-05-16T11:18:33Z</time>
</trkpt>
<trkpt lat="48.99950799532235" lon="9.518064949661493">
<ele>247.60000000000002</ele>
<time>2023-05-16T11:18:34Z</time>
</trkpt>
<trkpt lat="48.999522998929024" lon="9.51799294911325">
<ele>247.60000000000002</ele>
<time>2023-05-16T11:18:35Z</time>
</trkpt>
<trkpt lat="48.99953699670732" lon="9.517922960221767">
<ele>247.60000000000002</ele>
<time>2023-05-16T11:18:36Z</time>
</trkpt>
<trkpt lat="48.999546971172094" lon="9.517851965501904">
<ele>247.60000000000002</ele>
<time>2023-05-16T11:18:37Z</time>
</trkpt>
<trkpt lat="48.99956692010164" lon="9.51777694746852">
<ele>247.39999999999998</ele>
<time>2023-05-16T11:18:38Z</time>
</trkpt>
<trkpt lat="48.99958695285022" lon="9.517697989940643">
<ele>247.39999999999998</ele>
<time>2023-05-16T11:18:39Z</time>
</trkpt>
<trkpt lat="48.99959793314338" lon="9.51762699522078">
<ele>247.39999999999998</ele>
<time>2023-05-16T11:18:40Z</time>
</trkpt>
<trkpt lat="48.999612936750054" lon="9.517549965530634">
<ele>247.39999999999998</ele>
<time>2023-05-16T11:18:41Z</time>
</trkpt>
<trkpt lat="48.99962995201349" lon="9.517466984689236">
<ele>247.39999999999998</ele>
<time>2023-05-16T11:18:42Z</time>
</trkpt>
<trkpt lat="48.99964193813503" lon="9.51739196665585">
<ele>247.39999999999998</ele>
<time>2023-05-16T11:18:43Z</time>
</trkpt>
<trkpt lat="48.99965291842818" lon="9.517312925308943">
<ele>247.39999999999998</ele>
<time>2023-05-16T11:18:44Z</time>
</trkpt>
<trkpt lat="48.99966691620648" lon="9.517229944467545">
<ele>247.20000000000005</ele>
<time>2023-05-16T11:18:45Z</time>
</trkpt>
<trkpt lat="48.999674962833524" lon="9.517149981111288">
<ele>247.20000000000005</ele>
<time>2023-05-16T11:18:46Z</time>
</trkpt>
<trkpt lat="48.999681919813156" lon="9.517069933936">
<ele>247.20000000000005</ele>
<time>2023-05-16T11:18:47Z</time>
</trkpt>
<trkpt lat="48.9996849372983" lon="9.516991982236505">
<ele>247.20000000000005</ele>
<time>2023-05-16T11:18:48Z</time>
</trkpt>
<trkpt lat="48.9996899664402" lon="9.516914952546358">
<ele>247.20000000000005</ele>
<time>2023-05-16T11:18:49Z</time>
</trkpt>
<trkpt lat="48.99969692341983" lon="9.516836917027831">
<ele>247.20000000000005</ele>
<time>2023-05-16T11:18:50Z</time>
</trkpt>
<trkpt lat="48.99970295839012" lon="9.516762988641858">
<ele>247.20000000000005</ele>
<time>2023-05-16T11:18:51Z</time>
</trkpt>
<trkpt lat="48.99971293285489" lon="9.516684953123331">
<ele>247.20000000000005</ele>
<time>2023-05-16T11:18:52Z</time>
</trkpt>
<trkpt lat="48.999721985310316" lon="9.516609935089946">
<ele>247.20000000000005</ele>
<time>2023-05-16T11:18:53Z</time>
</trkpt>
<trkpt lat="48.99973195977509" lon="9.516536928713322">
<ele>247.20000000000005</ele>
<time>2023-05-16T11:18:54Z</time>
</trkpt>
<trkpt lat="48.999742940068245" lon="9.516462916508317">
<ele>247.20000000000005</ele>
<time>2023-05-16T11:18:55Z</time>
</trkpt>
<trkpt lat="48.99975693784654" lon="9.516384964808822">
<ele>247.20000000000005</ele>
<time>2023-05-16T11:18:56Z</time>
</trkpt>
<trkpt lat="48.99977194145322" lon="9.516307935118675">
<ele>247.20000000000005</ele>
<time>2023-05-16T11:18:57Z</time>
</trkpt>
<trkpt lat="48.999787950888276" lon="9.516236940398812">
<ele>247.20000000000005</ele>
<time>2023-05-16T11:18:58Z</time>
</trkpt>
<trkpt lat="48.999806977808475" lon="9.51616695150733">
<ele>247.20000000000005</ele>
<time>2023-05-16T11:18:59Z</time>
</trkpt>
<trkpt lat="48.99983195587993" lon="9.516092939302325">
<ele>247.20000000000005</ele>
<time>2023-05-16T11:19:00Z</time>
</trkpt>
<trkpt lat="48.99985693395138" lon="9.516027979552746">
<ele>247.20000000000005</ele>
<time>2023-05-16T11:19:01Z</time>
</trkpt>
<trkpt lat="48.99988492950797" lon="9.515961930155754">
<ele>247.20000000000005</ele>
<time>2023-05-16T11:19:02Z</time>
</trkpt>
<trkpt lat="48.999916948378086" lon="9.515897976234555">
<ele>247.20000000000005</ele>
<time>2023-05-16T11:19:03Z</time>
</trkpt>
<trkpt lat="48.99995198473334" lon="9.51584299094975">
<ele>247.20000000000005</ele>
<time>2023-05-16T11:19:04Z</time>
</trkpt>
<trkpt lat="48.99998794309795" lon="9.515796974301338">
<ele>247.20000000000005</ele>
<time>2023-05-16T11:19:05Z</time>
</trkpt>
<trkpt lat="49.00002792477608" lon="9.515754980966449">
<ele>247.20000000000005</ele>
<time>2023-05-16T11:19:06Z</time>
</trkpt>
<trkpt lat="49.00007494725287" lon="9.515719944611192">
<ele>247.20000000000005</ele>
<time>2023-05-16T11:19:07Z</time>
</trkpt>
<trkpt lat="49.00011694058776" lon="9.515682980418205">
<ele>247.20000000000005</ele>
<time>2023-05-16T11:19:08Z</time>
</trkpt>
<trkpt lat="49.00016195140779" lon="9.515634952113032">
<ele>247.20000000000005</ele>
<time>2023-05-16T11:19:09Z</time>
</trkpt>
<trkpt lat="49.00020696222782" lon="9.515597987920046">
<ele>247.20000000000005</ele>
<time>2023-05-16T11:19:10Z</time>
</trkpt>
<trkpt lat="49.000254990532994" lon="9.515561945736408">
<ele>247.20000000000005</ele>
<time>2023-05-16T11:19:11Z</time>
</trkpt>
<trkpt lat="49.00029195472598" lon="9.515526993200183">
<ele>247.20000000000005</ele>
<time>2023-05-16T11:19:12Z</time>
</trkpt>
<trkpt lat="49.00032992474735" lon="9.515494974330068">
<ele>247.20000000000005</ele>
<time>2023-05-16T11:19:13Z</time>
</trkpt>
<trkpt lat="49.000366972759366" lon="9.515464967116714">
<ele>247.20000000000005</ele>
<time>2023-05-16T11:19:14Z</time>
</trkpt>
<trkpt lat="49.00040494278073" lon="9.515427919104695">
<ele>247.20000000000005</ele>
<time>2023-05-16T11:19:15Z</time>
</trkpt>
<trkpt lat="49.00043997913599" lon="9.515382992103696">
<ele>247.20000000000005</ele>
<time>2023-05-16T11:19:16Z</time>
</trkpt>
<trkpt lat="49.00046797469258" lon="9.51532993465662">
<ele>247.20000000000005</ele>
<time>2023-05-16T11:19:17Z</time>
</trkpt>
<trkpt lat="49.00048691779375" lon="9.515271931886673">
<ele>247.20000000000005</ele>
<time>2023-05-16T11:19:18Z</time>
</trkpt>
<trkpt lat="49.0004999935627" lon="9.515207977965474">
<ele>247.20000000000005</ele>
<time>2023-05-16T11:19:19Z</time>
</trkpt>
<trkpt lat="49.00050996802747" lon="9.515142934396863">
<ele>247.20000000000005</ele>
<time>2023-05-16T11:19:20Z</time>
</trkpt>
<trkpt lat="49.000512985512614" lon="9.515074957162142">
<ele>247.20000000000005</ele>
<time>2023-05-16T11:19:21Z</time>
</trkpt>
<trkpt lat="49.000517930835485" lon="9.515002956613898">
<ele>247.20000000000005</ele>
<time>2023-05-16T11:19:22Z</time>
</trkpt>
<trkpt lat="49.00052497163415" lon="9.514927938580513">
<ele>247</ele>
<time>2023-05-16T11:19:23Z</time>
</trkpt>
<trkpt lat="49.00053293444216" lon="9.514852920547128">
<ele>247</ele>
<time>2023-05-16T11:19:24Z</time>
</trkpt>
<trkpt lat="49.000537963584065" lon="9.514779997989535">
<ele>247</ele>
<time>2023-05-16T11:19:25Z</time>
</trkpt>
<trkpt lat="49.00054793804884" lon="9.514701962471008">
<ele>247</ele>
<time>2023-05-16T11:19:26Z</time>
</trkpt>
<trkpt lat="49.00055296719074" lon="9.5146229211241">
<ele>247</ele>
<time>2023-05-16T11:19:27Z</time>
</trkpt>
<trkpt lat="49.000557996332645" lon="9.514542957767844">
<ele>246.79999999999995</ele>
<time>2023-05-16T11:19:28Z</time>
</trkpt>
<trkpt lat="49.00056797079742" lon="9.51446995139122">
<ele>246.79999999999995</ele>
<time>2023-05-16T11:19:29Z</time>
</trkpt>
<trkpt lat="49.000577945262194" lon="9.514394933357835">
<ele>246.79999999999995</ele>
<time>2023-05-16T11:19:30Z</time>
</trkpt>
<trkpt lat="49.00058699771762" lon="9.514319999143481">
<ele>246.60000000000002</ele>
<time>2023-05-16T11:19:31Z</time>
</trkpt>
<trkpt lat="49.00059697218239" lon="9.514244981110096">
<ele>246.60000000000002</ele>
<time>2023-05-16T11:19:32Z</time>
</trkpt>
<trkpt lat="49.00060996413231" lon="9.514171974733472">
<ele>246.60000000000002</ele>
<time>2023-05-16T11:19:33Z</time>
</trkpt>
<trkpt lat="49.00062697939575" lon="9.514087988063693">
<ele>246.39999999999998</ele>
<time>2023-05-16T11:19:34Z</time>
</trkpt>
<trkpt lat="49.00063494220376" lon="9.514014981687069">
<ele>246.39999999999998</ele>
<time>2023-05-16T11:19:35Z</time>
</trkpt>
<trkpt lat="49.000646928325295" lon="9.513939963653684">
<ele>246.39999999999998</ele>
<time>2023-05-16T11:19:36Z</time>
</trkpt>
<trkpt lat="49.00065992027521" lon="9.513864945620298">
<ele>246.20000000000005</ele>
<time>2023-05-16T11:19:37Z</time>
</trkpt>
<trkpt lat="49.00067492388189" lon="9.513789927586913">
<ele>246.20000000000005</ele>
<time>2023-05-16T11:19:38Z</time>
</trkpt>
<trkpt lat="49.000689927488565" lon="9.513712981715798">
<ele>246.20000000000005</ele>
<time>2023-05-16T11:19:39Z</time>
</trkpt>
<trkpt lat="49.00070291943848" lon="9.513637963682413">
<ele>246</ele>
<time>2023-05-16T11:19:40Z</time>
</trkpt>
<trkpt lat="49.00071691721678" lon="9.513564957305789">
<ele>246</ele>
<time>2023-05-16T11:19:41Z</time>
</trkpt>
<trkpt lat="49.000727981328964" lon="9.513497985899448">
<ele>246</ele>
<time>2023-05-16T11:19:42Z</time>
</trkpt>
<trkpt lat="49.00074793025851" lon="9.513429924845695">
<ele>245.79999999999995</ele>
<time>2023-05-16T11:19:43Z</time>
</trkpt>
<trkpt lat="49.00075798854232" lon="9.513367982581258">
<ele>245.79999999999995</ele>
<time>2023-05-16T11:19:44Z</time>
</trkpt>
<trkpt lat="49.00076796300709" lon="9.51330997981131">
<ele>245.79999999999995</ele>
<time>2023-05-16T11:19:45Z</time>
</trkpt>
<trkpt lat="49.00078296661377" lon="9.513247953727841">
<ele>245.79999999999995</ele>
<time>2023-05-16T11:19:46Z</time>
</trkpt>
<trkpt lat="49.000794952735305" lon="9.513181988149881">
<ele>245.79999999999995</ele>
<time>2023-05-16T11:19:47Z</time>
</trkpt>
<trkpt lat="49.00080794468522" lon="9.513121973723173">
<ele>245.79999999999995</ele>
<time>2023-05-16T11:19:48Z</time>
</trkpt>
<trkpt lat="49.000816997140646" lon="9.513061959296465">
<ele>245.79999999999995</ele>
<time>2023-05-16T11:19:49Z</time>
</trkpt>
<trkpt lat="49.000819930806756" lon="9.512997921556234">
<ele>245.79999999999995</ele>
<time>2023-05-16T11:19:50Z</time>
</trkpt>
<trkpt lat="49.0008229482919" lon="9.512934973463416">
<ele>245.79999999999995</ele>
<time>2023-05-16T11:19:51Z</time>
</trkpt>
<trkpt lat="49.00083191692829" lon="9.512872947379947">
<ele>245.79999999999995</ele>
<time>2023-05-16T11:19:52Z</time>
</trkpt>
<trkpt lat="49.00084298104048" lon="9.512809999287128">
<ele>245.79999999999995</ele>
<time>2023-05-16T11:19:53Z</time>
</trkpt>
<trkpt lat="49.000857984647155" lon="9.51274998486042">
<ele>245.79999999999995</ele>
<time>2023-05-16T11:19:54Z</time>
</trkpt>
<trkpt lat="49.00086997076869" lon="9.512682929635048">
<ele>245.79999999999995</ele>
<time>2023-05-16T11:19:55Z</time>
</trkpt>
<trkpt lat="49.000881956890225" lon="9.512609923258424">
<ele>245.79999999999995</ele>
<time>2023-05-16T11:19:56Z</time>
</trkpt>
<trkpt lat="49.00089293718338" lon="9.512532977387309">
<ele>245.79999999999995</ele>
<time>2023-05-16T11:19:57Z</time>
</trkpt>
<trkpt lat="49.00090794079006" lon="9.512466927990317">
<ele>245.79999999999995</ele>
<time>2023-05-16T11:19:58Z</time>
</trkpt>
<trkpt lat="49.000921938568354" lon="9.512394927442074">
<ele>245.79999999999995</ele>
<time>2023-05-16T11:19:59Z</time>
</trkpt>
<trkpt lat="49.00093199685216" lon="9.512327956035733">
<ele>245.79999999999995</ele>
<time>2023-05-16T11:20:00Z</time>
</trkpt>
<trkpt lat="49.00093794800341" lon="9.512261990457773">
<ele>245.79999999999995</ele>
<time>2023-05-16T11:20:01Z</time>
</trkpt>
<trkpt lat="49.000944988802075" lon="9.512196946889162">
<ele>245.79999999999995</ele>
<time>2023-05-16T11:20:02Z</time>
</trkpt>
<trkpt lat="49.00095194578171" lon="9.51212695799768">
<ele>245.79999999999995</ele>
<time>2023-05-16T11:20:03Z</time>
</trkpt>
<trkpt lat="49.00095798075199" lon="9.512051939964294">
<ele>245.79999999999995</ele>
<time>2023-05-16T11:20:04Z</time>
</trkpt>
<trkpt lat="49.00096192024648" lon="9.51197499409318">
<ele>245.79999999999995</ele>
<time>2023-05-16T11:20:05Z</time>
</trkpt>
<trkpt lat="49.00096292607486" lon="9.511902993544936">
<ele>245.79999999999995</ele>
<time>2023-05-16T11:20:06Z</time>
</trkpt>
<trkpt lat="49.00095798075199" lon="9.511837949976325">
<ele>245.79999999999995</ele>
<time>2023-05-16T11:20:07Z</time>
</trkpt>
<trkpt lat="49.00095496326685" lon="9.511777935549617">
<ele>245.79999999999995</ele>
<time>2023-05-16T11:20:08Z</time>
</trkpt>
<trkpt lat="49.00095697492361" lon="9.51171993277967">
<ele>245.79999999999995</ele>
<time>2023-05-16T11:20:09Z</time>
</trkpt>
<trkpt lat="49.00095999240875" lon="9.511666959151626">
<ele>245.79999999999995</ele>
<time>2023-05-16T11:20:10Z</time>
</trkpt>
<trkpt lat="49.00095798075199" lon="9.511619936674833">
<ele>245.79999999999995</ele>
<time>2023-05-16T11:20:11Z</time>
</trkpt>
<trkpt lat="49.00095798075199" lon="9.511569980531931">
<ele>245.79999999999995</ele>
<time>2023-05-16T11:20:12Z</time>
</trkpt>
<trkpt lat="49.00095194578171" lon="9.511511977761984">
<ele>246</ele>
<time>2023-05-16T11:20:13Z</time>
</trkpt>
<trkpt lat="49.00093794800341" lon="9.511454980820417">
<ele>246</ele>
<time>2023-05-16T11:20:14Z</time>
</trkpt>
<trkpt lat="49.000921938568354" lon="9.51139697805047">
<ele>246.20000000000005</ele>
<time>2023-05-16T11:20:15Z</time>
</trkpt>
<trkpt lat="49.000899977982044" lon="9.511337969452143">
<ele>246.20000000000005</ele>
<time>2023-05-16T11:20:16Z</time>
</trkpt>
<trkpt lat="49.00087198242545" lon="9.511279966682196">
<ele>246.39999999999998</ele>
<time>2023-05-16T11:20:17Z</time>
</trkpt>
<trkpt lat="49.000836946070194" lon="9.511217940598726">
<ele>246.39999999999998</ele>
<time>2023-05-16T11:20:18Z</time>
</trkpt>
<trkpt lat="49.00079797022045" lon="9.511144934222102">
<ele>246.39999999999998</ele>
<time>2023-05-16T11:20:19Z</time>
</trkpt>
<trkpt lat="49.000771986320615" lon="9.511072933673859">
<ele>246.39999999999998</ele>
<time>2023-05-16T11:20:20Z</time>
</trkpt>
<trkpt lat="49.00074692443013" lon="9.51100998558104">
<ele>246.39999999999998</ele>
<time>2023-05-16T11:20:21Z</time>
</trkpt>
<trkpt lat="49.000731920823455" lon="9.510954916477203">
<ele>246.39999999999998</ele>
<time>2023-05-16T11:20:22Z</time>
</trkpt>
<trkpt lat="49.00071993470192" lon="9.510904960334301">
<ele>246.39999999999998</ele>
<time>2023-05-16T11:20:23Z</time>
</trkpt>
<trkpt lat="49.000709960237145" lon="9.510856932029128">
<ele>246.39999999999998</ele>
<time>2023-05-16T11:20:24Z</time>
</trkpt>
<trkpt lat="49.00070291943848" lon="9.510811921209097">
<ele>246.39999999999998</ele>
<time>2023-05-16T11:20:25Z</time>
</trkpt>
<trkpt lat="49.000689927488565" lon="9.510769927874207">
<ele>246.39999999999998</ele>
<time>2023-05-16T11:20:26Z</time>
</trkpt>
<trkpt lat="49.000666961073875" lon="9.510746961459517">
<ele>246.20000000000005</ele>
<time>2023-05-16T11:20:27Z</time>
</trkpt>
<trkpt lat="49.000641983002424" lon="9.510742938145995">
<ele>246.20000000000005</ele>
<time>2023-05-16T11:20:28Z</time>
</trkpt>
<trkpt lat="49.000624967738986" lon="9.510756935924292">
<ele>246</ele>
<time>2023-05-16T11:20:29Z</time>
</trkpt>
<trkpt lat="49.00061692111194" lon="9.510771939530969">
<ele>246</ele>
<time>2023-05-16T11:20:30Z</time>
</trkpt>
<trkpt lat="49.00061692111194" lon="9.51077294535935">
<ele>246</ele>
<time>2023-05-16T11:20:31Z</time>
</trkpt>
<trkpt lat="49.00061993859708" lon="9.510776968672872">
<ele>245.79999999999995</ele>
<time>2023-05-16T11:20:32Z</time>
</trkpt>
<trkpt lat="49.000624967738986" lon="9.510787948966026">
<ele>245.79999999999995</ele>
<time>2023-05-16T11:20:33Z</time>
</trkpt>
<trkpt lat="49.00062798522413" lon="9.510804964229465">
<ele>245.79999999999995</ele>
<time>2023-05-16T11:20:34Z</time>
</trkpt>
<trkpt lat="49.00063192471862" lon="9.510831953957677">
<ele>245.79999999999995</ele>
<time>2023-05-16T11:20:35Z</time>
</trkpt>
<trkpt lat="49.00063494220376" lon="9.510861961171031">
<ele>245.79999999999995</ele>
<time>2023-05-16T11:20:36Z</time>
</trkpt>
<trkpt lat="49.00063695386052" lon="9.510892974212766">
<ele>245.79999999999995</ele>
<time>2023-05-16T11:20:37Z</time>
</trkpt>
<trkpt lat="49.00063997134566" lon="9.510932955890894">
<ele>245.79999999999995</ele>
<time>2023-05-16T11:20:38Z</time>
</trkpt>
<trkpt lat="49.000642988830805" lon="9.51096698641777">
<ele>245.60000000000002</ele>
<time>2023-05-16T11:20:39Z</time>
</trkpt>
<trkpt lat="49.00064994581044" lon="9.510994981974363">
<ele>245.60000000000002</ele>
<time>2023-05-16T11:20:40Z</time>
</trkpt>
<trkpt lat="49.00065497495234" lon="9.511019960045815">
<ele>245.60000000000002</ele>
<time>2023-05-16T11:20:41Z</time>
</trkpt>
<trkpt lat="49.00066293776035" lon="9.511044938117266">
<ele>245.60000000000002</ele>
<time>2023-05-16T11:20:42Z</time>
</trkpt>
<trkpt lat="49.00066293776035" lon="9.511071927845478">
<ele>245.60000000000002</ele>
<time>2023-05-16T11:20:43Z</time>
</trkpt>
<trkpt lat="49.00067492388189" lon="9.511092966422439">
<ele>245.60000000000002</ele>
<time>2023-05-16T11:20:44Z</time>
</trkpt>
<trkpt lat="49.00068297050893" lon="9.511106964200735">
<ele>245.60000000000002</ele>
<time>2023-05-16T11:20:45Z</time>
</trkpt>
<trkpt lat="49.000684982165694" lon="9.511104952543974">
<ele>245.60000000000002</ele>
<time>2023-05-16T11:20:46Z</time>
</trkpt>
<trkpt lat="49.000686993822455" lon="9.511109981685877">
<ele>245.60000000000002</ele>
<time>2023-05-16T11:20:47Z</time>
</trkpt>
<trkpt lat="49.00069294497371" lon="9.511112999171019">
<ele>245.60000000000002</ele>
<time>2023-05-16T11:20:48Z</time>
</trkpt>
<trkpt lat="49.00080693885684" lon="9.511036975309253">
<ele>245</ele>
<time>2023-05-16T11:20:49Z</time>
</trkpt>
<trkpt lat="49.00079797022045" lon="9.511021971702576">
<ele>245</ele>
<time>2023-05-16T11:20:50Z</time>
</trkpt>
<trkpt lat="49.000792941078544" lon="9.51100998558104">
<ele>245</ele>
<time>2023-05-16T11:20:51Z</time>
</trkpt>
<trkpt lat="49.00078497827053" lon="9.511001938953996">
<ele>245</ele>
<time>2023-05-16T11:20:52Z</time>
</trkpt>
<trkpt lat="49.00078196078539" lon="9.510997999459505">
<ele>245</ele>
<time>2023-05-16T11:20:53Z</time>
</trkpt>
<trkpt lat="49.00078296661377" lon="9.510992970317602">
<ele>245</ele>
<time>2023-05-16T11:20:54Z</time>
</trkpt>
<trkpt lat="49.00078497827053" lon="9.510992970317602">
<ele>245</ele>
<time>2023-05-16T11:20:55Z</time>
</trkpt>
<trkpt lat="49.00078698992729" lon="9.510992970317602">
<ele>245</ele>
<time>2023-05-16T11:20:57Z</time>
</trkpt>
<trkpt lat="49.000817919149995" lon="9.51090294867754">
<ele>244.79999999999995</ele>
<time>2023-05-16T11:20:57Z</time>
</trkpt>
<trkpt lat="49.000817919149995" lon="9.510884927585721">
<ele>244.79999999999995</ele>
<time>2023-05-16T11:20:58Z</time>
</trkpt>
<trkpt lat="49.00080299936235" lon="9.510867996141315">
<ele>244.79999999999995</ele>
<time>2023-05-16T11:20:59Z</time>
</trkpt>
<trkpt lat="49.000792941078544" lon="9.510854920372367">
<ele>244.79999999999995</ele>
<time>2023-05-16T11:21:00Z</time>
</trkpt>
<trkpt lat="49.000772992148995" lon="9.51083698309958">
<ele>244.79999999999995</ele>
<time>2023-05-16T11:21:01Z</time>
</trkpt>
<trkpt lat="49.000749941915274" lon="9.510812927037477">
<ele>244.79999999999995</ele>
<time>2023-05-16T11:21:02Z</time>
</trkpt>
<trkpt lat="49.000732926651835" lon="9.51077495701611">
<ele>244.79999999999995</ele>
<time>2023-05-16T11:21:03Z</time>
</trkpt>
<trkpt lat="49.00071792304516" lon="9.510724917054176">
<ele>244.79999999999995</ele>
<time>2023-05-16T11:21:04Z</time>
</trkpt>
<trkpt lat="49.00069998577237" lon="9.510679990053177">
<ele>244.60000000000002</ele>
<time>2023-05-16T11:21:05Z</time>
</trkpt>
<trkpt lat="49.000686993822455" lon="9.51062492094934">
<ele>244.60000000000002</ele>
<time>2023-05-16T11:21:06Z</time>
</trkpt>
<trkpt lat="49.00067299604416" lon="9.510564990341663">
<ele>244.60000000000002</ele>
<time>2023-05-16T11:21:07Z</time>
</trkpt>
<trkpt lat="49.00066293776035" lon="9.510506987571716">
<ele>244.60000000000002</ele>
<time>2023-05-16T11:21:08Z</time>
</trkpt>
<trkpt lat="49.000646928325295" lon="9.51045292429626">
<ele>244.39999999999998</ele>
<time>2023-05-16T11:21:09Z</time>
</trkpt>
<trkpt lat="49.00063997134566" lon="9.510402968153358">
<ele>244.39999999999998</ele>
<time>2023-05-16T11:21:10Z</time>
</trkpt>
<trkpt lat="49.00062999688089" lon="9.510352928191423">
<ele>244.39999999999998</ele>
<time>2023-05-16T11:21:11Z</time>
</trkpt>
<trkpt lat="49.000624967738986" lon="9.510306995362043">
<ele>244.39999999999998</ele>
<time>2023-05-16T11:21:12Z</time>
</trkpt>
<trkpt lat="49.00061692111194" lon="9.510252932086587">
<ele>244.39999999999998</ele>
<time>2023-05-16T11:21:13Z</time>
</trkpt>
<trkpt lat="49.00060996413231" lon="9.510204987600446">
<ele>244.39999999999998</ele>
<time>2023-05-16T11:21:14Z</time>
</trkpt>
<trkpt lat="49.000604934990406" lon="9.510154947638512">
<ele>244.39999999999998</ele>
<time>2023-05-16T11:21:15Z</time>
</trkpt>
<trkpt lat="49.00059294886887" lon="9.510099962353706">
<ele>244.39999999999998</ele>
<time>2023-05-16T11:21:16Z</time>
</trkpt>
<trkpt lat="49.00058791972697" lon="9.510036930441856">
<ele>244.39999999999998</ele>
<time>2023-05-16T11:21:17Z</time>
</trkpt>
<trkpt lat="49.00058699771762" lon="9.50997699983418">
<ele>244.39999999999998</ele>
<time>2023-05-16T11:21:18Z</time>
</trkpt>
<trkpt lat="49.00058498606086" lon="9.509916985407472">
<ele>244.39999999999998</ele>
<time>2023-05-16T11:21:19Z</time>
</trkpt>
<trkpt lat="49.0005829744041" lon="9.509856970980763">
<ele>244.39999999999998</ele>
<time>2023-05-16T11:21:20Z</time>
</trkpt>
<trkpt lat="49.00058498606086" lon="9.509797962382436">
<ele>244.39999999999998</ele>
<time>2023-05-16T11:21:21Z</time>
</trkpt>
<trkpt lat="49.00058993138373" lon="9.509736942127347">
<ele>244.39999999999998</ele>
<time>2023-05-16T11:21:22Z</time>
</trkpt>
<trkpt lat="49.00059496052563" lon="9.50967793352902">
<ele>244.60000000000002</ele>
<time>2023-05-16T11:21:23Z</time>
</trkpt>
<trkpt lat="49.000597978010774" lon="9.509616997092962">
<ele>244.60000000000002</ele>
<time>2023-05-16T11:21:24Z</time>
</trkpt>
<trkpt lat="49.000602923333645" lon="9.509556982666254">
<ele>244.60000000000002</ele>
<time>2023-05-16T11:21:25Z</time>
</trkpt>
<trkpt lat="49.000604934990406" lon="9.509494956582785">
<ele>244.79999999999995</ele>
<time>2023-05-16T11:21:26Z</time>
</trkpt>
<trkpt lat="49.00060694664717" lon="9.509432930499315">
<ele>244.79999999999995</ele>
<time>2023-05-16T11:21:27Z</time>
</trkpt>
<trkpt lat="49.00061298161745" lon="9.509374927729368">
<ele>244.79999999999995</ele>
<time>2023-05-16T11:21:28Z</time>
</trkpt>
<trkpt lat="49.00061692111194" lon="9.509314997121692">
<ele>244.79999999999995</ele>
<time>2023-05-16T11:21:29Z</time>
</trkpt>
<trkpt lat="49.00061993859708" lon="9.509252971038222">
<ele>245</ele>
<time>2023-05-16T11:21:30Z</time>
</trkpt>
<trkpt lat="49.000621950253844" lon="9.509191950783134">
<ele>245</ele>
<time>2023-05-16T11:21:31Z</time>
</trkpt>
<trkpt lat="49.00061792694032" lon="9.509131936356425">
<ele>245</ele>
<time>2023-05-16T11:21:32Z</time>
</trkpt>
<trkpt lat="49.000621950253844" lon="9.509069994091988">
<ele>245</ele>
<time>2023-05-16T11:21:33Z</time>
</trkpt>
<trkpt lat="49.00062697939575" lon="9.509002938866615">
<ele>245.20000000000005</ele>
<time>2023-05-16T11:21:34Z</time>
</trkpt>
<trkpt lat="49.00062798522413" lon="9.508944936096668">
<ele>245.20000000000005</ele>
<time>2023-05-16T11:21:35Z</time>
</trkpt>
<trkpt lat="49.00063192471862" lon="9.508879976347089">
<ele>245.39999999999998</ele>
<time>2023-05-16T11:21:36Z</time>
</trkpt>
<trkpt lat="49.00063494220376" lon="9.508816944435239">
<ele>245.39999999999998</ele>
<time>2023-05-16T11:21:37Z</time>
</trkpt>
<trkpt lat="49.00063192471862" lon="9.50875299051404">
<ele>245.39999999999998</ele>
<time>2023-05-16T11:21:38Z</time>
</trkpt>
<trkpt lat="49.00063192471862" lon="9.508687946945429">
<ele>245.39999999999998</ele>
<time>2023-05-16T11:21:39Z</time>
</trkpt>
<trkpt lat="49.000632930547" lon="9.50862298719585">
<ele>245.60000000000002</ele>
<time>2023-05-16T11:21:40Z</time>
</trkpt>
<trkpt lat="49.00063494220376" lon="9.508559955284">
<ele>245.60000000000002</ele>
<time>2023-05-16T11:21:41Z</time>
</trkpt>
<trkpt lat="49.00063494220376" lon="9.50849692337215">
<ele>245.60000000000002</ele>
<time>2023-05-16T11:21:42Z</time>
</trkpt>
<trkpt lat="49.00063494220376" lon="9.508436992764473">
<ele>245.60000000000002</ele>
<time>2023-05-16T11:21:43Z</time>
</trkpt>
<trkpt lat="49.00063494220376" lon="9.508374966681004">
<ele>245.79999999999995</ele>
<time>2023-05-16T11:21:44Z</time>
</trkpt>
<trkpt lat="49.00063494220376" lon="9.508311934769154">
<ele>245.79999999999995</ele>
<time>2023-05-16T11:21:45Z</time>
</trkpt>
<trkpt lat="49.00063494220376" lon="9.508249992504716">
<ele>246</ele>
<time>2023-05-16T11:21:46Z</time>
</trkpt>
<trkpt lat="49.00063494220376" lon="9.508182937279344">
<ele>246</ele>
<time>2023-05-16T11:21:47Z</time>
</trkpt>
<trkpt lat="49.00063192471862" lon="9.508121917024255">
<ele>246</ele>
<time>2023-05-16T11:21:48Z</time>
</trkpt>
<trkpt lat="49.000621950253844" lon="9.508061986416578">
<ele>246</ele>
<time>2023-05-16T11:21:49Z</time>
</trkpt>
<trkpt lat="49.000602923333645" lon="9.50800197198987">
<ele>246.20000000000005</ele>
<time>2023-05-16T11:21:50Z</time>
</trkpt>
<trkpt lat="49.00058699771762" lon="9.50793793424964">
<ele>246.20000000000005</ele>
<time>2023-05-16T11:21:51Z</time>
</trkpt>
<trkpt lat="49.00057299993932" lon="9.50787297450006">
<ele>246.20000000000005</ele>
<time>2023-05-16T11:21:52Z</time>
</trkpt>
<trkpt lat="49.000557996332645" lon="9.507804997265339">
<ele>246.20000000000005</ele>
<time>2023-05-16T11:21:53Z</time>
</trkpt>
<trkpt lat="49.00054793804884" lon="9.507734924554825">
<ele>246.20000000000005</ele>
<time>2023-05-16T11:21:54Z</time>
</trkpt>
<trkpt lat="49.000537963584065" lon="9.507664935663342">
<ele>246.20000000000005</ele>
<time>2023-05-16T11:21:55Z</time>
</trkpt>
<trkpt lat="49.00052991695702" lon="9.50759494677186">
<ele>246.20000000000005</ele>
<time>2023-05-16T11:21:56Z</time>
</trkpt>
<trkpt lat="49.00052195414901" lon="9.507522946223617">
<ele>246.20000000000005</ele>
<time>2023-05-16T11:21:57Z</time>
</trkpt>
<trkpt lat="49.000512985512614" lon="9.507449939846992">
<ele>246.20000000000005</ele>
<time>2023-05-16T11:21:58Z</time>
</trkpt>
<trkpt lat="49.00050493888557" lon="9.50737995095551">
<ele>246.20000000000005</ele>
<time>2023-05-16T11:21:59Z</time>
</trkpt>
<trkpt lat="49.000492952764034" lon="9.507307950407267">
<ele>246</ele>
<time>2023-05-16T11:22:00Z</time>
</trkpt>
<trkpt lat="49.00048498995602" lon="9.507234944030643">
<ele>246</ele>
<time>2023-05-16T11:22:01Z</time>
</trkpt>
<trkpt lat="49.00047694332898" lon="9.507161937654018">
<ele>246</ele>
<time>2023-05-16T11:22:02Z</time>
</trkpt>
<trkpt lat="49.0004669688642" lon="9.507092954590917">
<ele>246</ele>
<time>2023-05-16T11:22:03Z</time>
</trkpt>
<trkpt lat="49.000452971085906" lon="9.507022965699434">
<ele>246</ele>
<time>2023-05-16T11:22:04Z</time>
</trkpt>
<trkpt lat="49.00044492445886" lon="9.506954988464713">
<ele>246</ele>
<time>2023-05-16T11:22:05Z</time>
</trkpt>
<trkpt lat="49.00043494999409" lon="9.50688298791647">
<ele>246</ele>
<time>2023-05-16T11:22:06Z</time>
</trkpt>
<trkpt lat="49.000426987186074" lon="9.506812999024987">
<ele>246</ele>
<time>2023-05-16T11:22:07Z</time>
</trkpt>
<trkpt lat="49.00041793473065" lon="9.506737980991602">
<ele>245.79999999999995</ele>
<time>2023-05-16T11:22:08Z</time>
</trkpt>
<trkpt lat="49.0004119835794" lon="9.506669919937849">
<ele>245.79999999999995</ele>
<time>2023-05-16T11:22:09Z</time>
</trkpt>
<trkpt lat="49.00040494278073" lon="9.506601942703128">
<ele>245.79999999999995</ele>
<time>2023-05-16T11:22:10Z</time>
</trkpt>
<trkpt lat="49.0003929566592" lon="9.506532959640026">
<ele>245.60000000000002</ele>
<time>2023-05-16T11:22:11Z</time>
</trkpt>
<trkpt lat="49.000384993851185" lon="9.506466994062066">
<ele>245.60000000000002</ele>
<time>2023-05-16T11:22:12Z</time>
</trkpt>
<trkpt lat="49.00037795305252" lon="9.506399938836694">
<ele>245.39999999999998</ele>
<time>2023-05-16T11:22:13Z</time>
</trkpt>
<trkpt lat="49.00036999024451" lon="9.506337996572256">
<ele>245.39999999999998</ele>
<time>2023-05-16T11:22:14Z</time>
</trkpt>
<trkpt lat="49.000366972759366" lon="9.506276976317167">
<ele>245.20000000000005</ele>
<time>2023-05-16T11:22:15Z</time>
</trkpt>
<trkpt lat="49.000362949445844" lon="9.506211932748556">
<ele>245.20000000000005</ele>
<time>2023-05-16T11:22:16Z</time>
</trkpt>
<trkpt lat="49.0003599319607" lon="9.506151918321848">
<ele>245.20000000000005</ele>
<time>2023-05-16T11:22:17Z</time>
</trkpt>
<trkpt lat="49.00035498663783" lon="9.506094921380281">
<ele>245</ele>
<time>2023-05-16T11:22:18Z</time>
</trkpt>
<trkpt lat="49.000346940010786" lon="9.506041947752237">
<ele>245</ele>
<time>2023-05-16T11:22:19Z</time>
</trkpt>
<trkpt lat="49.00033696554601" lon="9.50598293915391">
<ele>245</ele>
<time>2023-05-16T11:22:20Z</time>
</trkpt>
<trkpt lat="49.00032992474735" lon="9.505922924727201">
<ele>245</ele>
<time>2023-05-16T11:22:21Z</time>
</trkpt>
<trkpt lat="49.00032699108124" lon="9.505866933614016">
<ele>244.79999999999995</ele>
<time>2023-05-16T11:22:22Z</time>
</trkpt>
<trkpt lat="49.00032799690962" lon="9.505817983299494">
<ele>244.79999999999995</ele>
<time>2023-05-16T11:22:23Z</time>
</trkpt>
<trkpt lat="49.00033294223249" lon="9.505776995792985">
<ele>244.60000000000002</ele>
<time>2023-05-16T11:22:24Z</time>
</trkpt>
<trkpt lat="49.00035297498107" lon="9.505727961659431">
<ele>244.60000000000002</ele>
<time>2023-05-16T11:22:25Z</time>
</trkpt>
<trkpt lat="49.000382982194424" lon="9.50568194501102">
<ele>244.39999999999998</ele>
<time>2023-05-16T11:22:26Z</time>
</trkpt>
<trkpt lat="49.00041298940778" lon="9.50563995167613">
<ele>244.39999999999998</ele>
<time>2023-05-16T11:22:27Z</time>
</trkpt>
<trkpt lat="49.000432938337326" lon="9.50561698526144">
<ele>244.20000000000005</ele>
<time>2023-05-16T11:22:28Z</time>
</trkpt>
<trkpt lat="49.00044299662113" lon="9.505599969998002">
<ele>244.20000000000005</ele>
<time>2023-05-16T11:22:29Z</time>
</trkpt>
<trkpt lat="49.000451965257525" lon="9.505587983876467">
<ele>244</ele>
<time>2023-05-16T11:22:30Z</time>
</trkpt>
<trkpt lat="49.00045992806554" lon="9.505569962784648">
<ele>244</ele>
<time>2023-05-16T11:22:31Z</time>
</trkpt>
<trkpt lat="49.000472920015454" lon="9.505542973056436">
<ele>244</ele>
<time>2023-05-16T11:22:32Z</time>
</trkpt>
<trkpt lat="49.00047694332898" lon="9.505506930872798">
<ele>243.79999999999995</ele>
<time>2023-05-16T11:22:33Z</time>
</trkpt>
<trkpt lat="49.00047794915736" lon="9.505464937537909">
<ele>243.79999999999995</ele>
<time>2023-05-16T11:22:34Z</time>
</trkpt>
<trkpt lat="49.0004669688642" lon="9.505416993051767">
<ele>243.79999999999995</ele>
<time>2023-05-16T11:22:35Z</time>
</trkpt>
<trkpt lat="49.00045791640878" lon="9.50536192394793">
<ele>243.79999999999995</ele>
<time>2023-05-16T11:22:36Z</time>
</trkpt>
<trkpt lat="49.00045699439943" lon="9.505306938663125">
<ele>243.79999999999995</ele>
<time>2023-05-16T11:22:37Z</time>
</trkpt>
<trkpt lat="49.000451965257525" lon="9.505249941721559">
<ele>243.79999999999995</ele>
<time>2023-05-16T11:22:38Z</time>
</trkpt>
<trkpt lat="49.000447941944" lon="9.505187999457121">
<ele>243.79999999999995</ele>
<time>2023-05-16T11:22:39Z</time>
</trkpt>
<trkpt lat="49.00044492445886" lon="9.505124967545271">
<ele>243.79999999999995</ele>
<time>2023-05-16T11:22:40Z</time>
</trkpt>
<trkpt lat="49.00044199079275" lon="9.505061935633421">
<ele>243.79999999999995</ele>
<time>2023-05-16T11:22:41Z</time>
</trkpt>
<trkpt lat="49.00043494999409" lon="9.50499496422708">
<ele>243.79999999999995</ele>
<time>2023-05-16T11:22:42Z</time>
</trkpt>
<trkpt lat="49.000427993014455" lon="9.50492799282074">
<ele>243.79999999999995</ele>
<time>2023-05-16T11:22:43Z</time>
</trkpt>
<trkpt lat="49.00041994638741" lon="9.504861943423748">
<ele>243.79999999999995</ele>
<time>2023-05-16T11:22:44Z</time>
</trkpt>
<trkpt lat="49.00041491724551" lon="9.504791954532266">
<ele>243.79999999999995</ele>
<time>2023-05-16T11:22:45Z</time>
</trkpt>
<trkpt lat="49.00041298940778" lon="9.504707967862487">
<ele>243.79999999999995</ele>
<time>2023-05-16T11:22:46Z</time>
</trkpt>
<trkpt lat="49.00040293112397" lon="9.504631944000721">
<ele>243.79999999999995</ele>
<time>2023-05-16T11:22:47Z</time>
</trkpt>
<trkpt lat="49.00039195083082" lon="9.504554998129606">
<ele>243.79999999999995</ele>
<time>2023-05-16T11:22:48Z</time>
</trkpt>
<trkpt lat="49.00038197636604" lon="9.504471933469176">
<ele>243.79999999999995</ele>
<time>2023-05-16T11:22:49Z</time>
</trkpt>
<trkpt lat="49.00037191808224" lon="9.50439197011292">
<ele>243.79999999999995</ele>
<time>2023-05-16T11:22:50Z</time>
</trkpt>
<trkpt lat="49.000362949445844" lon="9.504309995099902">
<ele>243.79999999999995</ele>
<time>2023-05-16T11:22:51Z</time>
</trkpt>
<trkpt lat="49.00035699829459" lon="9.504227936267853">
<ele>243.79999999999995</ele>
<time>2023-05-16T11:22:52Z</time>
</trkpt>
<trkpt lat="49.00034995749593" lon="9.504149984568357">
<ele>243.79999999999995</ele>
<time>2023-05-16T11:22:53Z</time>
</trkpt>
<trkpt lat="49.00033797137439" lon="9.504067925736308">
<ele>243.79999999999995</ele>
<time>2023-05-16T11:22:54Z</time>
</trkpt>
<trkpt lat="49.00032992474735" lon="9.50398494489491">
<ele>243.79999999999995</ele>
<time>2023-05-16T11:22:55Z</time>
</trkpt>
<trkpt lat="49.00031299330294" lon="9.503906993195415">
<ele>243.79999999999995</ele>
<time>2023-05-16T11:22:56Z</time>
</trkpt>
<trkpt lat="49.000301929190755" lon="9.503824934363365">
<ele>243.79999999999995</ele>
<time>2023-05-16T11:22:57Z</time>
</trkpt>
<trkpt lat="49.00028994306922" lon="9.50374698266387">
<ele>243.60000000000002</ele>
<time>2023-05-16T11:22:58Z</time>
</trkpt>
<trkpt lat="49.00028298608959" lon="9.503667941316962">
<ele>243.60000000000002</ele>
<time>2023-05-16T11:22:59Z</time>
</trkpt>
<trkpt lat="49.000276951119304" lon="9.50359795242548">
<ele>243.60000000000002</ele>
<time>2023-05-16T11:23:00Z</time>
</trkpt>
<trkpt lat="49.00027292780578" lon="9.503529975190759">
<ele>243.60000000000002</ele>
<time>2023-05-16T11:23:01Z</time>
</trkpt>
<trkpt lat="49.00026798248291" lon="9.503457974642515">
<ele>243.60000000000002</ele>
<time>2023-05-16T11:23:02Z</time>
</trkpt>
<trkpt lat="49.00026194751263" lon="9.503391925245523">
<ele>243.60000000000002</ele>
<time>2023-05-16T11:23:03Z</time>
</trkpt>
<trkpt lat="49.000254990532994" lon="9.503322942182422">
<ele>243.39999999999998</ele>
<time>2023-05-16T11:23:04Z</time>
</trkpt>
<trkpt lat="49.00024794973433" lon="9.503256976604462">
<ele>243.39999999999998</ele>
<time>2023-05-16T11:23:05Z</time>
</trkpt>
<trkpt lat="49.00023998692632" lon="9.50318799354136">
<ele>243.39999999999998</ele>
<time>2023-05-16T11:23:06Z</time>
</trkpt>
<trkpt lat="49.00023194029927" lon="9.503116998821497">
<ele>243.39999999999998</ele>
<time>2023-05-16T11:23:07Z</time>
</trkpt>
<trkpt lat="49.0002219658345" lon="9.503046926110983">
<ele>243.39999999999998</ele>
<time>2023-05-16T11:23:08Z</time>
</trkpt>
<trkpt lat="49.000212997198105" lon="9.50297199189663">
<ele>243.39999999999998</ele>
<time>2023-05-16T11:23:09Z</time>
</trkpt>
<trkpt lat="49.0002029389143" lon="9.502901919186115">
<ele>243.39999999999998</ele>
<time>2023-05-16T11:23:10Z</time>
</trkpt>
<trkpt lat="49.00019992142916" lon="9.502831930294633">
<ele>243.39999999999998</ele>
<time>2023-05-16T11:23:11Z</time>
</trkpt>
<trkpt lat="49.00019698776305" lon="9.502767976373434">
<ele>243.20000000000005</ele>
<time>2023-05-16T11:23:12Z</time>
</trkpt>
<trkpt lat="49.00018692947924" lon="9.502699999138713">
<ele>243.20000000000005</ele>
<time>2023-05-16T11:23:13Z</time>
</trkpt>
<trkpt lat="49.00017796084285" lon="9.502636967226863">
<ele>243.20000000000005</ele>
<time>2023-05-16T11:23:14Z</time>
</trkpt>
<trkpt lat="49.00016698054969" lon="9.502571923658252">
<ele>243.20000000000005</ele>
<time>2023-05-16T11:23:15Z</time>
</trkpt>
<trkpt lat="49.00015792809427" lon="9.502507969737053">
<ele>243.20000000000005</ele>
<time>2023-05-16T11:23:16Z</time>
</trkpt>
<trkpt lat="49.000149965286255" lon="9.502441920340061">
<ele>243.20000000000005</ele>
<time>2023-05-16T11:23:17Z</time>
</trkpt>
<trkpt lat="49.00014191865921" lon="9.50237494893372">
<ele>243.20000000000005</ele>
<time>2023-05-16T11:23:18Z</time>
</trkpt>
<trkpt lat="49.00013496167958" lon="9.50230797752738">
<ele>243.20000000000005</ele>
<time>2023-05-16T11:23:19Z</time>
</trkpt>
<trkpt lat="49.000126998871565" lon="9.502237988635898">
<ele>243.20000000000005</ele>
<time>2023-05-16T11:23:20Z</time>
</trkpt>
<trkpt lat="49.00011694058776" lon="9.502166993916035">
<ele>243.20000000000005</ele>
<time>2023-05-16T11:23:21Z</time>
</trkpt>
<trkpt lat="49.000106966122985" lon="9.502094993367791">
<ele>243.20000000000005</ele>
<time>2023-05-16T11:23:22Z</time>
</trkpt>
<trkpt lat="49.00010294280946" lon="9.502026932314038">
<ele>243.20000000000005</ele>
<time>2023-05-16T11:23:23Z</time>
</trkpt>
<trkpt lat="49.00009296834469" lon="9.501956943422556">
<ele>243.20000000000005</ele>
<time>2023-05-16T11:23:24Z</time>
</trkpt>
<trkpt lat="49.000084921717644" lon="9.501886954531074">
<ele>243.20000000000005</ele>
<time>2023-05-16T11:23:25Z</time>
</trkpt>
<trkpt lat="49.00007494725287" lon="9.501817971467972">
<ele>243.20000000000005</ele>
<time>2023-05-16T11:23:26Z</time>
</trkpt>
<trkpt lat="49.000064972788095" lon="9.50174999423325">
<ele>243.20000000000005</ele>
<time>2023-05-16T11:23:27Z</time>
</trkpt>
<trkpt lat="49.00005499832332" lon="9.501682939007878">
<ele>243.20000000000005</ele>
<time>2023-05-16T11:23:28Z</time>
</trkpt>
<trkpt lat="49.000044940039515" lon="9.501617979258299">
<ele>243.20000000000005</ele>
<time>2023-05-16T11:23:29Z</time>
</trkpt>
<trkpt lat="49.0000369772315" lon="9.501552935689688">
<ele>243.20000000000005</ele>
<time>2023-05-16T11:23:30Z</time>
</trkpt>
<trkpt lat="49.00002993643284" lon="9.501487975940108">
<ele>243.20000000000005</ele>
<time>2023-05-16T11:23:31Z</time>
</trkpt>
<trkpt lat="49.00002499110997" lon="9.501424944028258">
<ele>243.20000000000005</ele>
<time>2023-05-16T11:23:32Z</time>
</trkpt>
<trkpt lat="49.000021973624825" lon="9.50136199593544">
<ele>243.20000000000005</ele>
<time>2023-05-16T11:23:33Z</time>
</trkpt>
<trkpt lat="49.00001694448292" lon="9.50129795819521">
<ele>243.20000000000005</ele>
<time>2023-05-16T11:23:34Z</time>
</trkpt>
<trkpt lat="49.00000998750329" lon="9.501239955425262">
<ele>243.20000000000005</ele>
<time>2023-05-16T11:23:35Z</time>
</trkpt>
<trkpt lat="49.000002946704626" lon="9.501182958483696">
<ele>243.20000000000005</ele>
<time>2023-05-16T11:23:36Z</time>
</trkpt>
<trkpt lat="48.99999498389661" lon="9.501129984855652">
<ele>243.20000000000005</ele>
<time>2023-05-16T11:23:37Z</time>
</trkpt>
<trkpt lat="48.99998794309795" lon="9.501074999570847">
<ele>243.20000000000005</ele>
<time>2023-05-16T11:23:38Z</time>
</trkpt>
<trkpt lat="48.999977968633175" lon="9.50101993046701">
<ele>243.20000000000005</ele>
<time>2023-05-16T11:23:39Z</time>
</trkpt>
<trkpt lat="48.9999679941684" lon="9.500967962667346">
<ele>243.20000000000005</ele>
<time>2023-05-16T11:23:40Z</time>
</trkpt>
<trkpt lat="48.999956930056214" lon="9.500921946018934">
<ele>243.20000000000005</ele>
<time>2023-05-16T11:23:41Z</time>
</trkpt>
<trkpt lat="48.99994796141982" lon="9.500877941027284">
<ele>243.20000000000005</ele>
<time>2023-05-16T11:23:42Z</time>
</trkpt>
<trkpt lat="48.99994695559144" lon="9.500836953520775">
<ele>243.20000000000005</ele>
<time>2023-05-16T11:23:43Z</time>
</trkpt>
<trkpt lat="48.99995491839945" lon="9.500802922993898">
<ele>243.20000000000005</ele>
<time>2023-05-16T11:23:44Z</time>
</trkpt>
<trkpt lat="48.99997293949127" lon="9.500767970457673">
<ele>243.20000000000005</ele>
<time>2023-05-16T11:23:45Z</time>
</trkpt>
<trkpt lat="49.00000495836139" lon="9.500737963244319">
<ele>243.20000000000005</ele>
<time>2023-05-16T11:23:46Z</time>
</trkpt>
<trkpt lat="49.000039994716644" lon="9.500721953809261">
<ele>243.20000000000005</ele>
<time>2023-05-16T11:23:47Z</time>
</trkpt>
<trkpt lat="49.00007494725287" lon="9.500711979344487">
<ele>243.20000000000005</ele>
<time>2023-05-16T11:23:48Z</time>
</trkpt>
<trkpt lat="49.000107971951365" lon="9.500704938545823">
<ele>243.20000000000005</ele>
<time>2023-05-16T11:23:49Z</time>
</trkpt>
<trkpt lat="49.00014694780111" lon="9.500701921060681">
<ele>243.20000000000005</ele>
<time>2023-05-16T11:23:50Z</time>
</trkpt>
<trkpt lat="49.00018994696438" lon="9.500704938545823">
<ele>243.39999999999998</ele>
<time>2023-05-16T11:23:51Z</time>
</trkpt>
<trkpt lat="49.00023294612765" lon="9.500709967687726">
<ele>243.39999999999998</ele>
<time>2023-05-16T11:23:52Z</time>
</trkpt>
<trkpt lat="49.000277956947684" lon="9.500714996829629">
<ele>243.39999999999998</ele>
<time>2023-05-16T11:23:53Z</time>
</trkpt>
<trkpt lat="49.00032497942448" lon="9.500731928274035">
<ele>243.39999999999998</ele>
<time>2023-05-16T11:23:54Z</time>
</trkpt>
<trkpt lat="49.00036797858775" lon="9.500742992386222">
<ele>243.39999999999998</ele>
<time>2023-05-16T11:23:55Z</time>
</trkpt>
<trkpt lat="49.00042195804417" lon="9.50076193548739">
<ele>243.39999999999998</ele>
<time>2023-05-16T11:23:56Z</time>
</trkpt>
<trkpt lat="49.000469986349344" lon="9.500784985721111">
<ele>243.39999999999998</ele>
<time>2023-05-16T11:23:57Z</time>
</trkpt>
<trkpt lat="49.00051994249225" lon="9.500809963792562">
<ele>243.39999999999998</ele>
<time>2023-05-16T11:23:58Z</time>
</trkpt>
<trkpt lat="49.00056495331228" lon="9.50082496739924">
<ele>243.39999999999998</ele>
<time>2023-05-16T11:23:59Z</time>
</trkpt>
<trkpt lat="49.00060795247555" lon="9.500834941864014">
<ele>243.39999999999998</ele>
<time>2023-05-16T11:24:00Z</time>
</trkpt>
<trkpt lat="49.00065296329558" lon="9.50084793381393">
<ele>243.39999999999998</ele>
<time>2023-05-16T11:24:01Z</time>
</trkpt>
<trkpt lat="49.00069193914533" lon="9.500857992097735">
<ele>243.39999999999998</ele>
<time>2023-05-16T11:24:02Z</time>
</trkpt>
<trkpt lat="49.000729992985725" lon="9.500871989876032">
<ele>243.39999999999998</ele>
<time>2023-05-16T11:24:03Z</time>
</trkpt>
<trkpt lat="49.000769974663854" lon="9.500882970169187">
<ele>243.39999999999998</ele>
<time>2023-05-16T11:24:04Z</time>
</trkpt>
<trkpt lat="49.000812973827124" lon="9.500889927148819">
<ele>243.39999999999998</ele>
<time>2023-05-16T11:24:05Z</time>
</trkpt>
<trkpt lat="49.000856978818774" lon="9.500901997089386">
<ele>243.39999999999998</ele>
<time>2023-05-16T11:24:06Z</time>
</trkpt>
<trkpt lat="49.00089293718338" lon="9.500914989039302">
<ele>243.39999999999998</ele>
<time>2023-05-16T11:24:07Z</time>
</trkpt>
<trkpt lat="49.00093199685216" lon="9.500926975160837">
<ele>243.39999999999998</ele>
<time>2023-05-16T11:24:08Z</time>
</trkpt>
<trkpt lat="49.000967955216765" lon="9.50093493796885">
<ele>243.20000000000005</ele>
<time>2023-05-16T11:24:09Z</time>
</trkpt>
<trkpt lat="49.001009948551655" lon="9.500946924090385">
<ele>243.20000000000005</ele>
<time>2023-05-16T11:24:10Z</time>
</trkpt>
<trkpt lat="49.00104993022978" lon="9.500959999859333">
<ele>243.20000000000005</ele>
<time>2023-05-16T11:24:11Z</time>
</trkpt>
<trkpt lat="49.00109292939305" lon="9.500971985980868">
<ele>243.20000000000005</ele>
<time>2023-05-16T11:24:12Z</time>
</trkpt>
<trkpt lat="49.001137940213084" lon="9.500986989587545">
<ele>243.20000000000005</ele>
<time>2023-05-16T11:24:13Z</time>
</trkpt>
<trkpt lat="49.001181945204735" lon="9.5009979698807">
<ele>243.20000000000005</ele>
<time>2023-05-16T11:24:14Z</time>
</trkpt>
<trkpt lat="49.001226956024766" lon="9.501007944345474">
<ele>243</ele>
<time>2023-05-16T11:24:15Z</time>
</trkpt>
<trkpt lat="49.001267943531275" lon="9.50101993046701">
<ele>243</ele>
<time>2023-05-16T11:24:16Z</time>
</trkpt>
<trkpt lat="49.001311948522925" lon="9.501031916588545">
<ele>243</ele>
<time>2023-05-16T11:24:17Z</time>
</trkpt>
<trkpt lat="49.001352936029434" lon="9.50104197487235">
<ele>243</ele>
<time>2023-05-16T11:24:18Z</time>
</trkpt>
<trkpt lat="49.001394929364324" lon="9.501047926023602">
<ele>243</ele>
<time>2023-05-16T11:24:19Z</time>
</trkpt>
<trkpt lat="49.001434994861484" lon="9.501057984307408">
<ele>243</ele>
<time>2023-05-16T11:24:20Z</time>
</trkpt>
<trkpt lat="49.00147698819637" lon="9.501069970428944">
<ele>243</ele>
<time>2023-05-16T11:24:21Z</time>
</trkpt>
<trkpt lat="49.0015169698745" lon="9.501081956550479">
<ele>243</ele>
<time>2023-05-16T11:24:22Z</time>
</trkpt>
<trkpt lat="49.00155493989587" lon="9.501091931015253">
<ele>243</ele>
<time>2023-05-16T11:24:23Z</time>
</trkpt>
<trkpt lat="49.001594921574" lon="9.501099977642298">
<ele>243</ele>
<time>2023-05-16T11:24:24Z</time>
</trkpt>
<trkpt lat="49.00163699872792" lon="9.50110794045031">
<ele>243</ele>
<time>2023-05-16T11:24:25Z</time>
</trkpt>
<trkpt lat="49.00167999789119" lon="9.501114981248975">
<ele>243</ele>
<time>2023-05-16T11:24:26Z</time>
</trkpt>
<trkpt lat="49.001719979569316" lon="9.50112797319889">
<ele>243</ele>
<time>2023-05-16T11:24:27Z</time>
</trkpt>
<trkpt lat="49.001762978732586" lon="9.501144988462329">
<ele>243</ele>
<time>2023-05-16T11:24:28Z</time>
</trkpt>
<trkpt lat="49.001804972067475" lon="9.501156974583864">
<ele>243</ele>
<time>2023-05-16T11:24:29Z</time>
</trkpt>
<trkpt lat="49.001844953745604" lon="9.501166949048638">
<ele>243</ele>
<time>2023-05-16T11:24:30Z</time>
</trkpt>
<trkpt lat="49.00188493542373" lon="9.501174995675683">
<ele>243</ele>
<time>2023-05-16T11:24:31Z</time>
</trkpt>
<trkpt lat="49.00192298926413" lon="9.501179940998554">
<ele>243</ele>
<time>2023-05-16T11:24:32Z</time>
</trkpt>
<trkpt lat="49.001957941800356" lon="9.501182958483696">
<ele>243</ele>
<time>2023-05-16T11:24:33Z</time>
</trkpt>
<trkpt lat="49.001996917650104" lon="9.501194944605231">
<ele>243</ele>
<time>2023-05-16T11:24:34Z</time>
</trkpt>
<trkpt lat="49.0020349714905" lon="9.501204919070005">
<ele>243</ele>
<time>2023-05-16T11:24:35Z</time>
</trkpt>
<trkpt lat="49.00207294151187" lon="9.501202991232276">
<ele>243</ele>
<time>2023-05-16T11:24:36Z</time>
</trkpt>
<trkpt lat="49.002106972038746" lon="9.501214977353811">
<ele>243</ele>
<time>2023-05-16T11:24:37Z</time>
</trkpt>
<trkpt lat="49.00213999673724" lon="9.501219922676682">
<ele>243</ele>
<time>2023-05-16T11:24:38Z</time>
</trkpt>
<trkpt lat="49.002171931788325" lon="9.501226963475347">
<ele>243</ele>
<time>2023-05-16T11:24:39Z</time>
</trkpt>
<trkpt lat="49.00220797397196" lon="9.50123199261725">
<ele>243</ele>
<time>2023-05-16T11:24:40Z</time>
</trkpt>
<trkpt lat="49.00224292650819" lon="9.50123199261725">
<ele>243</ele>
<time>2023-05-16T11:24:41Z</time>
</trkpt>
<trkpt lat="49.00227293372154" lon="9.50123492628336">
<ele>243</ele>
<time>2023-05-16T11:24:42Z</time>
</trkpt>
<trkpt lat="49.002297995612025" lon="9.501239955425262">
<ele>243</ele>
<time>2023-05-16T11:24:43Z</time>
</trkpt>
<trkpt lat="49.002321967855096" lon="9.501247918233275">
<ele>243</ele>
<time>2023-05-16T11:24:44Z</time>
</trkpt>
<trkpt lat="49.00234694592655" lon="9.501257976517081">
<ele>243</ele>
<time>2023-05-16T11:24:45Z</time>
</trkpt>
<trkpt lat="49.00237494148314" lon="9.501272980123758">
<ele>243</ele>
<time>2023-05-16T11:24:46Z</time>
</trkpt>
<trkpt lat="49.00239296257496" lon="9.501289995387197">
<ele>243</ele>
<time>2023-05-16T11:24:47Z</time>
</trkpt>
<trkpt lat="49.00241198949516" lon="9.50129795819521">
<ele>243</ele>
<time>2023-05-16T11:24:48Z</time>
</trkpt>
<trkpt lat="49.00242296978831" lon="9.501289995387197">
<ele>243</ele>
<time>2023-05-16T11:24:49Z</time>
</trkpt>
<trkpt lat="49.00243998505175" lon="9.501282954588532">
<ele>243</ele>
<time>2023-05-16T11:24:50Z</time>
</trkpt>
<trkpt lat="49.00246194563806" lon="9.50127499178052">
<ele>243</ele>
<time>2023-05-16T11:24:51Z</time>
</trkpt>
<trkpt lat="49.00248692370951" lon="9.501252947375178">
<ele>243</ele>
<time>2023-05-16T11:24:52Z</time>
</trkpt>
<trkpt lat="49.00250997394323" lon="9.501221934333444">
<ele>243</ele>
<time>2023-05-16T11:24:53Z</time>
</trkpt>
<trkpt lat="49.00252497754991" lon="9.501179940998554">
<ele>243</ele>
<time>2023-05-16T11:24:54Z</time>
</trkpt>
<trkpt lat="49.002536963671446" lon="9.501137947663665">
<ele>243</ele>
<time>2023-05-16T11:24:55Z</time>
</trkpt>
<trkpt lat="49.0025479439646" lon="9.501092936843634">
<ele>243</ele>
<time>2023-05-16T11:24:56Z</time>
</trkpt>
<trkpt lat="49.002556996420026" lon="9.501042980700731">
<ele>243</ele>
<time>2023-05-16T11:24:57Z</time>
</trkpt>
<trkpt lat="49.00256294757128" lon="9.500994952395558">
<ele>243.20000000000005</ele>
<time>2023-05-16T11:24:58Z</time>
</trkpt>
<trkpt lat="49.00257292203605" lon="9.500944996252656">
<ele>243.20000000000005</ele>
<time>2023-05-16T11:24:59Z</time>
</trkpt>
<trkpt lat="49.00258298031986" lon="9.50089294463396">
<ele>243.39999999999998</ele>
<time>2023-05-16T11:25:00Z</time>
</trkpt>
<trkpt lat="49.00259496644139" lon="9.500842988491058">
<ele>243.39999999999998</ele>
<time>2023-05-16T11:25:01Z</time>
</trkpt>
<trkpt lat="49.00260795839131" lon="9.500797977671027">
<ele>243.39999999999998</ele>
<time>2023-05-16T11:25:02Z</time>
</trkpt>
<trkpt lat="49.002619944512844" lon="9.500752966850996">
<ele>243.60000000000002</ele>
<time>2023-05-16T11:25:03Z</time>
</trkpt>
<trkpt lat="49.00263494811952" lon="9.500707956030965">
<ele>243.60000000000002</ele>
<time>2023-05-16T11:25:04Z</time>
</trkpt>
<trkpt lat="49.0026549808681" lon="9.500662945210934">
<ele>243.79999999999995</ele>
<time>2023-05-16T11:25:05Z</time>
</trkpt>
<trkpt lat="49.00267199613154" lon="9.500621957704425">
<ele>244</ele>
<time>2023-05-16T11:25:06Z</time>
</trkpt>
<trkpt lat="49.002686999738216" lon="9.500581976026297">
<ele>244</ele>
<time>2023-05-16T11:25:07Z</time>
</trkpt>
<trkpt lat="49.00270191952586" lon="9.500541994348168">
<ele>244.20000000000005</ele>
<time>2023-05-16T11:25:08Z</time>
</trkpt>
<trkpt lat="49.00271994061768" lon="9.500497989356518">
<ele>244.39999999999998</ele>
<time>2023-05-16T11:25:09Z</time>
</trkpt>
<trkpt lat="49.00274693034589" lon="9.500459935516119">
<ele>244.39999999999998</ele>
<time>2023-05-16T11:25:10Z</time>
</trkpt>
<trkpt lat="49.0027569886297" lon="9.500421965494752">
<ele>244.60000000000002</ele>
<time>2023-05-16T11:25:11Z</time>
</trkpt>
<trkpt lat="49.002774925902486" lon="9.500384917482734">
<ele>244.79999999999995</ele>
<time>2023-05-16T11:25:12Z</time>
</trkpt>
<trkpt lat="49.00279697030783" lon="9.50035298243165">
<ele>245</ele>
<time>2023-05-16T11:25:13Z</time>
</trkpt>
<trkpt lat="49.00282798334956" lon="9.500329932197928">
<ele>245.20000000000005</ele>
<time>2023-05-16T11:25:14Z</time>
</trkpt>
<trkpt lat="49.002857990562916" lon="9.500311994925141">
<ele>245.39999999999998</ele>
<time>2023-05-16T11:25:15Z</time>
</trkpt>
<trkpt lat="49.00288699194789" lon="9.500287938863039">
<ele>245.60000000000002</ele>
<time>2023-05-16T11:25:16Z</time>
</trkpt>
<trkpt lat="49.00291197001934" lon="9.500264972448349">
<ele>245.79999999999995</ele>
<time>2023-05-16T11:25:17Z</time>
</trkpt>
<trkpt lat="49.00293795391917" lon="9.500244939699769">
<ele>246</ele>
<time>2023-05-16T11:25:18Z</time>
</trkpt>
<trkpt lat="49.00295295752585" lon="9.50022297911346">
<ele>246.20000000000005</ele>
<time>2023-05-16T11:25:19Z</time>
</trkpt>
<trkpt lat="49.00297491811216" lon="9.500186936929822">
<ele>246.39999999999998</ele>
<time>2023-05-16T11:25:20Z</time>
</trkpt>
<trkpt lat="49.002989921718836" lon="9.500156929716468">
<ele>246.60000000000002</ele>
<time>2023-05-16T11:25:21Z</time>
</trkpt>
<trkpt lat="49.003007942810655" lon="9.500121977180243">
<ele>246.79999999999995</ele>
<time>2023-05-16T11:25:22Z</time>
</trkpt>
<trkpt lat="49.003032920882106" lon="9.500081995502114">
<ele>247</ele>
<time>2023-05-16T11:25:23Z</time>
</trkpt>
<trkpt lat="49.00305496528745" lon="9.500037990510464">
<ele>247.39999999999998</ele>
<time>2023-05-16T11:25:24Z</time>
</trkpt>
<trkpt lat="49.00308195501566" lon="9.499982921406627">
<ele>247.60000000000002</ele>
<time>2023-05-16T11:25:25Z</time>
</trkpt>
<trkpt lat="49.00310793891549" lon="9.499929947778583">
<ele>247.79999999999995</ele>
<time>2023-05-16T11:25:26Z</time>
</trkpt>
<trkpt lat="49.003136940300465" lon="9.499872950837016">
<ele>248</ele>
<time>2023-05-16T11:25:27Z</time>
</trkpt>
<trkpt lat="49.00315496139228" lon="9.499824922531843">
<ele>248.20000000000005</ele>
<time>2023-05-16T11:25:28Z</time>
</trkpt>
<trkpt lat="49.00317792780697" lon="9.49977295473218">
<ele>248.20000000000005</ele>
<time>2023-05-16T11:25:29Z</time>
</trkpt>
<trkpt lat="49.003202989697456" lon="9.499722998589277">
<ele>248.39999999999998</ele>
<time>2023-05-16T11:25:30Z</time>
</trkpt>
<trkpt lat="49.00321799330413" lon="9.499674970284104">
<ele>248.60000000000002</ele>
<time>2023-05-16T11:25:31Z</time>
</trkpt>
<trkpt lat="49.0032369364053" lon="9.499616967514157">
<ele>248.60000000000002</ele>
<time>2023-05-16T11:25:32Z</time>
</trkpt>
<trkpt lat="49.00325495749712" lon="9.499566927552223">
<ele>248.79999999999995</ele>
<time>2023-05-16T11:25:33Z</time>
</trkpt>
<trkpt lat="49.0032749902457" lon="9.499526945874095">
<ele>248.79999999999995</ele>
<time>2023-05-16T11:25:34Z</time>
</trkpt>
<trkpt lat="49.003291921690106" lon="9.499466931447387">
<ele>249</ele>
<time>2023-05-16T11:25:35Z</time>
</trkpt>
<trkpt lat="49.00331497192383" lon="9.499412951990962">
<ele>249</ele>
<time>2023-05-16T11:25:36Z</time>
</trkpt>
<trkpt lat="49.00333693251014" lon="9.499361990019679">
<ele>249.20000000000005</ele>
<time>2023-05-16T11:25:37Z</time>
</trkpt>
<trkpt lat="49.0033579710871" lon="9.499311950057745">
<ele>249.20000000000005</ele>
<time>2023-05-16T11:25:38Z</time>
</trkpt>
<trkpt lat="49.003372974693775" lon="9.499262999743223">
<ele>249.20000000000005</ele>
<time>2023-05-16T11:25:39Z</time>
</trkpt>
<trkpt lat="49.003394935280085" lon="9.499209942296147">
<ele>249.39999999999998</ele>
<time>2023-05-16T11:25:40Z</time>
</trkpt>
<trkpt lat="49.0034129563719" lon="9.4991519395262">
<ele>249.39999999999998</ele>
<time>2023-05-16T11:25:41Z</time>
</trkpt>
<trkpt lat="49.00343491695821" lon="9.499081950634718">
<ele>249.39999999999998</ele>
<time>2023-05-16T11:25:42Z</time>
</trkpt>
<trkpt lat="49.003456961363554" lon="9.499016990885139">
<ele>249.60000000000002</ele>
<time>2023-05-16T11:25:43Z</time>
</trkpt>
<trkpt lat="49.00347196497023" lon="9.498961921781301">
<ele>249.60000000000002</ele>
<time>2023-05-16T11:25:44Z</time>
</trkpt>
<trkpt lat="49.00348495692015" lon="9.498899979516864">
<ele>249.60000000000002</ele>
<time>2023-05-16T11:25:45Z</time>
</trkpt>
<trkpt lat="49.00349694304168" lon="9.498834935948253">
<ele>249.60000000000002</ele>
<time>2023-05-16T11:25:46Z</time>
</trkpt>
<trkpt lat="49.003506917506456" lon="9.498767964541912">
<ele>249.60000000000002</ele>
<time>2023-05-16T11:25:47Z</time>
</trkpt>
<trkpt lat="49.0035149641335" lon="9.498704932630062">
<ele>249.60000000000002</ele>
<time>2023-05-16T11:25:48Z</time>
</trkpt>
<trkpt lat="49.003522926941514" lon="9.498637961223722">
<ele>249.60000000000002</ele>
<time>2023-05-16T11:25:49Z</time>
</trkpt>
<trkpt lat="49.00353298522532" lon="9.49856797233224">
<ele>249.79999999999995</ele>
<time>2023-05-16T11:25:50Z</time>
</trkpt>
<trkpt lat="49.003546983003616" lon="9.49850494042039">
<ele>249.79999999999995</ele>
<time>2023-05-16T11:25:51Z</time>
</trkpt>
<trkpt lat="49.00355192832649" lon="9.49843998067081">
<ele>249.79999999999995</ele>
<time>2023-05-16T11:25:52Z</time>
</trkpt>
<trkpt lat="49.00355695746839" lon="9.498372925445437">
<ele>249.79999999999995</ele>
<time>2023-05-16T11:25:53Z</time>
</trkpt>
<trkpt lat="49.00356198661029" lon="9.498307965695858">
<ele>249.79999999999995</ele>
<time>2023-05-16T11:25:54Z</time>
</trkpt>
<trkpt lat="49.003566931933165" lon="9.498242922127247">
<ele>249.79999999999995</ele>
<time>2023-05-16T11:25:55Z</time>
</trkpt>
<trkpt lat="49.00355997495353" lon="9.498169999569654">
<ele>250</ele>
<time>2023-05-16T11:25:56Z</time>
</trkpt>
<trkpt lat="49.00355695746839" lon="9.49809992685914">
<ele>250</ele>
<time>2023-05-16T11:25:57Z</time>
</trkpt>
<trkpt lat="49.00355796329677" lon="9.498034967109561">
<ele>250</ele>
<time>2023-05-16T11:25:58Z</time>
</trkpt>
<trkpt lat="49.003549916669726" lon="9.497959949076176">
<ele>250</ele>
<time>2023-05-16T11:25:59Z</time>
</trkpt>
<trkpt lat="49.003544971346855" lon="9.49788493104279">
<ele>250</ele>
<time>2023-05-16T11:26:00Z</time>
</trkpt>
<trkpt lat="49.00353793054819" lon="9.49781695380807">
<ele>250.20000000000005</ele>
<time>2023-05-16T11:26:01Z</time>
</trkpt>
<trkpt lat="49.00353298522532" lon="9.497746964916587">
<ele>250.20000000000005</ele>
<time>2023-05-16T11:26:02Z</time>
</trkpt>
<trkpt lat="49.003526950255036" lon="9.497676976025105">
<ele>250.20000000000005</ele>
<time>2023-05-16T11:26:03Z</time>
</trkpt>
<trkpt lat="49.003519993275404" lon="9.497604975476861">
<ele>250.20000000000005</ele>
<time>2023-05-16T11:26:04Z</time>
</trkpt>
<trkpt lat="49.00351295247674" lon="9.49753699824214">
<ele>250.20000000000005</ele>
<time>2023-05-16T11:26:05Z</time>
</trkpt>
<trkpt lat="49.00350792333484" lon="9.497464997693896">
<ele>250.39999999999998</ele>
<time>2023-05-16T11:26:06Z</time>
</trkpt>
<trkpt lat="49.003506917506456" lon="9.497401965782046">
<ele>250.39999999999998</ele>
<time>2023-05-16T11:26:07Z</time>
</trkpt>
<trkpt lat="49.003502978011966" lon="9.497334994375706">
<ele>250.39999999999998</ele>
<time>2023-05-16T11:26:08Z</time>
</trkpt>
<trkpt lat="49.003506917506456" lon="9.497266933321953">
<ele>250.39999999999998</ele>
<time>2023-05-16T11:26:09Z</time>
</trkpt>
<trkpt lat="49.0035099349916" lon="9.497199961915612">
<ele>250.60000000000002</ele>
<time>2023-05-16T11:26:10Z</time>
</trkpt>
<trkpt lat="49.003519993275404" lon="9.497132990509272">
<ele>250.60000000000002</ele>
<time>2023-05-16T11:26:11Z</time>
</trkpt>
<trkpt lat="49.00353499688208" lon="9.497069958597422">
<ele>250.60000000000002</ele>
<time>2023-05-16T11:26:12Z</time>
</trkpt>
<trkpt lat="49.003549916669726" lon="9.497004998847842">
<ele>250.79999999999995</ele>
<time>2023-05-16T11:26:13Z</time>
</trkpt>
<trkpt lat="49.0035649202764" lon="9.496942972764373">
<ele>250.79999999999995</ele>
<time>2023-05-16T11:26:14Z</time>
</trkpt>
<trkpt lat="49.00358294136822" lon="9.496881952509284">
<ele>251</ele>
<time>2023-05-16T11:26:15Z</time>
</trkpt>
<trkpt lat="49.00360196828842" lon="9.496821938082576">
<ele>251</ele>
<time>2023-05-16T11:26:16Z</time>
</trkpt>
<trkpt lat="49.00362694635987" lon="9.49676695279777">
<ele>251</ele>
<time>2023-05-16T11:26:17Z</time>
</trkpt>
<trkpt lat="49.003649996593595" lon="9.496714984998107">
<ele>251</ele>
<time>2023-05-16T11:26:18Z</time>
</trkpt>
<trkpt lat="49.003674974665046" lon="9.496669974178076">
<ele>251.20000000000005</ele>
<time>2023-05-16T11:26:19Z</time>
</trkpt>
<trkpt lat="49.003697941079736" lon="9.496627980843186">
<ele>251.20000000000005</ele>
<time>2023-05-16T11:26:20Z</time>
</trkpt>
<trkpt lat="49.003716967999935" lon="9.49659294448793">
<ele>251.20000000000005</ele>
<time>2023-05-16T11:26:21Z</time>
</trkpt>
<trkpt lat="49.003739934414625" lon="9.496559919789433">
<ele>251.20000000000005</ele>
<time>2023-05-16T11:26:22Z</time>
</trkpt>
<trkpt lat="49.00376692414284" lon="9.49652798473835">
<ele>251.39999999999998</ele>
<time>2023-05-16T11:26:23Z</time>
</trkpt>
<trkpt lat="49.00379994884133" lon="9.496492948383093">
<ele>251.39999999999998</ele>
<time>2023-05-16T11:26:24Z</time>
</trkpt>
<trkpt lat="49.00383196771145" lon="9.496459923684597">
<ele>251.39999999999998</ele>
<time>2023-05-16T11:26:25Z</time>
</trkpt>
<trkpt lat="49.003864992409945" lon="9.496431928128004">
<ele>251.60000000000002</ele>
<time>2023-05-16T11:26:26Z</time>
</trkpt>
<trkpt lat="49.00389994494617" lon="9.49640192091465">
<ele>251.60000000000002</ele>
<time>2023-05-16T11:26:27Z</time>
</trkpt>
<trkpt lat="49.003931963816285" lon="9.496372919529676">
<ele>251.79999999999995</ele>
<time>2023-05-16T11:26:28Z</time>
</trkpt>
<trkpt lat="49.00396197102964" lon="9.496344923973083">
<ele>251.79999999999995</ele>
<time>2023-05-16T11:26:29Z</time>
</trkpt>
<trkpt lat="49.00398996658623" lon="9.49631692841649">
<ele>252</ele>
<time>2023-05-16T11:26:30Z</time>
</trkpt>
<trkpt lat="49.00401494465768" lon="9.496289938688278">
<ele>252</ele>
<time>2023-05-16T11:26:31Z</time>
</trkpt>
<trkpt lat="49.004037994891405" lon="9.496261943131685">
<ele>252</ele>
<time>2023-05-16T11:26:32Z</time>
</trkpt>
<trkpt lat="49.004061967134476" lon="9.49622992426157">
<ele>252.20000000000005</ele>
<time>2023-05-16T11:26:33Z</time>
</trkpt>
<trkpt lat="49.00408795103431" lon="9.496199917048216">
<ele>252.20000000000005</ele>
<time>2023-05-16T11:26:34Z</time>
</trkpt>
<trkpt lat="49.00410798378289" lon="9.496174938976765">
<ele>252.20000000000005</ele>
<time>2023-05-16T11:26:35Z</time>
</trkpt>
<trkpt lat="49.0041299443692" lon="9.496146943420172">
<ele>252.20000000000005</ele>
<time>2023-05-16T11:26:36Z</time>
</trkpt>
<trkpt lat="49.00415299460292" lon="9.496116936206818">
<ele>252.20000000000005</ele>
<time>2023-05-16T11:26:37Z</time>
</trkpt>
<trkpt lat="49.004164980724454" lon="9.496092963963747">
<ele>252.20000000000005</ele>
<time>2023-05-16T11:26:38Z</time>
</trkpt>
<trkpt lat="49.00417495518923" lon="9.496072931215167">
<ele>252.20000000000005</ele>
<time>2023-05-16T11:26:39Z</time>
</trkpt>
<trkpt lat="49.00417998433113" lon="9.49605499394238">
<ele>252.20000000000005</ele>
<time>2023-05-16T11:26:40Z</time>
</trkpt>
<trkpt lat="49.004184929654" lon="9.496029932051897">
<ele>252.20000000000005</ele>
<time>2023-05-16T11:26:41Z</time>
</trkpt>
<trkpt lat="49.004184929654" lon="9.496006965637207">
<ele>252.20000000000005</ele>
<time>2023-05-16T11:26:42Z</time>
</trkpt>
<trkpt lat="49.004184929654" lon="9.495979975908995">
<ele>252.20000000000005</ele>
<time>2023-05-16T11:26:43Z</time>
</trkpt>
<trkpt lat="49.004187947139144" lon="9.495951980352402">
<ele>252.20000000000005</ele>
<time>2023-05-16T11:26:44Z</time>
</trkpt>
<trkpt lat="49.004191970452666" lon="9.495919961482286">
<ele>252.20000000000005</ele>
<time>2023-05-16T11:26:45Z</time>
</trkpt>
<trkpt lat="49.00419993326068" lon="9.495891965925694">
<ele>252.20000000000005</ele>
<time>2023-05-16T11:26:46Z</time>
</trkpt>
<trkpt lat="49.00420496240258" lon="9.495864976197481">
<ele>252.20000000000005</ele>
<time>2023-05-16T11:26:47Z</time>
</trkpt>
<trkpt lat="49.00420697405934" lon="9.495836980640888">
<ele>252.20000000000005</ele>
<time>2023-05-16T11:26:48Z</time>
</trkpt>
<trkpt lat="49.00420496240258" lon="9.495809990912676">
<ele>252</ele>
<time>2023-05-16T11:26:49Z</time>
</trkpt>
<trkpt lat="49.00420496240258" lon="9.495779983699322">
<ele>252</ele>
<time>2023-05-16T11:26:50Z</time>
</trkpt>
<trkpt lat="49.004207979887724" lon="9.495749976485968">
<ele>252</ele>
<time>2023-05-16T11:26:51Z</time>
</trkpt>
<trkpt lat="49.004212925210595" lon="9.495716951787472">
<ele>251.79999999999995</ele>
<time>2023-05-16T11:26:52Z</time>
</trkpt>
<trkpt lat="49.00421996600926" lon="9.495682921260595">
<ele>251.79999999999995</ele>
<time>2023-05-16T11:26:53Z</time>
</trkpt>
<trkpt lat="49.00422692298889" lon="9.495651992037892">
<ele>251.60000000000002</ele>
<time>2023-05-16T11:26:54Z</time>
</trkpt>
<trkpt lat="49.004234969615936" lon="9.495612932369113">
<ele>251.39999999999998</ele>
<time>2023-05-16T11:26:55Z</time>
</trkpt>
<trkpt lat="49.00423999875784" lon="9.495574962347746">
<ele>251.20000000000005</ele>
<time>2023-05-16T11:26:56Z</time>
</trkpt>
<trkpt lat="49.00424293242395" lon="9.495532969012856">
<ele>250.79999999999995</ele>
<time>2023-05-16T11:26:57Z</time>
</trkpt>
<trkpt lat="49.004254918545485" lon="9.495491981506348">
<ele>250.60000000000002</ele>
<time>2023-05-16T11:26:58Z</time>
</trkpt>
<trkpt lat="49.00426698848605" lon="9.495449988171458">
<ele>250.20000000000005</ele>
<time>2023-05-16T11:26:59Z</time>
</trkpt>
<trkpt lat="49.00427998043597" lon="9.495407994836569">
<ele>249.79999999999995</ele>
<time>2023-05-16T11:27:00Z</time>
</trkpt>
<trkpt lat="49.004297917708755" lon="9.495364995673299">
<ele>249.39999999999998</ele>
<time>2023-05-16T11:27:01Z</time>
</trkpt>
<trkpt lat="49.004317950457335" lon="9.495322918519378">
<ele>249</ele>
<time>2023-05-16T11:27:02Z</time>
</trkpt>
<trkpt lat="49.004339994862676" lon="9.495277991518378">
<ele>248.79999999999995</ele>
<time>2023-05-16T11:27:03Z</time>
</trkpt>
<trkpt lat="49.004369918257" lon="9.495214959606528">
<ele>248.60000000000002</ele>
<time>2023-05-16T11:27:04Z</time>
</trkpt>
<trkpt lat="49.00437695905566" lon="9.495122926309705">
<ele>248.39999999999998</ele>
<time>2023-05-16T11:27:05Z</time>
</trkpt>
<trkpt lat="49.00438793934882" lon="9.495076993480325">
<ele>248.39999999999998</ele>
<time>2023-05-16T11:27:06Z</time>
</trkpt>
<trkpt lat="49.00440998375416" lon="9.495051931589842">
<ele>248.39999999999998</ele>
<time>2023-05-16T11:27:07Z</time>
</trkpt>
<trkpt lat="49.00444493629038" lon="9.495041957125068">
<ele>248.39999999999998</ele>
<time>2023-05-16T11:27:08Z</time>
</trkpt>
<trkpt lat="49.004469998180866" lon="9.495039945468307">
<ele>248.39999999999998</ele>
<time>2023-05-16T11:27:09Z</time>
</trkpt>
<trkpt lat="49.00449799373746" lon="9.495041957125068">
<ele>248.39999999999998</ele>
<time>2023-05-16T11:27:10Z</time>
</trkpt>
<trkpt lat="49.00452498346567" lon="9.495042962953448">
<ele>248.39999999999998</ele>
<time>2023-05-16T11:27:11Z</time>
</trkpt>
<trkpt lat="49.004554990679026" lon="9.49504497461021">
<ele>248.60000000000002</ele>
<time>2023-05-16T11:27:12Z</time>
</trkpt>
<trkpt lat="49.00458198040724" lon="9.495042962953448">
<ele>248.60000000000002</ele>
<time>2023-05-16T11:27:13Z</time>
</trkpt>
<trkpt lat="49.004601929336786" lon="9.495036927983165">
<ele>248.60000000000002</ele>
<time>2023-05-16T11:27:14Z</time>
</trkpt>
<trkpt lat="49.004617938771844" lon="9.495016979053617">
<ele>248.79999999999995</ele>
<time>2023-05-16T11:27:15Z</time>
</trkpt>
<trkpt lat="49.004639983177185" lon="9.494989989325404">
<ele>248.79999999999995</ele>
<time>2023-05-16T11:27:16Z</time>
</trkpt>
<trkpt lat="49.004661943763494" lon="9.494952941313386">
<ele>249</ele>
<time>2023-05-16T11:27:17Z</time>
</trkpt>
<trkpt lat="49.004681976512074" lon="9.494901979342103">
<ele>249.20000000000005</ele>
<time>2023-05-16T11:27:18Z</time>
</trkpt>
<trkpt lat="49.00469999760389" lon="9.494847999885678">
<ele>249.20000000000005</ele>
<time>2023-05-16T11:27:19Z</time>
</trkpt>
<trkpt lat="49.00471793487668" lon="9.49479192495346">
<ele>249.39999999999998</ele>
<time>2023-05-16T11:27:20Z</time>
</trkpt>
<trkpt lat="49.00473997928202" lon="9.494731994345784">
<ele>249.39999999999998</ele>
<time>2023-05-16T11:27:21Z</time>
</trkpt>
<trkpt lat="49.00476294569671" lon="9.494672985747457">
<ele>249.39999999999998</ele>
<time>2023-05-16T11:27:22Z</time>
</trkpt>
<trkpt lat="49.00478297844529" lon="9.49461791664362">
<ele>249.39999999999998</ele>
<time>2023-05-16T11:27:23Z</time>
</trkpt>
<trkpt lat="49.00480695068836" lon="9.494561925530434">
<ele>249.39999999999998</ele>
<time>2023-05-16T11:27:24Z</time>
</trkpt>
<trkpt lat="49.00482698343694" lon="9.494506940245628">
<ele>249.39999999999998</ele>
<time>2023-05-16T11:27:25Z</time>
</trkpt>
<trkpt lat="49.00484693236649" lon="9.4944479316473">
<ele>249.39999999999998</ele>
<time>2023-05-16T11:27:26Z</time>
</trkpt>
<trkpt lat="49.00486998260021" lon="9.494387917220592">
<ele>249.39999999999998</ele>
<time>2023-05-16T11:27:27Z</time>
</trkpt>
<trkpt lat="49.00489496067166" lon="9.494332931935787">
<ele>249.39999999999998</ele>
<time>2023-05-16T11:27:28Z</time>
</trkpt>
<trkpt lat="49.00491499342024" lon="9.49427492916584">
<ele>249.39999999999998</ele>
<time>2023-05-16T11:27:29Z</time>
</trkpt>
<trkpt lat="49.00493795983493" lon="9.494212986901402">
<ele>249.39999999999998</ele>
<time>2023-05-16T11:27:30Z</time>
</trkpt>
<trkpt lat="49.004964949563146" lon="9.494151966646314">
<ele>249.20000000000005</ele>
<time>2023-05-16T11:27:31Z</time>
</trkpt>
<trkpt lat="49.0049949567765" lon="9.494082983583212">
<ele>249.20000000000005</ele>
<time>2023-05-16T11:27:32Z</time>
</trkpt>
<trkpt lat="49.00502194650471" lon="9.494011988863349">
<ele>249.20000000000005</ele>
<time>2023-05-16T11:27:33Z</time>
</trkpt>
<trkpt lat="49.005047930404544" lon="9.493939988315105">
<ele>249</ele>
<time>2023-05-16T11:27:34Z</time>
</trkpt>
<trkpt lat="49.005074920132756" lon="9.493862958624959">
<ele>249</ele>
<time>2023-05-16T11:27:35Z</time>
</trkpt>
<trkpt lat="49.00510199368" lon="9.493791963905096">
<ele>248.79999999999995</ele>
<time>2023-05-16T11:27:36Z</time>
</trkpt>
<trkpt lat="49.00513191707432" lon="9.493722980841994">
<ele>248.60000000000002</ele>
<time>2023-05-16T11:27:37Z</time>
</trkpt>
<trkpt lat="49.00515295565128" lon="9.493661960586905">
<ele>248.60000000000002</ele>
<time>2023-05-16T11:27:38Z</time>
</trkpt>
<trkpt lat="49.005176927894354" lon="9.493602951988578">
<ele>248.39999999999998</ele>
<time>2023-05-16T11:27:39Z</time>
</trkpt>
<trkpt lat="49.005199978128076" lon="9.49354494921863">
<ele>248.39999999999998</ele>
<time>2023-05-16T11:27:40Z</time>
</trkpt>
<trkpt lat="49.005222944542766" lon="9.493491975590587">
<ele>248.20000000000005</ele>
<time>2023-05-16T11:27:41Z</time>
</trkpt>
<trkpt lat="49.00524498894811" lon="9.493436990305781">
<ele>248.20000000000005</ele>
<time>2023-05-16T11:27:42Z</time>
</trkpt>
<trkpt lat="49.00526996701956" lon="9.493379993364215">
<ele>248</ele>
<time>2023-05-16T11:27:43Z</time>
</trkpt>
<trkpt lat="49.00529192760587" lon="9.493324924260378">
<ele>248</ele>
<time>2023-05-16T11:27:44Z</time>
</trkpt>
<trkpt lat="49.00531196035445" lon="9.49326197616756">
<ele>248</ele>
<time>2023-05-16T11:27:45Z</time>
</trkpt>
<trkpt lat="49.00533492676914" lon="9.49319995008409">
<ele>248</ele>
<time>2023-05-16T11:27:46Z</time>
</trkpt>
<trkpt lat="49.00535797700286" lon="9.493129961192608">
<ele>248</ele>
<time>2023-05-16T11:27:47Z</time>
</trkpt>
<trkpt lat="49.00538194924593" lon="9.493059972301126">
<ele>248</ele>
<time>2023-05-16T11:27:48Z</time>
</trkpt>
<trkpt lat="49.00540298782289" lon="9.492992917075753">
<ele>248</ele>
<time>2023-05-16T11:27:49Z</time>
</trkpt>
<trkpt lat="49.00542696006596" lon="9.492926951497793">
<ele>248</ele>
<time>2023-05-16T11:27:50Z</time>
</trkpt>
<trkpt lat="49.00544992648065" lon="9.492857968434691">
<ele>248</ele>
<time>2023-05-16T11:27:51Z</time>
</trkpt>
<trkpt lat="49.00546794757247" lon="9.4927919190377">
<ele>248</ele>
<time>2023-05-16T11:27:52Z</time>
</trkpt>
<trkpt lat="49.00549191981554" lon="9.492722935974598">
<ele>247.79999999999995</ele>
<time>2023-05-16T11:27:53Z</time>
</trkpt>
<trkpt lat="49.00550994090736" lon="9.49265998788178">
<ele>247.79999999999995</ele>
<time>2023-05-16T11:27:54Z</time>
</trkpt>
<trkpt lat="49.00552796199918" lon="9.492592932656407">
<ele>247.79999999999995</ele>
<time>2023-05-16T11:27:55Z</time>
</trkpt>
<trkpt lat="49.00555193424225" lon="9.492527972906828">
<ele>247.60000000000002</ele>
<time>2023-05-16T11:27:56Z</time>
</trkpt>
<trkpt lat="49.00557498447597" lon="9.492461923509836">
<ele>247.60000000000002</ele>
<time>2023-05-16T11:27:57Z</time>
</trkpt>
<trkpt lat="49.00560298003256" lon="9.492396963760257">
<ele>247.60000000000002</ele>
<time>2023-05-16T11:27:58Z</time>
</trkpt>
<trkpt lat="49.00563499890268" lon="9.492332926020026">
<ele>247.39999999999998</ele>
<time>2023-05-16T11:27:59Z</time>
</trkpt>
<trkpt lat="49.005664922297" lon="9.492269977927208">
<ele>247.39999999999998</ele>
<time>2023-05-16T11:28:00Z</time>
</trkpt>
<trkpt lat="49.005691995844245" lon="9.492211975157261">
<ele>247.20000000000005</ele>
<time>2023-05-16T11:28:01Z</time>
</trkpt>
<trkpt lat="49.00571797974408" lon="9.492154978215694">
<ele>247.20000000000005</ele>
<time>2023-05-16T11:28:02Z</time>
</trkpt>
<trkpt lat="49.00574496947229" lon="9.492102926597">
<ele>247</ele>
<time>2023-05-16T11:28:03Z</time>
</trkpt>
<trkpt lat="49.0057719592005" lon="9.492054982110858">
<ele>247</ele>
<time>2023-05-16T11:28:04Z</time>
</trkpt>
<trkpt lat="49.005799954757094" lon="9.492007959634066">
<ele>247</ele>
<time>2023-05-16T11:28:05Z</time>
</trkpt>
<trkpt lat="49.00582694448531" lon="9.491957919672132">
<ele>246.79999999999995</ele>
<time>2023-05-16T11:28:06Z</time>
</trkpt>
<trkpt lat="49.00585795752704" lon="9.491916932165623">
<ele>246.79999999999995</ele>
<time>2023-05-16T11:28:07Z</time>
</trkpt>
<trkpt lat="49.00588997639716" lon="9.491881979629397">
<ele>246.79999999999995</ele>
<time>2023-05-16T11:28:08Z</time>
</trkpt>
<trkpt lat="49.00591495446861" lon="9.491847949102521">
<ele>246.79999999999995</ele>
<time>2023-05-16T11:28:09Z</time>
</trkpt>
<trkpt lat="49.00593993254006" lon="9.491804949939251">
<ele>246.60000000000002</ele>
<time>2023-05-16T11:28:10Z</time>
</trkpt>
<trkpt lat="49.00596298277378" lon="9.49175993911922">
<ele>246.60000000000002</ele>
<time>2023-05-16T11:28:11Z</time>
</trkpt>
<trkpt lat="49.00598494336009" lon="9.491719957441092">
<ele>246.60000000000002</ele>
<time>2023-05-16T11:28:12Z</time>
</trkpt>
<trkpt lat="49.00600698776543" lon="9.491681987419724">
<ele>246.60000000000002</ele>
<time>2023-05-16T11:28:13Z</time>
</trkpt>
<trkpt lat="49.00602995418012" lon="9.491641921922565">
<ele>246.60000000000002</ele>
<time>2023-05-16T11:28:14Z</time>
</trkpt>
<trkpt lat="49.006056943908334" lon="9.491599928587675">
<ele>246.79999999999995</ele>
<time>2023-05-16T11:28:15Z</time>
</trkpt>
<trkpt lat="49.006082927808166" lon="9.491561958566308">
<ele>246.79999999999995</ele>
<time>2023-05-16T11:28:16Z</time>
</trkpt>
<trkpt lat="49.00611494667828" lon="9.491519965231419">
<ele>246.79999999999995</ele>
<time>2023-05-16T11:28:17Z</time>
</trkpt>
<trkpt lat="49.006146965548396" lon="9.49147797189653">
<ele>246.79999999999995</ele>
<time>2023-05-16T11:28:18Z</time>
</trkpt>
<trkpt lat="49.00617496110499" lon="9.49143497273326">
<ele>246.79999999999995</ele>
<time>2023-05-16T11:28:19Z</time>
</trkpt>
<trkpt lat="49.00620496831834" lon="9.491387950256467">
<ele>247</ele>
<time>2023-05-16T11:28:20Z</time>
</trkpt>
<trkpt lat="49.00623698718846" lon="9.491339921951294">
<ele>247</ele>
<time>2023-05-16T11:28:21Z</time>
</trkpt>
<trkpt lat="49.00626791641116" lon="9.491291977465153">
<ele>247</ele>
<time>2023-05-16T11:28:22Z</time>
</trkpt>
<trkpt lat="49.00629993528128" lon="9.491241937503219">
<ele>247</ele>
<time>2023-05-16T11:28:23Z</time>
</trkpt>
<trkpt lat="49.00632994249463" lon="9.491189969703555">
<ele>247.20000000000005</ele>
<time>2023-05-16T11:28:24Z</time>
</trkpt>
<trkpt lat="49.006359949707985" lon="9.49113791808486">
<ele>247.39999999999998</ele>
<time>2023-05-16T11:28:25Z</time>
</trkpt>
<trkpt lat="49.00638794526458" lon="9.491084944456816">
<ele>247.39999999999998</ele>
<time>2023-05-16T11:28:26Z</time>
</trkpt>
<trkpt lat="49.00641694664955" lon="9.49102995917201">
<ele>247.60000000000002</ele>
<time>2023-05-16T11:28:27Z</time>
</trkpt>
<trkpt lat="49.00644293054938" lon="9.490974973887205">
<ele>247.79999999999995</ele>
<time>2023-05-16T11:28:28Z</time>
</trkpt>
<trkpt lat="49.006469920277596" lon="9.49092292226851">
<ele>248</ele>
<time>2023-05-16T11:28:29Z</time>
</trkpt>
<trkpt lat="49.00649498216808" lon="9.490871960297227">
<ele>248.20000000000005</ele>
<time>2023-05-16T11:28:30Z</time>
</trkpt>
<trkpt lat="49.00651996023953" lon="9.490824937820435">
<ele>248.39999999999998</ele>
<time>2023-05-16T11:28:31Z</time>
</trkpt>
<trkpt lat="49.00654493831098" lon="9.490776993334293">
<ele>248.39999999999998</ele>
<time>2023-05-16T11:28:32Z</time>
</trkpt>
<trkpt lat="49.00656698271632" lon="9.490732988342643">
<ele>248.60000000000002</ele>
<time>2023-05-16T11:28:33Z</time>
</trkpt>
<trkpt lat="49.00658693164587" lon="9.490691917017102">
<ele>248.79999999999995</ele>
<time>2023-05-16T11:28:34Z</time>
</trkpt>
<trkpt lat="49.00660696439445" lon="9.490644978359342">
<ele>249</ele>
<time>2023-05-16T11:28:35Z</time>
</trkpt>
<trkpt lat="49.00662791915238" lon="9.490594938397408">
<ele>249.20000000000005</ele>
<time>2023-05-16T11:28:36Z</time>
</trkpt>
<trkpt lat="49.00664795190096" lon="9.490547999739647">
<ele>249.39999999999998</ele>
<time>2023-05-16T11:28:37Z</time>
</trkpt>
<trkpt lat="49.00666697882116" lon="9.490502988919616">
<ele>249.39999999999998</ele>
<time>2023-05-16T11:28:38Z</time>
</trkpt>
<trkpt lat="49.00668692775071" lon="9.490454960614443">
<ele>249.60000000000002</ele>
<time>2023-05-16T11:28:39Z</time>
</trkpt>
<trkpt lat="49.006702937185764" lon="9.490404920652509">
<ele>249.79999999999995</ele>
<time>2023-05-16T11:28:40Z</time>
</trkpt>
<trkpt lat="49.006721964105964" lon="9.490351947024465">
<ele>250</ele>
<time>2023-05-16T11:28:41Z</time>
</trkpt>
<trkpt lat="49.00673797354102" lon="9.49029696173966">
<ele>250</ele>
<time>2023-05-16T11:28:42Z</time>
</trkpt>
<trkpt lat="49.00675792247057" lon="9.490237953141332">
<ele>250.20000000000005</ele>
<time>2023-05-16T11:28:43Z</time>
</trkpt>
<trkpt lat="49.00677694939077" lon="9.490179950371385">
<ele>250.20000000000005</ele>
<time>2023-05-16T11:28:44Z</time>
</trkpt>
<trkpt lat="49.00679698213935" lon="9.490117924287915">
<ele>250.20000000000005</ele>
<time>2023-05-16T11:28:45Z</time>
</trkpt>
<trkpt lat="49.006814919412136" lon="9.490057993680239">
<ele>250.39999999999998</ele>
<time>2023-05-16T11:28:46Z</time>
</trkpt>
<trkpt lat="49.006831934675574" lon="9.489994961768389">
<ele>250.39999999999998</ele>
<time>2023-05-16T11:28:47Z</time>
</trkpt>
<trkpt lat="49.00684794411063" lon="9.48993293568492">
<ele>250.39999999999998</ele>
<time>2023-05-16T11:28:48Z</time>
</trkpt>
<trkpt lat="49.00686697103083" lon="9.489871999248862">
<ele>250.39999999999998</ele>
<time>2023-05-16T11:28:49Z</time>
</trkpt>
<trkpt lat="49.00688298046589" lon="9.489807961508632">
<ele>250.39999999999998</ele>
<time>2023-05-16T11:28:50Z</time>
</trkpt>
<trkpt lat="49.00690192356706" lon="9.489744929596782">
<ele>250.39999999999998</ele>
<time>2023-05-16T11:28:51Z</time>
</trkpt>
<trkpt lat="49.006919944658875" lon="9.489679969847202">
<ele>250.39999999999998</ele>
<time>2023-05-16T11:28:52Z</time>
</trkpt>
<trkpt lat="49.006939977407455" lon="9.489619955420494">
<ele>250.39999999999998</ele>
<time>2023-05-16T11:28:53Z</time>
</trkpt>
<trkpt lat="49.006957998499274" lon="9.489559940993786">
<ele>250.60000000000002</ele>
<time>2023-05-16T11:28:54Z</time>
</trkpt>
<trkpt lat="49.00697492994368" lon="9.489497998729348">
<ele>250.60000000000002</ele>
<time>2023-05-16T11:28:55Z</time>
</trkpt>
<trkpt lat="49.00698993355036" lon="9.48943798430264">
<ele>250.60000000000002</ele>
<time>2023-05-16T11:28:56Z</time>
</trkpt>
<trkpt lat="49.007004937157035" lon="9.489377969875932">
<ele>250.79999999999995</ele>
<time>2023-05-16T11:28:57Z</time>
</trkpt>
<trkpt lat="49.00702195242047" lon="9.489314937964082">
<ele>250.79999999999995</ele>
<time>2023-05-16T11:28:58Z</time>
</trkpt>
<trkpt lat="49.00704198516905" lon="9.489254923537374">
<ele>250.79999999999995</ele>
<time>2023-05-16T11:28:59Z</time>
</trkpt>
<trkpt lat="49.00705799460411" lon="9.489197926595807">
<ele>250.79999999999995</ele>
<time>2023-05-16T11:29:00Z</time>
</trkpt>
<trkpt lat="49.00707492604852" lon="9.48913992382586">
<ele>250.79999999999995</ele>
<time>2023-05-16T11:29:01Z</time>
</trkpt>
<trkpt lat="49.007091941311955" lon="9.489081921055913">
<ele>251</ele>
<time>2023-05-16T11:29:02Z</time>
</trkpt>
<trkpt lat="49.00710493326187" lon="9.489022996276617">
<ele>251</ele>
<time>2023-05-16T11:29:03Z</time>
</trkpt>
<trkpt lat="49.00712194852531" lon="9.48896499350667">
<ele>251</ele>
<time>2023-05-16T11:29:04Z</time>
</trkpt>
<trkpt lat="49.00713996961713" lon="9.4889029674232">
<ele>251</ele>
<time>2023-05-16T11:29:05Z</time>
</trkpt>
<trkpt lat="49.00715799070895" lon="9.488842952996492">
<ele>251</ele>
<time>2023-05-16T11:29:06Z</time>
</trkpt>
<trkpt lat="49.007174922153354" lon="9.488782938569784">
<ele>251</ele>
<time>2023-05-16T11:29:07Z</time>
</trkpt>
<trkpt lat="49.00719193741679" lon="9.488726947456598">
<ele>251.20000000000005</ele>
<time>2023-05-16T11:29:08Z</time>
</trkpt>
<trkpt lat="49.00720694102347" lon="9.488669950515032">
<ele>251.20000000000005</ele>
<time>2023-05-16T11:29:09Z</time>
</trkpt>
<trkpt lat="49.007221944630146" lon="9.488611947745085">
<ele>251.20000000000005</ele>
<time>2023-05-16T11:29:10Z</time>
</trkpt>
<trkpt lat="49.00723493658006" lon="9.488552939146757">
<ele>251.20000000000005</ele>
<time>2023-05-16T11:29:11Z</time>
</trkpt>
<trkpt lat="49.0072519518435" lon="9.488497953861952">
<ele>251.20000000000005</ele>
<time>2023-05-16T11:29:12Z</time>
</trkpt>
<trkpt lat="49.007264943793416" lon="9.488444980233908">
<ele>251.20000000000005</ele>
<time>2023-05-16T11:29:13Z</time>
</trkpt>
<trkpt lat="49.007281959056854" lon="9.4883849658072">
<ele>251.20000000000005</ele>
<time>2023-05-16T11:29:14Z</time>
</trkpt>
<trkpt lat="49.00729495100677" lon="9.488326963037252">
<ele>251.20000000000005</ele>
<time>2023-05-16T11:29:15Z</time>
</trkpt>
<trkpt lat="49.00731196627021" lon="9.488269966095686">
<ele>251.39999999999998</ele>
<time>2023-05-16T11:29:16Z</time>
</trkpt>
<trkpt lat="49.007327975705266" lon="9.488211963325739">
<ele>251.39999999999998</ele>
<time>2023-05-16T11:29:17Z</time>
</trkpt>
<trkpt lat="49.007347924634814" lon="9.48815194889903">
<ele>251.39999999999998</ele>
<time>2023-05-16T11:29:18Z</time>
</trkpt>
<trkpt lat="49.00736493989825" lon="9.488087994977832">
<ele>251.39999999999998</ele>
<time>2023-05-16T11:29:19Z</time>
</trkpt>
<trkpt lat="49.00738195516169" lon="9.488026974722743">
<ele>251.39999999999998</ele>
<time>2023-05-16T11:29:20Z</time>
</trkpt>
<trkpt lat="49.00739494711161" lon="9.487971989437938">
<ele>251.39999999999998</ele>
<time>2023-05-16T11:29:21Z</time>
</trkpt>
<trkpt lat="49.007409950718284" lon="9.48791298083961">
<ele>251.39999999999998</ele>
<time>2023-05-16T11:29:22Z</time>
</trkpt>
<trkpt lat="49.0074279718101" lon="9.487856989726424">
<ele>251.60000000000002</ele>
<time>2023-05-16T11:29:23Z</time>
</trkpt>
<trkpt lat="49.00744498707354" lon="9.487796975299716">
<ele>251.60000000000002</ele>
<time>2023-05-16T11:29:24Z</time>
</trkpt>
<trkpt lat="49.00746191851795" lon="9.487737966701388">
<ele>251.60000000000002</ele>
<time>2023-05-16T11:29:25Z</time>
</trkpt>
<trkpt lat="49.007476922124624" lon="9.487681975588202">
<ele>251.60000000000002</ele>
<time>2023-05-16T11:29:26Z</time>
</trkpt>
<trkpt lat="49.00748999789357" lon="9.487624978646636">
<ele>251.60000000000002</ele>
<time>2023-05-16T11:29:27Z</time>
</trkpt>
<trkpt lat="49.00750793516636" lon="9.48756798170507">
<ele>251.60000000000002</ele>
<time>2023-05-16T11:29:28Z</time>
</trkpt>
<trkpt lat="49.0075249504298" lon="9.487512996420264">
<ele>251.60000000000002</ele>
<time>2023-05-16T11:29:29Z</time>
</trkpt>
<trkpt lat="49.007541965693235" lon="9.487457927316427">
<ele>251.60000000000002</ele>
<time>2023-05-16T11:29:30Z</time>
</trkpt>
<trkpt lat="49.00755797512829" lon="9.48739992454648">
<ele>251.60000000000002</ele>
<time>2023-05-16T11:29:31Z</time>
</trkpt>
<trkpt lat="49.00757297873497" lon="9.487344939261675">
<ele>251.79999999999995</ele>
<time>2023-05-16T11:29:32Z</time>
</trkpt>
<trkpt lat="49.00758798234165" lon="9.487286936491728">
<ele>251.79999999999995</ele>
<time>2023-05-16T11:29:33Z</time>
</trkpt>
<trkpt lat="49.007604997605085" lon="9.487231951206923">
<ele>251.79999999999995</ele>
<time>2023-05-16T11:29:34Z</time>
</trkpt>
<trkpt lat="49.00762192904949" lon="9.487174954265356">
<ele>251.79999999999995</ele>
<time>2023-05-16T11:29:35Z</time>
</trkpt>
<trkpt lat="49.00763693265617" lon="9.487122986465693">
<ele>251.79999999999995</ele>
<time>2023-05-16T11:29:36Z</time>
</trkpt>
<trkpt lat="49.007651936262846" lon="9.48707696981728">
<ele>251.79999999999995</ele>
<time>2023-05-16T11:29:37Z</time>
</trkpt>
<trkpt lat="49.007662916556" lon="9.48703195899725">
<ele>251.79999999999995</ele>
<time>2023-05-16T11:29:38Z</time>
</trkpt>
<trkpt lat="49.00767498649657" lon="9.486994994804263">
<ele>251.79999999999995</ele>
<time>2023-05-16T11:29:39Z</time>
</trkpt>
<trkpt lat="49.007689990103245" lon="9.486956940963864">
<ele>251.79999999999995</ele>
<time>2023-05-16T11:29:40Z</time>
</trkpt>
<trkpt lat="49.00770298205316" lon="9.486921988427639">
<ele>251.79999999999995</ele>
<time>2023-05-16T11:29:41Z</time>
</trkpt>
<trkpt lat="49.00771697983146" lon="9.486892987042665">
<ele>251.79999999999995</ele>
<time>2023-05-16T11:29:42Z</time>
</trkpt>
<trkpt lat="49.00772997178137" lon="9.486866919323802">
<ele>251.79999999999995</ele>
<time>2023-05-16T11:29:43Z</time>
</trkpt>
<trkpt lat="49.00773994624615" lon="9.486842947080731">
<ele>251.79999999999995</ele>
<time>2023-05-16T11:29:44Z</time>
</trkpt>
<trkpt lat="49.00774799287319" lon="9.486821992322803">
<ele>251.79999999999995</ele>
<time>2023-05-16T11:29:45Z</time>
</trkpt>
<trkpt lat="49.00775193236768" lon="9.4867979362607">
<ele>251.79999999999995</ele>
<time>2023-05-16T11:29:46Z</time>
</trkpt>
<trkpt lat="49.00774992071092" lon="9.486772958189249">
<ele>251.79999999999995</ele>
<time>2023-05-16T11:29:47Z</time>
</trkpt>
<trkpt lat="49.00774698704481" lon="9.486756948754191">
<ele>251.79999999999995</ele>
<time>2023-05-16T11:29:48Z</time>
</trkpt>
<trkpt lat="49.00774799287319" lon="9.486751919612288">
<ele>251.79999999999995</ele>
<time>2023-05-16T11:29:49Z</time>
</trkpt>
<trkpt lat="49.00774698704481" lon="9.486751919612288">
<ele>251.79999999999995</ele>
<time>2023-05-16T11:29:50Z</time>
</trkpt>
<trkpt lat="49.00781496427953" lon="9.48662493377924">
<ele>252</ele>
<time>2023-05-16T11:29:50Z</time>
</trkpt>
<trkpt lat="49.007822927087545" lon="9.486597944051027">
<ele>251.79999999999995</ele>
<time>2023-05-16T11:29:51Z</time>
</trkpt>
<trkpt lat="49.00783298537135" lon="9.486572965979576">
<ele>251.79999999999995</ele>
<time>2023-05-16T11:29:52Z</time>
</trkpt>
<trkpt lat="49.00784698314965" lon="9.48653994128108">
<ele>251.79999999999995</ele>
<time>2023-05-16T11:29:53Z</time>
</trkpt>
<trkpt lat="49.007862992584705" lon="9.48649794794619">
<ele>251.79999999999995</ele>
<time>2023-05-16T11:29:54Z</time>
</trkpt>
<trkpt lat="49.007882941514254" lon="9.486447991803288">
<ele>251.79999999999995</ele>
<time>2023-05-16T11:29:55Z</time>
</trkpt>
<trkpt lat="49.007909931242466" lon="9.486382948234677">
<ele>251.60000000000002</ele>
<time>2023-05-16T11:29:56Z</time>
</trkpt>
<trkpt lat="49.00793692097068" lon="9.48630197905004">
<ele>251.60000000000002</ele>
<time>2023-05-16T11:29:57Z</time>
</trkpt>
<trkpt lat="49.00796491652727" lon="9.486212963238358">
<ele>251.60000000000002</ele>
<time>2023-05-16T11:29:58Z</time>
</trkpt>
<trkpt lat="49.007991990074515" lon="9.486136939376593">
<ele>251.60000000000002</ele>
<time>2023-05-16T11:29:59Z</time>
</trkpt>
<trkpt lat="49.00801998563111" lon="9.486056976020336">
<ele>251.60000000000002</ele>
<time>2023-05-16T11:30:00Z</time>
</trkpt>
<trkpt lat="49.00804697535932" lon="9.48597994633019">
<ele>251.60000000000002</ele>
<time>2023-05-16T11:30:01Z</time>
</trkpt>
<trkpt lat="49.00807195343077" lon="9.485912974923849">
<ele>251.60000000000002</ele>
<time>2023-05-16T11:30:02Z</time>
</trkpt>
<trkpt lat="49.00808997452259" lon="9.485842986032367">
<ele>251.60000000000002</ele>
<time>2023-05-16T11:30:03Z</time>
</trkpt>
<trkpt lat="49.00810992345214" lon="9.48576495051384">
<ele>251.60000000000002</ele>
<time>2023-05-16T11:30:04Z</time>
</trkpt>
<trkpt lat="49.00812995620072" lon="9.48567794635892">
<ele>251.60000000000002</ele>
<time>2023-05-16T11:30:05Z</time>
</trkpt>
<trkpt lat="49.00814797729254" lon="9.485597983002663">
<ele>251.60000000000002</ele>
<time>2023-05-16T11:30:06Z</time>
</trkpt>
<trkpt lat="49.008166920393705" lon="9.485517935827374">
<ele>251.60000000000002</ele>
<time>2023-05-16T11:30:07Z</time>
</trkpt>
<trkpt lat="49.008187958970666" lon="9.48543998412788">
<ele>251.60000000000002</ele>
<time>2023-05-16T11:30:08Z</time>
</trkpt>
<trkpt lat="49.00821193121374" lon="9.485361948609352">
<ele>251.60000000000002</ele>
<time>2023-05-16T11:30:09Z</time>
</trkpt>
<trkpt lat="49.00823699310422" lon="9.485286930575967">
<ele>251.79999999999995</ele>
<time>2023-05-16T11:30:10Z</time>
</trkpt>
<trkpt lat="49.00826297700405" lon="9.485212918370962">
<ele>251.79999999999995</ele>
<time>2023-05-16T11:30:11Z</time>
</trkpt>
<trkpt lat="49.008291978389025" lon="9.4851419236511">
<ele>251.79999999999995</ele>
<time>2023-05-16T11:30:12Z</time>
</trkpt>
<trkpt lat="49.00831997394562" lon="9.485072940587997">
<ele>251.79999999999995</ele>
<time>2023-05-16T11:30:13Z</time>
</trkpt>
<trkpt lat="49.00835199281573" lon="9.485002951696515">
<ele>251.79999999999995</ele>
<time>2023-05-16T11:30:14Z</time>
</trkpt>
<trkpt lat="49.008382922038436" lon="9.484929945319891">
<ele>251.79999999999995</ele>
<time>2023-05-16T11:30:15Z</time>
</trkpt>
<trkpt lat="49.00841292925179" lon="9.484859956428409">
<ele>251.79999999999995</ele>
<time>2023-05-16T11:30:16Z</time>
</trkpt>
<trkpt lat="49.008444948121905" lon="9.484792985022068">
<ele>251.79999999999995</ele>
<time>2023-05-16T11:30:17Z</time>
</trkpt>
<trkpt lat="49.0084779728204" lon="9.484726935625076">
<ele>251.79999999999995</ele>
<time>2023-05-16T11:30:18Z</time>
</trkpt>
<trkpt lat="49.008511919528246" lon="9.484662981703877">
<ele>251.79999999999995</ele>
<time>2023-05-16T11:30:19Z</time>
</trkpt>
<trkpt lat="49.0085469558835" lon="9.484599949792027">
<ele>251.79999999999995</ele>
<time>2023-05-16T11:30:20Z</time>
</trkpt>
<trkpt lat="49.008579980582" lon="9.48453993536532">
<ele>251.79999999999995</ele>
<time>2023-05-16T11:30:21Z</time>
</trkpt>
<trkpt lat="49.008614933118224" lon="9.484481932595372">
<ele>251.79999999999995</ele>
<time>2023-05-16T11:30:22Z</time>
</trkpt>
<trkpt lat="49.00864795781672" lon="9.484426947310567">
<ele>251.79999999999995</ele>
<time>2023-05-16T11:30:23Z</time>
</trkpt>
<trkpt lat="49.00868299417198" lon="9.484376991167665">
<ele>251.79999999999995</ele>
<time>2023-05-16T11:30:24Z</time>
</trkpt>
<trkpt lat="49.00871694087982" lon="9.48432493954897">
<ele>251.79999999999995</ele>
<time>2023-05-16T11:30:25Z</time>
</trkpt>
<trkpt lat="49.00874996557832" lon="9.484271965920925">
<ele>251.79999999999995</ele>
<time>2023-05-16T11:30:26Z</time>
</trkpt>
<trkpt lat="49.00878198444843" lon="9.4842179864645">
<ele>251.79999999999995</ele>
<time>2023-05-16T11:30:27Z</time>
</trkpt>
<trkpt lat="49.0088149253279" lon="9.484166940674186">
<ele>251.79999999999995</ele>
<time>2023-05-16T11:30:28Z</time>
</trkpt>
<trkpt lat="49.008849961683154" lon="9.484117990359664">
<ele>251.60000000000002</ele>
<time>2023-05-16T11:30:29Z</time>
</trkpt>
<trkpt lat="49.00888499803841" lon="9.484064932912588">
<ele>251.60000000000002</ele>
<time>2023-05-16T11:30:30Z</time>
</trkpt>
<trkpt lat="49.00891995057464" lon="9.484011959284544">
<ele>251.60000000000002</ele>
<time>2023-05-16T11:30:31Z</time>
</trkpt>
<trkpt lat="49.00895498692989" lon="9.483954962342978">
<ele>251.60000000000002</ele>
<time>2023-05-16T11:30:32Z</time>
</trkpt>
<trkpt lat="49.00898993946612" lon="9.483897965401411">
<ele>251.39999999999998</ele>
<time>2023-05-16T11:30:33Z</time>
</trkpt>
<trkpt lat="49.009024975821376" lon="9.483841974288225">
<ele>251.39999999999998</ele>
<time>2023-05-16T11:30:34Z</time>
</trkpt>
<trkpt lat="49.00906294584274" lon="9.48378698900342">
<ele>251.39999999999998</ele>
<time>2023-05-16T11:30:35Z</time>
</trkpt>
<trkpt lat="49.00909999385476" lon="9.483727980405092">
<ele>251.39999999999998</ele>
<time>2023-05-16T11:30:36Z</time>
</trkpt>
<trkpt lat="49.00913695804775" lon="9.483674922958016">
<ele>251.39999999999998</ele>
<time>2023-05-16T11:30:37Z</time>
</trkpt>
<trkpt lat="49.009174928069115" lon="9.483621949329972">
<ele>251.20000000000005</ele>
<time>2023-05-16T11:30:38Z</time>
</trkpt>
<trkpt lat="49.00921298190951" lon="9.483567969873548">
<ele>251.20000000000005</ele>
<time>2023-05-16T11:30:39Z</time>
</trkpt>
<trkpt lat="49.00925296358764" lon="9.483512984588742">
<ele>251.20000000000005</ele>
<time>2023-05-16T11:30:40Z</time>
</trkpt>
<trkpt lat="49.00929193943739" lon="9.483456993475556">
<ele>251</ele>
<time>2023-05-16T11:30:41Z</time>
</trkpt>
<trkpt lat="49.00932999327779" lon="9.483397984877229">
<ele>251</ele>
<time>2023-05-16T11:30:42Z</time>
</trkpt>
<trkpt lat="49.009366957470775" lon="9.48333797045052">
<ele>251</ele>
<time>2023-05-16T11:30:43Z</time>
</trkpt>
<trkpt lat="49.00940299965441" lon="9.483279967680573">
<ele>250.79999999999995</ele>
<time>2023-05-16T11:30:44Z</time>
</trkpt>
<trkpt lat="49.00944197550416" lon="9.483222970739007">
<ele>250.79999999999995</ele>
<time>2023-05-16T11:30:45Z</time>
</trkpt>
<trkpt lat="49.009477933868766" lon="9.483167985454202">
<ele>250.79999999999995</ele>
<time>2023-05-16T11:30:46Z</time>
</trkpt>
<trkpt lat="49.009516993537545" lon="9.483112916350365">
<ele>250.60000000000002</ele>
<time>2023-05-16T11:30:47Z</time>
</trkpt>
<trkpt lat="49.00955496355891" lon="9.48305994272232">
<ele>250.60000000000002</ele>
<time>2023-05-16T11:30:48Z</time>
</trkpt>
<trkpt lat="49.00959293358028" lon="9.483002945780754">
<ele>250.60000000000002</ele>
<time>2023-05-16T11:30:49Z</time>
</trkpt>
<trkpt lat="49.00963199324906" lon="9.482946954667568">
<ele>250.39999999999998</ele>
<time>2023-05-16T11:30:50Z</time>
</trkpt>
<trkpt lat="49.00967197492719" lon="9.482889957726002">
<ele>250.39999999999998</ele>
<time>2023-05-16T11:30:51Z</time>
</trkpt>
<trkpt lat="49.009709944948554" lon="9.482834972441196">
<ele>250.39999999999998</ele>
<time>2023-05-16T11:30:52Z</time>
</trkpt>
<trkpt lat="49.00974992662668" lon="9.482779987156391">
<ele>250.39999999999998</ele>
<time>2023-05-16T11:30:53Z</time>
</trkpt>
<trkpt lat="49.00978798046708" lon="9.482727935537696">
<ele>250.20000000000005</ele>
<time>2023-05-16T11:30:54Z</time>
</trkpt>
<trkpt lat="49.00982494466007" lon="9.48267295025289">
<ele>250.20000000000005</ele>
<time>2023-05-16T11:30:55Z</time>
</trkpt>
<trkpt lat="49.009861992672086" lon="9.482619976624846">
<ele>250.20000000000005</ele>
<time>2023-05-16T11:30:56Z</time>
</trkpt>
<trkpt lat="49.00989795103669" lon="9.482569936662912">
<ele>250.20000000000005</ele>
<time>2023-05-16T11:30:57Z</time>
</trkpt>
<trkpt lat="49.00993499904871" lon="9.482521992176771">
<ele>250.20000000000005</ele>
<time>2023-05-16T11:30:58Z</time>
</trkpt>
<trkpt lat="49.009971963241696" lon="9.482474969699979">
<ele>250.20000000000005</ele>
<time>2023-05-16T11:30:59Z</time>
</trkpt>
<trkpt lat="49.0100079216063" lon="9.482427947223186">
<ele>250.20000000000005</ele>
<time>2023-05-16T11:31:00Z</time>
</trkpt>
<trkpt lat="49.01004295796156" lon="9.482379918918014">
<ele>250.20000000000005</ele>
<time>2023-05-16T11:31:01Z</time>
</trkpt>
<trkpt lat="49.010077994316816" lon="9.482331974431872">
<ele>250.20000000000005</ele>
<time>2023-05-16T11:31:02Z</time>
</trkpt>
<trkpt lat="49.0101149585098" lon="9.482281934469938">
<ele>250.20000000000005</ele>
<time>2023-05-16T11:31:03Z</time>
</trkpt>
<trkpt lat="49.01014999486506" lon="9.482231978327036">
<ele>250.20000000000005</ele>
<time>2023-05-16T11:31:04Z</time>
</trkpt>
<trkpt lat="49.010184947401285" lon="9.482181938365102">
<ele>250.20000000000005</ele>
<time>2023-05-16T11:31:05Z</time>
</trkpt>
<trkpt lat="49.01021998375654" lon="9.482127958908677">
<ele>250.20000000000005</ele>
<time>2023-05-16T11:31:06Z</time>
</trkpt>
<trkpt lat="49.01025694794953" lon="9.482072973623872">
<ele>250.20000000000005</ele>
<time>2023-05-16T11:31:07Z</time>
</trkpt>
<trkpt lat="49.010291984304786" lon="9.482019999995828">
<ele>250.20000000000005</ele>
<time>2023-05-16T11:31:08Z</time>
</trkpt>
<trkpt lat="49.01032693684101" lon="9.48196493089199">
<ele>250.20000000000005</ele>
<time>2023-05-16T11:31:09Z</time>
</trkpt>
<trkpt lat="49.01036197319627" lon="9.481911957263947">
<ele>250.20000000000005</ele>
<time>2023-05-16T11:31:10Z</time>
</trkpt>
<trkpt lat="49.010394997894764" lon="9.481859989464283">
<ele>250.20000000000005</ele>
<time>2023-05-16T11:31:11Z</time>
</trkpt>
<trkpt lat="49.01042693294585" lon="9.481807937845588">
<ele>250.20000000000005</ele>
<time>2023-05-16T11:31:12Z</time>
</trkpt>
<trkpt lat="49.01045995764434" lon="9.481757981702685">
<ele>250.20000000000005</ele>
<time>2023-05-16T11:31:13Z</time>
</trkpt>
<trkpt lat="49.01049298234284" lon="9.481709953397512">
<ele>250.20000000000005</ele>
<time>2023-05-16T11:31:14Z</time>
</trkpt>
<trkpt lat="49.010527934879065" lon="9.48166192509234">
<ele>250.20000000000005</ele>
<time>2023-05-16T11:31:15Z</time>
</trkpt>
<trkpt lat="49.01055794209242" lon="9.481614986434579">
<ele>250.20000000000005</ele>
<time>2023-05-16T11:31:16Z</time>
</trkpt>
<trkpt lat="49.01058694347739" lon="9.481571987271309">
<ele>250.20000000000005</ele>
<time>2023-05-16T11:31:17Z</time>
</trkpt>
<trkpt lat="49.010612927377224" lon="9.48152999393642">
<ele>250.20000000000005</ele>
<time>2023-05-16T11:31:18Z</time>
</trkpt>
<trkpt lat="49.010639917105436" lon="9.48148992843926">
<ele>250.20000000000005</ele>
<time>2023-05-16T11:31:19Z</time>
</trkpt>
<trkpt lat="49.01066992431879" lon="9.481449946761131">
<ele>250.20000000000005</ele>
<time>2023-05-16T11:31:20Z</time>
</trkpt>
<trkpt lat="49.010699931532145" lon="9.481407953426242">
<ele>250.20000000000005</ele>
<time>2023-05-16T11:31:21Z</time>
</trkpt>
<trkpt lat="49.0107299387455" lon="9.481366965919733">
<ele>250.20000000000005</ele>
<time>2023-05-16T11:31:22Z</time>
</trkpt>
<trkpt lat="49.01075793430209" lon="9.481321955099702">
<ele>250.20000000000005</ele>
<time>2023-05-16T11:31:23Z</time>
</trkpt>
<trkpt lat="49.010786935687065" lon="9.4812719989568">
<ele>250.20000000000005</ele>
<time>2023-05-16T11:31:24Z</time>
</trkpt>
<trkpt lat="49.0108129195869" lon="9.481219947338104">
<ele>250.20000000000005</ele>
<time>2023-05-16T11:31:25Z</time>
</trkpt>
<trkpt lat="49.01083999313414" lon="9.481164962053299">
<ele>250.20000000000005</ele>
<time>2023-05-16T11:31:26Z</time>
</trkpt>
<trkpt lat="49.01086698286235" lon="9.481106959283352">
<ele>250.20000000000005</ele>
<time>2023-05-16T11:31:27Z</time>
</trkpt>
<trkpt lat="49.01088994927704" lon="9.481047950685024">
<ele>250.39999999999998</ele>
<time>2023-05-16T11:31:28Z</time>
</trkpt>
<trkpt lat="49.010911993682384" lon="9.480987936258316">
<ele>250.39999999999998</ele>
<time>2023-05-16T11:31:29Z</time>
</trkpt>
<trkpt lat="49.01093294844031" lon="9.480929933488369">
<ele>250.39999999999998</ele>
<time>2023-05-16T11:31:30Z</time>
</trkpt>
<trkpt lat="49.010957926511765" lon="9.48086991906166">
<ele>250.60000000000002</ele>
<time>2023-05-16T11:31:31Z</time>
</trkpt>
<trkpt lat="49.01098298840225" lon="9.480811916291714">
<ele>250.60000000000002</ele>
<time>2023-05-16T11:31:32Z</time>
</trkpt>
<trkpt lat="49.01100696064532" lon="9.480752991512418">
<ele>250.60000000000002</ele>
<time>2023-05-16T11:31:33Z</time>
</trkpt>
<trkpt lat="49.01103294454515" lon="9.4806969165802">
<ele>250.79999999999995</ele>
<time>2023-05-16T11:31:34Z</time>
</trkpt>
<trkpt lat="49.01105993427336" lon="9.480642937123775">
<ele>250.79999999999995</ele>
<time>2023-05-16T11:31:35Z</time>
</trkpt>
<trkpt lat="49.011084996163845" lon="9.48058694601059">
<ele>251</ele>
<time>2023-05-16T11:31:36Z</time>
</trkpt>
<trkpt lat="49.011109974235296" lon="9.480529949069023">
<ele>251</ele>
<time>2023-05-16T11:31:37Z</time>
</trkpt>
<trkpt lat="49.01113495230675" lon="9.480476975440979">
<ele>251</ele>
<time>2023-05-16T11:31:38Z</time>
</trkpt>
<trkpt lat="49.0111599303782" lon="9.480421990156174">
<ele>251.20000000000005</ele>
<time>2023-05-16T11:31:39Z</time>
</trkpt>
<trkpt lat="49.01118197478354" lon="9.480364993214607">
<ele>251.20000000000005</ele>
<time>2023-05-16T11:31:40Z</time>
</trkpt>
<trkpt lat="49.01120494119823" lon="9.48030799627304">
<ele>251.39999999999998</ele>
<time>2023-05-16T11:31:41Z</time>
</trkpt>
<trkpt lat="49.01122799143195" lon="9.480249993503094">
<ele>251.39999999999998</ele>
<time>2023-05-16T11:31:42Z</time>
</trkpt>
<trkpt lat="49.0112529695034" lon="9.480189979076385">
<ele>251.60000000000002</ele>
<time>2023-05-16T11:31:43Z</time>
</trkpt>
<trkpt lat="49.01127694174647" lon="9.480131976306438">
<ele>251.60000000000002</ele>
<time>2023-05-16T11:31:44Z</time>
</trkpt>
<trkpt lat="49.011301919817924" lon="9.48007296770811">
<ele>251.79999999999995</ele>
<time>2023-05-16T11:31:45Z</time>
</trkpt>
<trkpt lat="49.01132698170841" lon="9.480012953281403">
<ele>251.79999999999995</ele>
<time>2023-05-16T11:31:46Z</time>
</trkpt>
<trkpt lat="49.01135195977986" lon="9.479954950511456">
<ele>251.79999999999995</ele>
<time>2023-05-16T11:31:47Z</time>
</trkpt>
<trkpt lat="49.01137693785131" lon="9.479896947741508">
<ele>251.79999999999995</ele>
<time>2023-05-16T11:31:48Z</time>
</trkpt>
<trkpt lat="49.01139998808503" lon="9.479841962456703">
<ele>252</ele>
<time>2023-05-16T11:31:49Z</time>
</trkpt>
<trkpt lat="49.01142295449972" lon="9.47978999465704">
<ele>252</ele>
<time>2023-05-16T11:31:50Z</time>
</trkpt>
<trkpt lat="49.01144692674279" lon="9.479736937209964">
<ele>252</ele>
<time>2023-05-16T11:31:51Z</time>
</trkpt>
<trkpt lat="49.01146796531975" lon="9.479682957753539">
<ele>252.20000000000005</ele>
<time>2023-05-16T11:31:52Z</time>
</trkpt>
<trkpt lat="49.01149193756282" lon="9.479631995782256">
<ele>252.20000000000005</ele>
<time>2023-05-16T11:31:53Z</time>
</trkpt>
<trkpt lat="49.011517921462655" lon="9.479582961648703">
<ele>252.20000000000005</ele>
<time>2023-05-16T11:31:54Z</time>
</trkpt>
<trkpt lat="49.01154692284763" lon="9.47953493334353">
<ele>252.20000000000005</ele>
<time>2023-05-16T11:31:55Z</time>
</trkpt>
<trkpt lat="49.01157491840422" lon="9.479484977200627">
<ele>252.20000000000005</ele>
<time>2023-05-16T11:31:56Z</time>
</trkpt>
<trkpt lat="49.011601991951466" lon="9.479432925581932">
<ele>252.39999999999998</ele>
<time>2023-05-16T11:31:57Z</time>
</trkpt>
<trkpt lat="49.0116279758513" lon="9.47938498109579">
<ele>252.39999999999998</ele>
<time>2023-05-16T11:31:58Z</time>
</trkpt>
<trkpt lat="49.01165798306465" lon="9.479336952790618">
<ele>252.39999999999998</ele>
<time>2023-05-16T11:31:59Z</time>
</trkpt>
<trkpt lat="49.0116829611361" lon="9.479284984990954">
<ele>252.39999999999998</ele>
<time>2023-05-16T11:32:00Z</time>
</trkpt>
<trkpt lat="49.011711962521076" lon="9.479229999706149">
<ele>252.60000000000002</ele>
<time>2023-05-16T11:32:01Z</time>
</trkpt>
<trkpt lat="49.01173694059253" lon="9.479176942259073">
<ele>252.60000000000002</ele>
<time>2023-05-16T11:32:02Z</time>
</trkpt>
<trkpt lat="49.01175999082625" lon="9.47912497445941">
<ele>252.60000000000002</ele>
<time>2023-05-16T11:32:03Z</time>
</trkpt>
<trkpt lat="49.01178295724094" lon="9.479067977517843">
<ele>252.60000000000002</ele>
<time>2023-05-16T11:32:04Z</time>
</trkpt>
<trkpt lat="49.01180491782725" lon="9.479011986404657">
<ele>252.79999999999995</ele>
<time>2023-05-16T11:32:05Z</time>
</trkpt>
<trkpt lat="49.01182997971773" lon="9.478949960321188">
<ele>252.79999999999995</ele>
<time>2023-05-16T11:32:06Z</time>
</trkpt>
<trkpt lat="49.011856969445944" lon="9.478884916752577">
<ele>252.79999999999995</ele>
<time>2023-05-16T11:32:07Z</time>
</trkpt>
<trkpt lat="49.011881947517395" lon="9.47882297448814">
<ele>252.79999999999995</ele>
<time>2023-05-16T11:32:08Z</time>
</trkpt>
<trkpt lat="49.01190793141723" lon="9.47876195423305">
<ele>252.79999999999995</ele>
<time>2023-05-16T11:32:09Z</time>
</trkpt>
<trkpt lat="49.01193492114544" lon="9.478701939806342">
<ele>252.79999999999995</ele>
<time>2023-05-16T11:32:10Z</time>
</trkpt>
<trkpt lat="49.01196291670203" lon="9.478641925379634">
<ele>253</ele>
<time>2023-05-16T11:32:11Z</time>
</trkpt>
<trkpt lat="49.011991918087006" lon="9.478586940094829">
<ele>253</ele>
<time>2023-05-16T11:32:12Z</time>
</trkpt>
<trkpt lat="49.01202192530036" lon="9.478529943153262">
<ele>253</ele>
<time>2023-05-16T11:32:13Z</time>
</trkpt>
<trkpt lat="49.01204992085695" lon="9.478472946211696">
<ele>253.20000000000005</ele>
<time>2023-05-16T11:32:14Z</time>
</trkpt>
<trkpt lat="49.0120769944042" lon="9.47841796092689">
<ele>253.20000000000005</ele>
<time>2023-05-16T11:32:15Z</time>
</trkpt>
<trkpt lat="49.01210297830403" lon="9.478362975642085">
<ele>253.39999999999998</ele>
<time>2023-05-16T11:32:16Z</time>
</trkpt>
<trkpt lat="49.01212996803224" lon="9.47830799035728">
<ele>253.39999999999998</ele>
<time>2023-05-16T11:32:17Z</time>
</trkpt>
<trkpt lat="49.012157963588834" lon="9.478254932910204">
<ele>253.60000000000002</ele>
<time>2023-05-16T11:32:18Z</time>
</trkpt>
<trkpt lat="49.012184953317046" lon="9.47820296511054">
<ele>253.60000000000002</ele>
<time>2023-05-16T11:32:19Z</time>
</trkpt>
<trkpt lat="49.0122099313885" lon="9.478147979825735">
<ele>253.79999999999995</ele>
<time>2023-05-16T11:32:20Z</time>
</trkpt>
<trkpt lat="49.01223298162222" lon="9.47809198871255">
<ele>253.79999999999995</ele>
<time>2023-05-16T11:32:21Z</time>
</trkpt>
<trkpt lat="49.01225997135043" lon="9.478032980114222">
<ele>253.79999999999995</ele>
<time>2023-05-16T11:32:22Z</time>
</trkpt>
<trkpt lat="49.012286961078644" lon="9.477974977344275">
<ele>254</ele>
<time>2023-05-16T11:32:23Z</time>
</trkpt>
<trkpt lat="49.012312944978476" lon="9.477916974574327">
<ele>254</ele>
<time>2023-05-16T11:32:24Z</time>
</trkpt>
<trkpt lat="49.01233993470669" lon="9.47785696014762">
<ele>254</ele>
<time>2023-05-16T11:32:25Z</time>
</trkpt>
<trkpt lat="49.01236499659717" lon="9.477796945720911">
<ele>254</ele>
<time>2023-05-16T11:32:26Z</time>
</trkpt>
<trkpt lat="49.01239198632538" lon="9.477737937122583">
<ele>254</ele>
<time>2023-05-16T11:32:27Z</time>
</trkpt>
<trkpt lat="49.012416964396834" lon="9.477677922695875">
<ele>254</ele>
<time>2023-05-16T11:32:28Z</time>
</trkpt>
<trkpt lat="49.012441942468286" lon="9.477614974603057">
<ele>254</ele>
<time>2023-05-16T11:32:29Z</time>
</trkpt>
<trkpt lat="49.01246692053974" lon="9.477549931034446">
<ele>254</ele>
<time>2023-05-16T11:32:30Z</time>
</trkpt>
<trkpt lat="49.01249198243022" lon="9.477481953799725">
<ele>254</ele>
<time>2023-05-16T11:32:31Z</time>
</trkpt>
<trkpt lat="49.01251696050167" lon="9.477409953251481">
<ele>254</ele>
<time>2023-05-16T11:32:32Z</time>
</trkpt>
<trkpt lat="49.01253992691636" lon="9.477336946874857">
<ele>254</ele>
<time>2023-05-16T11:32:33Z</time>
</trkpt>
<trkpt lat="49.012564988806844" lon="9.477264946326613">
<ele>254</ele>
<time>2023-05-16T11:32:34Z</time>
</trkpt>
<trkpt lat="49.012589966878295" lon="9.477189928293228">
<ele>254</ele>
<time>2023-05-16T11:32:35Z</time>
</trkpt>
<trkpt lat="49.01261695660651" lon="9.477114994078875">
<ele>253.79999999999995</ele>
<time>2023-05-16T11:32:36Z</time>
</trkpt>
<trkpt lat="49.01264294050634" lon="9.477037964388728">
<ele>253.79999999999995</ele>
<time>2023-05-16T11:32:37Z</time>
</trkpt>
<trkpt lat="49.01266993023455" lon="9.476959928870201">
<ele>253.79999999999995</ele>
<time>2023-05-16T11:32:38Z</time>
</trkpt>
<trkpt lat="49.012694992125034" lon="9.476881977170706">
<ele>253.79999999999995</ele>
<time>2023-05-16T11:32:39Z</time>
</trkpt>
<trkpt lat="49.012719970196486" lon="9.476802935823798">
<ele>253.60000000000002</ele>
<time>2023-05-16T11:32:40Z</time>
</trkpt>
<trkpt lat="49.01274494826794" lon="9.476721966639161">
<ele>253.60000000000002</ele>
<time>2023-05-16T11:32:41Z</time>
</trkpt>
<trkpt lat="49.01277193799615" lon="9.476642925292253">
<ele>253.39999999999998</ele>
<time>2023-05-16T11:32:42Z</time>
</trkpt>
<trkpt lat="49.01279699988663" lon="9.47656698524952">
<ele>253.39999999999998</ele>
<time>2023-05-16T11:32:43Z</time>
</trkpt>
<trkpt lat="49.01281996630132" lon="9.476489955559373">
<ele>253.20000000000005</ele>
<time>2023-05-16T11:32:44Z</time>
</trkpt>
<trkpt lat="49.01284494437277" lon="9.476411920040846">
<ele>253.20000000000005</ele>
<time>2023-05-16T11:32:45Z</time>
</trkpt>
<trkpt lat="49.012869922444224" lon="9.476336985826492">
<ele>253</ele>
<time>2023-05-16T11:32:46Z</time>
</trkpt>
<trkpt lat="49.01289498433471" lon="9.476259956136346">
<ele>252.79999999999995</ele>
<time>2023-05-16T11:32:47Z</time>
</trkpt>
<trkpt lat="49.01292197406292" lon="9.4761829264462">
<ele>252.79999999999995</ele>
<time>2023-05-16T11:32:48Z</time>
</trkpt>
<trkpt lat="49.01294795796275" lon="9.476104974746704">
<ele>252.60000000000002</ele>
<time>2023-05-16T11:32:49Z</time>
</trkpt>
<trkpt lat="49.01297193020582" lon="9.476026939228177">
<ele>252.60000000000002</ele>
<time>2023-05-16T11:32:50Z</time>
</trkpt>
<trkpt lat="49.01299296878278" lon="9.47594697587192">
<ele>252.60000000000002</ele>
<time>2023-05-16T11:32:51Z</time>
</trkpt>
<trkpt lat="49.01301492936909" lon="9.475867934525013">
<ele>252.39999999999998</ele>
<time>2023-05-16T11:32:52Z</time>
</trkpt>
<trkpt lat="49.013037979602814" lon="9.475791994482279">
<ele>252.39999999999998</ele>
<time>2023-05-16T11:32:53Z</time>
</trkpt>
<trkpt lat="49.01305994018912" lon="9.475719993934035">
<ele>252.39999999999998</ele>
<time>2023-05-16T11:32:54Z</time>
</trkpt>
<trkpt lat="49.013082990422845" lon="9.475649921223521">
<ele>252.39999999999998</ele>
<time>2023-05-16T11:32:55Z</time>
</trkpt>
<trkpt lat="49.013106962665915" lon="9.47558294981718">
<ele>252.39999999999998</ele>
<time>2023-05-16T11:32:56Z</time>
</trkpt>
<trkpt lat="49.01313294656575" lon="9.47551497258246">
<ele>252.39999999999998</ele>
<time>2023-05-16T11:32:57Z</time>
</trkpt>
<trkpt lat="49.01315691880882" lon="9.47545194067061">
<ele>252.39999999999998</ele>
<time>2023-05-16T11:32:58Z</time>
</trkpt>
<trkpt lat="49.01317795738578" lon="9.475389998406172">
<ele>252.60000000000002</ele>
<time>2023-05-16T11:32:59Z</time>
</trkpt>
<trkpt lat="49.01319991797209" lon="9.47532495483756">
<ele>252.60000000000002</ele>
<time>2023-05-16T11:33:00Z</time>
</trkpt>
<trkpt lat="49.01321995072067" lon="9.47525798343122">
<ele>252.60000000000002</ele>
<time>2023-05-16T11:33:01Z</time>
</trkpt>
<trkpt lat="49.01324199512601" lon="9.475191934034228">
<ele>252.60000000000002</ele>
<time>2023-05-16T11:33:02Z</time>
</trkpt>
<trkpt lat="49.013257920742035" lon="9.475121945142746">
<ele>252.60000000000002</ele>
<time>2023-05-16T11:33:03Z</time>
</trkpt>
<trkpt lat="49.01327292434871" lon="9.475047932937741">
<ele>252.60000000000002</ele>
<time>2023-05-16T11:33:04Z</time>
</trkpt>
<trkpt lat="49.01329195126891" lon="9.474974926561117">
<ele>252.60000000000002</ele>
<time>2023-05-16T11:33:05Z</time>
</trkpt>
<trkpt lat="49.01330997236073" lon="9.474901920184493">
<ele>252.60000000000002</ele>
<time>2023-05-16T11:33:06Z</time>
</trkpt>
<trkpt lat="49.01332992129028" lon="9.47482799179852">
<ele>252.60000000000002</ele>
<time>2023-05-16T11:33:07Z</time>
</trkpt>
<trkpt lat="49.013352971524" lon="9.474752973765135">
<ele>252.60000000000002</ele>
<time>2023-05-16T11:33:08Z</time>
</trkpt>
<trkpt lat="49.01337694376707" lon="9.47467996738851">
<ele>252.60000000000002</ele>
<time>2023-05-16T11:33:09Z</time>
</trkpt>
<trkpt lat="49.01339999400079" lon="9.474609978497028">
<ele>252.60000000000002</ele>
<time>2023-05-16T11:33:10Z</time>
</trkpt>
<trkpt lat="49.013424972072244" lon="9.474542923271656">
<ele>252.79999999999995</ele>
<time>2023-05-16T11:33:11Z</time>
</trkpt>
<trkpt lat="49.013451961800456" lon="9.474479975178838">
<ele>252.79999999999995</ele>
<time>2023-05-16T11:33:12Z</time>
</trkpt>
<trkpt lat="49.01347995735705" lon="9.474417949095368">
<ele>252.79999999999995</ele>
<time>2023-05-16T11:33:13Z</time>
</trkpt>
<trkpt lat="49.01350795291364" lon="9.474352989345789">
<ele>252.79999999999995</ele>
<time>2023-05-16T11:33:14Z</time>
</trkpt>
<trkpt lat="49.01353293098509" lon="9.47429297491908">
<ele>253</ele>
<time>2023-05-16T11:33:15Z</time>
</trkpt>
<trkpt lat="49.013557992875576" lon="9.474231954663992">
<ele>253</ele>
<time>2023-05-16T11:33:16Z</time>
</trkpt>
<trkpt lat="49.01358699426055" lon="9.474171940237284">
<ele>253</ele>
<time>2023-05-16T11:33:17Z</time>
</trkpt>
<trkpt lat="49.01361691765487" lon="9.474116954952478">
<ele>253.20000000000005</ele>
<time>2023-05-16T11:33:18Z</time>
</trkpt>
<trkpt lat="49.01364793069661" lon="9.474062975496054">
<ele>253.20000000000005</ele>
<time>2023-05-16T11:33:19Z</time>
</trkpt>
<trkpt lat="49.01367994956672" lon="9.474007990211248">
<ele>253.20000000000005</ele>
<time>2023-05-16T11:33:20Z</time>
</trkpt>
<trkpt lat="49.01371196843684" lon="9.473954932764173">
<ele>253.20000000000005</ele>
<time>2023-05-16T11:33:21Z</time>
</trkpt>
<trkpt lat="49.01374298147857" lon="9.473902964964509">
<ele>253.39999999999998</ele>
<time>2023-05-16T11:33:22Z</time>
</trkpt>
<trkpt lat="49.01377692818642" lon="9.473851919174194">
<ele>253.39999999999998</ele>
<time>2023-05-16T11:33:23Z</time>
</trkpt>
<trkpt lat="49.01380995288491" lon="9.473801963031292">
<ele>253.60000000000002</ele>
<time>2023-05-16T11:33:24Z</time>
</trkpt>
<trkpt lat="49.01384297758341" lon="9.473751923069358">
<ele>253.60000000000002</ele>
<time>2023-05-16T11:33:25Z</time>
</trkpt>
<trkpt lat="49.013879941776395" lon="9.473702972754836">
<ele>253.60000000000002</ele>
<time>2023-05-16T11:33:26Z</time>
</trkpt>
<trkpt lat="49.01391698978841" lon="9.473654944449663">
<ele>253.79999999999995</ele>
<time>2023-05-16T11:33:27Z</time>
</trkpt>
<trkpt lat="49.01395194232464" lon="9.473606999963522">
<ele>253.79999999999995</ele>
<time>2023-05-16T11:33:28Z</time>
</trkpt>
<trkpt lat="49.013986978679895" lon="9.473557965829968">
<ele>253.79999999999995</ele>
<time>2023-05-16T11:33:29Z</time>
</trkpt>
<trkpt lat="49.01402193121612" lon="9.473506920039654">
<ele>254</ele>
<time>2023-05-16T11:33:30Z</time>
</trkpt>
<trkpt lat="49.01405797339976" lon="9.473461993038654">
<ele>254</ele>
<time>2023-05-16T11:33:31Z</time>
</trkpt>
<trkpt lat="49.014096949249506" lon="9.473417988047004">
<ele>254</ele>
<time>2023-05-16T11:33:32Z</time>
</trkpt>
<trkpt lat="49.01413491927087" lon="9.473377922549844">
<ele>254.20000000000005</ele>
<time>2023-05-16T11:33:33Z</time>
</trkpt>
<trkpt lat="49.01417498476803" lon="9.473336935043335">
<ele>254.20000000000005</ele>
<time>2023-05-16T11:33:34Z</time>
</trkpt>
<trkpt lat="49.01421496644616" lon="9.473297959193587">
<ele>254.20000000000005</ele>
<time>2023-05-16T11:33:35Z</time>
</trkpt>
<trkpt lat="49.01425695978105" lon="9.47326191700995">
<ele>254.39999999999998</ele>
<time>2023-05-16T11:33:36Z</time>
</trkpt>
<trkpt lat="49.01429794728756" lon="9.473227970302105">
<ele>254.39999999999998</ele>
<time>2023-05-16T11:33:37Z</time>
</trkpt>
<trkpt lat="49.01433994062245" lon="9.473192933946848">
<ele>254.39999999999998</ele>
<time>2023-05-16T11:33:38Z</time>
</trkpt>
<trkpt lat="49.01438193395734" lon="9.47315496392548">
<ele>254.60000000000002</ele>
<time>2023-05-16T11:33:39Z</time>
</trkpt>
<trkpt lat="49.01442292146385" lon="9.473119927570224">
<ele>254.60000000000002</ele>
<time>2023-05-16T11:33:40Z</time>
</trkpt>
<trkpt lat="49.0144669264555" lon="9.473084975033998">
<ele>254.60000000000002</ele>
<time>2023-05-16T11:33:41Z</time>
</trkpt>
<trkpt lat="49.01450699195266" lon="9.473052956163883">
<ele>254.79999999999995</ele>
<time>2023-05-16T11:33:42Z</time>
</trkpt>
<trkpt lat="49.014546973630786" lon="9.473021943122149">
<ele>254.79999999999995</ele>
<time>2023-05-16T11:33:43Z</time>
</trkpt>
<trkpt lat="49.014586955308914" lon="9.472991935908794">
<ele>255</ele>
<time>2023-05-16T11:33:44Z</time>
</trkpt>
<trkpt lat="49.01462693698704" lon="9.47296192869544">
<ele>255</ele>
<time>2023-05-16T11:33:45Z</time>
</trkpt>
<trkpt lat="49.01466792449355" lon="9.472932927310467">
<ele>255.20000000000005</ele>
<time>2023-05-16T11:33:46Z</time>
</trkpt>
<trkpt lat="49.0147119294852" lon="9.472906943410635">
<ele>255.20000000000005</ele>
<time>2023-05-16T11:33:47Z</time>
</trkpt>
<trkpt lat="49.01475291699171" lon="9.472879953682423">
<ele>255.20000000000005</ele>
<time>2023-05-16T11:33:48Z</time>
</trkpt>
<trkpt lat="49.01479692198336" lon="9.47285195812583">
<ele>255.39999999999998</ele>
<time>2023-05-16T11:33:49Z</time>
</trkpt>
<trkpt lat="49.0148379933089" lon="9.472817927598953">
<ele>255.39999999999998</ele>
<time>2023-05-16T11:33:50Z</time>
</trkpt>
<trkpt lat="49.01487998664379" lon="9.472781969234347">
<ele>255.60000000000002</ele>
<time>2023-05-16T11:33:51Z</time>
</trkpt>
<trkpt lat="49.01491996832192" lon="9.47274693287909">
<ele>255.60000000000002</ele>
<time>2023-05-16T11:33:52Z</time>
</trkpt>
<trkpt lat="49.01495995000005" lon="9.472711980342865">
<ele>255.79999999999995</ele>
<time>2023-05-16T11:33:53Z</time>
</trkpt>
<trkpt lat="49.014997920021415" lon="9.472672920674086">
<ele>256</ele>
<time>2023-05-16T11:33:54Z</time>
</trkpt>
<trkpt lat="49.015036979690194" lon="9.47263796813786">
<ele>256</ele>
<time>2023-05-16T11:33:55Z</time>
</trkpt>
<trkpt lat="49.01507193222642" lon="9.472599998116493">
<ele>256.20000000000005</ele>
<time>2023-05-16T11:33:56Z</time>
</trkpt>
<trkpt lat="49.01509992778301" lon="9.472547946497798">
<ele>256.20000000000005</ele>
<time>2023-05-16T11:33:57Z</time>
</trkpt>
<trkpt lat="49.01512993499637" lon="9.472499918192625">
<ele>256.4</ele>
<time>2023-05-16T11:33:58Z</time>
</trkpt>
<trkpt lat="49.01516497135162" lon="9.472459936514497">
<ele>256.6</ele>
<time>2023-05-16T11:33:59Z</time>
</trkpt>
<trkpt lat="49.01519992388785" lon="9.472419954836369">
<ele>256.79999999999995</ele>
<time>2023-05-16T11:34:00Z</time>
</trkpt>
<trkpt lat="49.015231942757964" lon="9.472382990643382">
<ele>256.79999999999995</ele>
<time>2023-05-16T11:34:01Z</time>
</trkpt>
<trkpt lat="49.01526496745646" lon="9.472349965944886">
<ele>257</ele>
<time>2023-05-16T11:34:02Z</time>
</trkpt>
<trkpt lat="49.015297992154956" lon="9.47231694124639">
<ele>257.20000000000005</ele>
<time>2023-05-16T11:34:03Z</time>
</trkpt>
<trkpt lat="49.0153319388628" lon="9.472282994538546">
<ele>257.4</ele>
<time>2023-05-16T11:34:04Z</time>
</trkpt>
<trkpt lat="49.01536697521806" lon="9.472246952354908">
<ele>257.4</ele>
<time>2023-05-16T11:34:05Z</time>
</trkpt>
<trkpt lat="49.01539999991655" lon="9.472209988161922">
<ele>257.6</ele>
<time>2023-05-16T11:34:06Z</time>
</trkpt>
<trkpt lat="49.01543294079602" lon="9.472171934321523">
<ele>257.79999999999995</ele>
<time>2023-05-16T11:34:07Z</time>
</trkpt>
<trkpt lat="49.015466971322894" lon="9.472134970128536">
<ele>258</ele>
<time>2023-05-16T11:34:08Z</time>
</trkpt>
<trkpt lat="49.01549798436463" lon="9.472097922116518">
<ele>258.20000000000005</ele>
<time>2023-05-16T11:34:09Z</time>
</trkpt>
<trkpt lat="49.01552991941571" lon="9.472059952095151">
<ele>258.20000000000005</ele>
<time>2023-05-16T11:34:10Z</time>
</trkpt>
<trkpt lat="49.01555992662907" lon="9.472019970417023">
<ele>258.4</ele>
<time>2023-05-16T11:34:11Z</time>
</trkpt>
<trkpt lat="49.01558993384242" lon="9.471979988738894">
<ele>258.6</ele>
<time>2023-05-16T11:34:12Z</time>
</trkpt>
<trkpt lat="49.01561298407614" lon="9.471936989575624">
<ele>258.6</ele>
<time>2023-05-16T11:34:13Z</time>
</trkpt>
<trkpt lat="49.01563796214759" lon="9.471896924078465">
<ele>258.79999999999995</ele>
<time>2023-05-16T11:34:14Z</time>
</trkpt>
<trkpt lat="49.015661934390664" lon="9.471856942400336">
<ele>259</ele>
<time>2023-05-16T11:34:15Z</time>
</trkpt>
<trkpt lat="49.015684984624386" lon="9.471814949065447">
<ele>259.20000000000005</ele>
<time>2023-05-16T11:34:16Z</time>
</trkpt>
<trkpt lat="49.015701999887824" lon="9.471762981265783">
<ele>259.4</ele>
<time>2023-05-16T11:34:17Z</time>
</trkpt>
<trkpt lat="49.01571792550385" lon="9.47171294130385">
<ele>259.4</ele>
<time>2023-05-16T11:34:18Z</time>
</trkpt>
<trkpt lat="49.01572999544442" lon="9.471657956019044">
<ele>259.6</ele>
<time>2023-05-16T11:34:19Z</time>
</trkpt>
<trkpt lat="49.01575799100101" lon="9.471619985997677">
<ele>259.79999999999995</ele>
<time>2023-05-16T11:34:20Z</time>
</trkpt>
<trkpt lat="49.015787998214364" lon="9.471579920500517">
<ele>260</ele>
<time>2023-05-16T11:34:21Z</time>
</trkpt>
<trkpt lat="49.015817921608686" lon="9.471539938822389">
<ele>260.20000000000005</ele>
<time>2023-05-16T11:34:22Z</time>
</trkpt>
<trkpt lat="49.01584298349917" lon="9.47149995714426">
<ele>260.4</ele>
<time>2023-05-16T11:34:23Z</time>
</trkpt>
<trkpt lat="49.01586997322738" lon="9.471459975466132">
<ele>260.6</ele>
<time>2023-05-16T11:34:24Z</time>
</trkpt>
<trkpt lat="49.015897968783975" lon="9.471421921625733">
<ele>260.79999999999995</ele>
<time>2023-05-16T11:34:25Z</time>
</trkpt>
<trkpt lat="49.01592495851219" lon="9.471382945775986">
<ele>261</ele>
<time>2023-05-16T11:34:26Z</time>
</trkpt>
<trkpt lat="49.0159519482404" lon="9.471342964097857">
<ele>261.20000000000005</ele>
<time>2023-05-16T11:34:27Z</time>
</trkpt>
<trkpt lat="49.01597692631185" lon="9.47130298241973">
<ele>261.4</ele>
<time>2023-05-16T11:34:28Z</time>
</trkpt>
<trkpt lat="49.016002994030714" lon="9.47126291692257">
<ele>261.6</ele>
<time>2023-05-16T11:34:29Z</time>
</trkpt>
<trkpt lat="49.016029983758926" lon="9.47122192941606">
<ele>261.6</ele>
<time>2023-05-16T11:34:30Z</time>
</trkpt>
<trkpt lat="49.016052950173616" lon="9.471181947737932">
<ele>261.79999999999995</ele>
<time>2023-05-16T11:34:31Z</time>
</trkpt>
<trkpt lat="49.01607993990183" lon="9.471141966059804">
<ele>262</ele>
<time>2023-05-16T11:34:32Z</time>
</trkpt>
<trkpt lat="49.01610299013555" lon="9.471102990210056">
<ele>262.20000000000005</ele>
<time>2023-05-16T11:34:33Z</time>
</trkpt>
<trkpt lat="49.01612696237862" lon="9.471062924712896">
<ele>262.20000000000005</ele>
<time>2023-05-16T11:34:34Z</time>
</trkpt>
<trkpt lat="49.01614992879331" lon="9.47102495469153">
<ele>262.4</ele>
<time>2023-05-16T11:34:35Z</time>
</trkpt>
<trkpt lat="49.016174990683794" lon="9.47098296135664">
<ele>262.4</ele>
<time>2023-05-16T11:34:36Z</time>
</trkpt>
<trkpt lat="49.016199968755245" lon="9.470944991335273">
<ele>262.6</ele>
<time>2023-05-16T11:34:37Z</time>
</trkpt>
<trkpt lat="49.016224946826696" lon="9.470904925838113">
<ele>262.6</ele>
<time>2023-05-16T11:34:38Z</time>
</trkpt>
<trkpt lat="49.01625193655491" lon="9.470864944159985">
<ele>262.79999999999995</ele>
<time>2023-05-16T11:34:39Z</time>
</trkpt>
<trkpt lat="49.01627699844539" lon="9.470819933339953">
<ele>262.79999999999995</ele>
<time>2023-05-16T11:34:40Z</time>
</trkpt>
<trkpt lat="49.01630197651684" lon="9.470771988853812">
<ele>262.79999999999995</ele>
<time>2023-05-16T11:34:41Z</time>
</trkpt>
<trkpt lat="49.016329972073436" lon="9.470721948891878">
<ele>262.79999999999995</ele>
<time>2023-05-16T11:34:42Z</time>
</trkpt>
<trkpt lat="49.01635997928679" lon="9.470669981092215">
<ele>262.79999999999995</ele>
<time>2023-05-16T11:34:43Z</time>
</trkpt>
<trkpt lat="49.016392920166254" lon="9.47061792947352">
<ele>262.79999999999995</ele>
<time>2023-05-16T11:34:44Z</time>
</trkpt>
<trkpt lat="49.01642795652151" lon="9.470561938360333">
<ele>262.79999999999995</ele>
<time>2023-05-16T11:34:45Z</time>
</trkpt>
<trkpt lat="49.016459975391626" lon="9.470502929762006">
<ele>262.6</ele>
<time>2023-05-16T11:34:46Z</time>
</trkpt>
<trkpt lat="49.01649291627109" lon="9.470444926992059">
<ele>262.6</ele>
<time>2023-05-16T11:34:47Z</time>
</trkpt>
<trkpt lat="49.01652795262635" lon="9.470384996384382">
<ele>262.4</ele>
<time>2023-05-16T11:34:48Z</time>
</trkpt>
<trkpt lat="49.016562988981605" lon="9.470319952815771">
<ele>262.4</ele>
<time>2023-05-16T11:34:49Z</time>
</trkpt>
<trkpt lat="49.01660196483135" lon="9.470256920903921">
<ele>262.20000000000005</ele>
<time>2023-05-16T11:34:50Z</time>
</trkpt>
<trkpt lat="49.01664194650948" lon="9.47018994949758">
<ele>262.20000000000005</ele>
<time>2023-05-16T11:34:51Z</time>
</trkpt>
<trkpt lat="49.01668192818761" lon="9.47012197226286">
<ele>262</ele>
<time>2023-05-16T11:34:52Z</time>
</trkpt>
<trkpt lat="49.01672492735088" lon="9.470054917037487">
<ele>262</ele>
<time>2023-05-16T11:34:53Z</time>
</trkpt>
<trkpt lat="49.01676499284804" lon="9.469986939802766">
<ele>261.79999999999995</ele>
<time>2023-05-16T11:34:54Z</time>
</trkpt>
<trkpt lat="49.016802962869406" lon="9.469921980053186">
<ele>261.6</ele>
<time>2023-05-16T11:34:55Z</time>
</trkpt>
<trkpt lat="49.01683992706239" lon="9.469861965626478">
<ele>261.4</ele>
<time>2023-05-16T11:34:56Z</time>
</trkpt>
<trkpt lat="49.01687295176089" lon="9.46980295702815">
<ele>261.4</ele>
<time>2023-05-16T11:34:57Z</time>
</trkpt>
<trkpt lat="49.016907988116145" lon="9.469744954258204">
<ele>261.20000000000005</ele>
<time>2023-05-16T11:34:58Z</time>
</trkpt>
<trkpt lat="49.0169379953295" lon="9.469687957316637">
<ele>261.20000000000005</ele>
<time>2023-05-16T11:34:59Z</time>
</trkpt>
<trkpt lat="49.01696993038058" lon="9.469631966203451">
<ele>261.20000000000005</ele>
<time>2023-05-16T11:35:00Z</time>
</trkpt>
<trkpt lat="49.01699993759394" lon="9.469574969261885">
<ele>261</ele>
<time>2023-05-16T11:35:01Z</time>
</trkpt>
<trkpt lat="49.01703195646405" lon="9.469516966491938">
<ele>261</ele>
<time>2023-05-16T11:35:02Z</time>
</trkpt>
<trkpt lat="49.017061963677406" lon="9.46945795789361">
<ele>261</ele>
<time>2023-05-16T11:35:03Z</time>
</trkpt>
<trkpt lat="49.017089959234" lon="9.469399955123663">
<ele>261</ele>
<time>2023-05-16T11:35:04Z</time>
</trkpt>
<trkpt lat="49.01711795479059" lon="9.469344969838858">
<ele>261</ele>
<time>2023-05-16T11:35:05Z</time>
</trkpt>
<trkpt lat="49.017146956175566" lon="9.46928696706891">
<ele>261</ele>
<time>2023-05-16T11:35:06Z</time>
</trkpt>
<trkpt lat="49.0171729400754" lon="9.469226952642202">
<ele>261</ele>
<time>2023-05-16T11:35:07Z</time>
</trkpt>
<trkpt lat="49.01719992980361" lon="9.469164926558733">
<ele>261</ele>
<time>2023-05-16T11:35:08Z</time>
</trkpt>
<trkpt lat="49.01722499169409" lon="9.469102984294295">
<ele>261.20000000000005</ele>
<time>2023-05-16T11:35:09Z</time>
</trkpt>
<trkpt lat="49.017249969765544" lon="9.469044981524348">
<ele>261.20000000000005</ele>
<time>2023-05-16T11:35:10Z</time>
</trkpt>
<trkpt lat="49.017274947836995" lon="9.468989996239543">
<ele>261.20000000000005</ele>
<time>2023-05-16T11:35:11Z</time>
</trkpt>
<trkpt lat="49.017299925908446" lon="9.468934927135706">
<ele>261.20000000000005</ele>
<time>2023-05-16T11:35:12Z</time>
</trkpt>
<trkpt lat="49.01732498779893" lon="9.468882959336042">
<ele>261.20000000000005</ele>
<time>2023-05-16T11:35:13Z</time>
</trkpt>
<trkpt lat="49.01734996587038" lon="9.46883493103087">
<ele>261.20000000000005</ele>
<time>2023-05-16T11:35:14Z</time>
</trkpt>
<trkpt lat="49.01737796142697" lon="9.468789920210838">
<ele>261.4</ele>
<time>2023-05-16T11:35:15Z</time>
</trkpt>
<trkpt lat="49.017404951155186" lon="9.468747926875949">
<ele>261.4</ele>
<time>2023-05-16T11:35:16Z</time>
</trkpt>
<trkpt lat="49.0174319408834" lon="9.46870794519782">
<ele>261.6</ele>
<time>2023-05-16T11:35:17Z</time>
</trkpt>
<trkpt lat="49.01746194809675" lon="9.468654971569777">
<ele>261.6</ele>
<time>2023-05-16T11:35:18Z</time>
</trkpt>
<trkpt lat="49.017487931996584" lon="9.468602919951081">
<ele>261.79999999999995</ele>
<time>2023-05-16T11:35:19Z</time>
</trkpt>
<trkpt lat="49.017509976401925" lon="9.468544917181134">
<ele>261.79999999999995</ele>
<time>2023-05-16T11:35:20Z</time>
</trkpt>
<trkpt lat="49.0175249800086" lon="9.468484986573458">
<ele>261.79999999999995</ele>
<time>2023-05-16T11:35:21Z</time>
</trkpt>
<trkpt lat="49.017534954473376" lon="9.468422960489988">
<ele>261.79999999999995</ele>
<time>2023-05-16T11:35:22Z</time>
</trkpt>
<trkpt lat="49.01754492893815" lon="9.468359928578138">
<ele>262</ele>
<time>2023-05-16T11:35:23Z</time>
</trkpt>
<trkpt lat="49.017554987221956" lon="9.468294968828559">
<ele>262</ele>
<time>2023-05-16T11:35:24Z</time>
</trkpt>
<trkpt lat="49.01756496168673" lon="9.468227997422218">
<ele>262</ele>
<time>2023-05-16T11:35:25Z</time>
</trkpt>
<trkpt lat="49.017577953636646" lon="9.468159936368465">
<ele>262.20000000000005</ele>
<time>2023-05-16T11:35:26Z</time>
</trkpt>
<trkpt lat="49.01758993975818" lon="9.468092964962125">
<ele>262.20000000000005</ele>
<time>2023-05-16T11:35:27Z</time>
</trkpt>
<trkpt lat="49.01760192587972" lon="9.468021970242262">
<ele>262.20000000000005</ele>
<time>2023-05-16T11:35:28Z</time>
</trkpt>
<trkpt lat="49.01761491782963" lon="9.467949969694018">
<ele>262.20000000000005</ele>
<time>2023-05-16T11:35:29Z</time>
</trkpt>
<trkpt lat="49.01762497611344" lon="9.467874951660633">
<ele>262.20000000000005</ele>
<time>2023-05-16T11:35:30Z</time>
</trkpt>
<trkpt lat="49.01762992143631" lon="9.467789959162474">
<ele>262.20000000000005</ele>
<time>2023-05-16T11:35:31Z</time>
</trkpt>
<trkpt lat="49.01764299720526" lon="9.46771795861423">
<ele>262.20000000000005</ele>
<time>2023-05-16T11:35:32Z</time>
</trkpt>
<trkpt lat="49.01765498332679" lon="9.467646963894367">
<ele>262.20000000000005</ele>
<time>2023-05-16T11:35:33Z</time>
</trkpt>
<trkpt lat="49.01766696944833" lon="9.467574963346124">
<ele>262.20000000000005</ele>
<time>2023-05-16T11:35:34Z</time>
</trkpt>
<trkpt lat="49.017679961398244" lon="9.467507991939783">
<ele>262.20000000000005</ele>
<time>2023-05-16T11:35:35Z</time>
</trkpt>
<trkpt lat="49.01768993586302" lon="9.467444960027933">
<ele>262.20000000000005</ele>
<time>2023-05-16T11:35:36Z</time>
</trkpt>
<trkpt lat="49.017699994146824" lon="9.467382933944464">
<ele>262.20000000000005</ele>
<time>2023-05-16T11:35:37Z</time>
</trkpt>
<trkpt lat="49.017706951126456" lon="9.467321997508407">
<ele>262.20000000000005</ele>
<time>2023-05-16T11:35:38Z</time>
</trkpt>
<trkpt lat="49.01771198026836" lon="9.467257959768176">
<ele>262.4</ele>
<time>2023-05-16T11:35:39Z</time>
</trkpt>
<trkpt lat="49.01771692559123" lon="9.467194927856326">
<ele>262.4</ele>
<time>2023-05-16T11:35:40Z</time>
</trkpt>
<trkpt lat="49.017724972218275" lon="9.467132985591888">
<ele>262.4</ele>
<time>2023-05-16T11:35:41Z</time>
</trkpt>
<trkpt lat="49.01773293502629" lon="9.467067942023277">
<ele>262.4</ele>
<time>2023-05-16T11:35:42Z</time>
</trkpt>
<trkpt lat="49.017742993310094" lon="9.466997953131795">
<ele>262.6</ele>
<time>2023-05-16T11:35:43Z</time>
</trkpt>
<trkpt lat="49.01775296777487" lon="9.466926958411932">
<ele>262.6</ele>
<time>2023-05-16T11:35:44Z</time>
</trkpt>
<trkpt lat="49.0177649538964" lon="9.466852946206927">
<ele>262.6</ele>
<time>2023-05-16T11:35:45Z</time>
</trkpt>
<trkpt lat="49.017772916704416" lon="9.46677298285067">
<ele>262.6</ele>
<time>2023-05-16T11:35:46Z</time>
</trkpt>
<trkpt lat="49.01778297498822" lon="9.466692935675383">
<ele>262.6</ele>
<time>2023-05-16T11:35:47Z</time>
</trkpt>
<trkpt lat="49.017791943624616" lon="9.466612972319126">
<ele>262.6</ele>
<time>2023-05-16T11:35:48Z</time>
</trkpt>
<trkpt lat="49.01780191808939" lon="9.46653694845736">
<ele>262.6</ele>
<time>2023-05-16T11:35:49Z</time>
</trkpt>
<trkpt lat="49.017811976373196" lon="9.466459918767214">
<ele>262.6</ele>
<time>2023-05-16T11:35:50Z</time>
</trkpt>
<trkpt lat="49.01781692169607" lon="9.466371992602944">
<ele>262.6</ele>
<time>2023-05-16T11:35:51Z</time>
</trkpt>
<trkpt lat="49.01782697997987" lon="9.466292951256037">
<ele>262.6</ele>
<time>2023-05-16T11:35:52Z</time>
</trkpt>
<trkpt lat="49.01783695444465" lon="9.466214999556541">
<ele>262.6</ele>
<time>2023-05-16T11:35:53Z</time>
</trkpt>
<trkpt lat="49.01784994639456" lon="9.466134952381253">
<ele>262.6</ele>
<time>2023-05-16T11:35:54Z</time>
</trkpt>
<trkpt lat="49.0178619325161" lon="9.466054989024997">
<ele>262.6</ele>
<time>2023-05-16T11:35:55Z</time>
</trkpt>
<trkpt lat="49.017872996628284" lon="9.465974941849709">
<ele>262.6</ele>
<time>2023-05-16T11:35:56Z</time>
</trkpt>
<trkpt lat="49.01788498274982" lon="9.465896990150213">
<ele>262.4</ele>
<time>2023-05-16T11:35:57Z</time>
</trkpt>
<trkpt lat="49.017896968871355" lon="9.465816942974925">
<ele>262.4</ele>
<time>2023-05-16T11:35:58Z</time>
</trkpt>
<trkpt lat="49.01791197247803" lon="9.46573798544705">
<ele>262.4</ele>
<time>2023-05-16T11:35:59Z</time>
</trkpt>
<trkpt lat="49.01792496442795" lon="9.465661961585283">
<ele>262.4</ele>
<time>2023-05-16T11:36:00Z</time>
</trkpt>
<trkpt lat="49.017939968034625" lon="9.465582920238376">
<ele>262.4</ele>
<time>2023-05-16T11:36:01Z</time>
</trkpt>
<trkpt lat="49.01795295998454" lon="9.465506980195642">
<ele>262.4</ele>
<time>2023-05-16T11:36:02Z</time>
</trkpt>
<trkpt lat="49.01796997524798" lon="9.465431962162256">
<ele>262.4</ele>
<time>2023-05-16T11:36:03Z</time>
</trkpt>
<trkpt lat="49.01798992417753" lon="9.465352920815349">
<ele>262.4</ele>
<time>2023-05-16T11:36:04Z</time>
</trkpt>
<trkpt lat="49.018007945269346" lon="9.465279998257756">
<ele>262.4</ele>
<time>2023-05-16T11:36:05Z</time>
</trkpt>
<trkpt lat="49.018026972189546" lon="9.465204980224371">
<ele>262.4</ele>
<time>2023-05-16T11:36:06Z</time>
</trkpt>
<trkpt lat="49.0180429816246" lon="9.465132979676127">
<ele>262.4</ele>
<time>2023-05-16T11:36:07Z</time>
</trkpt>
<trkpt lat="49.01806192472577" lon="9.465064918622375">
<ele>262.4</ele>
<time>2023-05-16T11:36:08Z</time>
</trkpt>
<trkpt lat="49.01807994581759" lon="9.464999958872795">
<ele>262.4</ele>
<time>2023-05-16T11:36:09Z</time>
</trkpt>
<trkpt lat="49.01809796690941" lon="9.464937932789326">
<ele>262.6</ele>
<time>2023-05-16T11:36:10Z</time>
</trkpt>
<trkpt lat="49.01811799965799" lon="9.464876996353269">
<ele>262.6</ele>
<time>2023-05-16T11:36:11Z</time>
</trkpt>
<trkpt lat="49.018136942759156" lon="9.46481698192656">
<ele>262.6</ele>
<time>2023-05-16T11:36:12Z</time>
</trkpt>
<trkpt lat="49.018156975507736" lon="9.46475294418633">
<ele>262.6</ele>
<time>2023-05-16T11:36:13Z</time>
</trkpt>
<trkpt lat="49.018174996599555" lon="9.464691923931241">
<ele>262.6</ele>
<time>2023-05-16T11:36:14Z</time>
</trkpt>
<trkpt lat="49.01819293387234" lon="9.464627970010042">
<ele>262.6</ele>
<time>2023-05-16T11:36:15Z</time>
</trkpt>
<trkpt lat="49.01821497827768" lon="9.464562926441431">
<ele>262.79999999999995</ele>
<time>2023-05-16T11:36:16Z</time>
</trkpt>
<trkpt lat="49.01823693886399" lon="9.464496960863471">
<ele>262.79999999999995</ele>
<time>2023-05-16T11:36:17Z</time>
</trkpt>
<trkpt lat="49.018261916935444" lon="9.464422948658466">
<ele>262.79999999999995</ele>
<time>2023-05-16T11:36:18Z</time>
</trkpt>
<trkpt lat="49.01828697882593" lon="9.464354971423745">
<ele>262.79999999999995</ele>
<time>2023-05-16T11:36:19Z</time>
</trkpt>
<trkpt lat="49.01831296272576" lon="9.464291939511895">
<ele>262.79999999999995</ele>
<time>2023-05-16T11:36:20Z</time>
</trkpt>
<trkpt lat="49.01834296993911" lon="9.464224968105555">
<ele>262.79999999999995</ele>
<time>2023-05-16T11:36:21Z</time>
</trkpt>
<trkpt lat="49.01837297715247" lon="9.464159924536943">
<ele>262.79999999999995</ele>
<time>2023-05-16T11:36:22Z</time>
</trkpt>
<trkpt lat="49.01840197853744" lon="9.464094964787364">
<ele>262.79999999999995</ele>
<time>2023-05-16T11:36:23Z</time>
</trkpt>
<trkpt lat="49.01842796243727" lon="9.464029921218753">
<ele>262.79999999999995</ele>
<time>2023-05-16T11:36:24Z</time>
</trkpt>
<trkpt lat="49.01846199296415" lon="9.463966973125935">
<ele>262.79999999999995</ele>
<time>2023-05-16T11:36:25Z</time>
</trkpt>
<trkpt lat="49.01849191635847" lon="9.463904947042465">
<ele>262.79999999999995</ele>
<time>2023-05-16T11:36:26Z</time>
</trkpt>
<trkpt lat="49.018522929400206" lon="9.463839987292886">
<ele>262.79999999999995</ele>
<time>2023-05-16T11:36:27Z</time>
</trkpt>
<trkpt lat="49.01855494827032" lon="9.463776955381036">
<ele>262.79999999999995</ele>
<time>2023-05-16T11:36:28Z</time>
</trkpt>
<trkpt lat="49.018586967140436" lon="9.463712917640805">
<ele>262.79999999999995</ele>
<time>2023-05-16T11:36:29Z</time>
</trkpt>
<trkpt lat="49.01861798018217" lon="9.463651981204748">
<ele>262.79999999999995</ele>
<time>2023-05-16T11:36:30Z</time>
</trkpt>
<trkpt lat="49.018651926890016" lon="9.463587943464518">
<ele>262.79999999999995</ele>
<time>2023-05-16T11:36:31Z</time>
</trkpt>
<trkpt lat="49.01868293993175" lon="9.463526923209429">
<ele>262.79999999999995</ele>
<time>2023-05-16T11:36:32Z</time>
</trkpt>
<trkpt lat="49.01871697045863" lon="9.46346196345985">
<ele>262.79999999999995</ele>
<time>2023-05-16T11:36:33Z</time>
</trkpt>
<trkpt lat="49.01874798350036" lon="9.463397925719619">
<ele>262.79999999999995</ele>
<time>2023-05-16T11:36:34Z</time>
</trkpt>
<trkpt lat="49.018779918551445" lon="9.463337995111942">
<ele>262.79999999999995</ele>
<time>2023-05-16T11:36:35Z</time>
</trkpt>
<trkpt lat="49.01881193742156" lon="9.463276974856853">
<ele>262.79999999999995</ele>
<time>2023-05-16T11:36:36Z</time>
</trkpt>
<trkpt lat="49.01883699931204" lon="9.463201956823468">
<ele>262.79999999999995</ele>
<time>2023-05-16T11:36:37Z</time>
</trkpt>
<trkpt lat="49.018866922706366" lon="9.463137919083238">
<ele>262.79999999999995</ele>
<time>2023-05-16T11:36:38Z</time>
</trkpt>
<trkpt lat="49.01889692991972" lon="9.46307698264718">
<ele>262.79999999999995</ele>
<time>2023-05-16T11:36:39Z</time>
</trkpt>
<trkpt lat="49.01892492547631" lon="9.463014956563711">
<ele>262.79999999999995</ele>
<time>2023-05-16T11:36:40Z</time>
</trkpt>
<trkpt lat="49.01895199902356" lon="9.462954942137003">
<ele>262.79999999999995</ele>
<time>2023-05-16T11:36:41Z</time>
</trkpt>
<trkpt lat="49.01897798292339" lon="9.462894927710295">
<ele>262.79999999999995</ele>
<time>2023-05-16T11:36:42Z</time>
</trkpt>
<trkpt lat="49.01900698430836" lon="9.462836924940348">
<ele>262.79999999999995</ele>
<time>2023-05-16T11:36:43Z</time>
</trkpt>
<trkpt lat="49.019032968208194" lon="9.46277498267591">
<ele>262.79999999999995</ele>
<time>2023-05-16T11:36:44Z</time>
</trkpt>
<trkpt lat="49.01906196959317" lon="9.46271295659244">
<ele>262.79999999999995</ele>
<time>2023-05-16T11:36:45Z</time>
</trkpt>
<trkpt lat="49.01908996514976" lon="9.462654953822494">
<ele>263</ele>
<time>2023-05-16T11:36:46Z</time>
</trkpt>
<trkpt lat="49.01911695487797" lon="9.462592927739024">
<ele>263</ele>
<time>2023-05-16T11:36:47Z</time>
</trkpt>
<trkpt lat="49.019141932949424" lon="9.462531991302967">
<ele>263</ele>
<time>2023-05-16T11:36:48Z</time>
</trkpt>
<trkpt lat="49.01916699483991" lon="9.462467953562737">
<ele>263.20000000000005</ele>
<time>2023-05-16T11:36:49Z</time>
</trkpt>
<trkpt lat="49.0191899612546" lon="9.462406933307648">
<ele>263.20000000000005</ele>
<time>2023-05-16T11:36:50Z</time>
</trkpt>
<trkpt lat="49.01921292766929" lon="9.462342979386449">
<ele>263.4</ele>
<time>2023-05-16T11:36:51Z</time>
</trkpt>
<trkpt lat="49.01923698373139" lon="9.46228195913136">
<ele>263.4</ele>
<time>2023-05-16T11:36:52Z</time>
</trkpt>
<trkpt lat="49.01925995014608" lon="9.46221993304789">
<ele>263.4</ele>
<time>2023-05-16T11:36:53Z</time>
</trkpt>
<trkpt lat="49.01928199455142" lon="9.462156984955072">
<ele>263.6</ele>
<time>2023-05-16T11:36:54Z</time>
</trkpt>
<trkpt lat="49.01930294930935" lon="9.462092947214842">
<ele>263.6</ele>
<time>2023-05-16T11:36:55Z</time>
</trkpt>
<trkpt lat="49.01932499371469" lon="9.462029999122024">
<ele>263.6</ele>
<time>2023-05-16T11:36:56Z</time>
</trkpt>
<trkpt lat="49.01934997178614" lon="9.461966967210174">
<ele>263.79999999999995</ele>
<time>2023-05-16T11:36:57Z</time>
</trkpt>
<trkpt lat="49.01937193237245" lon="9.461904941126704">
<ele>263.79999999999995</ele>
<time>2023-05-16T11:36:58Z</time>
</trkpt>
<trkpt lat="49.01939297094941" lon="9.461844926699996">
<ele>263.79999999999995</ele>
<time>2023-05-16T11:36:59Z</time>
</trkpt>
<trkpt lat="49.01941493153572" lon="9.461782984435558">
<ele>264</ele>
<time>2023-05-16T11:37:00Z</time>
</trkpt>
<trkpt lat="49.01943697594106" lon="9.461724981665611">
<ele>264</ele>
<time>2023-05-16T11:37:01Z</time>
</trkpt>
<trkpt lat="49.01945793069899" lon="9.461666978895664">
<ele>264</ele>
<time>2023-05-16T11:37:02Z</time>
</trkpt>
<trkpt lat="49.01947997510433" lon="9.461607970297337">
<ele>264.20000000000005</ele>
<time>2023-05-16T11:37:03Z</time>
</trkpt>
<trkpt lat="49.01950193569064" lon="9.461546950042248">
<ele>264.20000000000005</ele>
<time>2023-05-16T11:37:04Z</time>
</trkpt>
<trkpt lat="49.01951995678246" lon="9.461482996121049">
<ele>264.20000000000005</ele>
<time>2023-05-16T11:37:05Z</time>
</trkpt>
<trkpt lat="49.0195369720459" lon="9.461426921188831">
<ele>264.4</ele>
<time>2023-05-16T11:37:06Z</time>
</trkpt>
<trkpt lat="49.01955499313772" lon="9.461364978924394">
<ele>264.4</ele>
<time>2023-05-16T11:37:07Z</time>
</trkpt>
<trkpt lat="49.019574942067266" lon="9.461306976154447">
<ele>264.4</ele>
<time>2023-05-16T11:37:08Z</time>
</trkpt>
<trkpt lat="49.01959698647261" lon="9.461244950070977">
<ele>264.4</ele>
<time>2023-05-16T11:37:09Z</time>
</trkpt>
<trkpt lat="49.019617941230536" lon="9.461182923987508">
<ele>264.6</ele>
<time>2023-05-16T11:37:10Z</time>
</trkpt>
<trkpt lat="49.019637973979115" lon="9.461122993379831">
<ele>264.6</ele>
<time>2023-05-16T11:37:11Z</time>
</trkpt>
<trkpt lat="49.019659934565425" lon="9.461059961467981">
<ele>264.79999999999995</ele>
<time>2023-05-16T11:37:12Z</time>
</trkpt>
<trkpt lat="49.019681978970766" lon="9.460997935384512">
<ele>264.79999999999995</ele>
<time>2023-05-16T11:37:13Z</time>
</trkpt>
<trkpt lat="49.019702933728695" lon="9.460937920957804">
<ele>264.79999999999995</ele>
<time>2023-05-16T11:37:14Z</time>
</trkpt>
<trkpt lat="49.019724978134036" lon="9.460876984521747">
<ele>265</ele>
<time>2023-05-16T11:37:15Z</time>
</trkpt>
<trkpt lat="49.019742999225855" lon="9.460816970095038">
<ele>265</ele>
<time>2023-05-16T11:37:16Z</time>
</trkpt>
<trkpt lat="49.019766971468925" lon="9.46075796149671">
<ele>265</ele>
<time>2023-05-16T11:37:17Z</time>
</trkpt>
<trkpt lat="49.019786920398474" lon="9.460699958726764">
<ele>265</ele>
<time>2023-05-16T11:37:18Z</time>
</trkpt>
<trkpt lat="49.019806953147054" lon="9.460641955956817">
<ele>265.20000000000005</ele>
<time>2023-05-16T11:37:19Z</time>
</trkpt>
<trkpt lat="49.019827991724014" lon="9.460582947358489">
<ele>265.20000000000005</ele>
<time>2023-05-16T11:37:20Z</time>
</trkpt>
<trkpt lat="49.019851963967085" lon="9.460526956245303">
<ele>265.4</ele>
<time>2023-05-16T11:37:21Z</time>
</trkpt>
<trkpt lat="49.019872918725014" lon="9.460472976788878">
<ele>265.4</ele>
<time>2023-05-16T11:37:22Z</time>
</trkpt>
<trkpt lat="49.0198979806155" lon="9.46041195653379">
<ele>265.6</ele>
<time>2023-05-16T11:37:23Z</time>
</trkpt>
<trkpt lat="49.019917929545045" lon="9.460352947935462">
<ele>265.6</ele>
<time>2023-05-16T11:37:24Z</time>
</trkpt>
<trkpt lat="49.019939973950386" lon="9.460296956822276">
<ele>265.79999999999995</ele>
<time>2023-05-16T11:37:25Z</time>
</trkpt>
<trkpt lat="49.019959922879934" lon="9.46024197153747">
<ele>265.79999999999995</ele>
<time>2023-05-16T11:37:26Z</time>
</trkpt>
<trkpt lat="49.01997794397175" lon="9.460187992081046">
<ele>265.79999999999995</ele>
<time>2023-05-16T11:37:27Z</time>
</trkpt>
<trkpt lat="49.019999988377094" lon="9.46013493463397">
<ele>266</ele>
<time>2023-05-16T11:37:28Z</time>
</trkpt>
<trkpt lat="49.020022954791784" lon="9.460082966834307">
<ele>266</ele>
<time>2023-05-16T11:37:29Z</time>
</trkpt>
<trkpt lat="49.020046927034855" lon="9.460031921043992">
<ele>266</ele>
<time>2023-05-16T11:37:30Z</time>
</trkpt>
<trkpt lat="49.020066959783435" lon="9.459979953244328">
<ele>266.20000000000005</ele>
<time>2023-05-16T11:37:31Z</time>
</trkpt>
<trkpt lat="49.020089926198125" lon="9.459927985444665">
<ele>266.20000000000005</ele>
<time>2023-05-16T11:37:32Z</time>
</trkpt>
<trkpt lat="49.02011498808861" lon="9.45987693965435">
<ele>266.20000000000005</ele>
<time>2023-05-16T11:37:33Z</time>
</trkpt>
<trkpt lat="49.0201379545033" lon="9.459826983511448">
<ele>266.4</ele>
<time>2023-05-16T11:37:34Z</time>
</trkpt>
<trkpt lat="49.02015798725188" lon="9.459777949377894">
<ele>266.4</ele>
<time>2023-05-16T11:37:35Z</time>
</trkpt>
<trkpt lat="49.02017994783819" lon="9.459727993234992">
<ele>266.4</ele>
<time>2023-05-16T11:37:36Z</time>
</trkpt>
<trkpt lat="49.02020299807191" lon="9.459679964929819">
<ele>266.6</ele>
<time>2023-05-16T11:37:37Z</time>
</trkpt>
<trkpt lat="49.02022697031498" lon="9.459631936624646">
<ele>266.6</ele>
<time>2023-05-16T11:37:38Z</time>
</trkpt>
<trkpt lat="49.02025295421481" lon="9.459584997966886">
<ele>266.79999999999995</ele>
<time>2023-05-16T11:37:39Z</time>
</trkpt>
<trkpt lat="49.02027692645788" lon="9.459534958004951">
<ele>266.79999999999995</ele>
<time>2023-05-16T11:37:40Z</time>
</trkpt>
<trkpt lat="49.020301988348365" lon="9.459486929699779">
<ele>267</ele>
<time>2023-05-16T11:37:41Z</time>
</trkpt>
<trkpt lat="49.020322943106294" lon="9.459436973556876">
<ele>267</ele>
<time>2023-05-16T11:37:42Z</time>
</trkpt>
<trkpt lat="49.020344987511635" lon="9.459387939423323">
<ele>267</ele>
<time>2023-05-16T11:37:43Z</time>
</trkpt>
<trkpt lat="49.020366948097944" lon="9.459344940260053">
<ele>267.20000000000005</ele>
<time>2023-05-16T11:37:44Z</time>
</trkpt>
<trkpt lat="49.020391926169395" lon="9.459296995773911">
<ele>267.20000000000005</ele>
<time>2023-05-16T11:37:45Z</time>
</trkpt>
<trkpt lat="49.020412964746356" lon="9.459244944155216">
<ele>267.4</ele>
<time>2023-05-16T11:37:46Z</time>
</trkpt>
<trkpt lat="49.02044196613133" lon="9.459196999669075">
<ele>267.4</ele>
<time>2023-05-16T11:37:47Z</time>
</trkpt>
<trkpt lat="49.020471973344684" lon="9.459149977192283">
<ele>267.6</ele>
<time>2023-05-16T11:37:48Z</time>
</trkpt>
<trkpt lat="49.020496951416135" lon="9.459096919745207">
<ele>267.6</ele>
<time>2023-05-16T11:37:49Z</time>
</trkpt>
<trkpt lat="49.02052796445787" lon="9.459047969430685">
<ele>267.79999999999995</ele>
<time>2023-05-16T11:37:50Z</time>
</trkpt>
<trkpt lat="49.020557971671224" lon="9.458999941125512">
<ele>267.79999999999995</ele>
<time>2023-05-16T11:37:51Z</time>
</trkpt>
<trkpt lat="49.0205869730562" lon="9.458954930305481">
<ele>267.79999999999995</ele>
<time>2023-05-16T11:37:52Z</time>
</trkpt>
<trkpt lat="49.02061798609793" lon="9.45890799164772">
<ele>268</ele>
<time>2023-05-16T11:37:53Z</time>
</trkpt>
<trkpt lat="49.020649921149015" lon="9.45886298082769">
<ele>268</ele>
<time>2023-05-16T11:37:54Z</time>
</trkpt>
<trkpt lat="49.02068194001913" lon="9.45881998166442">
<ele>268</ele>
<time>2023-05-16T11:37:55Z</time>
</trkpt>
<trkpt lat="49.020712953060865" lon="9.45877798832953">
<ele>268</ele>
<time>2023-05-16T11:37:56Z</time>
</trkpt>
<trkpt lat="49.02074296027422" lon="9.458732977509499">
<ele>268</ele>
<time>2023-05-16T11:37:57Z</time>
</trkpt>
<trkpt lat="49.020772967487574" lon="9.458687966689467">
<ele>268.20000000000005</ele>
<time>2023-05-16T11:37:58Z</time>
</trkpt>
<trkpt lat="49.02080498635769" lon="9.458641950041056">
<ele>268.20000000000005</ele>
<time>2023-05-16T11:37:59Z</time>
</trkpt>
<trkpt lat="49.02083692140877" lon="9.458596939221025">
<ele>268.20000000000005</ele>
<time>2023-05-16T11:38:00Z</time>
</trkpt>
<trkpt lat="49.02086793445051" lon="9.458552934229374">
<ele>268.20000000000005</ele>
<time>2023-05-16T11:38:01Z</time>
</trkpt>
<trkpt lat="49.020901964977384" lon="9.458511946722865">
<ele>268.4</ele>
<time>2023-05-16T11:38:02Z</time>
</trkpt>
<trkpt lat="49.02093297801912" lon="9.458469953387976">
<ele>268.4</ele>
<time>2023-05-16T11:38:03Z</time>
</trkpt>
<trkpt lat="49.02096692472696" lon="9.458427960053086">
<ele>268.4</ele>
<time>2023-05-16T11:38:04Z</time>
</trkpt>
<trkpt lat="49.02099693194032" lon="9.458379931747913">
<ele>268.4</ele>
<time>2023-05-16T11:38:05Z</time>
</trkpt>
<trkpt lat="49.02102995663881" lon="9.458341961726546">
<ele>268.4</ele>
<time>2023-05-16T11:38:06Z</time>
</trkpt>
<trkpt lat="49.02106298133731" lon="9.458302985876799">
<ele>268.4</ele>
<time>2023-05-16T11:38:07Z</time>
</trkpt>
<trkpt lat="49.02109491638839" lon="9.458267949521542">
<ele>268.6</ele>
<time>2023-05-16T11:38:08Z</time>
</trkpt>
<trkpt lat="49.02112693525851" lon="9.458229979500175">
<ele>268.6</ele>
<time>2023-05-16T11:38:09Z</time>
</trkpt>
<trkpt lat="49.0211549308151" lon="9.458196954801679">
<ele>268.6</ele>
<time>2023-05-16T11:38:10Z</time>
</trkpt>
<trkpt lat="49.021182926371694" lon="9.458164935931563">
<ele>268.6</ele>
<time>2023-05-16T11:38:11Z</time>
</trkpt>
<trkpt lat="49.02121192775667" lon="9.45813694037497">
<ele>268.79999999999995</ele>
<time>2023-05-16T11:38:12Z</time>
</trkpt>
<trkpt lat="49.02123698964715" lon="9.458109950646758">
<ele>268.79999999999995</ele>
<time>2023-05-16T11:38:13Z</time>
</trkpt>
<trkpt lat="49.02125995606184" lon="9.458079943433404">
<ele>268.79999999999995</ele>
<time>2023-05-16T11:38:14Z</time>
</trkpt>
<trkpt lat="49.02128191664815" lon="9.45804993622005">
<ele>268.79999999999995</ele>
<time>2023-05-16T11:38:15Z</time>
</trkpt>
<trkpt lat="49.02130194939673" lon="9.458021940663457">
<ele>268.79999999999995</ele>
<time>2023-05-16T11:38:16Z</time>
</trkpt>
<trkpt lat="49.02132298797369" lon="9.457994950935245">
<ele>268.79999999999995</ele>
<time>2023-05-16T11:38:17Z</time>
</trkpt>
<trkpt lat="49.02134293690324" lon="9.457966955378652">
<ele>269</ele>
<time>2023-05-16T11:38:18Z</time>
</trkpt>
<trkpt lat="49.02136498130858" lon="9.457942983135581">
<ele>269</ele>
<time>2023-05-16T11:38:19Z</time>
</trkpt>
<trkpt lat="49.02138291858137" lon="9.45791993290186">
<ele>269</ele>
<time>2023-05-16T11:38:20Z</time>
</trkpt>
<trkpt lat="49.021401945501566" lon="9.45789797231555">
<ele>269</ele>
<time>2023-05-16T11:38:21Z</time>
</trkpt>
<trkpt lat="49.021421978250146" lon="9.45787693373859">
<ele>269</ele>
<time>2023-05-16T11:38:22Z</time>
</trkpt>
<trkpt lat="49.0214379876852" lon="9.457847932353616">
<ele>269.20000000000005</ele>
<time>2023-05-16T11:38:23Z</time>
</trkpt>
<trkpt lat="49.0214519854635" lon="9.457819936797023">
<ele>269.20000000000005</ele>
<time>2023-05-16T11:38:24Z</time>
</trkpt>
<trkpt lat="49.021461959928274" lon="9.457786995917559">
<ele>269.20000000000005</ele>
<time>2023-05-16T11:38:25Z</time>
</trkpt>
<trkpt lat="49.02147495187819" lon="9.457742990925908">
<ele>269.20000000000005</ele>
<time>2023-05-16T11:38:26Z</time>
</trkpt>
<trkpt lat="49.02147998102009" lon="9.457689933478832">
<ele>269.20000000000005</ele>
<time>2023-05-16T11:38:27Z</time>
</trkpt>
<trkpt lat="49.02147796936333" lon="9.457629919052124">
<ele>269.4</ele>
<time>2023-05-16T11:38:28Z</time>
</trkpt>
<trkpt lat="49.02147193439305" lon="9.457567976787686">
<ele>269.4</ele>
<time>2023-05-16T11:38:29Z</time>
</trkpt>
<trkpt lat="49.02145793661475" lon="9.457507962360978">
<ele>269.4</ele>
<time>2023-05-16T11:38:30Z</time>
</trkpt>
<trkpt lat="49.021439999341965" lon="9.45744794793427">
<ele>269.4</ele>
<time>2023-05-16T11:38:31Z</time>
</trkpt>
<trkpt lat="49.021417954936624" lon="9.457392962649465">
<ele>269.6</ele>
<time>2023-05-16T11:38:32Z</time>
</trkpt>
<trkpt lat="49.02139297686517" lon="9.45733797736466">
<ele>269.6</ele>
<time>2023-05-16T11:38:33Z</time>
</trkpt>
<trkpt lat="49.02136799879372" lon="9.457282992079854">
<ele>269.6</ele>
<time>2023-05-16T11:38:34Z</time>
</trkpt>
<trkpt lat="49.0213399194181" lon="9.457227922976017">
<ele>269.6</ele>
<time>2023-05-16T11:38:35Z</time>
</trkpt>
<trkpt lat="49.021312929689884" lon="9.457174949347973">
<ele>269.6</ele>
<time>2023-05-16T11:38:36Z</time>
</trkpt>
<trkpt lat="49.021289963275194" lon="9.457119964063168">
<ele>269.6</ele>
<time>2023-05-16T11:38:37Z</time>
</trkpt>
<trkpt lat="49.021269930526614" lon="9.457066990435123">
<ele>269.79999999999995</ele>
<time>2023-05-16T11:38:38Z</time>
</trkpt>
<trkpt lat="49.02124495245516" lon="9.457012927159667">
<ele>269.79999999999995</ele>
<time>2023-05-16T11:38:39Z</time>
</trkpt>
<trkpt lat="49.02122198604047" lon="9.456957941874862">
<ele>269.79999999999995</ele>
<time>2023-05-16T11:38:40Z</time>
</trkpt>
<trkpt lat="49.02120195329189" lon="9.45690798573196">
<ele>269.79999999999995</ele>
<time>2023-05-16T11:38:41Z</time>
</trkpt>
<trkpt lat="49.021179992705584" lon="9.456856939941645">
<ele>270</ele>
<time>2023-05-16T11:38:42Z</time>
</trkpt>
<trkpt lat="49.02115694247186" lon="9.45680296048522">
<ele>270</ele>
<time>2023-05-16T11:38:43Z</time>
</trkpt>
<trkpt lat="49.02113297022879" lon="9.456749986857176">
<ele>270.20000000000005</ele>
<time>2023-05-16T11:38:44Z</time>
</trkpt>
<trkpt lat="49.02110991999507" lon="9.4566969294101">
<ele>270.20000000000005</ele>
<time>2023-05-16T11:38:45Z</time>
</trkpt>
<trkpt lat="49.02108494192362" lon="9.456642949953675">
<ele>270.20000000000005</ele>
<time>2023-05-16T11:38:46Z</time>
</trkpt>
<trkpt lat="49.02105996385217" lon="9.456591987982392">
<ele>270.4</ele>
<time>2023-05-16T11:38:47Z</time>
</trkpt>
<trkpt lat="49.021034985780716" lon="9.456542953848839">
<ele>270.4</ele>
<time>2023-05-16T11:38:48Z</time>
</trkpt>
<trkpt lat="49.02100699022412" lon="9.456497943028808">
<ele>270.6</ele>
<time>2023-05-16T11:38:49Z</time>
</trkpt>
<trkpt lat="49.02097798883915" lon="9.456449998542666">
<ele>270.6</ele>
<time>2023-05-16T11:38:50Z</time>
</trkpt>
<trkpt lat="49.020947981625795" lon="9.456404987722635">
<ele>270.79999999999995</ele>
<time>2023-05-16T11:38:51Z</time>
</trkpt>
<trkpt lat="49.02091797441244" lon="9.456361988559365">
<ele>270.79999999999995</ele>
<time>2023-05-16T11:38:52Z</time>
</trkpt>
<trkpt lat="49.02088796719909" lon="9.456321923062205">
<ele>271</ele>
<time>2023-05-16T11:38:53Z</time>
</trkpt>
<trkpt lat="49.02085795998573" lon="9.456284958869219">
<ele>271</ele>
<time>2023-05-16T11:38:54Z</time>
</trkpt>
<trkpt lat="49.020826946944" lon="9.456249922513962">
<ele>271.20000000000005</ele>
<time>2023-05-16T11:38:55Z</time>
</trkpt>
<trkpt lat="49.02079291641712" lon="9.456212958320975">
<ele>271.20000000000005</ele>
<time>2023-05-16T11:38:56Z</time>
</trkpt>
<trkpt lat="49.02076198719442" lon="9.45618194527924">
<ele>271.4</ele>
<time>2023-05-16T11:38:57Z</time>
</trkpt>
<trkpt lat="49.02072795666754" lon="9.456152943894267">
<ele>271.4</ele>
<time>2023-05-16T11:38:58Z</time>
</trkpt>
<trkpt lat="49.020692920312285" lon="9.456127965822816">
<ele>271.6</ele>
<time>2023-05-16T11:38:59Z</time>
</trkpt>
<trkpt lat="49.02065696194768" lon="9.456106927245855">
<ele>271.79999999999995</ele>
<time>2023-05-16T11:39:00Z</time>
</trkpt>
<trkpt lat="49.02062192559242" lon="9.456086978316307">
<ele>271.79999999999995</ele>
<time>2023-05-16T11:39:01Z</time>
</trkpt>
<trkpt lat="49.02058797888458" lon="9.456064933910966">
<ele>272</ele>
<time>2023-05-16T11:39:02Z</time>
</trkpt>
<trkpt lat="49.02055294252932" lon="9.456044984981418">
<ele>272</ele>
<time>2023-05-16T11:39:03Z</time>
</trkpt>
<trkpt lat="49.020517989993095" lon="9.456022940576077">
<ele>272.20000000000005</ele>
<time>2023-05-16T11:39:04Z</time>
</trkpt>
<trkpt lat="49.02048295363784" lon="9.456001985818148">
<ele>272.4</ele>
<time>2023-05-16T11:39:05Z</time>
</trkpt>
<trkpt lat="49.02044699527323" lon="9.455981953069568">
<ele>272.4</ele>
<time>2023-05-16T11:39:06Z</time>
</trkpt>
<trkpt lat="49.02040793560445" lon="9.455959992483258">
<ele>272.6</ele>
<time>2023-05-16T11:39:07Z</time>
</trkpt>
<trkpt lat="49.020369965583086" lon="9.455931996926665">
<ele>272.6</ele>
<time>2023-05-16T11:39:08Z</time>
</trkpt>
<trkpt lat="49.02033199556172" lon="9.455902995541692">
<ele>272.79999999999995</ele>
<time>2023-05-16T11:39:09Z</time>
</trkpt>
<trkpt lat="49.02029695920646" lon="9.455884974449873">
<ele>273</ele>
<time>2023-05-16T11:39:10Z</time>
</trkpt>
<trkpt lat="49.020257983356714" lon="9.455864941701293">
<ele>273</ele>
<time>2023-05-16T11:39:11Z</time>
</trkpt>
<trkpt lat="49.02020995505154" lon="9.45583795197308">
<ele>273.20000000000005</ele>
<time>2023-05-16T11:39:12Z</time>
</trkpt>
<trkpt lat="49.020172990858555" lon="9.455816997215152">
<ele>273.20000000000005</ele>
<time>2023-05-16T11:39:13Z</time>
</trkpt>
<trkpt lat="49.020132925361395" lon="9.455791935324669">
<ele>273.4</ele>
<time>2023-05-16T11:39:14Z</time>
</trkpt>
<trkpt lat="49.02009495534003" lon="9.455767963081598">
<ele>273.6</ele>
<time>2023-05-16T11:39:15Z</time>
</trkpt>
<trkpt lat="49.02005698531866" lon="9.455742985010147">
<ele>273.6</ele>
<time>2023-05-16T11:39:16Z</time>
</trkpt>
<trkpt lat="49.02001792564988" lon="9.455717923119664">
<ele>273.79999999999995</ele>
<time>2023-05-16T11:39:17Z</time>
</trkpt>
<trkpt lat="49.019982973113656" lon="9.455694956704974">
<ele>274</ele>
<time>2023-05-16T11:39:18Z</time>
</trkpt>
<trkpt lat="49.01995196007192" lon="9.455674923956394">
<ele>274</ele>
<time>2023-05-16T11:39:19Z</time>
</trkpt>
<trkpt lat="49.019917929545045" lon="9.455649945884943">
<ele>274.20000000000005</ele>
<time>2023-05-16T11:39:20Z</time>
</trkpt>
<trkpt lat="49.01988197118044" lon="9.45562295615673">
<ele>274.4</ele>
<time>2023-05-16T11:39:21Z</time>
</trkpt>
<trkpt lat="49.01984693482518" lon="9.455592948943377">
<ele>274.6</ele>
<time>2023-05-16T11:39:22Z</time>
</trkpt>
<trkpt lat="49.019809970632195" lon="9.455557996407151">
<ele>274.79999999999995</ele>
<time>2023-05-16T11:39:23Z</time>
</trkpt>
<trkpt lat="49.0197769459337" lon="9.455526983365417">
<ele>274.79999999999995</ele>
<time>2023-05-16T11:39:24Z</time>
</trkpt>
<trkpt lat="49.019746938720345" lon="9.455496976152062">
<ele>275</ele>
<time>2023-05-16T11:39:25Z</time>
</trkpt>
<trkpt lat="49.01971793733537" lon="9.455457916483283">
<ele>275</ele>
<time>2023-05-16T11:39:26Z</time>
</trkpt>
<trkpt lat="49.01968994177878" lon="9.455419946461916">
<ele>275.20000000000005</ele>
<time>2023-05-16T11:39:27Z</time>
</trkpt>
<trkpt lat="49.019659934565425" lon="9.455381976440549">
<ele>275.4</ele>
<time>2023-05-16T11:39:28Z</time>
</trkpt>
<trkpt lat="49.019634956493974" lon="9.45534291677177">
<ele>275.4</ele>
<time>2023-05-16T11:39:29Z</time>
</trkpt>
<trkpt lat="49.01960997842252" lon="9.455304946750402">
<ele>275.6</ele>
<time>2023-05-16T11:39:30Z</time>
</trkpt>
<trkpt lat="49.01957997120917" lon="9.455264965072274">
<ele>275.79999999999995</ele>
<time>2023-05-16T11:39:31Z</time>
</trkpt>
<trkpt lat="49.01955499313772" lon="9.455222971737385">
<ele>275.79999999999995</ele>
<time>2023-05-16T11:39:32Z</time>
</trkpt>
<trkpt lat="49.01952498592436" lon="9.455177960917354">
<ele>276</ele>
<time>2023-05-16T11:39:33Z</time>
</trkpt>
<trkpt lat="49.01949799619615" lon="9.45512792095542">
<ele>276</ele>
<time>2023-05-16T11:39:34Z</time>
</trkpt>
<trkpt lat="49.019469916820526" lon="9.455074947327375">
<ele>276.20000000000005</ele>
<time>2023-05-16T11:39:35Z</time>
</trkpt>
<trkpt lat="49.01944795623422" lon="9.455022979527712">
<ele>276.20000000000005</ele>
<time>2023-05-16T11:39:36Z</time>
</trkpt>
<trkpt lat="49.01942498981953" lon="9.454972939565778">
<ele>276.4</ele>
<time>2023-05-16T11:39:37Z</time>
</trkpt>
<trkpt lat="49.019402945414186" lon="9.454922983422875">
<ele>276.6</ele>
<time>2023-05-16T11:39:38Z</time>
</trkpt>
<trkpt lat="49.01938492432237" lon="9.454872943460941">
<ele>276.6</ele>
<time>2023-05-16T11:39:39Z</time>
</trkpt>
<trkpt lat="49.01936799287796" lon="9.454816952347755">
<ele>276.79999999999995</ele>
<time>2023-05-16T11:39:40Z</time>
</trkpt>
<trkpt lat="49.0193519834429" lon="9.45476196706295">
<ele>276.79999999999995</ele>
<time>2023-05-16T11:39:41Z</time>
</trkpt>
<trkpt lat="49.01933195069432" lon="9.454707987606525">
<ele>277</ele>
<time>2023-05-16T11:39:42Z</time>
</trkpt>
<trkpt lat="49.019314935430884" lon="9.45465493015945">
<ele>277</ele>
<time>2023-05-16T11:39:43Z</time>
</trkpt>
<trkpt lat="49.01930194348097" lon="9.454599944874644">
<ele>277.20000000000005</ele>
<time>2023-05-16T11:39:44Z</time>
</trkpt>
<trkpt lat="49.019294986501336" lon="9.454542947933078">
<ele>277.20000000000005</ele>
<time>2023-05-16T11:39:45Z</time>
</trkpt>
<trkpt lat="49.01928199455142" lon="9.454489974305034">
<ele>277.4</ele>
<time>2023-05-16T11:39:46Z</time>
</trkpt>
<trkpt lat="49.01926699094474" lon="9.454436916857958">
<ele>277.4</ele>
<time>2023-05-16T11:39:47Z</time>
</trkpt>
<trkpt lat="49.019247964024544" lon="9.454382937401533">
<ele>277.4</ele>
<time>2023-05-16T11:39:48Z</time>
</trkpt>
<trkpt lat="49.019229942932725" lon="9.454334992915392">
<ele>277.6</ele>
<time>2023-05-16T11:39:49Z</time>
</trkpt>
<trkpt lat="49.01921292766929" lon="9.45428998209536">
<ele>277.6</ele>
<time>2023-05-16T11:39:50Z</time>
</trkpt>
<trkpt lat="49.01919993571937" lon="9.454239942133427">
<ele>277.79999999999995</ele>
<time>2023-05-16T11:39:51Z</time>
</trkpt>
<trkpt lat="49.019187949597836" lon="9.454192919656634">
<ele>278</ele>
<time>2023-05-16T11:39:52Z</time>
</trkpt>
<trkpt lat="49.01917495764792" lon="9.454142963513732">
<ele>278</ele>
<time>2023-05-16T11:39:53Z</time>
</trkpt>
<trkpt lat="49.01915995404124" lon="9.454091917723417">
<ele>278.20000000000005</ele>
<time>2023-05-16T11:39:54Z</time>
</trkpt>
<trkpt lat="49.019142938777804" lon="9.454039949923754">
<ele>278.4</ele>
<time>2023-05-16T11:39:55Z</time>
</trkpt>
<trkpt lat="49.01912692934275" lon="9.45398798212409">
<ele>278.4</ele>
<time>2023-05-16T11:39:56Z</time>
</trkpt>
<trkpt lat="49.01910798624158" lon="9.453936936333776">
<ele>278.6</ele>
<time>2023-05-16T11:39:57Z</time>
</trkpt>
<trkpt lat="49.01909197680652" lon="9.453884968534112">
<ele>278.6</ele>
<time>2023-05-16T11:39:58Z</time>
</trkpt>
<trkpt lat="49.01907294988632" lon="9.453834928572178">
<ele>278.79999999999995</ele>
<time>2023-05-16T11:39:59Z</time>
</trkpt>
<trkpt lat="49.019056940451264" lon="9.453786984086037">
<ele>279</ele>
<time>2023-05-16T11:40:00Z</time>
</trkpt>
<trkpt lat="49.019039925187826" lon="9.453737949952483">
<ele>279</ele>
<time>2023-05-16T11:40:01Z</time>
</trkpt>
<trkpt lat="49.01902198791504" lon="9.453682964667678">
<ele>279.20000000000005</ele>
<time>2023-05-16T11:40:02Z</time>
</trkpt>
<trkpt lat="49.0190049726516" lon="9.453631918877363">
<ele>279.20000000000005</ele>
<time>2023-05-16T11:40:03Z</time>
</trkpt>
<trkpt lat="49.01898795738816" lon="9.453576933592558">
<ele>279.4</ele>
<time>2023-05-16T11:40:04Z</time>
</trkpt>
<trkpt lat="49.018972953781486" lon="9.453519936650991">
<ele>279.4</ele>
<time>2023-05-16T11:40:05Z</time>
</trkpt>
<trkpt lat="49.01895493268967" lon="9.453462939709425">
<ele>279.6</ele>
<time>2023-05-16T11:40:06Z</time>
</trkpt>
<trkpt lat="49.01893699541688" lon="9.453411977738142">
<ele>279.79999999999995</ele>
<time>2023-05-16T11:40:07Z</time>
</trkpt>
<trkpt lat="49.0189219918102" lon="9.453357998281717">
<ele>279.79999999999995</ele>
<time>2023-05-16T11:40:08Z</time>
</trkpt>
<trkpt lat="49.018907994031906" lon="9.453309969976544">
<ele>280</ele>
<time>2023-05-16T11:40:09Z</time>
</trkpt>
<trkpt lat="49.01889491826296" lon="9.453262947499752">
<ele>280.20000000000005</ele>
<time>2023-05-16T11:40:10Z</time>
</trkpt>
<trkpt lat="49.01888192631304" lon="9.45321491919458">
<ele>280.20000000000005</ele>
<time>2023-05-16T11:40:11Z</time>
</trkpt>
<trkpt lat="49.018864994868636" lon="9.453164963051677">
<ele>280.4</ele>
<time>2023-05-16T11:40:12Z</time>
</trkpt>
<trkpt lat="49.01884999126196" lon="9.453114923089743">
<ele>280.4</ele>
<time>2023-05-16T11:40:13Z</time>
</trkpt>
<trkpt lat="49.01883699931204" lon="9.45306295529008">
<ele>280.6</ele>
<time>2023-05-16T11:40:14Z</time>
</trkpt>
<trkpt lat="49.018819984048605" lon="9.453009981662035">
<ele>280.6</ele>
<time>2023-05-16T11:40:15Z</time>
</trkpt>
<trkpt lat="49.01880799792707" lon="9.45295793004334">
<ele>280.79999999999995</ele>
<time>2023-05-16T11:40:16Z</time>
</trkpt>
<trkpt lat="49.01879693381488" lon="9.452902944758534">
<ele>281</ele>
<time>2023-05-16T11:40:17Z</time>
</trkpt>
<trkpt lat="49.018781930208206" lon="9.45284997113049">
<ele>281</ele>
<time>2023-05-16T11:40:18Z</time>
</trkpt>
<trkpt lat="49.0187649987638" lon="9.452796997502446">
<ele>281.20000000000005</ele>
<time>2023-05-16T11:40:19Z</time>
</trkpt>
<trkpt lat="49.01874295435846" lon="9.452736983075738">
<ele>281.20000000000005</ele>
<time>2023-05-16T11:40:20Z</time>
</trkpt>
<trkpt lat="49.01872292160988" lon="9.45267797447741">
<ele>281.4</ele>
<time>2023-05-16T11:40:21Z</time>
</trkpt>
<trkpt lat="49.01870196685195" lon="9.452621983364224">
<ele>281.6</ele>
<time>2023-05-16T11:40:22Z</time>
</trkpt>
<trkpt lat="49.01867992244661" lon="9.452564986422658">
<ele>281.6</ele>
<time>2023-05-16T11:40:23Z</time>
</trkpt>
<trkpt lat="49.01866198517382" lon="9.452509917318821">
<ele>281.79999999999995</ele>
<time>2023-05-16T11:40:24Z</time>
</trkpt>
<trkpt lat="49.01864496991038" lon="9.452457949519157">
<ele>281.79999999999995</ele>
<time>2023-05-16T11:40:25Z</time>
</trkpt>
<trkpt lat="49.018626948818564" lon="9.452407993376255">
<ele>282</ele>
<time>2023-05-16T11:40:26Z</time>
</trkpt>
<trkpt lat="49.01861295104027" lon="9.452361976727843">
<ele>282</ele>
<time>2023-05-16T11:40:27Z</time>
</trkpt>
<trkpt lat="49.01859794743359" lon="9.452309925109148">
<ele>282.20000000000005</ele>
<time>2023-05-16T11:40:28Z</time>
</trkpt>
<trkpt lat="49.018582943826914" lon="9.452259968966246">
<ele>282.20000000000005</ele>
<time>2023-05-16T11:40:29Z</time>
</trkpt>
<trkpt lat="49.018569951877" lon="9.452209929004312">
<ele>282.4</ele>
<time>2023-05-16T11:40:30Z</time>
</trkpt>
<trkpt lat="49.01855796575546" lon="9.452157961204648">
<ele>282.4</ele>
<time>2023-05-16T11:40:31Z</time>
</trkpt>
<trkpt lat="49.01854497380555" lon="9.452104987576604">
<ele>282.6</ele>
<time>2023-05-16T11:40:32Z</time>
</trkpt>
<trkpt lat="49.01852997019887" lon="9.452049918472767">
<ele>282.79999999999995</ele>
<time>2023-05-16T11:40:33Z</time>
</trkpt>
<trkpt lat="49.01851295493543" lon="9.451996944844723">
<ele>282.79999999999995</ele>
<time>2023-05-16T11:40:34Z</time>
</trkpt>
<trkpt lat="49.01849493384361" lon="9.451942965388298">
<ele>283</ele>
<time>2023-05-16T11:40:35Z</time>
</trkpt>
<trkpt lat="49.018479930236936" lon="9.451887980103493">
<ele>283</ele>
<time>2023-05-16T11:40:36Z</time>
</trkpt>
<trkpt lat="49.01846492663026" lon="9.451834922656417">
<ele>283.20000000000005</ele>
<time>2023-05-16T11:40:37Z</time>
</trkpt>
<trkpt lat="49.01844799518585" lon="9.451782954856753">
<ele>283.20000000000005</ele>
<time>2023-05-16T11:40:38Z</time>
</trkpt>
<trkpt lat="49.018431985750794" lon="9.45173492655158">
<ele>283.4</ele>
<time>2023-05-16T11:40:39Z</time>
</trkpt>
<trkpt lat="49.018414970487356" lon="9.451684970408678">
<ele>283.6</ele>
<time>2023-05-16T11:40:40Z</time>
</trkpt>
<trkpt lat="49.01839795522392" lon="9.451631996780634">
<ele>283.79999999999995</ele>
<time>2023-05-16T11:40:41Z</time>
</trkpt>
<trkpt lat="49.0183799341321" lon="9.451579945161939">
<ele>283.79999999999995</ele>
<time>2023-05-16T11:40:42Z</time>
</trkpt>
<trkpt lat="49.01836493052542" lon="9.451526971533895">
<ele>284</ele>
<time>2023-05-16T11:40:43Z</time>
</trkpt>
<trkpt lat="49.018347999081016" lon="9.4514749199152">
<ele>284</ele>
<time>2023-05-16T11:40:44Z</time>
</trkpt>
<trkpt lat="49.01833198964596" lon="9.451422952115536">
<ele>284.20000000000005</ele>
<time>2023-05-16T11:40:45Z</time>
</trkpt>
<trkpt lat="49.01831296272576" lon="9.45136796683073">
<ele>284.4</ele>
<time>2023-05-16T11:40:46Z</time>
</trkpt>
<trkpt lat="49.01829292997718" lon="9.451316921040416">
<ele>284.4</ele>
<time>2023-05-16T11:40:47Z</time>
</trkpt>
<trkpt lat="49.01827499270439" lon="9.451264953240752">
<ele>284.6</ele>
<time>2023-05-16T11:40:48Z</time>
</trkpt>
<trkpt lat="49.018259989097714" lon="9.451212985441089">
<ele>284.79999999999995</ele>
<time>2023-05-16T11:40:49Z</time>
</trkpt>
<trkpt lat="49.018242973834276" lon="9.451161939650774">
<ele>284.79999999999995</ele>
<time>2023-05-16T11:40:50Z</time>
</trkpt>
<trkpt lat="49.01822998188436" lon="9.45110796019435">
<ele>285</ele>
<time>2023-05-16T11:40:51Z</time>
</trkpt>
<trkpt lat="49.018216989934444" lon="9.451054986566305">
<ele>285.20000000000005</ele>
<time>2023-05-16T11:40:52Z</time>
</trkpt>
<trkpt lat="49.01820491999388" lon="9.45100293494761">
<ele>285.20000000000005</ele>
<time>2023-05-16T11:40:53Z</time>
</trkpt>
<trkpt lat="49.01819293387234" lon="9.450952978804708">
<ele>285.4</ele>
<time>2023-05-16T11:40:54Z</time>
</trkpt>
<trkpt lat="49.01818295940757" lon="9.450901933014393">
<ele>285.4</ele>
<time>2023-05-16T11:40:55Z</time>
</trkpt>
<trkpt lat="49.01816996745765" lon="9.450846947729588">
<ele>285.6</ele>
<time>2023-05-16T11:40:56Z</time>
</trkpt>
<trkpt lat="49.01815798133612" lon="9.450792968273163">
<ele>285.79999999999995</ele>
<time>2023-05-16T11:40:57Z</time>
</trkpt>
<trkpt lat="49.01814691722393" lon="9.450742928311229">
<ele>285.79999999999995</ele>
<time>2023-05-16T11:40:58Z</time>
</trkpt>
<trkpt lat="49.018134931102395" lon="9.450689954683185">
<ele>286</ele>
<time>2023-05-16T11:40:59Z</time>
</trkpt>
<trkpt lat="49.01812193915248" lon="9.45063496939838">
<ele>286</ele>
<time>2023-05-16T11:41:00Z</time>
</trkpt>
<trkpt lat="49.018112970516086" lon="9.450577972456813">
<ele>286.20000000000005</ele>
<time>2023-05-16T11:41:01Z</time>
</trkpt>
<trkpt lat="49.01810492388904" lon="9.450514940544963">
<ele>286.4</ele>
<time>2023-05-16T11:41:02Z</time>
</trkpt>
<trkpt lat="49.01809796690941" lon="9.450456937775016">
<ele>286.4</ele>
<time>2023-05-16T11:41:03Z</time>
</trkpt>
<trkpt lat="49.01809494942427" lon="9.450397929176688">
<ele>286.6</ele>
<time>2023-05-16T11:41:04Z</time>
</trkpt>
<trkpt lat="49.018091931939125" lon="9.450341938063502">
<ele>286.6</ele>
<time>2023-05-16T11:41:05Z</time>
</trkpt>
<trkpt lat="49.018091931939125" lon="9.450282929465175">
<ele>286.79999999999995</ele>
<time>2023-05-16T11:41:06Z</time>
</trkpt>
<trkpt lat="49.018092937767506" lon="9.450219981372356">
<ele>287</ele>
<time>2023-05-16T11:41:07Z</time>
</trkpt>
<trkpt lat="49.01809796690941" lon="9.45016197860241">
<ele>287</ele>
<time>2023-05-16T11:41:08Z</time>
</trkpt>
<trkpt lat="49.01810199022293" lon="9.450106993317604">
<ele>287.20000000000005</ele>
<time>2023-05-16T11:41:09Z</time>
</trkpt>
<trkpt lat="49.0181069355458" lon="9.450047984719276">
<ele>287.20000000000005</ele>
<time>2023-05-16T11:41:10Z</time>
</trkpt>
<trkpt lat="49.01811498217285" lon="9.44999199360609">
<ele>287.4</ele>
<time>2023-05-16T11:41:11Z</time>
</trkpt>
<trkpt lat="49.01811992749572" lon="9.449932985007763">
<ele>287.4</ele>
<time>2023-05-16T11:41:12Z</time>
</trkpt>
<trkpt lat="49.01812495663762" lon="9.449876993894577">
<ele>287.6</ele>
<time>2023-05-16T11:41:13Z</time>
</trkpt>
<trkpt lat="49.018132919445634" lon="9.449816979467869">
<ele>287.79999999999995</ele>
<time>2023-05-16T11:41:14Z</time>
</trkpt>
<trkpt lat="49.0181399602443" lon="9.449761994183064">
<ele>287.79999999999995</ele>
<time>2023-05-16T11:41:15Z</time>
</trkpt>
<trkpt lat="49.01814691722393" lon="9.449707930907607">
<ele>288</ele>
<time>2023-05-16T11:41:16Z</time>
</trkpt>
<trkpt lat="49.01815194636583" lon="9.449652945622802">
<ele>288.20000000000005</ele>
<time>2023-05-16T11:41:17Z</time>
</trkpt>
<trkpt lat="49.018154963850975" lon="9.449597960337996">
<ele>288.4</ele>
<time>2023-05-16T11:41:18Z</time>
</trkpt>
<trkpt lat="49.018152952194214" lon="9.44953995756805">
<ele>288.6</ele>
<time>2023-05-16T11:41:19Z</time>
</trkpt>
<trkpt lat="49.01814993470907" lon="9.449482960626483">
<ele>288.6</ele>
<time>2023-05-16T11:41:20Z</time>
</trkpt>
<trkpt lat="49.01814197190106" lon="9.449424957856536">
<ele>288.79999999999995</ele>
<time>2023-05-16T11:41:21Z</time>
</trkpt>
<trkpt lat="49.018132919445634" lon="9.449366955086589">
<ele>289</ele>
<time>2023-05-16T11:41:22Z</time>
</trkpt>
<trkpt lat="49.01812495663762" lon="9.44930492900312">
<ele>289.20000000000005</ele>
<time>2023-05-16T11:41:23Z</time>
</trkpt>
<trkpt lat="49.01811992749572" lon="9.449251955375075">
<ele>289.20000000000005</ele>
<time>2023-05-16T11:41:24Z</time>
</trkpt>
<trkpt lat="49.018112970516086" lon="9.44919697009027">
<ele>289.4</ele>
<time>2023-05-16T11:41:25Z</time>
</trkpt>
<trkpt lat="49.01809997856617" lon="9.449139973148704">
<ele>289.6</ele>
<time>2023-05-16T11:41:26Z</time>
</trkpt>
<trkpt lat="49.01808296330273" lon="9.449082976207137">
<ele>289.6</ele>
<time>2023-05-16T11:41:27Z</time>
</trkpt>
<trkpt lat="49.018067959696054" lon="9.449031930416822">
<ele>289.79999999999995</ele>
<time>2023-05-16T11:41:28Z</time>
</trkpt>
<trkpt lat="49.01806192472577" lon="9.448977950960398">
<ele>289.79999999999995</ele>
<time>2023-05-16T11:41:29Z</time>
</trkpt>
<trkpt lat="49.01805496774614" lon="9.448924977332354">
<ele>290</ele>
<time>2023-05-16T11:41:30Z</time>
</trkpt>
<trkpt lat="49.0180329233408" lon="9.448861945420504">
<ele>290</ele>
<time>2023-05-16T11:41:31Z</time>
</trkpt>
<trkpt lat="49.01801993139088" lon="9.44880997762084">
<ele>290.20000000000005</ele>
<time>2023-05-16T11:41:32Z</time>
</trkpt>
<trkpt lat="49.01799696497619" lon="9.44874694570899">
<ele>290.20000000000005</ele>
<time>2023-05-16T11:41:33Z</time>
</trkpt>
<trkpt lat="49.017984978854656" lon="9.448691960424185">
<ele>290.4</ele>
<time>2023-05-16T11:41:34Z</time>
</trkpt>
<trkpt lat="49.017961928620934" lon="9.448629934340715">
<ele>290.4</ele>
<time>2023-05-16T11:41:35Z</time>
</trkpt>
<trkpt lat="49.017939968034625" lon="9.448569919914007">
<ele>290.4</ele>
<time>2023-05-16T11:41:36Z</time>
</trkpt>
<trkpt lat="49.01792295277119" lon="9.44851191714406">
<ele>290.6</ele>
<time>2023-05-16T11:41:37Z</time>
</trkpt>
<trkpt lat="49.01790694333613" lon="9.448449974879622">
<ele>290.6</ele>
<time>2023-05-16T11:41:38Z</time>
</trkpt>
<trkpt lat="49.017896968871355" lon="9.448389960452914">
<ele>290.79999999999995</ele>
<time>2023-05-16T11:41:39Z</time>
</trkpt>
<trkpt lat="49.01788498274982" lon="9.448332963511348">
<ele>290.79999999999995</ele>
<time>2023-05-16T11:41:40Z</time>
</trkpt>
<trkpt lat="49.017877941951156" lon="9.4482749607414">
<ele>291</ele>
<time>2023-05-16T11:41:41Z</time>
</trkpt>
<trkpt lat="49.017871990799904" lon="9.448219975456595">
<ele>291</ele>
<time>2023-05-16T11:41:42Z</time>
</trkpt>
<trkpt lat="49.01786796748638" lon="9.448159961029887">
<ele>291.20000000000005</ele>
<time>2023-05-16T11:41:43Z</time>
</trkpt>
<trkpt lat="49.017866961658" lon="9.44810195825994">
<ele>291.20000000000005</ele>
<time>2023-05-16T11:41:44Z</time>
</trkpt>
<trkpt lat="49.01786495000124" lon="9.448042949661613">
<ele>291.4</ele>
<time>2023-05-16T11:41:45Z</time>
</trkpt>
<trkpt lat="49.01786293834448" lon="9.447984946891665">
<ele>291.6</ele>
<time>2023-05-16T11:41:46Z</time>
</trkpt>
<trkpt lat="49.0178619325161" lon="9.44792996160686">
<ele>291.6</ele>
<time>2023-05-16T11:41:47Z</time>
</trkpt>
<trkpt lat="49.01786293834448" lon="9.447871958836913">
<ele>291.79999999999995</ele>
<time>2023-05-16T11:41:48Z</time>
</trkpt>
<trkpt lat="49.01785992085934" lon="9.447812950238585">
<ele>291.79999999999995</ele>
<time>2023-05-16T11:41:49Z</time>
</trkpt>
<trkpt lat="49.01785992085934" lon="9.447751929983497">
<ele>292</ele>
<time>2023-05-16T11:41:50Z</time>
</trkpt>
<trkpt lat="49.01786293834448" lon="9.44769493304193">
<ele>292</ele>
<time>2023-05-16T11:41:51Z</time>
</trkpt>
<trkpt lat="49.01786495000124" lon="9.447637936100364">
<ele>292.20000000000005</ele>
<time>2023-05-16T11:41:52Z</time>
</trkpt>
<trkpt lat="49.017866961658" lon="9.447582950815558">
<ele>292.4</ele>
<time>2023-05-16T11:41:53Z</time>
</trkpt>
<trkpt lat="49.017866961658" lon="9.447529977187514">
<ele>292.4</ele>
<time>2023-05-16T11:41:54Z</time>
</trkpt>
<trkpt lat="49.01786796748638" lon="9.447474991902709">
<ele>292.6</ele>
<time>2023-05-16T11:41:55Z</time>
</trkpt>
<trkpt lat="49.01786796748638" lon="9.447416989132762">
<ele>292.6</ele>
<time>2023-05-16T11:41:56Z</time>
</trkpt>
<trkpt lat="49.017871990799904" lon="9.447357980534434">
<ele>292.79999999999995</ele>
<time>2023-05-16T11:41:57Z</time>
</trkpt>
<trkpt lat="49.017872996628284" lon="9.447297966107726">
<ele>292.79999999999995</ele>
<time>2023-05-16T11:41:58Z</time>
</trkpt>
<trkpt lat="49.017874924466014" lon="9.447236945852637">
<ele>293</ele>
<time>2023-05-16T11:41:59Z</time>
</trkpt>
<trkpt lat="49.017876936122775" lon="9.44717793725431">
<ele>293</ele>
<time>2023-05-16T11:42:00Z</time>
</trkpt>
<trkpt lat="49.017877941951156" lon="9.447119934484363">
<ele>293.20000000000005</ele>
<time>2023-05-16T11:42:01Z</time>
</trkpt>
<trkpt lat="49.017877941951156" lon="9.447059920057654">
<ele>293.4</ele>
<time>2023-05-16T11:42:02Z</time>
</trkpt>
<trkpt lat="49.017877941951156" lon="9.447001917287707">
<ele>293.4</ele>
<time>2023-05-16T11:42:03Z</time>
</trkpt>
<trkpt lat="49.017874924466014" lon="9.446937963366508">
<ele>293.6</ele>
<time>2023-05-16T11:42:04Z</time>
</trkpt>
<trkpt lat="49.017877941951156" lon="9.446881972253323">
<ele>293.6</ele>
<time>2023-05-16T11:42:05Z</time>
</trkpt>
<trkpt lat="49.01787995360792" lon="9.446821957826614">
<ele>293.79999999999995</ele>
<time>2023-05-16T11:42:06Z</time>
</trkpt>
<trkpt lat="49.01788196526468" lon="9.446761943399906">
<ele>293.79999999999995</ele>
<time>2023-05-16T11:42:07Z</time>
</trkpt>
<trkpt lat="49.01788297109306" lon="9.446702934801579">
<ele>294</ele>
<time>2023-05-16T11:42:08Z</time>
</trkpt>
<trkpt lat="49.01788297109306" lon="9.446644932031631">
<ele>294.20000000000005</ele>
<time>2023-05-16T11:42:09Z</time>
</trkpt>
<trkpt lat="49.01788297109306" lon="9.446586929261684">
<ele>294.20000000000005</ele>
<time>2023-05-16T11:42:10Z</time>
</trkpt>
<trkpt lat="49.01788498274982" lon="9.446526998654008">
<ele>294.4</ele>
<time>2023-05-16T11:42:11Z</time>
</trkpt>
<trkpt lat="49.01788791641593" lon="9.44646799005568">
<ele>294.4</ele>
<time>2023-05-16T11:42:12Z</time>
</trkpt>
<trkpt lat="49.01788992807269" lon="9.446407975628972">
<ele>294.6</ele>
<time>2023-05-16T11:42:13Z</time>
</trkpt>
<trkpt lat="49.01789193972945" lon="9.446346955373883">
<ele>294.6</ele>
<time>2023-05-16T11:42:14Z</time>
</trkpt>
<trkpt lat="49.01789294555783" lon="9.446284929290414">
<ele>294.79999999999995</ele>
<time>2023-05-16T11:42:15Z</time>
</trkpt>
<trkpt lat="49.017897974699736" lon="9.446229944005609">
<ele>294.79999999999995</ele>
<time>2023-05-16T11:42:16Z</time>
</trkpt>
<trkpt lat="49.01790292002261" lon="9.446172947064042">
<ele>295</ele>
<time>2023-05-16T11:42:17Z</time>
</trkpt>
<trkpt lat="49.01790694333613" lon="9.446114944294095">
<ele>295</ele>
<time>2023-05-16T11:42:18Z</time>
</trkpt>
<trkpt lat="49.01791197247803" lon="9.44605995900929">
<ele>295.20000000000005</ele>
<time>2023-05-16T11:42:19Z</time>
</trkpt>
<trkpt lat="49.01791297830641" lon="9.446004973724484">
<ele>295.20000000000005</ele>
<time>2023-05-16T11:42:20Z</time>
</trkpt>
<trkpt lat="49.01791197247803" lon="9.445946970954537">
<ele>295.4</ele>
<time>2023-05-16T11:42:21Z</time>
</trkpt>
<trkpt lat="49.01790996082127" lon="9.44588796235621">
<ele>295.6</ele>
<time>2023-05-16T11:42:22Z</time>
</trkpt>
<trkpt lat="49.01791197247803" lon="9.445827947929502">
<ele>295.6</ele>
<time>2023-05-16T11:42:23Z</time>
</trkpt>
<trkpt lat="49.01790694333613" lon="9.445771956816316">
<ele>295.79999999999995</ele>
<time>2023-05-16T11:42:24Z</time>
</trkpt>
<trkpt lat="49.01790794916451" lon="9.445711942389607">
<ele>296</ele>
<time>2023-05-16T11:42:25Z</time>
</trkpt>
<trkpt lat="49.01790694333613" lon="9.445654945448041">
<ele>296</ele>
<time>2023-05-16T11:42:26Z</time>
</trkpt>
<trkpt lat="49.01790493167937" lon="9.445599960163236">
<ele>296.20000000000005</ele>
<time>2023-05-16T11:42:27Z</time>
</trkpt>
<trkpt lat="49.0178999863565" lon="9.445541957393289">
<ele>296.4</ele>
<time>2023-05-16T11:42:28Z</time>
</trkpt>
<trkpt lat="49.017896968871355" lon="9.445482948794961">
<ele>296.4</ele>
<time>2023-05-16T11:42:29Z</time>
</trkpt>
<trkpt lat="49.01788992807269" lon="9.445426957681775">
<ele>296.6</ele>
<time>2023-05-16T11:42:30Z</time>
</trkpt>
<trkpt lat="49.017877941951156" lon="9.445366943255067">
<ele>296.6</ele>
<time>2023-05-16T11:42:31Z</time>
</trkpt>
<trkpt lat="49.01786293834448" lon="9.445304917171597">
<ele>296.79999999999995</ele>
<time>2023-05-16T11:42:32Z</time>
</trkpt>
<trkpt lat="49.0178479347378" lon="9.445244986563921">
<ele>296.79999999999995</ele>
<time>2023-05-16T11:42:33Z</time>
</trkpt>
<trkpt lat="49.01783695444465" lon="9.445189917460084">
<ele>297</ele>
<time>2023-05-16T11:42:34Z</time>
</trkpt>
<trkpt lat="49.01782295666635" lon="9.445134932175279">
<ele>297</ele>
<time>2023-05-16T11:42:35Z</time>
</trkpt>
<trkpt lat="49.017812982201576" lon="9.445082964375615">
<ele>297.20000000000005</ele>
<time>2023-05-16T11:42:36Z</time>
</trkpt>
<trkpt lat="49.01779999025166" lon="9.44502697326243">
<ele>297.4</ele>
<time>2023-05-16T11:42:37Z</time>
</trkpt>
<trkpt lat="49.017789931967854" lon="9.444974921643734">
<ele>297.4</ele>
<time>2023-05-16T11:42:38Z</time>
</trkpt>
<trkpt lat="49.017767971381545" lon="9.444916918873787">
<ele>297.6</ele>
<time>2023-05-16T11:42:39Z</time>
</trkpt>
<trkpt lat="49.01775699108839" lon="9.44485992193222">
<ele>297.79999999999995</ele>
<time>2023-05-16T11:42:40Z</time>
</trkpt>
<trkpt lat="49.01773997582495" lon="9.444802924990654">
<ele>297.79999999999995</ele>
<time>2023-05-16T11:42:41Z</time>
</trkpt>
<trkpt lat="49.017722960561514" lon="9.444746933877468">
<ele>298</ele>
<time>2023-05-16T11:42:42Z</time>
</trkpt>
<trkpt lat="49.017704939469695" lon="9.444689936935902">
<ele>298</ele>
<time>2023-05-16T11:42:43Z</time>
</trkpt>
<trkpt lat="49.01768792420626" lon="9.444632939994335">
<ele>298.20000000000005</ele>
<time>2023-05-16T11:42:44Z</time>
</trkpt>
<trkpt lat="49.01767199859023" lon="9.44457694888115">
<ele>298.20000000000005</ele>
<time>2023-05-16T11:42:45Z</time>
</trkpt>
<trkpt lat="49.017656994983554" lon="9.444521963596344">
<ele>298.4</ele>
<time>2023-05-16T11:42:46Z</time>
</trkpt>
<trkpt lat="49.01764299720526" lon="9.444464966654778">
<ele>298.6</ele>
<time>2023-05-16T11:42:47Z</time>
</trkpt>
<trkpt lat="49.01762992143631" lon="9.44440696388483">
<ele>298.6</ele>
<time>2023-05-16T11:42:48Z</time>
</trkpt>
<trkpt lat="49.017617935314775" lon="9.444351978600025">
<ele>298.79999999999995</ele>
<time>2023-05-16T11:42:49Z</time>
</trkpt>
<trkpt lat="49.01760695502162" lon="9.4442979991436">
<ele>298.79999999999995</ele>
<time>2023-05-16T11:42:50Z</time>
</trkpt>
<trkpt lat="49.017594968900084" lon="9.444244941696525">
<ele>299</ele>
<time>2023-05-16T11:42:51Z</time>
</trkpt>
<trkpt lat="49.01758298277855" lon="9.44419196806848">
<ele>299</ele>
<time>2023-05-16T11:42:52Z</time>
</trkpt>
<trkpt lat="49.01757292449474" lon="9.444141928106546">
<ele>299.20000000000005</ele>
<time>2023-05-16T11:42:53Z</time>
</trkpt>
<trkpt lat="49.01756194420159" lon="9.444086942821741">
<ele>299.20000000000005</ele>
<time>2023-05-16T11:42:54Z</time>
</trkpt>
<trkpt lat="49.01754794642329" lon="9.444032963365316">
<ele>299.4</ele>
<time>2023-05-16T11:42:55Z</time>
</trkpt>
<trkpt lat="49.017534954473376" lon="9.443981917575002">
<ele>299.6</ele>
<time>2023-05-16T11:42:56Z</time>
</trkpt>
<trkpt lat="49.0175199508667" lon="9.443926932290196">
<ele>299.6</ele>
<time>2023-05-16T11:42:57Z</time>
</trkpt>
<trkpt lat="49.01750494726002" lon="9.443871947005391">
<ele>299.79999999999995</ele>
<time>2023-05-16T11:42:58Z</time>
</trkpt>
<trkpt lat="49.01749296113849" lon="9.443819979205728">
<ele>300</ele>
<time>2023-05-16T11:42:59Z</time>
</trkpt>
<trkpt lat="49.01748198084533" lon="9.443764993920922">
<ele>300</ele>
<time>2023-05-16T11:43:00Z</time>
</trkpt>
<trkpt lat="49.0174699947238" lon="9.443707996979356">
<ele>300.20000000000005</ele>
<time>2023-05-16T11:43:01Z</time>
</trkpt>
<trkpt lat="49.01745792478323" lon="9.44365493953228">
<ele>300.20000000000005</ele>
<time>2023-05-16T11:43:02Z</time>
</trkpt>
<trkpt lat="49.01744996197522" lon="9.443602971732616">
<ele>300.4</ele>
<time>2023-05-16T11:43:03Z</time>
</trkpt>
<trkpt lat="49.017441999167204" lon="9.44354496896267">
<ele>300.6</ele>
<time>2023-05-16T11:43:04Z</time>
</trkpt>
<trkpt lat="49.01743294671178" lon="9.443489983677864">
<ele>300.6</ele>
<time>2023-05-16T11:43:05Z</time>
</trkpt>
<trkpt lat="49.017427917569876" lon="9.443434998393059">
<ele>300.79999999999995</ele>
<time>2023-05-16T11:43:06Z</time>
</trkpt>
<trkpt lat="49.017427917569876" lon="9.443382946774364">
<ele>300.79999999999995</ele>
<time>2023-05-16T11:43:07Z</time>
</trkpt>
<trkpt lat="49.01742699556053" lon="9.443327961489558">
<ele>301</ele>
<time>2023-05-16T11:43:08Z</time>
</trkpt>
<trkpt lat="49.01741995476186" lon="9.44326794706285">
<ele>301.20000000000005</ele>
<time>2023-05-16T11:43:09Z</time>
</trkpt>
<trkpt lat="49.0174179431051" lon="9.443207932636142">
<ele>301.20000000000005</ele>
<time>2023-05-16T11:43:10Z</time>
</trkpt>
<trkpt lat="49.01741299778223" lon="9.443151941522956">
<ele>301.4</ele>
<time>2023-05-16T11:43:11Z</time>
</trkpt>
<trkpt lat="49.01741199195385" lon="9.443092932924628">
<ele>301.4</ele>
<time>2023-05-16T11:43:12Z</time>
</trkpt>
<trkpt lat="49.01740696281195" lon="9.443034930154681">
<ele>301.6</ele>
<time>2023-05-16T11:43:13Z</time>
</trkpt>
<trkpt lat="49.01740696281195" lon="9.442982962355018">
<ele>301.6</ele>
<time>2023-05-16T11:43:14Z</time>
</trkpt>
<trkpt lat="49.01740696281195" lon="9.44292495958507">
<ele>301.79999999999995</ele>
<time>2023-05-16T11:43:15Z</time>
</trkpt>
<trkpt lat="49.01741299778223" lon="9.442869974300265">
<ele>302</ele>
<time>2023-05-16T11:43:16Z</time>
</trkpt>
<trkpt lat="49.017422972247005" lon="9.442811971530318">
<ele>302</ele>
<time>2023-05-16T11:43:17Z</time>
</trkpt>
<trkpt lat="49.0174319408834" lon="9.44275296293199">
<ele>302.20000000000005</ele>
<time>2023-05-16T11:43:18Z</time>
</trkpt>
<trkpt lat="49.01743998751044" lon="9.442694960162044">
<ele>302.4</ele>
<time>2023-05-16T11:43:19Z</time>
</trkpt>
<trkpt lat="49.01744996197522" lon="9.442641986534">
<ele>302.4</ele>
<time>2023-05-16T11:43:20Z</time>
</trkpt>
<trkpt lat="49.01745993643999" lon="9.442584989592433">
<ele>302.6</ele>
<time>2023-05-16T11:43:21Z</time>
</trkpt>
<trkpt lat="49.01747292838991" lon="9.442532937973738">
<ele>302.6</ele>
<time>2023-05-16T11:43:22Z</time>
</trkpt>
<trkpt lat="49.017484998330474" lon="9.442477952688932">
<ele>302.79999999999995</ele>
<time>2023-05-16T11:43:23Z</time>
</trkpt>
<trkpt lat="49.01749497279525" lon="9.442417938262224">
<ele>303</ele>
<time>2023-05-16T11:43:24Z</time>
</trkpt>
<trkpt lat="49.01750695891678" lon="9.442362952977419">
<ele>303</ele>
<time>2023-05-16T11:43:25Z</time>
</trkpt>
<trkpt lat="49.01751693338156" lon="9.442306961864233">
<ele>303.20000000000005</ele>
<time>2023-05-16T11:43:26Z</time>
</trkpt>
<trkpt lat="49.017532942816615" lon="9.442251976579428">
<ele>303.4</ele>
<time>2023-05-16T11:43:27Z</time>
</trkpt>
<trkpt lat="49.01754794642329" lon="9.442196991294622">
<ele>303.4</ele>
<time>2023-05-16T11:43:28Z</time>
</trkpt>
<trkpt lat="49.017557920888066" lon="9.442141922190785">
<ele>303.6</ele>
<time>2023-05-16T11:43:29Z</time>
</trkpt>
<trkpt lat="49.01757191866636" lon="9.442079979926348">
<ele>303.6</ele>
<time>2023-05-16T11:43:30Z</time>
</trkpt>
<trkpt lat="49.01758499443531" lon="9.44201996549964">
<ele>303.79999999999995</ele>
<time>2023-05-16T11:43:31Z</time>
</trkpt>
<trkpt lat="49.017597986385226" lon="9.441966991871595">
<ele>303.79999999999995</ele>
<time>2023-05-16T11:43:32Z</time>
</trkpt>
<trkpt lat="49.01761198416352" lon="9.4419149402529">
<ele>304</ele>
<time>2023-05-16T11:43:33Z</time>
</trkpt>
<trkpt lat="49.01762296445668" lon="9.441857943311334">
<ele>304.20000000000005</ele>
<time>2023-05-16T11:43:34Z</time>
</trkpt>
<trkpt lat="49.017639979720116" lon="9.44180698134005">
<ele>304.20000000000005</ele>
<time>2023-05-16T11:43:35Z</time>
</trkpt>
<trkpt lat="49.01765498332679" lon="9.441744955256581">
<ele>304.4</ele>
<time>2023-05-16T11:43:36Z</time>
</trkpt>
<trkpt lat="49.01766998693347" lon="9.441679995507002">
<ele>304.6</ele>
<time>2023-05-16T11:43:37Z</time>
</trkpt>
<trkpt lat="49.017682978883386" lon="9.441617969423532">
<ele>304.6</ele>
<time>2023-05-16T11:43:38Z</time>
</trkpt>
<trkpt lat="49.01769697666168" lon="9.441559966653585">
<ele>304.79999999999995</ele>
<time>2023-05-16T11:43:39Z</time>
</trkpt>
<trkpt lat="49.017704939469695" lon="9.441511938348413">
<ele>305</ele>
<time>2023-05-16T11:43:40Z</time>
</trkpt>
<trkpt lat="49.01771793141961" lon="9.441459970548749">
<ele>305</ele>
<time>2023-05-16T11:43:41Z</time>
</trkpt>
<trkpt lat="49.017729917541146" lon="9.441401967778802">
<ele>305.20000000000005</ele>
<time>2023-05-16T11:43:42Z</time>
</trkpt>
<trkpt lat="49.01774492114782" lon="9.441341953352094">
<ele>305.4</ele>
<time>2023-05-16T11:43:43Z</time>
</trkpt>
<trkpt lat="49.01775799691677" lon="9.441282944753766">
<ele>305.6</ele>
<time>2023-05-16T11:43:44Z</time>
</trkpt>
<trkpt lat="49.01776193641126" lon="9.441232988610864">
<ele>305.6</ele>
<time>2023-05-16T11:43:45Z</time>
</trkpt>
<trkpt lat="49.01777492836118" lon="9.441181942820549">
<ele>305.79999999999995</ele>
<time>2023-05-16T11:43:46Z</time>
</trkpt>
<trkpt lat="49.01778498664498" lon="9.441124945878983">
<ele>306</ele>
<time>2023-05-16T11:43:47Z</time>
</trkpt>
<trkpt lat="49.01780191808939" lon="9.441066943109035">
<ele>306</ele>
<time>2023-05-16T11:43:48Z</time>
</trkpt>
<trkpt lat="49.01781692169607" lon="9.44101195782423">
<ele>306.20000000000005</ele>
<time>2023-05-16T11:43:49Z</time>
</trkpt>
<trkpt lat="49.017832931131124" lon="9.440956972539425">
<ele>306.4</ele>
<time>2023-05-16T11:43:50Z</time>
</trkpt>
<trkpt lat="49.01784298941493" lon="9.440902993083">
<ele>306.4</ele>
<time>2023-05-16T11:43:51Z</time>
</trkpt>
<trkpt lat="49.0178619325161" lon="9.440842978656292">
<ele>306.6</ele>
<time>2023-05-16T11:43:52Z</time>
</trkpt>
<trkpt lat="49.017876936122775" lon="9.440787993371487">
<ele>306.79999999999995</ele>
<time>2023-05-16T11:43:53Z</time>
</trkpt>
<trkpt lat="49.01788791641593" lon="9.44073493592441">
<ele>306.79999999999995</ele>
<time>2023-05-16T11:43:54Z</time>
</trkpt>
<trkpt lat="49.01790199801326" lon="9.440682968124747">
<ele>307</ele>
<time>2023-05-16T11:43:55Z</time>
</trkpt>
<trkpt lat="49.01792295277119" lon="9.4406249653548">
<ele>307</ele>
<time>2023-05-16T11:43:56Z</time>
</trkpt>
<trkpt lat="49.01793192140758" lon="9.440574925392866">
<ele>307.20000000000005</ele>
<time>2023-05-16T11:43:57Z</time>
</trkpt>
<trkpt lat="49.017937956377864" lon="9.440524969249964">
<ele>307.20000000000005</ele>
<time>2023-05-16T11:43:58Z</time>
</trkpt>
<trkpt lat="49.01795991696417" lon="9.440467972308397">
<ele>307.4</ele>
<time>2023-05-16T11:43:59Z</time>
</trkpt>
<trkpt lat="49.01797299273312" lon="9.440427990630269">
<ele>307.4</ele>
<time>2023-05-16T11:44:00Z</time>
</trkpt>
<trkpt lat="49.01798992417753" lon="9.440381973981857">
<ele>307.6</ele>
<time>2023-05-16T11:44:01Z</time>
</trkpt>
<trkpt lat="49.018001994118094" lon="9.440334951505065">
<ele>307.6</ele>
<time>2023-05-16T11:44:02Z</time>
</trkpt>
<trkpt lat="49.01802194304764" lon="9.440277954563498">
<ele>307.79999999999995</ele>
<time>2023-05-16T11:44:03Z</time>
</trkpt>
<trkpt lat="49.0180379524827" lon="9.44021794013679">
<ele>307.79999999999995</ele>
<time>2023-05-16T11:44:04Z</time>
</trkpt>
<trkpt lat="49.018046921119094" lon="9.440159937366843">
<ele>308</ele>
<time>2023-05-16T11:44:05Z</time>
</trkpt>
<trkpt lat="49.01805295608938" lon="9.440102940425277">
<ele>308</ele>
<time>2023-05-16T11:44:06Z</time>
</trkpt>
<trkpt lat="49.018066953867674" lon="9.440049966797233">
<ele>308.20000000000005</ele>
<time>2023-05-16T11:44:07Z</time>
</trkpt>
<trkpt lat="49.01807491667569" lon="9.439997998997569">
<ele>308.20000000000005</ele>
<time>2023-05-16T11:44:08Z</time>
</trkpt>
<trkpt lat="49.018087992444634" lon="9.439942929893732">
<ele>308.4</ele>
<time>2023-05-16T11:44:09Z</time>
</trkpt>
<trkpt lat="49.01809997856617" lon="9.439882999286056">
<ele>308.6</ele>
<time>2023-05-16T11:44:10Z</time>
</trkpt>
<trkpt lat="49.01811799965799" lon="9.439824996516109">
<ele>308.6</ele>
<time>2023-05-16T11:44:11Z</time>
</trkpt>
<trkpt lat="49.018136942759156" lon="9.4397649820894">
<ele>308.79999999999995</ele>
<time>2023-05-16T11:44:12Z</time>
</trkpt>
<trkpt lat="49.01815798133612" lon="9.439704967662692">
<ele>308.79999999999995</ele>
<time>2023-05-16T11:44:13Z</time>
</trkpt>
<trkpt lat="49.018172984942794" lon="9.439651994034648">
<ele>309</ele>
<time>2023-05-16T11:44:14Z</time>
</trkpt>
<trkpt lat="49.01819192804396" lon="9.439586950466037">
<ele>309.20000000000005</ele>
<time>2023-05-16T11:44:15Z</time>
</trkpt>
<trkpt lat="49.01820491999388" lon="9.439521990716457">
<ele>309.20000000000005</ele>
<time>2023-05-16T11:44:16Z</time>
</trkpt>
<trkpt lat="49.018216989934444" lon="9.439464993774891">
<ele>309.4</ele>
<time>2023-05-16T11:44:17Z</time>
</trkpt>
<trkpt lat="49.01823199354112" lon="9.439409924671054">
<ele>309.4</ele>
<time>2023-05-16T11:44:18Z</time>
</trkpt>
<trkpt lat="49.01824498549104" lon="9.43935695104301">
<ele>309.6</ele>
<time>2023-05-16T11:44:19Z</time>
</trkpt>
<trkpt lat="49.01825797744095" lon="9.439299954101443">
<ele>309.79999999999995</ele>
<time>2023-05-16T11:44:20Z</time>
</trkpt>
<trkpt lat="49.01826996356249" lon="9.439244968816638">
<ele>309.79999999999995</ele>
<time>2023-05-16T11:44:21Z</time>
</trkpt>
<trkpt lat="49.0182779263705" lon="9.439196940511465">
<ele>310</ele>
<time>2023-05-16T11:44:22Z</time>
</trkpt>
<trkpt lat="49.018281949684024" lon="9.439147990196943">
<ele>310</ele>
<time>2023-05-16T11:44:23Z</time>
</trkpt>
<trkpt lat="49.01829292997718" lon="9.439094932749867">
<ele>310.20000000000005</ele>
<time>2023-05-16T11:44:24Z</time>
</trkpt>
<trkpt lat="49.018304999917746" lon="9.439042964950204">
<ele>310.4</ele>
<time>2023-05-16T11:44:25Z</time>
</trkpt>
<trkpt lat="49.01831991970539" lon="9.438986973837018">
<ele>310.4</ele>
<time>2023-05-16T11:44:26Z</time>
</trkpt>
<trkpt lat="49.01833198964596" lon="9.438931988552213">
<ele>310.6</ele>
<time>2023-05-16T11:44:27Z</time>
</trkpt>
<trkpt lat="49.01834196411073" lon="9.438874991610646">
<ele>310.79999999999995</ele>
<time>2023-05-16T11:44:28Z</time>
</trkpt>
<trkpt lat="49.018351938575506" lon="9.438832998275757">
<ele>310.79999999999995</ele>
<time>2023-05-16T11:44:29Z</time>
</trkpt>
<trkpt lat="49.01836493052542" lon="9.438779940828681">
<ele>311</ele>
<time>2023-05-16T11:44:30Z</time>
</trkpt>
<trkpt lat="49.01838194578886" lon="9.438721938058734">
<ele>311</ele>
<time>2023-05-16T11:44:31Z</time>
</trkpt>
<trkpt lat="49.018394937738776" lon="9.438657984137535">
<ele>311.20000000000005</ele>
<time>2023-05-16T11:44:32Z</time>
</trkpt>
<trkpt lat="49.01840994134545" lon="9.438597969710827">
<ele>311.20000000000005</ele>
<time>2023-05-16T11:44:33Z</time>
</trkpt>
<trkpt lat="49.01842695660889" lon="9.438541978597641">
<ele>311.4</ele>
<time>2023-05-16T11:44:34Z</time>
</trkpt>
<trkpt lat="49.01844296604395" lon="9.438482969999313">
<ele>311.4</ele>
<time>2023-05-16T11:44:35Z</time>
</trkpt>
<trkpt lat="49.01846299879253" lon="9.43843293003738">
<ele>311.6</ele>
<time>2023-05-16T11:44:36Z</time>
</trkpt>
<trkpt lat="49.01848797686398" lon="9.438376938924193">
<ele>311.6</ele>
<time>2023-05-16T11:44:37Z</time>
</trkpt>
<trkpt lat="49.01850993745029" lon="9.438326982781291">
<ele>311.79999999999995</ele>
<time>2023-05-16T11:44:38Z</time>
</trkpt>
<trkpt lat="49.01853499934077" lon="9.438271997496486">
<ele>312</ele>
<time>2023-05-16T11:44:39Z</time>
</trkpt>
<trkpt lat="49.01855695992708" lon="9.438221957534552">
<ele>312</ele>
<time>2023-05-16T11:44:40Z</time>
</trkpt>
<trkpt lat="49.01857799850404" lon="9.438167978078127">
<ele>312.20000000000005</ele>
<time>2023-05-16T11:44:41Z</time>
</trkpt>
<trkpt lat="49.01859995909035" lon="9.438116932287812">
<ele>312.4</ele>
<time>2023-05-16T11:44:42Z</time>
</trkpt>
<trkpt lat="49.01861697435379" lon="9.438069993630052">
<ele>312.6</ele>
<time>2023-05-16T11:44:43Z</time>
</trkpt>
<trkpt lat="49.01863499544561" lon="9.43802498281002">
<ele>312.79999999999995</ele>
<time>2023-05-16T11:44:44Z</time>
</trkpt>
<trkpt lat="49.01865494437516" lon="9.437976954504848">
<ele>312.79999999999995</ele>
<time>2023-05-16T11:44:45Z</time>
</trkpt>
<trkpt lat="49.01867497712374" lon="9.437924986705184">
<ele>313</ele>
<time>2023-05-16T11:44:46Z</time>
</trkpt>
<trkpt lat="49.01869693771005" lon="9.437869917601347">
<ele>313</ele>
<time>2023-05-16T11:44:47Z</time>
</trkpt>
<trkpt lat="49.01871697045863" lon="9.437814932316542">
<ele>313.20000000000005</ele>
<time>2023-05-16T11:44:48Z</time>
</trkpt>
<trkpt lat="49.01874194853008" lon="9.437762964516878">
<ele>313.20000000000005</ele>
<time>2023-05-16T11:44:49Z</time>
</trkpt>
<trkpt lat="49.01876298710704" lon="9.437714936211705">
<ele>313.4</ele>
<time>2023-05-16T11:44:50Z</time>
</trkpt>
<trkpt lat="49.01878695935011" lon="9.437662968412042">
<ele>313.4</ele>
<time>2023-05-16T11:44:51Z</time>
</trkpt>
<trkpt lat="49.01880699209869" lon="9.437612928450108">
<ele>313.6</ele>
<time>2023-05-16T11:44:52Z</time>
</trkpt>
<trkpt lat="49.018822917714715" lon="9.437566995620728">
<ele>313.6</ele>
<time>2023-05-16T11:44:53Z</time>
</trkpt>
<trkpt lat="49.01883993297815" lon="9.437524918466806">
<ele>313.79999999999995</ele>
<time>2023-05-16T11:44:54Z</time>
</trkpt>
<trkpt lat="49.01885996572673" lon="9.437474962323904">
<ele>313.79999999999995</ele>
<time>2023-05-16T11:44:55Z</time>
</trkpt>
<trkpt lat="49.01887798681855" lon="9.437429951503873">
<ele>314</ele>
<time>2023-05-16T11:44:56Z</time>
</trkpt>
<trkpt lat="49.01889692991972" lon="9.43737999536097">
<ele>314</ele>
<time>2023-05-16T11:44:57Z</time>
</trkpt>
<trkpt lat="49.0189169626683" lon="9.437329955399036">
<ele>314.20000000000005</ele>
<time>2023-05-16T11:44:58Z</time>
</trkpt>
<trkpt lat="49.01893498376012" lon="9.437276981770992">
<ele>314.4</ele>
<time>2023-05-16T11:44:59Z</time>
</trkpt>
<trkpt lat="49.01895795017481" lon="9.437226941809058">
<ele>314.4</ele>
<time>2023-05-16T11:45:00Z</time>
</trkpt>
<trkpt lat="49.01897496543825" lon="9.437184948474169">
<ele>314.6</ele>
<time>2023-05-16T11:45:01Z</time>
</trkpt>
<trkpt lat="49.018992986530066" lon="9.437141949310899">
<ele>314.79999999999995</ele>
<time>2023-05-16T11:45:02Z</time>
</trkpt>
<trkpt lat="49.019016958773136" lon="9.437094926834106">
<ele>314.79999999999995</ele>
<time>2023-05-16T11:45:03Z</time>
</trkpt>
<trkpt lat="49.019034979864955" lon="9.437052933499217">
<ele>315</ele>
<time>2023-05-16T11:45:04Z</time>
</trkpt>
<trkpt lat="49.019057946279645" lon="9.437011945992708">
<ele>315</ele>
<time>2023-05-16T11:45:05Z</time>
</trkpt>
<trkpt lat="49.019082924351096" lon="9.43697196431458">
<ele>315.20000000000005</ele>
<time>2023-05-16T11:45:06Z</time>
</trkpt>
<trkpt lat="49.01910798624158" lon="9.436931982636452">
<ele>315.4</ele>
<time>2023-05-16T11:45:07Z</time>
</trkpt>
<trkpt lat="49.01913195848465" lon="9.436889989301562">
<ele>315.4</ele>
<time>2023-05-16T11:45:08Z</time>
</trkpt>
<trkpt lat="49.0191569365561" lon="9.43684296682477">
<ele>315.6</ele>
<time>2023-05-16T11:45:09Z</time>
</trkpt>
<trkpt lat="49.019181998446584" lon="9.436792926862836">
<ele>315.6</ele>
<time>2023-05-16T11:45:10Z</time>
</trkpt>
<trkpt lat="49.019204964861274" lon="9.436744982376695">
<ele>315.79999999999995</ele>
<time>2023-05-16T11:45:11Z</time>
</trkpt>
<trkpt lat="49.019231954589486" lon="9.436696954071522">
<ele>316</ele>
<time>2023-05-16T11:45:12Z</time>
</trkpt>
<trkpt lat="49.01925693266094" lon="9.43665194325149">
<ele>316</ele>
<time>2023-05-16T11:45:13Z</time>
</trkpt>
<trkpt lat="49.01928291656077" lon="9.436597963795066">
<ele>316.20000000000005</ele>
<time>2023-05-16T11:45:14Z</time>
</trkpt>
<trkpt lat="49.01931191794574" lon="9.436547923833132">
<ele>316.20000000000005</ele>
<time>2023-05-16T11:45:15Z</time>
</trkpt>
<trkpt lat="49.019334968179464" lon="9.43649997934699">
<ele>316.20000000000005</ele>
<time>2023-05-16T11:45:16Z</time>
</trkpt>
<trkpt lat="49.019357934594154" lon="9.436451951041818">
<ele>316.4</ele>
<time>2023-05-16T11:45:17Z</time>
</trkpt>
<trkpt lat="49.019379978999496" lon="9.436401994898915">
<ele>316.6</ele>
<time>2023-05-16T11:45:18Z</time>
</trkpt>
<trkpt lat="49.019401939585805" lon="9.436354972422123">
<ele>316.6</ele>
<time>2023-05-16T11:45:19Z</time>
</trkpt>
<trkpt lat="49.019421972334385" lon="9.436312979087234">
<ele>316.79999999999995</ele>
<time>2023-05-16T11:45:20Z</time>
</trkpt>
<trkpt lat="49.019446950405836" lon="9.436269979923964">
<ele>316.79999999999995</ele>
<time>2023-05-16T11:45:21Z</time>
</trkpt>
<trkpt lat="49.01947695761919" lon="9.436226980760694">
<ele>317</ele>
<time>2023-05-16T11:45:22Z</time>
</trkpt>
<trkpt lat="49.01950294151902" lon="9.43617694079876">
<ele>317</ele>
<time>2023-05-16T11:45:23Z</time>
</trkpt>
<trkpt lat="49.019531942903996" lon="9.43613494746387">
<ele>317.20000000000005</ele>
<time>2023-05-16T11:45:24Z</time>
</trkpt>
<trkpt lat="49.01956496760249" lon="9.436097983270884">
<ele>317.20000000000005</ele>
<time>2023-05-16T11:45:25Z</time>
</trkpt>
<trkpt lat="49.019594974815845" lon="9.43604995496571">
<ele>317.4</ele>
<time>2023-05-16T11:45:26Z</time>
</trkpt>
<trkpt lat="49.01962196454406" lon="9.436002932488918">
<ele>317.4</ele>
<time>2023-05-16T11:45:27Z</time>
</trkpt>
<trkpt lat="49.01963998563588" lon="9.435967979952693">
<ele>317.4</ele>
<time>2023-05-16T11:45:28Z</time>
</trkpt>
<trkpt lat="49.01966798119247" lon="9.435922969132662">
<ele>317.6</ele>
<time>2023-05-16T11:45:29Z</time>
</trkpt>
<trkpt lat="49.01969497092068" lon="9.43587695248425">
<ele>317.6</ele>
<time>2023-05-16T11:45:30Z</time>
</trkpt>
<trkpt lat="49.01971793733537" lon="9.435829930007458">
<ele>317.79999999999995</ele>
<time>2023-05-16T11:45:31Z</time>
</trkpt>
<trkpt lat="49.019744927063584" lon="9.435779973864555">
<ele>317.79999999999995</ele>
<time>2023-05-16T11:45:32Z</time>
</trkpt>
<trkpt lat="49.01977292262018" lon="9.43572498857975">
<ele>318</ele>
<time>2023-05-16T11:45:33Z</time>
</trkpt>
<trkpt lat="49.01979999616742" lon="9.435677966102958">
<ele>318</ele>
<time>2023-05-16T11:45:34Z</time>
</trkpt>
<trkpt lat="49.01982296258211" lon="9.435632955282927">
<ele>318.20000000000005</ele>
<time>2023-05-16T11:45:35Z</time>
</trkpt>
<trkpt lat="49.01984198950231" lon="9.435582999140024">
<ele>318.4</ele>
<time>2023-05-16T11:45:36Z</time>
</trkpt>
<trkpt lat="49.01985699310899" lon="9.43553195334971">
<ele>318.4</ele>
<time>2023-05-16T11:45:37Z</time>
</trkpt>
<trkpt lat="49.019876942038536" lon="9.435479985550046">
<ele>318.6</ele>
<time>2023-05-16T11:45:38Z</time>
</trkpt>
<trkpt lat="49.019894963130355" lon="9.43542298860848">
<ele>318.6</ele>
<time>2023-05-16T11:45:39Z</time>
</trkpt>
<trkpt lat="49.019916923716664" lon="9.435362974181771">
<ele>318.79999999999995</ele>
<time>2023-05-16T11:45:40Z</time>
</trkpt>
<trkpt lat="49.01992999948561" lon="9.435304971411824">
<ele>318.79999999999995</ele>
<time>2023-05-16T11:45:41Z</time>
</trkpt>
<trkpt lat="49.019939973950386" lon="9.43525199778378">
<ele>319</ele>
<time>2023-05-16T11:45:42Z</time>
</trkpt>
<trkpt lat="49.01994491927326" lon="9.435201957821846">
<ele>319</ele>
<time>2023-05-16T11:45:43Z</time>
</trkpt>
<trkpt lat="49.019957995042205" lon="9.435152923688293">
<ele>319.20000000000005</ele>
<time>2023-05-16T11:45:44Z</time>
</trkpt>
<trkpt lat="49.01996495202184" lon="9.435119982808828">
<ele>319.4</ele>
<time>2023-05-16T11:45:45Z</time>
</trkpt>
<trkpt lat="49.019981967285275" lon="9.435074971988797">
<ele>319.4</ele>
<time>2023-05-16T11:45:46Z</time>
</trkpt>
<trkpt lat="49.01999797672033" lon="9.43501797504723">
<ele>319.6</ele>
<time>2023-05-16T11:45:47Z</time>
</trkpt>
<trkpt lat="49.02001792564988" lon="9.434957960620522">
<ele>319.79999999999995</ele>
<time>2023-05-16T11:45:48Z</time>
</trkpt>
<trkpt lat="49.02002798393369" lon="9.434926947578788">
<ele>319.79999999999995</ele>
<time>2023-05-16T11:45:49Z</time>
</trkpt>
<trkpt lat="49.020041981711984" lon="9.434864921495318">
<ele>320</ele>
<time>2023-05-16T11:45:50Z</time>
</trkpt>
<trkpt lat="49.02005698531866" lon="9.434812953695655">
<ele>320.20000000000005</ele>
<time>2023-05-16T11:45:51Z</time>
</trkpt>
<trkpt lat="49.02007299475372" lon="9.434756962582469">
<ele>320.20000000000005</ele>
<time>2023-05-16T11:45:52Z</time>
</trkpt>
<trkpt lat="49.02007995173335" lon="9.434701977297664">
<ele>320.4</ele>
<time>2023-05-16T11:45:53Z</time>
</trkpt>
<trkpt lat="49.02009294368327" lon="9.434649925678968">
<ele>320.6</ele>
<time>2023-05-16T11:45:54Z</time>
</trkpt>
<trkpt lat="49.0201049298048" lon="9.434604998677969">
<ele>320.6</ele>
<time>2023-05-16T11:45:55Z</time>
</trkpt>
<trkpt lat="49.02011699974537" lon="9.43456694483757">
<ele>320.79999999999995</ele>
<time>2023-05-16T11:45:56Z</time>
</trkpt>
<trkpt lat="49.020127980038524" lon="9.43452293984592">
<ele>321</ele>
<time>2023-05-16T11:45:57Z</time>
</trkpt>
<trkpt lat="49.02014499530196" lon="9.434462925419211">
<ele>321</ele>
<time>2023-05-16T11:45:58Z</time>
</trkpt>
<trkpt lat="49.02015999890864" lon="9.434416992589831">
<ele>321.20000000000005</ele>
<time>2023-05-16T11:45:59Z</time>
</trkpt>
<trkpt lat="49.02016997337341" lon="9.434362929314375">
<ele>321.4</ele>
<time>2023-05-16T11:46:00Z</time>
</trkpt>
<trkpt lat="49.02018799446523" lon="9.434302998706698">
<ele>321.4</ele>
<time>2023-05-16T11:46:01Z</time>
</trkpt>
<trkpt lat="49.02020299807191" lon="9.434254970401525">
<ele>321.6</ele>
<time>2023-05-16T11:46:02Z</time>
</trkpt>
<trkpt lat="49.0202119667083" lon="9.434197973459959">
<ele>321.6</ele>
<time>2023-05-16T11:46:03Z</time>
</trkpt>
<trkpt lat="49.020217917859554" lon="9.43415991961956">
<ele>321.79999999999995</ele>
<time>2023-05-16T11:46:04Z</time>
</trkpt>
<trkpt lat="49.02023493312299" lon="9.43411499261856">
<ele>322</ele>
<time>2023-05-16T11:46:05Z</time>
</trkpt>
<trkpt lat="49.02024993672967" lon="9.43404994904995">
<ele>322</ele>
<time>2023-05-16T11:46:06Z</time>
</trkpt>
<trkpt lat="49.020262928679585" lon="9.434002926573157">
<ele>322.20000000000005</ele>
<time>2023-05-16T11:46:07Z</time>
</trkpt>
<trkpt lat="49.02027793228626" lon="9.433952970430255">
<ele>322.20000000000005</ele>
<time>2023-05-16T11:46:08Z</time>
</trkpt>
<trkpt lat="49.02029193006456" lon="9.433891950175166">
<ele>322.4</ele>
<time>2023-05-16T11:46:09Z</time>
</trkpt>
<trkpt lat="49.020304922014475" lon="9.433837970718741">
<ele>322.4</ele>
<time>2023-05-16T11:46:10Z</time>
</trkpt>
<trkpt lat="49.02032193727791" lon="9.433777956292033">
<ele>322.6</ele>
<time>2023-05-16T11:46:11Z</time>
</trkpt>
<trkpt lat="49.02033291757107" lon="9.433711990714073">
<ele>322.6</ele>
<time>2023-05-16T11:46:12Z</time>
</trkpt>
<trkpt lat="49.020342975854874" lon="9.433659939095378">
<ele>322.79999999999995</ele>
<time>2023-05-16T11:46:13Z</time>
</trkpt>
<trkpt lat="49.02035496197641" lon="9.433609982952476">
<ele>323</ele>
<time>2023-05-16T11:46:14Z</time>
</trkpt>
<trkpt lat="49.020369965583086" lon="9.433564972132444">
<ele>323</ele>
<time>2023-05-16T11:46:15Z</time>
</trkpt>
<trkpt lat="49.0203779283911" lon="9.43351493217051">
<ele>323.20000000000005</ele>
<time>2023-05-16T11:46:16Z</time>
</trkpt>
<trkpt lat="49.020386980846524" lon="9.433459946885705">
<ele>323.20000000000005</ele>
<time>2023-05-16T11:46:17Z</time>
</trkpt>
<trkpt lat="49.02039494365454" lon="9.433396998792887">
<ele>323.4</ele>
<time>2023-05-16T11:46:18Z</time>
</trkpt>
<trkpt lat="49.02040692977607" lon="9.433334972709417">
<ele>323.4</ele>
<time>2023-05-16T11:46:19Z</time>
</trkpt>
<trkpt lat="49.02041799388826" lon="9.433269929140806">
<ele>323.6</ele>
<time>2023-05-16T11:46:20Z</time>
</trkpt>
<trkpt lat="49.02042796835303" lon="9.433207986876369">
<ele>323.6</ele>
<time>2023-05-16T11:46:21Z</time>
</trkpt>
<trkpt lat="49.02043693698943" lon="9.433149984106421">
<ele>323.79999999999995</ele>
<time>2023-05-16T11:46:22Z</time>
</trkpt>
<trkpt lat="49.02044297195971" lon="9.433087958022952">
<ele>323.79999999999995</ele>
<time>2023-05-16T11:46:23Z</time>
</trkpt>
<trkpt lat="49.02044791728258" lon="9.433021992444992">
<ele>324</ele>
<time>2023-05-16T11:46:24Z</time>
</trkpt>
<trkpt lat="49.02045998722315" lon="9.432947980239987">
<ele>324</ele>
<time>2023-05-16T11:46:25Z</time>
</trkpt>
<trkpt lat="49.02046795003116" lon="9.432882936671376">
<ele>324.20000000000005</ele>
<time>2023-05-16T11:46:26Z</time>
</trkpt>
<trkpt lat="49.020474990829825" lon="9.432816971093416">
<ele>324.20000000000005</ele>
<time>2023-05-16T11:46:27Z</time>
</trkpt>
<trkpt lat="49.02048194780946" lon="9.432754945009947">
<ele>324.4</ele>
<time>2023-05-16T11:46:28Z</time>
</trkpt>
<trkpt lat="49.02049192227423" lon="9.432691996917129">
<ele>324.4</ele>
<time>2023-05-16T11:46:29Z</time>
</trkpt>
<trkpt lat="49.02050198055804" lon="9.432626953348517">
<ele>324.6</ele>
<time>2023-05-16T11:46:30Z</time>
</trkpt>
<trkpt lat="49.02051195502281" lon="9.432562999427319">
<ele>324.79999999999995</ele>
<time>2023-05-16T11:46:31Z</time>
</trkpt>
<trkpt lat="49.020514972507954" lon="9.43250197917223">
<ele>324.79999999999995</ele>
<time>2023-05-16T11:46:32Z</time>
</trkpt>
<trkpt lat="49.020516984164715" lon="9.43243995308876">
<ele>325</ele>
<time>2023-05-16T11:46:33Z</time>
</trkpt>
<trkpt lat="49.020514972507954" lon="9.43237692117691">
<ele>325</ele>
<time>2023-05-16T11:46:34Z</time>
</trkpt>
<trkpt lat="49.020516984164715" lon="9.432319924235344">
<ele>325.20000000000005</ele>
<time>2023-05-16T11:46:35Z</time>
</trkpt>
<trkpt lat="49.020517989993095" lon="9.432259993627667">
<ele>325.20000000000005</ele>
<time>2023-05-16T11:46:36Z</time>
</trkpt>
<trkpt lat="49.020516984164715" lon="9.432196961715817">
<ele>325.4</ele>
<time>2023-05-16T11:46:37Z</time>
</trkpt>
<trkpt lat="49.02051296085119" lon="9.432132923975587">
<ele>325.4</ele>
<time>2023-05-16T11:46:38Z</time>
</trkpt>
<trkpt lat="49.02051296085119" lon="9.43207198753953">
<ele>325.6</ele>
<time>2023-05-16T11:46:39Z</time>
</trkpt>
<trkpt lat="49.020514972507954" lon="9.432011973112822">
<ele>325.6</ele>
<time>2023-05-16T11:46:40Z</time>
</trkpt>
<trkpt lat="49.020516984164715" lon="9.431947935372591">
<ele>325.79999999999995</ele>
<time>2023-05-16T11:46:41Z</time>
</trkpt>
<trkpt lat="49.020516984164715" lon="9.431886998936534">
<ele>325.79999999999995</ele>
<time>2023-05-16T11:46:42Z</time>
</trkpt>
<trkpt lat="49.020514972507954" lon="9.431824972853065">
<ele>326</ele>
<time>2023-05-16T11:46:43Z</time>
</trkpt>
<trkpt lat="49.02051195502281" lon="9.431761940941215">
<ele>326</ele>
<time>2023-05-16T11:46:44Z</time>
</trkpt>
<trkpt lat="49.02050994336605" lon="9.431697987020016">
<ele>326</ele>
<time>2023-05-16T11:46:45Z</time>
</trkpt>
<trkpt lat="49.02051195502281" lon="9.431637972593307">
<ele>326.20000000000005</ele>
<time>2023-05-16T11:46:46Z</time>
</trkpt>
<trkpt lat="49.02051296085119" lon="9.431581981480122">
<ele>326.20000000000005</ele>
<time>2023-05-16T11:46:47Z</time>
</trkpt>
<trkpt lat="49.02050994336605" lon="9.431519955396652">
<ele>326.4</ele>
<time>2023-05-16T11:46:48Z</time>
</trkpt>
<trkpt lat="49.02050793170929" lon="9.431459940969944">
<ele>326.4</ele>
<time>2023-05-16T11:46:49Z</time>
</trkpt>
<trkpt lat="49.02050692588091" lon="9.431396992877126">
<ele>326.6</ele>
<time>2023-05-16T11:46:50Z</time>
</trkpt>
<trkpt lat="49.02050298638642" lon="9.431334966793656">
<ele>326.6</ele>
<time>2023-05-16T11:46:51Z</time>
</trkpt>
<trkpt lat="49.02050298638642" lon="9.431269923225045">
<ele>326.79999999999995</ele>
<time>2023-05-16T11:46:52Z</time>
</trkpt>
<trkpt lat="49.02050499804318" lon="9.431211920455098">
<ele>327</ele>
<time>2023-05-16T11:46:53Z</time>
</trkpt>
<trkpt lat="49.02050692588091" lon="9.431154923513532">
<ele>327</ele>
<time>2023-05-16T11:46:54Z</time>
</trkpt>
<trkpt lat="49.02050692588091" lon="9.431101949885488">
<ele>327.20000000000005</ele>
<time>2023-05-16T11:46:55Z</time>
</trkpt>
<trkpt lat="49.02050499804318" lon="9.431046964600682">
<ele>327.20000000000005</ele>
<time>2023-05-16T11:46:56Z</time>
</trkpt>
<trkpt lat="49.02050499804318" lon="9.430992985144258">
<ele>327.4</ele>
<time>2023-05-16T11:46:57Z</time>
</trkpt>
<trkpt lat="49.02050692588091" lon="9.430937999859452">
<ele>327.4</ele>
<time>2023-05-16T11:46:58Z</time>
</trkpt>
<trkpt lat="49.02050499804318" lon="9.430876979604363">
<ele>327.6</ele>
<time>2023-05-16T11:46:59Z</time>
</trkpt>
<trkpt lat="49.02050692588091" lon="9.430811936035752">
<ele>327.79999999999995</ele>
<time>2023-05-16T11:47:00Z</time>
</trkpt>
<trkpt lat="49.02050793170929" lon="9.430754939094186">
<ele>327.79999999999995</ele>
<time>2023-05-16T11:47:01Z</time>
</trkpt>
<trkpt lat="49.02051195502281" lon="9.430696936324239">
<ele>328</ele>
<time>2023-05-16T11:47:02Z</time>
</trkpt>
<trkpt lat="49.02051296085119" lon="9.430639939382672">
<ele>328</ele>
<time>2023-05-16T11:47:03Z</time>
</trkpt>
<trkpt lat="49.02051195502281" lon="9.430582942441106">
<ele>328.20000000000005</ele>
<time>2023-05-16T11:47:04Z</time>
</trkpt>
<trkpt lat="49.020516984164715" lon="9.430529968813062">
<ele>328.4</ele>
<time>2023-05-16T11:47:05Z</time>
</trkpt>
<trkpt lat="49.020521929487586" lon="9.430472971871495">
<ele>328.4</ele>
<time>2023-05-16T11:47:06Z</time>
</trkpt>
<trkpt lat="49.02052695862949" lon="9.430412957444787">
<ele>328.6</ele>
<time>2023-05-16T11:47:07Z</time>
</trkpt>
<trkpt lat="49.02053198777139" lon="9.430352943018079">
<ele>328.79999999999995</ele>
<time>2023-05-16T11:47:08Z</time>
</trkpt>
<trkpt lat="49.020539950579405" lon="9.430301981046796">
<ele>328.79999999999995</ele>
<time>2023-05-16T11:47:09Z</time>
</trkpt>
<trkpt lat="49.02054699137807" lon="9.43024791777134">
<ele>329</ele>
<time>2023-05-16T11:47:10Z</time>
</trkpt>
<trkpt lat="49.02054992504418" lon="9.430187987163663">
<ele>329.20000000000005</ele>
<time>2023-05-16T11:47:11Z</time>
</trkpt>
<trkpt lat="49.02055294252932" lon="9.430132918059826">
<ele>329.20000000000005</ele>
<time>2023-05-16T11:47:12Z</time>
</trkpt>
<trkpt lat="49.020562916994095" lon="9.43007298745215">
<ele>329.4</ele>
<time>2023-05-16T11:47:13Z</time>
</trkpt>
<trkpt lat="49.020567946136" lon="9.430014984682202">
<ele>329.6</ele>
<time>2023-05-16T11:47:14Z</time>
</trkpt>
<trkpt lat="49.02056995779276" lon="9.429957987740636">
<ele>329.6</ele>
<time>2023-05-16T11:47:15Z</time>
</trkpt>
<trkpt lat="49.02056995779276" lon="9.429896967485547">
<ele>329.79999999999995</ele>
<time>2023-05-16T11:47:16Z</time>
</trkpt>
<trkpt lat="49.020567946136" lon="9.42983795888722">
<ele>330</ele>
<time>2023-05-16T11:47:17Z</time>
</trkpt>
<trkpt lat="49.02056694030762" lon="9.42977199330926">
<ele>330</ele>
<time>2023-05-16T11:47:18Z</time>
</trkpt>
<trkpt lat="49.02057196944952" lon="9.429714996367693">
<ele>330.20000000000005</ele>
<time>2023-05-16T11:47:19Z</time>
</trkpt>
<trkpt lat="49.02057498693466" lon="9.429652970284224">
<ele>330.20000000000005</ele>
<time>2023-05-16T11:47:20Z</time>
</trkpt>
<trkpt lat="49.02057699859142" lon="9.429592955857515">
<ele>330.4</ele>
<time>2023-05-16T11:47:21Z</time>
</trkpt>
<trkpt lat="49.02057792060077" lon="9.429534953087568">
<ele>330.4</ele>
<time>2023-05-16T11:47:22Z</time>
</trkpt>
<trkpt lat="49.02057993225753" lon="9.429481979459524">
<ele>330.6</ele>
<time>2023-05-16T11:47:23Z</time>
</trkpt>
<trkpt lat="49.02057993225753" lon="9.429426994174719">
<ele>330.6</ele>
<time>2023-05-16T11:47:24Z</time>
</trkpt>
<trkpt lat="49.020581943914294" lon="9.429371925070882">
<ele>330.79999999999995</ele>
<time>2023-05-16T11:47:25Z</time>
</trkpt>
<trkpt lat="49.02057699859142" lon="9.429312916472554">
<ele>331</ele>
<time>2023-05-16T11:47:26Z</time>
</trkpt>
<trkpt lat="49.0205729752779" lon="9.429252985864878">
<ele>331</ele>
<time>2023-05-16T11:47:27Z</time>
</trkpt>
<trkpt lat="49.0205729752779" lon="9.42919791676104">
<ele>331.20000000000005</ele>
<time>2023-05-16T11:47:28Z</time>
</trkpt>
<trkpt lat="49.0205729752779" lon="9.429144943132997">
<ele>331.20000000000005</ele>
<time>2023-05-16T11:47:29Z</time>
</trkpt>
<trkpt lat="49.02056995779276" lon="9.429089957848191">
<ele>331.4</ele>
<time>2023-05-16T11:47:30Z</time>
</trkpt>
<trkpt lat="49.02056694030762" lon="9.429034972563386">
<ele>331.6</ele>
<time>2023-05-16T11:47:31Z</time>
</trkpt>
<trkpt lat="49.020557971671224" lon="9.42897797562182">
<ele>331.6</ele>
<time>2023-05-16T11:47:32Z</time>
</trkpt>
<trkpt lat="49.02054992504418" lon="9.428919972851872">
<ele>331.79999999999995</ele>
<time>2023-05-16T11:47:33Z</time>
</trkpt>
<trkpt lat="49.02053693309426" lon="9.428861970081925">
<ele>332</ele>
<time>2023-05-16T11:47:34Z</time>
</trkpt>
<trkpt lat="49.02052796445787" lon="9.428802961483598">
<ele>332</ele>
<time>2023-05-16T11:47:35Z</time>
</trkpt>
<trkpt lat="49.02052695862949" lon="9.428751999512315">
<ele>332.20000000000005</ele>
<time>2023-05-16T11:47:36Z</time>
</trkpt>
<trkpt lat="49.02052494697273" lon="9.428697936236858">
<ele>332.4</ele>
<time>2023-05-16T11:47:37Z</time>
</trkpt>
<trkpt lat="49.02052494697273" lon="9.428644962608814">
<ele>332.4</ele>
<time>2023-05-16T11:47:38Z</time>
</trkpt>
<trkpt lat="49.02052997611463" lon="9.42859299480915">
<ele>332.6</ele>
<time>2023-05-16T11:47:39Z</time>
</trkpt>
<trkpt lat="49.02052796445787" lon="9.428537925705314">
<ele>332.79999999999995</ele>
<time>2023-05-16T11:47:40Z</time>
</trkpt>
<trkpt lat="49.02052695862949" lon="9.428477995097637">
<ele>332.79999999999995</ele>
<time>2023-05-16T11:47:41Z</time>
</trkpt>
<trkpt lat="49.02052796445787" lon="9.4284229259938">
<ele>333</ele>
<time>2023-05-16T11:47:42Z</time>
</trkpt>
<trkpt lat="49.02053198777139" lon="9.42837699316442">
<ele>333.20000000000005</ele>
<time>2023-05-16T11:47:43Z</time>
</trkpt>
<trkpt lat="49.02052796445787" lon="9.428326953202486">
<ele>333.20000000000005</ele>
<time>2023-05-16T11:47:44Z</time>
</trkpt>
<trkpt lat="49.02052293531597" lon="9.428274985402822">
<ele>333.4</ele>
<time>2023-05-16T11:47:45Z</time>
</trkpt>
<trkpt lat="49.020521929487586" lon="9.42822695709765">
<ele>333.4</ele>
<time>2023-05-16T11:47:46Z</time>
</trkpt>
<trkpt lat="49.02051195502281" lon="9.428174989297986">
<ele>333.6</ele>
<time>2023-05-16T11:47:47Z</time>
</trkpt>
<trkpt lat="49.020497957244515" lon="9.42812193185091">
<ele>333.6</ele>
<time>2023-05-16T11:47:48Z</time>
</trkpt>
<trkpt lat="49.02048295363784" lon="9.428062923252583">
<ele>333.79999999999995</ele>
<time>2023-05-16T11:47:49Z</time>
</trkpt>
<trkpt lat="49.02046795003116" lon="9.428006932139397">
<ele>334</ele>
<time>2023-05-16T11:47:50Z</time>
</trkpt>
<trkpt lat="49.02045696973801" lon="9.42794993519783">
<ele>334</ele>
<time>2023-05-16T11:47:51Z</time>
</trkpt>
<trkpt lat="49.02044699527323" lon="9.427892938256264">
<ele>334.20000000000005</ele>
<time>2023-05-16T11:47:52Z</time>
</trkpt>
<trkpt lat="49.02043995447457" lon="9.427842982113361">
<ele>334.20000000000005</ele>
<time>2023-05-16T11:47:53Z</time>
</trkpt>
<trkpt lat="49.020432997494936" lon="9.427791936323047">
<ele>334.4</ele>
<time>2023-05-16T11:47:54Z</time>
</trkpt>
<trkpt lat="49.02042696252465" lon="9.427741980180144">
<ele>334.4</ele>
<time>2023-05-16T11:47:55Z</time>
</trkpt>
<trkpt lat="49.02041992172599" lon="9.42769194021821">
<ele>334.4</ele>
<time>2023-05-16T11:47:56Z</time>
</trkpt>
<trkpt lat="49.02041497640312" lon="9.427641984075308">
<ele>334.6</ele>
<time>2023-05-16T11:47:57Z</time>
</trkpt>
<trkpt lat="49.02040793560445" lon="9.42758297547698">
<ele>334.6</ele>
<time>2023-05-16T11:47:58Z</time>
</trkpt>
<trkpt lat="49.0204019844532" lon="9.427524972707033">
<ele>334.79999999999995</ele>
<time>2023-05-16T11:47:59Z</time>
</trkpt>
<trkpt lat="49.020392931997776" lon="9.427466969937086">
<ele>334.79999999999995</ele>
<time>2023-05-16T11:48:00Z</time>
</trkpt>
<trkpt lat="49.02038195170462" lon="9.427412990480661">
<ele>335</ele>
<time>2023-05-16T11:48:01Z</time>
</trkpt>
<trkpt lat="49.02037197723985" lon="9.427357921376824">
<ele>335</ele>
<time>2023-05-16T11:48:02Z</time>
</trkpt>
<trkpt lat="49.020367953926325" lon="9.427299918606877">
<ele>335.20000000000005</ele>
<time>2023-05-16T11:48:03Z</time>
</trkpt>
<trkpt lat="49.02036292478442" lon="9.42724292166531">
<ele>335.20000000000005</ele>
<time>2023-05-16T11:48:04Z</time>
</trkpt>
<trkpt lat="49.02035697363317" lon="9.427184918895364">
<ele>335.20000000000005</ele>
<time>2023-05-16T11:48:05Z</time>
</trkpt>
<trkpt lat="49.020347921177745" lon="9.427129933610559">
<ele>335.4</ele>
<time>2023-05-16T11:48:06Z</time>
</trkpt>
<trkpt lat="49.02034197002649" lon="9.42706799134612">
<ele>335.6</ele>
<time>2023-05-16T11:48:07Z</time>
</trkpt>
<trkpt lat="49.02033199556172" lon="9.42700495943427">
<ele>335.6</ele>
<time>2023-05-16T11:48:08Z</time>
</trkpt>
<trkpt lat="49.02031992562115" lon="9.426954919472337">
<ele>335.79999999999995</ele>
<time>2023-05-16T11:48:09Z</time>
</trkpt>
<trkpt lat="49.02031992562115" lon="9.426904963329434">
<ele>335.79999999999995</ele>
<time>2023-05-16T11:48:10Z</time>
</trkpt>
<trkpt lat="49.02031799778342" lon="9.42685198970139">
<ele>336</ele>
<time>2023-05-16T11:48:11Z</time>
</trkpt>
<trkpt lat="49.02031992562115" lon="9.426799938082695">
<ele>336</ele>
<time>2023-05-16T11:48:12Z</time>
</trkpt>
<trkpt lat="49.02031699195504" lon="9.426742941141129">
<ele>336.20000000000005</ele>
<time>2023-05-16T11:48:13Z</time>
</trkpt>
<trkpt lat="49.02031498029828" lon="9.42668192088604">
<ele>336.20000000000005</ele>
<time>2023-05-16T11:48:14Z</time>
</trkpt>
<trkpt lat="49.02031498029828" lon="9.426622996106744">
<ele>336.4</ele>
<time>2023-05-16T11:48:15Z</time>
</trkpt>
<trkpt lat="49.02030995115638" lon="9.426561975851655">
<ele>336.4</ele>
<time>2023-05-16T11:48:16Z</time>
</trkpt>
<trkpt lat="49.02030995115638" lon="9.426501961424947">
<ele>336.6</ele>
<time>2023-05-16T11:48:17Z</time>
</trkpt>
<trkpt lat="49.02031296864152" lon="9.42644496448338">
<ele>336.6</ele>
<time>2023-05-16T11:48:18Z</time>
</trkpt>
<trkpt lat="49.02031699195504" lon="9.426391990855336">
<ele>336.79999999999995</ele>
<time>2023-05-16T11:48:19Z</time>
</trkpt>
<trkpt lat="49.02031699195504" lon="9.42633792757988">
<ele>337</ele>
<time>2023-05-16T11:48:20Z</time>
</trkpt>
<trkpt lat="49.02031699195504" lon="9.426282942295074">
<ele>337</ele>
<time>2023-05-16T11:48:21Z</time>
</trkpt>
<trkpt lat="49.02031498029828" lon="9.426224939525127">
<ele>337.20000000000005</ele>
<time>2023-05-16T11:48:22Z</time>
</trkpt>
<trkpt lat="49.02031799778342" lon="9.426167942583561">
<ele>337.20000000000005</ele>
<time>2023-05-16T11:48:23Z</time>
</trkpt>
<trkpt lat="49.02031799778342" lon="9.426112957298756">
<ele>337.4</ele>
<time>2023-05-16T11:48:24Z</time>
</trkpt>
<trkpt lat="49.02032193727791" lon="9.426054954528809">
<ele>337.4</ele>
<time>2023-05-16T11:48:25Z</time>
</trkpt>
<trkpt lat="49.020324954763055" lon="9.426001980900764">
<ele>337.6</ele>
<time>2023-05-16T11:48:26Z</time>
</trkpt>
<trkpt lat="49.02033199556172" lon="9.425947917625308">
<ele>337.6</ele>
<time>2023-05-16T11:48:27Z</time>
</trkpt>
<trkpt lat="49.02033794671297" lon="9.425896955654025">
<ele>337.79999999999995</ele>
<time>2023-05-16T11:48:28Z</time>
</trkpt>
<trkpt lat="49.020346999168396" lon="9.4258429761976">
<ele>338</ele>
<time>2023-05-16T11:48:29Z</time>
</trkpt>
<trkpt lat="49.02035194449127" lon="9.425787990912795">
<ele>338</ele>
<time>2023-05-16T11:48:30Z</time>
</trkpt>
<trkpt lat="49.020349932834506" lon="9.425727976486087">
<ele>338.20000000000005</ele>
<time>2023-05-16T11:48:31Z</time>
</trkpt>
<trkpt lat="49.02035295031965" lon="9.425671985372901">
<ele>338.20000000000005</ele>
<time>2023-05-16T11:48:32Z</time>
</trkpt>
<trkpt lat="49.02035797946155" lon="9.425621945410967">
<ele>338.4</ele>
<time>2023-05-16T11:48:33Z</time>
</trkpt>
<trkpt lat="49.02036493644118" lon="9.42556293681264">
<ele>338.4</ele>
<time>2023-05-16T11:48:34Z</time>
</trkpt>
<trkpt lat="49.020367953926325" lon="9.425511974841356">
<ele>338.6</ele>
<time>2023-05-16T11:48:35Z</time>
</trkpt>
<trkpt lat="49.02037298306823" lon="9.425461934879422">
<ele>338.6</ele>
<time>2023-05-16T11:48:36Z</time>
</trkpt>
<trkpt lat="49.020382957533" lon="9.42541197873652">
<ele>338.79999999999995</ele>
<time>2023-05-16T11:48:37Z</time>
</trkpt>
<trkpt lat="49.02039796113968" lon="9.42534995265305">
<ele>338.79999999999995</ele>
<time>2023-05-16T11:48:38Z</time>
</trkpt>
<trkpt lat="49.020409947261214" lon="9.425287926569581">
<ele>339</ele>
<time>2023-05-16T11:48:39Z</time>
</trkpt>
<trkpt lat="49.02042193338275" lon="9.425221960991621">
<ele>339</ele>
<time>2023-05-16T11:48:40Z</time>
</trkpt>
<trkpt lat="49.020432997494936" lon="9.425162952393293">
<ele>339.20000000000005</ele>
<time>2023-05-16T11:48:41Z</time>
</trkpt>
<trkpt lat="49.02044791728258" lon="9.425104949623346">
<ele>339.20000000000005</ele>
<time>2023-05-16T11:48:42Z</time>
</trkpt>
<trkpt lat="49.02046795003116" lon="9.425041917711496">
<ele>339.4</ele>
<time>2023-05-16T11:48:43Z</time>
</trkpt>
<trkpt lat="49.02048295363784" lon="9.4249829929322">
<ele>339.4</ele>
<time>2023-05-16T11:48:44Z</time>
</trkpt>
<trkpt lat="49.02050198055804" lon="9.424924990162253">
<ele>339.6</ele>
<time>2023-05-16T11:48:45Z</time>
</trkpt>
<trkpt lat="49.020517989993095" lon="9.42487495020032">
<ele>339.6</ele>
<time>2023-05-16T11:48:46Z</time>
</trkpt>
<trkpt lat="49.02053299359977" lon="9.424816947430372">
<ele>339.79999999999995</ele>
<time>2023-05-16T11:48:47Z</time>
</trkpt>
<trkpt lat="49.02055193670094" lon="9.424762967973948">
<ele>340</ele>
<time>2023-05-16T11:48:48Z</time>
</trkpt>
<trkpt lat="49.020567946136" lon="9.424707982689142">
<ele>340</ele>
<time>2023-05-16T11:48:49Z</time>
</trkpt>
<trkpt lat="49.020582949742675" lon="9.424656936898828">
<ele>340.20000000000005</ele>
<time>2023-05-16T11:48:50Z</time>
</trkpt>
<trkpt lat="49.02059795334935" lon="9.424604969099164">
<ele>340.20000000000005</ele>
<time>2023-05-16T11:48:51Z</time>
</trkpt>
<trkpt lat="49.02061496861279" lon="9.424556940793991">
<ele>340.4</ele>
<time>2023-05-16T11:48:52Z</time>
</trkpt>
<trkpt lat="49.020627960562706" lon="9.424509918317199">
<ele>340.6</ele>
<time>2023-05-16T11:48:53Z</time>
</trkpt>
<trkpt lat="49.020646987482905" lon="9.424461973831058">
<ele>340.6</ele>
<time>2023-05-16T11:48:54Z</time>
</trkpt>
<trkpt lat="49.02066492475569" lon="9.424409922212362">
<ele>340.79999999999995</ele>
<time>2023-05-16T11:48:55Z</time>
</trkpt>
<trkpt lat="49.02068194001913" lon="9.424361977726221">
<ele>340.79999999999995</ele>
<time>2023-05-16T11:48:56Z</time>
</trkpt>
<trkpt lat="49.02069694362581" lon="9.424314955249429">
<ele>341</ele>
<time>2023-05-16T11:48:57Z</time>
</trkpt>
<trkpt lat="49.020712953060865" lon="9.424267932772636">
<ele>341</ele>
<time>2023-05-16T11:48:58Z</time>
</trkpt>
<trkpt lat="49.020729968324304" lon="9.424221999943256">
<ele>341.20000000000005</ele>
<time>2023-05-16T11:48:59Z</time>
</trkpt>
<trkpt lat="49.02075192891061" lon="9.424174977466464">
<ele>341.4</ele>
<time>2023-05-16T11:49:00Z</time>
</trkpt>
<trkpt lat="49.02076995000243" lon="9.424129966646433">
<ele>341.4</ele>
<time>2023-05-16T11:49:01Z</time>
</trkpt>
<trkpt lat="49.02079199440777" lon="9.424079926684499">
<ele>341.6</ele>
<time>2023-05-16T11:49:02Z</time>
</trkpt>
<trkpt lat="49.0208129491657" lon="9.424029970541596">
<ele>341.6</ele>
<time>2023-05-16T11:49:03Z</time>
</trkpt>
<trkpt lat="49.02083298191428" lon="9.423979930579662">
<ele>341.79999999999995</ele>
<time>2023-05-16T11:49:04Z</time>
</trkpt>
<trkpt lat="49.02085494250059" lon="9.423931986093521">
<ele>341.79999999999995</ele>
<time>2023-05-16T11:49:05Z</time>
</trkpt>
<trkpt lat="49.02087296359241" lon="9.423882951959968">
<ele>342</ele>
<time>2023-05-16T11:49:06Z</time>
</trkpt>
<trkpt lat="49.02089299634099" lon="9.423837941139936">
<ele>342</ele>
<time>2023-05-16T11:49:07Z</time>
</trkpt>
<trkpt lat="49.0209149569273" lon="9.423789996653795">
<ele>342.20000000000005</ele>
<time>2023-05-16T11:49:08Z</time>
</trkpt>
<trkpt lat="49.02093691751361" lon="9.4237379450351">
<ele>342.4</ele>
<time>2023-05-16T11:49:09Z</time>
</trkpt>
<trkpt lat="49.02095493860543" lon="9.423686983063817">
<ele>342.4</ele>
<time>2023-05-16T11:49:10Z</time>
</trkpt>
<trkpt lat="49.020971953868866" lon="9.423634931445122">
<ele>342.6</ele>
<time>2023-05-16T11:49:11Z</time>
</trkpt>
<trkpt lat="49.020987963303924" lon="9.423592938110232">
<ele>342.6</ele>
<time>2023-05-16T11:49:12Z</time>
</trkpt>
<trkpt lat="49.02100699022412" lon="9.423551950603724">
<ele>342.79999999999995</ele>
<time>2023-05-16T11:49:13Z</time>
</trkpt>
<trkpt lat="49.0210219938308" lon="9.423509957268834">
<ele>343</ele>
<time>2023-05-16T11:49:14Z</time>
</trkpt>
<trkpt lat="49.021037919446826" lon="9.423472993075848">
<ele>343</ele>
<time>2023-05-16T11:49:15Z</time>
</trkpt>
<trkpt lat="49.021056946367025" lon="9.42343695089221">
<ele>343.20000000000005</ele>
<time>2023-05-16T11:49:16Z</time>
</trkpt>
<trkpt lat="49.021077984943986" lon="9.423402920365334">
<ele>343.20000000000005</ele>
<time>2023-05-16T11:49:17Z</time>
</trkpt>
<trkpt lat="49.02109491638839" lon="9.423366962000728">
<ele>343.4</ele>
<time>2023-05-16T11:49:18Z</time>
</trkpt>
<trkpt lat="49.021116960793734" lon="9.423319939523935">
<ele>343.6</ele>
<time>2023-05-16T11:49:19Z</time>
</trkpt>
<trkpt lat="49.02113196440041" lon="9.423274928703904">
<ele>343.6</ele>
<time>2023-05-16T11:49:20Z</time>
</trkpt>
<trkpt lat="49.02114998549223" lon="9.423229917883873">
<ele>343.79999999999995</ele>
<time>2023-05-16T11:49:21Z</time>
</trkpt>
<trkpt lat="49.021166916936636" lon="9.42317996174097">
<ele>343.79999999999995</ele>
<time>2023-05-16T11:49:22Z</time>
</trkpt>
<trkpt lat="49.021179992705584" lon="9.423131933435798">
<ele>344</ele>
<time>2023-05-16T11:49:23Z</time>
</trkpt>
<trkpt lat="49.02119197882712" lon="9.423074936494231">
<ele>344</ele>
<time>2023-05-16T11:49:24Z</time>
</trkpt>
<trkpt lat="49.021204970777035" lon="9.423019951209426">
<ele>344.20000000000005</ele>
<time>2023-05-16T11:49:25Z</time>
</trkpt>
<trkpt lat="49.02122198604047" lon="9.422977957874537">
<ele>344.20000000000005</ele>
<time>2023-05-16T11:49:26Z</time>
</trkpt>
<trkpt lat="49.0212429407984" lon="9.422927917912602">
<ele>344.4</ele>
<time>2023-05-16T11:49:27Z</time>
</trkpt>
<trkpt lat="49.02126297354698" lon="9.422861952334642">
<ele>344.6</ele>
<time>2023-05-16T11:49:28Z</time>
</trkpt>
<trkpt lat="49.02128191664815" lon="9.422802943736315">
<ele>344.6</ele>
<time>2023-05-16T11:49:29Z</time>
</trkpt>
<trkpt lat="49.021292980760336" lon="9.42274997010827">
<ele>344.79999999999995</ele>
<time>2023-05-16T11:49:30Z</time>
</trkpt>
<trkpt lat="49.02129993773997" lon="9.422694984823465">
<ele>344.79999999999995</ele>
<time>2023-05-16T11:49:31Z</time>
</trkpt>
<trkpt lat="49.02130798436701" lon="9.422631952911615">
<ele>345</ele>
<time>2023-05-16T11:49:32Z</time>
</trkpt>
<trkpt lat="49.02131795883179" lon="9.422564981505275">
<ele>345</ele>
<time>2023-05-16T11:49:33Z</time>
</trkpt>
<trkpt lat="49.021331956610084" lon="9.422501949593425">
<ele>345.20000000000005</ele>
<time>2023-05-16T11:49:34Z</time>
</trkpt>
<trkpt lat="49.02134494856" lon="9.422441935166717">
<ele>345.20000000000005</ele>
<time>2023-05-16T11:49:35Z</time>
</trkpt>
<trkpt lat="49.02135995216668" lon="9.422382926568389">
<ele>345.4</ele>
<time>2023-05-16T11:49:36Z</time>
</trkpt>
<trkpt lat="49.02136992663145" lon="9.422332970425487">
<ele>345.4</ele>
<time>2023-05-16T11:49:37Z</time>
</trkpt>
<trkpt lat="49.02137998491526" lon="9.422272955998778">
<ele>345.4</ele>
<time>2023-05-16T11:49:38Z</time>
</trkpt>
<trkpt lat="49.02138291858137" lon="9.422217970713973">
<ele>345.6</ele>
<time>2023-05-16T11:49:39Z</time>
</trkpt>
<trkpt lat="49.02138694189489" lon="9.422166924923658">
<ele>345.6</ele>
<time>2023-05-16T11:49:40Z</time>
</trkpt>
<trkpt lat="49.02138794772327" lon="9.42210791632533">
<ele>345.79999999999995</ele>
<time>2023-05-16T11:49:41Z</time>
</trkpt>
<trkpt lat="49.02138694189489" lon="9.422044968232512">
<ele>345.79999999999995</ele>
<time>2023-05-16T11:49:42Z</time>
</trkpt>
<trkpt lat="49.02138794772327" lon="9.421986965462565">
<ele>346</ele>
<time>2023-05-16T11:49:43Z</time>
</trkpt>
<trkpt lat="49.02138291858137" lon="9.42193198017776">
<ele>346.20000000000005</ele>
<time>2023-05-16T11:49:44Z</time>
</trkpt>
<trkpt lat="49.021374955773354" lon="9.421871965751052">
<ele>346.20000000000005</ele>
<time>2023-05-16T11:49:45Z</time>
</trkpt>
<trkpt lat="49.02137193828821" lon="9.421811951324344">
<ele>346.4</ele>
<time>2023-05-16T11:49:46Z</time>
</trkpt>
<trkpt lat="49.02136799879372" lon="9.421756966039538">
<ele>346.6</ele>
<time>2023-05-16T11:49:47Z</time>
</trkpt>
<trkpt lat="49.02136196382344" lon="9.421707931905985">
<ele>346.6</ele>
<time>2023-05-16T11:49:48Z</time>
</trkpt>
<trkpt lat="49.02136196382344" lon="9.42165495827794">
<ele>346.79999999999995</ele>
<time>2023-05-16T11:49:49Z</time>
</trkpt>
<trkpt lat="49.02136498130858" lon="9.421599972993135">
<ele>347</ele>
<time>2023-05-16T11:49:50Z</time>
</trkpt>
<trkpt lat="49.02137193828821" lon="9.421541970223188">
<ele>347</ele>
<time>2023-05-16T11:49:51Z</time>
</trkpt>
<trkpt lat="49.02137294411659" lon="9.421484973281622">
<ele>347.20000000000005</ele>
<time>2023-05-16T11:49:52Z</time>
</trkpt>
<trkpt lat="49.021376967430115" lon="9.421422947198153">
<ele>347.20000000000005</ele>
<time>2023-05-16T11:49:53Z</time>
</trkpt>
<trkpt lat="49.02137998491526" lon="9.421354969963431">
<ele>347.4</ele>
<time>2023-05-16T11:49:54Z</time>
</trkpt>
<trkpt lat="49.02138995938003" lon="9.42128992639482">
<ele>347.4</ele>
<time>2023-05-16T11:49:55Z</time>
</trkpt>
<trkpt lat="49.02139691635966" lon="9.42122496664524">
<ele>347.6</ele>
<time>2023-05-16T11:49:56Z</time>
</trkpt>
<trkpt lat="49.021399933844805" lon="9.421167969703674">
<ele>347.6</ele>
<time>2023-05-16T11:49:57Z</time>
</trkpt>
<trkpt lat="49.02140295132995" lon="9.421109966933727">
<ele>347.79999999999995</ele>
<time>2023-05-16T11:49:58Z</time>
</trkpt>
<trkpt lat="49.02140496298671" lon="9.42105196416378">
<ele>347.79999999999995</ele>
<time>2023-05-16T11:49:59Z</time>
</trkpt>
<trkpt lat="49.02141191996634" lon="9.420994967222214">
<ele>348</ele>
<time>2023-05-16T11:50:00Z</time>
</trkpt>
<trkpt lat="49.02141694910824" lon="9.420932941138744">
<ele>348.20000000000005</ele>
<time>2023-05-16T11:50:01Z</time>
</trkpt>
<trkpt lat="49.02142298407853" lon="9.420874938368797">
<ele>348.20000000000005</ele>
<time>2023-05-16T11:50:02Z</time>
</trkpt>
<trkpt lat="49.02143195271492" lon="9.420821964740753">
<ele>348.4</ele>
<time>2023-05-16T11:50:03Z</time>
</trkpt>
<trkpt lat="49.0214379876852" lon="9.42076999694109">
<ele>348.4</ele>
<time>2023-05-16T11:50:04Z</time>
</trkpt>
<trkpt lat="49.021442933008075" lon="9.420711994171143">
<ele>348.6</ele>
<time>2023-05-16T11:50:05Z</time>
</trkpt>
<trkpt lat="49.021442933008075" lon="9.420647956430912">
<ele>348.6</ele>
<time>2023-05-16T11:50:06Z</time>
</trkpt>
<trkpt lat="49.02144997380674" lon="9.420586936175823">
<ele>348.79999999999995</ele>
<time>2023-05-16T11:50:07Z</time>
</trkpt>
<trkpt lat="49.02145693078637" lon="9.420527927577496">
<ele>349</ele>
<time>2023-05-16T11:50:08Z</time>
</trkpt>
<trkpt lat="49.02145994827151" lon="9.42047193646431">
<ele>349.20000000000005</ele>
<time>2023-05-16T11:50:09Z</time>
</trkpt>
<trkpt lat="49.02145994827151" lon="9.420412927865982">
<ele>349.20000000000005</ele>
<time>2023-05-16T11:50:10Z</time>
</trkpt>
<trkpt lat="49.02146698907018" lon="9.420354925096035">
<ele>349.4</ele>
<time>2023-05-16T11:50:11Z</time>
</trkpt>
<trkpt lat="49.021464977413416" lon="9.42029993981123">
<ele>349.4</ele>
<time>2023-05-16T11:50:12Z</time>
</trkpt>
<trkpt lat="49.02146992273629" lon="9.420236991718411">
<ele>349.6</ele>
<time>2023-05-16T11:50:13Z</time>
</trkpt>
<trkpt lat="49.02147294022143" lon="9.42017295397818">
<ele>349.79999999999995</ele>
<time>2023-05-16T11:50:14Z</time>
</trkpt>
<trkpt lat="49.02147796936333" lon="9.420102965086699">
<ele>349.79999999999995</ele>
<time>2023-05-16T11:50:15Z</time>
</trkpt>
<trkpt lat="49.02147998102009" lon="9.420037921518087">
<ele>350</ele>
<time>2023-05-16T11:50:16Z</time>
</trkpt>
<trkpt lat="49.021481992676854" lon="9.41997991874814">
<ele>350.20000000000005</ele>
<time>2023-05-16T11:50:17Z</time>
</trkpt>
<trkpt lat="49.021481992676854" lon="9.419924933463335">
<ele>350.4</ele>
<time>2023-05-16T11:50:18Z</time>
</trkpt>
<trkpt lat="49.021481992676854" lon="9.419867936521769">
<ele>350.4</ele>
<time>2023-05-16T11:50:19Z</time>
</trkpt>
<trkpt lat="49.02147998102009" lon="9.41980691626668">
<ele>350.6</ele>
<time>2023-05-16T11:50:20Z</time>
</trkpt>
<trkpt lat="49.02147998102009" lon="9.419749919325113">
<ele>350.79999999999995</ele>
<time>2023-05-16T11:50:21Z</time>
</trkpt>
<trkpt lat="49.021482998505235" lon="9.419694934040308">
<ele>350.79999999999995</ele>
<time>2023-05-16T11:50:22Z</time>
</trkpt>
<trkpt lat="49.02147696353495" lon="9.41963198594749">
<ele>351</ele>
<time>2023-05-16T11:50:23Z</time>
</trkpt>
<trkpt lat="49.021462965756655" lon="9.419564930722117">
<ele>351</ele>
<time>2023-05-16T11:50:24Z</time>
</trkpt>
<trkpt lat="49.021442933008075" lon="9.419499970972538">
<ele>351.20000000000005</ele>
<time>2023-05-16T11:50:25Z</time>
</trkpt>
<trkpt lat="49.02142499573529" lon="9.419441968202591">
<ele>351.4</ele>
<time>2023-05-16T11:50:26Z</time>
</trkpt>
<trkpt lat="49.02140798047185" lon="9.419389916583896">
<ele>351.4</ele>
<time>2023-05-16T11:50:27Z</time>
</trkpt>
<trkpt lat="49.02139197103679" lon="9.419339960440993">
<ele>351.6</ele>
<time>2023-05-16T11:50:28Z</time>
</trkpt>
<trkpt lat="49.021376967430115" lon="9.41928799264133">
<ele>351.79999999999995</ele>
<time>2023-05-16T11:50:29Z</time>
</trkpt>
<trkpt lat="49.021357940509915" lon="9.419232923537493">
<ele>351.79999999999995</ele>
<time>2023-05-16T11:50:30Z</time>
</trkpt>
<trkpt lat="49.02133799158037" lon="9.419174920767546">
<ele>352</ele>
<time>2023-05-16T11:50:31Z</time>
</trkpt>
<trkpt lat="49.02132198214531" lon="9.41911792382598">
<ele>352</ele>
<time>2023-05-16T11:50:32Z</time>
</trkpt>
<trkpt lat="49.021311923861504" lon="9.419066961854696">
<ele>352.20000000000005</ele>
<time>2023-05-16T11:50:33Z</time>
</trkpt>
<trkpt lat="49.02129792608321" lon="9.419017927721143">
<ele>352.20000000000005</ele>
<time>2023-05-16T11:50:34Z</time>
</trkpt>
<trkpt lat="49.02128795161843" lon="9.41896696574986">
<ele>352.4</ele>
<time>2023-05-16T11:50:35Z</time>
</trkpt>
<trkpt lat="49.021272948011756" lon="9.418914997950196">
<ele>352.4</ele>
<time>2023-05-16T11:50:36Z</time>
</trkpt>
<trkpt lat="49.02125995606184" lon="9.41885992884636">
<ele>352.6</ele>
<time>2023-05-16T11:50:37Z</time>
</trkpt>
<trkpt lat="49.021247969940305" lon="9.418799998238683">
<ele>352.6</ele>
<time>2023-05-16T11:50:38Z</time>
</trkpt>
<trkpt lat="49.02123799547553" lon="9.418746940791607">
<ele>352.79999999999995</ele>
<time>2023-05-16T11:50:39Z</time>
</trkpt>
<trkpt lat="49.021227937191725" lon="9.418686926364899">
<ele>353</ele>
<time>2023-05-16T11:50:40Z</time>
</trkpt>
<trkpt lat="49.02121997438371" lon="9.418629929423332">
<ele>353</ele>
<time>2023-05-16T11:50:41Z</time>
</trkpt>
<trkpt lat="49.02121695689857" lon="9.418577961623669">
<ele>353.20000000000005</ele>
<time>2023-05-16T11:50:42Z</time>
</trkpt>
<trkpt lat="49.021206982433796" lon="9.418532950803638">
<ele>353.20000000000005</ele>
<time>2023-05-16T11:50:43Z</time>
</trkpt>
<trkpt lat="49.0211929846555" lon="9.418479977175593">
<ele>353.4</ele>
<time>2023-05-16T11:50:44Z</time>
</trkpt>
<trkpt lat="49.0211879555136" lon="9.418419962748885">
<ele>353.6</ele>
<time>2023-05-16T11:50:45Z</time>
</trkpt>
<trkpt lat="49.021182926371694" lon="9.418359948322177">
<ele>353.6</ele>
<time>2023-05-16T11:50:46Z</time>
</trkpt>
<trkpt lat="49.02117798104882" lon="9.418307980522513">
<ele>353.79999999999995</ele>
<time>2023-05-16T11:50:47Z</time>
</trkpt>
<trkpt lat="49.02116993442178" lon="9.418254923075438">
<ele>354</ele>
<time>2023-05-16T11:50:48Z</time>
</trkpt>
<trkpt lat="49.021159959957004" lon="9.418206978589296">
<ele>354</ele>
<time>2023-05-16T11:50:49Z</time>
</trkpt>
<trkpt lat="49.0211549308151" lon="9.418159956112504">
<ele>354.20000000000005</ele>
<time>2023-05-16T11:50:50Z</time>
</trkpt>
<trkpt lat="49.02114696800709" lon="9.41810798831284">
<ele>354.4</ele>
<time>2023-05-16T11:50:51Z</time>
</trkpt>
<trkpt lat="49.02113297022879" lon="9.418047973886132">
<ele>354.4</ele>
<time>2023-05-16T11:50:52Z</time>
</trkpt>
<trkpt lat="49.02112299576402" lon="9.417992988601327">
<ele>354.6</ele>
<time>2023-05-16T11:50:53Z</time>
</trkpt>
<trkpt lat="49.021117966622114" lon="9.417939931154251">
<ele>354.79999999999995</ele>
<time>2023-05-16T11:50:54Z</time>
</trkpt>
<trkpt lat="49.02110698632896" lon="9.41789198666811">
<ele>355</ele>
<time>2023-05-16T11:50:55Z</time>
</trkpt>
<trkpt lat="49.021097933873534" lon="9.417836917564273">
<ele>355</ele>
<time>2023-05-16T11:50:56Z</time>
</trkpt>
<trkpt lat="49.02108695358038" lon="9.41778696142137">
<ele>355.20000000000005</ele>
<time>2023-05-16T11:50:57Z</time>
</trkpt>
<trkpt lat="49.02106792666018" lon="9.417729964479804">
<ele>355.4</ele>
<time>2023-05-16T11:50:58Z</time>
</trkpt>
<trkpt lat="49.0210529230535" lon="9.417681936174631">
<ele>355.4</ele>
<time>2023-05-16T11:50:59Z</time>
</trkpt>
<trkpt lat="49.02104797773063" lon="9.417626950889826">
<ele>355.6</ele>
<time>2023-05-16T11:51:00Z</time>
</trkpt>
<trkpt lat="49.021034985780716" lon="9.41756995394826">
<ele>355.79999999999995</ele>
<time>2023-05-16T11:51:01Z</time>
</trkpt>
<trkpt lat="49.021031968295574" lon="9.41750692203641">
<ele>355.79999999999995</ele>
<time>2023-05-16T11:51:02Z</time>
</trkpt>
<trkpt lat="49.02102995663881" lon="9.417446991428733">
<ele>356</ele>
<time>2023-05-16T11:51:03Z</time>
</trkpt>
<trkpt lat="49.02103699743748" lon="9.417386977002025">
<ele>356.20000000000005</ele>
<time>2023-05-16T11:51:04Z</time>
</trkpt>
<trkpt lat="49.02103993110359" lon="9.417327968403697">
<ele>356.4</ele>
<time>2023-05-16T11:51:05Z</time>
</trkpt>
<trkpt lat="49.02105191722512" lon="9.41726996563375">
<ele>356.4</ele>
<time>2023-05-16T11:51:06Z</time>
</trkpt>
<trkpt lat="49.02106197550893" lon="9.41720793955028">
<ele>356.6</ele>
<time>2023-05-16T11:51:07Z</time>
</trkpt>
<trkpt lat="49.02106792666018" lon="9.417151948437095">
<ele>356.79999999999995</ele>
<time>2023-05-16T11:51:08Z</time>
</trkpt>
<trkpt lat="49.02107295580208" lon="9.41709796898067">
<ele>356.79999999999995</ele>
<time>2023-05-16T11:51:09Z</time>
</trkpt>
<trkpt lat="49.02108192443848" lon="9.417037954553962">
<ele>357</ele>
<time>2023-05-16T11:51:10Z</time>
</trkpt>
<trkpt lat="49.02109198272228" lon="9.416976934298873">
<ele>357.20000000000005</ele>
<time>2023-05-16T11:51:11Z</time>
</trkpt>
<trkpt lat="49.02109298855066" lon="9.416921949014068">
<ele>357.4</ele>
<time>2023-05-16T11:51:12Z</time>
</trkpt>
<trkpt lat="49.02108997106552" lon="9.416864952072501">
<ele>357.4</ele>
<time>2023-05-16T11:51:13Z</time>
</trkpt>
<trkpt lat="49.02108192443848" lon="9.416804937645793">
<ele>357.6</ele>
<time>2023-05-16T11:51:14Z</time>
</trkpt>
<trkpt lat="49.02108494192362" lon="9.416739977896214">
<ele>357.79999999999995</ele>
<time>2023-05-16T11:51:15Z</time>
</trkpt>
<trkpt lat="49.02108695358038" lon="9.416662948206067">
<ele>357.79999999999995</ele>
<time>2023-05-16T11:51:16Z</time>
</trkpt>
<trkpt lat="49.02108192443848" lon="9.416586924344301">
<ele>358</ele>
<time>2023-05-16T11:51:17Z</time>
</trkpt>
<trkpt lat="49.02108695358038" lon="9.416521964594722">
<ele>358.20000000000005</ele>
<time>2023-05-16T11:51:18Z</time>
</trkpt>
<trkpt lat="49.021096928045154" lon="9.41645692102611">
<ele>358.4</ele>
<time>2023-05-16T11:51:19Z</time>
</trkpt>
<trkpt lat="49.021099945530295" lon="9.416387937963009">
<ele>358.4</ele>
<time>2023-05-16T11:51:20Z</time>
</trkpt>
<trkpt lat="49.02110195718706" lon="9.41632297821343">
<ele>358.6</ele>
<time>2023-05-16T11:51:21Z</time>
</trkpt>
<trkpt lat="49.021099945530295" lon="9.416254917159677">
<ele>358.79999999999995</ele>
<time>2023-05-16T11:51:22Z</time>
</trkpt>
<trkpt lat="49.0211049746722" lon="9.416189957410097">
<ele>359</ele>
<time>2023-05-16T11:51:23Z</time>
</trkpt>
<trkpt lat="49.02111293748021" lon="9.416119968518615">
<ele>359</ele>
<time>2023-05-16T11:51:24Z</time>
</trkpt>
<trkpt lat="49.021119978278875" lon="9.416051991283894">
<ele>359.20000000000005</ele>
<time>2023-05-16T11:51:25Z</time>
</trkpt>
<trkpt lat="49.02112492360175" lon="9.415992982685566">
<ele>359.4</ele>
<time>2023-05-16T11:51:26Z</time>
</trkpt>
<trkpt lat="49.02113297022879" lon="9.415934979915619">
<ele>359.6</ele>
<time>2023-05-16T11:51:27Z</time>
</trkpt>
<trkpt lat="49.021142944693565" lon="9.41587295383215">
<ele>359.6</ele>
<time>2023-05-16T11:51:28Z</time>
</trkpt>
<trkpt lat="49.02115291915834" lon="9.41580698825419">
<ele>359.79999999999995</ele>
<time>2023-05-16T11:51:29Z</time>
</trkpt>
<trkpt lat="49.021162977442145" lon="9.415729958564043">
<ele>360</ele>
<time>2023-05-16T11:51:30Z</time>
</trkpt>
<trkpt lat="49.02117194607854" lon="9.415666926652193">
<ele>360.20000000000005</ele>
<time>2023-05-16T11:51:31Z</time>
</trkpt>
<trkpt lat="49.02117798104882" lon="9.415609929710627">
<ele>360.20000000000005</ele>
<time>2023-05-16T11:51:32Z</time>
</trkpt>
<trkpt lat="49.02118996717036" lon="9.415547987446189">
<ele>360.4</ele>
<time>2023-05-16T11:51:33Z</time>
</trkpt>
<trkpt lat="49.02119692414999" lon="9.415489984676242">
<ele>360.6</ele>
<time>2023-05-16T11:51:34Z</time>
</trkpt>
<trkpt lat="49.021204970777035" lon="9.415436927229166">
<ele>360.6</ele>
<time>2023-05-16T11:51:35Z</time>
</trkpt>
<trkpt lat="49.02121293358505" lon="9.415377918630838">
<ele>360.79999999999995</ele>
<time>2023-05-16T11:51:36Z</time>
</trkpt>
<trkpt lat="49.021222991868854" lon="9.415326956659555">
<ele>361</ele>
<time>2023-05-16T11:51:37Z</time>
</trkpt>
<trkpt lat="49.02123196050525" lon="9.415276916697621">
<ele>361.20000000000005</ele>
<time>2023-05-16T11:51:38Z</time>
</trkpt>
<trkpt lat="49.02124193497002" lon="9.415221931412816">
<ele>361.20000000000005</ele>
<time>2023-05-16T11:51:39Z</time>
</trkpt>
<trkpt lat="49.02125199325383" lon="9.415167951956391">
<ele>361.4</ele>
<time>2023-05-16T11:51:40Z</time>
</trkpt>
<trkpt lat="49.02126297354698" lon="9.415102992206812">
<ele>361.6</ele>
<time>2023-05-16T11:51:41Z</time>
</trkpt>
<trkpt lat="49.02127495966852" lon="9.415041971951723">
<ele>361.79999999999995</ele>
<time>2023-05-16T11:51:42Z</time>
</trkpt>
<trkpt lat="49.02128795161843" lon="9.414979945868254">
<ele>362</ele>
<time>2023-05-16T11:51:43Z</time>
</trkpt>
<trkpt lat="49.02129993773997" lon="9.414924960583448">
<ele>362</ele>
<time>2023-05-16T11:51:44Z</time>
</trkpt>
<trkpt lat="49.021311923861504" lon="9.414871986955404">
<ele>362.20000000000005</ele>
<time>2023-05-16T11:51:45Z</time>
</trkpt>
<trkpt lat="49.02132198214531" lon="9.414807949215174">
<ele>362.4</ele>
<time>2023-05-16T11:51:46Z</time>
</trkpt>
<trkpt lat="49.021332962438464" lon="9.41475497558713">
<ele>362.6</ele>
<time>2023-05-16T11:51:47Z</time>
</trkpt>
<trkpt lat="49.02134494856" lon="9.414697978645563">
<ele>362.6</ele>
<time>2023-05-16T11:51:48Z</time>
</trkpt>
<trkpt lat="49.021352995187044" lon="9.414636958390474">
<ele>362.79999999999995</ele>
<time>2023-05-16T11:51:49Z</time>
</trkpt>
<trkpt lat="49.02136296965182" lon="9.414581973105669">
<ele>363</ele>
<time>2023-05-16T11:51:50Z</time>
</trkpt>
<trkpt lat="49.021374955773354" lon="9.414529921486974">
<ele>363</ele>
<time>2023-05-16T11:51:51Z</time>
</trkpt>
<trkpt lat="49.02138694189489" lon="9.41447694785893">
<ele>363.20000000000005</ele>
<time>2023-05-16T11:51:52Z</time>
</trkpt>
<trkpt lat="49.021399933844805" lon="9.414409976452589">
<ele>363.4</ele>
<time>2023-05-16T11:51:53Z</time>
</trkpt>
<trkpt lat="49.02141292579472" lon="9.414344932883978">
<ele>363.6</ele>
<time>2023-05-16T11:51:54Z</time>
</trkpt>
<trkpt lat="49.02142499573529" lon="9.41428491845727">
<ele>363.6</ele>
<time>2023-05-16T11:51:55Z</time>
</trkpt>
<trkpt lat="49.0214379876852" lon="9.414236973971128">
<ele>364</ele>
<time>2023-05-16T11:51:56Z</time>
</trkpt>
<trkpt lat="49.0214519854635" lon="9.414184922352433">
<ele>364.20000000000005</ele>
<time>2023-05-16T11:51:57Z</time>
</trkpt>
<trkpt lat="49.02146698907018" lon="9.414129937067628">
<ele>364.20000000000005</ele>
<time>2023-05-16T11:51:58Z</time>
</trkpt>
<trkpt lat="49.02147796936333" lon="9.414077969267964">
<ele>364.4</ele>
<time>2023-05-16T11:51:59Z</time>
</trkpt>
<trkpt lat="49.02149699628353" lon="9.414014937356114">
<ele>364.6</ele>
<time>2023-05-16T11:52:00Z</time>
</trkpt>
<trkpt lat="49.021507976576686" lon="9.413956934586167">
<ele>364.6</ele>
<time>2023-05-16T11:52:01Z</time>
</trkpt>
<trkpt lat="49.021527925506234" lon="9.41389792598784">
<ele>364.79999999999995</ele>
<time>2023-05-16T11:52:02Z</time>
</trkpt>
<trkpt lat="49.02154494076967" lon="9.413842940703034">
<ele>364.79999999999995</ele>
<time>2023-05-16T11:52:03Z</time>
</trkpt>
<trkpt lat="49.02156296186149" lon="9.413786949589849">
<ele>365</ele>
<time>2023-05-16T11:52:04Z</time>
</trkpt>
<trkpt lat="49.02158299461007" lon="9.413731964305043">
<ele>365</ele>
<time>2023-05-16T11:52:05Z</time>
</trkpt>
<trkpt lat="49.02160797268152" lon="9.41367999650538">
<ele>365.20000000000005</ele>
<time>2023-05-16T11:52:06Z</time>
</trkpt>
<trkpt lat="49.02163194492459" lon="9.413629956543446">
<ele>365.4</ele>
<time>2023-05-16T11:52:07Z</time>
</trkpt>
<trkpt lat="49.021654995158315" lon="9.413577988743782">
<ele>365.6</ele>
<time>2023-05-16T11:52:08Z</time>
</trkpt>
<trkpt lat="49.021676955744624" lon="9.413527948781848">
<ele>365.79999999999995</ele>
<time>2023-05-16T11:52:09Z</time>
</trkpt>
<trkpt lat="49.021697994321585" lon="9.413481932133436">
<ele>365.79999999999995</ele>
<time>2023-05-16T11:52:10Z</time>
</trkpt>
<trkpt lat="49.02171794325113" lon="9.413436921313405">
<ele>366</ele>
<time>2023-05-16T11:52:11Z</time>
</trkpt>
<trkpt lat="49.02173797599971" lon="9.413386965170503">
<ele>366.20000000000005</ele>
<time>2023-05-16T11:52:12Z</time>
</trkpt>
<trkpt lat="49.02175197377801" lon="9.413329968228936">
<ele>366.20000000000005</ele>
<time>2023-05-16T11:52:13Z</time>
</trkpt>
<trkpt lat="49.02176697738469" lon="9.413274982944131">
<ele>366.4</ele>
<time>2023-05-16T11:52:14Z</time>
</trkpt>
<trkpt lat="49.02178198099136" lon="9.413219997659326">
<ele>366.6</ele>
<time>2023-05-16T11:52:15Z</time>
</trkpt>
<trkpt lat="49.02179698459804" lon="9.413164928555489">
<ele>366.79999999999995</ele>
<time>2023-05-16T11:52:16Z</time>
</trkpt>
<trkpt lat="49.0218129940331" lon="9.413114972412586">
<ele>366.79999999999995</ele>
<time>2023-05-16T11:52:17Z</time>
</trkpt>
<trkpt lat="49.02183696627617" lon="9.413066944107413">
<ele>367</ele>
<time>2023-05-16T11:52:18Z</time>
</trkpt>
<trkpt lat="49.02185699902475" lon="9.413017993792892">
<ele>367.20000000000005</ele>
<time>2023-05-16T11:52:19Z</time>
</trkpt>
<trkpt lat="49.02187795378268" lon="9.412974994629622">
<ele>367.4</ele>
<time>2023-05-16T11:52:20Z</time>
</trkpt>
<trkpt lat="49.02190192602575" lon="9.412931995466352">
<ele>367.4</ele>
<time>2023-05-16T11:52:21Z</time>
</trkpt>
<trkpt lat="49.02192992158234" lon="9.412887990474701">
<ele>367.6</ele>
<time>2023-05-16T11:52:22Z</time>
</trkpt>
<trkpt lat="49.021957917138934" lon="9.412839962169528">
<ele>367.79999999999995</ele>
<time>2023-05-16T11:52:23Z</time>
</trkpt>
<trkpt lat="49.02198297902942" lon="9.412789922207594">
<ele>367.79999999999995</ele>
<time>2023-05-16T11:52:24Z</time>
</trkpt>
<trkpt lat="49.02200695127249" lon="9.412744995206594">
<ele>368</ele>
<time>2023-05-16T11:52:25Z</time>
</trkpt>
<trkpt lat="49.02202991768718" lon="9.412696966901422">
<ele>368</ele>
<time>2023-05-16T11:52:26Z</time>
</trkpt>
<trkpt lat="49.02205196209252" lon="9.412647932767868">
<ele>368.20000000000005</ele>
<time>2023-05-16T11:52:27Z</time>
</trkpt>
<trkpt lat="49.02207492850721" lon="9.412601999938488">
<ele>368.4</ele>
<time>2023-05-16T11:52:28Z</time>
</trkpt>
<trkpt lat="49.02209797874093" lon="9.412557994946837">
<ele>368.4</ele>
<time>2023-05-16T11:52:29Z</time>
</trkpt>
<trkpt lat="49.02212496846914" lon="9.412516923621297">
<ele>368.4</ele>
<time>2023-05-16T11:52:30Z</time>
</trkpt>
<trkpt lat="49.022149946540594" lon="9.412471996620297">
<ele>368.6</ele>
<time>2023-05-16T11:52:31Z</time>
</trkpt>
<trkpt lat="49.022169979289174" lon="9.412421956658363">
<ele>368.6</ele>
<time>2023-05-16T11:52:32Z</time>
</trkpt>
<trkpt lat="49.02218992821872" lon="9.412367977201939">
<ele>368.79999999999995</ele>
<time>2023-05-16T11:52:33Z</time>
</trkpt>
<trkpt lat="49.02220794931054" lon="9.412317937240005">
<ele>369</ele>
<time>2023-05-16T11:52:34Z</time>
</trkpt>
<trkpt lat="49.02222999371588" lon="9.412272926419973">
<ele>369</ele>
<time>2023-05-16T11:52:35Z</time>
</trkpt>
<trkpt lat="49.02224692516029" lon="9.412226993590593">
<ele>369.20000000000005</ele>
<time>2023-05-16T11:52:36Z</time>
</trkpt>
<trkpt lat="49.02226997539401" lon="9.41217795945704">
<ele>369.20000000000005</ele>
<time>2023-05-16T11:52:37Z</time>
</trkpt>
<trkpt lat="49.0222929418087" lon="9.412124985828996">
<ele>369.4</ele>
<time>2023-05-16T11:52:38Z</time>
</trkpt>
<trkpt lat="49.02231498621404" lon="9.4120729342103">
<ele>369.6</ele>
<time>2023-05-16T11:52:39Z</time>
</trkpt>
<trkpt lat="49.02233694680035" lon="9.41202993504703">
<ele>369.6</ele>
<time>2023-05-16T11:52:40Z</time>
</trkpt>
<trkpt lat="49.0223619248718" lon="9.411987941712141">
<ele>369.79999999999995</ele>
<time>2023-05-16T11:52:41Z</time>
</trkpt>
<trkpt lat="49.022384975105524" lon="9.411936979740858">
<ele>369.79999999999995</ele>
<time>2023-05-16T11:52:42Z</time>
</trkpt>
<trkpt lat="49.02240693569183" lon="9.411882916465402">
<ele>370</ele>
<time>2023-05-16T11:52:43Z</time>
</trkpt>
<trkpt lat="49.022431997582316" lon="9.411827931180596">
<ele>370.20000000000005</ele>
<time>2023-05-16T11:52:44Z</time>
</trkpt>
<trkpt lat="49.022452952340245" lon="9.411779986694455">
<ele>370.4</ele>
<time>2023-05-16T11:52:45Z</time>
</trkpt>
<trkpt lat="49.022474996745586" lon="9.41172793507576">
<ele>370.4</ele>
<time>2023-05-16T11:52:46Z</time>
</trkpt>
<trkpt lat="49.022494945675135" lon="9.411677978932858">
<ele>370.6</ele>
<time>2023-05-16T11:52:47Z</time>
</trkpt>
<trkpt lat="49.02251296676695" lon="9.411627938970923">
<ele>370.79999999999995</ele>
<time>2023-05-16T11:52:48Z</time>
</trkpt>
<trkpt lat="49.02253492735326" lon="9.41157496534288">
<ele>370.79999999999995</ele>
<time>2023-05-16T11:52:49Z</time>
</trkpt>
<trkpt lat="49.022556971758604" lon="9.411522997543216">
<ele>371</ele>
<time>2023-05-16T11:52:50Z</time>
</trkpt>
<trkpt lat="49.02257792651653" lon="9.411471951752901">
<ele>371.20000000000005</ele>
<time>2023-05-16T11:52:51Z</time>
</trkpt>
<trkpt lat="49.022599970921874" lon="9.411422917619348">
<ele>371.4</ele>
<time>2023-05-16T11:52:52Z</time>
</trkpt>
<trkpt lat="49.022622937336564" lon="9.411374973133206">
<ele>371.6</ele>
<time>2023-05-16T11:52:53Z</time>
</trkpt>
<trkpt lat="49.022649927064776" lon="9.411322921514511">
<ele>371.79999999999995</ele>
<time>2023-05-16T11:52:54Z</time>
</trkpt>
<trkpt lat="49.02267691679299" lon="9.411272965371609">
<ele>371.79999999999995</ele>
<time>2023-05-16T11:52:55Z</time>
</trkpt>
<trkpt lat="49.02270298451185" lon="9.411226948723197">
<ele>372</ele>
<time>2023-05-16T11:52:56Z</time>
</trkpt>
<trkpt lat="49.022729974240065" lon="9.411181937903166">
<ele>372.20000000000005</ele>
<time>2023-05-16T11:52:57Z</time>
</trkpt>
<trkpt lat="49.02275796979666" lon="9.411137932911515">
<ele>372.4</ele>
<time>2023-05-16T11:52:58Z</time>
</trkpt>
<trkpt lat="49.02278294786811" lon="9.411097951233387">
<ele>372.6</ele>
<time>2023-05-16T11:52:59Z</time>
</trkpt>
<trkpt lat="49.02280993759632" lon="9.411054952070117">
<ele>372.79999999999995</ele>
<time>2023-05-16T11:53:00Z</time>
</trkpt>
<trkpt lat="49.022834999486804" lon="9.411009941250086">
<ele>373</ele>
<time>2023-05-16T11:53:01Z</time>
</trkpt>
<trkpt lat="49.0228629950434" lon="9.410961996763945">
<ele>373</ele>
<time>2023-05-16T11:53:02Z</time>
</trkpt>
<trkpt lat="49.02289199642837" lon="9.410916985943913">
<ele>373.20000000000005</ele>
<time>2023-05-16T11:53:03Z</time>
</trkpt>
<trkpt lat="49.02292191982269" lon="9.410877926275134">
<ele>373.4</ele>
<time>2023-05-16T11:53:04Z</time>
</trkpt>
<trkpt lat="49.02295293286443" lon="9.410842973738909">
<ele>373.6</ele>
<time>2023-05-16T11:53:05Z</time>
</trkpt>
<trkpt lat="49.022987969219685" lon="9.410819923505187">
<ele>373.79999999999995</ele>
<time>2023-05-16T11:53:06Z</time>
</trkpt>
<trkpt lat="49.02301697060466" lon="9.410784970968962">
<ele>373.79999999999995</ele>
<time>2023-05-16T11:53:07Z</time>
</trkpt>
<trkpt lat="49.02304697781801" lon="9.410752952098846">
<ele>374</ele>
<time>2023-05-16T11:53:08Z</time>
</trkpt>
<trkpt lat="49.02308193035424" lon="9.410724956542253">
<ele>374.20000000000005</ele>
<time>2023-05-16T11:53:09Z</time>
</trkpt>
<trkpt lat="49.02311495505273" lon="9.410697966814041">
<ele>374.4</ele>
<time>2023-05-16T11:53:10Z</time>
</trkpt>
<trkpt lat="49.02314797975123" lon="9.41067692823708">
<ele>374.4</ele>
<time>2023-05-16T11:53:11Z</time>
</trkpt>
<trkpt lat="49.02317798696458" lon="9.410647926852107">
<ele>374.6</ele>
<time>2023-05-16T11:53:12Z</time>
</trkpt>
<trkpt lat="49.02320992201567" lon="9.410617919638753">
<ele>374.79999999999995</ele>
<time>2023-05-16T11:53:13Z</time>
</trkpt>
<trkpt lat="49.02324294671416" lon="9.41058992408216">
<ele>374.79999999999995</ele>
<time>2023-05-16T11:53:14Z</time>
</trkpt>
<trkpt lat="49.02327295392752" lon="9.410562934353948">
<ele>375</ele>
<time>2023-05-16T11:53:15Z</time>
</trkpt>
<trkpt lat="49.02329994365573" lon="9.410532927140594">
<ele>375.20000000000005</ele>
<time>2023-05-16T11:53:16Z</time>
</trkpt>
<trkpt lat="49.023334980010986" lon="9.410511972382665">
<ele>375.4</ele>
<time>2023-05-16T11:53:17Z</time>
</trkpt>
<trkpt lat="49.02336792089045" lon="9.410484982654452">
<ele>375.4</ele>
<time>2023-05-16T11:53:18Z</time>
</trkpt>
<trkpt lat="49.02340496890247" lon="9.410451957955956">
<ele>375.6</ele>
<time>2023-05-16T11:53:19Z</time>
</trkpt>
<trkpt lat="49.023436987772584" lon="9.41041499376297">
<ele>375.79999999999995</ele>
<time>2023-05-16T11:53:20Z</time>
</trkpt>
<trkpt lat="49.02346699498594" lon="9.410376939922571">
<ele>376</ele>
<time>2023-05-16T11:53:21Z</time>
</trkpt>
<trkpt lat="49.02349792420864" lon="9.410339975729585">
<ele>376</ele>
<time>2023-05-16T11:53:22Z</time>
</trkpt>
<trkpt lat="49.023527931421995" lon="9.410299994051456">
<ele>376.20000000000005</ele>
<time>2023-05-16T11:53:23Z</time>
</trkpt>
<trkpt lat="49.02355492115021" lon="9.410262946039438">
<ele>376.4</ele>
<time>2023-05-16T11:53:24Z</time>
</trkpt>
<trkpt lat="49.0235829167068" lon="9.410234950482845">
<ele>376.6</ele>
<time>2023-05-16T11:53:25Z</time>
</trkpt>
<trkpt lat="49.023609990254045" lon="9.41020192578435">
<ele>376.79999999999995</ele>
<time>2023-05-16T11:53:26Z</time>
</trkpt>
<trkpt lat="49.0236399974674" lon="9.410167979076505">
<ele>377</ele>
<time>2023-05-16T11:53:27Z</time>
</trkpt>
<trkpt lat="49.02367293834686" lon="9.410144928842783">
<ele>377.20000000000005</ele>
<time>2023-05-16T11:53:28Z</time>
</trkpt>
<trkpt lat="49.02370495721698" lon="9.41011793911457">
<ele>377.4</ele>
<time>2023-05-16T11:53:29Z</time>
</trkpt>
<trkpt lat="49.02373496443033" lon="9.410089943557978">
<ele>377.6</ele>
<time>2023-05-16T11:53:30Z</time>
</trkpt>
<trkpt lat="49.023762959986925" lon="9.410056918859482">
<ele>377.79999999999995</ele>
<time>2023-05-16T11:53:31Z</time>
</trkpt>
<trkpt lat="49.02379296720028" lon="9.410024983808398">
<ele>377.79999999999995</ele>
<time>2023-05-16T11:53:32Z</time>
</trkpt>
<trkpt lat="49.023824986070395" lon="9.409994976595044">
<ele>378</ele>
<time>2023-05-16T11:53:33Z</time>
</trkpt>
<trkpt lat="49.02385692112148" lon="9.409961951896548">
<ele>378.20000000000005</ele>
<time>2023-05-16T11:53:34Z</time>
</trkpt>
<trkpt lat="49.02388692833483" lon="9.4099229760468">
<ele>378.4</ele>
<time>2023-05-16T11:53:35Z</time>
</trkpt>
<trkpt lat="49.02391995303333" lon="9.409889951348305">
<ele>378.6</ele>
<time>2023-05-16T11:53:36Z</time>
</trkpt>
<trkpt lat="49.023956917226315" lon="9.40985994413495">
<ele>378.79999999999995</ele>
<time>2023-05-16T11:53:37Z</time>
</trkpt>
<trkpt lat="49.023996982723475" lon="9.409832954406738">
<ele>379</ele>
<time>2023-05-16T11:53:38Z</time>
</trkpt>
<trkpt lat="49.024039981886744" lon="9.40981694497168">
<ele>379.20000000000005</ele>
<time>2023-05-16T11:53:39Z</time>
</trkpt>
<trkpt lat="49.02407292276621" lon="9.40979297272861">
<ele>379.4</ele>
<time>2023-05-16T11:53:40Z</time>
</trkpt>
<trkpt lat="49.024107959121466" lon="9.40977193415165">
<ele>379.6</ele>
<time>2023-05-16T11:53:41Z</time>
</trkpt>
<trkpt lat="49.02414492331445" lon="9.409747961908579">
<ele>379.79999999999995</ele>
<time>2023-05-16T11:53:42Z</time>
</trkpt>
<trkpt lat="49.02417794801295" lon="9.409719966351986">
<ele>379.79999999999995</ele>
<time>2023-05-16T11:53:43Z</time>
</trkpt>
<trkpt lat="49.02420996688306" lon="9.40968794748187">
<ele>380</ele>
<time>2023-05-16T11:53:44Z</time>
</trkpt>
<trkpt lat="49.024236956611276" lon="9.409654922783375">
<ele>380.20000000000005</ele>
<time>2023-05-16T11:53:45Z</time>
</trkpt>
<trkpt lat="49.024257995188236" lon="9.409604966640472">
<ele>380.4</ele>
<time>2023-05-16T11:53:46Z</time>
</trkpt>
<trkpt lat="49.024277944117785" lon="9.409554926678538">
<ele>380.6</ele>
<time>2023-05-16T11:53:47Z</time>
</trkpt>
<trkpt lat="49.02431197464466" lon="9.409512933343649">
<ele>380.6</ele>
<time>2023-05-16T11:53:48Z</time>
</trkpt>
<trkpt lat="49.02433695271611" lon="9.409469934180379">
<ele>380.79999999999995</ele>
<time>2023-05-16T11:53:49Z</time>
</trkpt>
<trkpt lat="49.02437198907137" lon="9.409436993300915">
<ele>381</ele>
<time>2023-05-16T11:53:50Z</time>
</trkpt>
<trkpt lat="49.02439495548606" lon="9.409396927803755">
<ele>381.20000000000005</ele>
<time>2023-05-16T11:53:51Z</time>
</trkpt>
<trkpt lat="49.02441792190075" lon="9.409346971660852">
<ele>381.20000000000005</ele>
<time>2023-05-16T11:53:52Z</time>
</trkpt>
<trkpt lat="49.02444692328572" lon="9.409307995811105">
<ele>381.4</ele>
<time>2023-05-16T11:53:53Z</time>
</trkpt>
<trkpt lat="49.024469973519444" lon="9.409262984991074">
<ele>381.6</ele>
<time>2023-05-16T11:53:54Z</time>
</trkpt>
<trkpt lat="49.024491934105754" lon="9.409219985827804">
<ele>381.79999999999995</ele>
<time>2023-05-16T11:53:55Z</time>
</trkpt>
<trkpt lat="49.02450995519757" lon="9.40916994586587">
<ele>382</ele>
<time>2023-05-16T11:53:56Z</time>
</trkpt>
<trkpt lat="49.024531999602914" lon="9.409121917560697">
<ele>382</ele>
<time>2023-05-16T11:53:57Z</time>
</trkpt>
<trkpt lat="49.024556977674365" lon="9.409074978902936">
<ele>382.20000000000005</ele>
<time>2023-05-16T11:53:58Z</time>
</trkpt>
<trkpt lat="49.024581955745816" lon="9.409026950597763">
<ele>382.4</ele>
<time>2023-05-16T11:53:59Z</time>
</trkpt>
<trkpt lat="49.024604922160506" lon="9.408981939777732">
<ele>382.6</ele>
<time>2023-05-16T11:54:00Z</time>
</trkpt>
<trkpt lat="49.024624954909086" lon="9.40893198363483">
<ele>382.6</ele>
<time>2023-05-16T11:54:01Z</time>
</trkpt>
<trkpt lat="49.02464993298054" lon="9.408884961158037">
<ele>382.79999999999995</ele>
<time>2023-05-16T11:54:02Z</time>
</trkpt>
<trkpt lat="49.024667954072356" lon="9.408832993358374">
<ele>383</ele>
<time>2023-05-16T11:54:03Z</time>
</trkpt>
<trkpt lat="49.0246899984777" lon="9.4087849650532">
<ele>383</ele>
<time>2023-05-16T11:54:04Z</time>
</trkpt>
<trkpt lat="49.02471296489239" lon="9.408737942576408">
<ele>383.20000000000005</ele>
<time>2023-05-16T11:54:05Z</time>
</trkpt>
<trkpt lat="49.02473299764097" lon="9.408689998090267">
<ele>383.4</ele>
<time>2023-05-16T11:54:06Z</time>
</trkpt>
<trkpt lat="49.024751940742135" lon="9.408641969785094">
<ele>383.6</ele>
<time>2023-05-16T11:54:07Z</time>
</trkpt>
<trkpt lat="49.02476795017719" lon="9.40859293565154">
<ele>383.6</ele>
<time>2023-05-16T11:54:08Z</time>
</trkpt>
<trkpt lat="49.02478496544063" lon="9.4085449911654">
<ele>383.79999999999995</ele>
<time>2023-05-16T11:54:09Z</time>
</trkpt>
<trkpt lat="49.02479996904731" lon="9.408496962860227">
<ele>384</ele>
<time>2023-05-16T11:54:10Z</time>
</trkpt>
<trkpt lat="49.024819917976856" lon="9.408451952040195">
<ele>384.20000000000005</ele>
<time>2023-05-16T11:54:11Z</time>
</trkpt>
<trkpt lat="49.02482997626066" lon="9.408406941220164">
<ele>384.4</ele>
<time>2023-05-16T11:54:12Z</time>
</trkpt>
<trkpt lat="49.02485294267535" lon="9.408356985077262">
<ele>384.4</ele>
<time>2023-05-16T11:54:13Z</time>
</trkpt>
<trkpt lat="49.02487196959555" lon="9.408299988135695">
<ele>384.6</ele>
<time>2023-05-16T11:54:14Z</time>
</trkpt>
<trkpt lat="49.02489493601024" lon="9.40824693068862">
<ele>384.79999999999995</ele>
<time>2023-05-16T11:54:15Z</time>
</trkpt>
<trkpt lat="49.02491698041558" lon="9.408201919868588">
<ele>385</ele>
<time>2023-05-16T11:54:16Z</time>
</trkpt>
<trkpt lat="49.02493994683027" lon="9.408152969554067">
<ele>385.20000000000005</ele>
<time>2023-05-16T11:54:17Z</time>
</trkpt>
<trkpt lat="49.02495997957885" lon="9.408101923763752">
<ele>385.20000000000005</ele>
<time>2023-05-16T11:54:18Z</time>
</trkpt>
<trkpt lat="49.02498194016516" lon="9.408049955964088">
<ele>385.4</ele>
<time>2023-05-16T11:54:19Z</time>
</trkpt>
<trkpt lat="49.02500197291374" lon="9.407997988164425">
<ele>385.6</ele>
<time>2023-05-16T11:54:20Z</time>
</trkpt>
<trkpt lat="49.02502192184329" lon="9.407944930717349">
<ele>385.79999999999995</ele>
<time>2023-05-16T11:54:21Z</time>
</trkpt>
<trkpt lat="49.02504296042025" lon="9.407887933775783">
<ele>386</ele>
<time>2023-05-16T11:54:22Z</time>
</trkpt>
<trkpt lat="49.02506299316883" lon="9.407831942662597">
<ele>386.20000000000005</ele>
<time>2023-05-16T11:54:23Z</time>
</trkpt>
<trkpt lat="49.02508495375514" lon="9.40777494572103">
<ele>386.4</ele>
<time>2023-05-16T11:54:24Z</time>
</trkpt>
<trkpt lat="49.02510699816048" lon="9.407719960436225">
<ele>386.4</ele>
<time>2023-05-16T11:54:25Z</time>
</trkpt>
<trkpt lat="49.02512694709003" lon="9.40766497515142">
<ele>386.6</ele>
<time>2023-05-16T11:54:26Z</time>
</trkpt>
<trkpt lat="49.02514999732375" lon="9.407612923532724">
<ele>386.79999999999995</ele>
<time>2023-05-16T11:54:27Z</time>
</trkpt>
<trkpt lat="49.02517195791006" lon="9.407562967389822">
<ele>387</ele>
<time>2023-05-16T11:54:28Z</time>
</trkpt>
<trkpt lat="49.02519199065864" lon="9.407512927427888">
<ele>387</ele>
<time>2023-05-16T11:54:29Z</time>
</trkpt>
<trkpt lat="49.02521294541657" lon="9.407456936314702">
<ele>387.20000000000005</ele>
<time>2023-05-16T11:54:30Z</time>
</trkpt>
<trkpt lat="49.02523498982191" lon="9.407401951029897">
<ele>387.4</ele>
<time>2023-05-16T11:54:31Z</time>
</trkpt>
<trkpt lat="49.02525695040822" lon="9.407351994886994">
<ele>387.6</ele>
<time>2023-05-16T11:54:32Z</time>
</trkpt>
<trkpt lat="49.0252719540149" lon="9.407306984066963">
<ele>387.6</ele>
<time>2023-05-16T11:54:33Z</time>
</trkpt>
<trkpt lat="49.025287963449955" lon="9.40725794993341">
<ele>387.79999999999995</ele>
<time>2023-05-16T11:54:34Z</time>
</trkpt>
<trkpt lat="49.025307996198535" lon="9.407209921628237">
<ele>388</ele>
<time>2023-05-16T11:54:35Z</time>
</trkpt>
<trkpt lat="49.0253269392997" lon="9.407156948000193">
<ele>388.20000000000005</ele>
<time>2023-05-16T11:54:36Z</time>
</trkpt>
<trkpt lat="49.02534194290638" lon="9.407101962715387">
<ele>388.4</ele>
<time>2023-05-16T11:54:37Z</time>
</trkpt>
<trkpt lat="49.02535795234144" lon="9.40704295411706">
<ele>388.4</ele>
<time>2023-05-16T11:54:38Z</time>
</trkpt>
<trkpt lat="49.025374967604876" lon="9.406986963003874">
<ele>388.6</ele>
<time>2023-05-16T11:54:39Z</time>
</trkpt>
<trkpt lat="49.025394916534424" lon="9.40693792887032">
<ele>388.79999999999995</ele>
<time>2023-05-16T11:54:40Z</time>
</trkpt>
<trkpt lat="49.02541293762624" lon="9.40689199604094">
<ele>388.79999999999995</ele>
<time>2023-05-16T11:54:41Z</time>
</trkpt>
<trkpt lat="49.02543297037482" lon="9.40684991888702">
<ele>389</ele>
<time>2023-05-16T11:54:42Z</time>
</trkpt>
<trkpt lat="49.02545291930437" lon="9.406801974400878">
<ele>389.20000000000005</ele>
<time>2023-05-16T11:54:43Z</time>
</trkpt>
<trkpt lat="49.025477981194854" lon="9.406746989116073">
<ele>389.4</ele>
<time>2023-05-16T11:54:44Z</time>
</trkpt>
<trkpt lat="49.02550798840821" lon="9.40669996663928">
<ele>389.6</ele>
<time>2023-05-16T11:54:45Z</time>
</trkpt>
<trkpt lat="49.02553497813642" lon="9.406651938334107">
<ele>389.79999999999995</ele>
<time>2023-05-16T11:54:46Z</time>
</trkpt>
<trkpt lat="49.025564985349774" lon="9.406604999676347">
<ele>390</ele>
<time>2023-05-16T11:54:47Z</time>
</trkpt>
<trkpt lat="49.02559792622924" lon="9.406559988856316">
<ele>390.20000000000005</ele>
<time>2023-05-16T11:54:48Z</time>
</trkpt>
<trkpt lat="49.025632962584496" lon="9.406519923359156">
<ele>390.4</ele>
<time>2023-05-16T11:54:49Z</time>
</trkpt>
<trkpt lat="49.02566699311137" lon="9.40648497082293">
<ele>390.6</ele>
<time>2023-05-16T11:54:50Z</time>
</trkpt>
<trkpt lat="49.025699933990836" lon="9.406449934467673">
<ele>390.6</ele>
<time>2023-05-16T11:54:51Z</time>
</trkpt>
<trkpt lat="49.02573497034609" lon="9.406414981931448">
<ele>390.79999999999995</ele>
<time>2023-05-16T11:54:52Z</time>
</trkpt>
<trkpt lat="49.02577193453908" lon="9.406384974718094">
<ele>391</ele>
<time>2023-05-16T11:54:53Z</time>
</trkpt>
<trkpt lat="49.025804959237576" lon="9.406357984989882">
<ele>391</ele>
<time>2023-05-16T11:54:54Z</time>
</trkpt>
<trkpt lat="49.02583999559283" lon="9.406331917271018">
<ele>391.20000000000005</ele>
<time>2023-05-16T11:54:55Z</time>
</trkpt>
<trkpt lat="49.02587695978582" lon="9.40631196834147">
<ele>391.4</ele>
<time>2023-05-16T11:54:56Z</time>
</trkpt>
<trkpt lat="49.025907972827554" lon="9.406284978613257">
<ele>391.6</ele>
<time>2023-05-16T11:54:57Z</time>
</trkpt>
<trkpt lat="49.02593697421253" lon="9.406257988885045">
<ele>391.79999999999995</ele>
<time>2023-05-16T11:54:58Z</time>
</trkpt>
<trkpt lat="49.02596798725426" lon="9.406239967793226">
<ele>392</ele>
<time>2023-05-16T11:54:59Z</time>
</trkpt>
<trkpt lat="49.02600193396211" lon="9.406221946701407">
<ele>392.20000000000005</ele>
<time>2023-05-16T11:55:00Z</time>
</trkpt>
<trkpt lat="49.0260349586606" lon="9.40620199777186">
<ele>392.4</ele>
<time>2023-05-16T11:55:01Z</time>
</trkpt>
<trkpt lat="49.02606496587396" lon="9.40618297085166">
<ele>392.6</ele>
<time>2023-05-16T11:55:02Z</time>
</trkpt>
<trkpt lat="49.026102935895324" lon="9.406157992780209">
<ele>392.79999999999995</ele>
<time>2023-05-16T11:55:03Z</time>
</trkpt>
<trkpt lat="49.0261419955641" lon="9.406134942546487">
<ele>393</ele>
<time>2023-05-16T11:55:04Z</time>
</trkpt>
<trkpt lat="49.02617694810033" lon="9.406116921454668">
<ele>393.20000000000005</ele>
<time>2023-05-16T11:55:05Z</time>
</trkpt>
<trkpt lat="49.026214918121696" lon="9.406099990010262">
<ele>393.4</ele>
<time>2023-05-16T11:55:06Z</time>
</trkpt>
<trkpt lat="49.02624794282019" lon="9.406081968918443">
<ele>393.4</ele>
<time>2023-05-16T11:55:07Z</time>
</trkpt>
<trkpt lat="49.02628691866994" lon="9.406057996675372">
<ele>393.6</ele>
<time>2023-05-16T11:55:08Z</time>
</trkpt>
<trkpt lat="49.02632497251034" lon="9.406031928956509">
<ele>393.79999999999995</ele>
<time>2023-05-16T11:55:09Z</time>
</trkpt>
<trkpt lat="49.026362942531705" lon="9.406006950885057">
<ele>394</ele>
<time>2023-05-16T11:55:10Z</time>
</trkpt>
<trkpt lat="49.02640191838145" lon="9.40598993562162">
<ele>394.20000000000005</ele>
<time>2023-05-16T11:55:11Z</time>
</trkpt>
<trkpt lat="49.02644298970699" lon="9.405977949500084">
<ele>394.20000000000005</ele>
<time>2023-05-16T11:55:12Z</time>
</trkpt>
<trkpt lat="49.02648297138512" lon="9.405959928408265">
<ele>394.4</ele>
<time>2023-05-16T11:55:13Z</time>
</trkpt>
<trkpt lat="49.02652295306325" lon="9.405939979478717">
<ele>394.6</ele>
<time>2023-05-16T11:55:14Z</time>
</trkpt>
<trkpt lat="49.02656494639814" lon="9.405921958386898">
<ele>394.79999999999995</ele>
<time>2023-05-16T11:55:15Z</time>
</trkpt>
<trkpt lat="49.026602916419506" lon="9.405901925638318">
<ele>395</ele>
<time>2023-05-16T11:55:16Z</time>
</trkpt>
<trkpt lat="49.02664499357343" lon="9.40588298253715">
<ele>395</ele>
<time>2023-05-16T11:55:17Z</time>
</trkpt>
<trkpt lat="49.026682963594794" lon="9.40586294978857">
<ele>395.20000000000005</ele>
<time>2023-05-16T11:55:18Z</time>
</trkpt>
<trkpt lat="49.02671799995005" lon="9.40583797171712">
<ele>395.4</ele>
<time>2023-05-16T11:55:19Z</time>
</trkpt>
<trkpt lat="49.0267569757998" lon="9.405816933140159">
<ele>395.6</ele>
<time>2023-05-16T11:55:20Z</time>
</trkpt>
<trkpt lat="49.02678991667926" lon="9.40579991787672">
<ele>395.79999999999995</ele>
<time>2023-05-16T11:55:21Z</time>
</trkpt>
<trkpt lat="49.02682495303452" lon="9.405779968947172">
<ele>396</ele>
<time>2023-05-16T11:55:22Z</time>
</trkpt>
<trkpt lat="49.026857977733016" lon="9.405754990875721">
<ele>396</ele>
<time>2023-05-16T11:55:23Z</time>
</trkpt>
<trkpt lat="49.026894941926" lon="9.405729928985238">
<ele>396.20000000000005</ele>
<time>2023-05-16T11:55:24Z</time>
</trkpt>
<trkpt lat="49.02692997828126" lon="9.405701933428645">
<ele>396.4</ele>
<time>2023-05-16T11:55:25Z</time>
</trkpt>
<trkpt lat="49.026964930817485" lon="9.405674943700433">
<ele>396.6</ele>
<time>2023-05-16T11:55:26Z</time>
</trkpt>
<trkpt lat="49.02699795551598" lon="9.405642924830317">
<ele>396.79999999999995</ele>
<time>2023-05-16T11:55:27Z</time>
</trkpt>
<trkpt lat="49.02703299187124" lon="9.405611995607615">
<ele>397</ele>
<time>2023-05-16T11:55:28Z</time>
</trkpt>
<trkpt lat="49.027071967720985" lon="9.40558198839426">
<ele>397</ele>
<time>2023-05-16T11:55:29Z</time>
</trkpt>
<trkpt lat="49.02710792608559" lon="9.405552987009287">
<ele>397.20000000000005</ele>
<time>2023-05-16T11:55:30Z</time>
</trkpt>
<trkpt lat="49.02714296244085" lon="9.405527925118804">
<ele>397.4</ele>
<time>2023-05-16T11:55:31Z</time>
</trkpt>
<trkpt lat="49.027174981310964" lon="9.405502947047353">
<ele>397.6</ele>
<time>2023-05-16T11:55:32Z</time>
</trkpt>
<trkpt lat="49.02720792219043" lon="9.405476963147521">
<ele>397.79999999999995</ele>
<time>2023-05-16T11:55:33Z</time>
</trkpt>
<trkpt lat="49.02723994106054" lon="9.40545198507607">
<ele>397.79999999999995</ele>
<time>2023-05-16T11:55:34Z</time>
</trkpt>
<trkpt lat="49.02727296575904" lon="9.405422983691096">
<ele>398</ele>
<time>2023-05-16T11:55:35Z</time>
</trkpt>
<trkpt lat="49.027304984629154" lon="9.405394988134503">
<ele>398.20000000000005</ele>
<time>2023-05-16T11:55:36Z</time>
</trkpt>
<trkpt lat="49.02733499184251" lon="9.40536699257791">
<ele>398.4</ele>
<time>2023-05-16T11:55:37Z</time>
</trkpt>
<trkpt lat="49.0273629873991" lon="9.40534494817257">
<ele>398.6</ele>
<time>2023-05-16T11:55:38Z</time>
</trkpt>
<trkpt lat="49.027396934106946" lon="9.40532198175788">
<ele>398.79999999999995</ele>
<time>2023-05-16T11:55:39Z</time>
</trkpt>
<trkpt lat="49.027432976290584" lon="9.405299937352538">
<ele>398.79999999999995</ele>
<time>2023-05-16T11:55:40Z</time>
</trkpt>
<trkpt lat="49.02747195214033" lon="9.40527998842299">
<ele>399</ele>
<time>2023-05-16T11:55:41Z</time>
</trkpt>
<trkpt lat="49.027502965182066" lon="9.40525995567441">
<ele>399.20000000000005</ele>
<time>2023-05-16T11:55:42Z</time>
</trkpt>
<trkpt lat="49.02753791771829" lon="9.40523992292583">
<ele>399.4</ele>
<time>2023-05-16T11:55:43Z</time>
</trkpt>
<trkpt lat="49.02757194824517" lon="9.405222991481423">
<ele>399.6</ele>
<time>2023-05-16T11:55:44Z</time>
</trkpt>
<trkpt lat="49.027606984600425" lon="9.405202958732843">
<ele>399.6</ele>
<time>2023-05-16T11:55:45Z</time>
</trkpt>
<trkpt lat="49.02763992547989" lon="9.405182925984263">
<ele>399.79999999999995</ele>
<time>2023-05-16T11:55:46Z</time>
</trkpt>
<trkpt lat="49.027672950178385" lon="9.405161971226335">
<ele>400</ele>
<time>2023-05-16T11:55:47Z</time>
</trkpt>
<trkpt lat="49.02770295739174" lon="9.405139926820993">
<ele>400.20000000000005</ele>
<time>2023-05-16T11:55:48Z</time>
</trkpt>
<trkpt lat="49.027737993746996" lon="9.405119977891445">
<ele>400.4</ele>
<time>2023-05-16T11:55:49Z</time>
</trkpt>
<trkpt lat="49.02777294628322" lon="9.405099945142865">
<ele>400.6</ele>
<time>2023-05-16T11:55:50Z</time>
</trkpt>
<trkpt lat="49.02780798263848" lon="9.405082929879427">
<ele>400.79999999999995</ele>
<time>2023-05-16T11:55:51Z</time>
</trkpt>
<trkpt lat="49.02783798985183" lon="9.40506499260664">
<ele>400.79999999999995</ele>
<time>2023-05-16T11:55:52Z</time>
</trkpt>
<trkpt lat="49.027866991236806" lon="9.405036997050047">
<ele>401</ele>
<time>2023-05-16T11:55:53Z</time>
</trkpt>
<trkpt lat="49.02789699845016" lon="9.40500196069479">
<ele>401.20000000000005</ele>
<time>2023-05-16T11:55:54Z</time>
</trkpt>
<trkpt lat="49.02791795320809" lon="9.404974970966578">
<ele>401.4</ele>
<time>2023-05-16T11:55:55Z</time>
</trkpt>
<trkpt lat="49.02794192545116" lon="9.40493498928845">
<ele>401.6</ele>
<time>2023-05-16T11:55:56Z</time>
</trkpt>
<trkpt lat="49.02796698734164" lon="9.404882937669754">
<ele>401.6</ele>
<time>2023-05-16T11:55:57Z</time>
</trkpt>
<trkpt lat="49.02798492461443" lon="9.404827952384949">
<ele>401.79999999999995</ele>
<time>2023-05-16T11:55:58Z</time>
</trkpt>
<trkpt lat="49.027997916564345" lon="9.404776990413666">
<ele>401.79999999999995</ele>
<time>2023-05-16T11:55:59Z</time>
</trkpt>
<trkpt lat="49.02800495736301" lon="9.404714964330196">
<ele>402</ele>
<time>2023-05-16T11:56:00Z</time>
</trkpt>
<trkpt lat="49.02800696901977" lon="9.404647992923856">
<ele>402</ele>
<time>2023-05-16T11:56:01Z</time>
</trkpt>
<trkpt lat="49.02800294570625" lon="9.404589990153909">
<ele>402.20000000000005</ele>
<time>2023-05-16T11:56:02Z</time>
</trkpt>
<trkpt lat="49.02800193987787" lon="9.4045299757272">
<ele>402.20000000000005</ele>
<time>2023-05-16T11:56:03Z</time>
</trkpt>
<trkpt lat="49.02798693627119" lon="9.404472978785634">
<ele>402.4</ele>
<time>2023-05-16T11:56:04Z</time>
</trkpt>
<trkpt lat="49.02796296402812" lon="9.4044229388237">
<ele>402.4</ele>
<time>2023-05-16T11:56:05Z</time>
</trkpt>
<trkpt lat="49.02793999761343" lon="9.404371976852417">
<ele>402.4</ele>
<time>2023-05-16T11:56:06Z</time>
</trkpt>
<trkpt lat="49.02792298234999" lon="9.404334928840399">
<ele>402.6</ele>
<time>2023-05-16T11:56:07Z</time>
</trkpt>
<trkpt lat="49.02789297513664" lon="9.404299976304173">
<ele>402.79999999999995</ele>
<time>2023-05-16T11:56:08Z</time>
</trkpt>
<trkpt lat="49.02785793878138" lon="9.404272986575961">
<ele>403</ele>
<time>2023-05-16T11:56:09Z</time>
</trkpt>
<trkpt lat="49.027821980416775" lon="9.404259994626045">
<ele>403.20000000000005</ele>
<time>2023-05-16T11:56:10Z</time>
</trkpt>
<trkpt lat="49.02778694406152" lon="9.404241973534226">
<ele>403.4</ele>
<time>2023-05-16T11:56:11Z</time>
</trkpt>
<trkpt lat="49.02775199152529" lon="9.404229987412691">
<ele>403.6</ele>
<time>2023-05-16T11:56:12Z</time>
</trkpt>
<trkpt lat="49.027717960998416" lon="9.404216995462775">
<ele>403.79999999999995</ele>
<time>2023-05-16T11:56:13Z</time>
</trkpt>
<trkpt lat="49.02768996544182" lon="9.404212972149253">
<ele>404</ele>
<time>2023-05-16T11:56:14Z</time>
</trkpt>
<trkpt lat="49.027671944350004" lon="9.404209954664111">
<ele>404.20000000000005</ele>
<time>2023-05-16T11:56:15Z</time>
</trkpt>
<trkpt lat="49.027654929086566" lon="9.40420693717897">
<ele>404.4</ele>
<time>2023-05-16T11:56:16Z</time>
</trkpt>
<trkpt lat="49.02763296850026" lon="9.404202997684479">
<ele>404.79999999999995</ele>
<time>2023-05-16T11:56:17Z</time>
</trkpt>
<trkpt lat="49.027607990428805" lon="9.404201991856098">
<ele>405</ele>
<time>2023-05-16T11:56:18Z</time>
</trkpt>
<trkpt lat="49.027584940195084" lon="9.404201991856098">
<ele>405.20000000000005</ele>
<time>2023-05-16T11:56:19Z</time>
</trkpt>
<trkpt lat="49.02755694463849" lon="9.404202997684479">
<ele>405.4</ele>
<time>2023-05-16T11:56:20Z</time>
</trkpt>
<trkpt lat="49.02752693742514" lon="9.40420794300735">
<ele>405.6</ele>
<time>2023-05-16T11:56:21Z</time>
</trkpt>
<trkpt lat="49.02749299071729" lon="9.40420794300735">
<ele>405.79999999999995</ele>
<time>2023-05-16T11:56:22Z</time>
</trkpt>
<trkpt lat="49.027459966018796" lon="9.404216995462775">
<ele>406</ele>
<time>2023-05-16T11:56:23Z</time>
</trkpt>
<trkpt lat="49.02742794714868" lon="9.404224958270788">
<ele>406.20000000000005</ele>
<time>2023-05-16T11:56:24Z</time>
</trkpt>
<trkpt lat="49.02739995159209" lon="9.404231999069452">
<ele>406.4</ele>
<time>2023-05-16T11:56:25Z</time>
</trkpt>
<trkpt lat="49.027369944378734" lon="9.404237950220704">
<ele>406.6</ele>
<time>2023-05-16T11:56:26Z</time>
</trkpt>
<trkpt lat="49.02733993716538" lon="9.404242979362607">
<ele>406.79999999999995</ele>
<time>2023-05-16T11:56:27Z</time>
</trkpt>
<trkpt lat="49.027309929952025" lon="9.404254965484142">
<ele>407.20000000000005</ele>
<time>2023-05-16T11:56:28Z</time>
</trkpt>
<trkpt lat="49.02728294022381" lon="9.404274998232722">
<ele>407.4</ele>
<time>2023-05-16T11:56:29Z</time>
</trkpt>
<trkpt lat="49.02724999934435" lon="9.404284972697496">
<ele>407.6</ele>
<time>2023-05-16T11:56:30Z</time>
</trkpt>
<trkpt lat="49.02722795493901" lon="9.404299976304173">
<ele>407.79999999999995</ele>
<time>2023-05-16T11:56:31Z</time>
</trkpt>
<trkpt lat="49.0271729696542" lon="9.404322942718863">
<ele>408</ele>
<time>2023-05-16T11:56:32Z</time>
</trkpt>
<trkpt lat="49.02714497409761" lon="9.404339957982302">
<ele>408.20000000000005</ele>
<time>2023-05-16T11:56:33Z</time>
</trkpt>
<trkpt lat="49.02708697132766" lon="9.40435797907412">
<ele>408.6</ele>
<time>2023-05-16T11:56:34Z</time>
</trkpt>
<trkpt lat="49.02705696411431" lon="9.404376922175288">
<ele>408.79999999999995</ele>
<time>2023-05-16T11:56:35Z</time>
</trkpt>
<trkpt lat="49.02701698243618" lon="9.40439997240901">
<ele>409</ele>
<time>2023-05-16T11:56:36Z</time>
</trkpt>
<trkpt lat="49.02697197161615" lon="9.40442193299532">
<ele>409.20000000000005</ele>
<time>2023-05-16T11:56:37Z</time>
</trkpt>
<trkpt lat="49.0269279666245" lon="9.4044419657439">
<ele>409.6</ele>
<time>2023-05-16T11:56:38Z</time>
</trkpt>
<trkpt lat="49.026877926662564" lon="9.404467949643731">
<ele>409.79999999999995</ele>
<time>2023-05-16T11:56:39Z</time>
</trkpt>
<trkpt lat="49.0268399566412" lon="9.404496951028705">
<ele>410</ele>
<time>2023-05-16T11:56:40Z</time>
</trkpt>
<trkpt lat="49.02680198661983" lon="9.404526958242059">
<ele>410.4</ele>
<time>2023-05-16T11:56:41Z</time>
</trkpt>
<trkpt lat="49.026744989678264" lon="9.404546990990639">
<ele>410.6</ele>
<time>2023-05-16T11:56:42Z</time>
</trkpt>
<trkpt lat="49.026702996343374" lon="9.404557971283793">
<ele>410.79999999999995</ele>
<time>2023-05-16T11:56:43Z</time>
</trkpt>
<trkpt lat="49.02666795998812" lon="9.404566939920187">
<ele>411</ele>
<time>2023-05-16T11:56:44Z</time>
</trkpt>
<trkpt lat="49.02663191780448" lon="9.404579931870103">
<ele>411.4</ele>
<time>2023-05-16T11:56:45Z</time>
</trkpt>
<trkpt lat="49.026597971096635" lon="9.404586972668767">
<ele>411.6</ele>
<time>2023-05-16T11:56:46Z</time>
</trkpt>
<trkpt lat="49.026579950004816" lon="9.404592923820019">
<ele>411.79999999999995</ele>
<time>2023-05-16T11:56:47Z</time>
</trkpt>
<trkpt lat="49.02654692530632" lon="9.40461496822536">
<ele>412.20000000000005</ele>
<time>2023-05-16T11:56:48Z</time>
</trkpt>
<trkpt lat="49.02652194723487" lon="9.404621925204992">
<ele>412.4</ele>
<time>2023-05-16T11:56:49Z</time>
</trkpt>
<trkpt lat="49.0264979749918" lon="9.404629971832037">
<ele>412.6</ele>
<time>2023-05-16T11:56:50Z</time>
</trkpt>
<trkpt lat="49.02647299692035" lon="9.404641957953572">
<ele>412.79999999999995</ele>
<time>2023-05-16T11:56:51Z</time>
</trkpt>
<trkpt lat="49.02645296417177" lon="9.404646987095475">
<ele>413.20000000000005</ele>
<time>2023-05-16T11:56:52Z</time>
</trkpt>
<trkpt lat="49.02642999775708" lon="9.404661990702152">
<ele>413.4</ele>
<time>2023-05-16T11:56:53Z</time>
</trkpt>
<trkpt lat="49.026404935866594" lon="9.404672970995307">
<ele>413.6</ele>
<time>2023-05-16T11:56:54Z</time>
</trkpt>
<trkpt lat="49.026381969451904" lon="9.404687974601984">
<ele>414</ele>
<time>2023-05-16T11:56:55Z</time>
</trkpt>
<trkpt lat="49.026357997208834" lon="9.404697949066758">
<ele>414.20000000000005</ele>
<time>2023-05-16T11:56:56Z</time>
</trkpt>
<trkpt lat="49.02633192948997" lon="9.404711946845055">
<ele>414.4</ele>
<time>2023-05-16T11:56:57Z</time>
</trkpt>
<trkpt lat="49.026294965296984" lon="9.404739942401648">
<ele>414.79999999999995</ele>
<time>2023-05-16T11:56:58Z</time>
</trkpt>
<trkpt lat="49.026254983618855" lon="9.404746983200312">
<ele>415</ele>
<time>2023-05-16T11:56:59Z</time>
</trkpt>
<trkpt lat="49.026212990283966" lon="9.404759975150228">
<ele>415.4</ele>
<time>2023-05-16T11:57:00Z</time>
</trkpt>
<trkpt lat="49.02618298307061" lon="9.404769949615002">
<ele>415.6</ele>
<time>2023-05-16T11:57:01Z</time>
</trkpt>
<trkpt lat="49.02615498751402" lon="9.404781935736537">
<ele>415.79999999999995</ele>
<time>2023-05-16T11:57:02Z</time>
</trkpt>
<trkpt lat="49.026122968643904" lon="9.40478696487844">
<ele>416.20000000000005</ele>
<time>2023-05-16T11:57:03Z</time>
</trkpt>
<trkpt lat="49.02607494033873" lon="9.404789982363582">
<ele>416.4</ele>
<time>2023-05-16T11:57:04Z</time>
</trkpt>
<trkpt lat="49.0260349586606" lon="9.40480993129313">
<ele>416.6</ele>
<time>2023-05-16T11:57:05Z</time>
</trkpt>
<trkpt lat="49.02600495144725" lon="9.404824934899807">
<ele>417</ele>
<time>2023-05-16T11:57:06Z</time>
</trkpt>
<trkpt lat="49.02596798725426" lon="9.404842955991626">
<ele>417.20000000000005</ele>
<time>2023-05-16T11:57:07Z</time>
</trkpt>
<trkpt lat="49.0259279217571" lon="9.404861982911825">
<ele>417.4</ele>
<time>2023-05-16T11:57:08Z</time>
</trkpt>
<trkpt lat="49.02589296922088" lon="9.404876986518502">
<ele>417.6</ele>
<time>2023-05-16T11:57:09Z</time>
</trkpt>
<trkpt lat="49.025844940915704" lon="9.40489492379129">
<ele>418</ele>
<time>2023-05-16T11:57:10Z</time>
</trkpt>
<trkpt lat="49.02580797672272" lon="9.404912944883108">
<ele>418.20000000000005</ele>
<time>2023-05-16T11:57:11Z</time>
</trkpt>
<trkpt lat="49.02579297311604" lon="9.404927948489785">
<ele>418.4</ele>
<time>2023-05-16T11:57:12Z</time>
</trkpt>
<trkpt lat="49.025781992822886" lon="9.404941946268082">
<ele>418.79999999999995</ele>
<time>2023-05-16T11:57:13Z</time>
</trkpt>
<trkpt lat="49.02577193453908" lon="9.4049599673599">
<ele>419</ele>
<time>2023-05-16T11:57:14Z</time>
</trkpt>
<trkpt lat="49.02575198560953" lon="9.404971953481436">
<ele>419.20000000000005</ele>
<time>2023-05-16T11:57:15Z</time>
</trkpt>
<trkpt lat="49.02570798061788" lon="9.404979916289449">
<ele>419.6</ele>
<time>2023-05-16T11:57:16Z</time>
</trkpt>
<trkpt lat="49.02565794065595" lon="9.404986957088113">
<ele>419.79999999999995</ele>
<time>2023-05-16T11:57:17Z</time>
</trkpt>
<trkpt lat="49.02561695314944" lon="9.404984945431352">
<ele>420</ele>
<time>2023-05-16T11:57:18Z</time>
</trkpt>
<trkpt lat="49.02557697147131" lon="9.40498293377459">
<ele>420.4</ele>
<time>2023-05-16T11:57:19Z</time>
</trkpt>
<trkpt lat="49.02554193511605" lon="9.404974970966578">
<ele>420.6</ele>
<time>2023-05-16T11:57:20Z</time>
</trkpt>
<trkpt lat="49.02550698257983" lon="9.40495795570314">
<ele>420.79999999999995</ele>
<time>2023-05-16T11:57:21Z</time>
</trkpt>
<trkpt lat="49.02547496370971" lon="9.40493993461132">
<ele>421</ele>
<time>2023-05-16T11:57:22Z</time>
</trkpt>
<trkpt lat="49.02544495649636" lon="9.404912944883108">
<ele>421.4</ele>
<time>2023-05-16T11:57:23Z</time>
</trkpt>
<trkpt lat="49.02541293762624" lon="9.40489492379129">
<ele>421.6</ele>
<time>2023-05-16T11:57:24Z</time>
</trkpt>
<trkpt lat="49.02538494206965" lon="9.404876986518502">
<ele>421.79999999999995</ele>
<time>2023-05-16T11:57:25Z</time>
</trkpt>
<trkpt lat="49.02535694651306" lon="9.404854942113161">
<ele>422.20000000000005</ele>
<time>2023-05-16T11:57:26Z</time>
</trkpt>
<trkpt lat="49.025331968441606" lon="9.404826946556568">
<ele>422.4</ele>
<time>2023-05-16T11:57:27Z</time>
</trkpt>
<trkpt lat="49.02531696483493" lon="9.40480699762702">
<ele>422.79999999999995</ele>
<time>2023-05-16T11:57:28Z</time>
</trkpt>
<trkpt lat="49.02530497871339" lon="9.404774978756905">
<ele>423</ele>
<time>2023-05-16T11:57:29Z</time>
</trkpt>
<trkpt lat="49.02529793791473" lon="9.404734997078776">
<ele>423.4</ele>
<time>2023-05-16T11:57:30Z</time>
</trkpt>
<trkpt lat="49.02529994957149" lon="9.404691997915506">
<ele>423.6</ele>
<time>2023-05-16T11:57:31Z</time>
</trkpt>
<trkpt lat="49.02530296705663" lon="9.404651932418346">
<ele>424</ele>
<time>2023-05-16T11:57:32Z</time>
</trkpt>
<trkpt lat="49.025306990370154" lon="9.404587978497148">
<ele>424.20000000000005</ele>
<time>2023-05-16T11:57:33Z</time>
</trkpt>
<trkpt lat="49.025312941521406" lon="9.4045299757272">
<ele>424.6</ele>
<time>2023-05-16T11:57:34Z</time>
</trkpt>
<trkpt lat="49.025329956784844" lon="9.404462920501828">
<ele>424.79999999999995</ele>
<time>2023-05-16T11:57:35Z</time>
</trkpt>
<trkpt lat="49.02534294873476" lon="9.404411958530545">
<ele>425.20000000000005</ele>
<time>2023-05-16T11:57:36Z</time>
</trkpt>
<trkpt lat="49.02536197565496" lon="9.40435697324574">
<ele>425.4</ele>
<time>2023-05-16T11:57:37Z</time>
</trkpt>
<trkpt lat="49.025374967604876" lon="9.404304921627045">
<ele>425.6</ele>
<time>2023-05-16T11:57:38Z</time>
</trkpt>
<trkpt lat="49.02538795955479" lon="9.404266951605678">
<ele>426</ele>
<time>2023-05-16T11:57:39Z</time>
</trkpt>
<trkpt lat="49.02540195733309" lon="9.40422797575593">
<ele>426.20000000000005</ele>
<time>2023-05-16T11:57:40Z</time>
</trkpt>
<trkpt lat="49.02540799230337" lon="9.404182964935899">
<ele>426.4</ele>
<time>2023-05-16T11:57:41Z</time>
</trkpt>
<trkpt lat="49.02542199008167" lon="9.404127979651093">
<ele>426.6</ele>
<time>2023-05-16T11:57:42Z</time>
</trkpt>
<trkpt lat="49.02542794123292" lon="9.404076933860779">
<ele>427</ele>
<time>2023-05-16T11:57:43Z</time>
</trkpt>
<trkpt lat="49.025437999516726" lon="9.404032928869128">
<ele>427.20000000000005</ele>
<time>2023-05-16T11:57:44Z</time>
</trkpt>
<trkpt lat="49.02544495649636" lon="9.403996970504522">
<ele>427.4</ele>
<time>2023-05-16T11:57:45Z</time>
</trkpt>
<trkpt lat="49.02545199729502" lon="9.403954977169633">
<ele>427.6</ele>
<time>2023-05-16T11:57:46Z</time>
</trkpt>
<trkpt lat="49.02544998563826" lon="9.403901919722557">
<ele>427.79999999999995</ele>
<time>2023-05-16T11:57:47Z</time>
</trkpt>
<trkpt lat="49.02545199729502" lon="9.403857998549938">
<ele>427.79999999999995</ele>
<time>2023-05-16T11:57:48Z</time>
</trkpt>
<trkpt lat="49.025461971759796" lon="9.403807958588004">
<ele>428</ele>
<time>2023-05-16T11:57:49Z</time>
</trkpt>
<trkpt lat="49.02547295205295" lon="9.403751967474818">
<ele>428</ele>
<time>2023-05-16T11:57:50Z</time>
</trkpt>
<trkpt lat="49.025484938174486" lon="9.40371299162507">
<ele>428.20000000000005</ele>
<time>2023-05-16T11:57:51Z</time>
</trkpt>
<trkpt lat="49.02549692429602" lon="9.403681978583336">
<ele>428.20000000000005</ele>
<time>2023-05-16T11:57:52Z</time>
</trkpt>
<trkpt lat="49.02550991624594" lon="9.403654988855124">
<ele>428.4</ele>
<time>2023-05-16T11:57:53Z</time>
</trkpt>
<trkpt lat="49.02551796287298" lon="9.403636967763305">
<ele>428.4</ele>
<time>2023-05-16T11:57:54Z</time>
</trkpt>
<trkpt lat="49.025524919852614" lon="9.403609978035092">
<ele>428.4</ele>
<time>2023-05-16T11:57:55Z</time>
</trkpt>
<trkpt lat="49.02553296647966" lon="9.403576953336596">
<ele>428.20000000000005</ele>
<time>2023-05-16T11:57:56Z</time>
</trkpt>
<trkpt lat="49.02554193511605" lon="9.40353998914361">
<ele>428.20000000000005</ele>
<time>2023-05-16T11:57:57Z</time>
</trkpt>
<trkpt lat="49.02555199339986" lon="9.403487937524915">
<ele>428.20000000000005</ele>
<time>2023-05-16T11:57:58Z</time>
</trkpt>
<trkpt lat="49.025566997006536" lon="9.40343295224011">
<ele>428</ele>
<time>2023-05-16T11:57:59Z</time>
</trkpt>
<trkpt lat="49.02558493427932" lon="9.403382996097207">
<ele>427.79999999999995</ele>
<time>2023-05-16T11:58:00Z</time>
</trkpt>
<trkpt lat="49.025611924007535" lon="9.40332692116499">
<ele>427.6</ele>
<time>2023-05-16T11:58:01Z</time>
</trkpt>
<trkpt lat="49.02563698589802" lon="9.403264978900552">
<ele>427.4</ele>
<time>2023-05-16T11:58:02Z</time>
</trkpt>
<trkpt lat="49.025656934827566" lon="9.403206976130605">
<ele>427.20000000000005</ele>
<time>2023-05-16T11:58:03Z</time>
</trkpt>
<trkpt lat="49.02567998506129" lon="9.403147967532277">
<ele>427</ele>
<time>2023-05-16T11:58:04Z</time>
</trkpt>
<trkpt lat="49.025699933990836" lon="9.403094993904233">
<ele>426.6</ele>
<time>2023-05-16T11:58:05Z</time>
</trkpt>
<trkpt lat="49.02572197839618" lon="9.403039924800396">
<ele>426.20000000000005</ele>
<time>2023-05-16T11:58:06Z</time>
</trkpt>
<trkpt lat="49.02574695646763" lon="9.402977982535958">
<ele>426</ele>
<time>2023-05-16T11:58:07Z</time>
</trkpt>
<trkpt lat="49.02577796950936" lon="9.402911933138967">
<ele>425.6</ele>
<time>2023-05-16T11:58:08Z</time>
</trkpt>
<trkpt lat="49.02580998837948" lon="9.402846973389387">
<ele>425.20000000000005</ele>
<time>2023-05-16T11:58:09Z</time>
</trkpt>
<trkpt lat="49.025846952572465" lon="9.402771955356002">
<ele>424.79999999999995</ele>
<time>2023-05-16T11:58:10Z</time>
</trkpt>
<trkpt lat="49.02588693425059" lon="9.402691991999745">
<ele>424.4</ele>
<time>2023-05-16T11:58:11Z</time>
</trkpt>
<trkpt lat="49.02592699974775" lon="9.402606999501586">
<ele>424</ele>
<time>2023-05-16T11:58:12Z</time>
</trkpt>
<trkpt lat="49.02596999891102" lon="9.402514966204762">
<ele>423.6</ele>
<time>2023-05-16T11:58:13Z</time>
</trkpt>
<trkpt lat="49.02601299807429" lon="9.4024249445647">
<ele>423</ele>
<time>2023-05-16T11:58:14Z</time>
</trkpt>
<trkpt lat="49.026061948388815" lon="9.402332995086908">
<ele>422.6</ele>
<time>2023-05-16T11:58:15Z</time>
</trkpt>
<trkpt lat="49.02611299417913" lon="9.402234926819801">
<ele>422</ele>
<time>2023-05-16T11:58:16Z</time>
</trkpt>
<trkpt lat="49.026166973635554" lon="9.402129985392094">
<ele>421.4</ele>
<time>2023-05-16T11:58:17Z</time>
</trkpt>
<trkpt lat="49.02622698806226" lon="9.402024960145354">
<ele>421</ele>
<time>2023-05-16T11:58:18Z</time>
</trkpt>
<trkpt lat="49.02628691866994" lon="9.401916917413473">
<ele>420.20000000000005</ele>
<time>2023-05-16T11:58:19Z</time>
</trkpt>
<trkpt lat="49.02634793892503" lon="9.401804935187101">
<ele>419.6</ele>
<time>2023-05-16T11:58:20Z</time>
</trkpt>
<trkpt lat="49.02641197666526" lon="9.401696976274252">
<ele>419</ele>
<time>2023-05-16T11:58:21Z</time>
</trkpt>
<trkpt lat="49.026469979435205" lon="9.401582982391119">
<ele>418.4</ele>
<time>2023-05-16T11:58:22Z</time>
</trkpt>
<trkpt lat="49.02653996832669" lon="9.401474939659238">
<ele>417.6</ele>
<time>2023-05-16T11:58:23Z</time>
</trkpt>
<trkpt lat="49.02659495361149" lon="9.401347953826189">
<ele>417</ele>
<time>2023-05-16T11:58:24Z</time>
</trkpt>
<trkpt lat="49.0266499388963" lon="9.401226919144392">
<ele>416.20000000000005</ele>
<time>2023-05-16T11:58:25Z</time>
</trkpt>
<trkpt lat="49.02672193944454" lon="9.401099933311343">
<ele>415.6</ele>
<time>2023-05-16T11:58:26Z</time>
</trkpt>
<trkpt lat="49.02677298523486" lon="9.401021981611848">
<ele>414.79999999999995</ele>
<time>2023-05-16T11:58:27Z</time>
</trkpt>
<trkpt lat="49.026831993833184" lon="9.400896923616529">
<ele>414</ele>
<time>2023-05-16T11:58:28Z</time>
</trkpt>
<trkpt lat="49.026896953582764" lon="9.400772955268621">
<ele>413.4</ele>
<time>2023-05-16T11:58:29Z</time>
</trkpt>
<trkpt lat="49.02695495635271" lon="9.400664996355772">
<ele>412.6</ele>
<time>2023-05-16T11:58:30Z</time>
</trkpt>
<trkpt lat="49.02701295912266" lon="9.40055494196713">
<ele>411.79999999999995</ele>
<time>2023-05-16T11:58:31Z</time>
</trkpt>
<trkpt lat="49.02707791887224" lon="9.400437930598855">
<ele>411</ele>
<time>2023-05-16T11:58:32Z</time>
</trkpt>
<trkpt lat="49.027132987976074" lon="9.400336928665638">
<ele>410.4</ele>
<time>2023-05-16T11:58:33Z</time>
</trkpt>
<trkpt lat="49.027177998796105" lon="9.400224946439266">
<ele>409.6</ele>
<time>2023-05-16T11:58:34Z</time>
</trkpt>
<trkpt lat="49.02725796215236" lon="9.400096954777837">
<ele>408.79999999999995</ele>
<time>2023-05-16T11:58:35Z</time>
</trkpt>
<trkpt lat="49.027309929952025" lon="9.399992935359478">
<ele>408</ele>
<time>2023-05-16T11:58:36Z</time>
</trkpt>
<trkpt lat="49.02737497352064" lon="9.399869972839952">
<ele>407.20000000000005</ele>
<time>2023-05-16T11:58:37Z</time>
</trkpt>
<trkpt lat="49.027436999604106" lon="9.399739969521761">
<ele>406.4</ele>
<time>2023-05-16T11:58:38Z</time>
</trkpt>
<trkpt lat="49.02748997323215" lon="9.399637961760163">
<ele>405.6</ele>
<time>2023-05-16T11:58:39Z</time>
</trkpt>
<trkpt lat="49.02753699570894" lon="9.399516927078366">
<ele>405</ele>
<time>2023-05-16T11:58:40Z</time>
</trkpt>
<trkpt lat="49.02757496573031" lon="9.399376949295402">
<ele>404.20000000000005</ele>
<time>2023-05-16T11:58:41Z</time>
</trkpt>
<trkpt lat="49.0276029612869" lon="9.399219956248999">
<ele>403.4</ele>
<time>2023-05-16T11:58:42Z</time>
</trkpt>
<trkpt lat="49.027611929923296" lon="9.399074949324131">
<ele>402.79999999999995</ele>
<time>2023-05-16T11:58:43Z</time>
</trkpt>
<trkpt lat="49.02759994380176" lon="9.398916950449347">
<ele>402</ele>
<time>2023-05-16T11:58:44Z</time>
</trkpt>
<trkpt lat="49.02759298682213" lon="9.39875291660428">
<ele>401.20000000000005</ele>
<time>2023-05-16T11:58:45Z</time>
</trkpt>
<trkpt lat="49.02757496573031" lon="9.398592989891768">
<ele>400.4</ele>
<time>2023-05-16T11:58:46Z</time>
</trkpt>
<trkpt lat="49.02756993658841" lon="9.398431973531842">
<ele>399.6</ele>
<time>2023-05-16T11:58:47Z</time>
</trkpt>
<trkpt lat="49.02755493298173" lon="9.398267939686775">
<ele>398.79999999999995</ele>
<time>2023-05-16T11:58:48Z</time>
</trkpt>
<trkpt lat="49.02754697017372" lon="9.398111952468753">
<ele>398</ele>
<time>2023-05-16T11:58:49Z</time>
</trkpt>
<trkpt lat="49.02753498405218" lon="9.397952947765589">
<ele>397</ele>
<time>2023-05-16T11:58:50Z</time>
</trkpt>
<trkpt lat="49.027524925768375" lon="9.39780299551785">
<ele>396.20000000000005</ele>
<time>2023-05-16T11:58:51Z</time>
</trkpt>
<trkpt lat="49.0275149513036" lon="9.397649941965938">
<ele>395.20000000000005</ele>
<time>2023-05-16T11:58:52Z</time>
</trkpt>
<trkpt lat="49.02750698849559" lon="9.397509964182973">
<ele>394.20000000000005</ele>
<time>2023-05-16T11:58:53Z</time>
</trkpt>
<trkpt lat="49.02749299071729" lon="9.397346936166286">
<ele>393.4</ele>
<time>2023-05-16T11:58:54Z</time>
</trkpt>
<trkpt lat="49.027479998767376" lon="9.397216932848096">
<ele>392.4</ele>
<time>2023-05-16T11:58:55Z</time>
</trkpt>
<trkpt lat="49.02746792882681" lon="9.397077960893512">
<ele>391.4</ele>
<time>2023-05-16T11:58:56Z</time>
</trkpt>
<trkpt lat="49.02745493687689" lon="9.39692691899836">
<ele>390.6</ele>
<time>2023-05-16T11:58:57Z</time>
</trkpt>
<trkpt lat="49.02745493687689" lon="9.396767998114228">
<ele>389.6</ele>
<time>2023-05-16T11:58:58Z</time>
</trkpt>
<trkpt lat="49.027457954362035" lon="9.396636988967657">
<ele>389</ele>
<time>2023-05-16T11:58:59Z</time>
</trkpt>
<trkpt lat="49.02745191939175" lon="9.396481923758984">
<ele>388.20000000000005</ele>
<time>2023-05-16T11:59:00Z</time>
</trkpt>
<trkpt lat="49.0274269413203" lon="9.39632493071258">
<ele>387.4</ele>
<time>2023-05-16T11:59:01Z</time>
</trkpt>
<trkpt lat="49.02741193771362" lon="9.396186964586377">
<ele>386.6</ele>
<time>2023-05-16T11:59:02Z</time>
</trkpt>
<trkpt lat="49.02740296907723" lon="9.39606199041009">
<ele>385.6</ele>
<time>2023-05-16T11:59:03Z</time>
</trkpt>
<trkpt lat="49.027396934106946" lon="9.395929975435138">
<ele>384.79999999999995</ele>
<time>2023-05-16T11:59:04Z</time>
</trkpt>
<trkpt lat="49.02738695964217" lon="9.395774994045496">
<ele>384</ele>
<time>2023-05-16T11:59:05Z</time>
</trkpt>
<trkpt lat="49.02735695242882" lon="9.395626969635487">
<ele>383</ele>
<time>2023-05-16T11:59:06Z</time>
</trkpt>
<trkpt lat="49.02734194882214" lon="9.395474921911955">
<ele>382.20000000000005</ele>
<time>2023-05-16T11:59:07Z</time>
</trkpt>
<trkpt lat="49.02733792550862" lon="9.395319940522313">
<ele>381.20000000000005</ele>
<time>2023-05-16T11:59:08Z</time>
</trkpt>
<trkpt lat="49.02733197435737" lon="9.395154984667897">
<ele>380.4</ele>
<time>2023-05-16T11:59:09Z</time>
</trkpt>
<trkpt lat="49.027329962700605" lon="9.395024981349707">
<ele>379.6</ele>
<time>2023-05-16T11:59:10Z</time>
</trkpt>
<trkpt lat="49.02730196714401" lon="9.39488491974771">
<ele>378.6</ele>
<time>2023-05-16T11:59:11Z</time>
</trkpt>
<trkpt lat="49.02728193439543" lon="9.39475198276341">
<ele>377.79999999999995</ele>
<time>2023-05-16T11:59:12Z</time>
</trkpt>
<trkpt lat="49.027266930788755" lon="9.394611921161413">
<ele>376.79999999999995</ele>
<time>2023-05-16T11:59:13Z</time>
</trkpt>
<trkpt lat="49.02725494466722" lon="9.394491976127028">
<ele>376</ele>
<time>2023-05-16T11:59:14Z</time>
</trkpt>
<trkpt lat="49.027242958545685" lon="9.394377982243896">
<ele>375.20000000000005</ele>
<time>2023-05-16T11:59:15Z</time>
</trkpt>
<trkpt lat="49.02723298408091" lon="9.394271951168776">
<ele>374.4</ele>
<time>2023-05-16T11:59:16Z</time>
</trkpt>
<trkpt lat="49.02722694911063" lon="9.39417497254908">
<ele>373.6</ele>
<time>2023-05-16T11:59:17Z</time>
</trkpt>
<trkpt lat="49.027217980474234" lon="9.394077993929386">
<ele>372.6</ele>
<time>2023-05-16T11:59:18Z</time>
</trkpt>
<trkpt lat="49.02721496298909" lon="9.393984954804182">
<ele>371.79999999999995</ele>
<time>2023-05-16T11:59:19Z</time>
</trkpt>
<trkpt lat="49.02721697464585" lon="9.39389493316412">
<ele>371</ele>
<time>2023-05-16T11:59:20Z</time>
</trkpt>
<trkpt lat="49.027217980474234" lon="9.393801977857947">
<ele>370.4</ele>
<time>2023-05-16T11:59:21Z</time>
</trkpt>
<trkpt lat="49.027222925797105" lon="9.393706927075982">
<ele>369.6</ele>
<time>2023-05-16T11:59:22Z</time>
</trkpt>
<trkpt lat="49.02723197825253" lon="9.393602991476655">
<ele>368.79999999999995</ele>
<time>2023-05-16T11:59:23Z</time>
</trkpt>
<trkpt lat="49.0272369235754" lon="9.393491931259632">
<ele>368.20000000000005</ele>
<time>2023-05-16T11:59:24Z</time>
</trkpt>
<trkpt lat="49.027242958545685" lon="9.393381960690022">
<ele>367.6</ele>
<time>2023-05-16T11:59:25Z</time>
</trkpt>
<trkpt lat="49.02724999934435" lon="9.393267966806889">
<ele>367</ele>
<time>2023-05-16T11:59:26Z</time>
</trkpt>
<trkpt lat="49.02725997380912" lon="9.39316495321691">
<ele>366.20000000000005</ele>
<time>2023-05-16T11:59:27Z</time>
</trkpt>
<trkpt lat="49.027267936617136" lon="9.393059927970171">
<ele>365.6</ele>
<time>2023-05-16T11:59:28Z</time>
</trkpt>
<trkpt lat="49.02727799490094" lon="9.392952974885702">
<ele>364.79999999999995</ele>
<time>2023-05-16T11:59:29Z</time>
</trkpt>
<trkpt lat="49.02728998102248" lon="9.392844932153821">
<ele>364.20000000000005</ele>
<time>2023-05-16T11:59:30Z</time>
</trkpt>
<trkpt lat="49.027304984629154" lon="9.392736973240972">
<ele>363.6</ele>
<time>2023-05-16T11:59:31Z</time>
</trkpt>
<trkpt lat="49.02731998823583" lon="9.392634965479374">
<ele>362.79999999999995</ele>
<time>2023-05-16T11:59:32Z</time>
</trkpt>
<trkpt lat="49.02734295465052" lon="9.39254192635417">
<ele>362.20000000000005</ele>
<time>2023-05-16T11:59:33Z</time>
</trkpt>
<trkpt lat="49.02737497352064" lon="9.39245198853314">
<ele>361.6</ele>
<time>2023-05-16T11:59:34Z</time>
</trkpt>
<trkpt lat="49.027412943542004" lon="9.39236699603498">
<ele>361</ele>
<time>2023-05-16T11:59:35Z</time>
</trkpt>
<trkpt lat="49.02745493687689" lon="9.392276974394917">
<ele>360.6</ele>
<time>2023-05-16T11:59:36Z</time>
</trkpt>
<trkpt lat="49.02749793604016" lon="9.392192987725139">
<ele>360</ele>
<time>2023-05-16T11:59:37Z</time>
</trkpt>
<trkpt lat="49.02753992937505" lon="9.392126938328147">
<ele>359.4</ele>
<time>2023-05-16T11:59:38Z</time>
</trkpt>
<trkpt lat="49.02757999487221" lon="9.392061978578568">
<ele>358.79999999999995</ele>
<time>2023-05-16T11:59:39Z</time>
</trkpt>
<trkpt lat="49.02761997655034" lon="9.391997940838337">
<ele>358.4</ele>
<time>2023-05-16T11:59:40Z</time>
</trkpt>
<trkpt lat="49.02765694074333" lon="9.391937926411629">
<ele>358</ele>
<time>2023-05-16T11:59:41Z</time>
</trkpt>
<trkpt lat="49.027691977098584" lon="9.391881935298443">
<ele>357.4</ele>
<time>2023-05-16T11:59:42Z</time>
</trkpt>
<trkpt lat="49.02773195877671" lon="9.391822926700115">
<ele>357</ele>
<time>2023-05-16T11:59:43Z</time>
</trkpt>
<trkpt lat="49.027776969596744" lon="9.391759978607297">
<ele>356.6</ele>
<time>2023-05-16T11:59:44Z</time>
</trkpt>
<trkpt lat="49.027822986245155" lon="9.391692923381925">
<ele>356.20000000000005</ele>
<time>2023-05-16T11:59:45Z</time>
</trkpt>
<trkpt lat="49.027869924902916" lon="9.391621928662062">
<ele>355.79999999999995</ele>
<time>2023-05-16T11:59:46Z</time>
</trkpt>
<trkpt lat="49.02791694737971" lon="9.39155193977058">
<ele>355.4</ele>
<time>2023-05-16T11:59:47Z</time>
</trkpt>
<trkpt lat="49.02796698734164" lon="9.391477927565575">
<ele>355</ele>
<time>2023-05-16T11:59:48Z</time>
</trkpt>
<trkpt lat="49.02802197262645" lon="9.391397964209318">
<ele>354.6</ele>
<time>2023-05-16T11:59:49Z</time>
</trkpt>
<trkpt lat="49.02807695791125" lon="9.391311965882778">
<ele>354.20000000000005</ele>
<time>2023-05-16T11:59:50Z</time>
</trkpt>
<trkpt lat="49.0281349606812" lon="9.391221944242716">
<ele>353.79999999999995</ele>
<time>2023-05-16T11:59:51Z</time>
</trkpt>
<trkpt lat="49.02819698676467" lon="9.391126977279782">
<ele>353.4</ele>
<time>2023-05-16T11:59:52Z</time>
</trkpt>
<trkpt lat="49.028256917372346" lon="9.39103695563972">
<ele>352.79999999999995</ele>
<time>2023-05-16T11:59:53Z</time>
</trkpt>
<trkpt lat="49.02830997481942" lon="9.390956992283463">
<ele>352.4</ele>
<time>2023-05-16T11:59:54Z</time>
</trkpt>
<trkpt lat="49.02836697176099" lon="9.390876945108175">
<ele>352</ele>
<time>2023-05-16T11:59:55Z</time>
</trkpt>
<trkpt lat="49.028424974530935" lon="9.3907979875803">
<ele>351.4</ele>
<time>2023-05-16T11:59:56Z</time>
</trkpt>
<trkpt lat="49.02847794815898" lon="9.39071492291987">
<ele>351</ele>
<time>2023-05-16T11:59:57Z</time>
</trkpt>
<trkpt lat="49.028529999777675" lon="9.3906269967556">
<ele>350.4</ele>
<time>2023-05-16T11:59:58Z</time>
</trkpt>
<trkpt lat="49.02858699671924" lon="9.390536975115538">
<ele>350</ele>
<time>2023-05-16T11:59:59Z</time>
</trkpt>
<trkpt lat="49.028637958690524" lon="9.390446953475475">
<ele>349.4</ele>
<time>2023-05-16T12:00:00Z</time>
</trkpt>
<trkpt lat="49.02868992649019" lon="9.390352992340922">
<ele>349</ele>
<time>2023-05-16T12:00:01Z</time>
</trkpt>
<trkpt lat="49.02873292565346" lon="9.390254924073815">
<ele>348.4</ele>
<time>2023-05-16T12:00:02Z</time>
</trkpt>
<trkpt lat="49.028769973665476" lon="9.390144953504205">
<ele>347.79999999999995</ele>
<time>2023-05-16T12:00:03Z</time>
</trkpt>
<trkpt lat="49.02879998087883" lon="9.39002794213593">
<ele>347.4</ele>
<time>2023-05-16T12:00:04Z</time>
</trkpt>
<trkpt lat="49.02882194146514" lon="9.389902967959642">
<ele>346.79999999999995</ele>
<time>2023-05-16T12:00:05Z</time>
</trkpt>
<trkpt lat="49.02883996255696" lon="9.389776987954974">
<ele>346.20000000000005</ele>
<time>2023-05-16T12:00:06Z</time>
</trkpt>
<trkpt lat="49.028852954506874" lon="9.389647990465164">
<ele>345.6</ele>
<time>2023-05-16T12:00:07Z</time>
</trkpt>
<trkpt lat="49.02886695228517" lon="9.389522932469845">
<ele>345</ele>
<time>2023-05-16T12:00:08Z</time>
</trkpt>
<trkpt lat="49.02888195589185" lon="9.389391923323274">
<ele>344.4</ele>
<time>2023-05-16T12:00:09Z</time>
</trkpt>
<trkpt lat="49.028897965326905" lon="9.38925295136869">
<ele>344</ele>
<time>2023-05-16T12:00:10Z</time>
</trkpt>
<trkpt lat="49.02891498059034" lon="9.389112973585725">
<ele>343.4</ele>
<time>2023-05-16T12:00:11Z</time>
</trkpt>
<trkpt lat="49.02893492951989" lon="9.388977941125631">
<ele>342.79999999999995</ele>
<time>2023-05-16T12:00:12Z</time>
</trkpt>
<trkpt lat="49.02893291786313" lon="9.38884299248457">
<ele>342.20000000000005</ele>
<time>2023-05-16T12:00:13Z</time>
</trkpt>
<trkpt lat="49.028941970318556" lon="9.388699997216463">
<ele>341.6</ele>
<time>2023-05-16T12:00:14Z</time>
</trkpt>
<trkpt lat="49.0289449878037" lon="9.388556918129325">
<ele>341</ele>
<time>2023-05-16T12:00:15Z</time>
</trkpt>
<trkpt lat="49.02895496226847" lon="9.388399925082922">
<ele>340.4</ele>
<time>2023-05-16T12:00:16Z</time>
</trkpt>
<trkpt lat="49.02897792868316" lon="9.388266988098621">
<ele>340</ele>
<time>2023-05-16T12:00:17Z</time>
</trkpt>
<trkpt lat="49.02897792868316" lon="9.388117957860231">
<ele>339.4</ele>
<time>2023-05-16T12:00:18Z</time>
</trkpt>
<trkpt lat="49.02896694839001" lon="9.387961970642209">
<ele>338.79999999999995</ele>
<time>2023-05-16T12:00:19Z</time>
</trkpt>
<trkpt lat="49.02895496226847" lon="9.387787962332368">
<ele>338.4</ele>
<time>2023-05-16T12:00:20Z</time>
</trkpt>
<trkpt lat="49.0289449878037" lon="9.387629963457584">
<ele>337.79999999999995</ele>
<time>2023-05-16T12:00:21Z</time>
</trkpt>
<trkpt lat="49.02892495505512" lon="9.387496942654252">
<ele>337.20000000000005</ele>
<time>2023-05-16T12:00:22Z</time>
</trkpt>
<trkpt lat="49.02890299446881" lon="9.38733994960785">
<ele>336.4</ele>
<time>2023-05-16T12:00:23Z</time>
</trkpt>
<trkpt lat="49.0289069339633" lon="9.387214975431561">
<ele>335.79999999999995</ele>
<time>2023-05-16T12:00:24Z</time>
</trkpt>
<trkpt lat="49.028896959498525" lon="9.38708195462823">
<ele>335</ele>
<time>2023-05-16T12:00:25Z</time>
</trkpt>
<trkpt lat="49.02886795811355" lon="9.386947927996516">
<ele>334.4</ele>
<time>2023-05-16T12:00:26Z</time>
</trkpt>
<trkpt lat="49.02883996255696" lon="9.386754976585507">
<ele>333.6</ele>
<time>2023-05-16T12:00:27Z</time>
</trkpt>
<trkpt lat="49.028811967000365" lon="9.386594966053963">
<ele>333</ele>
<time>2023-05-16T12:00:28Z</time>
</trkpt>
<trkpt lat="49.02877793647349" lon="9.38645993359387">
<ele>332.20000000000005</ele>
<time>2023-05-16T12:00:29Z</time>
</trkpt>
<trkpt lat="49.028746923431754" lon="9.386316938325763">
<ele>331.4</ele>
<time>2023-05-16T12:00:30Z</time>
</trkpt>
<trkpt lat="49.02869797311723" lon="9.386166986078024">
<ele>330.6</ele>
<time>2023-05-16T12:00:31Z</time>
</trkpt>
<trkpt lat="49.028641982004046" lon="9.386012926697731">
<ele>329.79999999999995</ele>
<time>2023-05-16T12:00:32Z</time>
</trkpt>
<trkpt lat="49.02859294787049" lon="9.385887952521443">
<ele>329.20000000000005</ele>
<time>2023-05-16T12:00:33Z</time>
</trkpt>
<trkpt lat="49.02854491956532" lon="9.385759960860014">
<ele>328.6</ele>
<time>2023-05-16T12:00:34Z</time>
</trkpt>
<trkpt lat="49.028509967029095" lon="9.385636998340487">
<ele>328</ele>
<time>2023-05-16T12:00:35Z</time>
</trkpt>
<trkpt lat="49.02845196425915" lon="9.385499954223633">
<ele>327.4</ele>
<time>2023-05-16T12:00:36Z</time>
</trkpt>
<trkpt lat="49.02839194983244" lon="9.385359976440668">
<ele>326.79999999999995</ele>
<time>2023-05-16T12:00:37Z</time>
</trkpt>
<trkpt lat="49.02834199368954" lon="9.385211952030659">
<ele>326.20000000000005</ele>
<time>2023-05-16T12:00:38Z</time>
</trkpt>
<trkpt lat="49.02828793041408" lon="9.385069962590933">
<ele>325.6</ele>
<time>2023-05-16T12:00:39Z</time>
</trkpt>
<trkpt lat="49.02823998592794" lon="9.384926967322826">
<ele>324.79999999999995</ele>
<time>2023-05-16T12:00:40Z</time>
</trkpt>
<trkpt lat="49.028187934309244" lon="9.384786989539862">
<ele>324.20000000000005</ele>
<time>2023-05-16T12:00:41Z</time>
</trkpt>
<trkpt lat="49.02813797816634" lon="9.384644916281104">
<ele>323.6</ele>
<time>2023-05-16T12:00:42Z</time>
</trkpt>
<trkpt lat="49.02808693237603" lon="9.384474931284785">
<ele>322.79999999999995</ele>
<time>2023-05-16T12:00:43Z</time>
</trkpt>
<trkpt lat="49.02804795652628" lon="9.384319949895144">
<ele>322</ele>
<time>2023-05-16T12:00:44Z</time>
</trkpt>
<trkpt lat="49.02800998650491" lon="9.384166980162263">
<ele>321.4</ele>
<time>2023-05-16T12:00:45Z</time>
</trkpt>
<trkpt lat="49.027972938492894" lon="9.384011998772621">
<ele>320.6</ele>
<time>2023-05-16T12:00:46Z</time>
</trkpt>
<trkpt lat="49.02793496847153" lon="9.383844947442412">
<ele>320</ele>
<time>2023-05-16T12:00:47Z</time>
</trkpt>
<trkpt lat="49.02789792045951" lon="9.383684936910868">
<ele>319.20000000000005</ele>
<time>2023-05-16T12:00:48Z</time>
</trkpt>
<trkpt lat="49.027862967923284" lon="9.38351796939969">
<ele>318.4</ele>
<time>2023-05-16T12:00:49Z</time>
</trkpt>
<trkpt lat="49.02783698402345" lon="9.383356953039765">
<ele>317.6</ele>
<time>2023-05-16T12:00:50Z</time>
</trkpt>
<trkpt lat="49.02780496515334" lon="9.383192919194698">
<ele>317</ele>
<time>2023-05-16T12:00:51Z</time>
</trkpt>
<trkpt lat="49.02776992879808" lon="9.383031986653805">
<ele>316.20000000000005</ele>
<time>2023-05-16T12:00:52Z</time>
</trkpt>
<trkpt lat="49.02773296460509" lon="9.382877927273512">
<ele>315.4</ele>
<time>2023-05-16T12:00:53Z</time>
</trkpt>
<trkpt lat="49.0276999399066" lon="9.38272294588387">
<ele>314.6</ele>
<time>2023-05-16T12:00:54Z</time>
</trkpt>
<trkpt lat="49.02766792103648" lon="9.38257492147386">
<ele>314</ele>
<time>2023-05-16T12:00:55Z</time>
</trkpt>
<trkpt lat="49.02764193713665" lon="9.38242195174098">
<ele>313.20000000000005</ele>
<time>2023-05-16T12:00:56Z</time>
</trkpt>
<trkpt lat="49.02761293575168" lon="9.382274933159351">
<ele>312.6</ele>
<time>2023-05-16T12:00:57Z</time>
</trkpt>
<trkpt lat="49.027586951851845" lon="9.382132943719625">
<ele>312</ele>
<time>2023-05-16T12:00:58Z</time>
</trkpt>
<trkpt lat="49.027564991265535" lon="9.381986930966377">
<ele>311.4</ele>
<time>2023-05-16T12:00:59Z</time>
</trkpt>
<trkpt lat="49.0275479760021" lon="9.38184192404151">
<ele>310.79999999999995</ele>
<time>2023-05-16T12:01:00Z</time>
</trkpt>
<trkpt lat="49.02753791771829" lon="9.381697922945023">
<ele>310.4</ele>
<time>2023-05-16T12:01:01Z</time>
</trkpt>
<trkpt lat="49.02753297239542" lon="9.381554927676916">
<ele>310</ele>
<time>2023-05-16T12:01:02Z</time>
</trkpt>
<trkpt lat="49.02753699570894" lon="9.381391983479261">
<ele>309.4</ele>
<time>2023-05-16T12:01:03Z</time>
</trkpt>
<trkpt lat="49.027541941031814" lon="9.381242953240871">
<ele>309</ele>
<time>2023-05-16T12:01:04Z</time>
</trkpt>
<trkpt lat="49.02754697017372" lon="9.381091995164752">
<ele>308.6</ele>
<time>2023-05-16T12:01:05Z</time>
</trkpt>
<trkpt lat="49.027564991265535" lon="9.380941959097981">
<ele>308.20000000000005</ele>
<time>2023-05-16T12:01:06Z</time>
</trkpt>
<trkpt lat="49.02759198099375" lon="9.380797958001494">
<ele>307.6</ele>
<time>2023-05-16T12:01:07Z</time>
</trkpt>
<trkpt lat="49.02761494740844" lon="9.380662925541401">
<ele>307.20000000000005</ele>
<time>2023-05-16T12:01:08Z</time>
</trkpt>
<trkpt lat="49.02764696627855" lon="9.380549937486649">
<ele>306.79999999999995</ele>
<time>2023-05-16T12:01:09Z</time>
</trkpt>
<trkpt lat="49.02767999097705" lon="9.380449941381812">
<ele>306.4</ele>
<time>2023-05-16T12:01:10Z</time>
</trkpt>
<trkpt lat="49.027717960998416" lon="9.380341982468963">
<ele>306</ele>
<time>2023-05-16T12:01:11Z</time>
</trkpt>
<trkpt lat="49.02776498347521" lon="9.38023192808032">
<ele>305.79999999999995</ele>
<time>2023-05-16T12:01:12Z</time>
</trkpt>
<trkpt lat="49.027799936011434" lon="9.38010192476213">
<ele>305.4</ele>
<time>2023-05-16T12:01:13Z</time>
</trkpt>
<trkpt lat="49.02783296070993" lon="9.379996983334422">
<ele>305</ele>
<time>2023-05-16T12:01:14Z</time>
</trkpt>
<trkpt lat="49.02785995043814" lon="9.37986496835947">
<ele>304.79999999999995</ele>
<time>2023-05-16T12:01:15Z</time>
</trkpt>
<trkpt lat="49.02788492850959" lon="9.379732953384519">
<ele>304.4</ele>
<time>2023-05-16T12:01:16Z</time>
</trkpt>
<trkpt lat="49.027907978743315" lon="9.379601944237947">
<ele>304</ele>
<time>2023-05-16T12:01:17Z</time>
</trkpt>
<trkpt lat="49.02792499400675" lon="9.379464983940125">
<ele>303.6</ele>
<time>2023-05-16T12:01:18Z</time>
</trkpt>
<trkpt lat="49.02793496847153" lon="9.379337998107076">
<ele>303.20000000000005</ele>
<time>2023-05-16T12:01:19Z</time>
</trkpt>
<trkpt lat="49.02794192545116" lon="9.37919793650508">
<ele>303</ele>
<time>2023-05-16T12:01:20Z</time>
</trkpt>
<trkpt lat="49.027949972078204" lon="9.379064999520779">
<ele>302.6</ele>
<time>2023-05-16T12:01:21Z</time>
</trkpt>
<trkpt lat="49.027952989563346" lon="9.378922926262021">
<ele>302.20000000000005</ele>
<time>2023-05-16T12:01:22Z</time>
</trkpt>
<trkpt lat="49.02795793488622" lon="9.37879191711545">
<ele>301.79999999999995</ele>
<time>2023-05-16T12:01:23Z</time>
</trkpt>
<trkpt lat="49.027949972078204" lon="9.378657974302769">
<ele>301.6</ele>
<time>2023-05-16T12:01:24Z</time>
</trkpt>
<trkpt lat="49.02794192545116" lon="9.378527970984578">
<ele>301.20000000000005</ele>
<time>2023-05-16T12:01:25Z</time>
</trkpt>
<trkpt lat="49.02792499400675" lon="9.37840299680829">
<ele>301</ele>
<time>2023-05-16T12:01:26Z</time>
</trkpt>
<trkpt lat="49.027912924066186" lon="9.378282967954874">
<ele>300.6</ele>
<time>2023-05-16T12:01:27Z</time>
</trkpt>
<trkpt lat="49.02788492850959" lon="9.378162939101458">
<ele>300.20000000000005</ele>
<time>2023-05-16T12:01:28Z</time>
</trkpt>
<trkpt lat="49.02785793878138" lon="9.378039976581931">
<ele>300</ele>
<time>2023-05-16T12:01:29Z</time>
</trkpt>
<trkpt lat="49.02783497236669" lon="9.377922965213656">
<ele>299.6</ele>
<time>2023-05-16T12:01:30Z</time>
</trkpt>
<trkpt lat="49.02780999429524" lon="9.377804948017001">
<ele>299.20000000000005</ele>
<time>2023-05-16T12:01:31Z</time>
</trkpt>
<trkpt lat="49.02778493240476" lon="9.377696989104152">
<ele>298.79999999999995</ele>
<time>2023-05-16T12:01:32Z</time>
</trkpt>
<trkpt lat="49.02776196599007" lon="9.37758693471551">
<ele>298.4</ele>
<time>2023-05-16T12:01:33Z</time>
</trkpt>
<trkpt lat="49.027737993746996" lon="9.37747998163104">
<ele>298.20000000000005</ele>
<time>2023-05-16T12:01:34Z</time>
</trkpt>
<trkpt lat="49.027717960998416" lon="9.377369927242398">
<ele>297.79999999999995</ele>
<time>2023-05-16T12:01:35Z</time>
</trkpt>
<trkpt lat="49.02770295739174" lon="9.37726297415793">
<ele>297.4</ele>
<time>2023-05-16T12:01:36Z</time>
</trkpt>
<trkpt lat="49.027691977098584" lon="9.377137999981642">
<ele>297</ele>
<time>2023-05-16T12:01:37Z</time>
</trkpt>
<trkpt lat="49.02768493629992" lon="9.37700497917831">
<ele>296.79999999999995</ele>
<time>2023-05-16T12:01:38Z</time>
</trkpt>
<trkpt lat="49.027674961835146" lon="9.37685796059668">
<ele>296.4</ele>
<time>2023-05-16T12:01:39Z</time>
</trkpt>
<trkpt lat="49.027674961835146" lon="9.376714965328574">
<ele>296</ele>
<time>2023-05-16T12:01:40Z</time>
</trkpt>
<trkpt lat="49.027672950178385" lon="9.376571970060468">
<ele>295.6</ele>
<time>2023-05-16T12:01:41Z</time>
</trkpt>
<trkpt lat="49.027672950178385" lon="9.3764269631356">
<ele>295.4</ele>
<time>2023-05-16T12:01:42Z</time>
</trkpt>
<trkpt lat="49.027672950178385" lon="9.376286985352635">
<ele>295</ele>
<time>2023-05-16T12:01:43Z</time>
</trkpt>
<trkpt lat="49.027672950178385" lon="9.376146923750639">
<ele>294.79999999999995</ele>
<time>2023-05-16T12:01:44Z</time>
</trkpt>
<trkpt lat="49.02766993269324" lon="9.376002922654152">
<ele>294.4</ele>
<time>2023-05-16T12:01:45Z</time>
</trkpt>
<trkpt lat="49.02766792103648" lon="9.37586797401309">
<ele>294</ele>
<time>2023-05-16T12:01:46Z</time>
</trkpt>
<trkpt lat="49.027671944350004" lon="9.375741994008422">
<ele>293.6</ele>
<time>2023-05-16T12:01:47Z</time>
</trkpt>
<trkpt lat="49.02767697349191" lon="9.375614924356341">
<ele>293.20000000000005</ele>
<time>2023-05-16T12:01:48Z</time>
</trkpt>
<trkpt lat="49.02768191881478" lon="9.375491961836815">
<ele>292.79999999999995</ele>
<time>2023-05-16T12:01:49Z</time>
</trkpt>
<trkpt lat="49.02768292464316" lon="9.375369921326637">
<ele>292.6</ele>
<time>2023-05-16T12:01:50Z</time>
</trkpt>
<trkpt lat="49.02768694795668" lon="9.375237990170717">
<ele>292.20000000000005</ele>
<time>2023-05-16T12:01:51Z</time>
</trkpt>
<trkpt lat="49.0276999399066" lon="9.37511695548892">
<ele>291.79999999999995</ele>
<time>2023-05-16T12:01:52Z</time>
</trkpt>
<trkpt lat="49.02771293185651" lon="9.375001955777407">
<ele>291.6</ele>
<time>2023-05-16T12:01:53Z</time>
</trkpt>
<trkpt lat="49.02772692963481" lon="9.37487999908626">
<ele>291.4</ele>
<time>2023-05-16T12:01:54Z</time>
</trkpt>
<trkpt lat="49.027737993746996" lon="9.37474999576807">
<ele>291</ele>
<time>2023-05-16T12:01:55Z</time>
</trkpt>
<trkpt lat="49.02774796821177" lon="9.374614963307977">
<ele>290.79999999999995</ele>
<time>2023-05-16T12:01:56Z</time>
</trkpt>
<trkpt lat="49.027756936848164" lon="9.374477919191122">
<ele>290.4</ele>
<time>2023-05-16T12:01:57Z</time>
</trkpt>
<trkpt lat="49.02776699513197" lon="9.374347999691963">
<ele>290.20000000000005</ele>
<time>2023-05-16T12:01:58Z</time>
</trkpt>
<trkpt lat="49.027776969596744" lon="9.37421296723187">
<ele>289.79999999999995</ele>
<time>2023-05-16T12:01:59Z</time>
</trkpt>
<trkpt lat="49.02778493240476" lon="9.374079946428537">
<ele>289.4</ele>
<time>2023-05-16T12:02:00Z</time>
</trkpt>
<trkpt lat="49.0277929790318" lon="9.373944997787476">
<ele>289.20000000000005</ele>
<time>2023-05-16T12:02:01Z</time>
</trkpt>
<trkpt lat="49.027801947668195" lon="9.373812982812524">
<ele>288.79999999999995</ele>
<time>2023-05-16T12:02:02Z</time>
</trkpt>
<trkpt lat="49.02781192213297" lon="9.373687924817204">
<ele>288.4</ele>
<time>2023-05-16T12:02:03Z</time>
</trkpt>
<trkpt lat="49.027819968760014" lon="9.373556999489665">
<ele>288</ele>
<time>2023-05-16T12:02:04Z</time>
</trkpt>
<trkpt lat="49.02782793156803" lon="9.373421967029572">
<ele>287.6</ele>
<time>2023-05-16T12:02:05Z</time>
</trkpt>
<trkpt lat="49.027842935174704" lon="9.373299926519394">
<ele>287.20000000000005</ele>
<time>2023-05-16T12:02:06Z</time>
</trkpt>
<trkpt lat="49.02785793878138" lon="9.37317998148501">
<ele>286.79999999999995</ele>
<time>2023-05-16T12:02:07Z</time>
</trkpt>
<trkpt lat="49.02787193655968" lon="9.37305492348969">
<ele>286.4</ele>
<time>2023-05-16T12:02:08Z</time>
</trkpt>
<trkpt lat="49.02787998318672" lon="9.372919974848628">
<ele>286</ele>
<time>2023-05-16T12:02:09Z</time>
</trkpt>
<trkpt lat="49.027887945994735" lon="9.372794916853309">
<ele>285.79999999999995</ele>
<time>2023-05-16T12:02:10Z</time>
</trkpt>
<trkpt lat="49.02789699845016" lon="9.372661979869008">
<ele>285.4</ele>
<time>2023-05-16T12:02:11Z</time>
</trkpt>
<trkpt lat="49.02790496125817" lon="9.372532982379198">
<ele>285</ele>
<time>2023-05-16T12:02:12Z</time>
</trkpt>
<trkpt lat="49.02791795320809" lon="9.372411947697401">
<ele>284.79999999999995</ele>
<time>2023-05-16T12:02:13Z</time>
</trkpt>
<trkpt lat="49.02792499400675" lon="9.37227993272245">
<ele>284.4</ele>
<time>2023-05-16T12:02:14Z</time>
</trkpt>
<trkpt lat="49.02793496847153" lon="9.372154958546162">
<ele>284</ele>
<time>2023-05-16T12:02:15Z</time>
</trkpt>
<trkpt lat="49.0279449429363" lon="9.37202193774283">
<ele>283.79999999999995</ele>
<time>2023-05-16T12:02:16Z</time>
</trkpt>
<trkpt lat="49.02796195819974" lon="9.371896963566542">
<ele>283.4</ele>
<time>2023-05-16T12:02:17Z</time>
</trkpt>
<trkpt lat="49.02796992100775" lon="9.371769977733493">
<ele>283</ele>
<time>2023-05-16T12:02:18Z</time>
</trkpt>
<trkpt lat="49.0279779676348" lon="9.371639974415302">
<ele>282.6</ele>
<time>2023-05-16T12:02:19Z</time>
</trkpt>
<trkpt lat="49.02798995375633" lon="9.371509971097112">
<ele>282.4</ele>
<time>2023-05-16T12:02:20Z</time>
</trkpt>
<trkpt lat="49.02800495736301" lon="9.37137795612216">
<ele>282</ele>
<time>2023-05-16T12:02:21Z</time>
</trkpt>
<trkpt lat="49.028016943484545" lon="9.37124996446073">
<ele>281.79999999999995</ele>
<time>2023-05-16T12:02:22Z</time>
</trkpt>
<trkpt lat="49.0280279237777" lon="9.371121972799301">
<ele>281.4</ele>
<time>2023-05-16T12:02:23Z</time>
</trkpt>
<trkpt lat="49.02804292738438" lon="9.37099196948111">
<ele>281</ele>
<time>2023-05-16T12:02:24Z</time>
</trkpt>
<trkpt lat="49.02806296013296" lon="9.370866995304823">
<ele>280.79999999999995</ele>
<time>2023-05-16T12:02:25Z</time>
</trkpt>
<trkpt lat="49.028084920719266" lon="9.370744954794645">
<ele>280.4</ele>
<time>2023-05-16T12:02:26Z</time>
</trkpt>
<trkpt lat="49.02811199426651" lon="9.370634984225035">
<ele>280</ele>
<time>2023-05-16T12:02:27Z</time>
</trkpt>
<trkpt lat="49.0281399898231" lon="9.37051797285676">
<ele>279.79999999999995</ele>
<time>2023-05-16T12:02:28Z</time>
</trkpt>
<trkpt lat="49.02816999703646" lon="9.370392998680472">
<ele>279.6</ele>
<time>2023-05-16T12:02:29Z</time>
</trkpt>
<trkpt lat="49.02821693569422" lon="9.370279926806688">
<ele>279.20000000000005</ele>
<time>2023-05-16T12:02:30Z</time>
</trkpt>
<trkpt lat="49.02825993485749" lon="9.37019694596529">
<ele>279</ele>
<time>2023-05-16T12:02:31Z</time>
</trkpt>
<trkpt lat="49.02830796316266" lon="9.370097955688834">
<ele>278.79999999999995</ele>
<time>2023-05-16T12:02:32Z</time>
</trkpt>
<trkpt lat="49.02836797758937" lon="9.369992930442095">
<ele>278.4</ele>
<time>2023-05-16T12:02:33Z</time>
</trkpt>
<trkpt lat="49.0284269861877" lon="9.369879942387342">
<ele>278.20000000000005</ele>
<time>2023-05-16T12:02:34Z</time>
</trkpt>
<trkpt lat="49.0284769423306" lon="9.369771983474493">
<ele>277.79999999999995</ele>
<time>2023-05-16T12:02:35Z</time>
</trkpt>
<trkpt lat="49.02852798812091" lon="9.36965798959136">
<ele>277.6</ele>
<time>2023-05-16T12:02:36Z</time>
</trkpt>
<trkpt lat="49.028572998940945" lon="9.369549946859479">
<ele>277.20000000000005</ele>
<time>2023-05-16T12:02:37Z</time>
</trkpt>
<trkpt lat="49.02862194925547" lon="9.369432935491204">
<ele>277</ele>
<time>2023-05-16T12:02:38Z</time>
</trkpt>
<trkpt lat="49.028662936761975" lon="9.369324976578355">
<ele>276.6</ele>
<time>2023-05-16T12:02:39Z</time>
</trkpt>
<trkpt lat="49.02869696728885" lon="9.369202936068177">
<ele>276.4</ele>
<time>2023-05-16T12:02:40Z</time>
</trkpt>
<trkpt lat="49.02873191982508" lon="9.369074944406748">
<ele>276</ele>
<time>2023-05-16T12:02:41Z</time>
</trkpt>
<trkpt lat="49.02876494452357" lon="9.368951981887221">
<ele>275.79999999999995</ele>
<time>2023-05-16T12:02:42Z</time>
</trkpt>
<trkpt lat="49.028787994757295" lon="9.368822984397411">
<ele>275.4</ele>
<time>2023-05-16T12:02:43Z</time>
</trkpt>
<trkpt lat="49.02880794368684" lon="9.368696920573711">
<ele>275.20000000000005</ele>
<time>2023-05-16T12:02:44Z</time>
</trkpt>
<trkpt lat="49.02882495895028" lon="9.368572952225804">
<ele>274.79999999999995</ele>
<time>2023-05-16T12:02:45Z</time>
</trkpt>
<trkpt lat="49.028832921758294" lon="9.368442948907614">
<ele>274.4</ele>
<time>2023-05-16T12:02:46Z</time>
</trkpt>
<trkpt lat="49.02884197421372" lon="9.368306994438171">
<ele>274</ele>
<time>2023-05-16T12:02:47Z</time>
</trkpt>
<trkpt lat="49.02884197421372" lon="9.368167938664556">
<ele>273.79999999999995</ele>
<time>2023-05-16T12:02:48Z</time>
</trkpt>
<trkpt lat="49.028836945071816" lon="9.368032990023494">
<ele>273.4</ele>
<time>2023-05-16T12:02:49Z</time>
</trkpt>
<trkpt lat="49.028829988092184" lon="9.367899969220161">
<ele>273.20000000000005</ele>
<time>2023-05-16T12:02:50Z</time>
</trkpt>
<trkpt lat="49.02881992980838" lon="9.367762925103307">
<ele>272.79999999999995</ele>
<time>2023-05-16T12:02:51Z</time>
</trkpt>
<trkpt lat="49.02881498448551" lon="9.367632921785116">
<ele>272.4</ele>
<time>2023-05-16T12:02:52Z</time>
</trkpt>
<trkpt lat="49.0288049262017" lon="9.367499984800816">
<ele>271.79999999999995</ele>
<time>2023-05-16T12:02:53Z</time>
</trkpt>
<trkpt lat="49.028791934251785" lon="9.367362940683961">
<ele>271.4</ele>
<time>2023-05-16T12:02:54Z</time>
</trkpt>
<trkpt lat="49.02877994813025" lon="9.36723193153739">
<ele>270.79999999999995</ele>
<time>2023-05-16T12:02:55Z</time>
</trkpt>
<trkpt lat="49.028766956180334" lon="9.367111986503005">
<ele>270.4</ele>
<time>2023-05-16T12:02:56Z</time>
</trkpt>
<trkpt lat="49.02875295840204" lon="9.366984916850924">
<ele>270</ele>
<time>2023-05-16T12:02:57Z</time>
</trkpt>
<trkpt lat="49.028747929260135" lon="9.36686497181654">
<ele>269.6</ele>
<time>2023-05-16T12:02:58Z</time>
</trkpt>
<trkpt lat="49.02873694896698" lon="9.366742931306362">
<ele>269.4</ele>
<time>2023-05-16T12:02:59Z</time>
</trkpt>
<trkpt lat="49.02872999198735" lon="9.366617957130075">
<ele>269</ele>
<time>2023-05-16T12:03:00Z</time>
</trkpt>
<trkpt lat="49.0287219453603" lon="9.366486947983503">
<ele>268.79999999999995</ele>
<time>2023-05-16T12:03:01Z</time>
</trkpt>
<trkpt lat="49.028706941753626" lon="9.366356944665313">
<ele>268.4</ele>
<time>2023-05-16T12:03:02Z</time>
</trkpt>
<trkpt lat="49.02869797311723" lon="9.366221996024251">
<ele>268</ele>
<time>2023-05-16T12:03:03Z</time>
</trkpt>
<trkpt lat="49.028682969510555" lon="9.3660899810493">
<ele>267.6</ele>
<time>2023-05-16T12:03:04Z</time>
</trkpt>
<trkpt lat="49.02867693454027" lon="9.365956960245967">
<ele>267.4</ele>
<time>2023-05-16T12:03:05Z</time>
</trkpt>
<trkpt lat="49.02867299504578" lon="9.365824945271015">
<ele>267</ele>
<time>2023-05-16T12:03:06Z</time>
</trkpt>
<trkpt lat="49.028681963682175" lon="9.365709945559502">
<ele>266.6</ele>
<time>2023-05-16T12:03:07Z</time>
</trkpt>
<trkpt lat="49.02869495563209" lon="9.365601986646652">
<ele>266.4</ele>
<time>2023-05-16T12:03:08Z</time>
</trkpt>
<trkpt lat="49.02870995923877" lon="9.36548799276352">
<ele>266</ele>
<time>2023-05-16T12:03:09Z</time>
</trkpt>
<trkpt lat="49.02873292565346" lon="9.365364946424961">
<ele>265.79999999999995</ele>
<time>2023-05-16T12:03:10Z</time>
</trkpt>
<trkpt lat="49.02875195257366" lon="9.365246929228306">
<ele>265.6</ele>
<time>2023-05-16T12:03:11Z</time>
</trkpt>
<trkpt lat="49.02877693064511" lon="9.365116925910115">
<ele>265.4</ele>
<time>2023-05-16T12:03:12Z</time>
</trkpt>
<trkpt lat="49.02879998087883" lon="9.364991951733828">
<ele>265.20000000000005</ele>
<time>2023-05-16T12:03:13Z</time>
</trkpt>
<trkpt lat="49.02882294729352" lon="9.364871922880411">
<ele>265</ele>
<time>2023-05-16T12:03:14Z</time>
</trkpt>
<trkpt lat="49.02884499169886" lon="9.364757928997278">
<ele>264.79999999999995</ele>
<time>2023-05-16T12:03:15Z</time>
</trkpt>
<trkpt lat="49.02885798364878" lon="9.364642929285765">
<ele>264.6</ele>
<time>2023-05-16T12:03:16Z</time>
</trkpt>
<trkpt lat="49.02886494062841" lon="9.364511920139194">
<ele>264.4</ele>
<time>2023-05-16T12:03:17Z</time>
</trkpt>
<trkpt lat="49.02886996977031" lon="9.364386945962906">
<ele>264.20000000000005</ele>
<time>2023-05-16T12:03:18Z</time>
</trkpt>
<trkpt lat="49.028872987255454" lon="9.364257948473096">
<ele>263.79999999999995</ele>
<time>2023-05-16T12:03:19Z</time>
</trkpt>
<trkpt lat="49.028872987255454" lon="9.364124927669764">
<ele>263.6</ele>
<time>2023-05-16T12:03:20Z</time>
</trkpt>
<trkpt lat="49.02887198142707" lon="9.36398696154356">
<ele>263.20000000000005</ele>
<time>2023-05-16T12:03:21Z</time>
</trkpt>
<trkpt lat="49.028876926749945" lon="9.363844972103834">
<ele>262.79999999999995</ele>
<time>2023-05-16T12:03:22Z</time>
</trkpt>
<trkpt lat="49.02888296172023" lon="9.36370792798698">
<ele>262.6</ele>
<time>2023-05-16T12:03:23Z</time>
</trkpt>
<trkpt lat="49.02889494784176" lon="9.363567950204015">
<ele>262.20000000000005</ele>
<time>2023-05-16T12:03:24Z</time>
</trkpt>
<trkpt lat="49.02890995144844" lon="9.363419925794005">
<ele>261.79999999999995</ele>
<time>2023-05-16T12:03:25Z</time>
</trkpt>
<trkpt lat="49.028922943398356" lon="9.363272991031408">
<ele>261.4</ele>
<time>2023-05-16T12:03:26Z</time>
</trkpt>
<trkpt lat="49.02894792146981" lon="9.363119937479496">
<ele>261.20000000000005</ele>
<time>2023-05-16T12:03:27Z</time>
</trkpt>
<trkpt lat="49.028984969481826" lon="9.362974930554628">
<ele>260.79999999999995</ele>
<time>2023-05-16T12:03:28Z</time>
</trkpt>
<trkpt lat="49.029027968645096" lon="9.362852973863482">
<ele>260.4</ele>
<time>2023-05-16T12:03:29Z</time>
</trkpt>
<trkpt lat="49.02907297946513" lon="9.362754989415407">
<ele>260</ele>
<time>2023-05-16T12:03:30Z</time>
</trkpt>
<trkpt lat="49.02912997640669" lon="9.36265298165381">
<ele>259.6</ele>
<time>2023-05-16T12:03:31Z</time>
</trkpt>
<trkpt lat="49.029177920892835" lon="9.362562960013747">
<ele>259.4</ele>
<time>2023-05-16T12:03:32Z</time>
</trkpt>
<trkpt lat="49.029239946976304" lon="9.362469920888543">
<ele>259</ele>
<time>2023-05-16T12:03:33Z</time>
</trkpt>
<trkpt lat="49.02929996140301" lon="9.362379983067513">
<ele>258.79999999999995</ele>
<time>2023-05-16T12:03:34Z</time>
</trkpt>
<trkpt lat="49.02936299331486" lon="9.362296918407083">
<ele>258.4</ele>
<time>2023-05-16T12:03:35Z</time>
</trkpt>
<trkpt lat="49.029434993863106" lon="9.3622269295156">
<ele>258</ele>
<time>2023-05-16T12:03:36Z</time>
</trkpt>
<trkpt lat="49.02951193973422" lon="9.362169932574034">
<ele>257.6</ele>
<time>2023-05-16T12:03:37Z</time>
</trkpt>
<trkpt lat="49.02959198690951" lon="9.362122993916273">
<ele>257.4</ele>
<time>2023-05-16T12:03:38Z</time>
</trkpt>
<trkpt lat="49.02967496775091" lon="9.362089969217777">
<ele>257</ele>
<time>2023-05-16T12:03:39Z</time>
</trkpt>
<trkpt lat="49.02976197190583" lon="9.362057950347662">
<ele>256.6</ele>
<time>2023-05-16T12:03:40Z</time>
</trkpt>
<trkpt lat="49.02984696440399" lon="9.36203196644783">
<ele>256.20000000000005</ele>
<time>2023-05-16T12:03:41Z</time>
</trkpt>
<trkpt lat="49.029924999922514" lon="9.36201293952763">
<ele>255.79999999999995</ele>
<time>2023-05-16T12:03:42Z</time>
</trkpt>
<trkpt lat="49.03000999242067" lon="9.361992990598083">
<ele>255.39999999999998</ele>
<time>2023-05-16T12:03:43Z</time>
</trkpt>
<trkpt lat="49.03009498491883" lon="9.361977986991405">
<ele>255.20000000000005</ele>
<time>2023-05-16T12:03:44Z</time>
</trkpt>
<trkpt lat="49.03017796576023" lon="9.361954936757684">
<ele>254.79999999999995</ele>
<time>2023-05-16T12:03:45Z</time>
</trkpt>
<trkpt lat="49.03025994077325" lon="9.36192694120109">
<ele>254.39999999999998</ele>
<time>2023-05-16T12:03:46Z</time>
</trkpt>
<trkpt lat="49.03033998794854" lon="9.361891988664865">
<ele>254</ele>
<time>2023-05-16T12:03:47Z</time>
</trkpt>
<trkpt lat="49.03041995130479" lon="9.361856952309608">
<ele>253.60000000000002</ele>
<time>2023-05-16T12:03:48Z</time>
</trkpt>
<trkpt lat="49.03050192631781" lon="9.361821999773383">
<ele>253.39999999999998</ele>
<time>2023-05-16T12:03:49Z</time>
</trkpt>
<trkpt lat="49.03058297932148" lon="9.361784951761365">
<ele>253</ele>
<time>2023-05-16T12:03:50Z</time>
</trkpt>
<trkpt lat="49.030662942677736" lon="9.361744970083237">
<ele>252.60000000000002</ele>
<time>2023-05-16T12:03:51Z</time>
</trkpt>
<trkpt lat="49.030741984024644" lon="9.361696941778064">
<ele>252.20000000000005</ele>
<time>2023-05-16T12:03:52Z</time>
</trkpt>
<trkpt lat="49.03082295320928" lon="9.361634999513626">
<ele>251.79999999999995</ele>
<time>2023-05-16T12:03:53Z</time>
</trkpt>
<trkpt lat="49.030897971242666" lon="9.361571967601776">
<ele>251.60000000000002</ele>
<time>2023-05-16T12:03:54Z</time>
</trkpt>
<trkpt lat="49.03096997179091" lon="9.361504996195436">
<ele>251.20000000000005</ele>
<time>2023-05-16T12:03:55Z</time>
</trkpt>
<trkpt lat="49.03103996068239" lon="9.361432995647192">
<ele>251</ele>
<time>2023-05-16T12:03:56Z</time>
</trkpt>
<trkpt lat="49.03110693208873" lon="9.361357977613807">
<ele>250.60000000000002</ele>
<time>2023-05-16T12:03:57Z</time>
</trkpt>
<trkpt lat="49.03116795234382" lon="9.361274996772408">
<ele>250.20000000000005</ele>
<time>2023-05-16T12:03:58Z</time>
</trkpt>
<trkpt lat="49.03122494928539" lon="9.361191932111979">
<ele>250</ele>
<time>2023-05-16T12:03:59Z</time>
</trkpt>
<trkpt lat="49.03127792291343" lon="9.361102916300297">
<ele>249.60000000000002</ele>
<time>2023-05-16T12:04:00Z</time>
</trkpt>
<trkpt lat="49.03133299201727" lon="9.361011972650886">
<ele>249.20000000000005</ele>
<time>2023-05-16T12:04:01Z</time>
</trkpt>
<trkpt lat="49.03138194233179" lon="9.360921951010823">
<ele>249</ele>
<time>2023-05-16T12:04:02Z</time>
</trkpt>
<trkpt lat="49.031431982293725" lon="9.36082698404789">
<ele>248.60000000000002</ele>
<time>2023-05-16T12:04:03Z</time>
</trkpt>
<trkpt lat="49.031479926779866" lon="9.360727993771434">
<ele>248.20000000000005</ele>
<time>2023-05-16T12:04:04Z</time>
</trkpt>
<trkpt lat="49.03152795508504" lon="9.360627997666597">
<ele>248</ele>
<time>2023-05-16T12:04:05Z</time>
</trkpt>
<trkpt lat="49.0315799228847" lon="9.36052699573338">
<ele>247.60000000000002</ele>
<time>2023-05-16T12:04:06Z</time>
</trkpt>
<trkpt lat="49.03162996284664" lon="9.360424987971783">
<ele>247.39999999999998</ele>
<time>2023-05-16T12:04:07Z</time>
</trkpt>
<trkpt lat="49.03167799115181" lon="9.360329937189817">
<ele>247.20000000000005</ele>
<time>2023-05-16T12:04:08Z</time>
</trkpt>
<trkpt lat="49.03172199614346" lon="9.360239999368787">
<ele>247</ele>
<time>2023-05-16T12:04:09Z</time>
</trkpt>
<trkpt lat="49.03176499530673" lon="9.360152995213866">
<ele>247</ele>
<time>2023-05-16T12:04:10Z</time>
</trkpt>
<trkpt lat="49.03180698864162" lon="9.360066996887326">
<ele>246.79999999999995</ele>
<time>2023-05-16T12:04:11Z</time>
</trkpt>
<trkpt lat="49.03184495866299" lon="9.35998996719718">
<ele>246.79999999999995</ele>
<time>2023-05-16T12:04:12Z</time>
</trkpt>
<trkpt lat="49.031882928684354" lon="9.359912937507033">
<ele>246.60000000000002</ele>
<time>2023-05-16T12:04:13Z</time>
</trkpt>
<trkpt lat="49.03191695921123" lon="9.359842948615551">
<ele>246.60000000000002</ele>
<time>2023-05-16T12:04:14Z</time>
</trkpt>
<trkpt lat="49.03195199556649" lon="9.359772959724069">
<ele>246.60000000000002</ele>
<time>2023-05-16T12:04:15Z</time>
</trkpt>
<trkpt lat="49.03198292478919" lon="9.35970799997449">
<ele>246.60000000000002</ele>
<time>2023-05-16T12:04:16Z</time>
</trkpt>
<trkpt lat="49.03202299028635" lon="9.359636921435595">
<ele>246.60000000000002</ele>
<time>2023-05-16T12:04:17Z</time>
</trkpt>
<trkpt lat="49.032056936994195" lon="9.359566932544112">
<ele>246.60000000000002</ele>
<time>2023-05-16T12:04:18Z</time>
</trkpt>
<trkpt lat="49.03208795003593" lon="9.359499961137772">
<ele>246.60000000000002</ele>
<time>2023-05-16T12:04:19Z</time>
</trkpt>
<trkpt lat="49.032119968906045" lon="9.359436929225922">
<ele>246.60000000000002</ele>
<time>2023-05-16T12:04:20Z</time>
</trkpt>
<trkpt lat="49.03215198777616" lon="9.359371969476342">
<ele>246.79999999999995</ele>
<time>2023-05-16T12:04:21Z</time>
</trkpt>
<trkpt lat="49.032181994989514" lon="9.359311955049634">
<ele>246.79999999999995</ele>
<time>2023-05-16T12:04:22Z</time>
</trkpt>
<trkpt lat="49.03221191838384" lon="9.359249928966165">
<ele>246.79999999999995</ele>
<time>2023-05-16T12:04:23Z</time>
</trkpt>
<trkpt lat="49.03224192559719" lon="9.359189998358488">
<ele>246.79999999999995</ele>
<time>2023-05-16T12:04:24Z</time>
</trkpt>
<trkpt lat="49.032271932810545" lon="9.35912998393178">
<ele>247</ele>
<time>2023-05-16T12:04:25Z</time>
</trkpt>
<trkpt lat="49.03230294585228" lon="9.35906695201993">
<ele>247</ele>
<time>2023-05-16T12:04:26Z</time>
</trkpt>
<trkpt lat="49.032332953065634" lon="9.359002998098731">
<ele>247</ele>
<time>2023-05-16T12:04:27Z</time>
</trkpt>
<trkpt lat="49.03236497193575" lon="9.358939966186881">
<ele>247.20000000000005</ele>
<time>2023-05-16T12:04:28Z</time>
</trkpt>
<trkpt lat="49.03239296749234" lon="9.35887492261827">
<ele>247.20000000000005</ele>
<time>2023-05-16T12:04:29Z</time>
</trkpt>
<trkpt lat="49.032421968877316" lon="9.358811974525452">
<ele>247.20000000000005</ele>
<time>2023-05-16T12:04:30Z</time>
</trkpt>
<trkpt lat="49.03245298191905" lon="9.358747936785221">
<ele>247.20000000000005</ele>
<time>2023-05-16T12:04:31Z</time>
</trkpt>
<trkpt lat="49.032482989132404" lon="9.358686916530132">
<ele>247.39999999999998</ele>
<time>2023-05-16T12:04:32Z</time>
</trkpt>
<trkpt lat="49.03251693584025" lon="9.358624974265695">
<ele>247.39999999999998</ele>
<time>2023-05-16T12:04:33Z</time>
</trkpt>
<trkpt lat="49.032549960538745" lon="9.358564959838986">
<ele>247.39999999999998</ele>
<time>2023-05-16T12:04:34Z</time>
</trkpt>
<trkpt lat="49.03258197940886" lon="9.358504945412278">
<ele>247.39999999999998</ele>
<time>2023-05-16T12:04:35Z</time>
</trkpt>
<trkpt lat="49.032614920288324" lon="9.358446942642331">
<ele>247.39999999999998</ele>
<time>2023-05-16T12:04:36Z</time>
</trkpt>
<trkpt lat="49.03264794498682" lon="9.358391957357526">
<ele>247.60000000000002</ele>
<time>2023-05-16T12:04:37Z</time>
</trkpt>
<trkpt lat="49.03268499299884" lon="9.358331942930818">
<ele>247.60000000000002</ele>
<time>2023-05-16T12:04:38Z</time>
</trkpt>
<trkpt lat="49.0327179338783" lon="9.35827192850411">
<ele>247.60000000000002</ele>
<time>2023-05-16T12:04:39Z</time>
</trkpt>
<trkpt lat="49.03275498189032" lon="9.358214931562543">
<ele>247.60000000000002</ele>
<time>2023-05-16T12:04:40Z</time>
</trkpt>
<trkpt lat="49.03279295191169" lon="9.358161957934499">
<ele>247.39999999999998</ele>
<time>2023-05-16T12:04:41Z</time>
</trkpt>
<trkpt lat="49.032829999923706" lon="9.358107978478074">
<ele>247.39999999999998</ele>
<time>2023-05-16T12:04:42Z</time>
</trkpt>
<trkpt lat="49.032869981601834" lon="9.358051987364888">
<ele>247.39999999999998</ele>
<time>2023-05-16T12:04:43Z</time>
</trkpt>
<trkpt lat="49.03290996327996" lon="9.357994990423322">
<ele>247.39999999999998</ele>
<time>2023-05-16T12:04:44Z</time>
</trkpt>
<trkpt lat="49.03295296244323" lon="9.357936987653375">
<ele>247.39999999999998</ele>
<time>2023-05-16T12:04:45Z</time>
</trkpt>
<trkpt lat="49.03299696743488" lon="9.357881918549538">
<ele>247.39999999999998</ele>
<time>2023-05-16T12:04:46Z</time>
</trkpt>
<trkpt lat="49.03303996659815" lon="9.357826933264732">
<ele>247.39999999999998</ele>
<time>2023-05-16T12:04:47Z</time>
</trkpt>
<trkpt lat="49.033084977418184" lon="9.357771947979927">
<ele>247.39999999999998</ele>
<time>2023-05-16T12:04:48Z</time>
</trkpt>
<trkpt lat="49.03313199989498" lon="9.35771495103836">
<ele>247.20000000000005</ele>
<time>2023-05-16T12:04:49Z</time>
</trkpt>
<trkpt lat="49.033176926895976" lon="9.357657954096794">
<ele>247.20000000000005</ele>
<time>2023-05-16T12:04:50Z</time>
</trkpt>
<trkpt lat="49.03322193771601" lon="9.357601962983608">
<ele>247</ele>
<time>2023-05-16T12:04:51Z</time>
</trkpt>
<trkpt lat="49.03326694853604" lon="9.3575419485569">
<ele>247</ele>
<time>2023-05-16T12:04:52Z</time>
</trkpt>
<trkpt lat="49.03331296518445" lon="9.357484951615334">
<ele>246.79999999999995</ele>
<time>2023-05-16T12:04:53Z</time>
</trkpt>
<trkpt lat="49.03335998766124" lon="9.357427954673767">
<ele>246.60000000000002</ele>
<time>2023-05-16T12:04:54Z</time>
</trkpt>
<trkpt lat="49.033406926319" lon="9.357374981045723">
<ele>246.60000000000002</ele>
<time>2023-05-16T12:04:55Z</time>
</trkpt>
<trkpt lat="49.033452942967415" lon="9.357322929427028">
<ele>246.39999999999998</ele>
<time>2023-05-16T12:04:56Z</time>
</trkpt>
<trkpt lat="49.033497953787446" lon="9.357269955798984">
<ele>246.20000000000005</ele>
<time>2023-05-16T12:04:57Z</time>
</trkpt>
<trkpt lat="49.033539947122335" lon="9.357214970514178">
<ele>246.20000000000005</ele>
<time>2023-05-16T12:04:58Z</time>
</trkpt>
<trkpt lat="49.033582946285605" lon="9.357157973572612">
<ele>246</ele>
<time>2023-05-16T12:04:59Z</time>
</trkpt>
<trkpt lat="49.03362795710564" lon="9.357104999944568">
<ele>246</ele>
<time>2023-05-16T12:05:00Z</time>
</trkpt>
<trkpt lat="49.03367196209729" lon="9.357054959982634">
<ele>245.79999999999995</ele>
<time>2023-05-16T12:05:01Z</time>
</trkpt>
<trkpt lat="49.033712949603796" lon="9.35700299218297">
<ele>245.60000000000002</ele>
<time>2023-05-16T12:05:02Z</time>
</trkpt>
<trkpt lat="49.03375997208059" lon="9.356954963877797">
<ele>245.60000000000002</ele>
<time>2023-05-16T12:05:03Z</time>
</trkpt>
<trkpt lat="49.03380699455738" lon="9.356904923915863">
<ele>245.39999999999998</ele>
<time>2023-05-16T12:05:04Z</time>
</trkpt>
<trkpt lat="49.03385292738676" lon="9.356856979429722">
<ele>245.39999999999998</ele>
<time>2023-05-16T12:05:05Z</time>
</trkpt>
<trkpt lat="49.03389994986355" lon="9.356806939467788">
<ele>245.20000000000005</ele>
<time>2023-05-16T12:05:06Z</time>
</trkpt>
<trkpt lat="49.033947978168726" lon="9.356756983324885">
<ele>245.20000000000005</ele>
<time>2023-05-16T12:05:07Z</time>
</trkpt>
<trkpt lat="49.03399298898876" lon="9.356707949191332">
<ele>245.20000000000005</ele>
<time>2023-05-16T12:05:08Z</time>
</trkpt>
<trkpt lat="49.03404193930328" lon="9.35665799304843">
<ele>245</ele>
<time>2023-05-16T12:05:09Z</time>
</trkpt>
<trkpt lat="49.03408695012331" lon="9.356604935601354">
<ele>245</ele>
<time>2023-05-16T12:05:10Z</time>
</trkpt>
<trkpt lat="49.03413296677172" lon="9.356547938659787">
<ele>244.79999999999995</ele>
<time>2023-05-16T12:05:11Z</time>
</trkpt>
<trkpt lat="49.03417797759175" lon="9.356492953374982">
<ele>244.79999999999995</ele>
<time>2023-05-16T12:05:12Z</time>
</trkpt>
<trkpt lat="49.034226927906275" lon="9.356437968090177">
<ele>244.60000000000002</ele>
<time>2023-05-16T12:05:13Z</time>
</trkpt>
<trkpt lat="49.03427294455469" lon="9.35638197697699">
<ele>244.60000000000002</ele>
<time>2023-05-16T12:05:14Z</time>
</trkpt>
<trkpt lat="49.03431996703148" lon="9.356322968378663">
<ele>244.39999999999998</ele>
<time>2023-05-16T12:05:15Z</time>
</trkpt>
<trkpt lat="49.03436799533665" lon="9.356267983093858">
<ele>244.39999999999998</ele>
<time>2023-05-16T12:05:16Z</time>
</trkpt>
<trkpt lat="49.03441493399441" lon="9.356216937303543">
<ele>244.20000000000005</ele>
<time>2023-05-16T12:05:17Z</time>
</trkpt>
<trkpt lat="49.034459944814444" lon="9.35616496950388">
<ele>244.20000000000005</ele>
<time>2023-05-16T12:05:18Z</time>
</trkpt>
<trkpt lat="49.034504955634475" lon="9.356112917885184">
<ele>244.20000000000005</ele>
<time>2023-05-16T12:05:19Z</time>
</trkpt>
<trkpt lat="49.034547954797745" lon="9.35605994425714">
<ele>244</ele>
<time>2023-05-16T12:05:20Z</time>
</trkpt>
<trkpt lat="49.034592965617776" lon="9.356006970629096">
<ele>244</ele>
<time>2023-05-16T12:05:21Z</time>
</trkpt>
<trkpt lat="49.03464199975133" lon="9.355952991172671">
<ele>244</ele>
<time>2023-05-16T12:05:22Z</time>
</trkpt>
<trkpt lat="49.03468793258071" lon="9.355899933725595">
<ele>243.79999999999995</ele>
<time>2023-05-16T12:05:23Z</time>
</trkpt>
<trkpt lat="49.03473696671426" lon="9.355846960097551">
<ele>243.79999999999995</ele>
<time>2023-05-16T12:05:24Z</time>
</trkpt>
<trkpt lat="49.034782983362675" lon="9.355791974812746">
<ele>243.60000000000002</ele>
<time>2023-05-16T12:05:25Z</time>
</trkpt>
<trkpt lat="49.034827994182706" lon="9.35573497787118">
<ele>243.39999999999998</ele>
<time>2023-05-16T12:05:26Z</time>
</trkpt>
<trkpt lat="49.03487199917436" lon="9.355681920424104">
<ele>243.39999999999998</ele>
<time>2023-05-16T12:05:27Z</time>
</trkpt>
<trkpt lat="49.034916926175356" lon="9.355626935139298">
<ele>243.20000000000005</ele>
<time>2023-05-16T12:05:28Z</time>
</trkpt>
<trkpt lat="49.034959925338626" lon="9.355569938197732">
<ele>243</ele>
<time>2023-05-16T12:05:29Z</time>
</trkpt>
<trkpt lat="49.03500493615866" lon="9.355509923771024">
<ele>242.79999999999995</ele>
<time>2023-05-16T12:05:30Z</time>
</trkpt>
<trkpt lat="49.03504793532193" lon="9.355446975678205">
<ele>242.79999999999995</ele>
<time>2023-05-16T12:05:31Z</time>
</trkpt>
<trkpt lat="49.03509194031358" lon="9.355381932109594">
<ele>242.60000000000002</ele>
<time>2023-05-16T12:05:32Z</time>
</trkpt>
<trkpt lat="49.03513695113361" lon="9.355314960703254">
<ele>242.39999999999998</ele>
<time>2023-05-16T12:05:33Z</time>
</trkpt>
<trkpt lat="49.03517995029688" lon="9.355244971811771">
<ele>242.20000000000005</ele>
<time>2023-05-16T12:05:34Z</time>
</trkpt>
<trkpt lat="49.03522697277367" lon="9.355171965435147">
<ele>242</ele>
<time>2023-05-16T12:05:35Z</time>
</trkpt>
<trkpt lat="49.03526997193694" lon="9.355097953230143">
<ele>241.60000000000002</ele>
<time>2023-05-16T12:05:36Z</time>
</trkpt>
<trkpt lat="49.03531699441373" lon="9.35502695851028">
<ele>241.39999999999998</ele>
<time>2023-05-16T12:05:37Z</time>
</trkpt>
<trkpt lat="49.035364938899875" lon="9.354954957962036">
<ele>241.20000000000005</ele>
<time>2023-05-16T12:05:38Z</time>
</trkpt>
<trkpt lat="49.03541296720505" lon="9.354882957413793">
<ele>241</ele>
<time>2023-05-16T12:05:39Z</time>
</trkpt>
<trkpt lat="49.03546292334795" lon="9.354807939380407">
<ele>240.60000000000002</ele>
<time>2023-05-16T12:05:40Z</time>
</trkpt>
<trkpt lat="49.035514974966645" lon="9.354734933003783">
<ele>240.39999999999998</ele>
<time>2023-05-16T12:05:41Z</time>
</trkpt>
<trkpt lat="49.03556694276631" lon="9.35465999878943">
<ele>240</ele>
<time>2023-05-16T12:05:42Z</time>
</trkpt>
<trkpt lat="49.03561991639435" lon="9.354581963270903">
<ele>239.60000000000002</ele>
<time>2023-05-16T12:05:43Z</time>
</trkpt>
<trkpt lat="49.03567297384143" lon="9.354497976601124">
<ele>239.39999999999998</ele>
<time>2023-05-16T12:05:44Z</time>
</trkpt>
<trkpt lat="49.035727959126234" lon="9.354414995759726">
<ele>239</ele>
<time>2023-05-16T12:05:45Z</time>
</trkpt>
<trkpt lat="49.03578294441104" lon="9.354326985776424">
<ele>238.60000000000002</ele>
<time>2023-05-16T12:05:46Z</time>
</trkpt>
<trkpt lat="49.03584195300937" lon="9.354234952479601">
<ele>238.20000000000005</ele>
<time>2023-05-16T12:05:47Z</time>
</trkpt>
<trkpt lat="49.035901967436075" lon="9.354141997173429">
<ele>238</ele>
<time>2023-05-16T12:05:48Z</time>
</trkpt>
<trkpt lat="49.035962987691164" lon="9.354044934734702">
<ele>237.39999999999998</ele>
<time>2023-05-16T12:05:49Z</time>
</trkpt>
<trkpt lat="49.0360249299556" lon="9.353946950286627">
<ele>237</ele>
<time>2023-05-16T12:05:50Z</time>
</trkpt>
<trkpt lat="49.03608494438231" lon="9.353847960010171">
<ele>236.60000000000002</ele>
<time>2023-05-16T12:05:51Z</time>
</trkpt>
<trkpt lat="49.03614495880902" lon="9.353747963905334">
<ele>236.20000000000005</ele>
<time>2023-05-16T12:05:52Z</time>
</trkpt>
<trkpt lat="49.03620698489249" lon="9.35364997945726">
<ele>235.79999999999995</ele>
<time>2023-05-16T12:05:53Z</time>
</trkpt>
<trkpt lat="49.036266999319196" lon="9.353551995009184">
<ele>235.20000000000005</ele>
<time>2023-05-16T12:05:54Z</time>
</trkpt>
<trkpt lat="49.03632793575525" lon="9.353447975590825">
<ele>234.79999999999995</ele>
<time>2023-05-16T12:05:55Z</time>
</trkpt>
<trkpt lat="49.036374958232045" lon="9.35335292480886">
<ele>234.39999999999998</ele>
<time>2023-05-16T12:05:56Z</time>
</trkpt>
<trkpt lat="49.03642994351685" lon="9.353241948410869">
<ele>234</ele>
<time>2023-05-16T12:05:57Z</time>
</trkpt>
<trkpt lat="49.036479983478785" lon="9.3531349953264">
<ele>233.39999999999998</ele>
<time>2023-05-16T12:05:58Z</time>
</trkpt>
<trkpt lat="49.036527927964926" lon="9.353021923452616">
<ele>233</ele>
<time>2023-05-16T12:05:59Z</time>
</trkpt>
<trkpt lat="49.03658199124038" lon="9.352904995903373">
<ele>232.39999999999998</ele>
<time>2023-05-16T12:06:00Z</time>
</trkpt>
<trkpt lat="49.03662499040365" lon="9.35279292985797">
<ele>232</ele>
<time>2023-05-16T12:06:01Z</time>
</trkpt>
<trkpt lat="49.03667192906141" lon="9.352682959288359">
<ele>231.39999999999998</ele>
<time>2023-05-16T12:06:02Z</time>
</trkpt>
<trkpt lat="49.03672498650849" lon="9.352557985112071">
<ele>231</ele>
<time>2023-05-16T12:06:03Z</time>
</trkpt>
<trkpt lat="49.036781983450055" lon="9.352439967915416">
<ele>230.39999999999998</ele>
<time>2023-05-16T12:06:04Z</time>
</trkpt>
<trkpt lat="49.0368349570781" lon="9.352324968203902">
<ele>230</ele>
<time>2023-05-16T12:06:05Z</time>
</trkpt>
<trkpt lat="49.03688692487776" lon="9.352207956835628">
<ele>229.39999999999998</ele>
<time>2023-05-16T12:06:06Z</time>
</trkpt>
<trkpt lat="49.0369419939816" lon="9.352094968780875">
<ele>229</ele>
<time>2023-05-16T12:06:07Z</time>
</trkpt>
<trkpt lat="49.036994967609644" lon="9.351974939927459">
<ele>228.60000000000002</ele>
<time>2023-05-16T12:06:08Z</time>
</trkpt>
<trkpt lat="49.037062944844365" lon="9.351852983236313">
<ele>228</ele>
<time>2023-05-16T12:06:09Z</time>
</trkpt>
<trkpt lat="49.03711793012917" lon="9.351732954382896">
<ele>227.60000000000002</ele>
<time>2023-05-16T12:06:10Z</time>
</trkpt>
<trkpt lat="49.0371819678694" lon="9.351597921922803">
<ele>227.20000000000005</ele>
<time>2023-05-16T12:06:11Z</time>
</trkpt>
<trkpt lat="49.03724499978125" lon="9.351497925817966">
<ele>227</ele>
<time>2023-05-16T12:06:12Z</time>
</trkpt>
<trkpt lat="49.037296967580914" lon="9.351406982168555">
<ele>226.60000000000002</ele>
<time>2023-05-16T12:06:13Z</time>
</trkpt>
<trkpt lat="49.0373529586941" lon="9.351302962750196">
<ele>226.20000000000005</ele>
<time>2023-05-16T12:06:14Z</time>
</trkpt>
<trkpt lat="49.03739998117089" lon="9.351189974695444">
<ele>226</ele>
<time>2023-05-16T12:06:15Z</time>
</trkpt>
<trkpt lat="49.03743795119226" lon="9.351069945842028">
<ele>225.60000000000002</ele>
<time>2023-05-16T12:06:16Z</time>
</trkpt>
<trkpt lat="49.037469970062375" lon="9.350951928645372">
<ele>225.39999999999998</ele>
<time>2023-05-16T12:06:17Z</time>
</trkpt>
<trkpt lat="49.03748296201229" lon="9.350831983610988">
<ele>225.20000000000005</ele>
<time>2023-05-16T12:06:18Z</time>
</trkpt>
<trkpt lat="49.03747692704201" lon="9.350712960585952">
<ele>225</ele>
<time>2023-05-16T12:06:19Z</time>
</trkpt>
<trkpt lat="49.03745697811246" lon="9.35060198418796">
<ele>224.79999999999995</ele>
<time>2023-05-16T12:06:20Z</time>
</trkpt>
<trkpt lat="49.0374219417572" lon="9.350492935627699">
<ele>224.39999999999998</ele>
<time>2023-05-16T12:06:21Z</time>
</trkpt>
<trkpt lat="49.03737491928041" lon="9.350387994199991">
<ele>224.20000000000005</ele>
<time>2023-05-16T12:06:22Z</time>
</trkpt>
<trkpt lat="49.03732496313751" lon="9.350289925932884">
<ele>224</ele>
<time>2023-05-16T12:06:23Z</time>
</trkpt>
<trkpt lat="49.03727198950946" lon="9.35019294731319">
<ele>223.79999999999995</ele>
<time>2023-05-16T12:06:24Z</time>
</trkpt>
<trkpt lat="49.03722295537591" lon="9.350089933723211">
<ele>223.60000000000002</ele>
<time>2023-05-16T12:06:25Z</time>
</trkpt>
<trkpt lat="49.0371819678694" lon="9.349982980638742">
<ele>223.20000000000005</ele>
<time>2023-05-16T12:06:26Z</time>
</trkpt>
<trkpt lat="49.037146931514144" lon="9.34987192042172">
<ele>223</ele>
<time>2023-05-16T12:06:27Z</time>
</trkpt>
<trkpt lat="49.0371129848063" lon="9.349759938195348">
<ele>222.60000000000002</ele>
<time>2023-05-16T12:06:28Z</time>
</trkpt>
<trkpt lat="49.0370799601078" lon="9.349644938483834">
<ele>222.39999999999998</ele>
<time>2023-05-16T12:06:29Z</time>
</trkpt>
<trkpt lat="49.03704693540931" lon="9.349532956257463">
<ele>222</ele>
<time>2023-05-16T12:06:30Z</time>
</trkpt>
<trkpt lat="49.03701491653919" lon="9.349426925182343">
<ele>221.79999999999995</ele>
<time>2023-05-16T12:06:31Z</time>
</trkpt>
<trkpt lat="49.03698792681098" lon="9.349319972097874">
<ele>221.60000000000002</ele>
<time>2023-05-16T12:06:32Z</time>
</trkpt>
<trkpt lat="49.03696294873953" lon="9.349212935194373">
<ele>221.20000000000005</ele>
<time>2023-05-16T12:06:33Z</time>
</trkpt>
<trkpt lat="49.036934953182936" lon="9.349102964624763">
<ele>221</ele>
<time>2023-05-16T12:06:34Z</time>
</trkpt>
<trkpt lat="49.036909975111485" lon="9.348994921892881">
<ele>220.60000000000002</ele>
<time>2023-05-16T12:06:35Z</time>
</trkpt>
<trkpt lat="49.03687795624137" lon="9.348887968808413">
<ele>220.39999999999998</ele>
<time>2023-05-16T12:06:36Z</time>
</trkpt>
<trkpt lat="49.036846943199635" lon="9.348784955218434">
<ele>220.20000000000005</ele>
<time>2023-05-16T12:06:37Z</time>
</trkpt>
<trkpt lat="49.03681995347142" lon="9.348679929971695">
<ele>219.79999999999995</ele>
<time>2023-05-16T12:06:38Z</time>
</trkpt>
<trkpt lat="49.03678994625807" lon="9.348569959402084">
<ele>219.60000000000002</ele>
<time>2023-05-16T12:06:39Z</time>
</trkpt>
<trkpt lat="49.036762956529856" lon="9.348461916670203">
<ele>219.39999999999998</ele>
<time>2023-05-16T12:06:40Z</time>
</trkpt>
<trkpt lat="49.036737978458405" lon="9.348359992727637">
<ele>219.20000000000005</ele>
<time>2023-05-16T12:06:41Z</time>
</trkpt>
<trkpt lat="49.03671291656792" lon="9.34825798496604">
<ele>218.79999999999995</ele>
<time>2023-05-16T12:06:42Z</time>
</trkpt>
<trkpt lat="49.03668793849647" lon="9.348159916698933">
<ele>218.60000000000002</ele>
<time>2023-05-16T12:06:43Z</time>
</trkpt>
<trkpt lat="49.03666497208178" lon="9.348059920594096">
<ele>218.39999999999998</ele>
<time>2023-05-16T12:06:44Z</time>
</trkpt>
<trkpt lat="49.03664292767644" lon="9.34795799665153">
<ele>218.20000000000005</ele>
<time>2023-05-16T12:06:45Z</time>
</trkpt>
<trkpt lat="49.03662197291851" lon="9.347857916727662">
<ele>218</ele>
<time>2023-05-16T12:06:46Z</time>
</trkpt>
<trkpt lat="49.03659992851317" lon="9.347757920622826">
<ele>218</ele>
<time>2023-05-16T12:06:47Z</time>
</trkpt>
<trkpt lat="49.03657696209848" lon="9.34765993617475">
<ele>217.79999999999995</ele>
<time>2023-05-16T12:06:48Z</time>
</trkpt>
<trkpt lat="49.03655298985541" lon="9.347559940069914">
<ele>217.60000000000002</ele>
<time>2023-05-16T12:06:49Z</time>
</trkpt>
<trkpt lat="49.03652993962169" lon="9.347459943965077">
<ele>217.60000000000002</ele>
<time>2023-05-16T12:06:50Z</time>
</trkpt>
<trkpt lat="49.036506973207" lon="9.3473569303751">
<ele>217.39999999999998</ele>
<time>2023-05-16T12:06:51Z</time>
</trkpt>
<trkpt lat="49.036481995135546" lon="9.347257940098643">
<ele>217.39999999999998</ele>
<time>2023-05-16T12:06:52Z</time>
</trkpt>
<trkpt lat="49.036459950730205" lon="9.347159955650568">
<ele>217.20000000000005</ele>
<time>2023-05-16T12:06:53Z</time>
</trkpt>
<trkpt lat="49.036439917981625" lon="9.347059959545732">
<ele>217.20000000000005</ele>
<time>2023-05-16T12:06:54Z</time>
</trkpt>
<trkpt lat="49.036416951566935" lon="9.346961975097656">
<ele>217</ele>
<time>2023-05-16T12:06:55Z</time>
</trkpt>
<trkpt lat="49.036392979323864" lon="9.346871953457594">
<ele>217</ele>
<time>2023-05-16T12:06:56Z</time>
</trkpt>
<trkpt lat="49.0363719407469" lon="9.346782937645912">
<ele>216.79999999999995</ele>
<time>2023-05-16T12:06:57Z</time>
</trkpt>
<trkpt lat="49.03634796850383" lon="9.346691993996501">
<ele>216.60000000000002</ele>
<time>2023-05-16T12:06:58Z</time>
</trkpt>
<trkpt lat="49.03632793575525" lon="9.34660297818482">
<ele>216.60000000000002</ele>
<time>2023-05-16T12:06:59Z</time>
</trkpt>
<trkpt lat="49.036306980997324" lon="9.34651697985828">
<ele>216.39999999999998</ele>
<time>2023-05-16T12:07:00Z</time>
</trkpt>
<trkpt lat="49.036286948248744" lon="9.346429975703359">
<ele>216.39999999999998</ele>
<time>2023-05-16T12:07:01Z</time>
</trkpt>
<trkpt lat="49.03627194464207" lon="9.3463449832052">
<ele>216.20000000000005</ele>
<time>2023-05-16T12:07:02Z</time>
</trkpt>
<trkpt lat="49.03625291772187" lon="9.34626292437315">
<ele>216.20000000000005</ele>
<time>2023-05-16T12:07:03Z</time>
</trkpt>
<trkpt lat="49.03623498044908" lon="9.346179943531752">
<ele>216.20000000000005</ele>
<time>2023-05-16T12:07:04Z</time>
</trkpt>
<trkpt lat="49.03621695935726" lon="9.346092939376831">
<ele>216.20000000000005</ele>
<time>2023-05-16T12:07:05Z</time>
</trkpt>
<trkpt lat="49.036201955750585" lon="9.346007946878672">
<ele>216.20000000000005</ele>
<time>2023-05-16T12:07:06Z</time>
</trkpt>
<trkpt lat="49.03618795797229" lon="9.345921948552132">
<ele>216</ele>
<time>2023-05-16T12:07:07Z</time>
</trkpt>
<trkpt lat="49.03617496602237" lon="9.345841985195875">
<ele>216</ele>
<time>2023-05-16T12:07:08Z</time>
</trkpt>
<trkpt lat="49.036159962415695" lon="9.345761938020587">
<ele>216</ele>
<time>2023-05-16T12:07:09Z</time>
</trkpt>
<trkpt lat="49.03614697046578" lon="9.345677951350808">
<ele>216</ele>
<time>2023-05-16T12:07:10Z</time>
</trkpt>
<trkpt lat="49.03613297268748" lon="9.34559497050941">
<ele>216</ele>
<time>2023-05-16T12:07:11Z</time>
</trkpt>
<trkpt lat="49.03612299822271" lon="9.345511989668012">
<ele>216</ele>
<time>2023-05-16T12:07:12Z</time>
</trkpt>
<trkpt lat="49.03611193411052" lon="9.345429930835962">
<ele>215.79999999999995</ele>
<time>2023-05-16T12:07:13Z</time>
</trkpt>
<trkpt lat="49.036097936332226" lon="9.345347955822945">
<ele>215.79999999999995</ele>
<time>2023-05-16T12:07:14Z</time>
</trkpt>
<trkpt lat="49.03608293272555" lon="9.345271931961179">
<ele>215.79999999999995</ele>
<time>2023-05-16T12:07:15Z</time>
</trkpt>
<trkpt lat="49.036072958260775" lon="9.345192974433303">
<ele>215.60000000000002</ele>
<time>2023-05-16T12:07:16Z</time>
</trkpt>
<trkpt lat="49.03605996631086" lon="9.345116950571537">
<ele>215.60000000000002</ele>
<time>2023-05-16T12:07:17Z</time>
</trkpt>
<trkpt lat="49.03604798018932" lon="9.34503497555852">
<ele>215.60000000000002</ele>
<time>2023-05-16T12:07:18Z</time>
</trkpt>
<trkpt lat="49.03603699989617" lon="9.34495291672647">
<ele>215.39999999999998</ele>
<time>2023-05-16T12:07:19Z</time>
</trkpt>
<trkpt lat="49.0360249299556" lon="9.344872953370214">
<ele>215.39999999999998</ele>
<time>2023-05-16T12:07:20Z</time>
</trkpt>
<trkpt lat="49.036011938005686" lon="9.344792990013957">
<ele>215.39999999999998</ele>
<time>2023-05-16T12:07:21Z</time>
</trkpt>
<trkpt lat="49.03599693439901" lon="9.34471495449543">
<ele>215.20000000000005</ele>
<time>2023-05-16T12:07:22Z</time>
</trkpt>
<trkpt lat="49.03598193079233" lon="9.344636918976903">
<ele>215.20000000000005</ele>
<time>2023-05-16T12:07:23Z</time>
</trkpt>
<trkpt lat="49.03597195632756" lon="9.344557961449027">
<ele>215.20000000000005</ele>
<time>2023-05-16T12:07:24Z</time>
</trkpt>
<trkpt lat="49.035962987691164" lon="9.34447699226439">
<ele>215.20000000000005</ele>
<time>2023-05-16T12:07:25Z</time>
</trkpt>
<trkpt lat="49.03596198186278" lon="9.34439493343234">
<ele>215.20000000000005</ele>
<time>2023-05-16T12:07:26Z</time>
</trkpt>
<trkpt lat="49.03595494106412" lon="9.344314970076084">
<ele>215</ele>
<time>2023-05-16T12:07:27Z</time>
</trkpt>
<trkpt lat="49.03595192357898" lon="9.344234922900796">
<ele>215</ele>
<time>2023-05-16T12:07:28Z</time>
</trkpt>
<trkpt lat="49.03595192357898" lon="9.3441569712013">
<ele>214.79999999999995</ele>
<time>2023-05-16T12:07:29Z</time>
</trkpt>
<trkpt lat="49.03595192357898" lon="9.344074996188283">
<ele>214.79999999999995</ele>
<time>2023-05-16T12:07:30Z</time>
</trkpt>
<trkpt lat="49.03594798408449" lon="9.344001989811659">
<ele>214.60000000000002</ele>
<time>2023-05-16T12:07:31Z</time>
</trkpt>
<trkpt lat="49.035942954942584" lon="9.343926971778274">
<ele>214.60000000000002</ele>
<time>2023-05-16T12:07:32Z</time>
</trkpt>
<trkpt lat="49.0359369199723" lon="9.343844996765256">
<ele>214.60000000000002</ele>
<time>2023-05-16T12:07:33Z</time>
</trkpt>
<trkpt lat="49.03592996299267" lon="9.343764949589968">
<ele>214.60000000000002</ele>
<time>2023-05-16T12:07:34Z</time>
</trkpt>
<trkpt lat="49.03592795133591" lon="9.343679957091808">
<ele>214.60000000000002</ele>
<time>2023-05-16T12:07:35Z</time>
</trkpt>
<trkpt lat="49.035924933850765" lon="9.34359697625041">
<ele>214.60000000000002</ele>
<time>2023-05-16T12:07:36Z</time>
</trkpt>
<trkpt lat="49.03591797687113" lon="9.34351198375225">
<ele>214.60000000000002</ele>
<time>2023-05-16T12:07:37Z</time>
</trkpt>
<trkpt lat="49.03591294772923" lon="9.34342497959733">
<ele>214.60000000000002</ele>
<time>2023-05-16T12:07:38Z</time>
</trkpt>
<trkpt lat="49.03590993024409" lon="9.343341998755932">
<ele>214.60000000000002</ele>
<time>2023-05-16T12:07:39Z</time>
</trkpt>
<trkpt lat="49.035901967436075" lon="9.343257928267121">
<ele>214.39999999999998</ele>
<time>2023-05-16T12:07:40Z</time>
</trkpt>
<trkpt lat="49.03588998131454" lon="9.343174947425723">
<ele>214.39999999999998</ele>
<time>2023-05-16T12:07:41Z</time>
</trkpt>
<trkpt lat="49.035879923030734" lon="9.343094984069467">
<ele>214.39999999999998</ele>
<time>2023-05-16T12:07:42Z</time>
</trkpt>
<trkpt lat="49.03586693108082" lon="9.34301795437932">
<ele>214.20000000000005</ele>
<time>2023-05-16T12:07:43Z</time>
</trkpt>
<trkpt lat="49.035856956616044" lon="9.342937991023064">
<ele>214.20000000000005</ele>
<time>2023-05-16T12:07:44Z</time>
</trkpt>
<trkpt lat="49.03584698215127" lon="9.342861967161298">
<ele>214.20000000000005</ele>
<time>2023-05-16T12:07:45Z</time>
</trkpt>
<trkpt lat="49.035834996029735" lon="9.342787954956293">
<ele>214.20000000000005</ele>
<time>2023-05-16T12:07:46Z</time>
</trkpt>
<trkpt lat="49.03582192026079" lon="9.342714948579669">
<ele>214.20000000000005</ele>
<time>2023-05-16T12:07:47Z</time>
</trkpt>
<trkpt lat="49.03580297715962" lon="9.342641942203045">
<ele>214.20000000000005</ele>
<time>2023-05-16T12:07:48Z</time>
</trkpt>
<trkpt lat="49.03578294441104" lon="9.34256499633193">
<ele>214.20000000000005</ele>
<time>2023-05-16T12:07:49Z</time>
</trkpt>
<trkpt lat="49.03576693497598" lon="9.342489978298545">
<ele>214.20000000000005</ele>
<time>2023-05-16T12:07:50Z</time>
</trkpt>
<trkpt lat="49.03574991971254" lon="9.342417977750301">
<ele>214.20000000000005</ele>
<time>2023-05-16T12:07:51Z</time>
</trkpt>
<trkpt lat="49.035731982439756" lon="9.342344971373677">
<ele>214</ele>
<time>2023-05-16T12:07:52Z</time>
</trkpt>
<trkpt lat="49.03571295551956" lon="9.34226794168353">
<ele>214</ele>
<time>2023-05-16T12:07:53Z</time>
</trkpt>
<trkpt lat="49.03569292277098" lon="9.342191917821765">
<ele>214</ele>
<time>2023-05-16T12:07:54Z</time>
</trkpt>
<trkpt lat="49.03567297384143" lon="9.342119917273521">
<ele>214</ele>
<time>2023-05-16T12:07:55Z</time>
</trkpt>
<trkpt lat="49.03565495274961" lon="9.342042971402407">
<ele>213.79999999999995</ele>
<time>2023-05-16T12:07:56Z</time>
</trkpt>
<trkpt lat="49.03563693165779" lon="9.341967953369021">
<ele>213.79999999999995</ele>
<time>2023-05-16T12:07:57Z</time>
</trkpt>
<trkpt lat="49.03561798855662" lon="9.341891929507256">
<ele>213.79999999999995</ele>
<time>2023-05-16T12:07:58Z</time>
</trkpt>
<trkpt lat="49.035601979121566" lon="9.34181297197938">
<ele>213.79999999999995</ele>
<time>2023-05-16T12:07:59Z</time>
</trkpt>
<trkpt lat="49.03558697551489" lon="9.341734936460853">
<ele>213.60000000000002</ele>
<time>2023-05-16T12:08:00Z</time>
</trkpt>
<trkpt lat="49.03556996025145" lon="9.341656984761357">
<ele>213.60000000000002</ele>
<time>2023-05-16T12:08:01Z</time>
</trkpt>
<trkpt lat="49.035559985786676" lon="9.341572998091578">
<ele>213.60000000000002</ele>
<time>2023-05-16T12:08:02Z</time>
</trkpt>
<trkpt lat="49.03555193915963" lon="9.341494962573051">
<ele>213.60000000000002</ele>
<time>2023-05-16T12:08:03Z</time>
</trkpt>
<trkpt lat="49.03554297052324" lon="9.341416927054524">
<ele>213.60000000000002</ele>
<time>2023-05-16T12:08:04Z</time>
</trkpt>
<trkpt lat="49.03552997857332" lon="9.341346938163042">
<ele>213.60000000000002</ele>
<time>2023-05-16T12:08:05Z</time>
</trkpt>
<trkpt lat="49.035514974966645" lon="9.341269992291927">
<ele>213.60000000000002</ele>
<time>2023-05-16T12:08:06Z</time>
</trkpt>
<trkpt lat="49.03549795970321" lon="9.3411919567734">
<ele>213.60000000000002</ele>
<time>2023-05-16T12:08:07Z</time>
</trkpt>
<trkpt lat="49.03547993861139" lon="9.341121967881918">
<ele>213.60000000000002</ele>
<time>2023-05-16T12:08:08Z</time>
</trkpt>
<trkpt lat="49.03546292334795" lon="9.341054996475577">
<ele>213.60000000000002</ele>
<time>2023-05-16T12:08:09Z</time>
</trkpt>
<trkpt lat="49.0354429744184" lon="9.340987941250205">
<ele>213.60000000000002</ele>
<time>2023-05-16T12:08:10Z</time>
</trkpt>
<trkpt lat="49.03541992418468" lon="9.340926920995116">
<ele>213.60000000000002</ele>
<time>2023-05-16T12:08:11Z</time>
</trkpt>
<trkpt lat="49.03539695776999" lon="9.34086799621582">
<ele>213.60000000000002</ele>
<time>2023-05-16T12:08:12Z</time>
</trkpt>
<trkpt lat="49.03537197969854" lon="9.340801946818829">
<ele>213.60000000000002</ele>
<time>2023-05-16T12:08:13Z</time>
</trkpt>
<trkpt lat="49.035341972485185" lon="9.34073698706925">
<ele>213.39999999999998</ele>
<time>2023-05-16T12:08:14Z</time>
</trkpt>
<trkpt lat="49.03530995361507" lon="9.34067496098578">
<ele>213.39999999999998</ele>
<time>2023-05-16T12:08:15Z</time>
</trkpt>
<trkpt lat="49.03527692891657" lon="9.340616958215833">
<ele>213.39999999999998</ele>
<time>2023-05-16T12:08:16Z</time>
</trkpt>
<trkpt lat="49.03524197638035" lon="9.340559961274266">
<ele>213.39999999999998</ele>
<time>2023-05-16T12:08:17Z</time>
</trkpt>
<trkpt lat="49.03519998304546" lon="9.340506987646222">
<ele>213.39999999999998</ele>
<time>2023-05-16T12:08:18Z</time>
</trkpt>
<trkpt lat="49.0351599175483" lon="9.340451918542385">
<ele>213.39999999999998</ele>
<time>2023-05-16T12:08:19Z</time>
</trkpt>
<trkpt lat="49.03512295335531" lon="9.340394921600819">
<ele>213.39999999999998</ele>
<time>2023-05-16T12:08:20Z</time>
</trkpt>
<trkpt lat="49.035084983333945" lon="9.340334990993142">
<ele>213.20000000000005</ele>
<time>2023-05-16T12:08:21Z</time>
</trkpt>
<trkpt lat="49.035041984170675" lon="9.340274976566434">
<ele>213.20000000000005</ele>
<time>2023-05-16T12:08:22Z</time>
</trkpt>
<trkpt lat="49.034996973350644" lon="9.340219991281629">
<ele>213.20000000000005</ele>
<time>2023-05-16T12:08:23Z</time>
</trkpt>
<trkpt lat="49.034954980015755" lon="9.340162994340062">
<ele>213.20000000000005</ele>
<time>2023-05-16T12:08:24Z</time>
</trkpt>
<trkpt lat="49.034912986680865" lon="9.340107925236225">
<ele>213</ele>
<time>2023-05-16T12:08:25Z</time>
</trkpt>
<trkpt lat="49.03487199917436" lon="9.34005293995142">
<ele>213</ele>
<time>2023-05-16T12:08:26Z</time>
</trkpt>
<trkpt lat="49.03483495116234" lon="9.339999966323376">
<ele>213</ele>
<time>2023-05-16T12:08:27Z</time>
</trkpt>
<trkpt lat="49.03480293229222" lon="9.339946992695332">
<ele>213</ele>
<time>2023-05-16T12:08:28Z</time>
</trkpt>
<trkpt lat="49.034767979756" lon="9.339886978268623">
<ele>213</ele>
<time>2023-05-16T12:08:29Z</time>
</trkpt>
<trkpt lat="49.03473294340074" lon="9.339822940528393">
<ele>212.79999999999995</ele>
<time>2023-05-16T12:08:30Z</time>
</trkpt>
<trkpt lat="49.034699918702245" lon="9.339757980778813">
<ele>212.79999999999995</ele>
<time>2023-05-16T12:08:31Z</time>
</trkpt>
<trkpt lat="49.03466798365116" lon="9.33968991972506">
<ele>212.79999999999995</ele>
<time>2023-05-16T12:08:32Z</time>
</trkpt>
<trkpt lat="49.03463697060943" lon="9.33962194249034">
<ele>212.79999999999995</ele>
<time>2023-05-16T12:08:33Z</time>
</trkpt>
<trkpt lat="49.03460294008255" lon="9.339549941942096">
<ele>212.79999999999995</ele>
<time>2023-05-16T12:08:34Z</time>
</trkpt>
<trkpt lat="49.034571927040815" lon="9.3394719902426">
<ele>212.79999999999995</ele>
<time>2023-05-16T12:08:35Z</time>
</trkpt>
<trkpt lat="49.034546948969364" lon="9.33938498608768">
<ele>212.79999999999995</ele>
<time>2023-05-16T12:08:36Z</time>
</trkpt>
<trkpt lat="49.034529933705926" lon="9.33929798193276">
<ele>212.79999999999995</ele>
<time>2023-05-16T12:08:37Z</time>
</trkpt>
<trkpt lat="49.03451199643314" lon="9.33921198360622">
<ele>212.60000000000002</ele>
<time>2023-05-16T12:08:38Z</time>
</trkpt>
<trkpt lat="49.03449296951294" lon="9.33912699110806">
<ele>212.60000000000002</ele>
<time>2023-05-16T12:08:39Z</time>
</trkpt>
<trkpt lat="49.03446799144149" lon="9.3390419986099">
<ele>212.60000000000002</ele>
<time>2023-05-16T12:08:40Z</time>
</trkpt>
<trkpt lat="49.034442929551005" lon="9.33895692229271">
<ele>212.39999999999998</ele>
<time>2023-05-16T12:08:41Z</time>
</trkpt>
<trkpt lat="49.03442197479308" lon="9.33886799030006">
<ele>212.39999999999998</ele>
<time>2023-05-16T12:08:42Z</time>
</trkpt>
<trkpt lat="49.03440495952964" lon="9.3387829978019">
<ele>212.20000000000005</ele>
<time>2023-05-16T12:08:43Z</time>
</trkpt>
<trkpt lat="49.03438995592296" lon="9.33869993314147">
<ele>212.20000000000005</ele>
<time>2023-05-16T12:08:44Z</time>
</trkpt>
<trkpt lat="49.034374952316284" lon="9.33861494064331">
<ele>212</ele>
<time>2023-05-16T12:08:45Z</time>
</trkpt>
<trkpt lat="49.034357937052846" lon="9.338536988943815">
<ele>212</ele>
<time>2023-05-16T12:08:46Z</time>
</trkpt>
<trkpt lat="49.03433698229492" lon="9.338452918455005">
<ele>212</ele>
<time>2023-05-16T12:08:47Z</time>
</trkpt>
<trkpt lat="49.03431795537472" lon="9.33837496675551">
<ele>212</ele>
<time>2023-05-16T12:08:48Z</time>
</trkpt>
<trkpt lat="49.03429691679776" lon="9.338301960378885">
<ele>212</ele>
<time>2023-05-16T12:08:49Z</time>
</trkpt>
<trkpt lat="49.034269927069545" lon="9.338224930688739">
<ele>212</ele>
<time>2023-05-16T12:08:50Z</time>
</trkpt>
<trkpt lat="49.03424293734133" lon="9.338151924312115">
<ele>212</ele>
<time>2023-05-16T12:08:51Z</time>
</trkpt>
<trkpt lat="49.03421494178474" lon="9.338079923763871">
<ele>212</ele>
<time>2023-05-16T12:08:52Z</time>
</trkpt>
<trkpt lat="49.034182922914624" lon="9.338009934872389">
<ele>212</ele>
<time>2023-05-16T12:08:53Z</time>
</trkpt>
<trkpt lat="49.03414998203516" lon="9.337939945980906">
<ele>212</ele>
<time>2023-05-16T12:08:54Z</time>
</trkpt>
<trkpt lat="49.034117963165045" lon="9.337867945432663">
<ele>212</ele>
<time>2023-05-16T12:08:55Z</time>
</trkpt>
<trkpt lat="49.03408493846655" lon="9.33779795654118">
<ele>212</ele>
<time>2023-05-16T12:08:56Z</time>
</trkpt>
<trkpt lat="49.034051997587085" lon="9.33773199096322">
<ele>212</ele>
<time>2023-05-16T12:08:57Z</time>
</trkpt>
<trkpt lat="49.03401997871697" lon="9.33766795322299">
<ele>212</ele>
<time>2023-05-16T12:08:58Z</time>
</trkpt>
<trkpt lat="49.033987959846854" lon="9.337607938796282">
<ele>212</ele>
<time>2023-05-16T12:08:59Z</time>
</trkpt>
<trkpt lat="49.0339579526335" lon="9.337547924369574">
<ele>211.79999999999995</ele>
<time>2023-05-16T12:09:00Z</time>
</trkpt>
<trkpt lat="49.033927945420146" lon="9.337487993761897">
<ele>211.79999999999995</ele>
<time>2023-05-16T12:09:01Z</time>
</trkpt>
<trkpt lat="49.03389492072165" lon="9.33743191882968">
<ele>211.79999999999995</ele>
<time>2023-05-16T12:09:02Z</time>
</trkpt>
<trkpt lat="49.033859968185425" lon="9.337379951030016">
<ele>211.79999999999995</ele>
<time>2023-05-16T12:09:03Z</time>
</trkpt>
<trkpt lat="49.03382694348693" lon="9.337326977401972">
<ele>211.79999999999995</ele>
<time>2023-05-16T12:09:04Z</time>
</trkpt>
<trkpt lat="49.033792996779084" lon="9.337276937440038">
<ele>211.79999999999995</ele>
<time>2023-05-16T12:09:05Z</time>
</trkpt>
<trkpt lat="49.03375796042383" lon="9.337227987125516">
<ele>211.79999999999995</ele>
<time>2023-05-16T12:09:06Z</time>
</trkpt>
<trkpt lat="49.03372292406857" lon="9.337177947163582">
<ele>211.79999999999995</ele>
<time>2023-05-16T12:09:07Z</time>
</trkpt>
<trkpt lat="49.033689983189106" lon="9.337124973535538">
<ele>211.60000000000002</ele>
<time>2023-05-16T12:09:08Z</time>
</trkpt>
<trkpt lat="49.03365695849061" lon="9.337072921916842">
<ele>211.60000000000002</ele>
<time>2023-05-16T12:09:09Z</time>
</trkpt>
<trkpt lat="49.03362192213535" lon="9.337024977430701">
<ele>211.60000000000002</ele>
<time>2023-05-16T12:09:10Z</time>
</trkpt>
<trkpt lat="49.03358696959913" lon="9.336976949125528">
<ele>211.60000000000002</ele>
<time>2023-05-16T12:09:11Z</time>
</trkpt>
<trkpt lat="49.03355495072901" lon="9.336932944133878">
<ele>211.60000000000002</ele>
<time>2023-05-16T12:09:12Z</time>
</trkpt>
<trkpt lat="49.0335229318589" lon="9.336897991597652">
<ele>211.60000000000002</ele>
<time>2023-05-16T12:09:13Z</time>
</trkpt>
<trkpt lat="49.03349191881716" lon="9.336866978555918">
<ele>211.60000000000002</ele>
<time>2023-05-16T12:09:14Z</time>
</trkpt>
<trkpt lat="49.03346291743219" lon="9.33683194220066">
<ele>211.60000000000002</ele>
<time>2023-05-16T12:09:15Z</time>
</trkpt>
<trkpt lat="49.033434921875596" lon="9.336796989664435">
<ele>211.60000000000002</ele>
<time>2023-05-16T12:09:16Z</time>
</trkpt>
<trkpt lat="49.033409943804145" lon="9.336762959137559">
<ele>211.39999999999998</ele>
<time>2023-05-16T12:09:17Z</time>
</trkpt>
<trkpt lat="49.033386977389455" lon="9.336731946095824">
<ele>211.39999999999998</ele>
<time>2023-05-16T12:09:18Z</time>
</trkpt>
<trkpt lat="49.033366944640875" lon="9.33670193888247">
<ele>211.39999999999998</ele>
<time>2023-05-16T12:09:19Z</time>
</trkpt>
<trkpt lat="49.033347917720675" lon="9.336671931669116">
<ele>211.39999999999998</ele>
<time>2023-05-16T12:09:20Z</time>
</trkpt>
<trkpt lat="49.03333492577076" lon="9.336632955819368">
<ele>211.39999999999998</ele>
<time>2023-05-16T12:09:21Z</time>
</trkpt>
<trkpt lat="49.03332696296275" lon="9.336584927514195">
<ele>211.39999999999998</ele>
<time>2023-05-16T12:09:22Z</time>
</trkpt>
<trkpt lat="49.03332696296275" lon="9.336532959714532">
<ele>211.39999999999998</ele>
<time>2023-05-16T12:09:23Z</time>
</trkpt>
<trkpt lat="49.03333995491266" lon="9.336484931409359">
<ele>211.20000000000005</ele>
<time>2023-05-16T12:09:24Z</time>
</trkpt>
<trkpt lat="49.033361999318004" lon="9.336437992751598">
<ele>211.20000000000005</ele>
<time>2023-05-16T12:09:25Z</time>
</trkpt>
<trkpt lat="49.033384965732694" lon="9.336391976103187">
<ele>211.20000000000005</ele>
<time>2023-05-16T12:09:26Z</time>
</trkpt>
<trkpt lat="49.033409943804145" lon="9.336346965283155">
<ele>211.20000000000005</ele>
<time>2023-05-16T12:09:27Z</time>
</trkpt>
<trkpt lat="49.03343693353236" lon="9.336301954463124">
<ele>211.20000000000005</ele>
<time>2023-05-16T12:09:28Z</time>
</trkpt>
<trkpt lat="49.03346291743219" lon="9.33624998666346">
<ele>211.20000000000005</ele>
<time>2023-05-16T12:09:29Z</time>
</trkpt>
<trkpt lat="49.03349292464554" lon="9.33620497584343">
<ele>211.20000000000005</ele>
<time>2023-05-16T12:09:30Z</time>
</trkpt>
<trkpt lat="49.0335229318589" lon="9.33616197668016">
<ele>211.20000000000005</ele>
<time>2023-05-16T12:09:31Z</time>
</trkpt>
<trkpt lat="49.03355193324387" lon="9.336114954203367">
<ele>211.20000000000005</ele>
<time>2023-05-16T12:09:32Z</time>
</trkpt>
<trkpt lat="49.033581940457225" lon="9.336066925898194">
<ele>211.20000000000005</ele>
<time>2023-05-16T12:09:33Z</time>
</trkpt>
<trkpt lat="49.03360993601382" lon="9.336021998897195">
<ele>211.20000000000005</ele>
<time>2023-05-16T12:09:34Z</time>
</trkpt>
<trkpt lat="49.03363793157041" lon="9.335972964763641">
<ele>211.20000000000005</ele>
<time>2023-05-16T12:09:35Z</time>
</trkpt>
<trkpt lat="49.033666932955384" lon="9.335932983085513">
<ele>211.20000000000005</ele>
<time>2023-05-16T12:09:36Z</time>
</trkpt>
<trkpt lat="49.03369794599712" lon="9.335892917588353">
<ele>211.39999999999998</ele>
<time>2023-05-16T12:09:37Z</time>
</trkpt>
<trkpt lat="49.033729964867234" lon="9.335857965052128">
<ele>211.39999999999998</ele>
<time>2023-05-16T12:09:38Z</time>
</trkpt>
<trkpt lat="49.03376692906022" lon="9.33582292869687">
<ele>211.39999999999998</ele>
<time>2023-05-16T12:09:39Z</time>
</trkpt>
<trkpt lat="49.03380498290062" lon="9.335781941190362">
<ele>211.39999999999998</ele>
<time>2023-05-16T12:09:40Z</time>
</trkpt>
<trkpt lat="49.033841947093606" lon="9.335744976997375">
<ele>211.39999999999998</ele>
<time>2023-05-16T12:09:41Z</time>
</trkpt>
<trkpt lat="49.033881928771734" lon="9.335716981440783">
<ele>211.39999999999998</ele>
<time>2023-05-16T12:09:42Z</time>
</trkpt>
<trkpt lat="49.03391998261213" lon="9.335687980055809">
<ele>211.60000000000002</ele>
<time>2023-05-16T12:09:43Z</time>
</trkpt>
<trkpt lat="49.0339579526335" lon="9.335664929822087">
<ele>211.60000000000002</ele>
<time>2023-05-16T12:09:44Z</time>
</trkpt>
<trkpt lat="49.03400195762515" lon="9.3356469925493">
<ele>211.60000000000002</ele>
<time>2023-05-16T12:09:45Z</time>
</trkpt>
<trkpt lat="49.03404193930328" lon="9.335632994771004">
<ele>211.79999999999995</ele>
<time>2023-05-16T12:09:46Z</time>
</trkpt>
<trkpt lat="49.03408292680979" lon="9.335617991164327">
<ele>211.79999999999995</ele>
<time>2023-05-16T12:09:47Z</time>
</trkpt>
<trkpt lat="49.03412198647857" lon="9.33560499921441">
<ele>212</ele>
<time>2023-05-16T12:09:48Z</time>
</trkpt>
<trkpt lat="49.03415794484317" lon="9.335592929273844">
<ele>212.20000000000005</ele>
<time>2023-05-16T12:09:49Z</time>
</trkpt>
<trkpt lat="49.03419298119843" lon="9.33558295480907">
<ele>212.20000000000005</ele>
<time>2023-05-16T12:09:50Z</time>
</trkpt>
<trkpt lat="49.03423195704818" lon="9.335574992001057">
<ele>212.39999999999998</ele>
<time>2023-05-16T12:09:51Z</time>
</trkpt>
<trkpt lat="49.034271938726306" lon="9.335566945374012">
<ele>212.60000000000002</ele>
<time>2023-05-16T12:09:52Z</time>
</trkpt>
<trkpt lat="49.034309992566705" lon="9.33555998839438">
<ele>212.60000000000002</ele>
<time>2023-05-16T12:09:53Z</time>
</trkpt>
<trkpt lat="49.03434997424483" lon="9.335551941767335">
<ele>212.79999999999995</ele>
<time>2023-05-16T12:09:54Z</time>
</trkpt>
<trkpt lat="49.03438693843782" lon="9.33554196730256">
<ele>213</ele>
<time>2023-05-16T12:09:55Z</time>
</trkpt>
<trkpt lat="49.03442298062146" lon="9.335532998666167">
<ele>213.20000000000005</ele>
<time>2023-05-16T12:09:56Z</time>
</trkpt>
<trkpt lat="49.034459944814444" lon="9.335524952039123">
<ele>213.39999999999998</ele>
<time>2023-05-16T12:09:57Z</time>
</trkpt>
<trkpt lat="49.0344949811697" lon="9.33551992289722">
<ele>213.60000000000002</ele>
<time>2023-05-16T12:09:58Z</time>
</trkpt>
<trkpt lat="49.034527922049165" lon="9.335512965917587">
<ele>213.79999999999995</ele>
<time>2023-05-16T12:09:59Z</time>
</trkpt>
<trkpt lat="49.03456497006118" lon="9.335504919290543">
<ele>214</ele>
<time>2023-05-16T12:10:00Z</time>
</trkpt>
<trkpt lat="49.03460193425417" lon="9.33549695648253">
<ele>214.20000000000005</ele>
<time>2023-05-16T12:10:01Z</time>
</trkpt>
<trkpt lat="49.03463797643781" lon="9.335486982017756">
<ele>214.39999999999998</ele>
<time>2023-05-16T12:10:02Z</time>
</trkpt>
<trkpt lat="49.03467292897403" lon="9.33547692373395">
<ele>214.60000000000002</ele>
<time>2023-05-16T12:10:03Z</time>
</trkpt>
<trkpt lat="49.03470997698605" lon="9.335464937612414">
<ele>215</ele>
<time>2023-05-16T12:10:04Z</time>
</trkpt>
<trkpt lat="49.034742917865515" lon="9.335452951490879">
<ele>215.20000000000005</ele>
<time>2023-05-16T12:10:05Z</time>
</trkpt>
<trkpt lat="49.03477694839239" lon="9.335442977026105">
<ele>215.39999999999998</ele>
<time>2023-05-16T12:10:06Z</time>
</trkpt>
<trkpt lat="49.03480997309089" lon="9.335429985076189">
<ele>215.60000000000002</ele>
<time>2023-05-16T12:10:07Z</time>
</trkpt>
<trkpt lat="49.03484299778938" lon="9.335414981469512">
<ele>215.79999999999995</ele>
<time>2023-05-16T12:10:08Z</time>
</trkpt>
<trkpt lat="49.03487694449723" lon="9.335401989519596">
<ele>216.20000000000005</ele>
<time>2023-05-16T12:10:09Z</time>
</trkpt>
<trkpt lat="49.034911980852485" lon="9.3353879917413">
<ele>216.39999999999998</ele>
<time>2023-05-16T12:10:10Z</time>
</trkpt>
<trkpt lat="49.03494492173195" lon="9.335372988134623">
<ele>216.60000000000002</ele>
<time>2023-05-16T12:10:11Z</time>
</trkpt>
<trkpt lat="49.0349749289453" lon="9.335359996184707">
<ele>217</ele>
<time>2023-05-16T12:10:12Z</time>
</trkpt>
<trkpt lat="49.03500493615866" lon="9.335346920415759">
<ele>217.20000000000005</ele>
<time>2023-05-16T12:10:13Z</time>
</trkpt>
<trkpt lat="49.03503695502877" lon="9.335332922637463">
<ele>217.60000000000002</ele>
<time>2023-05-16T12:10:14Z</time>
</trkpt>
<trkpt lat="49.03506193310022" lon="9.335319930687547">
<ele>217.79999999999995</ele>
<time>2023-05-16T12:10:15Z</time>
</trkpt>
<trkpt lat="49.035086994990706" lon="9.33530492708087">
<ele>218.20000000000005</ele>
<time>2023-05-16T12:10:16Z</time>
</trkpt>
<trkpt lat="49.03511197306216" lon="9.335287995636463">
<ele>218.39999999999998</ele>
<time>2023-05-16T12:10:17Z</time>
</trkpt>
<trkpt lat="49.03513795696199" lon="9.335272992029786">
<ele>218.79999999999995</ele>
<time>2023-05-16T12:10:18Z</time>
</trkpt>
<trkpt lat="49.03516293503344" lon="9.335257988423109">
<ele>219</ele>
<time>2023-05-16T12:10:19Z</time>
</trkpt>
<trkpt lat="49.03518799692392" lon="9.335242984816432">
<ele>219.39999999999998</ele>
<time>2023-05-16T12:10:20Z</time>
</trkpt>
<trkpt lat="49.0352169983089" lon="9.335231920704246">
<ele>219.60000000000002</ele>
<time>2023-05-16T12:10:21Z</time>
</trkpt>
<trkpt lat="49.035256979987025" lon="9.335216917097569">
<ele>219.79999999999995</ele>
<time>2023-05-16T12:10:22Z</time>
</trkpt>
<trkpt lat="49.03529193252325" lon="9.335201997309923">
<ele>220.20000000000005</ele>
<time>2023-05-16T12:10:23Z</time>
</trkpt>
<trkpt lat="49.03533199802041" lon="9.335184982046485">
<ele>220.39999999999998</ele>
<time>2023-05-16T12:10:24Z</time>
</trkpt>
<trkpt lat="49.035366950556636" lon="9.335171990096569">
<ele>220.79999999999995</ele>
<time>2023-05-16T12:10:25Z</time>
</trkpt>
<trkpt lat="49.03539695776999" lon="9.335156986489892">
<ele>221</ele>
<time>2023-05-16T12:10:26Z</time>
</trkpt>
<trkpt lat="49.035426964983344" lon="9.335139971226454">
<ele>221.39999999999998</ele>
<time>2023-05-16T12:10:27Z</time>
</trkpt>
<trkpt lat="49.03545797802508" lon="9.335127985104918">
<ele>221.60000000000002</ele>
<time>2023-05-16T12:10:28Z</time>
</trkpt>
<trkpt lat="49.03548496775329" lon="9.335121950134635">
<ele>221.79999999999995</ele>
<time>2023-05-16T12:10:29Z</time>
</trkpt>
<trkpt lat="49.03550994582474" lon="9.335114993155003">
<ele>222.20000000000005</ele>
<time>2023-05-16T12:10:30Z</time>
</trkpt>
<trkpt lat="49.035537941381335" lon="9.335106946527958">
<ele>222.39999999999998</ele>
<time>2023-05-16T12:10:31Z</time>
</trkpt>
<trkpt lat="49.03556493110955" lon="9.335097977891564">
<ele>222.60000000000002</ele>
<time>2023-05-16T12:10:32Z</time>
</trkpt>
<trkpt lat="49.0355949383229" lon="9.33509194292128">
<ele>223</ele>
<time>2023-05-16T12:10:33Z</time>
</trkpt>
<trkpt lat="49.035624945536256" lon="9.335084985941648">
<ele>223.20000000000005</ele>
<time>2023-05-16T12:10:34Z</time>
</trkpt>
<trkpt lat="49.03565797023475" lon="9.335076939314604">
<ele>223.39999999999998</ele>
<time>2023-05-16T12:10:35Z</time>
</trkpt>
<trkpt lat="49.03569493442774" lon="9.335071993991733">
<ele>223.60000000000002</ele>
<time>2023-05-16T12:10:36Z</time>
</trkpt>
<trkpt lat="49.035731982439756" lon="9.33506696484983">
<ele>223.79999999999995</ele>
<time>2023-05-16T12:10:37Z</time>
</trkpt>
<trkpt lat="49.03576794080436" lon="9.335062941536307">
<ele>224</ele>
<time>2023-05-16T12:10:38Z</time>
</trkpt>
<trkpt lat="49.03580792248249" lon="9.335059924051166">
<ele>224</ele>
<time>2023-05-16T12:10:39Z</time>
</trkpt>
<trkpt lat="49.03584195300937" lon="9.335056990385056">
<ele>224.20000000000005</ele>
<time>2023-05-16T12:10:40Z</time>
</trkpt>
<trkpt lat="49.03587196022272" lon="9.335056990385056">
<ele>224.39999999999998</ele>
<time>2023-05-16T12:10:41Z</time>
</trkpt>
<trkpt lat="49.03590498492122" lon="9.335057996213436">
<ele>224.60000000000002</ele>
<time>2023-05-16T12:10:42Z</time>
</trkpt>
<trkpt lat="49.03593993745744" lon="9.335059924051166">
<ele>224.60000000000002</ele>
<time>2023-05-16T12:10:43Z</time>
</trkpt>
<trkpt lat="49.03597195632756" lon="9.335062941536307">
<ele>224.79999999999995</ele>
<time>2023-05-16T12:10:44Z</time>
</trkpt>
<trkpt lat="49.03600296936929" lon="9.335064953193069">
<ele>224.79999999999995</ele>
<time>2023-05-16T12:10:45Z</time>
</trkpt>
<trkpt lat="49.03604194521904" lon="9.335064953193069">
<ele>224.79999999999995</ele>
<time>2023-05-16T12:10:46Z</time>
</trkpt>
<trkpt lat="49.03608494438231" lon="9.335064953193069">
<ele>224.79999999999995</ele>
<time>2023-05-16T12:10:47Z</time>
</trkpt>
<trkpt lat="49.0361269377172" lon="9.335071993991733">
<ele>224.79999999999995</ele>
<time>2023-05-16T12:10:48Z</time>
</trkpt>
<trkpt lat="49.03616993688047" lon="9.335077945142984">
<ele>224.79999999999995</ele>
<time>2023-05-16T12:10:49Z</time>
</trkpt>
<trkpt lat="49.03621695935726" lon="9.335082974284887">
<ele>224.79999999999995</ele>
<time>2023-05-16T12:10:50Z</time>
</trkpt>
<trkpt lat="49.03626297600567" lon="9.33508699759841">
<ele>224.79999999999995</ele>
<time>2023-05-16T12:10:51Z</time>
</trkpt>
<trkpt lat="49.036311926320195" lon="9.335092948749661">
<ele>224.60000000000002</ele>
<time>2023-05-16T12:10:52Z</time>
</trkpt>
<trkpt lat="49.03636498376727" lon="9.335096972063184">
<ele>224.39999999999998</ele>
<time>2023-05-16T12:10:53Z</time>
</trkpt>
<trkpt lat="49.036416951566935" lon="9.335101917386055">
<ele>224.39999999999998</ele>
<time>2023-05-16T12:10:54Z</time>
</trkpt>
<trkpt lat="49.03647193685174" lon="9.335104934871197">
<ele>224.20000000000005</ele>
<time>2023-05-16T12:10:55Z</time>
</trkpt>
<trkpt lat="49.03652993962169" lon="9.335106946527958">
<ele>224.20000000000005</ele>
<time>2023-05-16T12:10:56Z</time>
</trkpt>
<trkpt lat="49.036589954048395" lon="9.335106946527958">
<ele>224</ele>
<time>2023-05-16T12:10:57Z</time>
</trkpt>
<trkpt lat="49.0366499684751" lon="9.335097977891564">
<ele>223.79999999999995</ele>
<time>2023-05-16T12:10:58Z</time>
</trkpt>
<trkpt lat="49.036717945709825" lon="9.335079956799746">
<ele>223.60000000000002</ele>
<time>2023-05-16T12:10:59Z</time>
</trkpt>
<trkpt lat="49.036782989278436" lon="9.335064953193069">
<ele>223.39999999999998</ele>
<time>2023-05-16T12:11:00Z</time>
</trkpt>
<trkpt lat="49.036849960684776" lon="9.33504693210125">
<ele>223</ele>
<time>2023-05-16T12:11:01Z</time>
</trkpt>
<trkpt lat="49.03691994957626" lon="9.335027989000082">
<ele>222.39999999999998</ele>
<time>2023-05-16T12:11:02Z</time>
</trkpt>
<trkpt lat="49.03698993846774" lon="9.335007956251502">
<ele>222</ele>
<time>2023-05-16T12:11:03Z</time>
</trkpt>
<trkpt lat="49.037062944844365" lon="9.334986917674541">
<ele>221.60000000000002</ele>
<time>2023-05-16T12:11:04Z</time>
</trkpt>
<trkpt lat="49.03713494539261" lon="9.334956994280219">
<ele>221.20000000000005</ele>
<time>2023-05-16T12:11:05Z</time>
</trkpt>
<trkpt lat="49.03720493428409" lon="9.3349199462682">
<ele>220.79999999999995</ele>
<time>2023-05-16T12:11:06Z</time>
</trkpt>
<trkpt lat="49.03726796619594" lon="9.334879964590073">
<ele>220.39999999999998</ele>
<time>2023-05-16T12:11:07Z</time>
</trkpt>
<trkpt lat="49.03733192011714" lon="9.334834953770041">
<ele>220</ele>
<time>2023-05-16T12:11:08Z</time>
</trkpt>
<trkpt lat="49.03739696368575" lon="9.33478793129325">
<ele>219.60000000000002</ele>
<time>2023-05-16T12:11:09Z</time>
</trkpt>
<trkpt lat="49.03745697811246" lon="9.334734957665205">
<ele>219.20000000000005</ele>
<time>2023-05-16T12:11:10Z</time>
</trkpt>
<trkpt lat="49.03751992620528" lon="9.334674943238497">
<ele>218.79999999999995</ele>
<time>2023-05-16T12:11:11Z</time>
</trkpt>
<trkpt lat="49.03758496977389" lon="9.334609983488917">
<ele>218.39999999999998</ele>
<time>2023-05-16T12:11:12Z</time>
</trkpt>
<trkpt lat="49.03764791786671" lon="9.334541922435164">
<ele>218</ele>
<time>2023-05-16T12:11:13Z</time>
</trkpt>
<trkpt lat="49.037709943950176" lon="9.334469921886921">
<ele>217.60000000000002</ele>
<time>2023-05-16T12:11:14Z</time>
</trkpt>
<trkpt lat="49.03776794672012" lon="9.334391970187426">
<ele>217.20000000000005</ele>
<time>2023-05-16T12:11:15Z</time>
</trkpt>
<trkpt lat="49.03782695531845" lon="9.334311923012137">
<ele>216.79999999999995</ele>
<time>2023-05-16T12:11:16Z</time>
</trkpt>
<trkpt lat="49.037879928946495" lon="9.334227936342359">
<ele>216.39999999999998</ele>
<time>2023-05-16T12:11:17Z</time>
</trkpt>
<trkpt lat="49.03793198056519" lon="9.334141938015819">
<ele>216.20000000000005</ele>
<time>2023-05-16T12:11:18Z</time>
</trkpt>
<trkpt lat="49.03797992505133" lon="9.334047976881266">
<ele>215.79999999999995</ele>
<time>2023-05-16T12:11:19Z</time>
</trkpt>
<trkpt lat="49.03802493587136" lon="9.333956949412823">
<ele>215.60000000000002</ele>
<time>2023-05-16T12:11:20Z</time>
</trkpt>
<trkpt lat="49.03806692920625" lon="9.33386298827827">
<ele>215.20000000000005</ele>
<time>2023-05-16T12:11:21Z</time>
</trkpt>
<trkpt lat="49.03810699470341" lon="9.333767937496305">
<ele>215</ele>
<time>2023-05-16T12:11:22Z</time>
</trkpt>
<trkpt lat="49.03814194723964" lon="9.333674982190132">
<ele>214.79999999999995</ele>
<time>2023-05-16T12:11:23Z</time>
</trkpt>
<trkpt lat="49.03817296028137" lon="9.333586972206831">
<ele>214.60000000000002</ele>
<time>2023-05-16T12:11:24Z</time>
</trkpt>
<trkpt lat="49.038199950009584" lon="9.333501979708672">
<ele>214.60000000000002</ele>
<time>2023-05-16T12:11:25Z</time>
</trkpt>
<trkpt lat="49.038222916424274" lon="9.333417993038893">
<ele>214.39999999999998</ele>
<time>2023-05-16T12:11:26Z</time>
</trkpt>
<trkpt lat="49.038242949172854" lon="9.333336940035224">
<ele>214.39999999999998</ele>
<time>2023-05-16T12:11:27Z</time>
</trkpt>
<trkpt lat="49.03825996443629" lon="9.333256976678967">
<ele>214.39999999999998</ele>
<time>2023-05-16T12:11:28Z</time>
</trkpt>
<trkpt lat="49.03827697969973" lon="9.333181958645582">
<ele>214.39999999999998</ele>
<time>2023-05-16T12:11:29Z</time>
</trkpt>
<trkpt lat="49.03829198330641" lon="9.3331119697541">
<ele>214.39999999999998</ele>
<time>2023-05-16T12:11:30Z</time>
</trkpt>
<trkpt lat="49.03830296359956" lon="9.333042986690998">
<ele>214.39999999999998</ele>
<time>2023-05-16T12:11:31Z</time>
</trkpt>
<trkpt lat="49.03831696137786" lon="9.332976937294006">
<ele>214.39999999999998</ele>
<time>2023-05-16T12:11:32Z</time>
</trkpt>
<trkpt lat="49.03832693584263" lon="9.332907954230905">
<ele>214.39999999999998</ele>
<time>2023-05-16T12:11:33Z</time>
</trkpt>
<trkpt lat="49.03833498246968" lon="9.332839976996183">
<ele>214.39999999999998</ele>
<time>2023-05-16T12:11:34Z</time>
</trkpt>
<trkpt lat="49.03834294527769" lon="9.332769988104701">
<ele>214.60000000000002</ele>
<time>2023-05-16T12:11:35Z</time>
</trkpt>
<trkpt lat="49.038347974419594" lon="9.332701927050948">
<ele>214.60000000000002</ele>
<time>2023-05-16T12:11:36Z</time>
</trkpt>
<trkpt lat="49.03835794888437" lon="9.332634955644608">
<ele>214.60000000000002</ele>
<time>2023-05-16T12:11:37Z</time>
</trkpt>
<trkpt lat="49.03836498968303" lon="9.332571923732758">
<ele>214.60000000000002</ele>
<time>2023-05-16T12:11:38Z</time>
</trkpt>
<trkpt lat="49.038374964147806" lon="9.332506963983178">
<ele>214.79999999999995</ele>
<time>2023-05-16T12:11:39Z</time>
</trkpt>
<trkpt lat="49.03838192112744" lon="9.332442926242948">
<ele>214.79999999999995</ele>
<time>2023-05-16T12:11:40Z</time>
</trkpt>
<trkpt lat="49.03838795609772" lon="9.33238198980689">
<ele>215</ele>
<time>2023-05-16T12:11:41Z</time>
</trkpt>
<trkpt lat="49.038396924734116" lon="9.332319963723421">
<ele>215.20000000000005</ele>
<time>2023-05-16T12:11:42Z</time>
</trkpt>
<trkpt lat="49.0384079888463" lon="9.332259949296713">
<ele>215.20000000000005</ele>
<time>2023-05-16T12:11:43Z</time>
</trkpt>
<trkpt lat="49.03842299245298" lon="9.332202952355146">
<ele>215.39999999999998</ele>
<time>2023-05-16T12:11:44Z</time>
</trkpt>
<trkpt lat="49.03844193555415" lon="9.332149978727102">
<ele>215.60000000000002</ele>
<time>2023-05-16T12:11:45Z</time>
</trkpt>
<trkpt lat="49.03846791945398" lon="9.33210295625031">
<ele>215.60000000000002</ele>
<time>2023-05-16T12:11:46Z</time>
</trkpt>
<trkpt lat="49.038501949980855" lon="9.332067919895053">
<ele>215.79999999999995</ele>
<time>2023-05-16T12:11:47Z</time>
</trkpt>
<trkpt lat="49.03853992000222" lon="9.33203799650073">
<ele>216</ele>
<time>2023-05-16T12:11:48Z</time>
</trkpt>
<trkpt lat="49.03858199715614" lon="9.332014946267009">
<ele>216</ele>
<time>2023-05-16T12:11:49Z</time>
</trkpt>
<trkpt lat="49.03862499631941" lon="9.33199499733746">
<ele>216.20000000000005</ele>
<time>2023-05-16T12:11:50Z</time>
</trkpt>
<trkpt lat="49.03866992332041" lon="9.33197496458888">
<ele>216.39999999999998</ele>
<time>2023-05-16T12:11:51Z</time>
</trkpt>
<trkpt lat="49.038714934140444" lon="9.33195292018354">
<ele>216.39999999999998</ele>
<time>2023-05-16T12:11:52Z</time>
</trkpt>
<trkpt lat="49.038759944960475" lon="9.33193196542561">
<ele>216.60000000000002</ele>
<time>2023-05-16T12:11:53Z</time>
</trkpt>
<trkpt lat="49.038802944123745" lon="9.33190992102027">
<ele>216.79999999999995</ele>
<time>2023-05-16T12:11:54Z</time>
</trkpt>
<trkpt lat="49.038846949115396" lon="9.33188695460558">
<ele>216.79999999999995</ele>
<time>2023-05-16T12:11:55Z</time>
</trkpt>
<trkpt lat="49.038886930793524" lon="9.331856947392225">
<ele>217</ele>
<time>2023-05-16T12:11:56Z</time>
</trkpt>
<trkpt lat="49.03892498463392" lon="9.331826940178871">
<ele>217</ele>
<time>2023-05-16T12:11:57Z</time>
</trkpt>
<trkpt lat="49.03896194882691" lon="9.331799950450659">
<ele>217</ele>
<time>2023-05-16T12:11:58Z</time>
</trkpt>
<trkpt lat="49.038999918848276" lon="9.331776984035969">
<ele>217.20000000000005</ele>
<time>2023-05-16T12:11:59Z</time>
</trkpt>
<trkpt lat="49.039036966860294" lon="9.33175795711577">
<ele>217.20000000000005</ele>
<time>2023-05-16T12:12:00Z</time>
</trkpt>
<trkpt lat="49.03907493688166" lon="9.331741947680712">
<ele>217.20000000000005</ele>
<time>2023-05-16T12:12:01Z</time>
</trkpt>
<trkpt lat="49.03911299072206" lon="9.331722920760512">
<ele>217.39999999999998</ele>
<time>2023-05-16T12:12:02Z</time>
</trkpt>
<trkpt lat="49.03914995491505" lon="9.331706995144486">
<ele>217.39999999999998</ele>
<time>2023-05-16T12:12:03Z</time>
</trkpt>
<trkpt lat="49.03918691910803" lon="9.331687968224287">
<ele>217.39999999999998</ele>
<time>2023-05-16T12:12:04Z</time>
</trkpt>
<trkpt lat="49.03922296129167" lon="9.331667935475707">
<ele>217.39999999999998</ele>
<time>2023-05-16T12:12:05Z</time>
</trkpt>
<trkpt lat="49.03925992548466" lon="9.331644969061017">
<ele>217.60000000000002</ele>
<time>2023-05-16T12:12:06Z</time>
</trkpt>
<trkpt lat="49.03929194435477" lon="9.331612950190902">
<ele>217.60000000000002</ele>
<time>2023-05-16T12:12:07Z</time>
</trkpt>
<trkpt lat="49.039319939911366" lon="9.331572968512774">
<ele>217.60000000000002</ele>
<time>2023-05-16T12:12:08Z</time>
</trkpt>
<trkpt lat="49.039336955174804" lon="9.3315249402076">
<ele>217.79999999999995</ele>
<time>2023-05-16T12:12:09Z</time>
</trkpt>
<trkpt lat="49.03934198431671" lon="9.331469954922795">
<ele>217.79999999999995</ele>
<time>2023-05-16T12:12:10Z</time>
</trkpt>
<trkpt lat="49.039339972659945" lon="9.331411952152848">
<ele>217.79999999999995</ele>
<time>2023-05-16T12:12:11Z</time>
</trkpt>
<trkpt lat="49.03932999819517" lon="9.33135294355452">
<ele>218</ele>
<time>2023-05-16T12:12:12Z</time>
</trkpt>
<trkpt lat="49.039317928254604" lon="9.331292929127812">
<ele>218.20000000000005</ele>
<time>2023-05-16T12:12:13Z</time>
</trkpt>
<trkpt lat="49.03930493630469" lon="9.331236938014627">
<ele>218.20000000000005</ele>
<time>2023-05-16T12:12:14Z</time>
</trkpt>
<trkpt lat="49.03929194435477" lon="9.331184970214963">
<ele>218.39999999999998</ele>
<time>2023-05-16T12:12:15Z</time>
</trkpt>
<trkpt lat="49.03927995823324" lon="9.331134930253029">
<ele>218.60000000000002</ele>
<time>2023-05-16T12:12:16Z</time>
</trkpt>
<trkpt lat="49.039271995425224" lon="9.331086985766888">
<ele>218.60000000000002</ele>
<time>2023-05-16T12:12:17Z</time>
</trkpt>
<trkpt lat="49.03926495462656" lon="9.331036945804954">
<ele>218.79999999999995</ele>
<time>2023-05-16T12:12:18Z</time>
</trkpt>
<trkpt lat="49.039254980161786" lon="9.330989923328161">
<ele>219</ele>
<time>2023-05-16T12:12:19Z</time>
</trkpt>
<trkpt lat="49.03924693353474" lon="9.330939967185259">
<ele>219.39999999999998</ele>
<time>2023-05-16T12:12:20Z</time>
</trkpt>
<trkpt lat="49.03923796489835" lon="9.330886993557215">
<ele>219.60000000000002</ele>
<time>2023-05-16T12:12:21Z</time>
</trkpt>
<trkpt lat="49.039231929928064" lon="9.330832930281758">
<ele>219.79999999999995</ele>
<time>2023-05-16T12:12:22Z</time>
</trkpt>
<trkpt lat="49.03922698460519" lon="9.330779956653714">
<ele>220</ele>
<time>2023-05-16T12:12:23Z</time>
</trkpt>
<trkpt lat="49.03922497294843" lon="9.33072798885405">
<ele>220.20000000000005</ele>
<time>2023-05-16T12:12:24Z</time>
</trkpt>
<trkpt lat="49.03922195546329" lon="9.330677948892117">
<ele>220.39999999999998</ele>
<time>2023-05-16T12:12:25Z</time>
</trkpt>
<trkpt lat="49.03921793214977" lon="9.330632938072085">
<ele>220.60000000000002</ele>
<time>2023-05-16T12:12:26Z</time>
</trkpt>
<trkpt lat="49.03921499848366" lon="9.330584993585944">
<ele>220.79999999999995</ele>
<time>2023-05-16T12:12:27Z</time>
</trkpt>
<trkpt lat="49.039209969341755" lon="9.330536965280771">
<ele>221.20000000000005</ele>
<time>2023-05-16T12:12:28Z</time>
</trkpt>
<trkpt lat="49.0392129868269" lon="9.330486925318837">
<ele>221.39999999999998</ele>
<time>2023-05-16T12:12:29Z</time>
</trkpt>
<trkpt lat="49.03921692632139" lon="9.330434957519174">
<ele>221.60000000000002</ele>
<time>2023-05-16T12:12:30Z</time>
</trkpt>
<trkpt lat="49.03921499848366" lon="9.330376954749227">
<ele>222</ele>
<time>2023-05-16T12:12:31Z</time>
</trkpt>
<trkpt lat="49.03921692632139" lon="9.33031995780766">
<ele>222.20000000000005</ele>
<time>2023-05-16T12:12:32Z</time>
</trkpt>
<trkpt lat="49.03921692632139" lon="9.330267990007997">
<ele>222.39999999999998</ele>
<time>2023-05-16T12:12:33Z</time>
</trkpt>
<trkpt lat="49.03921499848366" lon="9.330219961702824">
<ele>222.79999999999995</ele>
<time>2023-05-16T12:12:34Z</time>
</trkpt>
<trkpt lat="49.03921499848366" lon="9.33016799390316">
<ele>223</ele>
<time>2023-05-16T12:12:35Z</time>
</trkpt>
<trkpt lat="49.03921793214977" lon="9.330114936456084">
<ele>223.39999999999998</ele>
<time>2023-05-16T12:12:36Z</time>
</trkpt>
<trkpt lat="49.03922296129167" lon="9.330057939514518">
<ele>223.60000000000002</ele>
<time>2023-05-16T12:12:37Z</time>
</trkpt>
<trkpt lat="49.03922296129167" lon="9.330006977543235">
<ele>223.79999999999995</ele>
<time>2023-05-16T12:12:38Z</time>
</trkpt>
<trkpt lat="49.03922497294843" lon="9.3299569375813">
<ele>224</ele>
<time>2023-05-16T12:12:39Z</time>
</trkpt>
<trkpt lat="49.03922698460519" lon="9.329906981438398">
<ele>224.20000000000005</ele>
<time>2023-05-16T12:12:40Z</time>
</trkpt>
<trkpt lat="49.03922497294843" lon="9.329856941476464">
<ele>224.60000000000002</ele>
<time>2023-05-16T12:12:41Z</time>
</trkpt>
<trkpt lat="49.03922698460519" lon="9.329801956191659">
<ele>224.79999999999995</ele>
<time>2023-05-16T12:12:42Z</time>
</trkpt>
<trkpt lat="49.039231929928064" lon="9.329749988391995">
<ele>225</ele>
<time>2023-05-16T12:12:43Z</time>
</trkpt>
<trkpt lat="49.03923796489835" lon="9.329699948430061">
<ele>225.20000000000005</ele>
<time>2023-05-16T12:12:44Z</time>
</trkpt>
<trkpt lat="49.03924693353474" lon="9.329649992287159">
<ele>225.39999999999998</ele>
<time>2023-05-16T12:12:45Z</time>
</trkpt>
<trkpt lat="49.039251962676644" lon="9.329601963981986">
<ele>225.79999999999995</ele>
<time>2023-05-16T12:12:46Z</time>
</trkpt>
<trkpt lat="49.03925699181855" lon="9.329552929848433">
<ele>226</ele>
<time>2023-05-16T12:12:47Z</time>
</trkpt>
<trkpt lat="49.03925799764693" lon="9.32950297370553">
<ele>226.20000000000005</ele>
<time>2023-05-16T12:12:48Z</time>
</trkpt>
<trkpt lat="49.03925992548466" lon="9.329451927915215">
<ele>226.39999999999998</ele>
<time>2023-05-16T12:12:49Z</time>
</trkpt>
<trkpt lat="49.03926696628332" lon="9.32939694263041">
<ele>226.60000000000002</ele>
<time>2023-05-16T12:12:50Z</time>
</trkpt>
<trkpt lat="49.039271995425224" lon="9.329346986487508">
<ele>227</ele>
<time>2023-05-16T12:12:51Z</time>
</trkpt>
<trkpt lat="49.03927291743457" lon="9.329297952353954">
<ele>227.20000000000005</ele>
<time>2023-05-16T12:12:52Z</time>
</trkpt>
<trkpt lat="49.03927291743457" lon="9.32924497872591">
<ele>227.39999999999998</ele>
<time>2023-05-16T12:12:53Z</time>
</trkpt>
<trkpt lat="49.03927291743457" lon="9.329191921278834">
<ele>227.60000000000002</ele>
<time>2023-05-16T12:12:54Z</time>
</trkpt>
<trkpt lat="49.039271995425224" lon="9.329144982621074">
<ele>227.79999999999995</ele>
<time>2023-05-16T12:12:55Z</time>
</trkpt>
<trkpt lat="49.03927291743457" lon="9.329091925173998">
<ele>228</ele>
<time>2023-05-16T12:12:56Z</time>
</trkpt>
<trkpt lat="49.039277946576476" lon="9.329042974859476">
<ele>228.39999999999998</ele>
<time>2023-05-16T12:12:57Z</time>
</trkpt>
<trkpt lat="49.03928196989" lon="9.328992934897542">
<ele>228.60000000000002</ele>
<time>2023-05-16T12:12:58Z</time>
</trkpt>
<trkpt lat="49.03928196989" lon="9.328939961269498">
<ele>228.79999999999995</ele>
<time>2023-05-16T12:12:59Z</time>
</trkpt>
<trkpt lat="49.03927995823324" lon="9.328884975984693">
<ele>229</ele>
<time>2023-05-16T12:13:00Z</time>
</trkpt>
<trkpt lat="49.03928196989" lon="9.328831918537617">
<ele>229.20000000000005</ele>
<time>2023-05-16T12:13:01Z</time>
</trkpt>
<trkpt lat="49.03928297571838" lon="9.328786991536617">
<ele>229.60000000000002</ele>
<time>2023-05-16T12:13:02Z</time>
</trkpt>
<trkpt lat="49.03928498737514" lon="9.328741980716586">
<ele>229.79999999999995</ele>
<time>2023-05-16T12:13:03Z</time>
</trkpt>
<trkpt lat="49.03928297571838" lon="9.328694958239794">
<ele>230</ele>
<time>2023-05-16T12:13:04Z</time>
</trkpt>
<trkpt lat="49.03928297571838" lon="9.32864692993462">
<ele>230.20000000000005</ele>
<time>2023-05-16T12:13:05Z</time>
</trkpt>
<trkpt lat="49.03928498737514" lon="9.328596973791718">
<ele>230.39999999999998</ele>
<time>2023-05-16T12:13:06Z</time>
</trkpt>
<trkpt lat="49.03928498737514" lon="9.328544922173023">
<ele>230.60000000000002</ele>
<time>2023-05-16T12:13:07Z</time>
</trkpt>
<trkpt lat="49.03928498737514" lon="9.328497983515263">
<ele>231</ele>
<time>2023-05-16T12:13:08Z</time>
</trkpt>
<trkpt lat="49.039277946576476" lon="9.328461941331625">
<ele>231.20000000000005</ele>
<time>2023-05-16T12:13:09Z</time>
</trkpt>
<trkpt lat="49.03927291743457" lon="9.328417936339974">
<ele>231.39999999999998</ele>
<time>2023-05-16T12:13:10Z</time>
</trkpt>
<trkpt lat="49.03926998376846" lon="9.328376948833466">
<ele>231.60000000000002</ele>
<time>2023-05-16T12:13:11Z</time>
</trkpt>
<trkpt lat="49.03926495462656" lon="9.328332943841815">
<ele>231.79999999999995</ele>
<time>2023-05-16T12:13:12Z</time>
</trkpt>
<trkpt lat="49.03926193714142" lon="9.328287933021784">
<ele>232</ele>
<time>2023-05-16T12:13:13Z</time>
</trkpt>
<trkpt lat="49.0392629429698" lon="9.328237976878881">
<ele>232.39999999999998</ele>
<time>2023-05-16T12:13:14Z</time>
</trkpt>
<trkpt lat="49.03926495462656" lon="9.32819196023047">
<ele>232.60000000000002</ele>
<time>2023-05-16T12:13:15Z</time>
</trkpt>
<trkpt lat="49.03926998376846" lon="9.328141920268536">
<ele>232.79999999999995</ele>
<time>2023-05-16T12:13:16Z</time>
</trkpt>
<trkpt lat="49.039274929091334" lon="9.328091964125633">
<ele>233</ele>
<time>2023-05-16T12:13:17Z</time>
</trkpt>
<trkpt lat="49.039276940748096" lon="9.32803999632597">
<ele>233.39999999999998</ele>
<time>2023-05-16T12:13:18Z</time>
</trkpt>
<trkpt lat="49.03927995823324" lon="9.327984927222133">
<ele>233.60000000000002</ele>
<time>2023-05-16T12:13:19Z</time>
</trkpt>
<trkpt lat="49.039277946576476" lon="9.32793497107923">
<ele>233.79999999999995</ele>
<time>2023-05-16T12:13:20Z</time>
</trkpt>
<trkpt lat="49.039271995425224" lon="9.327886942774057">
<ele>234</ele>
<time>2023-05-16T12:13:21Z</time>
</trkpt>
<trkpt lat="49.03925992548466" lon="9.327842937782407">
<ele>234.20000000000005</ele>
<time>2023-05-16T12:13:22Z</time>
</trkpt>
<trkpt lat="49.03924693353474" lon="9.327799938619137">
<ele>234.60000000000002</ele>
<time>2023-05-16T12:13:23Z</time>
</trkpt>
<trkpt lat="49.03923695906997" lon="9.327747970819473">
<ele>234.79999999999995</ele>
<time>2023-05-16T12:13:24Z</time>
</trkpt>
<trkpt lat="49.03922698460519" lon="9.32769499719143">
<ele>235</ele>
<time>2023-05-16T12:13:25Z</time>
</trkpt>
<trkpt lat="49.03921692632139" lon="9.327641939744353">
<ele>235.20000000000005</ele>
<time>2023-05-16T12:13:26Z</time>
</trkpt>
<trkpt lat="49.03920695185661" lon="9.32758997194469">
<ele>235.39999999999998</ele>
<time>2023-05-16T12:13:27Z</time>
</trkpt>
<trkpt lat="49.03919798322022" lon="9.327537920325994">
<ele>235.60000000000002</ele>
<time>2023-05-16T12:13:28Z</time>
</trkpt>
<trkpt lat="49.039191948249936" lon="9.327487964183092">
<ele>235.79999999999995</ele>
<time>2023-05-16T12:13:29Z</time>
</trkpt>
<trkpt lat="49.03918297961354" lon="9.327436918392777">
<ele>236</ele>
<time>2023-05-16T12:13:30Z</time>
</trkpt>
<trkpt lat="49.03917694464326" lon="9.327386962249875">
<ele>236.20000000000005</ele>
<time>2023-05-16T12:13:31Z</time>
</trkpt>
<trkpt lat="49.03916998766363" lon="9.32733298279345">
<ele>236.60000000000002</ele>
<time>2023-05-16T12:13:32Z</time>
</trkpt>
<trkpt lat="49.03916194103658" lon="9.327277997508645">
<ele>236.79999999999995</ele>
<time>2023-05-16T12:13:33Z</time>
</trkpt>
<trkpt lat="49.03915498405695" lon="9.32722494006157">
<ele>237</ele>
<time>2023-05-16T12:13:34Z</time>
</trkpt>
<trkpt lat="49.039146937429905" lon="9.327174983918667">
<ele>237.20000000000005</ele>
<time>2023-05-16T12:13:35Z</time>
</trkpt>
<trkpt lat="49.03913998045027" lon="9.327121926471591">
<ele>237.39999999999998</ele>
<time>2023-05-16T12:13:36Z</time>
</trkpt>
<trkpt lat="49.03913193382323" lon="9.327066941186786">
<ele>237.60000000000002</ele>
<time>2023-05-16T12:13:37Z</time>
</trkpt>
<trkpt lat="49.039121959358454" lon="9.327016985043883">
<ele>238</ele>
<time>2023-05-16T12:13:38Z</time>
</trkpt>
<trkpt lat="49.03911198489368" lon="9.326974991708994">
<ele>238.20000000000005</ele>
<time>2023-05-16T12:13:39Z</time>
</trkpt>
<trkpt lat="49.039101926609874" lon="9.326926963403821">
<ele>238.39999999999998</ele>
<time>2023-05-16T12:13:40Z</time>
</trkpt>
<trkpt lat="49.03909496963024" lon="9.326874995604157">
<ele>238.60000000000002</ele>
<time>2023-05-16T12:13:41Z</time>
</trkpt>
<trkpt lat="49.03908792883158" lon="9.32681992650032">
<ele>238.79999999999995</ele>
<time>2023-05-16T12:13:42Z</time>
</trkpt>
<trkpt lat="49.039079966023564" lon="9.326767958700657">
<ele>239.20000000000005</ele>
<time>2023-05-16T12:13:43Z</time>
</trkpt>
<trkpt lat="49.03906999155879" lon="9.326717918738723">
<ele>239.39999999999998</ele>
<time>2023-05-16T12:13:44Z</time>
</trkpt>
<trkpt lat="49.039061944931746" lon="9.326669974252582">
<ele>239.60000000000002</ele>
<time>2023-05-16T12:13:45Z</time>
</trkpt>
<trkpt lat="49.03905498795211" lon="9.326619934290648">
<ele>239.79999999999995</ele>
<time>2023-05-16T12:13:46Z</time>
</trkpt>
<trkpt lat="49.03904995881021" lon="9.326569978147745">
<ele>240.20000000000005</ele>
<time>2023-05-16T12:13:47Z</time>
</trkpt>
<trkpt lat="49.039042918011546" lon="9.32651792652905">
<ele>240.39999999999998</ele>
<time>2023-05-16T12:13:48Z</time>
</trkpt>
<trkpt lat="49.039036966860294" lon="9.32647199369967">
<ele>240.60000000000002</ele>
<time>2023-05-16T12:13:49Z</time>
</trkpt>
<trkpt lat="49.0390279982239" lon="9.326421953737736">
<ele>240.79999999999995</ele>
<time>2023-05-16T12:13:50Z</time>
</trkpt>
<trkpt lat="49.03902196325362" lon="9.326372919604182">
<ele>241.20000000000005</ele>
<time>2023-05-16T12:13:51Z</time>
</trkpt>
<trkpt lat="49.039012994617224" lon="9.32632296346128">
<ele>241.39999999999998</ele>
<time>2023-05-16T12:13:52Z</time>
</trkpt>
<trkpt lat="49.03900494799018" lon="9.326272923499346">
<ele>241.60000000000002</ele>
<time>2023-05-16T12:13:53Z</time>
</trkpt>
<trkpt lat="49.038996985182166" lon="9.326226990669966">
<ele>241.79999999999995</ele>
<time>2023-05-16T12:13:54Z</time>
</trkpt>
<trkpt lat="49.03898793272674" lon="9.326179968193173">
<ele>242</ele>
<time>2023-05-16T12:13:55Z</time>
</trkpt>
<trkpt lat="49.03897996991873" lon="9.326132945716381">
<ele>242.20000000000005</ele>
<time>2023-05-16T12:13:56Z</time>
</trkpt>
<trkpt lat="49.038969995453954" lon="9.32608692906797">
<ele>242.60000000000002</ele>
<time>2023-05-16T12:13:57Z</time>
</trkpt>
<trkpt lat="49.03896295465529" lon="9.326036972925067">
<ele>242.79999999999995</ele>
<time>2023-05-16T12:13:58Z</time>
</trkpt>
<trkpt lat="49.038956919685006" lon="9.325989950448275">
<ele>243</ele>
<time>2023-05-16T12:13:59Z</time>
</trkpt>
<trkpt lat="49.038949962705374" lon="9.325942927971482">
<ele>243.20000000000005</ele>
<time>2023-05-16T12:14:00Z</time>
</trkpt>
<trkpt lat="49.03894292190671" lon="9.32589297182858">
<ele>243.39999999999998</ele>
<time>2023-05-16T12:14:01Z</time>
</trkpt>
<trkpt lat="49.03893797658384" lon="9.325842931866646">
<ele>243.79999999999995</ele>
<time>2023-05-16T12:14:02Z</time>
</trkpt>
<trkpt lat="49.038929929956794" lon="9.325792975723743">
<ele>244</ele>
<time>2023-05-16T12:14:03Z</time>
</trkpt>
<trkpt lat="49.03892196714878" lon="9.32574494741857">
<ele>244.20000000000005</ele>
<time>2023-05-16T12:14:04Z</time>
</trkpt>
<trkpt lat="49.03891299851239" lon="9.325694991275668">
<ele>244.39999999999998</ele>
<time>2023-05-16T12:14:05Z</time>
</trkpt>
<trkpt lat="49.03890495188534" lon="9.325644951313734">
<ele>244.60000000000002</ele>
<time>2023-05-16T12:14:06Z</time>
</trkpt>
<trkpt lat="49.03889497742057" lon="9.325596923008561">
<ele>244.79999999999995</ele>
<time>2023-05-16T12:14:07Z</time>
</trkpt>
<trkpt lat="49.03888491913676" lon="9.325546966865659">
<ele>245</ele>
<time>2023-05-16T12:14:08Z</time>
</trkpt>
<trkpt lat="49.03887695632875" lon="9.325497932732105">
<ele>245.39999999999998</ele>
<time>2023-05-16T12:14:09Z</time>
</trkpt>
<trkpt lat="49.038866981863976" lon="9.325451999902725">
<ele>245.60000000000002</ele>
<time>2023-05-16T12:14:10Z</time>
</trkpt>
<trkpt lat="49.03885692358017" lon="9.325406989082694">
<ele>245.79999999999995</ele>
<time>2023-05-16T12:14:11Z</time>
</trkpt>
<trkpt lat="49.03884996660054" lon="9.32535694912076">
<ele>246</ele>
<time>2023-05-16T12:14:12Z</time>
</trkpt>
<trkpt lat="49.03884191997349" lon="9.325307998806238">
<ele>246.39999999999998</ele>
<time>2023-05-16T12:14:13Z</time>
</trkpt>
<trkpt lat="49.0388329513371" lon="9.325259970501065">
<ele>246.60000000000002</ele>
<time>2023-05-16T12:14:14Z</time>
</trkpt>
<trkpt lat="49.038824988529086" lon="9.325211942195892">
<ele>246.79999999999995</ele>
<time>2023-05-16T12:14:15Z</time>
</trkpt>
<trkpt lat="49.03881493024528" lon="9.3251649197191">
<ele>247</ele>
<time>2023-05-16T12:14:16Z</time>
</trkpt>
<trkpt lat="49.03880696743727" lon="9.3251199927181">
<ele>247.39999999999998</ele>
<time>2023-05-16T12:14:17Z</time>
</trkpt>
<trkpt lat="49.038797998800874" lon="9.32507498189807">
<ele>247.60000000000002</ele>
<time>2023-05-16T12:14:18Z</time>
</trkpt>
<trkpt lat="49.03879196383059" lon="9.325026953592896">
<ele>247.79999999999995</ele>
<time>2023-05-16T12:14:19Z</time>
</trkpt>
<trkpt lat="49.038784923031926" lon="9.324977919459343">
<ele>248.20000000000005</ele>
<time>2023-05-16T12:14:20Z</time>
</trkpt>
<trkpt lat="49.03877696022391" lon="9.324929974973202">
<ele>248.39999999999998</ele>
<time>2023-05-16T12:14:21Z</time>
</trkpt>
<trkpt lat="49.03876799158752" lon="9.32488295249641">
<ele>248.60000000000002</ele>
<time>2023-05-16T12:14:22Z</time>
</trkpt>
<trkpt lat="49.038759944960475" lon="9.324832996353507">
<ele>248.79999999999995</ele>
<time>2023-05-16T12:14:23Z</time>
</trkpt>
<trkpt lat="49.03875298798084" lon="9.324786979705095">
<ele>249</ele>
<time>2023-05-16T12:14:24Z</time>
</trkpt>
<trkpt lat="49.03874292969704" lon="9.324739957228303">
<ele>249.20000000000005</ele>
<time>2023-05-16T12:14:25Z</time>
</trkpt>
<trkpt lat="49.038734966889024" lon="9.32469293475151">
<ele>249.39999999999998</ele>
<time>2023-05-16T12:14:26Z</time>
</trkpt>
<trkpt lat="49.03872692026198" lon="9.324646918103099">
<ele>249.60000000000002</ele>
<time>2023-05-16T12:14:27Z</time>
</trkpt>
<trkpt lat="49.038717951625586" lon="9.3246019911021">
<ele>249.79999999999995</ele>
<time>2023-05-16T12:14:28Z</time>
</trkpt>
<trkpt lat="49.0387119166553" lon="9.324552956968546">
<ele>250</ele>
<time>2023-05-16T12:14:29Z</time>
</trkpt>
<trkpt lat="49.03870294801891" lon="9.324506940320134">
<ele>250.20000000000005</ele>
<time>2023-05-16T12:14:30Z</time>
</trkpt>
<trkpt lat="49.038691967725754" lon="9.324462935328484">
<ele>250.39999999999998</ele>
<time>2023-05-16T12:14:31Z</time>
</trkpt>
<trkpt lat="49.03867796994746" lon="9.324417924508452">
<ele>250.60000000000002</ele>
<time>2023-05-16T12:14:32Z</time>
</trkpt>
<trkpt lat="49.03866296634078" lon="9.324374925345182">
<ele>250.60000000000002</ele>
<time>2023-05-16T12:14:33Z</time>
</trkpt>
<trkpt lat="49.038651986047626" lon="9.324331926181912">
<ele>250.79999999999995</ele>
<time>2023-05-16T12:14:34Z</time>
</trkpt>
<trkpt lat="49.03863999992609" lon="9.324284987524152">
<ele>251</ele>
<time>2023-05-16T12:14:35Z</time>
</trkpt>
<trkpt lat="49.038629941642284" lon="9.32423796504736">
<ele>251</ele>
<time>2023-05-16T12:14:36Z</time>
</trkpt>
<trkpt lat="49.03861795552075" lon="9.324192954227328">
<ele>251.20000000000005</ele>
<time>2023-05-16T12:14:37Z</time>
</trkpt>
<trkpt lat="49.03860496357083" lon="9.32415196672082">
<ele>251.20000000000005</ele>
<time>2023-05-16T12:14:38Z</time>
</trkpt>
<trkpt lat="49.038589959964156" lon="9.324112990871072">
<ele>251.20000000000005</ele>
<time>2023-05-16T12:14:39Z</time>
</trkpt>
<trkpt lat="49.03857294470072" lon="9.324077954515815">
<ele>251.39999999999998</ele>
<time>2023-05-16T12:14:40Z</time>
</trkpt>
<trkpt lat="49.03855299577117" lon="9.324057921767235">
<ele>251.39999999999998</ele>
<time>2023-05-16T12:14:41Z</time>
</trkpt>
<trkpt lat="49.03853195719421" lon="9.324044929817319">
<ele>251.60000000000002</ele>
<time>2023-05-16T12:14:42Z</time>
</trkpt>
<trkpt lat="49.03851192444563" lon="9.324034955352545">
<ele>251.60000000000002</ele>
<time>2023-05-16T12:14:43Z</time>
</trkpt>
<trkpt lat="49.03848694637418" lon="9.324036967009306">
<ele>251.60000000000002</ele>
<time>2023-05-16T12:14:44Z</time>
</trkpt>
<trkpt lat="49.038457944989204" lon="9.324044929817319">
<ele>251.79999999999995</ele>
<time>2023-05-16T12:14:45Z</time>
</trkpt>
<trkpt lat="49.03842693194747" lon="9.324052976444364">
<ele>251.79999999999995</ele>
<time>2023-05-16T12:14:46Z</time>
</trkpt>
<trkpt lat="49.038394996896386" lon="9.324064962565899">
<ele>251.79999999999995</ele>
<time>2023-05-16T12:14:47Z</time>
</trkpt>
<trkpt lat="49.03836197219789" lon="9.324077954515815">
<ele>252</ele>
<time>2023-05-16T12:14:48Z</time>
</trkpt>
<trkpt lat="49.038327941671014" lon="9.324091952294111">
<ele>252</ele>
<time>2023-05-16T12:14:49Z</time>
</trkpt>
<trkpt lat="49.03829491697252" lon="9.324102932587266">
<ele>252.20000000000005</ele>
<time>2023-05-16T12:14:50Z</time>
</trkpt>
<trkpt lat="49.038261976093054" lon="9.324116930365562">
<ele>252.20000000000005</ele>
<time>2023-05-16T12:14:51Z</time>
</trkpt>
<trkpt lat="49.03822794556618" lon="9.324136963114142">
<ele>252.39999999999998</ele>
<time>2023-05-16T12:14:52Z</time>
</trkpt>
<trkpt lat="49.03819299302995" lon="9.324157917872071">
<ele>252.60000000000002</ele>
<time>2023-05-16T12:14:53Z</time>
</trkpt>
<trkpt lat="49.038157956674695" lon="9.324181973934174">
<ele>252.60000000000002</ele>
<time>2023-05-16T12:14:54Z</time>
</trkpt>
<trkpt lat="49.03812794946134" lon="9.324204940348864">
<ele>252.79999999999995</ele>
<time>2023-05-16T12:14:55Z</time>
</trkpt>
<trkpt lat="49.03809794224799" lon="9.324226984754205">
<ele>252.79999999999995</ele>
<time>2023-05-16T12:14:56Z</time>
</trkpt>
<trkpt lat="49.038069946691394" lon="9.324246933683753">
<ele>253</ele>
<time>2023-05-16T12:14:57Z</time>
</trkpt>
<trkpt lat="49.03804496861994" lon="9.324269983917475">
<ele>253.20000000000005</ele>
<time>2023-05-16T12:14:58Z</time>
</trkpt>
<trkpt lat="49.03802191838622" lon="9.324287921190262">
<ele>253.20000000000005</ele>
<time>2023-05-16T12:14:59Z</time>
</trkpt>
<trkpt lat="49.038004986941814" lon="9.3243049364537">
<ele>253.39999999999998</ele>
<time>2023-05-16T12:15:00Z</time>
</trkpt>
<trkpt lat="49.037987971678376" lon="9.324322957545519">
<ele>253.39999999999998</ele>
<time>2023-05-16T12:15:01Z</time>
</trkpt>
<trkpt lat="49.03797196224332" lon="9.324337961152196">
<ele>253.60000000000002</ele>
<time>2023-05-16T12:15:02Z</time>
</trkpt>
<trkpt lat="49.03795695863664" lon="9.324349947273731">
<ele>253.60000000000002</ele>
<time>2023-05-16T12:15:03Z</time>
</trkpt>
<trkpt lat="49.037944972515106" lon="9.324357993900776">
<ele>253.60000000000002</ele>
<time>2023-05-16T12:15:04Z</time>
</trkpt>
<trkpt lat="49.03793692588806" lon="9.324362939223647">
<ele>253.79999999999995</ele>
<time>2023-05-16T12:15:05Z</time>
</trkpt>
<trkpt lat="49.03792996890843" lon="9.32436796836555">
<ele>253.79999999999995</ele>
<time>2023-05-16T12:15:06Z</time>
</trkpt>
<trkpt lat="49.03792695142329" lon="9.324371991679072">
<ele>253.79999999999995</ele>
<time>2023-05-16T12:15:07Z</time>
</trkpt>
<trkpt lat="49.03792695142329" lon="9.324369980022311">
<ele>253.79999999999995</ele>
<time>2023-05-16T12:15:08Z</time>
</trkpt>
<trkpt lat="49.03790297918022" lon="9.324399987235665">
<ele>253.60000000000002</ele>
<time>2023-05-16T12:15:09Z</time>
</trkpt>
<trkpt lat="49.03790297918022" lon="9.324414990842342">
<ele>253.60000000000002</ele>
<time>2023-05-16T12:15:10Z</time>
</trkpt>
<trkpt lat="49.03790691867471" lon="9.324431922286749">
<ele>253.60000000000002</ele>
<time>2023-05-16T12:15:11Z</time>
</trkpt>
<trkpt lat="49.03791295364499" lon="9.324447931721807">
<ele>253.60000000000002</ele>
<time>2023-05-16T12:15:12Z</time>
</trkpt>
<trkpt lat="49.037917982786894" lon="9.324459917843342">
<ele>253.60000000000002</ele>
<time>2023-05-16T12:15:13Z</time>
</trkpt>
<trkpt lat="49.037922928109765" lon="9.32447299361229">
<ele>253.60000000000002</ele>
<time>2023-05-16T12:15:14Z</time>
</trkpt>
<trkpt lat="49.03792795725167" lon="9.324487997218966">
<ele>253.60000000000002</ele>
<time>2023-05-16T12:15:15Z</time>
</trkpt>
<trkpt lat="49.03793298639357" lon="9.324502917006612">
<ele>253.60000000000002</ele>
<time>2023-05-16T12:15:16Z</time>
</trkpt>
<trkpt lat="49.0379399433732" lon="9.324517920613289">
<ele>253.60000000000002</ele>
<time>2023-05-16T12:15:17Z</time>
</trkpt>
<trkpt lat="49.037944972515106" lon="9.324531918391585">
<ele>253.39999999999998</ele>
<time>2023-05-16T12:15:18Z</time>
</trkpt>
<trkpt lat="49.037942960858345" lon="9.324537953361869">
<ele>253.39999999999998</ele>
<time>2023-05-16T12:15:19Z</time>
</trkpt>
<trkpt lat="49.037942960858345" lon="9.324542982503772">
<ele>253.39999999999998</ele>
<time>2023-05-16T12:15:20Z</time>
</trkpt>
<trkpt lat="49.037944972515106" lon="9.324551951140165">
<ele>253.39999999999998</ele>
<time>2023-05-16T12:15:21Z</time>
</trkpt>
<trkpt lat="49.03794799000025" lon="9.32456293143332">
<ele>253.39999999999998</ele>
<time>2023-05-16T12:15:22Z</time>
</trkpt>
<trkpt lat="49.03795192949474" lon="9.324576929211617">
<ele>253.39999999999998</ele>
<time>2023-05-16T12:15:23Z</time>
</trkpt>
<trkpt lat="49.03795695863664" lon="9.324584975838661">
<ele>253.20000000000005</ele>
<time>2023-05-16T12:15:24Z</time>
</trkpt>
<trkpt lat="49.037961987778544" lon="9.324591932818294">
<ele>253.20000000000005</ele>
<time>2023-05-16T12:15:25Z</time>
</trkpt>
<trkpt lat="49.037966933101416" lon="9.324592938646674">
<ele>253.20000000000005</ele>
<time>2023-05-16T12:15:26Z</time>
</trkpt>
<trkpt lat="49.03797196224332" lon="9.324591932818294">
<ele>253.20000000000005</ele>
<time>2023-05-16T12:15:27Z</time>
</trkpt>
<trkpt lat="49.0379729680717" lon="9.324589921161532">
<ele>253.20000000000005</ele>
<time>2023-05-16T12:15:28Z</time>
</trkpt>
<trkpt lat="49.0379729680717" lon="9.324587993323803">
<ele>253.20000000000005</ele>
<time>2023-05-16T12:15:30Z</time>
</trkpt>
<trkpt lat="49.03795796446502" lon="9.324547927826643">
<ele>252</ele>
<time>2023-05-16T12:15:30Z</time>
</trkpt>
<trkpt lat="49.03794698417187" lon="9.324537953361869">
<ele>252</ele>
<time>2023-05-16T12:15:31Z</time>
</trkpt>
<trkpt lat="49.03793692588806" lon="9.324524961411953">
<ele>252</ele>
<time>2023-05-16T12:15:32Z</time>
</trkpt>
<trkpt lat="49.03792695142329" lon="9.324504928663373">
<ele>252</ele>
<time>2023-05-16T12:15:33Z</time>
</trkpt>
<trkpt lat="49.037921922281384" lon="9.32447693310678">
<ele>252</ele>
<time>2023-05-16T12:15:34Z</time>
</trkpt>
<trkpt lat="49.037917982786894" lon="9.324441980570555">
<ele>252</ele>
<time>2023-05-16T12:15:35Z</time>
</trkpt>
<trkpt lat="49.037921922281384" lon="9.324404932558537">
<ele>252</ele>
<time>2023-05-16T12:15:36Z</time>
</trkpt>
<trkpt lat="49.03793499805033" lon="9.324372997507453">
<ele>252</ele>
<time>2023-05-16T12:15:37Z</time>
</trkpt>
<trkpt lat="49.03795293532312" lon="9.324344918131828">
<ele>252</ele>
<time>2023-05-16T12:15:38Z</time>
</trkpt>
<trkpt lat="49.0379729680717" lon="9.324317928403616">
<ele>252</ele>
<time>2023-05-16T12:15:39Z</time>
</trkpt>
<trkpt lat="49.03799794614315" lon="9.324292950332165">
<ele>252</ele>
<time>2023-05-16T12:15:40Z</time>
</trkpt>
<trkpt lat="49.03802493587136" lon="9.324267972260714">
<ele>252</ele>
<time>2023-05-16T12:15:41Z</time>
</trkpt>
<trkpt lat="49.038052931427956" lon="9.324249951168895">
<ele>252</ele>
<time>2023-05-16T12:15:42Z</time>
</trkpt>
<trkpt lat="49.03808193281293" lon="9.324227990582585">
<ele>252</ele>
<time>2023-05-16T12:15:43Z</time>
</trkpt>
<trkpt lat="49.03810992836952" lon="9.324204940348864">
<ele>252</ele>
<time>2023-05-16T12:15:44Z</time>
</trkpt>
<trkpt lat="49.03814295306802" lon="9.324181973934174">
<ele>252</ele>
<time>2023-05-16T12:15:45Z</time>
</trkpt>
<trkpt lat="49.03817497193813" lon="9.324167976155877">
<ele>252</ele>
<time>2023-05-16T12:15:46Z</time>
</trkpt>
<trkpt lat="49.03820497915149" lon="9.324154984205961">
<ele>252</ele>
<time>2023-05-16T12:15:47Z</time>
</trkpt>
<trkpt lat="49.0382369980216" lon="9.324141992256045">
<ele>252</ele>
<time>2023-05-16T12:15:48Z</time>
</trkpt>
<trkpt lat="49.03826993890107" lon="9.324127994477749">
<ele>252</ele>
<time>2023-05-16T12:15:49Z</time>
</trkpt>
<trkpt lat="49.038304975256324" lon="9.324116930365562">
<ele>252</ele>
<time>2023-05-16T12:15:50Z</time>
</trkpt>
<trkpt lat="49.03833799995482" lon="9.324101926758885">
<ele>252</ele>
<time>2023-05-16T12:15:51Z</time>
</trkpt>
<trkpt lat="49.0383699350059" lon="9.324076948687434">
<ele>251.79999999999995</ele>
<time>2023-05-16T12:15:52Z</time>
</trkpt>
<trkpt lat="49.038394996896386" lon="9.324044929817319">
<ele>251.79999999999995</ele>
<time>2023-05-16T12:15:53Z</time>
</trkpt>
<trkpt lat="49.03841997496784" lon="9.324011988937855">
<ele>251.60000000000002</ele>
<time>2023-05-16T12:15:54Z</time>
</trkpt>
<trkpt lat="49.038436990231276" lon="9.323972929269075">
<ele>251.39999999999998</ele>
<time>2023-05-16T12:15:55Z</time>
</trkpt>
<trkpt lat="49.03844797052443" lon="9.323932947590947">
<ele>251.20000000000005</ele>
<time>2023-05-16T12:15:56Z</time>
</trkpt>
<trkpt lat="49.038456939160824" lon="9.323889948427677">
<ele>251</ele>
<time>2023-05-16T12:15:57Z</time>
</trkpt>
<trkpt lat="49.03846297413111" lon="9.32385298423469">
<ele>251</ele>
<time>2023-05-16T12:15:58Z</time>
</trkpt>
<trkpt lat="49.03846791945398" lon="9.323822977021337">
<ele>250.79999999999995</ele>
<time>2023-05-16T12:15:59Z</time>
</trkpt>
<trkpt lat="49.03846993111074" lon="9.323796993121505">
<ele>250.60000000000002</ele>
<time>2023-05-16T12:16:00Z</time>
</trkpt>
<trkpt lat="49.03847294859588" lon="9.323776960372925">
<ele>250.60000000000002</ele>
<time>2023-05-16T12:16:01Z</time>
</trkpt>
<trkpt lat="49.03847294859588" lon="9.323762962594628">
<ele>250.39999999999998</ele>
<time>2023-05-16T12:16:02Z</time>
</trkpt>
<trkpt lat="49.038476971909404" lon="9.323754999786615">
<ele>250.39999999999998</ele>
<time>2023-05-16T12:16:03Z</time>
</trkpt>
<trkpt lat="49.038482923060656" lon="9.323747958987951">
<ele>250.39999999999998</ele>
<time>2023-05-16T12:16:04Z</time>
</trkpt>
<trkpt lat="49.03849197551608" lon="9.323742929846048">
<ele>250.20000000000005</ele>
<time>2023-05-16T12:16:05Z</time>
</trkpt>
<trkpt lat="49.038501949980855" lon="9.323737984523177">
<ele>250.20000000000005</ele>
<time>2023-05-16T12:16:06Z</time>
</trkpt>
<trkpt lat="49.03851494193077" lon="9.323732955381274">
<ele>250.20000000000005</ele>
<time>2023-05-16T12:16:07Z</time>
</trkpt>
<trkpt lat="49.03853195719421" lon="9.3237229809165">
<ele>250</ele>
<time>2023-05-16T12:16:08Z</time>
</trkpt>
<trkpt lat="49.03854796662927" lon="9.323707977309823">
<ele>250</ele>
<time>2023-05-16T12:16:09Z</time>
</trkpt>
<trkpt lat="49.0385599527508" lon="9.323684927076101">
<ele>250</ele>
<time>2023-05-16T12:16:10Z</time>
</trkpt>
<trkpt lat="49.038562970235944" lon="9.323649974539876">
<ele>249.79999999999995</ele>
<time>2023-05-16T12:16:11Z</time>
</trkpt>
<trkpt lat="49.0385599527508" lon="9.323609992861748">
<ele>249.79999999999995</ele>
<time>2023-05-16T12:16:12Z</time>
</trkpt>
<trkpt lat="49.03855299577117" lon="9.323562970384955">
<ele>249.79999999999995</ele>
<time>2023-05-16T12:16:13Z</time>
</trkpt>
<trkpt lat="49.038544949144125" lon="9.32351192459464">
<ele>249.60000000000002</ele>
<time>2023-05-16T12:16:14Z</time>
</trkpt>
<trkpt lat="49.03853698633611" lon="9.323451993986964">
<ele>249.60000000000002</ele>
<time>2023-05-16T12:16:15Z</time>
</trkpt>
<trkpt lat="49.03852793388069" lon="9.323386950418353">
<ele>249.39999999999998</ele>
<time>2023-05-16T12:16:16Z</time>
</trkpt>
<trkpt lat="49.038521982729435" lon="9.323317967355251">
<ele>249.39999999999998</ele>
<time>2023-05-16T12:16:17Z</time>
</trkpt>
<trkpt lat="49.03851494193077" lon="9.323242949321866">
<ele>249.20000000000005</ele>
<time>2023-05-16T12:16:18Z</time>
</trkpt>
<trkpt lat="49.03850798495114" lon="9.32316793128848">
<ele>249.20000000000005</ele>
<time>2023-05-16T12:16:19Z</time>
</trkpt>
<trkpt lat="49.038501949980855" lon="9.323086962103844">
<ele>249</ele>
<time>2023-05-16T12:16:20Z</time>
</trkpt>
<trkpt lat="49.03849499300122" lon="9.322999957948923">
<ele>248.79999999999995</ele>
<time>2023-05-16T12:16:21Z</time>
</trkpt>
<trkpt lat="49.03848795220256" lon="9.3229079246521">
<ele>248.60000000000002</ele>
<time>2023-05-16T12:16:22Z</time>
</trkpt>
<trkpt lat="49.038482923060656" lon="9.322807928547263">
<ele>248.39999999999998</ele>
<time>2023-05-16T12:16:23Z</time>
</trkpt>
<trkpt lat="49.038477977737784" lon="9.322701981291175">
<ele>248.20000000000005</ele>
<time>2023-05-16T12:16:24Z</time>
</trkpt>
<trkpt lat="49.0384719427675" lon="9.322587987408042">
<ele>248</ele>
<time>2023-05-16T12:16:25Z</time>
</trkpt>
<trkpt lat="49.03846699744463" lon="9.322469970211387">
<ele>247.60000000000002</ele>
<time>2023-05-16T12:16:26Z</time>
</trkpt>
<trkpt lat="49.03846297413111" lon="9.322339966893196">
<ele>247.20000000000005</ele>
<time>2023-05-16T12:16:27Z</time>
</trkpt>
<trkpt lat="49.038456939160824" lon="9.322211975231767">
<ele>247</ele>
<time>2023-05-16T12:16:28Z</time>
</trkpt>
<trkpt lat="49.03845199383795" lon="9.322076942771673">
<ele>246.60000000000002</ele>
<time>2023-05-16T12:16:29Z</time>
</trkpt>
<trkpt lat="49.03844696469605" lon="9.321934953331947">
<ele>246.20000000000005</ele>
<time>2023-05-16T12:16:30Z</time>
</trkpt>
<trkpt lat="49.03844495303929" lon="9.321802938356996">
<ele>245.60000000000002</ele>
<time>2023-05-16T12:16:31Z</time>
</trkpt>
<trkpt lat="49.03844495303929" lon="9.321677964180708">
<ele>245.20000000000005</ele>
<time>2023-05-16T12:16:32Z</time>
</trkpt>
<trkpt lat="49.03844294138253" lon="9.321556929498911">
<ele>244.60000000000002</ele>
<time>2023-05-16T12:16:33Z</time>
</trkpt>
<trkpt lat="49.03844193555415" lon="9.321439918130636">
<ele>244</ele>
<time>2023-05-16T12:16:34Z</time>
</trkpt>
<trkpt lat="49.038436990231276" lon="9.321329947561026">
<ele>243.60000000000002</ele>
<time>2023-05-16T12:16:35Z</time>
</trkpt>
<trkpt lat="49.03842994943261" lon="9.321219976991415">
<ele>242.79999999999995</ele>
<time>2023-05-16T12:16:36Z</time>
</trkpt>
<trkpt lat="49.03842492029071" lon="9.321111934259534">
<ele>242.20000000000005</ele>
<time>2023-05-16T12:16:37Z</time>
</trkpt>
<trkpt lat="49.03841997496784" lon="9.321006992831826">
<ele>241.60000000000002</ele>
<time>2023-05-16T12:16:38Z</time>
</trkpt>
<trkpt lat="49.038417963311076" lon="9.320894926786423">
<ele>241</ele>
<time>2023-05-16T12:16:39Z</time>
</trkpt>
<trkpt lat="49.038416957482696" lon="9.320784956216812">
<ele>240.39999999999998</ele>
<time>2023-05-16T12:16:40Z</time>
</trkpt>
<trkpt lat="49.038414945825934" lon="9.320667944848537">
<ele>239.79999999999995</ele>
<time>2023-05-16T12:16:41Z</time>
</trkpt>
<trkpt lat="49.038414945825934" lon="9.320554956793785">
<ele>239.20000000000005</ele>
<time>2023-05-16T12:16:42Z</time>
</trkpt>
<trkpt lat="49.038416957482696" lon="9.320434927940369">
<ele>238.79999999999995</ele>
<time>2023-05-16T12:16:43Z</time>
</trkpt>
<trkpt lat="49.038417963311076" lon="9.320312971249223">
<ele>238.20000000000005</ele>
<time>2023-05-16T12:16:44Z</time>
</trkpt>
<trkpt lat="49.0384219866246" lon="9.320189924910665">
<ele>237.79999999999995</ele>
<time>2023-05-16T12:16:45Z</time>
</trkpt>
<trkpt lat="49.03842492029071" lon="9.320071991533041">
<ele>237.20000000000005</ele>
<time>2023-05-16T12:16:46Z</time>
</trkpt>
<trkpt lat="49.03843196108937" lon="9.319949951022863">
<ele>236.60000000000002</ele>
<time>2023-05-16T12:16:47Z</time>
</trkpt>
<trkpt lat="49.038437996059656" lon="9.319829922169447">
<ele>236.20000000000005</ele>
<time>2023-05-16T12:16:48Z</time>
</trkpt>
<trkpt lat="49.03844696469605" lon="9.319709977135062">
<ele>235.60000000000002</ele>
<time>2023-05-16T12:16:49Z</time>
</trkpt>
<trkpt lat="49.038457944989204" lon="9.319592965766788">
<ele>235</ele>
<time>2023-05-16T12:16:50Z</time>
</trkpt>
<trkpt lat="49.0384719427675" lon="9.319482995197177">
<ele>234.60000000000002</ele>
<time>2023-05-16T12:16:51Z</time>
</trkpt>
<trkpt lat="49.03848694637418" lon="9.319372940808535">
<ele>234.20000000000005</ele>
<time>2023-05-16T12:16:52Z</time>
</trkpt>
<trkpt lat="49.038502955809236" lon="9.319261964410543">
<ele>233.60000000000002</ele>
<time>2023-05-16T12:16:53Z</time>
</trkpt>
<trkpt lat="49.038521982729435" lon="9.319142941385508">
<ele>233</ele>
<time>2023-05-16T12:16:54Z</time>
</trkpt>
<trkpt lat="49.038542937487364" lon="9.319027941673994">
<ele>232.60000000000002</ele>
<time>2023-05-16T12:16:55Z</time>
</trkpt>
<trkpt lat="49.038564981892705" lon="9.318917971104383">
<ele>232</ele>
<time>2023-05-16T12:16:56Z</time>
</trkpt>
<trkpt lat="49.038587948307395" lon="9.318804983049631">
<ele>231.60000000000002</ele>
<time>2023-05-16T12:16:57Z</time>
</trkpt>
<trkpt lat="49.038612926378846" lon="9.318692917004228">
<ele>231.20000000000005</ele>
<time>2023-05-16T12:16:58Z</time>
</trkpt>
<trkpt lat="49.03863798826933" lon="9.318579928949475">
<ele>230.60000000000002</ele>
<time>2023-05-16T12:16:59Z</time>
</trkpt>
<trkpt lat="49.03866296634078" lon="9.318467946723104">
<ele>230.20000000000005</ele>
<time>2023-05-16T12:17:00Z</time>
</trkpt>
<trkpt lat="49.03868794441223" lon="9.318357976153493">
<ele>229.79999999999995</ele>
<time>2023-05-16T12:17:01Z</time>
</trkpt>
<trkpt lat="49.03870797716081" lon="9.318254962563515">
<ele>229.39999999999998</ele>
<time>2023-05-16T12:17:02Z</time>
</trkpt>
<trkpt lat="49.03872692026198" lon="9.31815697811544">
<ele>228.79999999999995</ele>
<time>2023-05-16T12:17:03Z</time>
</trkpt>
<trkpt lat="49.03874292969704" lon="9.318057987838984">
<ele>228.39999999999998</ele>
<time>2023-05-16T12:17:04Z</time>
</trkpt>
<trkpt lat="49.038759944960475" lon="9.317959919571877">
<ele>228</ele>
<time>2023-05-16T12:17:05Z</time>
</trkpt>
<trkpt lat="49.038777966052294" lon="9.317862940952182">
<ele>227.60000000000002</ele>
<time>2023-05-16T12:17:06Z</time>
</trkpt>
<trkpt lat="49.03879498131573" lon="9.31777199730277">
<ele>227.20000000000005</ele>
<time>2023-05-16T12:17:07Z</time>
</trkpt>
<trkpt lat="49.03881493024528" lon="9.31768499314785">
<ele>226.79999999999995</ele>
<time>2023-05-16T12:17:08Z</time>
</trkpt>
<trkpt lat="49.0388329513371" lon="9.3176029343158">
<ele>226.60000000000002</ele>
<time>2023-05-16T12:17:09Z</time>
</trkpt>
<trkpt lat="49.0388519782573" lon="9.317522970959544">
<ele>226.20000000000005</ele>
<time>2023-05-16T12:17:10Z</time>
</trkpt>
<trkpt lat="49.03887192718685" lon="9.317446947097778">
<ele>225.79999999999995</ele>
<time>2023-05-16T12:17:11Z</time>
</trkpt>
<trkpt lat="49.03889296576381" lon="9.317367989569902">
<ele>225.60000000000002</ele>
<time>2023-05-16T12:17:12Z</time>
</trkpt>
<trkpt lat="49.03891299851239" lon="9.31729699485004">
<ele>225.20000000000005</ele>
<time>2023-05-16T12:17:13Z</time>
</trkpt>
<trkpt lat="49.038931941613555" lon="9.317224994301796">
<ele>225</ele>
<time>2023-05-16T12:17:14Z</time>
</trkpt>
<trkpt lat="49.038949962705374" lon="9.317146958783269">
<ele>224.79999999999995</ele>
<time>2023-05-16T12:17:15Z</time>
</trkpt>
<trkpt lat="49.03895993717015" lon="9.317071940749884">
<ele>224.39999999999998</ele>
<time>2023-05-16T12:17:16Z</time>
</trkpt>
<trkpt lat="49.03897192329168" lon="9.317007986828685">
<ele>224.20000000000005</ele>
<time>2023-05-16T12:17:17Z</time>
</trkpt>
<trkpt lat="49.03898198157549" lon="9.316946966573596">
<ele>224</ele>
<time>2023-05-16T12:17:18Z</time>
</trkpt>
<trkpt lat="49.038992961868644" lon="9.31689198128879">
<ele>223.79999999999995</ele>
<time>2023-05-16T12:17:19Z</time>
</trkpt>
<trkpt lat="49.03900695964694" lon="9.31684797629714">
<ele>223.60000000000002</ele>
<time>2023-05-16T12:17:20Z</time>
</trkpt>
<trkpt lat="49.039016934111714" lon="9.316807994619012">
<ele>223.39999999999998</ele>
<time>2023-05-16T12:17:21Z</time>
</trkpt>
<trkpt lat="49.039022969082" lon="9.316776981577277">
<ele>223.20000000000005</ele>
<time>2023-05-16T12:17:22Z</time>
</trkpt>
<trkpt lat="49.03902699239552" lon="9.316749991849065">
<ele>223</ele>
<time>2023-05-16T12:17:23Z</time>
</trkpt>
<trkpt lat="49.03902992606163" lon="9.316726941615343">
<ele>222.79999999999995</ele>
<time>2023-05-16T12:17:24Z</time>
</trkpt>
<trkpt lat="49.03903294354677" lon="9.31669995188713">
<ele>222.60000000000002</ele>
<time>2023-05-16T12:17:25Z</time>
</trkpt>
<trkpt lat="49.039037972688675" lon="9.316677991300821">
<ele>222.39999999999998</ele>
<time>2023-05-16T12:17:26Z</time>
</trkpt>
<trkpt lat="49.039042918011546" lon="9.3166549410671">
<ele>222.39999999999998</ele>
<time>2023-05-16T12:17:27Z</time>
</trkpt>
<trkpt lat="49.03904995881021" lon="9.31663298048079">
<ele>222.20000000000005</ele>
<time>2023-05-16T12:17:28Z</time>
</trkpt>
<trkpt lat="49.03905498795211" lon="9.316616971045732">
<ele>222</ele>
<time>2023-05-16T12:17:29Z</time>
</trkpt>
<trkpt lat="49.03905792161822" lon="9.316606996580958">
<ele>222</ele>
<time>2023-05-16T12:17:30Z</time>
</trkpt>
<trkpt lat="49.03905792161822" lon="9.316602973267436">
<ele>221.79999999999995</ele>
<time>2023-05-16T12:17:31Z</time>
</trkpt>
<trkpt lat="49.039099998772144" lon="9.316451931372285">
<ele>221.39999999999998</ele>
<time>2023-05-16T12:17:35Z</time>
</trkpt>
<trkpt lat="49.039102932438254" lon="9.316399963572621">
<ele>221.20000000000005</ele>
<time>2023-05-16T12:17:36Z</time>
</trkpt>
<trkpt lat="49.039099998772144" lon="9.316341960802674">
<ele>221.20000000000005</ele>
<time>2023-05-16T12:17:37Z</time>
</trkpt>
<trkpt lat="49.039096981287" lon="9.316272977739573">
<ele>221.20000000000005</ele>
<time>2023-05-16T12:17:38Z</time>
</trkpt>
<trkpt lat="49.03909295797348" lon="9.31620198301971">
<ele>221</ele>
<time>2023-05-16T12:17:39Z</time>
</trkpt>
<trkpt lat="49.03909295797348" lon="9.31611992418766">
<ele>221</ele>
<time>2023-05-16T12:17:40Z</time>
</trkpt>
<trkpt lat="49.039096981287" lon="9.31603199802339">
<ele>220.79999999999995</ele>
<time>2023-05-16T12:17:41Z</time>
</trkpt>
<trkpt lat="49.039101926609874" lon="9.315937953069806">
<ele>220.60000000000002</ele>
<time>2023-05-16T12:17:42Z</time>
</trkpt>
<trkpt lat="49.03911198489368" lon="9.315836951136589">
<ele>220.39999999999998</ele>
<time>2023-05-16T12:17:43Z</time>
</trkpt>
<trkpt lat="49.039122965186834" lon="9.31573192588985">
<ele>220</ele>
<time>2023-05-16T12:17:44Z</time>
</trkpt>
<trkpt lat="49.03913998045027" lon="9.315627990290523">
<ele>219.79999999999995</ele>
<time>2023-05-16T12:17:45Z</time>
</trkpt>
<trkpt lat="49.03915791772306" lon="9.315522965043783">
<ele>219.60000000000002</ele>
<time>2023-05-16T12:17:46Z</time>
</trkpt>
<trkpt lat="49.0391799621284" lon="9.315414922311902">
<ele>219.20000000000005</ele>
<time>2023-05-16T12:17:47Z</time>
</trkpt>
<trkpt lat="49.039211980998516" lon="9.315316937863827">
<ele>218.79999999999995</ele>
<time>2023-05-16T12:17:48Z</time>
</trkpt>
<trkpt lat="49.03923997655511" lon="9.315221970900893">
<ele>218.60000000000002</ele>
<time>2023-05-16T12:17:49Z</time>
</trkpt>
<trkpt lat="49.03926998376846" lon="9.315127925947309">
<ele>218.20000000000005</ele>
<time>2023-05-16T12:17:50Z</time>
</trkpt>
<trkpt lat="49.03929999098182" lon="9.315031953155994">
<ele>218</ele>
<time>2023-05-16T12:17:51Z</time>
</trkpt>
<trkpt lat="49.03932295739651" lon="9.3149349745363">
<ele>217.79999999999995</ele>
<time>2023-05-16T12:17:52Z</time>
</trkpt>
<trkpt lat="49.03934692963958" lon="9.31484797038138">
<ele>217.39999999999998</ele>
<time>2023-05-16T12:17:53Z</time>
</trkpt>
<trkpt lat="49.0393699798733" lon="9.314767923206091">
<ele>217.20000000000005</ele>
<time>2023-05-16T12:17:54Z</time>
</trkpt>
<trkpt lat="49.03939194045961" lon="9.314696928486228">
<ele>217</ele>
<time>2023-05-16T12:17:55Z</time>
</trkpt>
<trkpt lat="49.03941297903657" lon="9.31461495347321">
<ele>217</ele>
<time>2023-05-16T12:17:56Z</time>
</trkpt>
<trkpt lat="49.03943493962288" lon="9.314541947096586">
<ele>216.79999999999995</ele>
<time>2023-05-16T12:17:57Z</time>
</trkpt>
<trkpt lat="49.03945991769433" lon="9.314477993175387">
<ele>216.79999999999995</ele>
<time>2023-05-16T12:17:58Z</time>
</trkpt>
<trkpt lat="49.03948196209967" lon="9.314406998455524">
<ele>216.60000000000002</ele>
<time>2023-05-16T12:17:59Z</time>
</trkpt>
<trkpt lat="49.0395029168576" lon="9.314334997907281">
<ele>216.60000000000002</ele>
<time>2023-05-16T12:18:00Z</time>
</trkpt>
<trkpt lat="49.03952496126294" lon="9.314267942681909">
<ele>216.39999999999998</ele>
<time>2023-05-16T12:18:01Z</time>
</trkpt>
<trkpt lat="49.03954499401152" lon="9.31420298293233">
<ele>216.39999999999998</ele>
<time>2023-05-16T12:18:02Z</time>
</trkpt>
<trkpt lat="49.03956494294107" lon="9.314137939363718">
<ele>216.39999999999998</ele>
<time>2023-05-16T12:18:03Z</time>
</trkpt>
<trkpt lat="49.03958195820451" lon="9.314066944643855">
<ele>216.39999999999998</ele>
<time>2023-05-16T12:18:04Z</time>
</trkpt>
<trkpt lat="49.03960299678147" lon="9.314001984894276">
<ele>216.39999999999998</ele>
<time>2023-05-16T12:18:05Z</time>
</trkpt>
<trkpt lat="49.03962797485292" lon="9.313934929668903">
<ele>216.39999999999998</ele>
<time>2023-05-16T12:18:06Z</time>
</trkpt>
<trkpt lat="49.0396429784596" lon="9.31386192329228">
<ele>216.20000000000005</ele>
<time>2023-05-16T12:18:07Z</time>
</trkpt>
<trkpt lat="49.039657982066274" lon="9.313792940229177">
<ele>216.20000000000005</ele>
<time>2023-05-16T12:18:08Z</time>
</trkpt>
<trkpt lat="49.03967994265258" lon="9.31372999213636">
<ele>216.20000000000005</ele>
<time>2023-05-16T12:18:09Z</time>
</trkpt>
<trkpt lat="49.03969997540116" lon="9.31366696022451">
<ele>216.20000000000005</ele>
<time>2023-05-16T12:18:10Z</time>
</trkpt>
<trkpt lat="49.03971992433071" lon="9.313612980768085">
<ele>216.20000000000005</ele>
<time>2023-05-16T12:18:11Z</time>
</trkpt>
<trkpt lat="49.03973995707929" lon="9.313552966341376">
<ele>216.39999999999998</ele>
<time>2023-05-16T12:18:12Z</time>
</trkpt>
<trkpt lat="49.03975797817111" lon="9.31349697522819">
<ele>216.39999999999998</ele>
<time>2023-05-16T12:18:13Z</time>
</trkpt>
<trkpt lat="49.03977692127228" lon="9.313449952751398">
<ele>216.39999999999998</ele>
<time>2023-05-16T12:18:14Z</time>
</trkpt>
<trkpt lat="49.0397949423641" lon="9.313417933881283">
<ele>216.39999999999998</ele>
<time>2023-05-16T12:18:15Z</time>
</trkpt>
<trkpt lat="49.03981992043555" lon="9.31338993832469">
<ele>216.39999999999998</ele>
<time>2023-05-16T12:18:16Z</time>
</trkpt>
<trkpt lat="49.03984297066927" lon="9.31336697191">
<ele>216.39999999999998</ele>
<time>2023-05-16T12:18:17Z</time>
</trkpt>
<trkpt lat="49.039856968447566" lon="9.313334953039885">
<ele>216.39999999999998</ele>
<time>2023-05-16T12:18:18Z</time>
</trkpt>
<trkpt lat="49.03986291959882" lon="9.313299916684628">
<ele>216.39999999999998</ele>
<time>2023-05-16T12:18:19Z</time>
</trkpt>
<trkpt lat="49.03986694291234" lon="9.313264964148402">
<ele>216.39999999999998</ele>
<time>2023-05-16T12:18:20Z</time>
</trkpt>
<trkpt lat="49.03985998593271" lon="9.31323696859181">
<ele>216.39999999999998</ele>
<time>2023-05-16T12:18:21Z</time>
</trkpt>
<trkpt lat="49.03984498232603" lon="9.313204949721694">
<ele>216.60000000000002</ele>
<time>2023-05-16T12:18:22Z</time>
</trkpt>
<trkpt lat="49.03982696123421" lon="9.313171925023198">
<ele>216.60000000000002</ele>
<time>2023-05-16T12:18:23Z</time>
</trkpt>
<trkpt lat="49.03980692848563" lon="9.313127920031548">
<ele>216.60000000000002</ele>
<time>2023-05-16T12:18:24Z</time>
</trkpt>
<trkpt lat="49.039791924878955" lon="9.313079975545406">
<ele>216.60000000000002</ele>
<time>2023-05-16T12:18:25Z</time>
</trkpt>
<trkpt lat="49.03978195041418" lon="9.313029935583472">
<ele>216.60000000000002</ele>
<time>2023-05-16T12:18:26Z</time>
</trkpt>
<trkpt lat="49.03977197594941" lon="9.312976961955428">
<ele>216.60000000000002</ele>
<time>2023-05-16T12:18:27Z</time>
</trkpt>
<trkpt lat="49.03976493515074" lon="9.312921976670623">
<ele>216.79999999999995</ele>
<time>2023-05-16T12:18:28Z</time>
</trkpt>
<trkpt lat="49.03975998982787" lon="9.312862968072295">
<ele>216.79999999999995</ele>
<time>2023-05-16T12:18:29Z</time>
</trkpt>
<trkpt lat="49.03975496068597" lon="9.312804965302348">
<ele>216.79999999999995</ele>
<time>2023-05-16T12:18:30Z</time>
</trkpt>
<trkpt lat="49.039747919887304" lon="9.31274495087564">
<ele>216.79999999999995</ele>
<time>2023-05-16T12:18:31Z</time>
</trkpt>
<trkpt lat="49.039744986221194" lon="9.312686948105693">
<ele>216.79999999999995</ele>
<time>2023-05-16T12:18:32Z</time>
</trkpt>
<trkpt lat="49.03974196873605" lon="9.312622994184494">
<ele>217</ele>
<time>2023-05-16T12:18:33Z</time>
</trkpt>
<trkpt lat="49.03973794542253" lon="9.312564991414547">
<ele>217</ele>
<time>2023-05-16T12:18:34Z</time>
</trkpt>
<trkpt lat="49.03973199427128" lon="9.3125069886446">
<ele>217</ele>
<time>2023-05-16T12:18:35Z</time>
</trkpt>
<trkpt lat="49.039724953472614" lon="9.312446974217892">
<ele>217</ele>
<time>2023-05-16T12:18:36Z</time>
</trkpt>
<trkpt lat="49.039724953472614" lon="9.312387965619564">
<ele>217</ele>
<time>2023-05-16T12:18:37Z</time>
</trkpt>
<trkpt lat="49.03972998261452" lon="9.312326945364475">
<ele>217.20000000000005</ele>
<time>2023-05-16T12:18:38Z</time>
</trkpt>
<trkpt lat="49.03973291628063" lon="9.312262991443276">
<ele>217.20000000000005</ele>
<time>2023-05-16T12:18:39Z</time>
</trkpt>
<trkpt lat="49.03972998261452" lon="9.312194930389524">
<ele>217.20000000000005</ele>
<time>2023-05-16T12:18:40Z</time>
</trkpt>
<trkpt lat="49.039726965129375" lon="9.312127958983183">
<ele>217.39999999999998</ele>
<time>2023-05-16T12:18:41Z</time>
</trkpt>
<trkpt lat="49.03972294181585" lon="9.312067944556475">
<ele>217.39999999999998</ele>
<time>2023-05-16T12:18:42Z</time>
</trkpt>
<trkpt lat="49.0397169906646" lon="9.312009941786528">
<ele>217.39999999999998</ele>
<time>2023-05-16T12:18:43Z</time>
</trkpt>
<trkpt lat="49.03971296735108" lon="9.311954956501722">
<ele>217.60000000000002</ele>
<time>2023-05-16T12:18:44Z</time>
</trkpt>
<trkpt lat="49.039707938209176" lon="9.311892930418253">
<ele>217.60000000000002</ele>
<time>2023-05-16T12:18:45Z</time>
</trkpt>
<trkpt lat="49.039707938209176" lon="9.311834927648306">
<ele>217.60000000000002</ele>
<time>2023-05-16T12:18:46Z</time>
</trkpt>
<trkpt lat="49.039702992886305" lon="9.31177499704063">
<ele>217.79999999999995</ele>
<time>2023-05-16T12:18:47Z</time>
</trkpt>
<trkpt lat="49.03969494625926" lon="9.311714982613921">
<ele>217.79999999999995</ele>
<time>2023-05-16T12:18:48Z</time>
</trkpt>
<trkpt lat="49.03968798927963" lon="9.311662930995226">
<ele>217.79999999999995</ele>
<time>2023-05-16T12:18:49Z</time>
</trkpt>
<trkpt lat="49.03969192877412" lon="9.311617920175195">
<ele>218</ele>
<time>2023-05-16T12:18:50Z</time>
</trkpt>
<trkpt lat="49.039701987057924" lon="9.311579950153828">
<ele>218</ele>
<time>2023-05-16T12:18:51Z</time>
</trkpt>
<trkpt lat="49.03972193598747" lon="9.311551954597235">
<ele>218.20000000000005</ele>
<time>2023-05-16T12:18:52Z</time>
</trkpt>
<trkpt lat="49.039747919887304" lon="9.311526976525784">
<ele>218.20000000000005</ele>
<time>2023-05-16T12:18:53Z</time>
</trkpt>
<trkpt lat="49.03977792710066" lon="9.311502920463681">
<ele>218.39999999999998</ele>
<time>2023-05-16T12:18:54Z</time>
</trkpt>
<trkpt lat="49.03980793431401" lon="9.311481965705752">
<ele>218.39999999999998</ele>
<time>2023-05-16T12:18:55Z</time>
</trkpt>
<trkpt lat="49.03984699398279" lon="9.311457993462682">
<ele>218.60000000000002</ele>
<time>2023-05-16T12:18:56Z</time>
</trkpt>
<trkpt lat="49.03988496400416" lon="9.311432931572199">
<ele>218.60000000000002</ele>
<time>2023-05-16T12:18:57Z</time>
</trkpt>
<trkpt lat="49.03992695733905" lon="9.31141197681427">
<ele>218.60000000000002</ele>
<time>2023-05-16T12:18:58Z</time>
</trkpt>
<trkpt lat="49.03996693901718" lon="9.311396973207593">
<ele>218.79999999999995</ele>
<time>2023-05-16T12:18:59Z</time>
</trkpt>
<trkpt lat="49.040004992857575" lon="9.311377946287394">
<ele>218.79999999999995</ele>
<time>2023-05-16T12:19:00Z</time>
</trkpt>
<trkpt lat="49.040046986192465" lon="9.311357997357845">
<ele>219</ele>
<time>2023-05-16T12:19:01Z</time>
</trkpt>
<trkpt lat="49.040091997012496" lon="9.311336958780885">
<ele>219</ele>
<time>2023-05-16T12:19:02Z</time>
</trkpt>
<trkpt lat="49.040134996175766" lon="9.311317931860685">
<ele>219.20000000000005</ele>
<time>2023-05-16T12:19:03Z</time>
</trkpt>
<trkpt lat="49.040179923176765" lon="9.311296977102757">
<ele>219.20000000000005</ele>
<time>2023-05-16T12:19:04Z</time>
</trkpt>
<trkpt lat="49.0402249339968" lon="9.311276944354177">
<ele>219.20000000000005</ele>
<time>2023-05-16T12:19:05Z</time>
</trkpt>
<trkpt lat="49.04026793316007" lon="9.311257917433977">
<ele>219.39999999999998</ele>
<time>2023-05-16T12:19:06Z</time>
</trkpt>
<trkpt lat="49.040309926494956" lon="9.311229921877384">
<ele>219.39999999999998</ele>
<time>2023-05-16T12:19:07Z</time>
</trkpt>
<trkpt lat="49.04035493731499" lon="9.311199998483062">
<ele>219.60000000000002</ele>
<time>2023-05-16T12:19:08Z</time>
</trkpt>
<trkpt lat="49.04039793647826" lon="9.311167979612947">
<ele>219.60000000000002</ele>
<time>2023-05-16T12:19:09Z</time>
</trkpt>
<trkpt lat="49.04044194146991" lon="9.31113495491445">
<ele>219.79999999999995</ele>
<time>2023-05-16T12:19:10Z</time>
</trkpt>
<trkpt lat="49.04048292897642" lon="9.311094973236322">
<ele>219.79999999999995</ele>
<time>2023-05-16T12:19:11Z</time>
</trkpt>
<trkpt lat="49.040524922311306" lon="9.311056919395924">
<ele>220</ele>
<time>2023-05-16T12:19:12Z</time>
</trkpt>
<trkpt lat="49.040561970323324" lon="9.311019955202937">
<ele>220</ele>
<time>2023-05-16T12:19:13Z</time>
</trkpt>
<trkpt lat="49.04059792868793" lon="9.31098198518157">
<ele>220.20000000000005</ele>
<time>2023-05-16T12:19:14Z</time>
</trkpt>
<trkpt lat="49.04063296504319" lon="9.310944937169552">
<ele>220.20000000000005</ele>
<time>2023-05-16T12:19:15Z</time>
</trkpt>
<trkpt lat="49.040669929236174" lon="9.310907972976565">
<ele>220.39999999999998</ele>
<time>2023-05-16T12:19:16Z</time>
</trkpt>
<trkpt lat="49.04070194810629" lon="9.310877965763211">
<ele>220.39999999999998</ele>
<time>2023-05-16T12:19:17Z</time>
</trkpt>
<trkpt lat="49.04072994366288" lon="9.310849970206618">
<ele>220.60000000000002</ele>
<time>2023-05-16T12:19:18Z</time>
</trkpt>
<trkpt lat="49.04075492173433" lon="9.310826919972897">
<ele>220.60000000000002</ele>
<time>2023-05-16T12:19:19Z</time>
</trkpt>
<trkpt lat="49.04077495448291" lon="9.310804959386587">
<ele>220.79999999999995</ele>
<time>2023-05-16T12:19:20Z</time>
</trkpt>
<trkpt lat="49.040796998888254" lon="9.310784926638007">
<ele>220.79999999999995</ele>
<time>2023-05-16T12:19:21Z</time>
</trkpt>
<trkpt lat="49.04081795364618" lon="9.310764977708459">
<ele>221</ele>
<time>2023-05-16T12:19:22Z</time>
</trkpt>
<trkpt lat="49.04083798639476" lon="9.310741927474737">
<ele>221.20000000000005</ele>
<time>2023-05-16T12:19:23Z</time>
</trkpt>
<trkpt lat="49.040862964466214" lon="9.310711920261383">
<ele>221.20000000000005</ele>
<time>2023-05-16T12:19:24Z</time>
</trkpt>
<trkpt lat="49.04089196585119" lon="9.310677973553538">
<ele>221.39999999999998</ele>
<time>2023-05-16T12:19:25Z</time>
</trkpt>
<trkpt lat="49.04092197306454" lon="9.310644948855042">
<ele>221.39999999999998</ele>
<time>2023-05-16T12:19:26Z</time>
</trkpt>
<trkpt lat="49.04095499776304" lon="9.310609996318817">
<ele>221.60000000000002</ele>
<time>2023-05-16T12:19:27Z</time>
</trkpt>
<trkpt lat="49.04098693281412" lon="9.310579989105463">
<ele>221.79999999999995</ele>
<time>2023-05-16T12:19:28Z</time>
</trkpt>
<trkpt lat="49.04101995751262" lon="9.31055199354887">
<ele>221.79999999999995</ele>
<time>2023-05-16T12:19:29Z</time>
</trkpt>
<trkpt lat="49.04105298221111" lon="9.310517963021994">
<ele>222</ele>
<time>2023-05-16T12:19:30Z</time>
</trkpt>
<trkpt lat="49.04108198359609" lon="9.310486949980259">
<ele>222</ele>
<time>2023-05-16T12:19:31Z</time>
</trkpt>
<trkpt lat="49.04111299663782" lon="9.310447974130511">
<ele>222.20000000000005</ele>
<time>2023-05-16T12:19:32Z</time>
</trkpt>
<trkpt lat="49.041141998022795" lon="9.310414949432015">
<ele>222.39999999999998</ele>
<time>2023-05-16T12:19:33Z</time>
</trkpt>
<trkpt lat="49.04117493890226" lon="9.31038192473352">
<ele>222.60000000000002</ele>
<time>2023-05-16T12:19:34Z</time>
</trkpt>
<trkpt lat="49.041207963600755" lon="9.310349989682436">
<ele>222.60000000000002</ele>
<time>2023-05-16T12:19:35Z</time>
</trkpt>
<trkpt lat="49.04123797081411" lon="9.310319982469082">
<ele>222.79999999999995</ele>
<time>2023-05-16T12:19:36Z</time>
</trkpt>
<trkpt lat="49.04126697219908" lon="9.310289975255728">
<ele>223</ele>
<time>2023-05-16T12:19:37Z</time>
</trkpt>
<trkpt lat="49.041291950270534" lon="9.310259968042374">
<ele>223</ele>
<time>2023-05-16T12:19:38Z</time>
</trkpt>
<trkpt lat="49.041312988847494" lon="9.31023197248578">
<ele>223.20000000000005</ele>
<time>2023-05-16T12:19:39Z</time>
</trkpt>
<trkpt lat="49.041334949433804" lon="9.31020992808044">
<ele>223.20000000000005</ele>
<time>2023-05-16T12:19:40Z</time>
</trkpt>
<trkpt lat="49.04135498218238" lon="9.310189979150891">
<ele>223.39999999999998</ele>
<time>2023-05-16T12:19:41Z</time>
</trkpt>
<trkpt lat="49.04137694276869" lon="9.31016793474555">
<ele>223.60000000000002</ele>
<time>2023-05-16T12:19:42Z</time>
</trkpt>
<trkpt lat="49.04141298495233" lon="9.310156954452395">
<ele>223.60000000000002</ele>
<time>2023-05-16T12:19:43Z</time>
</trkpt>
<trkpt lat="49.04145296663046" lon="9.310149997472763">
<ele>223.60000000000002</ele>
<time>2023-05-16T12:19:44Z</time>
</trkpt>
<trkpt lat="49.04149797745049" lon="9.31014496833086">
<ele>223.79999999999995</ele>
<time>2023-05-16T12:19:45Z</time>
</trkpt>
<trkpt lat="49.04154499992728" lon="9.310131976380944">
<ele>223.79999999999995</ele>
<time>2023-05-16T12:19:46Z</time>
</trkpt>
<trkpt lat="49.04159193858504" lon="9.310116972774267">
<ele>223.79999999999995</ele>
<time>2023-05-16T12:19:47Z</time>
</trkpt>
<trkpt lat="49.041636949405074" lon="9.310091994702816">
<ele>223.79999999999995</ele>
<time>2023-05-16T12:19:48Z</time>
</trkpt>
<trkpt lat="49.04168799519539" lon="9.310061987489462">
<ele>223.79999999999995</ele>
<time>2023-05-16T12:19:49Z</time>
</trkpt>
<trkpt lat="49.041742980480194" lon="9.310031980276108">
<ele>223.79999999999995</ele>
<time>2023-05-16T12:19:50Z</time>
</trkpt>
<trkpt lat="49.041797965765" lon="9.310009935870767">
<ele>223.79999999999995</ele>
<time>2023-05-16T12:19:51Z</time>
</trkpt>
<trkpt lat="49.041852951049805" lon="9.309992920607328">
<ele>224</ele>
<time>2023-05-16T12:19:52Z</time>
</trkpt>
<trkpt lat="49.04190693050623" lon="9.309981940314174">
<ele>224</ele>
<time>2023-05-16T12:19:53Z</time>
</trkpt>
<trkpt lat="49.04195697046816" lon="9.309967942535877">
<ele>224.20000000000005</ele>
<time>2023-05-16T12:19:54Z</time>
</trkpt>
<trkpt lat="49.042004998773336" lon="9.3099529389292">
<ele>224.39999999999998</ele>
<time>2023-05-16T12:19:55Z</time>
</trkpt>
<trkpt lat="49.042047997936606" lon="9.309941958636045">
<ele>224.60000000000002</ele>
<time>2023-05-16T12:19:56Z</time>
</trkpt>
<trkpt lat="49.042086973786354" lon="9.309934917837381">
<ele>224.79999999999995</ele>
<time>2023-05-16T12:19:57Z</time>
</trkpt>
<trkpt lat="49.04212192632258" lon="9.309927960857749">
<ele>225.20000000000005</ele>
<time>2023-05-16T12:19:58Z</time>
</trkpt>
<trkpt lat="49.04215796850622" lon="9.309919998049736">
<ele>225.39999999999998</ele>
<time>2023-05-16T12:19:59Z</time>
</trkpt>
<trkpt lat="49.042197950184345" lon="9.309912957251072">
<ele>225.60000000000002</ele>
<time>2023-05-16T12:20:00Z</time>
</trkpt>
<trkpt lat="49.0422329865396" lon="9.309906922280788">
<ele>225.79999999999995</ele>
<time>2023-05-16T12:20:01Z</time>
</trkpt>
<trkpt lat="49.04226995073259" lon="9.309902982786298">
<ele>226.20000000000005</ele>
<time>2023-05-16T12:20:02Z</time>
</trkpt>
<trkpt lat="49.04230699874461" lon="9.309892924502492">
<ele>226.39999999999998</ele>
<time>2023-05-16T12:20:03Z</time>
</trkpt>
<trkpt lat="49.04233792796731" lon="9.309884961694479">
<ele>226.79999999999995</ele>
<time>2023-05-16T12:20:04Z</time>
</trkpt>
<trkpt lat="49.042371958494186" lon="9.309869958087802">
<ele>227</ele>
<time>2023-05-16T12:20:05Z</time>
</trkpt>
<trkpt lat="49.04240498319268" lon="9.309846991673112">
<ele>227.39999999999998</ele>
<time>2023-05-16T12:20:06Z</time>
</trkpt>
<trkpt lat="49.042434990406036" lon="9.309816984459758">
<ele>227.60000000000002</ele>
<time>2023-05-16T12:20:07Z</time>
</trkpt>
<trkpt lat="49.04246198013425" lon="9.30977993644774">
<ele>227.79999999999995</ele>
<time>2023-05-16T12:20:08Z</time>
</trkpt>
<trkpt lat="49.04248293489218" lon="9.309732997789979">
<ele>228.20000000000005</ele>
<time>2023-05-16T12:20:09Z</time>
</trkpt>
<trkpt lat="49.042496932670474" lon="9.309681951999664">
<ele>228.39999999999998</ele>
<time>2023-05-16T12:20:10Z</time>
</trkpt>
<trkpt lat="49.04250296764076" lon="9.309621937572956">
<ele>228.60000000000002</ele>
<time>2023-05-16T12:20:11Z</time>
</trkpt>
<trkpt lat="49.04250799678266" lon="9.309554966166615">
<ele>228.79999999999995</ele>
<time>2023-05-16T12:20:12Z</time>
</trkpt>
<trkpt lat="49.04251193627715" lon="9.309491934254766">
<ele>229</ele>
<time>2023-05-16T12:20:13Z</time>
</trkpt>
<trkpt lat="49.042516965419054" lon="9.309427980333567">
<ele>229.20000000000005</ele>
<time>2023-05-16T12:20:14Z</time>
</trkpt>
<trkpt lat="49.04252199456096" lon="9.309364948421717">
<ele>229.39999999999998</ele>
<time>2023-05-16T12:20:15Z</time>
</trkpt>
<trkpt lat="49.04252492822707" lon="9.309297977015376">
<ele>229.79999999999995</ele>
<time>2023-05-16T12:20:16Z</time>
</trkpt>
<trkpt lat="49.04252693988383" lon="9.309234945103526">
<ele>230</ele>
<time>2023-05-16T12:20:17Z</time>
</trkpt>
<trkpt lat="49.04252794571221" lon="9.309167973697186">
<ele>230.20000000000005</ele>
<time>2023-05-16T12:20:18Z</time>
</trkpt>
<trkpt lat="49.04253196902573" lon="9.309106953442097">
<ele>230.20000000000005</ele>
<time>2023-05-16T12:20:19Z</time>
</trkpt>
<trkpt lat="49.04253196902573" lon="9.309044927358627">
<ele>230.39999999999998</ele>
<time>2023-05-16T12:20:20Z</time>
</trkpt>
<trkpt lat="49.04253297485411" lon="9.308981979265809">
<ele>230.60000000000002</ele>
<time>2023-05-16T12:20:21Z</time>
</trkpt>
<trkpt lat="49.042536998167634" lon="9.308917941525578">
<ele>230.79999999999995</ele>
<time>2023-05-16T12:20:22Z</time>
</trkpt>
<trkpt lat="49.04253792017698" lon="9.308849964290857">
<ele>231</ele>
<time>2023-05-16T12:20:23Z</time>
</trkpt>
<trkpt lat="49.042541943490505" lon="9.308784920722246">
<ele>231.20000000000005</ele>
<time>2023-05-16T12:20:24Z</time>
</trkpt>
<trkpt lat="49.04254999011755" lon="9.308721972629428">
<ele>231.39999999999998</ele>
<time>2023-05-16T12:20:25Z</time>
</trkpt>
<trkpt lat="49.04255493544042" lon="9.308656929060817">
<ele>231.60000000000002</ele>
<time>2023-05-16T12:20:26Z</time>
</trkpt>
<trkpt lat="49.042559964582324" lon="9.308591969311237">
<ele>231.79999999999995</ele>
<time>2023-05-16T12:20:27Z</time>
</trkpt>
<trkpt lat="49.04256499372423" lon="9.30853195488453">
<ele>231.79999999999995</ele>
<time>2023-05-16T12:20:28Z</time>
</trkpt>
<trkpt lat="49.04257195070386" lon="9.308471940457821">
<ele>232</ele>
<time>2023-05-16T12:20:29Z</time>
</trkpt>
<trkpt lat="49.04257798567414" lon="9.308412931859493">
<ele>232.20000000000005</ele>
<time>2023-05-16T12:20:30Z</time>
</trkpt>
<trkpt lat="49.042584942653775" lon="9.308356940746307">
<ele>232.39999999999998</ele>
<time>2023-05-16T12:20:31Z</time>
</trkpt>
<trkpt lat="49.04259298928082" lon="9.30829793214798">
<ele>232.39999999999998</ele>
<time>2023-05-16T12:20:32Z</time>
</trkpt>
<trkpt lat="49.042602963745594" lon="9.308241941034794">
<ele>232.60000000000002</ele>
<time>2023-05-16T12:20:33Z</time>
</trkpt>
<trkpt lat="49.04261696152389" lon="9.30818997323513">
<ele>232.79999999999995</ele>
<time>2023-05-16T12:20:34Z</time>
</trkpt>
<trkpt lat="49.04263791628182" lon="9.308147979900241">
<ele>233</ele>
<time>2023-05-16T12:20:35Z</time>
</trkpt>
<trkpt lat="49.04266792349517" lon="9.308119984343648">
<ele>233.20000000000005</ele>
<time>2023-05-16T12:20:36Z</time>
</trkpt>
<trkpt lat="49.04270195402205" lon="9.308106992393732">
<ele>233.60000000000002</ele>
<time>2023-05-16T12:20:37Z</time>
</trkpt>
<trkpt lat="49.042734978720546" lon="9.308106992393732">
<ele>233.79999999999995</ele>
<time>2023-05-16T12:20:38Z</time>
</trkpt>
<trkpt lat="49.04277194291353" lon="9.308111937716603">
<ele>234</ele>
<time>2023-05-16T12:20:39Z</time>
</trkpt>
<trkpt lat="49.04280999675393" lon="9.308116966858506">
<ele>234.20000000000005</ele>
<time>2023-05-16T12:20:40Z</time>
</trkpt>
<trkpt lat="49.04284997843206" lon="9.308122918009758">
<ele>234.39999999999998</ele>
<time>2023-05-16T12:20:41Z</time>
</trkpt>
<trkpt lat="49.042886942625046" lon="9.308127947151661">
<ele>234.60000000000002</ele>
<time>2023-05-16T12:20:42Z</time>
</trkpt>
<trkpt lat="49.042924996465445" lon="9.308131970465183">
<ele>234.79999999999995</ele>
<time>2023-05-16T12:20:43Z</time>
</trkpt>
<trkpt lat="49.04296296648681" lon="9.308132976293564">
<ele>235.20000000000005</ele>
<time>2023-05-16T12:20:44Z</time>
</trkpt>
<trkpt lat="49.0429999306798" lon="9.308134987950325">
<ele>235.39999999999998</ele>
<time>2023-05-16T12:20:45Z</time>
</trkpt>
<trkpt lat="49.043036978691816" lon="9.308134987950325">
<ele>235.60000000000002</ele>
<time>2023-05-16T12:20:46Z</time>
</trkpt>
<trkpt lat="49.043076960369945" lon="9.308134987950325">
<ele>236</ele>
<time>2023-05-16T12:20:47Z</time>
</trkpt>
<trkpt lat="49.04311794787645" lon="9.308137921616435">
<ele>236.20000000000005</ele>
<time>2023-05-16T12:20:48Z</time>
</trkpt>
<trkpt lat="49.0431569237262" lon="9.308132976293564">
<ele>236.39999999999998</ele>
<time>2023-05-16T12:20:49Z</time>
</trkpt>
<trkpt lat="49.0431949775666" lon="9.308127947151661">
<ele>236.60000000000002</ele>
<time>2023-05-16T12:20:50Z</time>
</trkpt>
<trkpt lat="49.04323294758797" lon="9.30812492966652">
<ele>236.79999999999995</ele>
<time>2023-05-16T12:20:51Z</time>
</trkpt>
<trkpt lat="49.043271923437715" lon="9.30812694132328">
<ele>237</ele>
<time>2023-05-16T12:20:52Z</time>
</trkpt>
<trkpt lat="49.04330997727811" lon="9.30812199600041">
<ele>237.20000000000005</ele>
<time>2023-05-16T12:20:53Z</time>
</trkpt>
<trkpt lat="49.04334995895624" lon="9.308111937716603">
<ele>237.39999999999998</ele>
<time>2023-05-16T12:20:54Z</time>
</trkpt>
<trkpt lat="49.04338792897761" lon="9.308096934109926">
<ele>237.60000000000002</ele>
<time>2023-05-16T12:20:55Z</time>
</trkpt>
<trkpt lat="49.04342497698963" lon="9.30808293633163">
<ele>237.79999999999995</ele>
<time>2023-05-16T12:20:56Z</time>
</trkpt>
<trkpt lat="49.043464958667755" lon="9.308061981573701">
<ele>238</ele>
<time>2023-05-16T12:20:57Z</time>
</trkpt>
<trkpt lat="49.04349999502301" lon="9.308031974360347">
<ele>238.20000000000005</ele>
<time>2023-05-16T12:20:58Z</time>
</trkpt>
<trkpt lat="49.043532935902476" lon="9.3079929985106">
<ele>238.39999999999998</ele>
<time>2023-05-16T12:20:59Z</time>
</trkpt>
<trkpt lat="49.04356797225773" lon="9.30795293301344">
<ele>238.60000000000002</ele>
<time>2023-05-16T12:21:00Z</time>
</trkpt>
<trkpt lat="49.04359797947109" lon="9.307914962992072">
<ele>238.60000000000002</ele>
<time>2023-05-16T12:21:01Z</time>
</trkpt>
<trkpt lat="49.0436249691993" lon="9.307872969657183">
<ele>238.79999999999995</ele>
<time>2023-05-16T12:21:02Z</time>
</trkpt>
<trkpt lat="49.04365296475589" lon="9.307827958837152">
<ele>238.79999999999995</ele>
<time>2023-05-16T12:21:03Z</time>
</trkpt>
<trkpt lat="49.04368297196925" lon="9.30778194218874">
<ele>239</ele>
<time>2023-05-16T12:21:04Z</time>
</trkpt>
<trkpt lat="49.04371197335422" lon="9.307736931368709">
<ele>239</ele>
<time>2023-05-16T12:21:05Z</time>
</trkpt>
<trkpt lat="49.043741980567575" lon="9.307691920548677">
<ele>239.20000000000005</ele>
<time>2023-05-16T12:21:06Z</time>
</trkpt>
<trkpt lat="49.043767964467406" lon="9.307642970234156">
<ele>239.20000000000005</ele>
<time>2023-05-16T12:21:07Z</time>
</trkpt>
<trkpt lat="49.04379495419562" lon="9.307602988556027">
<ele>239.20000000000005</ele>
<time>2023-05-16T12:21:08Z</time>
</trkpt>
<trkpt lat="49.04382496140897" lon="9.307559989392757">
<ele>239.20000000000005</ele>
<time>2023-05-16T12:21:09Z</time>
</trkpt>
<trkpt lat="49.04385496862233" lon="9.30752294138074">
<ele>239.20000000000005</ele>
<time>2023-05-16T12:21:10Z</time>
</trkpt>
<trkpt lat="49.04388799332082" lon="9.307489916682243">
<ele>239.20000000000005</ele>
<time>2023-05-16T12:21:11Z</time>
</trkpt>
<trkpt lat="49.04392495751381" lon="9.30745798163116">
<ele>239.20000000000005</ele>
<time>2023-05-16T12:21:12Z</time>
</trkpt>
<trkpt lat="49.043961921706796" lon="9.307426968589425">
<ele>239.20000000000005</ele>
<time>2023-05-16T12:21:13Z</time>
</trkpt>
<trkpt lat="49.044001987203956" lon="9.307397967204452">
<ele>239.20000000000005</ele>
<time>2023-05-16T12:21:14Z</time>
</trkpt>
<trkpt lat="49.044044986367226" lon="9.307372989133">
<ele>239.20000000000005</ele>
<time>2023-05-16T12:21:15Z</time>
</trkpt>
<trkpt lat="49.044091925024986" lon="9.307354968041182">
<ele>239</ele>
<time>2023-05-16T12:21:16Z</time>
</trkpt>
<trkpt lat="49.04414196498692" lon="9.307339964434505">
<ele>239</ele>
<time>2023-05-16T12:21:17Z</time>
</trkpt>
<trkpt lat="49.044196950271726" lon="9.30732998996973">
<ele>238.79999999999995</ele>
<time>2023-05-16T12:21:18Z</time>
</trkpt>
<trkpt lat="49.04425495304167" lon="9.30732998996973">
<ele>238.60000000000002</ele>
<time>2023-05-16T12:21:19Z</time>
</trkpt>
<trkpt lat="49.044319996610284" lon="9.307344993576407">
<ele>238.39999999999998</ele>
<time>2023-05-16T12:21:20Z</time>
</trkpt>
<trkpt lat="49.044387973845005" lon="9.307367959991097">
<ele>238.20000000000005</ele>
<time>2023-05-16T12:21:21Z</time>
</trkpt>
<trkpt lat="49.04445695690811" lon="9.307402996346354">
<ele>237.79999999999995</ele>
<time>2023-05-16T12:21:22Z</time>
</trkpt>
<trkpt lat="49.04452795162797" lon="9.307444989681244">
<ele>237.39999999999998</ele>
<time>2023-05-16T12:21:23Z</time>
</trkpt>
<trkpt lat="49.044601963832974" lon="9.307489916682243">
<ele>237.20000000000005</ele>
<time>2023-05-16T12:21:24Z</time>
</trkpt>
<trkpt lat="49.0446749702096" lon="9.30754297412932">
<ele>237</ele>
<time>2023-05-16T12:21:25Z</time>
</trkpt>
<trkpt lat="49.04474495910108" lon="9.307607933878899">
<ele>236.60000000000002</ele>
<time>2023-05-16T12:21:26Z</time>
</trkpt>
<trkpt lat="49.04481193050742" lon="9.30767197161913">
<ele>236.20000000000005</ele>
<time>2023-05-16T12:21:27Z</time>
</trkpt>
<trkpt lat="49.04487797990441" lon="9.307726956903934">
<ele>236</ele>
<time>2023-05-16T12:21:28Z</time>
</trkpt>
<trkpt lat="49.04494293965399" lon="9.307767944410443">
<ele>235.60000000000002</ele>
<time>2023-05-16T12:21:29Z</time>
</trkpt>
<trkpt lat="49.04500496573746" lon="9.307797951623797">
<ele>235.39999999999998</ele>
<time>2023-05-16T12:21:30Z</time>
</trkpt>
<trkpt lat="49.04506498016417" lon="9.307812955230474">
<ele>235.39999999999998</ele>
<time>2023-05-16T12:21:31Z</time>
</trkpt>
<trkpt lat="49.04512298293412" lon="9.307819996029139">
<ele>235.39999999999998</ele>
<time>2023-05-16T12:21:32Z</time>
</trkpt>
<trkpt lat="49.045181991532445" lon="9.307817984372377">
<ele>235.20000000000005</ele>
<time>2023-05-16T12:21:33Z</time>
</trkpt>
<trkpt lat="49.04523798264563" lon="9.307807926088572">
<ele>235.20000000000005</ele>
<time>2023-05-16T12:21:34Z</time>
</trkpt>
<trkpt lat="49.045291962102056" lon="9.307789988815784">
<ele>235.39999999999998</ele>
<time>2023-05-16T12:21:35Z</time>
</trkpt>
<trkpt lat="49.04534292407334" lon="9.307767944410443">
<ele>235.39999999999998</ele>
<time>2023-05-16T12:21:36Z</time>
</trkpt>
<trkpt lat="49.04538994655013" lon="9.307741960510612">
<ele>235.39999999999998</ele>
<time>2023-05-16T12:21:37Z</time>
</trkpt>
<trkpt lat="49.0454329457134" lon="9.307706924155354">
<ele>235.39999999999998</ele>
<time>2023-05-16T12:21:38Z</time>
</trkpt>
<trkpt lat="49.04547192156315" lon="9.307669959962368">
<ele>235.39999999999998</ele>
<time>2023-05-16T12:21:39Z</time>
</trkpt>
<trkpt lat="49.045506957918406" lon="9.307626960799098">
<ele>235.60000000000002</ele>
<time>2023-05-16T12:21:40Z</time>
</trkpt>
<trkpt lat="49.04554199427366" lon="9.307582955807447">
<ele>235.60000000000002</ele>
<time>2023-05-16T12:21:41Z</time>
</trkpt>
<trkpt lat="49.04557493515313" lon="9.307536939159036">
<ele>235.79999999999995</ele>
<time>2023-05-16T12:21:42Z</time>
</trkpt>
<trkpt lat="49.04560494236648" lon="9.30747994221747">
<ele>236</ele>
<time>2023-05-16T12:21:43Z</time>
</trkpt>
<trkpt lat="49.045632937923074" lon="9.307421939447522">
<ele>236.39999999999998</ele>
<time>2023-05-16T12:21:44Z</time>
</trkpt>
<trkpt lat="49.045656993985176" lon="9.307366954162717">
<ele>236.60000000000002</ele>
<time>2023-05-16T12:21:45Z</time>
</trkpt>
<trkpt lat="49.045676942914724" lon="9.307311968877912">
<ele>237</ele>
<time>2023-05-16T12:21:46Z</time>
</trkpt>
<trkpt lat="49.04569496400654" lon="9.307259917259216">
<ele>237.20000000000005</ele>
<time>2023-05-16T12:21:47Z</time>
</trkpt>
<trkpt lat="49.04571692459285" lon="9.307209961116314">
<ele>237.60000000000002</ele>
<time>2023-05-16T12:21:48Z</time>
</trkpt>
<trkpt lat="49.04573695734143" lon="9.307161932811141">
<ele>238</ele>
<time>2023-05-16T12:21:49Z</time>
</trkpt>
<trkpt lat="49.04575497843325" lon="9.307111976668239">
<ele>238.20000000000005</ele>
<time>2023-05-16T12:21:50Z</time>
</trkpt>
<trkpt lat="49.0457749273628" lon="9.307056991383433">
<ele>238.60000000000002</ele>
<time>2023-05-16T12:21:51Z</time>
</trkpt>
<trkpt lat="49.04579496011138" lon="9.307001922279596">
<ele>238.79999999999995</ele>
<time>2023-05-16T12:21:52Z</time>
</trkpt>
<trkpt lat="49.04580996371806" lon="9.306951966136694">
<ele>239</ele>
<time>2023-05-16T12:21:53Z</time>
</trkpt>
<trkpt lat="49.04583494178951" lon="9.306896980851889">
<ele>239.20000000000005</ele>
<time>2023-05-16T12:21:54Z</time>
</trkpt>
<trkpt lat="49.0458629373461" lon="9.306852975860238">
<ele>239.39999999999998</ele>
<time>2023-05-16T12:21:55Z</time>
</trkpt>
<trkpt lat="49.04588992707431" lon="9.30681299418211">
<ele>239.60000000000002</ele>
<time>2023-05-16T12:21:56Z</time>
</trkpt>
<trkpt lat="49.045917922630906" lon="9.306776951998472">
<ele>239.79999999999995</ele>
<time>2023-05-16T12:21:57Z</time>
</trkpt>
<trkpt lat="49.04594994150102" lon="9.306739987805486">
<ele>240</ele>
<time>2023-05-16T12:21:58Z</time>
</trkpt>
<trkpt lat="49.04598497785628" lon="9.306701933965087">
<ele>240.20000000000005</ele>
<time>2023-05-16T12:21:59Z</time>
</trkpt>
<trkpt lat="49.046019930392504" lon="9.306667987257242">
<ele>240.39999999999998</ele>
<time>2023-05-16T12:22:00Z</time>
</trkpt>
<trkpt lat="49.0460579842329" lon="9.306647954508662">
<ele>240.60000000000002</ele>
<time>2023-05-16T12:22:01Z</time>
</trkpt>
<trkpt lat="49.04609696008265" lon="9.306631945073605">
<ele>240.60000000000002</ele>
<time>2023-05-16T12:22:02Z</time>
</trkpt>
<trkpt lat="49.04613199643791" lon="9.306632950901985">
<ele>240.79999999999995</ele>
<time>2023-05-16T12:22:03Z</time>
</trkpt>
<trkpt lat="49.04616795480251" lon="9.306634962558746">
<ele>240.79999999999995</ele>
<time>2023-05-16T12:22:04Z</time>
</trkpt>
<trkpt lat="49.0462049189955" lon="9.306637980043888">
<ele>241</ele>
<time>2023-05-16T12:22:05Z</time>
</trkpt>
<trkpt lat="49.04624791815877" lon="9.306649966165423">
<ele>241.20000000000005</ele>
<time>2023-05-16T12:22:06Z</time>
</trkpt>
<trkpt lat="49.04628798365593" lon="9.306669998914003">
<ele>241.20000000000005</ele>
<time>2023-05-16T12:22:07Z</time>
</trkpt>
<trkpt lat="49.04633198864758" lon="9.306694976985455">
<ele>241.20000000000005</ele>
<time>2023-05-16T12:22:08Z</time>
</trkpt>
<trkpt lat="49.04637197032571" lon="9.306724984198809">
<ele>241.20000000000005</ele>
<time>2023-05-16T12:22:09Z</time>
</trkpt>
<trkpt lat="49.046406922861934" lon="9.30674996227026">
<ele>241.39999999999998</ele>
<time>2023-05-16T12:22:10Z</time>
</trkpt>
<trkpt lat="49.04643693007529" lon="9.306777957826853">
<ele>241.20000000000005</ele>
<time>2023-05-16T12:22:11Z</time>
</trkpt>
<trkpt lat="49.04646492563188" lon="9.306804947555065">
<ele>241.20000000000005</ele>
<time>2023-05-16T12:22:12Z</time>
</trkpt>
<trkpt lat="49.046489987522364" lon="9.306831937283278">
<ele>241.20000000000005</ele>
<time>2023-05-16T12:22:13Z</time>
</trkpt>
<trkpt lat="49.04652192257345" lon="9.306854987517">
<ele>241.20000000000005</ele>
<time>2023-05-16T12:22:14Z</time>
</trkpt>
<trkpt lat="49.04654698446393" lon="9.306872924789786">
<ele>241.20000000000005</ele>
<time>2023-05-16T12:22:15Z</time>
</trkpt>
<trkpt lat="49.04656995087862" lon="9.30689798668027">
<ele>241.20000000000005</ele>
<time>2023-05-16T12:22:16Z</time>
</trkpt>
<trkpt lat="49.04659291729331" lon="9.30692296475172">
<ele>241.20000000000005</ele>
<time>2023-05-16T12:22:17Z</time>
</trkpt>
<trkpt lat="49.04661797918379" lon="9.306954983621836">
<ele>241.20000000000005</ele>
<time>2023-05-16T12:22:18Z</time>
</trkpt>
<trkpt lat="49.046641951426864" lon="9.30698691867292">
<ele>241</ele>
<time>2023-05-16T12:22:19Z</time>
</trkpt>
<trkpt lat="49.046662990003824" lon="9.307019943371415">
<ele>241</ele>
<time>2023-05-16T12:22:20Z</time>
</trkpt>
<trkpt lat="49.046684950590134" lon="9.307052968069911">
<ele>241</ele>
<time>2023-05-16T12:22:21Z</time>
</trkpt>
<trkpt lat="49.04670297168195" lon="9.307082975283265">
<ele>240.79999999999995</ele>
<time>2023-05-16T12:22:22Z</time>
</trkpt>
<trkpt lat="49.04672493226826" lon="9.307104935869575">
<ele>240.60000000000002</ele>
<time>2023-05-16T12:22:23Z</time>
</trkpt>
<trkpt lat="49.0467469766736" lon="9.307121951133013">
<ele>240.60000000000002</ele>
<time>2023-05-16T12:22:24Z</time>
</trkpt>
<trkpt lat="49.04676994308829" lon="9.307127986103296">
<ele>240.39999999999998</ele>
<time>2023-05-16T12:22:25Z</time>
</trkpt>
<trkpt lat="49.046797938644886" lon="9.307127986103296">
<ele>240.20000000000005</ele>
<time>2023-05-16T12:22:26Z</time>
</trkpt>
<trkpt lat="49.04683196917176" lon="9.307121951133013">
<ele>240.20000000000005</ele>
<time>2023-05-16T12:22:27Z</time>
</trkpt>
<trkpt lat="49.0468629822135" lon="9.307106947526336">
<ele>240.20000000000005</ele>
<time>2023-05-16T12:22:28Z</time>
</trkpt>
<trkpt lat="49.04689298942685" lon="9.307082975283265">
<ele>240.20000000000005</ele>
<time>2023-05-16T12:22:29Z</time>
</trkpt>
<trkpt lat="49.046919979155064" lon="9.307056991383433">
<ele>240.20000000000005</ele>
<time>2023-05-16T12:22:30Z</time>
</trkpt>
<trkpt lat="49.04694998636842" lon="9.307024972513318">
<ele>240.20000000000005</ele>
<time>2023-05-16T12:22:31Z</time>
</trkpt>
<trkpt lat="49.04697999358177" lon="9.30698499083519">
<ele>240.20000000000005</ele>
<time>2023-05-16T12:22:32Z</time>
</trkpt>
<trkpt lat="49.047011928632855" lon="9.306936962530017">
<ele>240.20000000000005</ele>
<time>2023-05-16T12:22:33Z</time>
</trkpt>
<trkpt lat="49.04703799635172" lon="9.306886922568083">
<ele>240.20000000000005</ele>
<time>2023-05-16T12:22:34Z</time>
</trkpt>
<trkpt lat="49.04706498607993" lon="9.306831937283278">
<ele>240.39999999999998</ele>
<time>2023-05-16T12:22:35Z</time>
</trkpt>
<trkpt lat="49.047091975808144" lon="9.30677292868495">
<ele>240.39999999999998</ele>
<time>2023-05-16T12:22:36Z</time>
</trkpt>
<trkpt lat="49.047117959707975" lon="9.306711992248893">
<ele>240.39999999999998</ele>
<time>2023-05-16T12:22:37Z</time>
</trkpt>
<trkpt lat="49.04714696109295" lon="9.306646948680282">
<ele>240.39999999999998</ele>
<time>2023-05-16T12:22:38Z</time>
</trkpt>
<trkpt lat="49.04716992750764" lon="9.306586934253573">
<ele>240.39999999999998</ele>
<time>2023-05-16T12:22:39Z</time>
</trkpt>
<trkpt lat="49.04719197191298" lon="9.306527925655246">
<ele>240.60000000000002</ele>
<time>2023-05-16T12:22:40Z</time>
</trkpt>
<trkpt lat="49.04721694998443" lon="9.30646799504757">
<ele>240.60000000000002</ele>
<time>2023-05-16T12:22:41Z</time>
</trkpt>
<trkpt lat="49.04724192805588" lon="9.306416949257255">
<ele>240.79999999999995</ele>
<time>2023-05-16T12:22:42Z</time>
</trkpt>
<trkpt lat="49.047266989946365" lon="9.30636196397245">
<ele>241</ele>
<time>2023-05-16T12:22:43Z</time>
</trkpt>
<trkpt lat="49.047289956361055" lon="9.306306978687644">
<ele>241.20000000000005</ele>
<time>2023-05-16T12:22:44Z</time>
</trkpt>
<trkpt lat="49.047309989109635" lon="9.306246964260936">
<ele>241.60000000000002</ele>
<time>2023-05-16T12:22:45Z</time>
</trkpt>
<trkpt lat="49.047332955524325" lon="9.306196924299002">
<ele>241.79999999999995</ele>
<time>2023-05-16T12:22:46Z</time>
</trkpt>
<trkpt lat="49.04735499992967" lon="9.306142944842577">
<ele>242</ele>
<time>2023-05-16T12:22:47Z</time>
</trkpt>
<trkpt lat="49.047376960515976" lon="9.306086953729391">
<ele>242.39999999999998</ele>
<time>2023-05-16T12:22:48Z</time>
</trkpt>
<trkpt lat="49.04739799909294" lon="9.306031968444586">
<ele>242.60000000000002</ele>
<time>2023-05-16T12:22:49Z</time>
</trkpt>
<trkpt lat="49.04742197133601" lon="9.305967930704355">
<ele>242.79999999999995</ele>
<time>2023-05-16T12:22:50Z</time>
</trkpt>
<trkpt lat="49.0474449377507" lon="9.30591193959117">
<ele>243</ele>
<time>2023-05-16T12:22:51Z</time>
</trkpt>
<trkpt lat="49.047462958842516" lon="9.305851925164461">
<ele>243.20000000000005</ele>
<time>2023-05-16T12:22:52Z</time>
</trkpt>
<trkpt lat="49.04748693108559" lon="9.305791994556785">
<ele>243.39999999999998</ele>
<time>2023-05-16T12:22:53Z</time>
</trkpt>
<trkpt lat="49.047502940520644" lon="9.305736925452948">
<ele>243.60000000000002</ele>
<time>2023-05-16T12:22:54Z</time>
</trkpt>
<trkpt lat="49.04752699658275" lon="9.305684957653284">
<ele>243.79999999999995</ele>
<time>2023-05-16T12:22:55Z</time>
</trkpt>
<trkpt lat="49.04754996299744" lon="9.30563298985362">
<ele>244</ele>
<time>2023-05-16T12:22:56Z</time>
</trkpt>
<trkpt lat="49.04756999574602" lon="9.305584961548448">
<ele>244.20000000000005</ele>
<time>2023-05-16T12:22:57Z</time>
</trkpt>
<trkpt lat="49.047589944675565" lon="9.305539950728416">
<ele>244.39999999999998</ele>
<time>2023-05-16T12:22:58Z</time>
</trkpt>
<trkpt lat="49.047611989080906" lon="9.305491922423244">
<ele>244.60000000000002</ele>
<time>2023-05-16T12:22:59Z</time>
</trkpt>
<trkpt lat="49.04762992635369" lon="9.305436937138438">
<ele>244.79999999999995</ele>
<time>2023-05-16T12:23:00Z</time>
</trkpt>
<trkpt lat="49.04764995910227" lon="9.30537792854011">
<ele>244.79999999999995</ele>
<time>2023-05-16T12:23:01Z</time>
</trkpt>
<trkpt lat="49.04766999185085" lon="9.305322943255305">
<ele>245</ele>
<time>2023-05-16T12:23:02Z</time>
</trkpt>
<trkpt lat="49.0476899407804" lon="9.30526695214212">
<ele>245.20000000000005</ele>
<time>2023-05-16T12:23:03Z</time>
</trkpt>
<trkpt lat="49.04771198518574" lon="9.305209955200553">
<ele>245.20000000000005</ele>
<time>2023-05-16T12:23:04Z</time>
</trkpt>
<trkpt lat="49.0477279946208" lon="9.305156981572509">
<ele>245.39999999999998</ele>
<time>2023-05-16T12:23:05Z</time>
</trkpt>
<trkpt lat="49.04774794355035" lon="9.305097972974181">
<ele>245.39999999999998</ele>
<time>2023-05-16T12:23:06Z</time>
</trkpt>
<trkpt lat="49.04776697047055" lon="9.305036952719092">
<ele>245.60000000000002</ele>
<time>2023-05-16T12:23:07Z</time>
</trkpt>
<trkpt lat="49.047782979905605" lon="9.304979955777526">
<ele>245.79999999999995</ele>
<time>2023-05-16T12:23:08Z</time>
</trkpt>
<trkpt lat="49.04779798351228" lon="9.30492295883596">
<ele>245.79999999999995</ele>
<time>2023-05-16T12:23:09Z</time>
</trkpt>
<trkpt lat="49.04781198129058" lon="9.304864956066012">
<ele>246</ele>
<time>2023-05-16T12:23:10Z</time>
</trkpt>
<trkpt lat="49.047824973240495" lon="9.304807959124446">
<ele>246.20000000000005</ele>
<time>2023-05-16T12:23:11Z</time>
</trkpt>
<trkpt lat="49.04783796519041" lon="9.304749956354499">
<ele>246.20000000000005</ele>
<time>2023-05-16T12:23:12Z</time>
</trkpt>
<trkpt lat="49.047847939655185" lon="9.30468994192779">
<ele>246.39999999999998</ele>
<time>2023-05-16T12:23:13Z</time>
</trkpt>
<trkpt lat="49.04785799793899" lon="9.304627999663353">
<ele>246.60000000000002</ele>
<time>2023-05-16T12:23:14Z</time>
</trkpt>
<trkpt lat="49.047867972403765" lon="9.304564967751503">
<ele>246.60000000000002</ele>
<time>2023-05-16T12:23:15Z</time>
</trkpt>
<trkpt lat="49.0478799585253" lon="9.304504953324795">
<ele>246.79999999999995</ele>
<time>2023-05-16T12:23:16Z</time>
</trkpt>
<trkpt lat="49.047889932990074" lon="9.304444938898087">
<ele>247</ele>
<time>2023-05-16T12:23:17Z</time>
</trkpt>
<trkpt lat="49.04789999127388" lon="9.304384924471378">
<ele>247</ele>
<time>2023-05-16T12:23:18Z</time>
</trkpt>
<trkpt lat="49.047909965738654" lon="9.304324993863702">
<ele>247.20000000000005</ele>
<time>2023-05-16T12:23:19Z</time>
</trkpt>
<trkpt lat="49.04791792854667" lon="9.304264979436994">
<ele>247.39999999999998</ele>
<time>2023-05-16T12:23:20Z</time>
</trkpt>
<trkpt lat="49.04792798683047" lon="9.304202953353524">
<ele>247.39999999999998</ele>
<time>2023-05-16T12:23:21Z</time>
</trkpt>
<trkpt lat="49.04793796129525" lon="9.304144950583577">
<ele>247.60000000000002</ele>
<time>2023-05-16T12:23:22Z</time>
</trkpt>
<trkpt lat="49.04794793576002" lon="9.30408694781363">
<ele>247.60000000000002</ele>
<time>2023-05-16T12:23:23Z</time>
</trkpt>
<trkpt lat="49.04795799404383" lon="9.30402492173016">
<ele>247.79999999999995</ele>
<time>2023-05-16T12:23:24Z</time>
</trkpt>
<trkpt lat="49.04796696268022" lon="9.303961973637342">
<ele>247.79999999999995</ele>
<time>2023-05-16T12:23:25Z</time>
</trkpt>
<trkpt lat="49.047974925488234" lon="9.303896930068731">
<ele>247.79999999999995</ele>
<time>2023-05-16T12:23:26Z</time>
</trkpt>
<trkpt lat="49.04798297211528" lon="9.303834987804294">
<ele>248</ele>
<time>2023-05-16T12:23:27Z</time>
</trkpt>
<trkpt lat="49.04799294658005" lon="9.303771955892444">
<ele>248</ele>
<time>2023-05-16T12:23:28Z</time>
</trkpt>
<trkpt lat="49.04800199903548" lon="9.303704984486103">
<ele>248</ele>
<time>2023-05-16T12:23:29Z</time>
</trkpt>
<trkpt lat="49.04800694435835" lon="9.30363692343235">
<ele>248.20000000000005</ele>
<time>2023-05-16T12:23:30Z</time>
</trkpt>
<trkpt lat="49.04801499098539" lon="9.303572969511151">
<ele>248.20000000000005</ele>
<time>2023-05-16T12:23:31Z</time>
</trkpt>
<trkpt lat="49.04802295379341" lon="9.30350499227643">
<ele>248.20000000000005</ele>
<time>2023-05-16T12:23:32Z</time>
</trkpt>
<trkpt lat="49.04802697710693" lon="9.303434919565916">
<ele>248.20000000000005</ele>
<time>2023-05-16T12:23:33Z</time>
</trkpt>
<trkpt lat="49.04802496545017" lon="9.303364930674434">
<ele>248.20000000000005</ele>
<time>2023-05-16T12:23:34Z</time>
</trkpt>
<trkpt lat="49.04802999459207" lon="9.303294941782951">
<ele>248.39999999999998</ele>
<time>2023-05-16T12:23:35Z</time>
</trkpt>
<trkpt lat="49.04803493991494" lon="9.303224952891469">
<ele>248.39999999999998</ele>
<time>2023-05-16T12:23:36Z</time>
</trkpt>
<trkpt lat="49.048039969056845" lon="9.303156975656748">
<ele>248.39999999999998</ele>
<time>2023-05-16T12:23:37Z</time>
</trkpt>
<trkpt lat="49.04804692603648" lon="9.303086986765265">
<ele>248.39999999999998</ele>
<time>2023-05-16T12:23:38Z</time>
</trkpt>
<trkpt lat="49.04805195517838" lon="9.303014986217022">
<ele>248.39999999999998</ele>
<time>2023-05-16T12:23:39Z</time>
</trkpt>
<trkpt lat="49.04805497266352" lon="9.302946925163269">
<ele>248.39999999999998</ele>
<time>2023-05-16T12:23:40Z</time>
</trkpt>
<trkpt lat="49.048064947128296" lon="9.302872996777296">
<ele>248.39999999999998</ele>
<time>2023-05-16T12:23:41Z</time>
</trkpt>
<trkpt lat="49.04806796461344" lon="9.302809964865446">
<ele>248.39999999999998</ele>
<time>2023-05-16T12:23:42Z</time>
</trkpt>
<trkpt lat="49.04807299375534" lon="9.302746932953596">
<ele>248.39999999999998</ele>
<time>2023-05-16T12:23:43Z</time>
</trkpt>
<trkpt lat="49.04807492159307" lon="9.302682979032397">
<ele>248.39999999999998</ele>
<time>2023-05-16T12:23:44Z</time>
</trkpt>
<trkpt lat="49.04807793907821" lon="9.302614917978644">
<ele>248.39999999999998</ele>
<time>2023-05-16T12:23:45Z</time>
</trkpt>
<trkpt lat="49.04808699153364" lon="9.3025429174304">
<ele>248.39999999999998</ele>
<time>2023-05-16T12:23:46Z</time>
</trkpt>
<trkpt lat="49.04809193685651" lon="9.302472928538918">
<ele>248.39999999999998</ele>
<time>2023-05-16T12:23:47Z</time>
</trkpt>
<trkpt lat="49.04809998348355" lon="9.302401933819056">
<ele>248.39999999999998</ele>
<time>2023-05-16T12:23:48Z</time>
</trkpt>
<trkpt lat="49.04810995794833" lon="9.30232792161405">
<ele>248.39999999999998</ele>
<time>2023-05-16T12:23:49Z</time>
</trkpt>
<trkpt lat="49.04811699874699" lon="9.30225994437933">
<ele>248.20000000000005</ele>
<time>2023-05-16T12:23:50Z</time>
</trkpt>
<trkpt lat="49.0481199324131" lon="9.302192972972989">
<ele>248.20000000000005</ele>
<time>2023-05-16T12:23:51Z</time>
</trkpt>
<trkpt lat="49.048127979040146" lon="9.302126923575997">
<ele>248.20000000000005</ele>
<time>2023-05-16T12:23:52Z</time>
</trkpt>
<trkpt lat="49.04813292436302" lon="9.302057940512896">
<ele>248.20000000000005</ele>
<time>2023-05-16T12:23:53Z</time>
</trkpt>
<trkpt lat="49.04813795350492" lon="9.301992980763316">
<ele>248.20000000000005</ele>
<time>2023-05-16T12:23:54Z</time>
</trkpt>
<trkpt lat="49.048144994303584" lon="9.301924919709563">
<ele>248.20000000000005</ele>
<time>2023-05-16T12:23:55Z</time>
</trkpt>
<trkpt lat="49.04815195128322" lon="9.301854930818081">
<ele>248.20000000000005</ele>
<time>2023-05-16T12:23:56Z</time>
</trkpt>
<trkpt lat="49.04816695488989" lon="9.301781924441457">
<ele>248</ele>
<time>2023-05-16T12:23:57Z</time>
</trkpt>
<trkpt lat="49.04817994683981" lon="9.301709923893213">
<ele>248</ele>
<time>2023-05-16T12:23:58Z</time>
</trkpt>
<trkpt lat="49.04819495044649" lon="9.30163691751659">
<ele>247.79999999999995</ele>
<time>2023-05-16T12:23:59Z</time>
</trkpt>
<trkpt lat="49.04820995405316" lon="9.301564916968346">
<ele>247.60000000000002</ele>
<time>2023-05-16T12:24:00Z</time>
</trkpt>
<trkpt lat="49.04822294600308" lon="9.301489982753992">
<ele>247.39999999999998</ele>
<time>2023-05-16T12:24:01Z</time>
</trkpt>
<trkpt lat="49.048234932124615" lon="9.301417982205749">
<ele>247.20000000000005</ele>
<time>2023-05-16T12:24:02Z</time>
</trkpt>
<trkpt lat="49.04825194738805" lon="9.301346987485886">
<ele>247.20000000000005</ele>
<time>2023-05-16T12:24:03Z</time>
</trkpt>
<trkpt lat="49.04826695099473" lon="9.301276998594403">
<ele>247</ele>
<time>2023-05-16T12:24:04Z</time>
</trkpt>
<trkpt lat="49.04828497208655" lon="9.30120793171227">
<ele>246.79999999999995</ele>
<time>2023-05-16T12:24:05Z</time>
</trkpt>
<trkpt lat="49.04830299317837" lon="9.301137942820787">
<ele>246.60000000000002</ele>
<time>2023-05-16T12:24:06Z</time>
</trkpt>
<trkpt lat="49.048322942107916" lon="9.301069965586066">
<ele>246.39999999999998</ele>
<time>2023-05-16T12:24:07Z</time>
</trkpt>
<trkpt lat="49.048342974856496" lon="9.301001988351345">
<ele>246.39999999999998</ele>
<time>2023-05-16T12:24:08Z</time>
</trkpt>
<trkpt lat="49.048362923786044" lon="9.300932921469212">
<ele>246.20000000000005</ele>
<time>2023-05-16T12:24:09Z</time>
</trkpt>
<trkpt lat="49.04838195070624" lon="9.300867961719632">
<ele>246</ele>
<time>2023-05-16T12:24:10Z</time>
</trkpt>
<trkpt lat="49.04840198345482" lon="9.300802918151021">
<ele>246</ele>
<time>2023-05-16T12:24:11Z</time>
</trkpt>
<trkpt lat="49.04842293821275" lon="9.300739970058203">
<ele>245.79999999999995</ele>
<time>2023-05-16T12:24:12Z</time>
</trkpt>
<trkpt lat="49.04844297096133" lon="9.300679955631495">
<ele>245.60000000000002</ele>
<time>2023-05-16T12:24:13Z</time>
</trkpt>
<trkpt lat="49.04845998622477" lon="9.300627987831831">
<ele>245.60000000000002</ele>
<time>2023-05-16T12:24:14Z</time>
</trkpt>
<trkpt lat="49.048471972346306" lon="9.300577947869897">
<ele>245.39999999999998</ele>
<time>2023-05-16T12:24:15Z</time>
</trkpt>
<trkpt lat="49.04847792349756" lon="9.300527991726995">
<ele>245.20000000000005</ele>
<time>2023-05-16T12:24:16Z</time>
</trkpt>
<trkpt lat="49.04847993515432" lon="9.300479963421822">
<ele>245.20000000000005</ele>
<time>2023-05-16T12:24:17Z</time>
</trkpt>
<trkpt lat="49.04847498983145" lon="9.300437970086932">
<ele>245.20000000000005</ele>
<time>2023-05-16T12:24:18Z</time>
</trkpt>
<trkpt lat="49.04846794903278" lon="9.300401927903295">
<ele>245</ele>
<time>2023-05-16T12:24:19Z</time>
</trkpt>
<trkpt lat="49.048469960689545" lon="9.300364963710308">
<ele>245</ele>
<time>2023-05-16T12:24:20Z</time>
</trkpt>
<trkpt lat="49.04847792349756" lon="9.300326993688941">
<ele>245</ele>
<time>2023-05-16T12:24:21Z</time>
</trkpt>
<trkpt lat="49.048489993438125" lon="9.300289945676923">
<ele>245</ele>
<time>2023-05-16T12:24:22Z</time>
</trkpt>
<trkpt lat="49.04850197955966" lon="9.300252981483936">
<ele>245</ele>
<time>2023-05-16T12:24:23Z</time>
</trkpt>
<trkpt lat="49.04851698316634" lon="9.300216939300299">
<ele>245</ele>
<time>2023-05-16T12:24:24Z</time>
</trkpt>
<trkpt lat="49.048536932095885" lon="9.300182992592454">
<ele>245</ele>
<time>2023-05-16T12:24:25Z</time>
</trkpt>
<trkpt lat="49.04856299981475" lon="9.300159942358732">
<ele>244.79999999999995</ele>
<time>2023-05-16T12:24:26Z</time>
</trkpt>
<trkpt lat="49.048597952350974" lon="9.30013295263052">
<ele>244.60000000000002</ele>
<time>2023-05-16T12:24:27Z</time>
</trkpt>
<trkpt lat="49.04863198287785" lon="9.30008995346725">
<ele>244.39999999999998</ele>
<time>2023-05-16T12:24:28Z</time>
</trkpt>
<trkpt lat="49.048662995919585" lon="9.30002792738378">
<ele>244.20000000000005</ele>
<time>2023-05-16T12:24:29Z</time>
</trkpt>
<trkpt lat="49.04869199730456" lon="9.299957938492298">
<ele>244</ele>
<time>2023-05-16T12:24:30Z</time>
</trkpt>
<trkpt lat="49.04871999286115" lon="9.299882920458913">
<ele>243.79999999999995</ele>
<time>2023-05-16T12:24:31Z</time>
</trkpt>
<trkpt lat="49.048749916255474" lon="9.299801951274276">
<ele>243.60000000000002</ele>
<time>2023-05-16T12:24:32Z</time>
</trkpt>
<trkpt lat="49.0487779956311" lon="9.2997229937464">
<ele>243.20000000000005</ele>
<time>2023-05-16T12:24:33Z</time>
</trkpt>
<trkpt lat="49.04880498535931" lon="9.299649987369776">
<ele>243</ele>
<time>2023-05-16T12:24:34Z</time>
</trkpt>
<trkpt lat="49.04883197508752" lon="9.299577986821532">
<ele>242.79999999999995</ele>
<time>2023-05-16T12:24:35Z</time>
</trkpt>
<trkpt lat="49.048857958987355" lon="9.299501962959766">
<ele>242.39999999999998</ele>
<time>2023-05-16T12:24:36Z</time>
</trkpt>
<trkpt lat="49.04888696037233" lon="9.29942199960351">
<ele>242.20000000000005</ele>
<time>2023-05-16T12:24:37Z</time>
</trkpt>
<trkpt lat="49.04891495592892" lon="9.29933994077146">
<ele>241.79999999999995</ele>
<time>2023-05-16T12:24:38Z</time>
</trkpt>
<trkpt lat="49.04894697479904" lon="9.29925293661654">
<ele>241.60000000000002</ele>
<time>2023-05-16T12:24:39Z</time>
</trkpt>
<trkpt lat="49.04898192733526" lon="9.299164926633239">
<ele>241.20000000000005</ele>
<time>2023-05-16T12:24:40Z</time>
</trkpt>
<trkpt lat="49.0490179695189" lon="9.299076916649938">
<ele>241</ele>
<time>2023-05-16T12:24:41Z</time>
</trkpt>
<trkpt lat="49.049052922055125" lon="9.298986978828907">
<ele>240.60000000000002</ele>
<time>2023-05-16T12:24:42Z</time>
</trkpt>
<trkpt lat="49.049086952582" lon="9.298896957188845">
<ele>240.39999999999998</ele>
<time>2023-05-16T12:24:43Z</time>
</trkpt>
<trkpt lat="49.04912198893726" lon="9.298802996054292">
<ele>240</ele>
<time>2023-05-16T12:24:44Z</time>
</trkpt>
<trkpt lat="49.049159958958626" lon="9.29871297441423">
<ele>239.79999999999995</ele>
<time>2023-05-16T12:24:45Z</time>
</trkpt>
<trkpt lat="49.04919692315161" lon="9.29862697608769">
<ele>239.39999999999998</ele>
<time>2023-05-16T12:24:46Z</time>
</trkpt>
<trkpt lat="49.04923296533525" lon="9.29854198358953">
<ele>239.20000000000005</ele>
<time>2023-05-16T12:24:47Z</time>
</trkpt>
<trkpt lat="49.049269929528236" lon="9.29845497943461">
<ele>238.79999999999995</ele>
<time>2023-05-16T12:24:48Z</time>
</trkpt>
<trkpt lat="49.04930496588349" lon="9.298366969451308">
<ele>238.60000000000002</ele>
<time>2023-05-16T12:24:49Z</time>
</trkpt>
<trkpt lat="49.04933799058199" lon="9.298276947811246">
<ele>238.20000000000005</ele>
<time>2023-05-16T12:24:50Z</time>
</trkpt>
<trkpt lat="49.049372943118215" lon="9.298186926171184">
<ele>237.79999999999995</ele>
<time>2023-05-16T12:24:51Z</time>
</trkpt>
<trkpt lat="49.04940496198833" lon="9.298097994178534">
<ele>237.60000000000002</ele>
<time>2023-05-16T12:24:52Z</time>
</trkpt>
<trkpt lat="49.049437986686826" lon="9.29800696671009">
<ele>237.20000000000005</ele>
<time>2023-05-16T12:24:53Z</time>
</trkpt>
<trkpt lat="49.04947293922305" lon="9.29791996255517">
<ele>236.79999999999995</ele>
<time>2023-05-16T12:24:54Z</time>
</trkpt>
<trkpt lat="49.04950797557831" lon="9.297829940915108">
<ele>236.60000000000002</ele>
<time>2023-05-16T12:24:55Z</time>
</trkpt>
<trkpt lat="49.04954192228615" lon="9.297737991437316">
<ele>236.20000000000005</ele>
<time>2023-05-16T12:24:56Z</time>
</trkpt>
<trkpt lat="49.04957494698465" lon="9.297644952312112">
<ele>236</ele>
<time>2023-05-16T12:24:57Z</time>
</trkpt>
<trkpt lat="49.049609983339906" lon="9.297547973692417">
<ele>235.60000000000002</ele>
<time>2023-05-16T12:24:58Z</time>
</trkpt>
<trkpt lat="49.04964694753289" lon="9.297449989244342">
<ele>235.20000000000005</ele>
<time>2023-05-16T12:24:59Z</time>
</trkpt>
<trkpt lat="49.04968198388815" lon="9.297347981482744">
<ele>234.79999999999995</ele>
<time>2023-05-16T12:25:00Z</time>
</trkpt>
<trkpt lat="49.049716936424375" lon="9.297242956236005">
<ele>234.39999999999998</ele>
<time>2023-05-16T12:25:01Z</time>
</trkpt>
<trkpt lat="49.04974996112287" lon="9.297134997323155">
<ele>234.20000000000005</ele>
<time>2023-05-16T12:25:02Z</time>
</trkpt>
<trkpt lat="49.049781979992986" lon="9.297021925449371">
<ele>233.79999999999995</ele>
<time>2023-05-16T12:25:03Z</time>
</trkpt>
<trkpt lat="49.04980997554958" lon="9.296904997900128">
<ele>233.60000000000002</ele>
<time>2023-05-16T12:25:04Z</time>
</trkpt>
<trkpt lat="49.04983998276293" lon="9.296784969046712">
<ele>233.39999999999998</ele>
<time>2023-05-16T12:25:05Z</time>
</trkpt>
<trkpt lat="49.049867978319526" lon="9.296661922708154">
<ele>233.20000000000005</ele>
<time>2023-05-16T12:25:06Z</time>
</trkpt>
<trkpt lat="49.0498969797045" lon="9.296536948531866">
<ele>232.79999999999995</ele>
<time>2023-05-16T12:25:07Z</time>
</trkpt>
<trkpt lat="49.04991994611919" lon="9.296409962698817">
<ele>232.60000000000002</ele>
<time>2023-05-16T12:25:08Z</time>
</trkpt>
<trkpt lat="49.04994199052453" lon="9.296279959380627">
<ele>232.20000000000005</ele>
<time>2023-05-16T12:25:09Z</time>
</trkpt>
<trkpt lat="49.04995799995959" lon="9.296144926920533">
<ele>231.79999999999995</ele>
<time>2023-05-16T12:25:10Z</time>
</trkpt>
<trkpt lat="49.04997291974723" lon="9.295996986329556">
<ele>231.39999999999998</ele>
<time>2023-05-16T12:25:11Z</time>
</trkpt>
<trkpt lat="49.04998792335391" lon="9.295864971354604">
<ele>230.79999999999995</ele>
<time>2023-05-16T12:25:12Z</time>
</trkpt>
<trkpt lat="49.04999999329448" lon="9.295711917802691">
<ele>230.20000000000005</ele>
<time>2023-05-16T12:25:13Z</time>
</trkpt>
<trkpt lat="49.05000493861735" lon="9.295561965554953">
<ele>229.79999999999995</ele>
<time>2023-05-16T12:25:14Z</time>
</trkpt>
<trkpt lat="49.05000996775925" lon="9.295416958630085">
<ele>229.20000000000005</ele>
<time>2023-05-16T12:25:15Z</time>
</trkpt>
<trkpt lat="49.05000996775925" lon="9.295264994725585">
<ele>228.60000000000002</ele>
<time>2023-05-16T12:25:16Z</time>
</trkpt>
<trkpt lat="49.05001298524439" lon="9.295149995014071">
<ele>228.20000000000005</ele>
<time>2023-05-16T12:25:17Z</time>
</trkpt>
<trkpt lat="49.05001298524439" lon="9.295006999745965">
<ele>227.79999999999995</ele>
<time>2023-05-16T12:25:18Z</time>
</trkpt>
<trkpt lat="49.05000292696059" lon="9.29486995562911">
<ele>227.20000000000005</ele>
<time>2023-05-16T12:25:19Z</time>
</trkpt>
<trkpt lat="49.04998993501067" lon="9.294721931219101">
<ele>226.79999999999995</ele>
<time>2023-05-16T12:25:20Z</time>
</trkpt>
<trkpt lat="49.0499799605459" lon="9.29458991624415">
<ele>226.39999999999998</ele>
<time>2023-05-16T12:25:21Z</time>
</trkpt>
<trkpt lat="49.04996294528246" lon="9.294452955946326">
<ele>226</ele>
<time>2023-05-16T12:25:22Z</time>
</trkpt>
<trkpt lat="49.049952970817685" lon="9.29430996067822">
<ele>225.60000000000002</ele>
<time>2023-05-16T12:25:23Z</time>
</trkpt>
<trkpt lat="49.04993696138263" lon="9.294174928218126">
<ele>225.20000000000005</ele>
<time>2023-05-16T12:25:24Z</time>
</trkpt>
<trkpt lat="49.04991994611919" lon="9.294042997062206">
<ele>224.79999999999995</ele>
<time>2023-05-16T12:25:25Z</time>
</trkpt>
<trkpt lat="49.04990293085575" lon="9.293909976258874">
<ele>224.39999999999998</ele>
<time>2023-05-16T12:25:26Z</time>
</trkpt>
<trkpt lat="49.04988692142069" lon="9.293782990425825">
<ele>224</ele>
<time>2023-05-16T12:25:27Z</time>
</trkpt>
<trkpt lat="49.049867978319526" lon="9.293654998764396">
<ele>223.39999999999998</ele>
<time>2023-05-16T12:25:28Z</time>
</trkpt>
<trkpt lat="49.04984995722771" lon="9.293532958254218">
<ele>223</ele>
<time>2023-05-16T12:25:29Z</time>
</trkpt>
<trkpt lat="49.04983193613589" lon="9.293414941057563">
<ele>222.60000000000002</ele>
<time>2023-05-16T12:25:30Z</time>
</trkpt>
<trkpt lat="49.04981299303472" lon="9.293296923860908">
<ele>222.39999999999998</ele>
<time>2023-05-16T12:25:31Z</time>
</trkpt>
<trkpt lat="49.04979798942804" lon="9.293186953291297">
<ele>222</ele>
<time>2023-05-16T12:25:32Z</time>
</trkpt>
<trkpt lat="49.049782985821366" lon="9.293076982721686">
<ele>221.79999999999995</ele>
<time>2023-05-16T12:25:33Z</time>
</trkpt>
<trkpt lat="49.04977192170918" lon="9.292967934161425">
<ele>221.39999999999998</ele>
<time>2023-05-16T12:25:34Z</time>
</trkpt>
<trkpt lat="49.04975792393088" lon="9.292857963591814">
<ele>221.20000000000005</ele>
<time>2023-05-16T12:25:35Z</time>
</trkpt>
<trkpt lat="49.049742920324206" lon="9.292751932516694">
<ele>221</ele>
<time>2023-05-16T12:25:36Z</time>
</trkpt>
<trkpt lat="49.04972992837429" lon="9.292644979432225">
<ele>220.60000000000002</ele>
<time>2023-05-16T12:25:37Z</time>
</trkpt>
<trkpt lat="49.04972196556628" lon="9.292537942528725">
<ele>220.39999999999998</ele>
<time>2023-05-16T12:25:38Z</time>
</trkpt>
<trkpt lat="49.049716936424375" lon="9.292431995272636">
<ele>220.20000000000005</ele>
<time>2023-05-16T12:25:39Z</time>
</trkpt>
<trkpt lat="49.04970997944474" lon="9.292326970025897">
<ele>220</ele>
<time>2023-05-16T12:25:40Z</time>
</trkpt>
<trkpt lat="49.049699921160936" lon="9.292219933122396">
<ele>220</ele>
<time>2023-05-16T12:25:41Z</time>
</trkpt>
<trkpt lat="49.049692964181304" lon="9.292114991694689">
<ele>219.79999999999995</ele>
<time>2023-05-16T12:25:42Z</time>
</trkpt>
<trkpt lat="49.04968692921102" lon="9.29200996644795">
<ele>219.60000000000002</ele>
<time>2023-05-16T12:25:43Z</time>
</trkpt>
<trkpt lat="49.04967997223139" lon="9.29190494120121">
<ele>219.60000000000002</ele>
<time>2023-05-16T12:25:44Z</time>
</trkpt>
<trkpt lat="49.049674943089485" lon="9.291801927611232">
<ele>219.39999999999998</ele>
<time>2023-05-16T12:25:45Z</time>
</trkpt>
<trkpt lat="49.04967192560434" lon="9.291697992011905">
<ele>219.20000000000005</ele>
<time>2023-05-16T12:25:46Z</time>
</trkpt>
<trkpt lat="49.04967192560434" lon="9.291596990078688">
<ele>219</ele>
<time>2023-05-16T12:25:47Z</time>
</trkpt>
<trkpt lat="49.04966798610985" lon="9.291496993973851">
<ele>219</ele>
<time>2023-05-16T12:25:48Z</time>
</trkpt>
<trkpt lat="49.04966295696795" lon="9.291396997869015">
<ele>218.79999999999995</ele>
<time>2023-05-16T12:25:49Z</time>
</trkpt>
<trkpt lat="49.04966195113957" lon="9.291296917945147">
<ele>218.60000000000002</ele>
<time>2023-05-16T12:25:50Z</time>
</trkpt>
<trkpt lat="49.04965993948281" lon="9.291201950982213">
<ele>218.60000000000002</ele>
<time>2023-05-16T12:25:51Z</time>
</trkpt>
<trkpt lat="49.04965792782605" lon="9.29110698401928">
<ele>218.39999999999998</ele>
<time>2023-05-16T12:25:52Z</time>
</trkpt>
<trkpt lat="49.04965792782605" lon="9.291012939065695">
<ele>218.39999999999998</ele>
<time>2023-05-16T12:25:53Z</time>
</trkpt>
<trkpt lat="49.04965993948281" lon="9.290921995416284">
<ele>218.20000000000005</ele>
<time>2023-05-16T12:25:54Z</time>
</trkpt>
<trkpt lat="49.04966295696795" lon="9.290831973776221">
<ele>218.20000000000005</ele>
<time>2023-05-16T12:25:55Z</time>
</trkpt>
<trkpt lat="49.04966295696795" lon="9.290737928822637">
<ele>218</ele>
<time>2023-05-16T12:25:56Z</time>
</trkpt>
<trkpt lat="49.04966195113957" lon="9.290646985173225">
<ele>218</ele>
<time>2023-05-16T12:25:57Z</time>
</trkpt>
<trkpt lat="49.04966496862471" lon="9.290554951876402">
<ele>218</ele>
<time>2023-05-16T12:25:58Z</time>
</trkpt>
<trkpt lat="49.04966798610985" lon="9.290462918579578">
<ele>218</ele>
<time>2023-05-16T12:25:59Z</time>
</trkpt>
<trkpt lat="49.049674943089485" lon="9.290367951616645">
<ele>218</ele>
<time>2023-05-16T12:26:00Z</time>
</trkpt>
<trkpt lat="49.04968198388815" lon="9.290274996310472">
<ele>218</ele>
<time>2023-05-16T12:26:01Z</time>
</trkpt>
<trkpt lat="49.04968994669616" lon="9.290181957185268">
<ele>217.79999999999995</ele>
<time>2023-05-16T12:26:02Z</time>
</trkpt>
<trkpt lat="49.04969799332321" lon="9.290082966908813">
<ele>217.79999999999995</ele>
<time>2023-05-16T12:26:03Z</time>
</trkpt>
<trkpt lat="49.0497069619596" lon="9.289987999945879">
<ele>217.79999999999995</ele>
<time>2023-05-16T12:26:04Z</time>
</trkpt>
<trkpt lat="49.049716936424375" lon="9.289892949163914">
<ele>217.79999999999995</ele>
<time>2023-05-16T12:26:05Z</time>
</trkpt>
<trkpt lat="49.04972699470818" lon="9.28979798220098">
<ele>217.79999999999995</ele>
<time>2023-05-16T12:26:06Z</time>
</trkpt>
<trkpt lat="49.04973294585943" lon="9.289704943075776">
<ele>217.79999999999995</ele>
<time>2023-05-16T12:26:07Z</time>
</trkpt>
<trkpt lat="49.04974199831486" lon="9.289611987769604">
<ele>217.79999999999995</ele>
<time>2023-05-16T12:26:08Z</time>
</trkpt>
<trkpt lat="49.04975197277963" lon="9.289517942816019">
<ele>217.79999999999995</ele>
<time>2023-05-16T12:26:09Z</time>
</trkpt>
<trkpt lat="49.049762953072786" lon="9.289426999166608">
<ele>217.60000000000002</ele>
<time>2023-05-16T12:26:10Z</time>
</trkpt>
<trkpt lat="49.04977695085108" lon="9.289334965869784">
<ele>217.60000000000002</ele>
<time>2023-05-16T12:26:11Z</time>
</trkpt>
<trkpt lat="49.049789942801" lon="9.28924293257296">
<ele>217.39999999999998</ele>
<time>2023-05-16T12:26:12Z</time>
</trkpt>
<trkpt lat="49.04979991726577" lon="9.289149977266788">
<ele>217.20000000000005</ele>
<time>2023-05-16T12:26:13Z</time>
</trkpt>
<trkpt lat="49.04981198720634" lon="9.289056938141584">
<ele>217.20000000000005</ele>
<time>2023-05-16T12:26:14Z</time>
</trkpt>
<trkpt lat="49.049824979156256" lon="9.288964988663793">
<ele>217</ele>
<time>2023-05-16T12:26:15Z</time>
</trkpt>
<trkpt lat="49.04983797110617" lon="9.288871949538589">
<ele>217</ele>
<time>2023-05-16T12:26:16Z</time>
</trkpt>
<trkpt lat="49.04985196888447" lon="9.288782933726907">
<ele>216.79999999999995</ele>
<time>2023-05-16T12:26:17Z</time>
</trkpt>
<trkpt lat="49.049867978319526" lon="9.288696935400367">
<ele>216.79999999999995</ele>
<time>2023-05-16T12:26:18Z</time>
</trkpt>
<trkpt lat="49.049884993582964" lon="9.288611942902207">
<ele>216.60000000000002</ele>
<time>2023-05-16T12:26:19Z</time>
</trkpt>
<trkpt lat="49.04989999718964" lon="9.288531979545951">
<ele>216.39999999999998</ele>
<time>2023-05-16T12:26:20Z</time>
</trkpt>
<trkpt lat="49.04991298913956" lon="9.288452938199043">
<ele>216.39999999999998</ele>
<time>2023-05-16T12:26:21Z</time>
</trkpt>
<trkpt lat="49.04992698691785" lon="9.288374986499548">
<ele>216.20000000000005</ele>
<time>2023-05-16T12:26:22Z</time>
</trkpt>
<trkpt lat="49.04993997886777" lon="9.288299968466163">
<ele>216.20000000000005</ele>
<time>2023-05-16T12:26:23Z</time>
</trkpt>
<trkpt lat="49.049952970817685" lon="9.288224950432777">
<ele>216</ele>
<time>2023-05-16T12:26:24Z</time>
</trkpt>
<trkpt lat="49.04996797442436" lon="9.288149932399392">
<ele>216.20000000000005</ele>
<time>2023-05-16T12:26:25Z</time>
</trkpt>
<trkpt lat="49.04998297803104" lon="9.288069969043136">
<ele>216.20000000000005</ele>
<time>2023-05-16T12:26:26Z</time>
</trkpt>
<trkpt lat="49.049997981637716" lon="9.287987994030118">
<ele>216.20000000000005</ele>
<time>2023-05-16T12:26:27Z</time>
</trkpt>
<trkpt lat="49.050014996901155" lon="9.287902917712927">
<ele>216</ele>
<time>2023-05-16T12:26:28Z</time>
</trkpt>
<trkpt lat="49.05003293417394" lon="9.287814991548657">
<ele>216</ele>
<time>2023-05-16T12:26:29Z</time>
</trkpt>
<trkpt lat="49.05005296692252" lon="9.287724969908595">
<ele>215.79999999999995</ele>
<time>2023-05-16T12:26:30Z</time>
</trkpt>
<trkpt lat="49.05007693916559" lon="9.287631930783391">
<ele>215.60000000000002</ele>
<time>2023-05-16T12:26:31Z</time>
</trkpt>
<trkpt lat="49.050106946378946" lon="9.28754199296236">
<ele>215.60000000000002</ele>
<time>2023-05-16T12:26:32Z</time>
</trkpt>
<trkpt lat="49.0501369535923" lon="9.287449959665537">
<ele>215.39999999999998</ele>
<time>2023-05-16T12:26:33Z</time>
</trkpt>
<trkpt lat="49.050169978290796" lon="9.287356920540333">
<ele>215.20000000000005</ele>
<time>2023-05-16T12:26:34Z</time>
</trkpt>
<trkpt lat="49.05020291917026" lon="9.287264971062541">
<ele>215</ele>
<time>2023-05-16T12:26:35Z</time>
</trkpt>
<trkpt lat="49.05023795552552" lon="9.287174949422479">
<ele>214.79999999999995</ele>
<time>2023-05-16T12:26:36Z</time>
</trkpt>
<trkpt lat="49.05026997439563" lon="9.287082999944687">
<ele>214.79999999999995</ele>
<time>2023-05-16T12:26:37Z</time>
</trkpt>
<trkpt lat="49.05030299909413" lon="9.286991972476244">
<ele>214.60000000000002</ele>
<time>2023-05-16T12:26:38Z</time>
</trkpt>
<trkpt lat="49.05033694580197" lon="9.286901950836182">
<ele>214.39999999999998</ele>
<time>2023-05-16T12:26:39Z</time>
</trkpt>
<trkpt lat="49.05036795884371" lon="9.2868129350245">
<ele>214.20000000000005</ele>
<time>2023-05-16T12:26:40Z</time>
</trkpt>
<trkpt lat="49.050401989370584" lon="9.286724925041199">
<ele>214</ele>
<time>2023-05-16T12:26:41Z</time>
</trkpt>
<trkpt lat="49.05043493025005" lon="9.286634987220168">
<ele>213.79999999999995</ele>
<time>2023-05-16T12:26:42Z</time>
</trkpt>
<trkpt lat="49.050467954948545" lon="9.286546977236867">
<ele>213.60000000000002</ele>
<time>2023-05-16T12:26:43Z</time>
</trkpt>
<trkpt lat="49.0505029913038" lon="9.286459973081946">
<ele>213.39999999999998</ele>
<time>2023-05-16T12:26:44Z</time>
</trkpt>
<trkpt lat="49.050536938011646" lon="9.286374980583787">
<ele>213.20000000000005</ele>
<time>2023-05-16T12:26:45Z</time>
</trkpt>
<trkpt lat="49.05056795105338" lon="9.286287976428866">
<ele>213</ele>
<time>2023-05-16T12:26:46Z</time>
</trkpt>
<trkpt lat="49.05060198158026" lon="9.286199966445565">
<ele>212.79999999999995</ele>
<time>2023-05-16T12:26:47Z</time>
</trkpt>
<trkpt lat="49.05063492245972" lon="9.286112962290645">
<ele>212.60000000000002</ele>
<time>2023-05-16T12:26:48Z</time>
</trkpt>
<trkpt lat="49.05066694132984" lon="9.286026963964105">
<ele>212.39999999999998</ele>
<time>2023-05-16T12:26:49Z</time>
</trkpt>
<trkpt lat="49.05069795437157" lon="9.285937948152423">
<ele>212.20000000000005</ele>
<time>2023-05-16T12:26:50Z</time>
</trkpt>
<trkpt lat="49.05072997324169" lon="9.285851949825883">
<ele>212</ele>
<time>2023-05-16T12:26:51Z</time>
</trkpt>
<trkpt lat="49.0507619921118" lon="9.285766957327724">
<ele>211.79999999999995</ele>
<time>2023-05-16T12:26:52Z</time>
</trkpt>
<trkpt lat="49.050794932991266" lon="9.285681964829564">
<ele>211.60000000000002</ele>
<time>2023-05-16T12:26:53Z</time>
</trkpt>
<trkpt lat="49.05082695186138" lon="9.285594960674644">
<ele>211.39999999999998</ele>
<time>2023-05-16T12:26:54Z</time>
</trkpt>
<trkpt lat="49.05085997655988" lon="9.285511979833245">
<ele>211.20000000000005</ele>
<time>2023-05-16T12:26:55Z</time>
</trkpt>
<trkpt lat="49.05089199542999" lon="9.285431932657957">
<ele>211</ele>
<time>2023-05-16T12:26:56Z</time>
</trkpt>
<trkpt lat="49.050919990986586" lon="9.285352975130081">
<ele>211</ele>
<time>2023-05-16T12:26:57Z</time>
</trkpt>
<trkpt lat="49.05094798654318" lon="9.285274939611554">
<ele>210.79999999999995</ele>
<time>2023-05-16T12:26:58Z</time>
</trkpt>
<trkpt lat="49.05097698792815" lon="9.285194976255298">
<ele>210.79999999999995</ele>
<time>2023-05-16T12:26:59Z</time>
</trkpt>
<trkpt lat="49.051006995141506" lon="9.28511694073677">
<ele>210.60000000000002</ele>
<time>2023-05-16T12:27:00Z</time>
</trkpt>
<trkpt lat="49.05103691853583" lon="9.285039994865656">
<ele>210.60000000000002</ele>
<time>2023-05-16T12:27:01Z</time>
</trkpt>
<trkpt lat="49.05106692574918" lon="9.28496296517551">
<ele>210.39999999999998</ele>
<time>2023-05-16T12:27:02Z</time>
</trkpt>
<trkpt lat="49.051094921305776" lon="9.284886941313744">
<ele>210.20000000000005</ele>
<time>2023-05-16T12:27:03Z</time>
</trkpt>
<trkpt lat="49.05112291686237" lon="9.284804966300726">
<ele>210</ele>
<time>2023-05-16T12:27:04Z</time>
</trkpt>
<trkpt lat="49.05115191824734" lon="9.284722991287708">
<ele>209.79999999999995</ele>
<time>2023-05-16T12:27:05Z</time>
</trkpt>
<trkpt lat="49.051181925460696" lon="9.28464294411242">
<ele>209.79999999999995</ele>
<time>2023-05-16T12:27:06Z</time>
</trkpt>
<trkpt lat="49.05121293850243" lon="9.284561974927783">
<ele>209.60000000000002</ele>
<time>2023-05-16T12:27:07Z</time>
</trkpt>
<trkpt lat="49.051242945715785" lon="9.284479999914765">
<ele>209.60000000000002</ele>
<time>2023-05-16T12:27:08Z</time>
</trkpt>
<trkpt lat="49.0512749645859" lon="9.284397941082716">
<ele>209.39999999999998</ele>
<time>2023-05-16T12:27:09Z</time>
</trkpt>
<trkpt lat="49.051306983456016" lon="9.284316971898079">
<ele>209.20000000000005</ele>
<time>2023-05-16T12:27:10Z</time>
</trkpt>
<trkpt lat="49.05133992433548" lon="9.284237930551171">
<ele>209</ele>
<time>2023-05-16T12:27:11Z</time>
</trkpt>
<trkpt lat="49.05137496069074" lon="9.284157967194915">
<ele>208.79999999999995</ele>
<time>2023-05-16T12:27:12Z</time>
</trkpt>
<trkpt lat="49.05140798538923" lon="9.284077920019627">
<ele>208.60000000000002</ele>
<time>2023-05-16T12:27:13Z</time>
</trkpt>
<trkpt lat="49.05144696123898" lon="9.284001979976892">
<ele>208.20000000000005</ele>
<time>2023-05-16T12:27:14Z</time>
</trkpt>
<trkpt lat="49.051482919603586" lon="9.283924950286746">
<ele>208</ele>
<time>2023-05-16T12:27:15Z</time>
</trkpt>
<trkpt lat="49.051519967615604" lon="9.283854961395264">
<ele>207.79999999999995</ele>
<time>2023-05-16T12:27:16Z</time>
</trkpt>
<trkpt lat="49.05155693180859" lon="9.283784972503781">
<ele>207.60000000000002</ele>
<time>2023-05-16T12:27:17Z</time>
</trkpt>
<trkpt lat="49.05159196816385" lon="9.28371699526906">
<ele>207.60000000000002</ele>
<time>2023-05-16T12:27:18Z</time>
</trkpt>
<trkpt lat="49.051627926528454" lon="9.283651951700449">
<ele>207.39999999999998</ele>
<time>2023-05-16T12:27:19Z</time>
</trkpt>
<trkpt lat="49.05166296288371" lon="9.28359193727374">
<ele>207.20000000000005</ele>
<time>2023-05-16T12:27:20Z</time>
</trkpt>
<trkpt lat="49.05169699341059" lon="9.283531922847033">
<ele>206.79999999999995</ele>
<time>2023-05-16T12:27:21Z</time>
</trkpt>
<trkpt lat="49.05172993429005" lon="9.283471992239356">
<ele>206.60000000000002</ele>
<time>2023-05-16T12:27:22Z</time>
</trkpt>
<trkpt lat="49.05176497064531" lon="9.283411977812648">
<ele>206.39999999999998</ele>
<time>2023-05-16T12:27:23Z</time>
</trkpt>
<trkpt lat="49.051801934838295" lon="9.28335296921432">
<ele>206.20000000000005</ele>
<time>2023-05-16T12:27:24Z</time>
</trkpt>
<trkpt lat="49.05183797702193" lon="9.283292954787612">
<ele>206</ele>
<time>2023-05-16T12:27:25Z</time>
</trkpt>
<trkpt lat="49.05187494121492" lon="9.283234952017665">
<ele>205.79999999999995</ele>
<time>2023-05-16T12:27:26Z</time>
</trkpt>
<trkpt lat="49.05191492289305" lon="9.283177955076098">
<ele>205.79999999999995</ele>
<time>2023-05-16T12:27:27Z</time>
</trkpt>
<trkpt lat="49.05195691622794" lon="9.283122969791293">
<ele>205.60000000000002</ele>
<time>2023-05-16T12:27:28Z</time>
</trkpt>
<trkpt lat="49.0519969817251" lon="9.283066978678107">
<ele>205.39999999999998</ele>
<time>2023-05-16T12:27:29Z</time>
</trkpt>
<trkpt lat="49.052037969231606" lon="9.283014927059412">
<ele>205.39999999999998</ele>
<time>2023-05-16T12:27:30Z</time>
</trkpt>
<trkpt lat="49.052079962566495" lon="9.282961953431368">
<ele>205.20000000000005</ele>
<time>2023-05-16T12:27:31Z</time>
</trkpt>
<trkpt lat="49.052121955901384" lon="9.282909985631704">
<ele>205</ele>
<time>2023-05-16T12:27:32Z</time>
</trkpt>
<trkpt lat="49.05215799808502" lon="9.282857934013009">
<ele>204.79999999999995</ele>
<time>2023-05-16T12:27:33Z</time>
</trkpt>
<trkpt lat="49.05219496227801" lon="9.282806972041726">
<ele>204.60000000000002</ele>
<time>2023-05-16T12:27:34Z</time>
</trkpt>
<trkpt lat="49.0522229578346" lon="9.28274997510016">
<ele>204.60000000000002</ele>
<time>2023-05-16T12:27:35Z</time>
</trkpt>
<trkpt lat="49.05224299058318" lon="9.282682919874787">
<ele>204.39999999999998</ele>
<time>2023-05-16T12:27:36Z</time>
</trkpt>
<trkpt lat="49.05224693007767" lon="9.282614942640066">
<ele>204.20000000000005</ele>
<time>2023-05-16T12:27:37Z</time>
</trkpt>
<trkpt lat="49.052232932299376" lon="9.282549982890487">
<ele>204.20000000000005</ele>
<time>2023-05-16T12:27:38Z</time>
</trkpt>
<trkpt lat="49.052206948399544" lon="9.282499942928553">
<ele>204</ele>
<time>2023-05-16T12:27:39Z</time>
</trkpt>
<trkpt lat="49.05217492952943" lon="9.282462978735566">
<ele>203.79999999999995</ele>
<time>2023-05-16T12:27:40Z</time>
</trkpt>
<trkpt lat="49.052142994478345" lon="9.282432971522212">
<ele>203.79999999999995</ele>
<time>2023-05-16T12:27:41Z</time>
</trkpt>
<trkpt lat="49.05211692675948" lon="9.28240698762238">
<ele>203.60000000000002</ele>
<time>2023-05-16T12:27:42Z</time>
</trkpt>
<trkpt lat="49.052097983658314" lon="9.282372957095504">
<ele>203.60000000000002</ele>
<time>2023-05-16T12:27:43Z</time>
</trkpt>
<trkpt lat="49.05208792537451" lon="9.282331969588995">
<ele>203.60000000000002</ele>
<time>2023-05-16T12:27:44Z</time>
</trkpt>
<trkpt lat="49.05208792537451" lon="9.282289976254106">
<ele>203.39999999999998</ele>
<time>2023-05-16T12:27:45Z</time>
</trkpt>
<trkpt lat="49.05209697782993" lon="9.282247982919216">
<ele>203.39999999999998</ele>
<time>2023-05-16T12:27:46Z</time>
</trkpt>
<trkpt lat="49.05211198143661" lon="9.28221294656396">
<ele>203.39999999999998</ele>
<time>2023-05-16T12:27:47Z</time>
</trkpt>
<trkpt lat="49.05213193036616" lon="9.282176988199353">
<ele>203.39999999999998</ele>
<time>2023-05-16T12:27:48Z</time>
</trkpt>
<trkpt lat="49.05215992592275" lon="9.282144969329238">
<ele>203.39999999999998</ele>
<time>2023-05-16T12:27:49Z</time>
</trkpt>
<trkpt lat="49.05219194479287" lon="9.282122924923897">
<ele>203.39999999999998</ele>
<time>2023-05-16T12:27:50Z</time>
</trkpt>
<trkpt lat="49.05222195200622" lon="9.282109932973981">
<ele>203.20000000000005</ele>
<time>2023-05-16T12:27:51Z</time>
</trkpt>
<trkpt lat="49.052252965047956" lon="9.282102975994349">
<ele>203.20000000000005</ele>
<time>2023-05-16T12:27:52Z</time>
</trkpt>
<trkpt lat="49.05228791758418" lon="9.282109932973981">
<ele>203.20000000000005</ele>
<time>2023-05-16T12:27:53Z</time>
</trkpt>
<trkpt lat="49.05233192257583" lon="9.282121919095516">
<ele>203</ele>
<time>2023-05-16T12:27:54Z</time>
</trkpt>
<trkpt lat="49.05237198807299" lon="9.282137928530574">
<ele>203</ele>
<time>2023-05-16T12:27:55Z</time>
</trkpt>
<trkpt lat="49.05240995809436" lon="9.282154943794012">
<ele>202.79999999999995</ele>
<time>2023-05-16T12:27:56Z</time>
</trkpt>
<trkpt lat="49.052446922287345" lon="9.28217195905745">
<ele>202.79999999999995</ele>
<time>2023-05-16T12:27:57Z</time>
</trkpt>
<trkpt lat="49.052486987784505" lon="9.282184951007366">
<ele>202.60000000000002</ele>
<time>2023-05-16T12:27:58Z</time>
</trkpt>
<trkpt lat="49.05252294614911" lon="9.282189980149269">
<ele>202.60000000000002</ele>
<time>2023-05-16T12:27:59Z</time>
</trkpt>
<trkpt lat="49.05255999416113" lon="9.282182939350605">
<ele>202.60000000000002</ele>
<time>2023-05-16T12:28:00Z</time>
</trkpt>
<trkpt lat="49.05259192921221" lon="9.282159972935915">
<ele>202.60000000000002</ele>
<time>2023-05-16T12:28:01Z</time>
</trkpt>
<trkpt lat="49.05262696556747" lon="9.282116973772645">
<ele>202.60000000000002</ele>
<time>2023-05-16T12:28:02Z</time>
</trkpt>
<trkpt lat="49.052656972780824" lon="9.282072968780994">
<ele>202.60000000000002</ele>
<time>2023-05-16T12:28:03Z</time>
</trkpt>
<trkpt lat="49.05268798582256" lon="9.28202192299068">
<ele>202.60000000000002</ele>
<time>2023-05-16T12:28:04Z</time>
</trkpt>
<trkpt lat="49.05271992087364" lon="9.281962998211384">
<ele>202.60000000000002</ele>
<time>2023-05-16T12:28:05Z</time>
</trkpt>
<trkpt lat="49.05275193974376" lon="9.281904995441437">
<ele>202.60000000000002</ele>
<time>2023-05-16T12:28:06Z</time>
</trkpt>
<trkpt lat="49.05278194695711" lon="9.281839951872826">
<ele>202.60000000000002</ele>
<time>2023-05-16T12:28:07Z</time>
</trkpt>
<trkpt lat="49.05280692502856" lon="9.281777925789356">
<ele>202.60000000000002</ele>
<time>2023-05-16T12:28:08Z</time>
</trkpt>
<trkpt lat="49.052831986919045" lon="9.28172193467617">
<ele>202.39999999999998</ele>
<time>2023-05-16T12:28:09Z</time>
</trkpt>
<trkpt lat="49.05285797081888" lon="9.281662926077843">
<ele>202.39999999999998</ele>
<time>2023-05-16T12:28:10Z</time>
</trkpt>
<trkpt lat="49.05288294889033" lon="9.281606934964657">
<ele>202.39999999999998</ele>
<time>2023-05-16T12:28:11Z</time>
</trkpt>
<trkpt lat="49.05290792696178" lon="9.281546920537949">
<ele>202.39999999999998</ele>
<time>2023-05-16T12:28:12Z</time>
</trkpt>
<trkpt lat="49.05293298885226" lon="9.281486989930272">
<ele>202.20000000000005</ele>
<time>2023-05-16T12:28:13Z</time>
</trkpt>
<trkpt lat="49.05295293778181" lon="9.281432926654816">
<ele>202.20000000000005</ele>
<time>2023-05-16T12:28:14Z</time>
</trkpt>
<trkpt lat="49.05297297053039" lon="9.28137299604714">
<ele>202.20000000000005</ele>
<time>2023-05-16T12:28:15Z</time>
</trkpt>
<trkpt lat="49.0529949311167" lon="9.281306946650147">
<ele>202</ele>
<time>2023-05-16T12:28:16Z</time>
</trkpt>
<trkpt lat="49.05301697552204" lon="9.281236957758665">
<ele>202</ele>
<time>2023-05-16T12:28:17Z</time>
</trkpt>
<trkpt lat="49.05303793027997" lon="9.281169986352324">
<ele>202</ele>
<time>2023-05-16T12:28:18Z</time>
</trkpt>
<trkpt lat="49.05305796302855" lon="9.281097985804081">
<ele>201.79999999999995</ele>
<time>2023-05-16T12:28:19Z</time>
</trkpt>
<trkpt lat="49.05307497829199" lon="9.281021961942315">
<ele>201.79999999999995</ele>
<time>2023-05-16T12:28:20Z</time>
</trkpt>
<trkpt lat="49.05309492722154" lon="9.280937975272536">
<ele>201.79999999999995</ele>
<time>2023-05-16T12:28:21Z</time>
</trkpt>
<trkpt lat="49.053111942484975" lon="9.280852982774377">
<ele>201.60000000000002</ele>
<time>2023-05-16T12:28:22Z</time>
</trkpt>
<trkpt lat="49.05312795192003" lon="9.280766984447837">
<ele>201.60000000000002</ele>
<time>2023-05-16T12:28:23Z</time>
</trkpt>
<trkpt lat="49.05314697884023" lon="9.280681991949677">
<ele>201.60000000000002</ele>
<time>2023-05-16T12:28:24Z</time>
</trkpt>
<trkpt lat="49.05316499993205" lon="9.280594987794757">
<ele>201.60000000000002</ele>
<time>2023-05-16T12:28:25Z</time>
</trkpt>
<trkpt lat="49.05318193137646" lon="9.280504966154695">
<ele>201.39999999999998</ele>
<time>2023-05-16T12:28:26Z</time>
</trkpt>
<trkpt lat="49.05319492332637" lon="9.280414944514632">
<ele>201.39999999999998</ele>
<time>2023-05-16T12:28:27Z</time>
</trkpt>
<trkpt lat="49.05320992693305" lon="9.28032492287457">
<ele>201.39999999999998</ele>
<time>2023-05-16T12:28:28Z</time>
</trkpt>
<trkpt lat="49.05322493053973" lon="9.28023498505354">
<ele>201.20000000000005</ele>
<time>2023-05-16T12:28:29Z</time>
</trkpt>
<trkpt lat="49.05323792248964" lon="9.280142951756716">
<ele>201.20000000000005</ele>
<time>2023-05-16T12:28:30Z</time>
</trkpt>
<trkpt lat="49.05324999243021" lon="9.280052930116653">
<ele>201.20000000000005</ele>
<time>2023-05-16T12:28:31Z</time>
</trkpt>
<trkpt lat="49.053261978551745" lon="9.27995796315372">
<ele>201</ele>
<time>2023-05-16T12:28:32Z</time>
</trkpt>
<trkpt lat="49.0532729588449" lon="9.27987196482718">
<ele>201</ele>
<time>2023-05-16T12:28:33Z</time>
</trkpt>
<trkpt lat="49.053282933309674" lon="9.279781943187118">
<ele>200.79999999999995</ele>
<time>2023-05-16T12:28:34Z</time>
</trkpt>
<trkpt lat="49.05329793691635" lon="9.279682952910662">
<ele>200.79999999999995</ele>
<time>2023-05-16T12:28:35Z</time>
</trkpt>
<trkpt lat="49.05331495217979" lon="9.279587985947728">
<ele>200.79999999999995</ele>
<time>2023-05-16T12:28:36Z</time>
</trkpt>
<trkpt lat="49.053327944129705" lon="9.279491929337382">
<ele>200.60000000000002</ele>
<time>2023-05-16T12:28:37Z</time>
</trkpt>
<trkpt lat="49.05333791859448" lon="9.279401991516352">
<ele>200.60000000000002</ele>
<time>2023-05-16T12:28:38Z</time>
</trkpt>
<trkpt lat="49.053346971049905" lon="9.279321944341063">
<ele>200.39999999999998</ele>
<time>2023-05-16T12:28:39Z</time>
</trkpt>
<trkpt lat="49.05335694551468" lon="9.279241980984807">
<ele>200.20000000000005</ele>
<time>2023-05-16T12:28:40Z</time>
</trkpt>
<trkpt lat="49.053367925807834" lon="9.279156988486648">
<ele>200</ele>
<time>2023-05-16T12:28:41Z</time>
</trkpt>
<trkpt lat="49.05337798409164" lon="9.27907694131136">
<ele>200</ele>
<time>2023-05-16T12:28:42Z</time>
</trkpt>
<trkpt lat="49.05338292941451" lon="9.278996977955103">
<ele>199.79999999999995</ele>
<time>2023-05-16T12:28:43Z</time>
</trkpt>
<trkpt lat="49.05339298769832" lon="9.278914919123054">
<ele>199.60000000000002</ele>
<time>2023-05-16T12:28:44Z</time>
</trkpt>
<trkpt lat="49.05340497381985" lon="9.278826992958784">
<ele>199.60000000000002</ele>
<time>2023-05-16T12:28:45Z</time>
</trkpt>
<trkpt lat="49.05341695994139" lon="9.278741916641593">
<ele>199.60000000000002</ele>
<time>2023-05-16T12:28:46Z</time>
</trkpt>
<trkpt lat="49.053431963548064" lon="9.278651978820562">
<ele>199.60000000000002</ele>
<time>2023-05-16T12:28:47Z</time>
</trkpt>
<trkpt lat="49.05344193801284" lon="9.278564974665642">
<ele>199.60000000000002</ele>
<time>2023-05-16T12:28:48Z</time>
</trkpt>
<trkpt lat="49.05345291830599" lon="9.27847696468234">
<ele>199.60000000000002</ele>
<time>2023-05-16T12:28:49Z</time>
</trkpt>
<trkpt lat="49.05346197076142" lon="9.278387948870659">
<ele>199.60000000000002</ele>
<time>2023-05-16T12:28:50Z</time>
</trkpt>
<trkpt lat="49.05346993356943" lon="9.278299938887358">
<ele>199.60000000000002</ele>
<time>2023-05-16T12:28:51Z</time>
</trkpt>
<trkpt lat="49.053474962711334" lon="9.278207989409566">
<ele>199.60000000000002</ele>
<time>2023-05-16T12:28:52Z</time>
</trkpt>
<trkpt lat="49.05348493717611" lon="9.27811193279922">
<ele>199.60000000000002</ele>
<time>2023-05-16T12:28:53Z</time>
</trkpt>
<trkpt lat="49.05349197797477" lon="9.278019983321428">
<ele>199.60000000000002</ele>
<time>2023-05-16T12:28:54Z</time>
</trkpt>
<trkpt lat="49.053499940782785" lon="9.277929961681366">
<ele>199.60000000000002</ele>
<time>2023-05-16T12:28:55Z</time>
</trkpt>
<trkpt lat="49.05350496992469" lon="9.277836922556162">
<ele>199.60000000000002</ele>
<time>2023-05-16T12:28:56Z</time>
</trkpt>
<trkpt lat="49.05350999906659" lon="9.27774497307837">
<ele>199.60000000000002</ele>
<time>2023-05-16T12:28:57Z</time>
</trkpt>
<trkpt lat="49.05350999906659" lon="9.277654951438308">
<ele>199.60000000000002</ele>
<time>2023-05-16T12:28:58Z</time>
</trkpt>
<trkpt lat="49.05350798740983" lon="9.277561996132135">
<ele>199.60000000000002</ele>
<time>2023-05-16T12:28:59Z</time>
</trkpt>
<trkpt lat="49.05350798740983" lon="9.27746795117855">
<ele>199.60000000000002</ele>
<time>2023-05-16T12:29:00Z</time>
</trkpt>
<trkpt lat="49.05350698158145" lon="9.277376923710108">
<ele>199.60000000000002</ele>
<time>2023-05-16T12:29:01Z</time>
</trkpt>
<trkpt lat="49.05350496992469" lon="9.277286985889077">
<ele>199.60000000000002</ele>
<time>2023-05-16T12:29:02Z</time>
</trkpt>
<trkpt lat="49.053499940782785" lon="9.277196964249015">
<ele>199.39999999999998</ele>
<time>2023-05-16T12:29:03Z</time>
</trkpt>
<trkpt lat="49.05349298380315" lon="9.277109960094094">
<ele>199.39999999999998</ele>
<time>2023-05-16T12:29:04Z</time>
</trkpt>
<trkpt lat="49.05348694883287" lon="9.277027985081077">
<ele>199.39999999999998</ele>
<time>2023-05-16T12:29:05Z</time>
</trkpt>
<trkpt lat="49.05347999185324" lon="9.27694994956255">
<ele>199.39999999999998</ele>
<time>2023-05-16T12:29:06Z</time>
</trkpt>
<trkpt lat="49.05346498824656" lon="9.276874931529164">
<ele>199.39999999999998</ele>
<time>2023-05-16T12:29:07Z</time>
</trkpt>
<trkpt lat="49.05344294384122" lon="9.27680192515254">
<ele>199.39999999999998</ele>
<time>2023-05-16T12:29:08Z</time>
</trkpt>
<trkpt lat="49.05341796576977" lon="9.27673696540296">
<ele>199.39999999999998</ele>
<time>2023-05-16T12:29:09Z</time>
</trkpt>
<trkpt lat="49.05339499935508" lon="9.276677956804633">
<ele>199.39999999999998</ele>
<time>2023-05-16T12:29:10Z</time>
</trkpt>
<trkpt lat="49.05337697826326" lon="9.276621965691447">
<ele>199.39999999999998</ele>
<time>2023-05-16T12:29:11Z</time>
</trkpt>
<trkpt lat="49.05335996299982" lon="9.276561951264739">
<ele>199.39999999999998</ele>
<time>2023-05-16T12:29:12Z</time>
</trkpt>
<trkpt lat="49.05334294773638" lon="9.27649992518127">
<ele>199.39999999999998</ele>
<time>2023-05-16T12:29:13Z</time>
</trkpt>
<trkpt lat="49.053324926644564" lon="9.276436977088451">
<ele>199.39999999999998</ele>
<time>2023-05-16T12:29:14Z</time>
</trkpt>
<trkpt lat="49.05330992303789" lon="9.276374951004982">
<ele>199.39999999999998</ele>
<time>2023-05-16T12:29:15Z</time>
</trkpt>
<trkpt lat="49.05329491943121" lon="9.276311919093132">
<ele>199.39999999999998</ele>
<time>2023-05-16T12:29:16Z</time>
</trkpt>
<trkpt lat="49.053279999643564" lon="9.27624293603003">
<ele>199.39999999999998</ele>
<time>2023-05-16T12:29:17Z</time>
</trkpt>
<trkpt lat="49.05326692387462" lon="9.276169929653406">
<ele>199.39999999999998</ele>
<time>2023-05-16T12:29:18Z</time>
</trkpt>
<trkpt lat="49.05325493775308" lon="9.276096923276782">
<ele>199.39999999999998</ele>
<time>2023-05-16T12:29:19Z</time>
</trkpt>
<trkpt lat="49.05324496328831" lon="9.276029951870441">
<ele>199.39999999999998</ele>
<time>2023-05-16T12:29:20Z</time>
</trkpt>
<trkpt lat="49.05323792248964" lon="9.2759629804641">
<ele>199.39999999999998</ele>
<time>2023-05-16T12:29:21Z</time>
</trkpt>
<trkpt lat="49.05322694219649" lon="9.275892991572618">
<ele>199.39999999999998</ele>
<time>2023-05-16T12:29:22Z</time>
</trkpt>
<trkpt lat="49.05321495607495" lon="9.275821996852756">
<ele>199.39999999999998</ele>
<time>2023-05-16T12:29:23Z</time>
</trkpt>
<trkpt lat="49.05320296995342" lon="9.275754941627383">
<ele>199.39999999999998</ele>
<time>2023-05-16T12:29:24Z</time>
</trkpt>
<trkpt lat="49.05319492332637" lon="9.275686964392662">
<ele>199.39999999999998</ele>
<time>2023-05-16T12:29:25Z</time>
</trkpt>
<trkpt lat="49.05318696051836" lon="9.27561697550118">
<ele>199.39999999999998</ele>
<time>2023-05-16T12:29:26Z</time>
</trkpt>
<trkpt lat="49.05317799188197" lon="9.275542963296175">
<ele>199.60000000000002</ele>
<time>2023-05-16T12:29:27Z</time>
</trkpt>
<trkpt lat="49.05316793359816" lon="9.275474986061454">
<ele>199.60000000000002</ele>
<time>2023-05-16T12:29:28Z</time>
</trkpt>
<trkpt lat="49.05315795913339" lon="9.27540298551321">
<ele>199.60000000000002</ele>
<time>2023-05-16T12:29:29Z</time>
</trkpt>
<trkpt lat="49.05314798466861" lon="9.275331990793347">
<ele>199.60000000000002</ele>
<time>2023-05-16T12:29:30Z</time>
</trkpt>
<trkpt lat="49.05313792638481" lon="9.275256972759962">
<ele>199.60000000000002</ele>
<time>2023-05-16T12:29:31Z</time>
</trkpt>
<trkpt lat="49.05312694609165" lon="9.275179943069816">
<ele>199.79999999999995</ele>
<time>2023-05-16T12:29:32Z</time>
</trkpt>
<trkpt lat="49.053112948313355" lon="9.275106936693192">
<ele>199.79999999999995</ele>
<time>2023-05-16T12:29:33Z</time>
</trkpt>
<trkpt lat="49.05309794470668" lon="9.275027979165316">
<ele>200</ele>
<time>2023-05-16T12:29:34Z</time>
</trkpt>
<trkpt lat="49.053086964413524" lon="9.274954972788692">
<ele>200</ele>
<time>2023-05-16T12:29:35Z</time>
</trkpt>
<trkpt lat="49.05307992361486" lon="9.274882972240448">
<ele>200</ele>
<time>2023-05-16T12:29:36Z</time>
</trkpt>
<trkpt lat="49.053069949150085" lon="9.274806948378682">
<ele>200</ele>
<time>2023-05-16T12:29:37Z</time>
</trkpt>
<trkpt lat="49.05305997468531" lon="9.274729918688536">
<ele>200</ele>
<time>2023-05-16T12:29:38Z</time>
</trkpt>
<trkpt lat="49.053049916401505" lon="9.274652972817421">
<ele>200</ele>
<time>2023-05-16T12:29:39Z</time>
</trkpt>
<trkpt lat="49.05303994193673" lon="9.274576948955655">
<ele>200</ele>
<time>2023-05-16T12:29:40Z</time>
</trkpt>
<trkpt lat="49.053027955815196" lon="9.274499919265509">
<ele>200</ele>
<time>2023-05-16T12:29:41Z</time>
</trkpt>
<trkpt lat="49.05301697552204" lon="9.274421967566013">
<ele>200</ele>
<time>2023-05-16T12:29:42Z</time>
</trkpt>
<trkpt lat="49.053001971915364" lon="9.274346949532628">
<ele>200</ele>
<time>2023-05-16T12:29:43Z</time>
</trkpt>
<trkpt lat="49.052984956651926" lon="9.274272937327623">
<ele>200</ele>
<time>2023-05-16T12:29:44Z</time>
</trkpt>
<trkpt lat="49.05297196470201" lon="9.274197919294238">
<ele>200</ele>
<time>2023-05-16T12:29:45Z</time>
</trkpt>
<trkpt lat="49.05295696109533" lon="9.274121979251504">
<ele>200</ele>
<time>2023-05-16T12:29:46Z</time>
</trkpt>
<trkpt lat="49.052941957488656" lon="9.274044949561357">
<ele>200</ele>
<time>2023-05-16T12:29:47Z</time>
</trkpt>
<trkpt lat="49.05292997136712" lon="9.273974960669875">
<ele>200</ele>
<time>2023-05-16T12:29:48Z</time>
</trkpt>
<trkpt lat="49.052914967760444" lon="9.273896925151348">
<ele>200</ele>
<time>2023-05-16T12:29:49Z</time>
</trkpt>
<trkpt lat="49.052897952497005" lon="9.273816961795092">
<ele>199.79999999999995</ele>
<time>2023-05-16T12:29:50Z</time>
</trkpt>
<trkpt lat="49.05287993140519" lon="9.273736998438835">
<ele>199.79999999999995</ele>
<time>2023-05-16T12:29:51Z</time>
</trkpt>
<trkpt lat="49.05285998247564" lon="9.273657957091928">
<ele>199.60000000000002</ele>
<time>2023-05-16T12:29:52Z</time>
</trkpt>
<trkpt lat="49.05283994972706" lon="9.273584950715303">
<ele>199.60000000000002</ele>
<time>2023-05-16T12:29:53Z</time>
</trkpt>
<trkpt lat="49.05282192863524" lon="9.273507921025157">
<ele>199.39999999999998</ele>
<time>2023-05-16T12:29:54Z</time>
</trkpt>
<trkpt lat="49.05280197970569" lon="9.273432986810803">
<ele>199.39999999999998</ele>
<time>2023-05-16T12:29:55Z</time>
</trkpt>
<trkpt lat="49.052787981927395" lon="9.273356962949038">
<ele>199.20000000000005</ele>
<time>2023-05-16T12:29:56Z</time>
</trkpt>
<trkpt lat="49.05277498997748" lon="9.273279933258891">
<ele>199.20000000000005</ele>
<time>2023-05-16T12:29:57Z</time>
</trkpt>
<trkpt lat="49.05275797471404" lon="9.273202987387776">
<ele>199.20000000000005</ele>
<time>2023-05-16T12:29:58Z</time>
</trkpt>
<trkpt lat="49.05274196527898" lon="9.273122940212488">
<ele>199.20000000000005</ele>
<time>2023-05-16T12:29:59Z</time>
</trkpt>
<trkpt lat="49.052724950015545" lon="9.273042976856232">
<ele>199.20000000000005</ele>
<time>2023-05-16T12:30:00Z</time>
</trkpt>
<trkpt lat="49.05270793475211" lon="9.272964941337705">
<ele>199.20000000000005</ele>
<time>2023-05-16T12:30:01Z</time>
</trkpt>
<trkpt lat="49.05268798582256" lon="9.272884977981448">
<ele>199.20000000000005</ele>
<time>2023-05-16T12:30:02Z</time>
</trkpt>
<trkpt lat="49.0526719763875" lon="9.272806942462921">
<ele>199.20000000000005</ele>
<time>2023-05-16T12:30:03Z</time>
</trkpt>
<trkpt lat="49.052657978609204" lon="9.272726979106665">
<ele>199.20000000000005</ele>
<time>2023-05-16T12:30:04Z</time>
</trkpt>
<trkpt lat="49.05264993198216" lon="9.272642992436886">
<ele>199.20000000000005</ele>
<time>2023-05-16T12:30:05Z</time>
</trkpt>
<trkpt lat="49.05264498665929" lon="9.272559927776456">
<ele>199.20000000000005</ele>
<time>2023-05-16T12:30:06Z</time>
</trkpt>
<trkpt lat="49.052639957517385" lon="9.272472923621535">
<ele>199.20000000000005</ele>
<time>2023-05-16T12:30:07Z</time>
</trkpt>
<trkpt lat="49.05263291671872" lon="9.272386925294995">
<ele>199.20000000000005</ele>
<time>2023-05-16T12:30:08Z</time>
</trkpt>
<trkpt lat="49.05262797139585" lon="9.272299921140075">
<ele>199.20000000000005</ele>
<time>2023-05-16T12:30:09Z</time>
</trkpt>
<trkpt lat="49.05262294225395" lon="9.272214928641915">
<ele>199.20000000000005</ele>
<time>2023-05-16T12:30:10Z</time>
</trkpt>
<trkpt lat="49.05262193642557" lon="9.272131947800517">
<ele>199.20000000000005</ele>
<time>2023-05-16T12:30:11Z</time>
</trkpt>
<trkpt lat="49.052616991102695" lon="9.272046955302358">
<ele>199.20000000000005</ele>
<time>2023-05-16T12:30:12Z</time>
</trkpt>
<trkpt lat="49.05260793864727" lon="9.271957939490676">
<ele>199.20000000000005</ele>
<time>2023-05-16T12:30:13Z</time>
</trkpt>
<trkpt lat="49.05260198749602" lon="9.271869929507375">
<ele>199.20000000000005</ele>
<time>2023-05-16T12:30:14Z</time>
</trkpt>
<trkpt lat="49.05259293504059" lon="9.271782925352454">
<ele>199.20000000000005</ele>
<time>2023-05-16T12:30:15Z</time>
</trkpt>
<trkpt lat="49.05258698388934" lon="9.271697932854295">
<ele>199.20000000000005</ele>
<time>2023-05-16T12:30:16Z</time>
</trkpt>
<trkpt lat="49.052577931433916" lon="9.271612940356135">
<ele>199.20000000000005</ele>
<time>2023-05-16T12:30:17Z</time>
</trkpt>
<trkpt lat="49.052571980282664" lon="9.271529959514737">
<ele>199</ele>
<time>2023-05-16T12:30:18Z</time>
</trkpt>
<trkpt lat="49.05256292782724" lon="9.271446978673339">
<ele>199</ele>
<time>2023-05-16T12:30:19Z</time>
</trkpt>
<trkpt lat="49.052554965019226" lon="9.27136198617518">
<ele>199</ele>
<time>2023-05-16T12:30:20Z</time>
</trkpt>
<trkpt lat="49.05254691839218" lon="9.271274982020259">
<ele>199</ele>
<time>2023-05-16T12:30:21Z</time>
</trkpt>
<trkpt lat="49.05253996141255" lon="9.2711899895221">
<ele>198.79999999999995</ele>
<time>2023-05-16T12:30:22Z</time>
</trkpt>
<trkpt lat="49.052531998604536" lon="9.271111954003572">
<ele>198.79999999999995</ele>
<time>2023-05-16T12:30:23Z</time>
</trkpt>
<trkpt lat="49.05252294614911" lon="9.271034924313426">
<ele>198.79999999999995</ele>
<time>2023-05-16T12:30:24Z</time>
</trkpt>
<trkpt lat="49.05251791700721" lon="9.270962923765182">
<ele>198.60000000000002</ele>
<time>2023-05-16T12:30:25Z</time>
</trkpt>
<trkpt lat="49.05251791700721" lon="9.270896958187222">
<ele>198.60000000000002</ele>
<time>2023-05-16T12:30:26Z</time>
</trkpt>
<trkpt lat="49.0525149833411" lon="9.270831998437643">
<ele>198.60000000000002</ele>
<time>2023-05-16T12:30:27Z</time>
</trkpt>
<trkpt lat="49.052511965855956" lon="9.27076293155551">
<ele>198.39999999999998</ele>
<time>2023-05-16T12:30:28Z</time>
</trkpt>
<trkpt lat="49.0525149833411" lon="9.27069797180593">
<ele>198.39999999999998</ele>
<time>2023-05-16T12:30:29Z</time>
</trkpt>
<trkpt lat="49.05251297168434" lon="9.270632928237319">
<ele>198.39999999999998</ele>
<time>2023-05-16T12:30:30Z</time>
</trkpt>
<trkpt lat="49.052511965855956" lon="9.2705699801445">
<ele>198.39999999999998</ele>
<time>2023-05-16T12:30:31Z</time>
</trkpt>
<trkpt lat="49.05250492505729" lon="9.270501919090748">
<ele>198.39999999999998</ele>
<time>2023-05-16T12:30:32Z</time>
</trkpt>
<trkpt lat="49.05249796807766" lon="9.270432936027646">
<ele>198.39999999999998</ele>
<time>2023-05-16T12:30:33Z</time>
</trkpt>
<trkpt lat="49.052487993612885" lon="9.270364958792925">
<ele>198.60000000000002</ele>
<time>2023-05-16T12:30:34Z</time>
</trkpt>
<trkpt lat="49.0524769295007" lon="9.27028994075954">
<ele>198.60000000000002</ele>
<time>2023-05-16T12:30:35Z</time>
</trkpt>
<trkpt lat="49.052464943379164" lon="9.270214922726154">
<ele>198.60000000000002</ele>
<time>2023-05-16T12:30:36Z</time>
</trkpt>
<trkpt lat="49.05245496891439" lon="9.27013797685504">
<ele>198.60000000000002</ele>
<time>2023-05-16T12:30:37Z</time>
</trkpt>
<trkpt lat="49.052442982792854" lon="9.270061952993274">
<ele>198.60000000000002</ele>
<time>2023-05-16T12:30:38Z</time>
</trkpt>
<trkpt lat="49.05243493616581" lon="9.269984923303127">
<ele>198.60000000000002</ele>
<time>2023-05-16T12:30:39Z</time>
</trkpt>
<trkpt lat="49.0524269733578" lon="9.269906971603632">
<ele>198.60000000000002</ele>
<time>2023-05-16T12:30:40Z</time>
</trkpt>
<trkpt lat="49.05241792090237" lon="9.269829941913486">
<ele>198.60000000000002</ele>
<time>2023-05-16T12:30:41Z</time>
</trkpt>
<trkpt lat="49.05240995809436" lon="9.26975299604237">
<ele>198.60000000000002</ele>
<time>2023-05-16T12:30:42Z</time>
</trkpt>
<trkpt lat="49.052402917295694" lon="9.269681917503476">
<ele>198.60000000000002</ele>
<time>2023-05-16T12:30:43Z</time>
</trkpt>
<trkpt lat="49.05239495448768" lon="9.269607989117503">
<ele>198.60000000000002</ele>
<time>2023-05-16T12:30:44Z</time>
</trkpt>
<trkpt lat="49.05238992534578" lon="9.26953699439764">
<ele>198.60000000000002</ele>
<time>2023-05-16T12:30:45Z</time>
</trkpt>
<trkpt lat="49.05238799750805" lon="9.269467927515507">
<ele>198.60000000000002</ele>
<time>2023-05-16T12:30:46Z</time>
</trkpt>
<trkpt lat="49.05238699167967" lon="9.269402967765927">
<ele>198.60000000000002</ele>
<time>2023-05-16T12:30:47Z</time>
</trkpt>
<trkpt lat="49.05238498002291" lon="9.269337924197316">
<ele>198.60000000000002</ele>
<time>2023-05-16T12:30:48Z</time>
</trkpt>
<trkpt lat="49.052382968366146" lon="9.26927799358964">
<ele>198.60000000000002</ele>
<time>2023-05-16T12:30:49Z</time>
</trkpt>
<trkpt lat="49.052381962537766" lon="9.269219990819693">
<ele>198.60000000000002</ele>
<time>2023-05-16T12:30:50Z</time>
</trkpt>
<trkpt lat="49.052381962537766" lon="9.269161988049746">
<ele>198.60000000000002</ele>
<time>2023-05-16T12:30:51Z</time>
</trkpt>
<trkpt lat="49.05237793922424" lon="9.26910792477429">
<ele>198.60000000000002</ele>
<time>2023-05-16T12:30:52Z</time>
</trkpt>
<trkpt lat="49.05237793922424" lon="9.269056962803006">
<ele>198.60000000000002</ele>
<time>2023-05-16T12:30:53Z</time>
</trkpt>
<trkpt lat="49.052379950881004" lon="9.269004995003343">
<ele>198.60000000000002</ele>
<time>2023-05-16T12:30:54Z</time>
</trkpt>
<trkpt lat="49.052379950881004" lon="9.268954955041409">
<ele>198.60000000000002</ele>
<time>2023-05-16T12:30:55Z</time>
</trkpt>
<trkpt lat="49.052382968366146" lon="9.268902987241745">
<ele>198.60000000000002</ele>
<time>2023-05-16T12:30:56Z</time>
</trkpt>
<trkpt lat="49.052382968366146" lon="9.268856970593333">
<ele>198.60000000000002</ele>
<time>2023-05-16T12:30:57Z</time>
</trkpt>
<trkpt lat="49.05238699167967" lon="9.268816988915205">
<ele>198.60000000000002</ele>
<time>2023-05-16T12:30:58Z</time>
</trkpt>
<trkpt lat="49.05238799750805" lon="9.268774995580316">
<ele>198.60000000000002</ele>
<time>2023-05-16T12:30:59Z</time>
</trkpt>
<trkpt lat="49.05238992534578" lon="9.268732918426394">
<ele>198.60000000000002</ele>
<time>2023-05-16T12:31:00Z</time>
</trkpt>
<trkpt lat="49.05239696614444" lon="9.268696960061789">
<ele>198.79999999999995</ele>
<time>2023-05-16T12:31:01Z</time>
</trkpt>
<trkpt lat="49.05241196975112" lon="9.268662929534912">
<ele>198.79999999999995</ele>
<time>2023-05-16T12:31:02Z</time>
</trkpt>
<trkpt lat="49.05243493616581" lon="9.268639963120222">
<ele>198.79999999999995</ele>
<time>2023-05-16T12:31:03Z</time>
</trkpt>
<trkpt lat="49.0524629317224" lon="9.268626971170306">
<ele>198.79999999999995</ele>
<time>2023-05-16T12:31:04Z</time>
</trkpt>
<trkpt lat="49.05249293893576" lon="9.268624959513545">
<ele>198.79999999999995</ele>
<time>2023-05-16T12:31:05Z</time>
</trkpt>
<trkpt lat="49.05252294614911" lon="9.268627976998687">
<ele>198.79999999999995</ele>
<time>2023-05-16T12:31:06Z</time>
</trkpt>
<trkpt lat="49.052551947534084" lon="9.268637951463461">
<ele>198.79999999999995</ele>
<time>2023-05-16T12:31:07Z</time>
</trkpt>
<trkpt lat="49.05258296057582" lon="9.268649937584996">
<ele>198.79999999999995</ele>
<time>2023-05-16T12:31:08Z</time>
</trkpt>
<trkpt lat="49.05261296778917" lon="9.268661923706532">
<ele>198.79999999999995</ele>
<time>2023-05-16T12:31:09Z</time>
</trkpt>
<trkpt lat="49.05264993198216" lon="9.268676927313209">
<ele>198.79999999999995</ele>
<time>2023-05-16T12:31:10Z</time>
</trkpt>
<trkpt lat="49.05268697999418" lon="9.268691930919886">
<ele>198.79999999999995</ele>
<time>2023-05-16T12:31:11Z</time>
</trkpt>
<trkpt lat="49.05272997915745" lon="9.268702995032072">
<ele>198.79999999999995</ele>
<time>2023-05-16T12:31:12Z</time>
</trkpt>
<trkpt lat="49.05277297832072" lon="9.268711963668466">
<ele>198.79999999999995</ele>
<time>2023-05-16T12:31:13Z</time>
</trkpt>
<trkpt lat="49.05281991697848" lon="9.268719926476479">
<ele>198.79999999999995</ele>
<time>2023-05-16T12:31:14Z</time>
</trkpt>
<trkpt lat="49.05286693945527" lon="9.268726967275143">
<ele>198.60000000000002</ele>
<time>2023-05-16T12:31:15Z</time>
</trkpt>
<trkpt lat="49.05291295610368" lon="9.268736941739917">
<ele>198.60000000000002</ele>
<time>2023-05-16T12:31:16Z</time>
</trkpt>
<trkpt lat="49.052961990237236" lon="9.268746916204691">
<ele>198.60000000000002</ele>
<time>2023-05-16T12:31:17Z</time>
</trkpt>
<trkpt lat="49.05301194638014" lon="9.268754962831736">
<ele>198.60000000000002</ele>
<time>2023-05-16T12:31:18Z</time>
</trkpt>
<trkpt lat="49.05305997468531" lon="9.268761919811368">
<ele>198.39999999999998</ele>
<time>2023-05-16T12:31:19Z</time>
</trkpt>
<trkpt lat="49.05310297384858" lon="9.268766948953271">
<ele>198.39999999999998</ele>
<time>2023-05-16T12:31:20Z</time>
</trkpt>
<trkpt lat="49.053149996325374" lon="9.268772983923554">
<ele>198.20000000000005</ele>
<time>2023-05-16T12:31:21Z</time>
</trkpt>
<trkpt lat="49.053197940811515" lon="9.268777929246426">
<ele>198.20000000000005</ele>
<time>2023-05-16T12:31:22Z</time>
</trkpt>
<trkpt lat="49.05324798077345" lon="9.268782958388329">
<ele>198</ele>
<time>2023-05-16T12:31:23Z</time>
</trkpt>
<trkpt lat="49.05329693108797" lon="9.268786981701851">
<ele>197.79999999999995</ele>
<time>2023-05-16T12:31:24Z</time>
</trkpt>
<trkpt lat="49.053344959393144" lon="9.268789999186993">
<ele>197.60000000000002</ele>
<time>2023-05-16T12:31:25Z</time>
</trkpt>
<trkpt lat="49.05339298769832" lon="9.268794944509864">
<ele>197.60000000000002</ele>
<time>2023-05-16T12:31:26Z</time>
</trkpt>
<trkpt lat="49.05343992635608" lon="9.268801985308528">
<ele>197.39999999999998</ele>
<time>2023-05-16T12:31:27Z</time>
</trkpt>
<trkpt lat="49.05348493717611" lon="9.2688069306314">
<ele>197.39999999999998</ele>
<time>2023-05-16T12:31:28Z</time>
</trkpt>
<trkpt lat="49.05352793633938" lon="9.268809948116541">
<ele>197.20000000000005</ele>
<time>2023-05-16T12:31:29Z</time>
</trkpt>
<trkpt lat="49.05356992967427" lon="9.268811959773302">
<ele>197</ele>
<time>2023-05-16T12:31:30Z</time>
</trkpt>
<trkpt lat="49.053606977686286" lon="9.268809948116541">
<ele>197</ele>
<time>2023-05-16T12:31:31Z</time>
</trkpt>
<trkpt lat="49.05364293605089" lon="9.26880793645978">
<ele>196.79999999999995</ele>
<time>2023-05-16T12:31:32Z</time>
</trkpt>
<trkpt lat="49.053672943264246" lon="9.268804918974638">
<ele>196.79999999999995</ele>
<time>2023-05-16T12:31:33Z</time>
</trkpt>
<trkpt lat="49.05369993299246" lon="9.268797961995006">
<ele>196.60000000000002</ele>
<time>2023-05-16T12:31:34Z</time>
</trkpt>
<trkpt lat="49.05372298322618" lon="9.268794944509864">
<ele>196.60000000000002</ele>
<time>2023-05-16T12:31:35Z</time>
</trkpt>
<trkpt lat="49.05374494381249" lon="9.268791927024722">
<ele>196.60000000000002</ele>
<time>2023-05-16T12:31:36Z</time>
</trkpt>
<trkpt lat="49.05376497656107" lon="9.268791927024722">
<ele>196.60000000000002</ele>
<time>2023-05-16T12:31:37Z</time>
</trkpt>
<trkpt lat="49.05378794297576" lon="9.268791927024722">
<ele>196.60000000000002</ele>
<time>2023-05-16T12:31:38Z</time>
</trkpt>
<trkpt lat="49.05381199903786" lon="9.268789999186993">
<ele>196.60000000000002</ele>
<time>2023-05-16T12:31:39Z</time>
</trkpt>
<trkpt lat="49.053837982937694" lon="9.268786981701851">
<ele>196.60000000000002</ele>
<time>2023-05-16T12:31:40Z</time>
</trkpt>
<trkpt lat="49.05385298654437" lon="9.268779940903187">
<ele>196.60000000000002</ele>
<time>2023-05-16T12:31:41Z</time>
</trkpt>
<trkpt lat="49.053861955180764" lon="9.26876493729651">
<ele>196.60000000000002</ele>
<time>2023-05-16T12:31:42Z</time>
</trkpt>
<trkpt lat="49.053861955180764" lon="9.268739959225059">
<ele>196.39999999999998</ele>
<time>2023-05-16T12:31:43Z</time>
</trkpt>
<trkpt lat="49.05385692603886" lon="9.268702995032072">
<ele>196.39999999999998</ele>
<time>2023-05-16T12:31:44Z</time>
</trkpt>
<trkpt lat="49.05384795740247" lon="9.268649937584996">
<ele>196.39999999999998</ele>
<time>2023-05-16T12:31:45Z</time>
</trkpt>
<trkpt lat="49.053841922432184" lon="9.268581960350275">
<ele>196.20000000000005</ele>
<time>2023-05-16T12:31:46Z</time>
</trkpt>
<trkpt lat="49.05383697710931" lon="9.268511971458793">
<ele>195.79999999999995</ele>
<time>2023-05-16T12:31:47Z</time>
</trkpt>
<trkpt lat="49.05383295379579" lon="9.26844198256731">
<ele>195.60000000000002</ele>
<time>2023-05-16T12:31:48Z</time>
</trkpt>
<trkpt lat="49.05382792465389" lon="9.268387919291854">
<ele>195.39999999999998</ele>
<time>2023-05-16T12:31:49Z</time>
</trkpt>
<trkpt lat="49.053817950189114" lon="9.268346931785345">
<ele>195</ele>
<time>2023-05-16T12:31:50Z</time>
</trkpt>
<trkpt lat="49.053797917440534" lon="9.268324971199036">
<ele>194.79999999999995</ele>
<time>2023-05-16T12:31:51Z</time>
</trkpt>
<trkpt lat="49.05377998016775" lon="9.268284989520907">
<ele>194.60000000000002</ele>
<time>2023-05-16T12:31:52Z</time>
</trkpt>
<trkpt lat="49.053757935762405" lon="9.268231932073832">
<ele>194.60000000000002</ele>
<time>2023-05-16T12:31:53Z</time>
</trkpt>
<trkpt lat="49.05373999848962" lon="9.268216928467155">
<ele>194.39999999999998</ele>
<time>2023-05-16T12:31:54Z</time>
</trkpt>
<trkpt lat="49.053646959364414" lon="9.267956921830773">
<ele>194.39999999999998</ele>
<time>2023-05-16T12:31:55Z</time>
</trkpt>
<trkpt lat="49.05374695546925" lon="9.26786195486784">
<ele>194.39999999999998</ele>
<time>2023-05-16T12:31:56Z</time>
</trkpt>
<trkpt lat="49.05378492549062" lon="9.267761958763003">
<ele>194.39999999999998</ele>
<time>2023-05-16T12:31:57Z</time>
</trkpt>
<trkpt lat="49.05379196628928" lon="9.267681995406747">
<ele>194.60000000000002</ele>
<time>2023-05-16T12:31:58Z</time>
</trkpt>
<trkpt lat="49.053797917440534" lon="9.267614940181375">
<ele>194.60000000000002</ele>
<time>2023-05-16T12:31:59Z</time>
</trkpt>
<trkpt lat="49.05380294658244" lon="9.267554925754666">
<ele>194.60000000000002</ele>
<time>2023-05-16T12:32:00Z</time>
</trkpt>
<trkpt lat="49.0538099873811" lon="9.267499940469861">
<ele>194.60000000000002</ele>
<time>2023-05-16T12:32:01Z</time>
</trkpt>
<trkpt lat="49.05381292104721" lon="9.267442943528295">
<ele>194.60000000000002</ele>
<time>2023-05-16T12:32:02Z</time>
</trkpt>
<trkpt lat="49.05381694436073" lon="9.267384940758348">
<ele>194.60000000000002</ele>
<time>2023-05-16T12:32:03Z</time>
</trkpt>
<trkpt lat="49.053819961845875" lon="9.267331967130303">
<ele>194.60000000000002</ele>
<time>2023-05-16T12:32:04Z</time>
</trkpt>
<trkpt lat="49.05382297933102" lon="9.267277987673879">
<ele>194.60000000000002</ele>
<time>2023-05-16T12:32:05Z</time>
</trkpt>
<trkpt lat="49.05382499098778" lon="9.267227947711945">
<ele>194.60000000000002</ele>
<time>2023-05-16T12:32:06Z</time>
</trkpt>
<trkpt lat="49.05382297933102" lon="9.267169944941998">
<ele>194.79999999999995</ele>
<time>2023-05-16T12:32:07Z</time>
</trkpt>
<trkpt lat="49.05382691882551" lon="9.26710993051529">
<ele>194.79999999999995</ele>
<time>2023-05-16T12:32:08Z</time>
</trkpt>
<trkpt lat="49.05382993631065" lon="9.26704497076571">
<ele>194.79999999999995</ele>
<time>2023-05-16T12:32:09Z</time>
</trkpt>
<trkpt lat="49.05383697710931" lon="9.266979927197099">
<ele>194.79999999999995</ele>
<time>2023-05-16T12:32:10Z</time>
</trkpt>
<trkpt lat="49.053841922432184" lon="9.26691496744752">
<ele>194.79999999999995</ele>
<time>2023-05-16T12:32:11Z</time>
</trkpt>
<trkpt lat="49.053841922432184" lon="9.266847996041179">
<ele>194.79999999999995</ele>
<time>2023-05-16T12:32:12Z</time>
</trkpt>
<trkpt lat="49.05384695157409" lon="9.266777923330665">
<ele>194.79999999999995</ele>
<time>2023-05-16T12:32:13Z</time>
</trkpt>
<trkpt lat="49.05385499820113" lon="9.26670198328793">
<ele>194.79999999999995</ele>
<time>2023-05-16T12:32:14Z</time>
</trkpt>
<trkpt lat="49.053861955180764" lon="9.266624953597784">
<ele>194.79999999999995</ele>
<time>2023-05-16T12:32:15Z</time>
</trkpt>
<trkpt lat="49.05386698432267" lon="9.266546918079257">
<ele>194.79999999999995</ele>
<time>2023-05-16T12:32:16Z</time>
</trkpt>
<trkpt lat="49.05386991798878" lon="9.266472989693284">
<ele>194.79999999999995</ele>
<time>2023-05-16T12:32:17Z</time>
</trkpt>
<trkpt lat="49.05387494713068" lon="9.266397971659899">
<ele>194.79999999999995</ele>
<time>2023-05-16T12:32:18Z</time>
</trkpt>
<trkpt lat="49.05387997627258" lon="9.266324965283275">
<ele>194.79999999999995</ele>
<time>2023-05-16T12:32:19Z</time>
</trkpt>
<trkpt lat="49.053887939080596" lon="9.26625195890665">
<ele>194.79999999999995</ele>
<time>2023-05-16T12:32:20Z</time>
</trkpt>
<trkpt lat="49.05389497987926" lon="9.266174929216504">
<ele>194.79999999999995</ele>
<time>2023-05-16T12:32:21Z</time>
</trkpt>
<trkpt lat="49.05390294268727" lon="9.26609798334539">
<ele>194.79999999999995</ele>
<time>2023-05-16T12:32:22Z</time>
</trkpt>
<trkpt lat="49.05390998348594" lon="9.266021959483624">
<ele>194.79999999999995</ele>
<time>2023-05-16T12:32:23Z</time>
</trkpt>
<trkpt lat="49.05391794629395" lon="9.265944929793477">
<ele>194.79999999999995</ele>
<time>2023-05-16T12:32:24Z</time>
</trkpt>
<trkpt lat="49.053927920758724" lon="9.265872929245234">
<ele>194.79999999999995</ele>
<time>2023-05-16T12:32:25Z</time>
</trkpt>
<trkpt lat="49.05393697321415" lon="9.26580193452537">
<ele>194.79999999999995</ele>
<time>2023-05-16T12:32:26Z</time>
</trkpt>
<trkpt lat="49.053946947678924" lon="9.265726916491985">
<ele>194.79999999999995</ele>
<time>2023-05-16T12:32:27Z</time>
</trkpt>
<trkpt lat="49.05395792797208" lon="9.265651982277632">
<ele>194.79999999999995</ele>
<time>2023-05-16T12:32:28Z</time>
</trkpt>
<trkpt lat="49.053971925750375" lon="9.265571935102344">
<ele>194.79999999999995</ele>
<time>2023-05-16T12:32:29Z</time>
</trkpt>
<trkpt lat="49.05398298986256" lon="9.265497922897339">
<ele>194.79999999999995</ele>
<time>2023-05-16T12:32:30Z</time>
</trkpt>
<trkpt lat="49.0539949759841" lon="9.265421982854605">
<ele>194.79999999999995</ele>
<time>2023-05-16T12:32:31Z</time>
</trkpt>
<trkpt lat="49.05400696210563" lon="9.265342941507697">
<ele>194.79999999999995</ele>
<time>2023-05-16T12:32:32Z</time>
</trkpt>
<trkpt lat="49.05401995405555" lon="9.26526297815144">
<ele>194.79999999999995</ele>
<time>2023-05-16T12:32:33Z</time>
</trkpt>
<trkpt lat="49.054032946005464" lon="9.265181925147772">
<ele>194.79999999999995</ele>
<time>2023-05-16T12:32:34Z</time>
</trkpt>
<trkpt lat="49.0540499612689" lon="9.265102967619896">
<ele>194.60000000000002</ele>
<time>2023-05-16T12:32:35Z</time>
</trkpt>
<trkpt lat="49.05406295321882" lon="9.265024932101369">
<ele>194.60000000000002</ele>
<time>2023-05-16T12:32:36Z</time>
</trkpt>
<trkpt lat="49.054076950997114" lon="9.264947986230254">
<ele>194.60000000000002</ele>
<time>2023-05-16T12:32:37Z</time>
</trkpt>
<trkpt lat="49.05409195460379" lon="9.264872968196869">
<ele>194.39999999999998</ele>
<time>2023-05-16T12:32:38Z</time>
</trkpt>
<trkpt lat="49.05410796403885" lon="9.264801973477006">
<ele>194.39999999999998</ele>
<time>2023-05-16T12:32:39Z</time>
</trkpt>
<trkpt lat="49.054122967645526" lon="9.264727961272001">
<ele>194.39999999999998</ele>
<time>2023-05-16T12:32:40Z</time>
</trkpt>
<trkpt lat="49.0541379712522" lon="9.264651937410235">
<ele>194.39999999999998</ele>
<time>2023-05-16T12:32:41Z</time>
</trkpt>
<trkpt lat="49.0541519690305" lon="9.26457691937685">
<ele>194.39999999999998</ele>
<time>2023-05-16T12:32:42Z</time>
</trkpt>
<trkpt lat="49.05416697263718" lon="9.264499973505735">
<ele>194.39999999999998</ele>
<time>2023-05-16T12:32:43Z</time>
</trkpt>
<trkpt lat="49.054181976243854" lon="9.264426967129111">
<ele>194.39999999999998</ele>
<time>2023-05-16T12:32:44Z</time>
</trkpt>
<trkpt lat="49.05419798567891" lon="9.264351949095726">
<ele>194.39999999999998</ele>
<time>2023-05-16T12:32:45Z</time>
</trkpt>
<trkpt lat="49.05421298928559" lon="9.264279948547482">
<ele>194.39999999999998</ele>
<time>2023-05-16T12:32:46Z</time>
</trkpt>
<trkpt lat="49.054227992892265" lon="9.264206942170858">
<ele>194.39999999999998</ele>
<time>2023-05-16T12:32:47Z</time>
</trkpt>
<trkpt lat="49.05424299649894" lon="9.264131924137473">
<ele>194.39999999999998</ele>
<time>2023-05-16T12:32:48Z</time>
</trkpt>
<trkpt lat="49.05425699427724" lon="9.264062941074371">
<ele>194.39999999999998</ele>
<time>2023-05-16T12:32:49Z</time>
</trkpt>
<trkpt lat="49.054269986227155" lon="9.263992952182889">
<ele>194.39999999999998</ele>
<time>2023-05-16T12:32:50Z</time>
</trkpt>
<trkpt lat="49.05428498983383" lon="9.263921957463026">
<ele>194.39999999999998</ele>
<time>2023-05-16T12:32:51Z</time>
</trkpt>
<trkpt lat="49.05430192127824" lon="9.263849956914783">
<ele>194.39999999999998</ele>
<time>2023-05-16T12:32:52Z</time>
</trkpt>
<trkpt lat="49.05431994237006" lon="9.263777956366539">
<ele>194.39999999999998</ele>
<time>2023-05-16T12:32:53Z</time>
</trkpt>
<trkpt lat="49.054337963461876" lon="9.263702938333154">
<ele>194.39999999999998</ele>
<time>2023-05-16T12:32:54Z</time>
</trkpt>
<trkpt lat="49.05435296706855" lon="9.26362993195653">
<ele>194.39999999999998</ele>
<time>2023-05-16T12:32:55Z</time>
</trkpt>
<trkpt lat="49.05436696484685" lon="9.263551980257034">
<ele>194.39999999999998</ele>
<time>2023-05-16T12:32:56Z</time>
</trkpt>
<trkpt lat="49.05438297428191" lon="9.263476962223649">
<ele>194.39999999999998</ele>
<time>2023-05-16T12:32:57Z</time>
</trkpt>
<trkpt lat="49.054399989545345" lon="9.263401944190264">
<ele>194.39999999999998</ele>
<time>2023-05-16T12:32:58Z</time>
</trkpt>
<trkpt lat="49.05441499315202" lon="9.263326926156878">
<ele>194.39999999999998</ele>
<time>2023-05-16T12:32:59Z</time>
</trkpt>
<trkpt lat="49.05443192459643" lon="9.263251991942525">
<ele>194.39999999999998</ele>
<time>2023-05-16T12:33:00Z</time>
</trkpt>
<trkpt lat="49.054444916546345" lon="9.26317797973752">
<ele>194.20000000000005</ele>
<time>2023-05-16T12:33:01Z</time>
</trkpt>
<trkpt lat="49.054462937638164" lon="9.263106985017657">
<ele>194.20000000000005</ele>
<time>2023-05-16T12:33:02Z</time>
</trkpt>
<trkpt lat="49.0544799529016" lon="9.263036996126175">
<ele>194.20000000000005</ele>
<time>2023-05-16T12:33:03Z</time>
</trkpt>
<trkpt lat="49.05449294485152" lon="9.262964995577931">
<ele>194.20000000000005</ele>
<time>2023-05-16T12:33:04Z</time>
</trkpt>
<trkpt lat="49.05450493097305" lon="9.262897940352559">
<ele>194.20000000000005</ele>
<time>2023-05-16T12:33:05Z</time>
</trkpt>
<trkpt lat="49.05451792292297" lon="9.262826945632696">
<ele>194.20000000000005</ele>
<time>2023-05-16T12:33:06Z</time>
</trkpt>
<trkpt lat="49.054532926529646" lon="9.262756956741214">
<ele>194.20000000000005</ele>
<time>2023-05-16T12:33:07Z</time>
</trkpt>
<trkpt lat="49.054549941793084" lon="9.26268495619297">
<ele>194.20000000000005</ele>
<time>2023-05-16T12:33:08Z</time>
</trkpt>
<trkpt lat="49.05456695705652" lon="9.262614967301488">
<ele>194.20000000000005</ele>
<time>2023-05-16T12:33:09Z</time>
</trkpt>
<trkpt lat="49.05457994900644" lon="9.262544978410006">
<ele>194.20000000000005</ele>
<time>2023-05-16T12:33:10Z</time>
</trkpt>
<trkpt lat="49.054594952613115" lon="9.262476917356253">
<ele>194.20000000000005</ele>
<time>2023-05-16T12:33:11Z</time>
</trkpt>
<trkpt lat="49.05460693873465" lon="9.262407934293151">
<ele>194.20000000000005</ele>
<time>2023-05-16T12:33:12Z</time>
</trkpt>
<trkpt lat="49.054617919027805" lon="9.26234196871519">
<ele>194.20000000000005</ele>
<time>2023-05-16T12:33:13Z</time>
</trkpt>
<trkpt lat="49.05462998896837" lon="9.26227692514658">
<ele>194.20000000000005</ele>
<time>2023-05-16T12:33:14Z</time>
</trkpt>
<trkpt lat="49.05464499257505" lon="9.262212971225381">
<ele>194.20000000000005</ele>
<time>2023-05-16T12:33:15Z</time>
</trkpt>
<trkpt lat="49.054657984524965" lon="9.262151950970292">
<ele>194.20000000000005</ele>
<time>2023-05-16T12:33:16Z</time>
</trkpt>
<trkpt lat="49.05467198230326" lon="9.262087997049093">
<ele>194.20000000000005</ele>
<time>2023-05-16T12:33:17Z</time>
</trkpt>
<trkpt lat="49.05468698590994" lon="9.262024965137243">
<ele>194.20000000000005</ele>
<time>2023-05-16T12:33:18Z</time>
</trkpt>
<trkpt lat="49.054702995345" lon="9.261962939053774">
<ele>194.20000000000005</ele>
<time>2023-05-16T12:33:19Z</time>
</trkpt>
<trkpt lat="49.054722944274545" lon="9.261904936283827">
<ele>194.20000000000005</ele>
<time>2023-05-16T12:33:20Z</time>
</trkpt>
<trkpt lat="49.05473995953798" lon="9.261851962655783">
<ele>194.20000000000005</ele>
<time>2023-05-16T12:33:21Z</time>
</trkpt>
<trkpt lat="49.05475697480142" lon="9.26180494017899">
<ele>194.20000000000005</ele>
<time>2023-05-16T12:33:22Z</time>
</trkpt>
<trkpt lat="49.054767955094576" lon="9.26175992935896">
<ele>194.20000000000005</ele>
<time>2023-05-16T12:33:23Z</time>
</trkpt>
<trkpt lat="49.05477692373097" lon="9.261721959337592">
<ele>194.20000000000005</ele>
<time>2023-05-16T12:33:24Z</time>
</trkpt>
<trkpt lat="49.05478295870125" lon="9.261684995144606">
<ele>194.20000000000005</ele>
<time>2023-05-16T12:33:25Z</time>
</trkpt>
<trkpt lat="49.054787987843156" lon="9.261644929647446">
<ele>194.20000000000005</ele>
<time>2023-05-16T12:33:26Z</time>
</trkpt>
<trkpt lat="49.05479192733765" lon="9.261599918827415">
<ele>194.20000000000005</ele>
<time>2023-05-16T12:33:27Z</time>
</trkpt>
<trkpt lat="49.05479293316603" lon="9.261556919664145">
<ele>194.20000000000005</ele>
<time>2023-05-16T12:33:28Z</time>
</trkpt>
<trkpt lat="49.05479293316603" lon="9.26150294020772">
<ele>194.20000000000005</ele>
<time>2023-05-16T12:33:29Z</time>
</trkpt>
<trkpt lat="49.05479695647955" lon="9.261446949094534">
<ele>194.20000000000005</ele>
<time>2023-05-16T12:33:30Z</time>
</trkpt>
<trkpt lat="49.05480198562145" lon="9.261387940496206">
<ele>194.20000000000005</ele>
<time>2023-05-16T12:33:31Z</time>
</trkpt>
<trkpt lat="49.05480693094432" lon="9.261324992403388">
<ele>194.20000000000005</ele>
<time>2023-05-16T12:33:32Z</time>
</trkpt>
<trkpt lat="49.05481296591461" lon="9.261257937178016">
<ele>194.20000000000005</ele>
<time>2023-05-16T12:33:33Z</time>
</trkpt>
<trkpt lat="49.05481992289424" lon="9.261191971600056">
<ele>194.20000000000005</ele>
<time>2023-05-16T12:33:34Z</time>
</trkpt>
<trkpt lat="49.0548269636929" lon="9.261122988536954">
<ele>194.20000000000005</ele>
<time>2023-05-16T12:33:35Z</time>
</trkpt>
<trkpt lat="49.05483492650092" lon="9.261052999645472">
<ele>194.20000000000005</ele>
<time>2023-05-16T12:33:36Z</time>
</trkpt>
<trkpt lat="49.05484196729958" lon="9.260982926934958">
<ele>194.20000000000005</ele>
<time>2023-05-16T12:33:37Z</time>
</trkpt>
<trkpt lat="49.054851941764355" lon="9.260912938043475">
<ele>194.20000000000005</ele>
<time>2023-05-16T12:33:38Z</time>
</trkpt>
<trkpt lat="49.05485797673464" lon="9.260839931666851">
<ele>194</ele>
<time>2023-05-16T12:33:39Z</time>
</trkpt>
<trkpt lat="49.05486694537103" lon="9.260766925290227">
<ele>194</ele>
<time>2023-05-16T12:33:40Z</time>
</trkpt>
<trkpt lat="49.054874991998076" lon="9.260691991075873">
<ele>194</ele>
<time>2023-05-16T12:33:41Z</time>
</trkpt>
<trkpt lat="49.05488194897771" lon="9.260616973042488">
<ele>193.79999999999995</ele>
<time>2023-05-16T12:33:42Z</time>
</trkpt>
<trkpt lat="49.05488798394799" lon="9.260544972494245">
<ele>193.79999999999995</ele>
<time>2023-05-16T12:33:43Z</time>
</trkpt>
<trkpt lat="49.054894940927625" lon="9.26047196611762">
<ele>193.79999999999995</ele>
<time>2023-05-16T12:33:44Z</time>
</trkpt>
<trkpt lat="49.05490198172629" lon="9.260401977226138">
<ele>193.60000000000002</ele>
<time>2023-05-16T12:33:45Z</time>
</trkpt>
<trkpt lat="49.05490692704916" lon="9.260329976677895">
<ele>193.60000000000002</ele>
<time>2023-05-16T12:33:46Z</time>
</trkpt>
<trkpt lat="49.05490692704916" lon="9.26025697030127">
<ele>193.60000000000002</ele>
<time>2023-05-16T12:33:47Z</time>
</trkpt>
<trkpt lat="49.05490692704916" lon="9.260187987238169">
<ele>193.39999999999998</ele>
<time>2023-05-16T12:33:48Z</time>
</trkpt>
<trkpt lat="49.05490499921143" lon="9.260119926184416">
<ele>193.39999999999998</ele>
<time>2023-05-16T12:33:49Z</time>
</trkpt>
<trkpt lat="49.05490793287754" lon="9.260056978091598">
<ele>193.39999999999998</ele>
<time>2023-05-16T12:33:50Z</time>
</trkpt>
<trkpt lat="49.05491296201944" lon="9.259994952008128">
<ele>193.39999999999998</ele>
<time>2023-05-16T12:33:51Z</time>
</trkpt>
<trkpt lat="49.054917991161346" lon="9.259932925924659">
<ele>193.39999999999998</ele>
<time>2023-05-16T12:33:52Z</time>
</trkpt>
<trkpt lat="49.05492193065584" lon="9.259872995316982">
<ele>193.39999999999998</ele>
<time>2023-05-16T12:33:53Z</time>
</trkpt>
<trkpt lat="49.05492293648422" lon="9.259817926213145">
<ele>193.39999999999998</ele>
<time>2023-05-16T12:33:54Z</time>
</trkpt>
<trkpt lat="49.05492695979774" lon="9.25976193509996">
<ele>193.39999999999998</ele>
<time>2023-05-16T12:33:55Z</time>
</trkpt>
<trkpt lat="49.05492997728288" lon="9.259701920673251">
<ele>193.39999999999998</ele>
<time>2023-05-16T12:33:56Z</time>
</trkpt>
<trkpt lat="49.05493198893964" lon="9.259639978408813">
<ele>193.39999999999998</ele>
<time>2023-05-16T12:33:57Z</time>
</trkpt>
<trkpt lat="49.05492997728288" lon="9.259574934840202">
<ele>193.39999999999998</ele>
<time>2023-05-16T12:33:58Z</time>
</trkpt>
<trkpt lat="49.05492796562612" lon="9.259512992575765">
<ele>193.39999999999998</ele>
<time>2023-05-16T12:33:59Z</time>
</trkpt>
<trkpt lat="49.05492293648422" lon="9.259447949007154">
<ele>193.39999999999998</ele>
<time>2023-05-16T12:34:00Z</time>
</trkpt>
<trkpt lat="49.054919918999076" lon="9.259379971772432">
<ele>193.39999999999998</ele>
<time>2023-05-16T12:34:01Z</time>
</trkpt>
<trkpt lat="49.054919918999076" lon="9.25931291654706">
<ele>193.39999999999998</ele>
<time>2023-05-16T12:34:02Z</time>
</trkpt>
<trkpt lat="49.054919918999076" lon="9.2592469509691">
<ele>193.39999999999998</ele>
<time>2023-05-16T12:34:03Z</time>
</trkpt>
<trkpt lat="49.054917991161346" lon="9.25917997956276">
<ele>193.39999999999998</ele>
<time>2023-05-16T12:34:04Z</time>
</trkpt>
<trkpt lat="49.054916985332966" lon="9.259112924337387">
<ele>193.39999999999998</ele>
<time>2023-05-16T12:34:05Z</time>
</trkpt>
<trkpt lat="49.054916985332966" lon="9.259041929617524">
<ele>193.20000000000005</ele>
<time>2023-05-16T12:34:06Z</time>
</trkpt>
<trkpt lat="49.054916985332966" lon="9.258962972089648">
<ele>193.20000000000005</ele>
<time>2023-05-16T12:34:07Z</time>
</trkpt>
<trkpt lat="49.054917991161346" lon="9.25888292491436">
<ele>193.20000000000005</ele>
<time>2023-05-16T12:34:08Z</time>
</trkpt>
<trkpt lat="49.054916985332966" lon="9.258809918537736">
<ele>193.20000000000005</ele>
<time>2023-05-16T12:34:09Z</time>
</trkpt>
<trkpt lat="49.054914973676205" lon="9.258732972666621">
<ele>193</ele>
<time>2023-05-16T12:34:10Z</time>
</trkpt>
<trkpt lat="49.054917991161346" lon="9.258661977946758">
<ele>193</ele>
<time>2023-05-16T12:34:11Z</time>
</trkpt>
<trkpt lat="49.05492193065584" lon="9.258587965741754">
<ele>193</ele>
<time>2023-05-16T12:34:12Z</time>
</trkpt>
<trkpt lat="49.054919918999076" lon="9.258512947708368">
<ele>193</ele>
<time>2023-05-16T12:34:13Z</time>
</trkpt>
<trkpt lat="49.054916985332966" lon="9.258436923846602">
<ele>193</ele>
<time>2023-05-16T12:34:14Z</time>
</trkpt>
<trkpt lat="49.05491296201944" lon="9.258364923298359">
<ele>193</ele>
<time>2023-05-16T12:34:15Z</time>
</trkpt>
<trkpt lat="49.0549099445343" lon="9.258289989084005">
<ele>193</ele>
<time>2023-05-16T12:34:16Z</time>
</trkpt>
<trkpt lat="49.0549099445343" lon="9.258217988535762">
<ele>193</ele>
<time>2023-05-16T12:34:17Z</time>
</trkpt>
<trkpt lat="49.05490793287754" lon="9.258144982159138">
<ele>193</ele>
<time>2023-05-16T12:34:18Z</time>
</trkpt>
<trkpt lat="49.05490793287754" lon="9.258069964125752">
<ele>193</ele>
<time>2023-05-16T12:34:19Z</time>
</trkpt>
<trkpt lat="49.05490499921143" lon="9.257996957749128">
<ele>193</ele>
<time>2023-05-16T12:34:20Z</time>
</trkpt>
<trkpt lat="49.05490298755467" lon="9.257926968857646">
<ele>193</ele>
<time>2023-05-16T12:34:21Z</time>
</trkpt>
<trkpt lat="49.05489997006953" lon="9.257857985794544">
<ele>193</ele>
<time>2023-05-16T12:34:22Z</time>
</trkpt>
<trkpt lat="49.054894940927625" lon="9.257794953882694">
<ele>193</ele>
<time>2023-05-16T12:34:23Z</time>
</trkpt>
<trkpt lat="49.05489192344248" lon="9.257731921970844">
<ele>193</ele>
<time>2023-05-16T12:34:24Z</time>
</trkpt>
<trkpt lat="49.05488798394799" lon="9.257664950564504">
<ele>193</ele>
<time>2023-05-16T12:34:25Z</time>
</trkpt>
<trkpt lat="49.05488697811961" lon="9.257602924481034">
<ele>193</ele>
<time>2023-05-16T12:34:26Z</time>
</trkpt>
<trkpt lat="49.05488295480609" lon="9.257536958903074">
<ele>193</ele>
<time>2023-05-16T12:34:27Z</time>
</trkpt>
<trkpt lat="49.05488496646285" lon="9.257477950304747">
<ele>193</ele>
<time>2023-05-16T12:34:28Z</time>
</trkpt>
<trkpt lat="49.05488798394799" lon="9.257417935878038">
<ele>193</ele>
<time>2023-05-16T12:34:29Z</time>
</trkpt>
<trkpt lat="49.05488999560475" lon="9.25735792145133">
<ele>193</ele>
<time>2023-05-16T12:34:30Z</time>
</trkpt>
<trkpt lat="49.05489192344248" lon="9.257299918681383">
<ele>193</ele>
<time>2023-05-16T12:34:31Z</time>
</trkpt>
<trkpt lat="49.05488798394799" lon="9.257239988073707">
<ele>193</ele>
<time>2023-05-16T12:34:32Z</time>
</trkpt>
<trkpt lat="49.05488295480609" lon="9.257189948111773">
<ele>193</ele>
<time>2023-05-16T12:34:33Z</time>
</trkpt>
<trkpt lat="49.05487792566419" lon="9.25713999196887">
<ele>193</ele>
<time>2023-05-16T12:34:34Z</time>
</trkpt>
<trkpt lat="49.054872980341315" lon="9.257084922865033">
<ele>193</ele>
<time>2023-05-16T12:34:35Z</time>
</trkpt>
<trkpt lat="49.05486493371427" lon="9.257029937580228">
<ele>193</ele>
<time>2023-05-16T12:34:36Z</time>
</trkpt>
<trkpt lat="49.05486493371427" lon="9.256964977830648">
<ele>193</ele>
<time>2023-05-16T12:34:37Z</time>
</trkpt>
<trkpt lat="49.05486493371427" lon="9.256906975060701">
<ele>193</ele>
<time>2023-05-16T12:34:38Z</time>
</trkpt>
<trkpt lat="49.0548549592495" lon="9.256824916228652">
<ele>193</ele>
<time>2023-05-16T12:34:39Z</time>
</trkpt>
<trkpt lat="49.054852947592735" lon="9.256767919287086">
<ele>193</ele>
<time>2023-05-16T12:34:40Z</time>
</trkpt>
<trkpt lat="49.05484498478472" lon="9.256671946495771">
<ele>193</ele>
<time>2023-05-16T12:34:41Z</time>
</trkpt>
<trkpt lat="49.05483492650092" lon="9.256552923470736">
<ele>193</ele>
<time>2023-05-16T12:34:42Z</time>
</trkpt>
<trkpt lat="49.054827969521284" lon="9.25647497177124">
<ele>193</ele>
<time>2023-05-16T12:34:43Z</time>
</trkpt>
<trkpt lat="49.054821934551" lon="9.25638997927308">
<ele>193</ele>
<time>2023-05-16T12:34:44Z</time>
</trkpt>
<trkpt lat="49.05481698922813" lon="9.256304986774921">
<ele>192.79999999999995</ele>
<time>2023-05-16T12:34:45Z</time>
</trkpt>
<trkpt lat="49.05481497757137" lon="9.256231980398297">
<ele>192.79999999999995</ele>
<time>2023-05-16T12:34:46Z</time>
</trkpt>
<trkpt lat="49.05481296591461" lon="9.256147993728518">
<ele>192.79999999999995</ele>
<time>2023-05-16T12:34:47Z</time>
</trkpt>
<trkpt lat="49.05480693094432" lon="9.256064929068089">
<ele>192.79999999999995</ele>
<time>2023-05-16T12:34:48Z</time>
</trkpt>
<trkpt lat="49.05479695647955" lon="9.255984965711832">
<ele>192.79999999999995</ele>
<time>2023-05-16T12:34:49Z</time>
</trkpt>
<trkpt lat="49.054786982014775" lon="9.255911959335208">
<ele>192.79999999999995</ele>
<time>2023-05-16T12:34:50Z</time>
</trkpt>
<trkpt lat="49.05478195287287" lon="9.255836941301823">
<ele>192.79999999999995</ele>
<time>2023-05-16T12:34:51Z</time>
</trkpt>
<trkpt lat="49.05477298423648" lon="9.255752954632044">
<ele>192.79999999999995</ele>
<time>2023-05-16T12:34:52Z</time>
</trkpt>
<trkpt lat="49.05476292595267" lon="9.255674919113517">
<ele>192.79999999999995</ele>
<time>2023-05-16T12:34:53Z</time>
</trkpt>
<trkpt lat="49.0547529514879" lon="9.255591938272119">
<ele>192.79999999999995</ele>
<time>2023-05-16T12:34:54Z</time>
</trkpt>
<trkpt lat="49.054741971194744" lon="9.255514992401004">
<ele>192.79999999999995</ele>
<time>2023-05-16T12:34:55Z</time>
</trkpt>
<trkpt lat="49.05473493039608" lon="9.255436956882477">
<ele>192.79999999999995</ele>
<time>2023-05-16T12:34:56Z</time>
</trkpt>
<trkpt lat="49.05472797341645" lon="9.25535699352622">
<ele>192.79999999999995</ele>
<time>2023-05-16T12:34:57Z</time>
</trkpt>
<trkpt lat="49.05471799895167" lon="9.255277952179313">
<ele>192.79999999999995</ele>
<time>2023-05-16T12:34:58Z</time>
</trkpt>
<trkpt lat="49.05471196398139" lon="9.255199916660786">
<ele>192.79999999999995</ele>
<time>2023-05-16T12:34:59Z</time>
</trkpt>
<trkpt lat="49.054701989516616" lon="9.25511995330453">
<ele>192.79999999999995</ele>
<time>2023-05-16T12:35:00Z</time>
</trkpt>
<trkpt lat="49.05469293706119" lon="9.255046946927905">
<ele>192.79999999999995</ele>
<time>2023-05-16T12:35:01Z</time>
</trkpt>
<trkpt lat="49.05468296259642" lon="9.254969917237759">
<ele>192.79999999999995</ele>
<time>2023-05-16T12:35:02Z</time>
</trkpt>
<trkpt lat="49.05467298813164" lon="9.254889953881502">
<ele>192.79999999999995</ele>
<time>2023-05-16T12:35:03Z</time>
</trkpt>
<trkpt lat="49.054661924019456" lon="9.254812924191356">
<ele>192.79999999999995</ele>
<time>2023-05-16T12:35:04Z</time>
</trkpt>
<trkpt lat="49.05464993789792" lon="9.254736984148622">
<ele>192.79999999999995</ele>
<time>2023-05-16T12:35:05Z</time>
</trkpt>
<trkpt lat="49.054637951776385" lon="9.254662971943617">
<ele>192.79999999999995</ele>
<time>2023-05-16T12:35:06Z</time>
</trkpt>
<trkpt lat="49.05462495982647" lon="9.254589965566993">
<ele>192.79999999999995</ele>
<time>2023-05-16T12:35:07Z</time>
</trkpt>
<trkpt lat="49.054614985361695" lon="9.25451997667551">
<ele>192.79999999999995</ele>
<time>2023-05-16T12:35:08Z</time>
</trkpt>
<trkpt lat="49.05460299924016" lon="9.254449987784028">
<ele>192.79999999999995</ele>
<time>2023-05-16T12:35:09Z</time>
</trkpt>
<trkpt lat="49.054592940956354" lon="9.254376981407404">
<ele>192.79999999999995</ele>
<time>2023-05-16T12:35:10Z</time>
</trkpt>
<trkpt lat="49.05457994900644" lon="9.254297940060496">
<ele>192.79999999999995</ele>
<time>2023-05-16T12:35:11Z</time>
</trkpt>
<trkpt lat="49.0545679628849" lon="9.254219988361001">
<ele>192.79999999999995</ele>
<time>2023-05-16T12:35:12Z</time>
</trkpt>
<trkpt lat="49.05455798842013" lon="9.254146981984377">
<ele>192.79999999999995</ele>
<time>2023-05-16T12:35:13Z</time>
</trkpt>
<trkpt lat="49.05454793013632" lon="9.254076993092895">
<ele>192.79999999999995</ele>
<time>2023-05-16T12:35:14Z</time>
</trkpt>
<trkpt lat="49.05453493818641" lon="9.25400197505951">
<ele>192.79999999999995</ele>
<time>2023-05-16T12:35:15Z</time>
</trkpt>
<trkpt lat="49.05452295206487" lon="9.253927962854505">
<ele>192.79999999999995</ele>
<time>2023-05-16T12:35:16Z</time>
</trkpt>
<trkpt lat="49.054509960114956" lon="9.25385294482112">
<ele>192.60000000000002</ele>
<time>2023-05-16T12:35:17Z</time>
</trkpt>
<trkpt lat="49.05449797399342" lon="9.253784967586398">
<ele>192.60000000000002</ele>
<time>2023-05-16T12:35:18Z</time>
</trkpt>
<trkpt lat="49.054484982043505" lon="9.253716990351677">
<ele>192.60000000000002</ele>
<time>2023-05-16T12:35:19Z</time>
</trkpt>
<trkpt lat="49.05447199009359" lon="9.253647923469543">
<ele>192.60000000000002</ele>
<time>2023-05-16T12:35:20Z</time>
</trkpt>
<trkpt lat="49.05445799231529" lon="9.253579946234822">
<ele>192.60000000000002</ele>
<time>2023-05-16T12:35:21Z</time>
</trkpt>
<trkpt lat="49.054444916546345" lon="9.253512974828482">
<ele>192.60000000000002</ele>
<time>2023-05-16T12:35:22Z</time>
</trkpt>
<trkpt lat="49.05443293042481" lon="9.25344793125987">
<ele>192.60000000000002</ele>
<time>2023-05-16T12:35:23Z</time>
</trkpt>
<trkpt lat="49.054421950131655" lon="9.25338196568191">
<ele>192.60000000000002</ele>
<time>2023-05-16T12:35:24Z</time>
</trkpt>
<trkpt lat="49.05440996401012" lon="9.253307953476906">
<ele>192.39999999999998</ele>
<time>2023-05-16T12:35:25Z</time>
</trkpt>
<trkpt lat="49.0543969720602" lon="9.253237964585423">
<ele>192.39999999999998</ele>
<time>2023-05-16T12:35:26Z</time>
</trkpt>
<trkpt lat="49.05438498593867" lon="9.253169987350702">
<ele>192.39999999999998</ele>
<time>2023-05-16T12:35:27Z</time>
</trkpt>
<trkpt lat="49.05437199398875" lon="9.25310293212533">
<ele>192.39999999999998</ele>
<time>2023-05-16T12:35:28Z</time>
</trkpt>
<trkpt lat="49.054357996210456" lon="9.25303797237575">
<ele>192.39999999999998</ele>
<time>2023-05-16T12:35:29Z</time>
</trkpt>
<trkpt lat="49.05434693209827" lon="9.252971922978759">
<ele>192.39999999999998</ele>
<time>2023-05-16T12:35:30Z</time>
</trkpt>
<trkpt lat="49.05433293431997" lon="9.252901934087276">
<ele>192.39999999999998</ele>
<time>2023-05-16T12:35:31Z</time>
</trkpt>
<trkpt lat="49.054317930713296" lon="9.252829933539033">
<ele>192.39999999999998</ele>
<time>2023-05-16T12:35:32Z</time>
</trkpt>
<trkpt lat="49.05430292710662" lon="9.252756927162409">
<ele>192.39999999999998</ele>
<time>2023-05-16T12:35:33Z</time>
</trkpt>
<trkpt lat="49.0542899351567" lon="9.252681992948055">
<ele>192.39999999999998</ele>
<time>2023-05-16T12:35:34Z</time>
</trkpt>
<trkpt lat="49.054274931550026" lon="9.252604963257909">
<ele>192.39999999999998</ele>
<time>2023-05-16T12:35:35Z</time>
</trkpt>
<trkpt lat="49.05425791628659" lon="9.252526927739382">
<ele>192.39999999999998</ele>
<time>2023-05-16T12:35:36Z</time>
</trkpt>
<trkpt lat="49.05424492433667" lon="9.252452999353409">
<ele>192.39999999999998</ele>
<time>2023-05-16T12:35:37Z</time>
</trkpt>
<trkpt lat="49.05423293821514" lon="9.252384938299656">
<ele>192.39999999999998</ele>
<time>2023-05-16T12:35:38Z</time>
</trkpt>
<trkpt lat="49.05422296375036" lon="9.252316961064935">
<ele>192.39999999999998</ele>
<time>2023-05-16T12:35:39Z</time>
</trkpt>
<trkpt lat="49.05421198345721" lon="9.252246972173452">
<ele>192.39999999999998</ele>
<time>2023-05-16T12:35:40Z</time>
</trkpt>
<trkpt lat="49.0542019251734" lon="9.25217698328197">
<ele>192.39999999999998</ele>
<time>2023-05-16T12:35:41Z</time>
</trkpt>
<trkpt lat="49.05419195070863" lon="9.252111939713359">
<ele>192.39999999999998</ele>
<time>2023-05-16T12:35:42Z</time>
</trkpt>
<trkpt lat="49.054182982072234" lon="9.252052931115031">
<ele>192.39999999999998</ele>
<time>2023-05-16T12:35:43Z</time>
</trkpt>
<trkpt lat="49.05417694710195" lon="9.251994928345084">
<ele>192.39999999999998</ele>
<time>2023-05-16T12:35:44Z</time>
</trkpt>
<trkpt lat="49.05417191796005" lon="9.251939943060279">
<ele>192.39999999999998</ele>
<time>2023-05-16T12:35:45Z</time>
</trkpt>
<trkpt lat="49.05416697263718" lon="9.251886969432235">
<ele>192.39999999999998</ele>
<time>2023-05-16T12:35:46Z</time>
</trkpt>
<trkpt lat="49.05415792018175" lon="9.251839946955442">
<ele>192.60000000000002</ele>
<time>2023-05-16T12:35:47Z</time>
</trkpt>
<trkpt lat="49.054141994565725" lon="9.251799965277314">
<ele>192.60000000000002</ele>
<time>2023-05-16T12:35:48Z</time>
</trkpt>
<trkpt lat="49.05412799678743" lon="9.251781944185495">
<ele>192.60000000000002</ele>
<time>2023-05-16T12:35:49Z</time>
</trkpt>
<trkpt lat="49.05410494655371" lon="9.251772975549102">
<ele>192.60000000000002</ele>
<time>2023-05-16T12:35:50Z</time>
</trkpt>
<trkpt lat="49.054079968482256" lon="9.251774987205863">
<ele>192.60000000000002</ele>
<time>2023-05-16T12:35:51Z</time>
</trkpt>
<trkpt lat="49.054054990410805" lon="9.25178999081254">
<ele>192.60000000000002</ele>
<time>2023-05-16T12:35:52Z</time>
</trkpt>
<trkpt lat="49.05403194017708" lon="9.25181195139885">
<ele>192.79999999999995</ele>
<time>2023-05-16T12:35:53Z</time>
</trkpt>
<trkpt lat="49.05400696210563" lon="9.251822931692004">
<ele>192.79999999999995</ele>
<time>2023-05-16T12:35:54Z</time>
</trkpt>
<trkpt lat="49.05398198403418" lon="9.25181295722723">
<ele>192.79999999999995</ele>
<time>2023-05-16T12:35:55Z</time>
</trkpt>
<trkpt lat="49.05396295711398" lon="9.251786973327398">
<ele>193</ele>
<time>2023-05-16T12:35:56Z</time>
</trkpt>
<trkpt lat="49.05394493602216" lon="9.25174799747765">
<ele>193</ele>
<time>2023-05-16T12:35:57Z</time>
</trkpt>
<trkpt lat="49.053927920758724" lon="9.25170298665762">
<ele>193</ele>
<time>2023-05-16T12:35:58Z</time>
</trkpt>
<trkpt lat="49.053907971829176" lon="9.251651940867305">
<ele>193</ele>
<time>2023-05-16T12:35:59Z</time>
</trkpt>
<trkpt lat="49.05388995073736" lon="9.251594943925738">
<ele>193</ele>
<time>2023-05-16T12:36:00Z</time>
</trkpt>
<trkpt lat="49.05386991798878" lon="9.25153492949903">
<ele>193</ele>
<time>2023-05-16T12:36:01Z</time>
</trkpt>
<trkpt lat="49.05385198071599" lon="9.251479944214225">
<ele>193</ele>
<time>2023-05-16T12:36:02Z</time>
</trkpt>
<trkpt lat="49.05383194796741" lon="9.251421941444278">
<ele>193</ele>
<time>2023-05-16T12:36:03Z</time>
</trkpt>
<trkpt lat="49.05380797572434" lon="9.25136293284595">
<ele>193</ele>
<time>2023-05-16T12:36:04Z</time>
</trkpt>
<trkpt lat="49.05378693714738" lon="9.251307947561145">
<ele>193</ele>
<time>2023-05-16T12:36:05Z</time>
</trkpt>
<trkpt lat="49.05376698821783" lon="9.2512549739331">
<ele>193</ele>
<time>2023-05-16T12:36:06Z</time>
</trkpt>
<trkpt lat="49.05374997295439" lon="9.251202922314405">
<ele>192.79999999999995</ele>
<time>2023-05-16T12:36:07Z</time>
</trkpt>
<trkpt lat="49.053732957690954" lon="9.251152966171503">
<ele>192.79999999999995</ele>
<time>2023-05-16T12:36:08Z</time>
</trkpt>
<trkpt lat="49.05371996574104" lon="9.251114996150136">
<ele>192.79999999999995</ele>
<time>2023-05-16T12:36:09Z</time>
</trkpt>
<trkpt lat="49.05370496213436" lon="9.251079959794879">
<ele>192.60000000000002</ele>
<time>2023-05-16T12:36:10Z</time>
</trkpt>
<trkpt lat="49.05369498766959" lon="9.251051964238286">
<ele>192.60000000000002</ele>
<time>2023-05-16T12:36:11Z</time>
</trkpt>
<trkpt lat="49.05368694104254" lon="9.251021957024932">
<ele>192.60000000000002</ele>
<time>2023-05-16T12:36:12Z</time>
</trkpt>
<trkpt lat="49.05367797240615" lon="9.250997984781861">
<ele>192.60000000000002</ele>
<time>2023-05-16T12:36:13Z</time>
</trkpt>
<trkpt lat="49.053671937435865" lon="9.250971917062998">
<ele>192.60000000000002</ele>
<time>2023-05-16T12:36:14Z</time>
</trkpt>
<trkpt lat="49.053666992112994" lon="9.250944927334785">
<ele>192.39999999999998</ele>
<time>2023-05-16T12:36:15Z</time>
</trkpt>
<trkpt lat="49.05366296879947" lon="9.250919949263334">
<ele>192.39999999999998</ele>
<time>2023-05-16T12:36:16Z</time>
</trkpt>
<trkpt lat="49.05366196297109" lon="9.250891953706741">
<ele>192.39999999999998</ele>
<time>2023-05-16T12:36:17Z</time>
</trkpt>
<trkpt lat="49.05365793965757" lon="9.250864963978529">
<ele>192.39999999999998</ele>
<time>2023-05-16T12:36:18Z</time>
</trkpt>
<trkpt lat="49.05365492217243" lon="9.250841997563839">
<ele>192.39999999999998</ele>
<time>2023-05-16T12:36:19Z</time>
</trkpt>
<trkpt lat="49.0536529943347" lon="9.250821964815259">
<ele>192.39999999999998</ele>
<time>2023-05-16T12:36:20Z</time>
</trkpt>
<trkpt lat="49.05365198850632" lon="9.250796986743808">
<ele>192.39999999999998</ele>
<time>2023-05-16T12:36:21Z</time>
</trkpt>
<trkpt lat="49.053649976849556" lon="9.250771924853325">
<ele>192.39999999999998</ele>
<time>2023-05-16T12:36:22Z</time>
</trkpt>
<trkpt lat="49.053646959364414" lon="9.250747952610254">
<ele>192.39999999999998</ele>
<time>2023-05-16T12:36:23Z</time>
</trkpt>
<trkpt lat="49.05364193022251" lon="9.250722974538803">
<ele>192.20000000000005</ele>
<time>2023-05-16T12:36:24Z</time>
</trkpt>
<trkpt lat="49.05363497324288" lon="9.250706965103745">
<ele>192.20000000000005</ele>
<time>2023-05-16T12:36:25Z</time>
</trkpt>
<trkpt lat="49.053627932444215" lon="9.250684920698404">
<ele>192.20000000000005</ele>
<time>2023-05-16T12:36:26Z</time>
</trkpt>
<trkpt lat="49.053627932444215" lon="9.250659942626953">
<ele>192.20000000000005</ele>
<time>2023-05-16T12:36:27Z</time>
</trkpt>
<trkpt lat="49.053627932444215" lon="9.250634964555502">
<ele>192.20000000000005</ele>
<time>2023-05-16T12:36:28Z</time>
</trkpt>
<trkpt lat="49.053626926615834" lon="9.250597916543484">
<ele>192.39999999999998</ele>
<time>2023-05-16T12:36:29Z</time>
</trkpt>
<trkpt lat="49.053624998778105" lon="9.250557934865355">
<ele>192.39999999999998</ele>
<time>2023-05-16T12:36:30Z</time>
</trkpt>
<trkpt lat="49.05362198129296" lon="9.250516947358847">
<ele>192.39999999999998</ele>
<time>2023-05-16T12:36:31Z</time>
</trkpt>
<trkpt lat="49.0536199696362" lon="9.250472942367196">
<ele>192.39999999999998</ele>
<time>2023-05-16T12:36:32Z</time>
</trkpt>
<trkpt lat="49.05361695215106" lon="9.250426925718784">
<ele>192.39999999999998</ele>
<time>2023-05-16T12:36:33Z</time>
</trkpt>
<trkpt lat="49.05361695215106" lon="9.250377975404263">
<ele>192.39999999999998</ele>
<time>2023-05-16T12:36:34Z</time>
</trkpt>
<trkpt lat="49.05361695215106" lon="9.250327935442328">
<ele>192.39999999999998</ele>
<time>2023-05-16T12:36:35Z</time>
</trkpt>
<trkpt lat="49.05361795797944" lon="9.250274961814284">
<ele>192.39999999999998</ele>
<time>2023-05-16T12:36:36Z</time>
</trkpt>
<trkpt lat="49.05361795797944" lon="9.250219976529479">
<ele>192.39999999999998</ele>
<time>2023-05-16T12:36:37Z</time>
</trkpt>
<trkpt lat="49.05361292883754" lon="9.250167924910784">
<ele>192.39999999999998</ele>
<time>2023-05-16T12:36:38Z</time>
</trkpt>
<trkpt lat="49.05360999517143" lon="9.250112939625978">
<ele>192.39999999999998</ele>
<time>2023-05-16T12:36:39Z</time>
</trkpt>
<trkpt lat="49.053606977686286" lon="9.250057954341173">
<ele>192.39999999999998</ele>
<time>2023-05-16T12:36:40Z</time>
</trkpt>
<trkpt lat="49.05360194854438" lon="9.250001963227987">
<ele>192.39999999999998</ele>
<time>2023-05-16T12:36:41Z</time>
</trkpt>
<trkpt lat="49.05359993688762" lon="9.24994496628642">
<ele>192.39999999999998</ele>
<time>2023-05-16T12:36:42Z</time>
</trkpt>
<trkpt lat="49.05359792523086" lon="9.249889981001616">
<ele>192.39999999999998</ele>
<time>2023-05-16T12:36:43Z</time>
</trkpt>
<trkpt lat="49.05359993688762" lon="9.24983792938292">
<ele>192.39999999999998</ele>
<time>2023-05-16T12:36:44Z</time>
</trkpt>
<trkpt lat="49.05359691940248" lon="9.249784955754876">
<ele>192.39999999999998</ele>
<time>2023-05-16T12:36:45Z</time>
</trkpt>
<trkpt lat="49.05359297990799" lon="9.249732987955213">
<ele>192.39999999999998</ele>
<time>2023-05-16T12:36:46Z</time>
</trkpt>
<trkpt lat="49.05359197407961" lon="9.249681942164898">
<ele>192.39999999999998</ele>
<time>2023-05-16T12:36:47Z</time>
</trkpt>
<trkpt lat="49.05358996242285" lon="9.249629974365234">
<ele>192.39999999999998</ele>
<time>2023-05-16T12:36:48Z</time>
</trkpt>
<trkpt lat="49.05358795076609" lon="9.249584963545203">
<ele>192.39999999999998</ele>
<time>2023-05-16T12:36:49Z</time>
</trkpt>
<trkpt lat="49.05358795076609" lon="9.249542970210314">
<ele>192.39999999999998</ele>
<time>2023-05-16T12:36:50Z</time>
</trkpt>
<trkpt lat="49.053586944937706" lon="9.249504916369915">
<ele>192.39999999999998</ele>
<time>2023-05-16T12:36:51Z</time>
</trkpt>
<trkpt lat="49.053584933280945" lon="9.249474992975593">
<ele>192.39999999999998</ele>
<time>2023-05-16T12:36:52Z</time>
</trkpt>
<trkpt lat="49.053581999614835" lon="9.249447919428349">
<ele>192.39999999999998</ele>
<time>2023-05-16T12:36:53Z</time>
</trkpt>
<trkpt lat="49.05357294715941" lon="9.24942696467042">
<ele>192.39999999999998</ele>
<time>2023-05-16T12:36:54Z</time>
</trkpt>
<trkpt lat="49.05356699600816" lon="9.24940693192184">
<ele>192.39999999999998</ele>
<time>2023-05-16T12:36:55Z</time>
</trkpt>
<trkpt lat="49.053562972694635" lon="9.249377930536866">
<ele>192.39999999999998</ele>
<time>2023-05-16T12:36:56Z</time>
</trkpt>
<trkpt lat="49.05356699600816" lon="9.249344989657402">
<ele>192.39999999999998</ele>
<time>2023-05-16T12:36:57Z</time>
</trkpt>
<trkpt lat="49.0535649843514" lon="9.249304924160242">
<ele>192.39999999999998</ele>
<time>2023-05-16T12:36:58Z</time>
</trkpt>
<trkpt lat="49.0535649843514" lon="9.249257985502481">
<ele>192.39999999999998</ele>
<time>2023-05-16T12:36:59Z</time>
</trkpt>
<trkpt lat="49.053561966866255" lon="9.249209957197309">
<ele>192.39999999999998</ele>
<time>2023-05-16T12:37:00Z</time>
</trkpt>
<trkpt lat="49.05355693772435" lon="9.249157989397645">
<ele>192.39999999999998</ele>
<time>2023-05-16T12:37:01Z</time>
</trkpt>
<trkpt lat="49.05354796908796" lon="9.24910493195057">
<ele>192.39999999999998</ele>
<time>2023-05-16T12:37:02Z</time>
</trkpt>
<trkpt lat="49.053539922460914" lon="9.249047935009003">
<ele>192.39999999999998</ele>
<time>2023-05-16T12:37:03Z</time>
</trkpt>
<trkpt lat="49.05352994799614" lon="9.248987920582294">
<ele>192.39999999999998</ele>
<time>2023-05-16T12:37:04Z</time>
</trkpt>
<trkpt lat="49.053519973531365" lon="9.248922960832715">
<ele>192.39999999999998</ele>
<time>2023-05-16T12:37:05Z</time>
</trkpt>
<trkpt lat="49.05350798740983" lon="9.248852971941233">
<ele>192.39999999999998</ele>
<time>2023-05-16T12:37:06Z</time>
</trkpt>
<trkpt lat="49.053496923297644" lon="9.24878298304975">
<ele>192.39999999999998</ele>
<time>2023-05-16T12:37:07Z</time>
</trkpt>
<trkpt lat="49.05348292551935" lon="9.248714921995997">
<ele>192.39999999999998</ele>
<time>2023-05-16T12:37:08Z</time>
</trkpt>
<trkpt lat="49.05346792191267" lon="9.248646944761276">
<ele>192.39999999999998</ele>
<time>2023-05-16T12:37:09Z</time>
</trkpt>
<trkpt lat="49.053454929962754" lon="9.248576955869794">
<ele>192.39999999999998</ele>
<time>2023-05-16T12:37:10Z</time>
</trkpt>
<trkpt lat="49.05343799851835" lon="9.248511996120214">
<ele>192.39999999999998</ele>
<time>2023-05-16T12:37:11Z</time>
</trkpt>
<trkpt lat="49.05342198908329" lon="9.248446952551603">
<ele>192.39999999999998</ele>
<time>2023-05-16T12:37:12Z</time>
</trkpt>
<trkpt lat="49.05340497381985" lon="9.248387943953276">
<ele>192.20000000000005</ele>
<time>2023-05-16T12:37:13Z</time>
</trkpt>
<trkpt lat="49.053391981869936" lon="9.248327929526567">
<ele>192.20000000000005</ele>
<time>2023-05-16T12:37:14Z</time>
</trkpt>
<trkpt lat="49.0533799957484" lon="9.248261963948607">
<ele>192.20000000000005</ele>
<time>2023-05-16T12:37:15Z</time>
</trkpt>
<trkpt lat="49.05337295494974" lon="9.248196920379996">
<ele>192.20000000000005</ele>
<time>2023-05-16T12:37:16Z</time>
</trkpt>
<trkpt lat="49.053369937464595" lon="9.248129948973656">
<ele>192.20000000000005</ele>
<time>2023-05-16T12:37:17Z</time>
</trkpt>
<trkpt lat="49.05336197465658" lon="9.248061971738935">
<ele>192.20000000000005</ele>
<time>2023-05-16T12:37:18Z</time>
</trkpt>
<trkpt lat="49.05335493385792" lon="9.247991982847452">
<ele>192.20000000000005</ele>
<time>2023-05-16T12:37:19Z</time>
</trkpt>
<trkpt lat="49.053346971049905" lon="9.24792299978435">
<ele>192</ele>
<time>2023-05-16T12:37:20Z</time>
</trkpt>
<trkpt lat="49.05333993025124" lon="9.247856950387359">
<ele>192</ele>
<time>2023-05-16T12:37:21Z</time>
</trkpt>
<trkpt lat="49.05333699658513" lon="9.24779199063778">
<ele>192</ele>
<time>2023-05-16T12:37:22Z</time>
</trkpt>
<trkpt lat="49.05333498492837" lon="9.247724935412407">
<ele>192</ele>
<time>2023-05-16T12:37:23Z</time>
</trkpt>
<trkpt lat="49.05333791859448" lon="9.247659975662827">
<ele>192</ele>
<time>2023-05-16T12:37:24Z</time>
</trkpt>
<trkpt lat="49.053346971049905" lon="9.247589986771345">
<ele>192</ele>
<time>2023-05-16T12:37:25Z</time>
</trkpt>
<trkpt lat="49.053351916372776" lon="9.247522931545973">
<ele>192</ele>
<time>2023-05-16T12:37:26Z</time>
</trkpt>
<trkpt lat="49.05335694551468" lon="9.24745294265449">
<ele>192</ele>
<time>2023-05-16T12:37:27Z</time>
</trkpt>
<trkpt lat="49.05335493385792" lon="9.247381947934628">
<ele>192</ele>
<time>2023-05-16T12:37:28Z</time>
</trkpt>
<trkpt lat="49.05335694551468" lon="9.247309947386384">
<ele>192</ele>
<time>2023-05-16T12:37:29Z</time>
</trkpt>
<trkpt lat="49.05335493385792" lon="9.247239958494902">
<ele>192</ele>
<time>2023-05-16T12:37:30Z</time>
</trkpt>
<trkpt lat="49.05335493385792" lon="9.24717198126018">
<ele>191.79999999999995</ele>
<time>2023-05-16T12:37:31Z</time>
</trkpt>
<trkpt lat="49.053351916372776" lon="9.247112972661853">
<ele>191.79999999999995</ele>
<time>2023-05-16T12:37:32Z</time>
</trkpt>
<trkpt lat="49.053344959393144" lon="9.247044995427132">
<ele>191.79999999999995</ele>
<time>2023-05-16T12:37:33Z</time>
</trkpt>
<trkpt lat="49.05334294773638" lon="9.246976934373379">
<ele>191.79999999999995</ele>
<time>2023-05-16T12:37:34Z</time>
</trkpt>
<trkpt lat="49.05333791859448" lon="9.246914992108941">
<ele>191.79999999999995</ele>
<time>2023-05-16T12:37:35Z</time>
</trkpt>
<trkpt lat="49.05333196744323" lon="9.246862940490246">
<ele>191.79999999999995</ele>
<time>2023-05-16T12:37:36Z</time>
</trkpt>
<trkpt lat="49.053326938301325" lon="9.246809966862202">
<ele>191.79999999999995</ele>
<time>2023-05-16T12:37:37Z</time>
</trkpt>
<trkpt lat="49.053326938301325" lon="9.246754981577396">
<ele>191.79999999999995</ele>
<time>2023-05-16T12:37:38Z</time>
</trkpt>
<trkpt lat="49.05332995578647" lon="9.246709970757365">
<ele>191.79999999999995</ele>
<time>2023-05-16T12:37:39Z</time>
</trkpt>
<trkpt lat="49.05333699658513" lon="9.246662948280573">
<ele>191.79999999999995</ele>
<time>2023-05-16T12:37:40Z</time>
</trkpt>
<trkpt lat="49.05333791859448" lon="9.246607962995768">
<ele>191.79999999999995</ele>
<time>2023-05-16T12:37:41Z</time>
</trkpt>
<trkpt lat="49.05333297327161" lon="9.24654794856906">
<ele>191.79999999999995</ele>
<time>2023-05-16T12:37:42Z</time>
</trkpt>
<trkpt lat="49.053326938301325" lon="9.246492963284254">
<ele>191.79999999999995</ele>
<time>2023-05-16T12:37:43Z</time>
</trkpt>
<trkpt lat="49.05331796966493" lon="9.246431943029165">
<ele>191.79999999999995</ele>
<time>2023-05-16T12:37:44Z</time>
</trkpt>
<trkpt lat="49.05331495217979" lon="9.246374946087599">
<ele>191.79999999999995</ele>
<time>2023-05-16T12:37:45Z</time>
</trkpt>
<trkpt lat="49.05331294052303" lon="9.246319960802794">
<ele>191.79999999999995</ele>
<time>2023-05-16T12:37:46Z</time>
</trkpt>
<trkpt lat="49.05330799520016" lon="9.24626992084086">
<ele>191.79999999999995</ele>
<time>2023-05-16T12:37:47Z</time>
</trkpt>
<trkpt lat="49.05329491943121" lon="9.246222982183099">
<ele>192</ele>
<time>2023-05-16T12:37:48Z</time>
</trkpt>
<trkpt lat="49.05328796245158" lon="9.246172942221165">
<ele>192</ele>
<time>2023-05-16T12:37:49Z</time>
</trkpt>
<trkpt lat="49.05327698215842" lon="9.246124997735023">
<ele>192</ele>
<time>2023-05-16T12:37:50Z</time>
</trkpt>
<trkpt lat="49.05325694940984" lon="9.246086943894625">
<ele>192</ele>
<time>2023-05-16T12:37:51Z</time>
</trkpt>
<trkpt lat="49.05323792248964" lon="9.246029946953058">
<ele>192</ele>
<time>2023-05-16T12:37:52Z</time>
</trkpt>
<trkpt lat="49.05321495607495" lon="9.245984936133027">
<ele>192.20000000000005</ele>
<time>2023-05-16T12:37:53Z</time>
</trkpt>
<trkpt lat="49.05319198966026" lon="9.245931962504983">
<ele>192.20000000000005</ele>
<time>2023-05-16T12:37:54Z</time>
</trkpt>
<trkpt lat="49.05316793359816" lon="9.245886951684952">
<ele>192.20000000000005</ele>
<time>2023-05-16T12:37:55Z</time>
</trkpt>
<trkpt lat="49.05314295552671" lon="9.245842946693301">
<ele>192.20000000000005</ele>
<time>2023-05-16T12:37:56Z</time>
</trkpt>
<trkpt lat="49.05311998911202" lon="9.24579693004489">
<ele>192.20000000000005</ele>
<time>2023-05-16T12:37:57Z</time>
</trkpt>
<trkpt lat="49.05310498550534" lon="9.245751919224858">
<ele>192.20000000000005</ele>
<time>2023-05-16T12:37:58Z</time>
</trkpt>
<trkpt lat="49.05309199355543" lon="9.24570799805224">
<ele>192.20000000000005</ele>
<time>2023-05-16T12:37:59Z</time>
</trkpt>
<trkpt lat="49.053086964413524" lon="9.245662987232208">
<ele>192.20000000000005</ele>
<time>2023-05-16T12:38:00Z</time>
</trkpt>
<trkpt lat="49.0530829411" lon="9.245617976412177">
<ele>192.39999999999998</ele>
<time>2023-05-16T12:38:01Z</time>
</trkpt>
<trkpt lat="49.05307497829199" lon="9.245564918965101">
<ele>192.39999999999998</ele>
<time>2023-05-16T12:38:02Z</time>
</trkpt>
<trkpt lat="49.053066931664944" lon="9.245511945337057">
<ele>192.39999999999998</ele>
<time>2023-05-16T12:38:03Z</time>
</trkpt>
<trkpt lat="49.05305494554341" lon="9.245459977537394">
<ele>192.39999999999998</ele>
<time>2023-05-16T12:38:04Z</time>
</trkpt>
<trkpt lat="49.053046982735395" lon="9.24540993757546">
<ele>192.60000000000002</ele>
<time>2023-05-16T12:38:05Z</time>
</trkpt>
<trkpt lat="49.05303994193673" lon="9.245359981432557">
<ele>192.60000000000002</ele>
<time>2023-05-16T12:38:06Z</time>
</trkpt>
<trkpt lat="49.0530329849571" lon="9.245311953127384">
<ele>192.60000000000002</ele>
<time>2023-05-16T12:38:07Z</time>
</trkpt>
<trkpt lat="49.053024938330054" lon="9.245266942307353">
<ele>192.60000000000002</ele>
<time>2023-05-16T12:38:08Z</time>
</trkpt>
<trkpt lat="49.05301798135042" lon="9.245231989771128">
<ele>192.60000000000002</ele>
<time>2023-05-16T12:38:09Z</time>
</trkpt>
<trkpt lat="49.05300993472338" lon="9.245202988386154">
<ele>192.60000000000002</ele>
<time>2023-05-16T12:38:10Z</time>
</trkpt>
<trkpt lat="49.053006917238235" lon="9.245181949809194">
<ele>192.79999999999995</ele>
<time>2023-05-16T12:38:11Z</time>
</trkpt>
<trkpt lat="49.053002977743745" lon="9.245161917060614">
<ele>192.79999999999995</ele>
<time>2023-05-16T12:38:12Z</time>
</trkpt>
<trkpt lat="49.05299794860184" lon="9.245136938989162">
<ele>192.79999999999995</ele>
<time>2023-05-16T12:38:13Z</time>
</trkpt>
<trkpt lat="49.05299199745059" lon="9.245116990059614">
<ele>192.79999999999995</ele>
<time>2023-05-16T12:38:14Z</time>
</trkpt>
<trkpt lat="49.05298797413707" lon="9.245096957311034">
<ele>192.79999999999995</ele>
<time>2023-05-16T12:38:15Z</time>
</trkpt>
<trkpt lat="49.05297992751002" lon="9.245074996724725">
<ele>192.79999999999995</ele>
<time>2023-05-16T12:38:16Z</time>
</trkpt>
<trkpt lat="49.05296299606562" lon="9.245061920955777">
<ele>192.79999999999995</ele>
<time>2023-05-16T12:38:17Z</time>
</trkpt>
<trkpt lat="49.05294698663056" lon="9.245052952319384">
<ele>192.79999999999995</ele>
<time>2023-05-16T12:38:18Z</time>
</trkpt>
<trkpt lat="49.05292494222522" lon="9.245051946491003">
<ele>192.79999999999995</ele>
<time>2023-05-16T12:38:19Z</time>
</trkpt>
<trkpt lat="49.052897952497005" lon="9.245054963976145">
<ele>192.79999999999995</ele>
<time>2023-05-16T12:38:20Z</time>
</trkpt>
<trkpt lat="49.05286794528365" lon="9.245059993118048">
<ele>192.79999999999995</ele>
<time>2023-05-16T12:38:21Z</time>
</trkpt>
<trkpt lat="49.05284196138382" lon="9.245064938440919">
<ele>192.79999999999995</ele>
<time>2023-05-16T12:38:22Z</time>
</trkpt>
<trkpt lat="49.05281991697848" lon="9.24506795592606">
<ele>192.79999999999995</ele>
<time>2023-05-16T12:38:23Z</time>
</trkpt>
<trkpt lat="49.05279493890703" lon="9.24506695009768">
<ele>192.79999999999995</ele>
<time>2023-05-16T12:38:24Z</time>
</trkpt>
<trkpt lat="49.05277498997748" lon="9.245059993118048">
<ele>192.79999999999995</ele>
<time>2023-05-16T12:38:25Z</time>
</trkpt>
<trkpt lat="49.05276292003691" lon="9.24504792317748">
<ele>192.79999999999995</ele>
<time>2023-05-16T12:38:26Z</time>
</trkpt>
<trkpt lat="49.052749928086996" lon="9.245027974247932">
<ele>192.79999999999995</ele>
<time>2023-05-16T12:38:27Z</time>
</trkpt>
<trkpt lat="49.052744982764125" lon="9.244994949549437">
<ele>193</ele>
<time>2023-05-16T12:38:28Z</time>
</trkpt>
<trkpt lat="49.05273794196546" lon="9.244947927072644">
<ele>193</ele>
<time>2023-05-16T12:38:29Z</time>
</trkpt>
<trkpt lat="49.05273492448032" lon="9.244901994243264">
<ele>193</ele>
<time>2023-05-16T12:38:30Z</time>
</trkpt>
<trkpt lat="49.052726961672306" lon="9.244847930967808">
<ele>193</ele>
<time>2023-05-16T12:38:31Z</time>
</trkpt>
<trkpt lat="49.05271698720753" lon="9.24478699453175">
<ele>193</ele>
<time>2023-05-16T12:38:32Z</time>
</trkpt>
<trkpt lat="49.052702989429235" lon="9.244731925427914">
<ele>193</ele>
<time>2023-05-16T12:38:33Z</time>
</trkpt>
<trkpt lat="49.05268496833742" lon="9.244686998426914">
<ele>193</ele>
<time>2023-05-16T12:38:34Z</time>
</trkpt>
<trkpt lat="49.0526719763875" lon="9.244632935151458">
<ele>193</ele>
<time>2023-05-16T12:38:35Z</time>
</trkpt>
<trkpt lat="49.052657978609204" lon="9.24457493238151">
<ele>193</ele>
<time>2023-05-16T12:38:36Z</time>
</trkpt>
<trkpt lat="49.0526479203254" lon="9.244522964581847">
<ele>192.79999999999995</ele>
<time>2023-05-16T12:38:37Z</time>
</trkpt>
<trkpt lat="49.05264498665929" lon="9.244469990953803">
<ele>192.79999999999995</ele>
<time>2023-05-16T12:38:38Z</time>
</trkpt>
<trkpt lat="49.05264196917415" lon="9.244419950991869">
<ele>192.79999999999995</ele>
<time>2023-05-16T12:38:39Z</time>
</trkpt>
<trkpt lat="49.052636940032244" lon="9.244367983192205">
<ele>192.79999999999995</ele>
<time>2023-05-16T12:38:40Z</time>
</trkpt>
<trkpt lat="49.05264297500253" lon="9.244317943230271">
<ele>192.60000000000002</ele>
<time>2023-05-16T12:38:41Z</time>
</trkpt>
<trkpt lat="49.052659990265965" lon="9.244281984865665">
<ele>192.60000000000002</ele>
<time>2023-05-16T12:38:42Z</time>
</trkpt>
<trkpt lat="49.05268798582256" lon="9.244257928803563">
<ele>192.39999999999998</ele>
<time>2023-05-16T12:38:43Z</time>
</trkpt>
<trkpt lat="49.052724950015545" lon="9.244247954338789">
<ele>192.39999999999998</ele>
<time>2023-05-16T12:38:44Z</time>
</trkpt>
<trkpt lat="49.052767949178815" lon="9.244241919368505">
<ele>192.20000000000005</ele>
<time>2023-05-16T12:38:45Z</time>
</trkpt>
<trkpt lat="49.052809942513704" lon="9.244231944903731">
<ele>192.20000000000005</ele>
<time>2023-05-16T12:38:46Z</time>
</trkpt>
<trkpt lat="49.0528569649905" lon="9.244222976267338">
<ele>192</ele>
<time>2023-05-16T12:38:47Z</time>
</trkpt>
<trkpt lat="49.05289996415377" lon="9.244214929640293">
<ele>192</ele>
<time>2023-05-16T12:38:48Z</time>
</trkpt>
<trkpt lat="49.052941957488656" lon="9.24420696683228">
<ele>192</ele>
<time>2023-05-16T12:38:49Z</time>
</trkpt>
<trkpt lat="49.052982944995165" lon="9.244196992367506">
<ele>191.79999999999995</ele>
<time>2023-05-16T12:38:50Z</time>
</trkpt>
<trkpt lat="49.053027955815196" lon="9.244184922426939">
<ele>191.79999999999995</ele>
<time>2023-05-16T12:38:51Z</time>
</trkpt>
<trkpt lat="49.05307196080685" lon="9.244174947962165">
<ele>191.79999999999995</ele>
<time>2023-05-16T12:38:52Z</time>
</trkpt>
<trkpt lat="49.053112948313355" lon="9.244154999032617">
<ele>191.60000000000002</ele>
<time>2023-05-16T12:38:53Z</time>
</trkpt>
<trkpt lat="49.05314496718347" lon="9.244124991819263">
<ele>191.60000000000002</ele>
<time>2023-05-16T12:38:54Z</time>
</trkpt>
<trkpt lat="49.053172962740064" lon="9.244084926322103">
<ele>191.60000000000002</ele>
<time>2023-05-16T12:38:55Z</time>
</trkpt>
<trkpt lat="49.05319198966026" lon="9.244026923552155">
<ele>191.39999999999998</ele>
<time>2023-05-16T12:38:56Z</time>
</trkpt>
<trkpt lat="49.053192995488644" lon="9.243961963802576">
<ele>191.39999999999998</ele>
<time>2023-05-16T12:38:57Z</time>
</trkpt>
<trkpt lat="49.0531899780035" lon="9.243894992396235">
<ele>191.39999999999998</ele>
<time>2023-05-16T12:38:58Z</time>
</trkpt>
<trkpt lat="49.0531849488616" lon="9.243836989626288">
<ele>191.39999999999998</ele>
<time>2023-05-16T12:38:59Z</time>
</trkpt>
<trkpt lat="49.05317799188197" lon="9.243781920522451">
<ele>191.39999999999998</ele>
<time>2023-05-16T12:39:00Z</time>
</trkpt>
<trkpt lat="49.05316793359816" lon="9.24371494911611">
<ele>191.39999999999998</ele>
<time>2023-05-16T12:39:01Z</time>
</trkpt>
<trkpt lat="49.05315795913339" lon="9.24365191720426">
<ele>191.39999999999998</ele>
<time>2023-05-16T12:39:02Z</time>
</trkpt>
<trkpt lat="49.05314798466861" lon="9.243579916656017">
<ele>191.39999999999998</ele>
<time>2023-05-16T12:39:03Z</time>
</trkpt>
<trkpt lat="49.05313792638481" lon="9.243512945249677">
<ele>191.39999999999998</ele>
<time>2023-05-16T12:39:04Z</time>
</trkpt>
<trkpt lat="49.053129963576794" lon="9.243447985500097">
<ele>191.39999999999998</ele>
<time>2023-05-16T12:39:05Z</time>
</trkpt>
<trkpt lat="49.05312191694975" lon="9.243384953588247">
<ele>191.39999999999998</ele>
<time>2023-05-16T12:39:06Z</time>
</trkpt>
<trkpt lat="49.05311495997012" lon="9.243324939161539">
<ele>191.39999999999998</ele>
<time>2023-05-16T12:39:07Z</time>
</trkpt>
<trkpt lat="49.053106997162104" lon="9.243267942219973">
<ele>191.39999999999998</ele>
<time>2023-05-16T12:39:08Z</time>
</trkpt>
<trkpt lat="49.05309995636344" lon="9.243211951106787">
<ele>191.39999999999998</ele>
<time>2023-05-16T12:39:09Z</time>
</trkpt>
<trkpt lat="49.05309299938381" lon="9.24315495416522">
<ele>191.39999999999998</ele>
<time>2023-05-16T12:39:10Z</time>
</trkpt>
<trkpt lat="49.053087970241904" lon="9.243094939738512">
<ele>191.39999999999998</ele>
<time>2023-05-16T12:39:11Z</time>
</trkpt>
<trkpt lat="49.0530829411" lon="9.24302696250379">
<ele>191.39999999999998</ele>
<time>2023-05-16T12:39:12Z</time>
</trkpt>
<trkpt lat="49.05307799577713" lon="9.242966948077083">
<ele>191.39999999999998</ele>
<time>2023-05-16T12:39:13Z</time>
</trkpt>
<trkpt lat="49.053067937493324" lon="9.242904921993613">
<ele>191.39999999999998</ele>
<time>2023-05-16T12:39:14Z</time>
</trkpt>
<trkpt lat="49.05306198634207" lon="9.24283199943602">
<ele>191.39999999999998</ele>
<time>2023-05-16T12:39:15Z</time>
</trkpt>
<trkpt lat="49.05305695720017" lon="9.242781959474087">
<ele>191.39999999999998</ele>
<time>2023-05-16T12:39:16Z</time>
</trkpt>
<trkpt lat="49.053044971078634" lon="9.242736948654056">
<ele>191.39999999999998</ele>
<time>2023-05-16T12:39:17Z</time>
</trkpt>
<trkpt lat="49.0530329849571" lon="9.242692943662405">
<ele>191.39999999999998</ele>
<time>2023-05-16T12:39:18Z</time>
</trkpt>
<trkpt lat="49.05302192084491" lon="9.242647932842374">
<ele>191.39999999999998</ele>
<time>2023-05-16T12:39:19Z</time>
</trkpt>
<trkpt lat="49.05301194638014" lon="9.242611974477768">
<ele>191.39999999999998</ele>
<time>2023-05-16T12:39:20Z</time>
</trkpt>
<trkpt lat="49.05300993472338" lon="9.24257199279964">
<ele>191.39999999999998</ele>
<time>2023-05-16T12:39:21Z</time>
</trkpt>
<trkpt lat="49.053002977743745" lon="9.242537962272763">
<ele>191.39999999999998</ele>
<time>2023-05-16T12:39:22Z</time>
</trkpt>
<trkpt lat="49.05299794860184" lon="9.24250795505941">
<ele>191.39999999999998</ele>
<time>2023-05-16T12:39:23Z</time>
</trkpt>
<trkpt lat="49.05299794860184" lon="9.242481971159577">
<ele>191.39999999999998</ele>
<time>2023-05-16T12:39:24Z</time>
</trkpt>
<trkpt lat="49.0529999602586" lon="9.242449952289462">
<ele>191.39999999999998</ele>
<time>2023-05-16T12:39:25Z</time>
</trkpt>
<trkpt lat="49.053006917238235" lon="9.24242195673287">
<ele>191.39999999999998</ele>
<time>2023-05-16T12:39:26Z</time>
</trkpt>
<trkpt lat="49.05301697552204" lon="9.242389937862754">
<ele>191.60000000000002</ele>
<time>2023-05-16T12:39:27Z</time>
</trkpt>
<trkpt lat="49.05303692445159" lon="9.242371916770935">
<ele>191.60000000000002</ele>
<time>2023-05-16T12:39:28Z</time>
</trkpt>
<trkpt lat="49.05306299217045" lon="9.242357918992639">
<ele>191.79999999999995</ele>
<time>2023-05-16T12:39:29Z</time>
</trkpt>
<trkpt lat="49.05309299938381" lon="9.24235699698329">
<ele>191.79999999999995</ele>
<time>2023-05-16T12:39:30Z</time>
</trkpt>
<trkpt lat="49.05312694609165" lon="9.242354985326529">
<ele>192</ele>
<time>2023-05-16T12:39:31Z</time>
</trkpt>
<trkpt lat="49.05316198244691" lon="9.242351967841387">
<ele>192</ele>
<time>2023-05-16T12:39:32Z</time>
</trkpt>
<trkpt lat="49.05319492332637" lon="9.242351967841387">
<ele>192.20000000000005</ele>
<time>2023-05-16T12:39:33Z</time>
</trkpt>
<trkpt lat="49.05322995968163" lon="9.242347944527864">
<ele>192.20000000000005</ele>
<time>2023-05-16T12:39:34Z</time>
</trkpt>
<trkpt lat="49.05326499603689" lon="9.242339981719851">
<ele>192.39999999999998</ele>
<time>2023-05-16T12:39:35Z</time>
</trkpt>
<trkpt lat="49.053302966058254" lon="9.242332940921187">
<ele>192.39999999999998</ele>
<time>2023-05-16T12:39:36Z</time>
</trkpt>
<trkpt lat="49.053341941908" lon="9.242327995598316">
<ele>192.39999999999998</ele>
<time>2023-05-16T12:39:37Z</time>
</trkpt>
<trkpt lat="49.05338192358613" lon="9.242324978113174">
<ele>192.39999999999998</ele>
<time>2023-05-16T12:39:38Z</time>
</trkpt>
<trkpt lat="49.05342299491167" lon="9.242321960628033">
<ele>192.60000000000002</ele>
<time>2023-05-16T12:39:39Z</time>
</trkpt>
<trkpt lat="49.05346699990332" lon="9.24231793731451">
<ele>192.60000000000002</ele>
<time>2023-05-16T12:39:40Z</time>
</trkpt>
<trkpt lat="49.05350798740983" lon="9.24231299199164">
<ele>192.60000000000002</ele>
<time>2023-05-16T12:39:41Z</time>
</trkpt>
<trkpt lat="49.05355199240148" lon="9.242306957021356">
<ele>192.60000000000002</ele>
<time>2023-05-16T12:39:42Z</time>
</trkpt>
<trkpt lat="49.05359297990799" lon="9.242301927879453">
<ele>192.79999999999995</ele>
<time>2023-05-16T12:39:43Z</time>
</trkpt>
<trkpt lat="49.05363296158612" lon="9.242296982556581">
<ele>192.79999999999995</ele>
<time>2023-05-16T12:39:44Z</time>
</trkpt>
<trkpt lat="49.05367495492101" lon="9.24229497089982">
<ele>192.79999999999995</ele>
<time>2023-05-16T12:39:45Z</time>
</trkpt>
<trkpt lat="49.05371795408428" lon="9.242296982556581">
<ele>192.79999999999995</ele>
<time>2023-05-16T12:39:46Z</time>
</trkpt>
<trkpt lat="49.05375994741917" lon="9.242301927879453">
<ele>193</ele>
<time>2023-05-16T12:39:47Z</time>
</trkpt>
<trkpt lat="49.0538049582392" lon="9.242304945364594">
<ele>193</ele>
<time>2023-05-16T12:39:48Z</time>
</trkpt>
<trkpt lat="49.05384795740247" lon="9.242306957021356">
<ele>193</ele>
<time>2023-05-16T12:39:49Z</time>
</trkpt>
<trkpt lat="49.05388995073736" lon="9.242309974506497">
<ele>193</ele>
<time>2023-05-16T12:39:50Z</time>
</trkpt>
<trkpt lat="49.05393194407225" lon="9.24231299199164">
<ele>193</ele>
<time>2023-05-16T12:39:51Z</time>
</trkpt>
<trkpt lat="49.05397494323552" lon="9.24231693148613">
<ele>193</ele>
<time>2023-05-16T12:39:52Z</time>
</trkpt>
<trkpt lat="49.054016936570406" lon="9.24231693148613">
<ele>193</ele>
<time>2023-05-16T12:39:53Z</time>
</trkpt>
<trkpt lat="49.054056918248534" lon="9.24231793731451">
<ele>193.20000000000005</ele>
<time>2023-05-16T12:39:54Z</time>
</trkpt>
<trkpt lat="49.054099917411804" lon="9.242322966456413">
<ele>193.20000000000005</ele>
<time>2023-05-16T12:39:55Z</time>
</trkpt>
<trkpt lat="49.0541379712522" lon="9.242332940921187">
<ele>193.20000000000005</ele>
<time>2023-05-16T12:39:56Z</time>
</trkpt>
<trkpt lat="49.054182982072234" lon="9.242339981719851">
<ele>193.20000000000005</ele>
<time>2023-05-16T12:39:57Z</time>
</trkpt>
<trkpt lat="49.054224975407124" lon="9.242344927042723">
<ele>193.39999999999998</ele>
<time>2023-05-16T12:39:58Z</time>
</trkpt>
<trkpt lat="49.054267974570394" lon="9.242347944527864">
<ele>193.39999999999998</ele>
<time>2023-05-16T12:39:59Z</time>
</trkpt>
<trkpt lat="49.05430996790528" lon="9.242354985326529">
<ele>193.39999999999998</ele>
<time>2023-05-16T12:40:00Z</time>
</trkpt>
<trkpt lat="49.05434994958341" lon="9.242357918992639">
<ele>193.60000000000002</ele>
<time>2023-05-16T12:40:01Z</time>
</trkpt>
<trkpt lat="49.05439294874668" lon="9.242366971448064">
<ele>193.60000000000002</ele>
<time>2023-05-16T12:40:02Z</time>
</trkpt>
<trkpt lat="49.05443293042481" lon="9.242376945912838">
<ele>193.60000000000002</ele>
<time>2023-05-16T12:40:03Z</time>
</trkpt>
<trkpt lat="49.0544749237597" lon="9.24237996339798">
<ele>193.79999999999995</ele>
<time>2023-05-16T12:40:04Z</time>
</trkpt>
<trkpt lat="49.05451498925686" lon="9.242384992539883">
<ele>193.79999999999995</ele>
<time>2023-05-16T12:40:05Z</time>
</trkpt>
<trkpt lat="49.05455497093499" lon="9.242389937862754">
<ele>194</ele>
<time>2023-05-16T12:40:06Z</time>
</trkpt>
<trkpt lat="49.05459998175502" lon="9.242396978661418">
<ele>194</ele>
<time>2023-05-16T12:40:07Z</time>
</trkpt>
<trkpt lat="49.054637951776385" lon="9.242409970611334">
<ele>194.20000000000005</ele>
<time>2023-05-16T12:40:08Z</time>
</trkpt>
<trkpt lat="49.05467692762613" lon="9.242424974218011">
<ele>194.39999999999998</ele>
<time>2023-05-16T12:40:09Z</time>
</trkpt>
<trkpt lat="49.05471498146653" lon="9.242429919540882">
<ele>194.39999999999998</ele>
<time>2023-05-16T12:40:10Z</time>
</trkpt>
<trkpt lat="49.0547529514879" lon="9.242429919540882">
<ele>194.60000000000002</ele>
<time>2023-05-16T12:40:11Z</time>
</trkpt>
<trkpt lat="49.05479192733765" lon="9.242429919540882">
<ele>194.79999999999995</ele>
<time>2023-05-16T12:40:12Z</time>
</trkpt>
<trkpt lat="49.054829981178045" lon="9.242432937026024">
<ele>195</ele>
<time>2023-05-16T12:40:13Z</time>
</trkpt>
<trkpt lat="49.05486191622913" lon="9.242437966167927">
<ele>195.20000000000005</ele>
<time>2023-05-16T12:40:14Z</time>
</trkpt>
<trkpt lat="49.05488798394799" lon="9.242437966167927">
<ele>195.39999999999998</ele>
<time>2023-05-16T12:40:15Z</time>
</trkpt>
<trkpt lat="49.05491296201944" lon="9.242436960339546">
<ele>195.60000000000002</ele>
<time>2023-05-16T12:40:16Z</time>
</trkpt>
<trkpt lat="49.05493299476802" lon="9.242436960339546">
<ele>195.79999999999995</ele>
<time>2023-05-16T12:40:17Z</time>
</trkpt>
<trkpt lat="49.05494992621243" lon="9.242439977824688">
<ele>196</ele>
<time>2023-05-16T12:40:18Z</time>
</trkpt>
<trkpt lat="49.05496492981911" lon="9.242439977824688">
<ele>196.20000000000005</ele>
<time>2023-05-16T12:40:19Z</time>
</trkpt>
<trkpt lat="49.05496995896101" lon="9.242439977824688">
<ele>196.20000000000005</ele>
<time>2023-05-16T12:40:20Z</time>
</trkpt>
<trkpt lat="49.05496995896101" lon="9.242437966167927">
<ele>196.39999999999998</ele>
<time>2023-05-16T12:40:21Z</time>
</trkpt>
<trkpt lat="49.05497197061777" lon="9.242439977824688">
<ele>196.60000000000002</ele>
<time>2023-05-16T12:40:22Z</time>
</trkpt>
<trkpt lat="49.05498798005283" lon="9.242341993376613">
<ele>197.60000000000002</ele>
<time>2023-05-16T12:40:23Z</time>
</trkpt>
<trkpt lat="49.05498798005283" lon="9.242322966456413">
<ele>197.60000000000002</ele>
<time>2023-05-16T12:40:24Z</time>
</trkpt>
<trkpt lat="49.05498697422445" lon="9.242309974506497">
<ele>197.60000000000002</ele>
<time>2023-05-16T12:40:25Z</time>
</trkpt>
<trkpt lat="49.05498697422445" lon="9.242296982556581">
<ele>197.79999999999995</ele>
<time>2023-05-16T12:40:26Z</time>
</trkpt>
<trkpt lat="49.054981945082545" lon="9.24227493815124">
<ele>197.79999999999995</ele>
<time>2023-05-16T12:40:27Z</time>
</trkpt>
<trkpt lat="49.054979933425784" lon="9.242257922887802">
<ele>197.79999999999995</ele>
<time>2023-05-16T12:40:28Z</time>
</trkpt>
<trkpt lat="49.054981945082545" lon="9.242254989221692">
<ele>198</ele>
<time>2023-05-16T12:40:29Z</time>
</trkpt>
<trkpt lat="49.054981945082545" lon="9.242244930937886">
<ele>198</ele>
<time>2023-05-16T12:40:30Z</time>
</trkpt>
<trkpt lat="49.054979933425784" lon="9.24223193898797">
<ele>198</ele>
<time>2023-05-16T12:40:31Z</time>
</trkpt>
<trkpt lat="49.054976999759674" lon="9.242216935381293">
<ele>198</ele>
<time>2023-05-16T12:40:32Z</time>
</trkpt>
<trkpt lat="49.05497498810291" lon="9.242201931774616">
<ele>198</ele>
<time>2023-05-16T12:40:33Z</time>
</trkpt>
<trkpt lat="49.05496694147587" lon="9.242172930389643">
<ele>198</ele>
<time>2023-05-16T12:40:34Z</time>
</trkpt>
<trkpt lat="49.054962918162346" lon="9.242151975631714">
<ele>198</ele>
<time>2023-05-16T12:40:35Z</time>
</trkpt>
<trkpt lat="49.054961996153" lon="9.242127919569612">
<ele>198</ele>
<time>2023-05-16T12:40:36Z</time>
</trkpt>
<trkpt lat="49.054959984496236" lon="9.242106964811683">
<ele>197.79999999999995</ele>
<time>2023-05-16T12:40:37Z</time>
</trkpt>
<trkpt lat="49.054956967011094" lon="9.242089949548244">
<ele>197.79999999999995</ele>
<time>2023-05-16T12:40:38Z</time>
</trkpt>
<trkpt lat="49.05495294369757" lon="9.242081986740232">
<ele>197.79999999999995</ele>
<time>2023-05-16T12:40:39Z</time>
</trkpt>
<trkpt lat="49.05495294369757" lon="9.242076957598329">
<ele>197.79999999999995</ele>
<time>2023-05-16T12:40:40Z</time>
</trkpt>
<trkpt lat="49.05495294369757" lon="9.242071928456426">
<ele>197.79999999999995</ele>
<time>2023-05-16T12:40:41Z</time>
</trkpt>
<trkpt lat="49.05494196340442" lon="9.241989953443408">
<ele>197.79999999999995</ele>
<time>2023-05-16T12:40:41Z</time>
</trkpt>
<trkpt lat="49.05494196340442" lon="9.241976961493492">
<ele>198</ele>
<time>2023-05-16T12:40:42Z</time>
</trkpt>
<trkpt lat="49.054939951747656" lon="9.24197193235159">
<ele>198</ele>
<time>2023-05-16T12:40:43Z</time>
</trkpt>
<trkpt lat="49.054937940090895" lon="9.241966987028718">
<ele>198</ele>
<time>2023-05-16T12:40:44Z</time>
</trkpt>
<trkpt lat="49.054936934262514" lon="9.241964975371957">
<ele>198</ele>
<time>2023-05-16T12:40:45Z</time>
</trkpt>
<trkpt lat="49.054937940090895" lon="9.241964975371957">
<ele>198.20000000000005</ele>
<time>2023-05-16T12:40:46Z</time>
</trkpt>
<trkpt lat="49.054937940090895" lon="9.241967992857099">
<ele>198.20000000000005</ele>
<time>2023-05-16T12:40:47Z</time>
</trkpt>
<trkpt lat="49.054939951747656" lon="9.241967992857099">
<ele>198.20000000000005</ele>
<time>2023-05-16T12:40:48Z</time>
</trkpt>
<trkpt lat="49.05494196340442" lon="9.241967992857099">
<ele>198.20000000000005</ele>
<time>2023-05-16T12:40:49Z</time>
</trkpt>
<trkpt lat="49.05494498088956" lon="9.241969920694828">
<ele>198.20000000000005</ele>
<time>2023-05-16T12:40:50Z</time>
</trkpt>
<trkpt lat="49.05483995564282" lon="9.242026917636395">
<ele>197.39999999999998</ele>
<time>2023-05-16T12:40:50Z</time>
</trkpt>
<trkpt lat="49.05483794398606" lon="9.242024989798665">
<ele>197.39999999999998</ele>
<time>2023-05-16T12:40:51Z</time>
</trkpt>
<trkpt lat="49.05483299866319" lon="9.242021972313523">
<ele>197.39999999999998</ele>
<time>2023-05-16T12:40:52Z</time>
</trkpt>
<trkpt lat="49.05488496646285" lon="9.242047956213355">
<ele>197.60000000000002</ele>
<time>2023-05-16T12:40:52Z</time>
</trkpt>
<trkpt lat="49.05489292927086" lon="9.242061953991652">
<ele>197.60000000000002</ele>
<time>2023-05-16T12:40:53Z</time>
</trkpt>
<trkpt lat="49.05489795841277" lon="9.24205499701202">
<ele>197.60000000000002</ele>
<time>2023-05-16T12:40:54Z</time>
</trkpt>
<trkpt lat="49.05490198172629" lon="9.242052985355258">
<ele>197.60000000000002</ele>
<time>2023-05-16T12:40:55Z</time>
</trkpt>
<trkpt lat="49.05490499921143" lon="9.242051979526877">
<ele>197.60000000000002</ele>
<time>2023-05-16T12:40:56Z</time>
</trkpt>
<trkpt lat="49.05490499921143" lon="9.242042927071452">
<ele>197.60000000000002</ele>
<time>2023-05-16T12:40:57Z</time>
</trkpt>
<trkpt lat="49.05490198172629" lon="9.242039993405342">
<ele>197.60000000000002</ele>
<time>2023-05-16T12:40:58Z</time>
</trkpt>
<trkpt lat="49.05490499921143" lon="9.242032952606678">
<ele>197.60000000000002</ele>
<time>2023-05-16T12:40:59Z</time>
</trkpt>
<trkpt lat="49.05491195619106" lon="9.242026917636395">
<ele>197.60000000000002</ele>
<time>2023-05-16T12:41:00Z</time>
</trkpt>
<trkpt lat="49.0549099445343" lon="9.242024989798665">
<ele>197.60000000000002</ele>
<time>2023-05-16T12:41:01Z</time>
</trkpt>
<trkpt lat="49.05488194897771" lon="9.242012919858098">
<ele>197.60000000000002</ele>
<time>2023-05-16T12:41:02Z</time>
</trkpt>
<trkpt lat="49.05484993010759" lon="9.242001939564943">
<ele>197.60000000000002</ele>
<time>2023-05-16T12:41:03Z</time>
</trkpt>
<trkpt lat="49.05481799505651" lon="9.241989953443408">
<ele>197.60000000000002</ele>
<time>2023-05-16T12:41:04Z</time>
</trkpt>
<trkpt lat="49.05480299144983" lon="9.241977967321873">
<ele>197.60000000000002</ele>
<time>2023-05-16T12:41:05Z</time>
</trkpt>
<trkpt lat="49.05480491928756" lon="9.24197193235159">
<ele>197.60000000000002</ele>
<time>2023-05-16T12:41:06Z</time>
</trkpt>
<trkpt lat="49.05480299144983" lon="9.241969920694828">
<ele>197.60000000000002</ele>
<time>2023-05-16T12:41:07Z</time>
</trkpt>
<trkpt lat="49.054807936772704" lon="9.24197193235159">
<ele>197.60000000000002</ele>
<time>2023-05-16T12:41:08Z</time>
</trkpt>
<trkpt lat="49.05477994121611" lon="9.241962963715196">
<ele>197.60000000000002</ele>
<time>2023-05-16T12:41:09Z</time>
</trkpt>
<trkpt lat="49.054744988679886" lon="9.241956928744912">
<ele>197.60000000000002</ele>
<time>2023-05-16T12:41:10Z</time>
</trkpt>
<trkpt lat="49.05471296980977" lon="9.241952989250422">
<ele>197.60000000000002</ele>
<time>2023-05-16T12:41:11Z</time>
</trkpt>
<trkpt lat="49.05471296980977" lon="9.241959946230054">
<ele>197.60000000000002</ele>
<time>2023-05-16T12:41:12Z</time>
</trkpt>
<trkpt lat="49.05471498146653" lon="9.241961957886815">
<ele>197.60000000000002</ele>
<time>2023-05-16T12:41:13Z</time>
</trkpt>
<trkpt lat="49.05471699312329" lon="9.241954917088151">
<ele>197.60000000000002</ele>
<time>2023-05-16T12:41:14Z</time>
</trkpt>
<trkpt lat="49.05473199672997" lon="9.241964975371957">
<ele>197.60000000000002</ele>
<time>2023-05-16T12:41:15Z</time>
</trkpt>
<trkpt lat="49.05473291873932" lon="9.241964975371957">
<ele>197.60000000000002</ele>
<time>2023-05-16T12:41:16Z</time>
</trkpt>
<trkpt lat="49.05473794788122" lon="9.241967992857099">
<ele>197.60000000000002</ele>
<time>2023-05-16T12:41:17Z</time>
</trkpt>
<trkpt lat="49.05474993400276" lon="9.241961957886815">
<ele>197.60000000000002</ele>
<time>2023-05-16T12:41:18Z</time>
</trkpt>
<trkpt lat="49.05478195287287" lon="9.241961957886815">
<ele>197.39999999999998</ele>
<time>2023-05-16T12:41:22Z</time>
</trkpt>
<trkpt lat="49.05479695647955" lon="9.241957934573293">
<ele>197.39999999999998</ele>
<time>2023-05-16T12:41:23Z</time>
</trkpt>
<trkpt lat="49.05479997396469" lon="9.241956928744912">
<ele>197.39999999999998</ele>
<time>2023-05-16T12:41:24Z</time>
</trkpt>
<trkpt lat="49.05479997396469" lon="9.241957934573293">
<ele>197.39999999999998</ele>
<time>2023-05-16T12:41:25Z</time>
</trkpt>
<trkpt lat="49.05481296591461" lon="9.241974949836731">
<ele>197.39999999999998</ele>
<time>2023-05-16T12:41:26Z</time>
</trkpt>
<trkpt lat="49.05482495203614" lon="9.241984924301505">
<ele>197.39999999999998</ele>
<time>2023-05-16T12:41:27Z</time>
</trkpt>
<trkpt lat="49.054827969521284" lon="9.241989953443408">
<ele>197.39999999999998</ele>
<time>2023-05-16T12:41:28Z</time>
</trkpt>
<trkpt lat="49.05483693815768" lon="9.24199196510017">
<ele>197.39999999999998</ele>
<time>2023-05-16T12:41:29Z</time>
</trkpt>
<trkpt lat="49.05484196729958" lon="9.241989953443408">
<ele>197.39999999999998</ele>
<time>2023-05-16T12:41:30Z</time>
</trkpt>
<trkpt lat="49.05484498478472" lon="9.24199297092855">
<ele>197.39999999999998</ele>
<time>2023-05-16T12:41:31Z</time>
</trkpt>
<trkpt lat="49.05484993010759" lon="9.241994982585311">
<ele>197.39999999999998</ele>
<time>2023-05-16T12:41:32Z</time>
</trkpt>
<trkpt lat="49.05483693815768" lon="9.241999927908182">
<ele>197.20000000000005</ele>
<time>2023-05-16T12:41:33Z</time>
</trkpt>
<trkpt lat="49.05484498478472" lon="9.241999927908182">
<ele>197.20000000000005</ele>
<time>2023-05-16T12:41:34Z</time>
</trkpt>
<trkpt lat="49.054852947592735" lon="9.242002945393324">
<ele>197.20000000000005</ele>
<time>2023-05-16T12:41:35Z</time>
</trkpt>
<trkpt lat="49.05485697090626" lon="9.242021972313523">
<ele>197.20000000000005</ele>
<time>2023-05-16T12:41:36Z</time>
</trkpt>
<trkpt lat="49.05486191622913" lon="9.242037981748581">
<ele>197.20000000000005</ele>
<time>2023-05-16T12:41:37Z</time>
</trkpt>
<trkpt lat="49.05485797673464" lon="9.242051979526877">
<ele>197.20000000000005</ele>
<time>2023-05-16T12:41:38Z</time>
</trkpt>
<trkpt lat="49.054852947592735" lon="9.242061953991652">
<ele>197.20000000000005</ele>
<time>2023-05-16T12:41:39Z</time>
</trkpt>
<trkpt lat="49.05484791845083" lon="9.242072934284806">
<ele>197.20000000000005</ele>
<time>2023-05-16T12:41:40Z</time>
</trkpt>
<trkpt lat="49.05483995564282" lon="9.242082992568612">
<ele>197.20000000000005</ele>
<time>2023-05-16T12:41:41Z</time>
</trkpt>
<trkpt lat="49.05483693815768" lon="9.242081986740232">
<ele>197.20000000000005</ele>
<time>2023-05-16T12:41:42Z</time>
</trkpt>
<trkpt lat="49.05484196729958" lon="9.24207796342671">
<ele>197</ele>
<time>2023-05-16T12:41:43Z</time>
</trkpt>
<trkpt lat="49.054852947592735" lon="9.24207796342671">
<ele>197</ele>
<time>2023-05-16T12:41:44Z</time>
</trkpt>
<trkpt lat="49.05486493371427" lon="9.24207997508347">
<ele>197</ele>
<time>2023-05-16T12:41:45Z</time>
</trkpt>
<trkpt lat="49.05487792566419" lon="9.242076957598329">
<ele>197</ele>
<time>2023-05-16T12:41:46Z</time>
</trkpt>
<trkpt lat="49.05490198172629" lon="9.242086932063103">
<ele>197</ele>
<time>2023-05-16T12:41:47Z</time>
</trkpt>
<trkpt lat="49.05491296201944" lon="9.242094978690147">
<ele>197</ele>
<time>2023-05-16T12:41:48Z</time>
</trkpt>
<trkpt lat="49.05492193065584" lon="9.24210294149816">
<ele>197</ele>
<time>2023-05-16T12:41:49Z</time>
</trkpt>
<trkpt lat="49.05492997728288" lon="9.242114927619696">
<ele>197</ele>
<time>2023-05-16T12:41:50Z</time>
</trkpt>
<trkpt lat="49.05492997728288" lon="9.242126997560263">
<ele>197</ele>
<time>2023-05-16T12:41:51Z</time>
</trkpt>
<trkpt lat="49.05493299476802" lon="9.242126997560263">
<ele>197</ele>
<time>2023-05-16T12:41:52Z</time>
</trkpt>
<trkpt lat="49.054936934262514" lon="9.242126997560263">
<ele>197</ele>
<time>2023-05-16T12:41:53Z</time>
</trkpt>
<trkpt lat="49.054936934262514" lon="9.242116939276457">
<ele>197</ele>
<time>2023-05-16T12:41:54Z</time>
</trkpt>
<trkpt lat="49.05493198893964" lon="9.242104953154922">
<ele>197</ele>
<time>2023-05-16T12:41:55Z</time>
</trkpt>
<trkpt lat="49.054917991161346" lon="9.24210193566978">
<ele>197</ele>
<time>2023-05-16T12:41:56Z</time>
</trkpt>
<trkpt lat="49.05489997006953" lon="9.242092967033386">
<ele>197</ele>
<time>2023-05-16T12:41:57Z</time>
</trkpt>
<trkpt lat="49.054894940927625" lon="9.242087937891483">
<ele>197</ele>
<time>2023-05-16T12:41:58Z</time>
</trkpt>
<trkpt lat="49.054896952584386" lon="9.242087937891483">
<ele>197</ele>
<time>2023-05-16T12:41:59Z</time>
</trkpt>
<trkpt lat="49.054896952584386" lon="9.24210294149816">
<ele>197</ele>
<time>2023-05-16T12:42:00Z</time>
</trkpt>
<trkpt lat="49.054894940927625" lon="9.242107970640063">
<ele>197.20000000000005</ele>
<time>2023-05-16T12:42:01Z</time>
</trkpt>
<trkpt lat="49.05488798394799" lon="9.242117945104837">
<ele>197.20000000000005</ele>
<time>2023-05-16T12:42:02Z</time>
</trkpt>
<trkpt lat="49.054874991998076" lon="9.24212196841836">
<ele>197.20000000000005</ele>
<time>2023-05-16T12:42:03Z</time>
</trkpt>
<trkpt lat="49.05485797673464" lon="9.242132948711514">
<ele>197.20000000000005</ele>
<time>2023-05-16T12:42:04Z</time>
</trkpt>
<trkpt lat="49.054831992834806" lon="9.242126997560263">
<ele>197.20000000000005</ele>
<time>2023-05-16T12:42:05Z</time>
</trkpt>
<trkpt lat="49.05481296591461" lon="9.242126997560263">
<ele>197.20000000000005</ele>
<time>2023-05-16T12:42:06Z</time>
</trkpt>
<trkpt lat="49.05481196008623" lon="9.242139989510179">
<ele>197.20000000000005</ele>
<time>2023-05-16T12:42:07Z</time>
</trkpt>
<trkpt lat="49.05480491928756" lon="9.242159938439727">
<ele>197.20000000000005</ele>
<time>2023-05-16T12:42:08Z</time>
</trkpt>
<trkpt lat="49.05480491928756" lon="9.242172930389643">
<ele>197.20000000000005</ele>
<time>2023-05-16T12:42:09Z</time>
</trkpt>
<trkpt lat="49.05480198562145" lon="9.242192963138223">
<ele>197.20000000000005</ele>
<time>2023-05-16T12:42:10Z</time>
</trkpt>
<trkpt lat="49.05479997396469" lon="9.242201931774616">
<ele>197.20000000000005</ele>
<time>2023-05-16T12:42:11Z</time>
</trkpt>
<trkpt lat="49.05480198562145" lon="9.242209978401661">
<ele>197.20000000000005</ele>
<time>2023-05-16T12:42:12Z</time>
</trkpt>
<trkpt lat="49.05479796230793" lon="9.242212995886803">
<ele>197.20000000000005</ele>
<time>2023-05-16T12:42:13Z</time>
</trkpt>
<trkpt lat="49.05479695647955" lon="9.242212995886803">
<ele>197.20000000000005</ele>
<time>2023-05-16T12:42:14Z</time>
</trkpt>
<trkpt lat="49.05477692373097" lon="9.242202937602997">
<ele>197.20000000000005</ele>
<time>2023-05-16T12:42:14Z</time>
</trkpt>
<trkpt lat="49.05477994121611" lon="9.242191957309842">
<ele>197.20000000000005</ele>
<time>2023-05-16T12:42:15Z</time>
</trkpt>
<trkpt lat="49.05478295870125" lon="9.242192963138223">
<ele>197.20000000000005</ele>
<time>2023-05-16T12:42:16Z</time>
</trkpt>
<trkpt lat="49.054787987843156" lon="9.242189945653081">
<ele>197.20000000000005</ele>
<time>2023-05-16T12:42:17Z</time>
</trkpt>
<trkpt lat="49.054787987843156" lon="9.242179971188307">
<ele>197.20000000000005</ele>
<time>2023-05-16T12:42:18Z</time>
</trkpt>
<trkpt lat="49.05479997396469" lon="9.242022978141904">
<ele>197</ele>
<time>2023-05-16T12:42:18Z</time>
</trkpt>
<trkpt lat="49.05480491928756" lon="9.24201199784875">
<ele>197</ele>
<time>2023-05-16T12:42:19Z</time>
</trkpt>
<trkpt lat="49.05480491928756" lon="9.242001939564943">
<ele>197</ele>
<time>2023-05-16T12:42:20Z</time>
</trkpt>
<trkpt lat="49.05480299144983" lon="9.241989953443408">
<ele>197</ele>
<time>2023-05-16T12:42:21Z</time>
</trkpt>
<trkpt lat="49.05480198562145" lon="9.241982996463776">
<ele>197</ele>
<time>2023-05-16T12:42:22Z</time>
</trkpt>
<trkpt lat="49.054807936772704" lon="9.241986935958266">
<ele>197</ele>
<time>2023-05-16T12:42:23Z</time>
</trkpt>
<trkpt lat="49.05481799505651" lon="9.242009986191988">
<ele>197</ele>
<time>2023-05-16T12:42:24Z</time>
</trkpt>
<trkpt lat="49.05481799505651" lon="9.242006968706846">
<ele>197</ele>
<time>2023-05-16T12:42:25Z</time>
</trkpt>
<trkpt lat="49.05481992289424" lon="9.242009986191988">
<ele>196.79999999999995</ele>
<time>2023-05-16T12:42:26Z</time>
</trkpt>
<trkpt lat="49.0548269636929" lon="9.242012919858098">
<ele>196.79999999999995</ele>
<time>2023-05-16T12:42:27Z</time>
</trkpt>
<trkpt lat="49.0548269636929" lon="9.242007974535227">
<ele>196.79999999999995</ele>
<time>2023-05-16T12:42:28Z</time>
</trkpt>
<trkpt lat="49.054809948429465" lon="9.242002945393324">
<ele>196.79999999999995</ele>
<time>2023-05-16T12:42:29Z</time>
</trkpt>
<trkpt lat="49.054809948429465" lon="9.242012919858098">
<ele>196.79999999999995</ele>
<time>2023-05-16T12:42:30Z</time>
</trkpt>
<trkpt lat="49.05481497757137" lon="9.242021972313523">
<ele>196.60000000000002</ele>
<time>2023-05-16T12:42:31Z</time>
</trkpt>
<trkpt lat="49.05484699644148" lon="9.242052985355258">
<ele>196.60000000000002</ele>
<time>2023-05-16T12:42:34Z</time>
</trkpt>
<trkpt lat="49.0548549592495" lon="9.242061953991652">
<ele>196.60000000000002</ele>
<time>2023-05-16T12:42:35Z</time>
</trkpt>
<trkpt lat="49.054871974512935" lon="9.242071928456426">
<ele>196.60000000000002</ele>
<time>2023-05-16T12:42:36Z</time>
</trkpt>
<trkpt lat="49.05484196729958" lon="9.242071928456426">
<ele>196.60000000000002</ele>
<time>2023-05-16T12:42:37Z</time>
</trkpt>
<trkpt lat="49.05483995564282" lon="9.242052985355258">
<ele>196.60000000000002</ele>
<time>2023-05-16T12:42:38Z</time>
</trkpt>
<trkpt lat="49.05483492650092" lon="9.242042927071452">
<ele>196.60000000000002</ele>
<time>2023-05-16T12:42:39Z</time>
</trkpt>
<trkpt lat="49.054831992834806" lon="9.242027923464775">
<ele>196.60000000000002</ele>
<time>2023-05-16T12:42:40Z</time>
</trkpt>
<trkpt lat="49.05483299866319" lon="9.242017949000001">
<ele>196.60000000000002</ele>
<time>2023-05-16T12:42:41Z</time>
</trkpt>
<trkpt lat="49.05483794398606" lon="9.242007974535227">
<ele>196.60000000000002</ele>
<time>2023-05-16T12:42:42Z</time>
</trkpt>
<trkpt lat="49.05484699644148" lon="9.242004957050085">
<ele>196.60000000000002</ele>
<time>2023-05-16T12:42:43Z</time>
</trkpt>
<trkpt lat="49.0548549592495" lon="9.241994982585311">
<ele>196.60000000000002</ele>
<time>2023-05-16T12:42:44Z</time>
</trkpt>
<trkpt lat="49.05485797673464" lon="9.241994982585311">
<ele>196.60000000000002</ele>
<time>2023-05-16T12:42:45Z</time>
</trkpt>
<trkpt lat="49.054894940927625" lon="9.242049967870116">
<ele>196.39999999999998</ele>
<time>2023-05-16T12:42:49Z</time>
</trkpt>
<trkpt lat="49.05488999560475" lon="9.242037981748581">
<ele>196.60000000000002</ele>
<time>2023-05-16T12:42:50Z</time>
</trkpt>
<trkpt lat="49.05488999560475" lon="9.242029935121536">
<ele>196.60000000000002</ele>
<time>2023-05-16T12:42:51Z</time>
</trkpt>
<trkpt lat="49.05488496646285" lon="9.242026917636395">
<ele>196.60000000000002</ele>
<time>2023-05-16T12:42:52Z</time>
</trkpt>
<trkpt lat="49.05488798394799" lon="9.242026917636395">
<ele>196.60000000000002</ele>
<time>2023-05-16T12:42:53Z</time>
</trkpt>
<trkpt lat="49.05488798394799" lon="9.242029935121536">
<ele>196.60000000000002</ele>
<time>2023-05-16T12:42:54Z</time>
</trkpt>
<trkpt lat="49.054766949266195" lon="9.242062959820032">
<ele>196.60000000000002</ele>
<time>2023-05-16T12:42:55Z</time>
</trkpt>
<trkpt lat="49.05478195287287" lon="9.242074945941567">
<ele>196.60000000000002</ele>
<time>2023-05-16T12:42:55Z</time>
</trkpt>
<trkpt lat="49.05478295870125" lon="9.242072934284806">
<ele>196.60000000000002</ele>
<time>2023-05-16T12:42:56Z</time>
</trkpt>
<trkpt lat="49.054786982014775" lon="9.242067988961935">
<ele>196.60000000000002</ele>
<time>2023-05-16T12:42:57Z</time>
</trkpt>
<trkpt lat="49.054786982014775" lon="9.242041921243072">
<ele>196.60000000000002</ele>
<time>2023-05-16T12:42:58Z</time>
</trkpt>
<trkpt lat="49.05479192733765" lon="9.242031946778297">
<ele>196.60000000000002</ele>
<time>2023-05-16T12:42:59Z</time>
</trkpt>
<trkpt lat="49.05479494482279" lon="9.242017949000001">
<ele>196.60000000000002</ele>
<time>2023-05-16T12:43:00Z</time>
</trkpt>
<trkpt lat="49.05479997396469" lon="9.242004957050085">
<ele>196.60000000000002</ele>
<time>2023-05-16T12:43:01Z</time>
</trkpt>
<trkpt lat="49.054809948429465" lon="9.241989953443408">
<ele>196.60000000000002</ele>
<time>2023-05-16T12:43:02Z</time>
</trkpt>
<trkpt lat="49.054821934551" lon="9.24197293817997">
<ele>196.60000000000002</ele>
<time>2023-05-16T12:43:03Z</time>
</trkpt>
<trkpt lat="49.054831992834806" lon="9.241967992857099">
<ele>196.60000000000002</ele>
<time>2023-05-16T12:43:04Z</time>
</trkpt>
<trkpt lat="49.05483492650092" lon="9.241974949836731">
<ele>196.60000000000002</ele>
<time>2023-05-16T12:43:05Z</time>
</trkpt>
<trkpt lat="49.05483693815768" lon="9.241976961493492">
<ele>196.60000000000002</ele>
<time>2023-05-16T12:43:06Z</time>
</trkpt>
<trkpt lat="49.05483794398606" lon="9.241986935958266">
<ele>196.60000000000002</ele>
<time>2023-05-16T12:43:07Z</time>
</trkpt>
<trkpt lat="49.05483794398606" lon="9.241996994242072">
<ele>196.60000000000002</ele>
<time>2023-05-16T12:43:08Z</time>
</trkpt>
<trkpt lat="49.05484498478472" lon="9.242001939564943">
<ele>196.60000000000002</ele>
<time>2023-05-16T12:43:09Z</time>
</trkpt>
<trkpt lat="49.054852947592735" lon="9.242006968706846">
<ele>196.60000000000002</ele>
<time>2023-05-16T12:43:10Z</time>
</trkpt>
<trkpt lat="49.054852947592735" lon="9.242017949000001">
<ele>196.60000000000002</ele>
<time>2023-05-16T12:43:11Z</time>
</trkpt>
<trkpt lat="49.05486191622913" lon="9.242027923464775">
<ele>196.60000000000002</ele>
<time>2023-05-16T12:43:12Z</time>
</trkpt>
<trkpt lat="49.0548599883914" lon="9.2420369759202">
<ele>196.60000000000002</ele>
<time>2023-05-16T12:43:13Z</time>
</trkpt>
<trkpt lat="49.05486694537103" lon="9.242044938728213">
<ele>196.39999999999998</ele>
<time>2023-05-16T12:43:14Z</time>
</trkpt>
<trkpt lat="49.05486795119941" lon="9.242047956213355">
<ele>196.39999999999998</ele>
<time>2023-05-16T12:43:15Z</time>
</trkpt>
<trkpt lat="49.054876919835806" lon="9.242049967870116">
<ele>196.39999999999998</ele>
<time>2023-05-16T12:43:16Z</time>
</trkpt>
<trkpt lat="49.05488295480609" lon="9.242032952606678">
<ele>196.39999999999998</ele>
<time>2023-05-16T12:43:17Z</time>
</trkpt>
<trkpt lat="49.05488798394799" lon="9.24201694317162">
<ele>196.39999999999998</ele>
<time>2023-05-16T12:43:18Z</time>
</trkpt>
<trkpt lat="49.05489192344248" lon="9.242004957050085">
<ele>196.39999999999998</ele>
<time>2023-05-16T12:43:19Z</time>
</trkpt>
<trkpt lat="49.05488798394799" lon="9.241989953443408">
<ele>196.39999999999998</ele>
<time>2023-05-16T12:43:20Z</time>
</trkpt>
<trkpt lat="49.05487792566419" lon="9.24197193235159">
<ele>196.39999999999998</ele>
<time>2023-05-16T12:43:21Z</time>
</trkpt>
<trkpt lat="49.05486795119941" lon="9.241951983422041">
<ele>196.39999999999998</ele>
<time>2023-05-16T12:43:22Z</time>
</trkpt>
<trkpt lat="49.05486191622913" lon="9.241934968158603">
<ele>196.39999999999998</ele>
<time>2023-05-16T12:43:23Z</time>
</trkpt>
<trkpt lat="49.0548549592495" lon="9.241932956501842">
<ele>196.39999999999998</ele>
<time>2023-05-16T12:43:24Z</time>
</trkpt>
<trkpt lat="49.0548549592495" lon="9.241911917924881">
<ele>196.39999999999998</ele>
<time>2023-05-16T12:43:25Z</time>
</trkpt>
<trkpt lat="49.0548549592495" lon="9.241902949288487">
<ele>196.39999999999998</ele>
<time>2023-05-16T12:43:26Z</time>
</trkpt>
<trkpt lat="49.0548599883914" lon="9.241899931803346">
<ele>196.39999999999998</ele>
<time>2023-05-16T12:43:27Z</time>
</trkpt>
<trkpt lat="49.05486493371427" lon="9.241892974823713">
<ele>196.39999999999998</ele>
<time>2023-05-16T12:43:28Z</time>
</trkpt>
<trkpt lat="49.05486694537103" lon="9.241897920146585">
<ele>196.39999999999998</ele>
<time>2023-05-16T12:43:29Z</time>
</trkpt>
<trkpt lat="49.054872980341315" lon="9.241891968995333">
<ele>196.39999999999998</ele>
<time>2023-05-16T12:43:30Z</time>
</trkpt>
<trkpt lat="49.054872980341315" lon="9.24188794568181">
<ele>196.39999999999998</ele>
<time>2023-05-16T12:43:31Z</time>
</trkpt>
<trkpt lat="49.05487792566419" lon="9.24188794568181">
<ele>196.39999999999998</ele>
<time>2023-05-16T12:43:32Z</time>
</trkpt>
<trkpt lat="49.054871974512935" lon="9.24190797843039">
<ele>196.39999999999998</ele>
<time>2023-05-16T12:43:33Z</time>
</trkpt>
<trkpt lat="49.05486292205751" lon="9.241919964551926">
<ele>196.39999999999998</ele>
<time>2023-05-16T12:43:34Z</time>
</trkpt>
<trkpt lat="49.05485697090626" lon="9.241936979815364">
<ele>196.39999999999998</ele>
<time>2023-05-16T12:43:35Z</time>
</trkpt>
<trkpt lat="49.054851941764355" lon="9.241962963715196">
<ele>196.39999999999998</ele>
<time>2023-05-16T12:43:36Z</time>
</trkpt>
<trkpt lat="49.054852947592735" lon="9.241981990635395">
<ele>196.39999999999998</ele>
<time>2023-05-16T12:43:37Z</time>
</trkpt>
<trkpt lat="49.05484993010759" lon="9.241984924301505">
<ele>196.39999999999998</ele>
<time>2023-05-16T12:43:38Z</time>
</trkpt>
<trkpt lat="49.05484791845083" lon="9.24199297092855">
<ele>196.39999999999998</ele>
<time>2023-05-16T12:43:39Z</time>
</trkpt>
<trkpt lat="49.054852947592735" lon="9.241999927908182">
<ele>196.39999999999998</ele>
<time>2023-05-16T12:43:40Z</time>
</trkpt>
<trkpt lat="49.054852947592735" lon="9.241994982585311">
<ele>196.39999999999998</ele>
<time>2023-05-16T12:43:41Z</time>
</trkpt>
<trkpt lat="49.0548549592495" lon="9.242002945393324">
<ele>196.39999999999998</ele>
<time>2023-05-16T12:43:42Z</time>
</trkpt>
<trkpt lat="49.05486292205751" lon="9.242002945393324">
<ele>196.39999999999998</ele>
<time>2023-05-16T12:43:43Z</time>
</trkpt>
<trkpt lat="49.054872980341315" lon="9.241999927908182">
<ele>196.39999999999998</ele>
<time>2023-05-16T12:43:44Z</time>
</trkpt>
<trkpt lat="49.054876919835806" lon="9.24199297092855">
<ele>196.39999999999998</ele>
<time>2023-05-16T12:43:45Z</time>
</trkpt>
<trkpt lat="49.05487792566419" lon="9.241989953443408">
<ele>196.39999999999998</ele>
<time>2023-05-16T12:43:46Z</time>
</trkpt>
<trkpt lat="49.05487993732095" lon="9.241989953443408">
<ele>196.39999999999998</ele>
<time>2023-05-16T12:43:47Z</time>
</trkpt>
<trkpt lat="49.05488697811961" lon="9.241987941786647">
<ele>196.39999999999998</ele>
<time>2023-05-16T12:43:48Z</time>
</trkpt>
<trkpt lat="49.05489292927086" lon="9.241984924301505">
<ele>196.39999999999998</ele>
<time>2023-05-16T12:43:49Z</time>
</trkpt>
<trkpt lat="49.05489997006953" lon="9.241982996463776">
<ele>196.39999999999998</ele>
<time>2023-05-16T12:43:50Z</time>
</trkpt>
<trkpt lat="49.05489997006953" lon="9.241981990635395">
<ele>196.39999999999998</ele>
<time>2023-05-16T12:43:51Z</time>
</trkpt>
<trkpt lat="49.05490298755467" lon="9.241984924301505">
<ele>196.39999999999998</ele>
<time>2023-05-16T12:43:52Z</time>
</trkpt>
<trkpt lat="49.05490692704916" lon="9.241986935958266">
<ele>196.39999999999998</ele>
<time>2023-05-16T12:43:53Z</time>
</trkpt>
<trkpt lat="49.05492193065584" lon="9.241986935958266">
<ele>196.39999999999998</ele>
<time>2023-05-16T12:43:54Z</time>
</trkpt>
<trkpt lat="49.054936934262514" lon="9.24199297092855">
<ele>196.39999999999998</ele>
<time>2023-05-16T12:43:55Z</time>
</trkpt>
<trkpt lat="49.054956967011094" lon="9.241996994242072">
<ele>196.39999999999998</ele>
<time>2023-05-16T12:43:56Z</time>
</trkpt>
<trkpt lat="49.054957972839475" lon="9.242002945393324">
<ele>196.39999999999998</ele>
<time>2023-05-16T12:43:57Z</time>
</trkpt>
<trkpt lat="49.054959984496236" lon="9.24201199784875">
<ele>196.60000000000002</ele>
<time>2023-05-16T12:43:59Z</time>
</trkpt>
<trkpt lat="49.05496694147587" lon="9.24201493151486">
<ele>196.60000000000002</ele>
<time>2023-05-16T12:44:00Z</time>
</trkpt>
<trkpt lat="49.054979933425784" lon="9.24201694317162">
<ele>196.60000000000002</ele>
<time>2023-05-16T12:44:01Z</time>
</trkpt>
<trkpt lat="49.05496694147587" lon="9.242006968706846">
<ele>196.60000000000002</ele>
<time>2023-05-16T12:44:02Z</time>
</trkpt>
<trkpt lat="49.05495495535433" lon="9.24199196510017">
<ele>196.60000000000002</ele>
<time>2023-05-16T12:44:03Z</time>
</trkpt>
<trkpt lat="49.054956967011094" lon="9.241984924301505">
<ele>196.60000000000002</ele>
<time>2023-05-16T12:44:04Z</time>
</trkpt>
<trkpt lat="49.054957972839475" lon="9.241979978978634">
<ele>196.39999999999998</ele>
<time>2023-05-16T12:44:05Z</time>
</trkpt>
<trkpt lat="49.054959984496236" lon="9.241981990635395">
<ele>196.39999999999998</ele>
<time>2023-05-16T12:44:06Z</time>
</trkpt>
<trkpt lat="49.054962918162346" lon="9.24197293817997">
<ele>196.39999999999998</ele>
<time>2023-05-16T12:44:07Z</time>
</trkpt>
<trkpt lat="49.05486996285617" lon="9.242032952606678">
<ele>196.39999999999998</ele>
<time>2023-05-16T12:44:08Z</time>
</trkpt>
<trkpt lat="49.05486493371427" lon="9.24203496426344">
<ele>196.39999999999998</ele>
<time>2023-05-16T12:44:09Z</time>
</trkpt>
<trkpt lat="49.05486191622913" lon="9.242031946778297">
<ele>196.39999999999998</ele>
<time>2023-05-16T12:44:10Z</time>
</trkpt>
<trkpt lat="49.05486795119941" lon="9.242037981748581">
<ele>196.39999999999998</ele>
<time>2023-05-16T12:44:11Z</time>
</trkpt>
<trkpt lat="49.054874991998076" lon="9.242037981748581">
<ele>196.39999999999998</ele>
<time>2023-05-16T12:44:12Z</time>
</trkpt>
<trkpt lat="49.05488194897771" lon="9.2420369759202">
<ele>196.39999999999998</ele>
<time>2023-05-16T12:44:13Z</time>
</trkpt>
<trkpt lat="49.05489292927086" lon="9.242044938728213">
<ele>196.39999999999998</ele>
<time>2023-05-16T12:44:14Z</time>
</trkpt>
<trkpt lat="49.0549099445343" lon="9.2420369759202">
<ele>196.20000000000005</ele>
<time>2023-05-16T12:44:15Z</time>
</trkpt>
<trkpt lat="49.05492494814098" lon="9.242026917636395">
<ele>196.20000000000005</ele>
<time>2023-05-16T12:44:16Z</time>
</trkpt>
<trkpt lat="49.05492796562612" lon="9.242032952606678">
<ele>196.20000000000005</ele>
<time>2023-05-16T12:44:17Z</time>
</trkpt>
<trkpt lat="49.054937940090895" lon="9.24203496426344">
<ele>196.20000000000005</ele>
<time>2023-05-16T12:44:18Z</time>
</trkpt>
<trkpt lat="49.05494196340442" lon="9.2420369759202">
<ele>196.20000000000005</ele>
<time>2023-05-16T12:44:19Z</time>
</trkpt>
<trkpt lat="49.05494699254632" lon="9.242041921243072">
<ele>196.20000000000005</ele>
<time>2023-05-16T12:44:20Z</time>
</trkpt>
<trkpt lat="49.05494992621243" lon="9.24205499701202">
<ele>196.20000000000005</ele>
<time>2023-05-16T12:44:21Z</time>
</trkpt>
<trkpt lat="49.0549429692328" lon="9.242044938728213">
<ele>196.20000000000005</ele>
<time>2023-05-16T12:44:22Z</time>
</trkpt>
<trkpt lat="49.05495193786919" lon="9.242047956213355">
<ele>196.20000000000005</ele>
<time>2023-05-16T12:44:23Z</time>
</trkpt>
<trkpt lat="49.05495193786919" lon="9.24205499701202">
<ele>196.20000000000005</ele>
<time>2023-05-16T12:44:24Z</time>
</trkpt>
<trkpt lat="49.054956967011094" lon="9.242069916799664">
<ele>196.20000000000005</ele>
<time>2023-05-16T12:44:25Z</time>
</trkpt>
<trkpt lat="49.05494992621243" lon="9.24207796342671">
<ele>196.20000000000005</ele>
<time>2023-05-16T12:44:26Z</time>
</trkpt>
<trkpt lat="49.0549479983747" lon="9.24207997508347">
<ele>196.20000000000005</ele>
<time>2023-05-16T12:44:27Z</time>
</trkpt>
<trkpt lat="49.05492997728288" lon="9.242072934284806">
<ele>196.20000000000005</ele>
<time>2023-05-16T12:44:28Z</time>
</trkpt>
<trkpt lat="49.05491296201944" lon="9.242064971476793">
<ele>196.20000000000005</ele>
<time>2023-05-16T12:44:29Z</time>
</trkpt>
<trkpt lat="49.054917991161346" lon="9.242069916799664">
<ele>196.20000000000005</ele>
<time>2023-05-16T12:44:30Z</time>
</trkpt>
<trkpt lat="49.054917991161346" lon="9.242066983133554">
<ele>196.20000000000005</ele>
<time>2023-05-16T12:44:32Z</time>
</trkpt>
<trkpt lat="49.054917991161346" lon="9.242052985355258">
<ele>196.20000000000005</ele>
<time>2023-05-16T12:44:33Z</time>
</trkpt>
<trkpt lat="49.05492494814098" lon="9.24205499701202">
<ele>196.20000000000005</ele>
<time>2023-05-16T12:44:34Z</time>
</trkpt>
<trkpt lat="49.054917991161346" lon="9.242051979526877">
<ele>196.20000000000005</ele>
<time>2023-05-16T12:44:35Z</time>
</trkpt>
<trkpt lat="49.054916985332966" lon="9.242047956213355">
<ele>196.20000000000005</ele>
<time>2023-05-16T12:44:36Z</time>
</trkpt>
<trkpt lat="49.05491195619106" lon="9.242047956213355">
<ele>196.20000000000005</ele>
<time>2023-05-16T12:44:37Z</time>
</trkpt>
<trkpt lat="49.05491296201944" lon="9.242056924849749">
<ele>196.20000000000005</ele>
<time>2023-05-16T12:44:38Z</time>
</trkpt>
<trkpt lat="49.05490298755467" lon="9.24205994233489">
<ele>196.20000000000005</ele>
<time>2023-05-16T12:44:39Z</time>
</trkpt>
<trkpt lat="49.05489192344248" lon="9.242064971476793">
<ele>196.20000000000005</ele>
<time>2023-05-16T12:44:40Z</time>
</trkpt>
<trkpt lat="49.054872980341315" lon="9.242062959820032">
<ele>196.20000000000005</ele>
<time>2023-05-16T12:44:41Z</time>
</trkpt>
<trkpt lat="49.05484196729958" lon="9.242067988961935">
<ele>196.20000000000005</ele>
<time>2023-05-16T12:44:42Z</time>
</trkpt>
<trkpt lat="49.05484196729958" lon="9.242062959820032">
<ele>196.20000000000005</ele>
<time>2023-05-16T12:44:43Z</time>
</trkpt>
<trkpt lat="49.05484498478472" lon="9.24205994233489">
<ele>196.20000000000005</ele>
<time>2023-05-16T12:44:44Z</time>
</trkpt>
<trkpt lat="49.05484791845083" lon="9.242051979526877">
<ele>196.20000000000005</ele>
<time>2023-05-16T12:44:45Z</time>
</trkpt>
<trkpt lat="49.0548549592495" lon="9.242046950384974">
<ele>196.20000000000005</ele>
<time>2023-05-16T12:44:46Z</time>
</trkpt>
<trkpt lat="49.05485797673464" lon="9.2420369759202">
<ele>196.20000000000005</ele>
<time>2023-05-16T12:44:47Z</time>
</trkpt>
<trkpt lat="49.05486694537103" lon="9.24203496426344">
<ele>196.20000000000005</ele>
<time>2023-05-16T12:44:48Z</time>
</trkpt>
<trkpt lat="49.05486795119941" lon="9.242027923464775">
<ele>196.20000000000005</ele>
<time>2023-05-16T12:44:49Z</time>
</trkpt>
<trkpt lat="49.054874991998076" lon="9.24201493151486">
<ele>196.20000000000005</ele>
<time>2023-05-16T12:44:50Z</time>
</trkpt>
<trkpt lat="49.05488194897771" lon="9.242009986191988">
<ele>196.20000000000005</ele>
<time>2023-05-16T12:44:51Z</time>
</trkpt>
<trkpt lat="49.05487993732095" lon="9.241997916251421">
<ele>196.20000000000005</ele>
<time>2023-05-16T12:44:52Z</time>
</trkpt>
<trkpt lat="49.05488496646285" lon="9.241999927908182">
<ele>196.20000000000005</ele>
<time>2023-05-16T12:44:53Z</time>
</trkpt>
<trkpt lat="49.05488295480609" lon="9.241989953443408">
<ele>196.20000000000005</ele>
<time>2023-05-16T12:44:54Z</time>
</trkpt>
<trkpt lat="49.054872980341315" lon="9.241982996463776">
<ele>196.20000000000005</ele>
<time>2023-05-16T12:44:55Z</time>
</trkpt>
<trkpt lat="49.05483794398606" lon="9.241982996463776">
<ele>196.20000000000005</ele>
<time>2023-05-16T12:44:56Z</time>
</trkpt>
<trkpt lat="49.05481296591461" lon="9.241981990635395">
<ele>196.20000000000005</ele>
<time>2023-05-16T12:44:57Z</time>
</trkpt>
<trkpt lat="49.05481799505651" lon="9.241976961493492">
<ele>196.20000000000005</ele>
<time>2023-05-16T12:44:58Z</time>
</trkpt>
<trkpt lat="49.05481497757137" lon="9.241976961493492">
<ele>196.20000000000005</ele>
<time>2023-05-16T12:44:59Z</time>
</trkpt>
<trkpt lat="49.05481698922813" lon="9.241976961493492">
<ele>196.20000000000005</ele>
<time>2023-05-16T12:45:00Z</time>
</trkpt>
<trkpt lat="49.05481698922813" lon="9.241974949836731">
<ele>196.20000000000005</ele>
<time>2023-05-16T12:45:01Z</time>
</trkpt>
<trkpt lat="49.0548269636929" lon="9.24197293817997">
<ele>196.20000000000005</ele>
<time>2023-05-16T12:45:02Z</time>
</trkpt>
<trkpt lat="49.05483492650092" lon="9.241966987028718">
<ele>196.20000000000005</ele>
<time>2023-05-16T12:45:03Z</time>
</trkpt>
<trkpt lat="49.0548269636929" lon="9.241964975371957">
<ele>196.20000000000005</ele>
<time>2023-05-16T12:45:04Z</time>
</trkpt>
<trkpt lat="49.054821934551" lon="9.241977967321873">
<ele>196.20000000000005</ele>
<time>2023-05-16T12:45:05Z</time>
</trkpt>
<trkpt lat="49.05482495203614" lon="9.241979978978634">
<ele>196.20000000000005</ele>
<time>2023-05-16T12:45:06Z</time>
</trkpt>
<trkpt lat="49.054829981178045" lon="9.241984924301505">
<ele>196.20000000000005</ele>
<time>2023-05-16T12:45:07Z</time>
</trkpt>
<trkpt lat="49.05483995564282" lon="9.241996994242072">
<ele>196.20000000000005</ele>
<time>2023-05-16T12:45:08Z</time>
</trkpt>
<trkpt lat="49.05484498478472" lon="9.241999927908182">
<ele>196.20000000000005</ele>
<time>2023-05-16T12:45:09Z</time>
</trkpt>
<trkpt lat="49.054852947592735" lon="9.241996994242072">
<ele>196.20000000000005</ele>
<time>2023-05-16T12:45:10Z</time>
</trkpt>
<trkpt lat="49.05485797673464" lon="9.241997916251421">
<ele>196.20000000000005</ele>
<time>2023-05-16T12:45:11Z</time>
</trkpt>
<trkpt lat="49.05486292205751" lon="9.242001939564943">
<ele>196.20000000000005</ele>
<time>2023-05-16T12:45:12Z</time>
</trkpt>
<trkpt lat="49.054871974512935" lon="9.242019960656762">
<ele>196.20000000000005</ele>
<time>2023-05-16T12:45:13Z</time>
</trkpt>
<trkpt lat="49.05487792566419" lon="9.242019960656762">
<ele>196.20000000000005</ele>
<time>2023-05-16T12:45:14Z</time>
</trkpt>
<trkpt lat="49.05488496646285" lon="9.24201694317162">
<ele>196.20000000000005</ele>
<time>2023-05-16T12:45:15Z</time>
</trkpt>
<trkpt lat="49.054894940927625" lon="9.24205499701202">
<ele>196.20000000000005</ele>
<time>2023-05-16T12:45:16Z</time>
</trkpt>
<trkpt lat="49.054896952584386" lon="9.242086932063103">
<ele>196.20000000000005</ele>
<time>2023-05-16T12:45:17Z</time>
</trkpt>
<trkpt lat="49.05489292927086" lon="9.242086932063103">
<ele>196.20000000000005</ele>
<time>2023-05-16T12:45:18Z</time>
</trkpt>
<trkpt lat="49.05488999560475" lon="9.242081986740232">
<ele>196.20000000000005</ele>
<time>2023-05-16T12:45:19Z</time>
</trkpt>
<trkpt lat="49.05488295480609" lon="9.242076957598329">
<ele>196.20000000000005</ele>
<time>2023-05-16T12:45:20Z</time>
</trkpt>
<trkpt lat="49.05488194897771" lon="9.242067988961935">
<ele>196.20000000000005</ele>
<time>2023-05-16T12:45:21Z</time>
</trkpt>
<trkpt lat="49.054871974512935" lon="9.242067988961935">
<ele>196.20000000000005</ele>
<time>2023-05-16T12:45:22Z</time>
</trkpt>
<trkpt lat="49.05486292205751" lon="9.242067988961935">
<ele>196.20000000000005</ele>
<time>2023-05-16T12:45:23Z</time>
</trkpt>
<trkpt lat="49.05485797673464" lon="9.242072934284806">
<ele>196.20000000000005</ele>
<time>2023-05-16T12:45:24Z</time>
</trkpt>
<trkpt lat="49.05485797673464" lon="9.24207997508347">
<ele>196.20000000000005</ele>
<time>2023-05-16T12:45:25Z</time>
</trkpt>
<trkpt lat="49.0548599883914" lon="9.242089949548244">
<ele>196.20000000000005</ele>
<time>2023-05-16T12:45:26Z</time>
</trkpt>
<trkpt lat="49.0548549592495" lon="9.24210193566978">
<ele>196.20000000000005</ele>
<time>2023-05-16T12:45:27Z</time>
</trkpt>
<trkpt lat="49.05485797673464" lon="9.24210193566978">
<ele>196.20000000000005</ele>
<time>2023-05-16T12:45:28Z</time>
</trkpt>
<trkpt lat="49.05486795119941" lon="9.24210193566978">
<ele>196.20000000000005</ele>
<time>2023-05-16T12:45:29Z</time>
</trkpt>
<trkpt lat="49.05486795119941" lon="9.242087937891483">
<ele>196.20000000000005</ele>
<time>2023-05-16T12:45:30Z</time>
</trkpt>
<trkpt lat="49.05486795119941" lon="9.242086932063103">
<ele>196.20000000000005</ele>
<time>2023-05-16T12:45:31Z</time>
</trkpt>
<trkpt lat="49.05486996285617" lon="9.24207997508347">
<ele>196.20000000000005</ele>
<time>2023-05-16T12:45:32Z</time>
</trkpt>
<trkpt lat="49.054874991998076" lon="9.24207796342671">
<ele>196.20000000000005</ele>
<time>2023-05-16T12:45:33Z</time>
</trkpt>
<trkpt lat="49.05488295480609" lon="9.242072934284806">
<ele>196</ele>
<time>2023-05-16T12:45:34Z</time>
</trkpt>
<trkpt lat="49.05488798394799" lon="9.242062959820032">
<ele>196</ele>
<time>2023-05-16T12:45:35Z</time>
</trkpt>
<trkpt lat="49.05489192344248" lon="9.242062959820032">
<ele>196</ele>
<time>2023-05-16T12:45:36Z</time>
</trkpt>
<trkpt lat="49.054894940927625" lon="9.24205994233489">
<ele>196</ele>
<time>2023-05-16T12:45:37Z</time>
</trkpt>
<trkpt lat="49.05489292927086" lon="9.242056924849749">
<ele>196</ele>
<time>2023-05-16T12:45:38Z</time>
</trkpt>
<trkpt lat="49.054894940927625" lon="9.242061953991652">
<ele>196</ele>
<time>2023-05-16T12:45:39Z</time>
</trkpt>
<trkpt lat="49.05489192344248" lon="9.242052985355258">
<ele>196</ele>
<time>2023-05-16T12:45:40Z</time>
</trkpt>
<trkpt lat="49.05488798394799" lon="9.242044938728213">
<ele>196</ele>
<time>2023-05-16T12:45:41Z</time>
</trkpt>
<trkpt lat="49.05489292927086" lon="9.242042927071452">
<ele>196.20000000000005</ele>
<time>2023-05-16T12:45:42Z</time>
</trkpt>
<trkpt lat="49.05489795841277" lon="9.242039993405342">
<ele>196.20000000000005</ele>
<time>2023-05-16T12:45:43Z</time>
</trkpt>
<trkpt lat="49.05489795841277" lon="9.242041921243072">
<ele>196.20000000000005</ele>
<time>2023-05-16T12:45:44Z</time>
</trkpt>
<trkpt lat="49.05489795841277" lon="9.2420369759202">
<ele>196.20000000000005</ele>
<time>2023-05-16T12:45:45Z</time>
</trkpt>
<trkpt lat="49.054896952584386" lon="9.2420369759202">
<ele>196.20000000000005</ele>
<time>2023-05-16T12:45:46Z</time>
</trkpt>
<trkpt lat="49.05489795841277" lon="9.2420369759202">
<ele>196.20000000000005</ele>
<time>2023-05-16T12:45:47Z</time>
</trkpt>
<trkpt lat="49.054894940927625" lon="9.242037981748581">
<ele>196.20000000000005</ele>
<time>2023-05-16T12:45:48Z</time>
</trkpt>
<trkpt lat="49.054876919835806" lon="9.242051979526877">
<ele>196.20000000000005</ele>
<time>2023-05-16T12:45:48Z</time>
</trkpt>
<trkpt lat="49.05487792566419" lon="9.242046950384974">
<ele>196.20000000000005</ele>
<time>2023-05-16T12:45:49Z</time>
</trkpt>
<trkpt lat="49.05488194897771" lon="9.242042927071452">
<ele>196.20000000000005</ele>
<time>2023-05-16T12:45:50Z</time>
</trkpt>
<trkpt lat="49.05489192344248" lon="9.242041921243072">
<ele>196.20000000000005</ele>
<time>2023-05-16T12:45:51Z</time>
</trkpt>
<trkpt lat="49.05490198172629" lon="9.2420369759202">
<ele>196.20000000000005</ele>
<time>2023-05-16T12:45:52Z</time>
</trkpt>
<trkpt lat="49.05491195619106" lon="9.242021972313523">
<ele>196.20000000000005</ele>
<time>2023-05-16T12:45:53Z</time>
</trkpt>
<trkpt lat="49.054916985332966" lon="9.242022978141904">
<ele>196.20000000000005</ele>
<time>2023-05-16T12:45:54Z</time>
</trkpt>
<trkpt lat="49.054916985332966" lon="9.242024989798665">
<ele>196</ele>
<time>2023-05-16T12:45:55Z</time>
</trkpt>
<trkpt lat="49.0549099445343" lon="9.242031946778297">
<ele>196</ele>
<time>2023-05-16T12:45:56Z</time>
</trkpt>
<trkpt lat="49.05491296201944" lon="9.242027923464775">
<ele>196</ele>
<time>2023-05-16T12:45:57Z</time>
</trkpt>
<trkpt lat="49.05491296201944" lon="9.2420369759202">
<ele>196</ele>
<time>2023-05-16T12:45:58Z</time>
</trkpt>
<trkpt lat="49.05490298755467" lon="9.24205499701202">
<ele>196</ele>
<time>2023-05-16T12:45:59Z</time>
</trkpt>
<trkpt lat="49.05490198172629" lon="9.242044938728213">
<ele>196</ele>
<time>2023-05-16T12:46:00Z</time>
</trkpt>
<trkpt lat="49.05490499921143" lon="9.242027923464775">
<ele>196</ele>
<time>2023-05-16T12:46:01Z</time>
</trkpt>
<trkpt lat="49.054894940927625" lon="9.242031946778297">
<ele>196</ele>
<time>2023-05-16T12:46:02Z</time>
</trkpt>
<trkpt lat="49.05488295480609" lon="9.242007974535227">
<ele>196</ele>
<time>2023-05-16T12:46:03Z</time>
</trkpt>
<trkpt lat="49.05488999560475" lon="9.242001939564943">
<ele>196</ele>
<time>2023-05-16T12:46:04Z</time>
</trkpt>
<trkpt lat="49.05489795841277" lon="9.241994982585311">
<ele>196</ele>
<time>2023-05-16T12:46:05Z</time>
</trkpt>
<trkpt lat="49.05490298755467" lon="9.241989953443408">
<ele>196</ele>
<time>2023-05-16T12:46:06Z</time>
</trkpt>
<trkpt lat="49.054896952584386" lon="9.241982996463776">
<ele>196</ele>
<time>2023-05-16T12:46:07Z</time>
</trkpt>
<trkpt lat="49.05490198172629" lon="9.241962963715196">
<ele>196</ele>
<time>2023-05-16T12:46:08Z</time>
</trkpt>
<trkpt lat="49.054894940927625" lon="9.241954917088151">
<ele>196</ele>
<time>2023-05-16T12:46:09Z</time>
</trkpt>
<trkpt lat="49.054896952584386" lon="9.241957934573293">
<ele>196</ele>
<time>2023-05-16T12:46:10Z</time>
</trkpt>
<trkpt lat="49.05489192344248" lon="9.24194997176528">
<ele>196</ele>
<time>2023-05-16T12:46:11Z</time>
</trkpt>
<trkpt lat="49.05488798394799" lon="9.241957934573293">
<ele>196</ele>
<time>2023-05-16T12:46:12Z</time>
</trkpt>
<trkpt lat="49.05488295480609" lon="9.241966987028718">
<ele>196</ele>
<time>2023-05-16T12:46:13Z</time>
</trkpt>
<trkpt lat="49.05487993732095" lon="9.241974949836731">
<ele>196</ele>
<time>2023-05-16T12:46:14Z</time>
</trkpt>
<trkpt lat="49.05486996285617" lon="9.241974949836731">
<ele>196</ele>
<time>2023-05-16T12:46:15Z</time>
</trkpt>
<trkpt lat="49.0548599883914" lon="9.241951983422041">
<ele>196</ele>
<time>2023-05-16T12:46:16Z</time>
</trkpt>
<trkpt lat="49.0548549592495" lon="9.241909990087152">
<ele>196</ele>
<time>2023-05-16T12:46:17Z</time>
</trkpt>
<trkpt lat="49.05484297312796" lon="9.241892974823713">
<ele>196</ele>
<time>2023-05-16T12:46:18Z</time>
</trkpt>
<trkpt lat="49.05482495203614" lon="9.241884928196669">
<ele>196</ele>
<time>2023-05-16T12:46:19Z</time>
</trkpt>
<trkpt lat="49.054821934551" lon="9.241897920146585">
<ele>196</ele>
<time>2023-05-16T12:46:20Z</time>
</trkpt>
<trkpt lat="49.05481296591461" lon="9.241892974823713">
<ele>196</ele>
<time>2023-05-16T12:46:21Z</time>
</trkpt>
<trkpt lat="49.054807936772704" lon="9.24190797843039">
<ele>196</ele>
<time>2023-05-16T12:46:22Z</time>
</trkpt>
<trkpt lat="49.05480693094432" lon="9.24190797843039">
<ele>196</ele>
<time>2023-05-16T12:46:23Z</time>
</trkpt>
<trkpt lat="49.05481698922813" lon="9.241857938468456">
<ele>196</ele>
<time>2023-05-16T12:46:24Z</time>
</trkpt>
<trkpt lat="49.05482294037938" lon="9.241861961781979">
<ele>196</ele>
<time>2023-05-16T12:46:25Z</time>
</trkpt>
<trkpt lat="49.05480693094432" lon="9.241839917376637">
<ele>196</ele>
<time>2023-05-16T12:46:26Z</time>
</trkpt>
<trkpt lat="49.05478999949992" lon="9.241802953183651">
<ele>196</ele>
<time>2023-05-16T12:46:27Z</time>
</trkpt>
<trkpt lat="49.054784970358014" lon="9.241786943748593">
<ele>196</ele>
<time>2023-05-16T12:46:28Z</time>
</trkpt>
<trkpt lat="49.054786982014775" lon="9.241759954020381">
<ele>196</ele>
<time>2023-05-16T12:46:29Z</time>
</trkpt>
<trkpt lat="49.054787987843156" lon="9.241724917665124">
<ele>196</ele>
<time>2023-05-16T12:46:30Z</time>
</trkpt>
<trkpt lat="49.054784970358014" lon="9.241704968735576">
<ele>196</ele>
<time>2023-05-16T12:46:31Z</time>
</trkpt>
<trkpt lat="49.05477499589324" lon="9.24171494320035">
<ele>196</ele>
<time>2023-05-16T12:46:32Z</time>
</trkpt>
<trkpt lat="49.054786982014775" lon="9.241712931543589">
<ele>196</ele>
<time>2023-05-16T12:46:33Z</time>
</trkpt>
<trkpt lat="49.054786982014775" lon="9.241716954857111">
<ele>196</ele>
<time>2023-05-16T12:46:34Z</time>
</trkpt>
<trkpt lat="49.05477298423648" lon="9.24175794236362">
<ele>196</ele>
<time>2023-05-16T12:46:35Z</time>
</trkpt>
<trkpt lat="49.054764937609434" lon="9.241792978718877">
<ele>196</ele>
<time>2023-05-16T12:46:36Z</time>
</trkpt>
<trkpt lat="49.054766949266195" lon="9.24180194735527">
<ele>196</ele>
<time>2023-05-16T12:46:37Z</time>
</trkpt>
<trkpt lat="49.0547579806298" lon="9.241812927648425">
<ele>196</ele>
<time>2023-05-16T12:46:38Z</time>
</trkpt>
<trkpt lat="49.05475697480142" lon="9.241827931255102">
<ele>196</ele>
<time>2023-05-16T12:46:39Z</time>
</trkpt>
<trkpt lat="49.05475999228656" lon="9.241836983710527">
<ele>196</ele>
<time>2023-05-16T12:46:40Z</time>
</trkpt>
<trkpt lat="49.054747922345996" lon="9.241847964003682">
<ele>196</ele>
<time>2023-05-16T12:46:41Z</time>
</trkpt>
<trkpt lat="49.05472797341645" lon="9.241879982873797">
<ele>195.79999999999995</ele>
<time>2023-05-16T12:46:42Z</time>
</trkpt>
<trkpt lat="49.054724955931306" lon="9.241891968995333">
<ele>195.79999999999995</ele>
<time>2023-05-16T12:46:43Z</time>
</trkpt>
<trkpt lat="49.054722944274545" lon="9.241901943460107">
<ele>195.79999999999995</ele>
<time>2023-05-16T12:46:44Z</time>
</trkpt>
<trkpt lat="49.05472998507321" lon="9.241947960108519">
<ele>195.79999999999995</ele>
<time>2023-05-16T12:46:45Z</time>
</trkpt>
<trkpt lat="49.054742977023125" lon="9.241964975371957">
<ele>195.79999999999995</ele>
<time>2023-05-16T12:46:46Z</time>
</trkpt>
<trkpt lat="49.05476192012429" lon="9.241974949836731">
<ele>195.79999999999995</ele>
<time>2023-05-16T12:46:47Z</time>
</trkpt>
<trkpt lat="49.0547719784081" lon="9.241979978978634">
<ele>195.79999999999995</ele>
<time>2023-05-16T12:46:48Z</time>
</trkpt>
<trkpt lat="49.05477792955935" lon="9.241984924301505">
<ele>195.79999999999995</ele>
<time>2023-05-16T12:46:49Z</time>
</trkpt>
<trkpt lat="49.054786982014775" lon="9.241989953443408">
<ele>195.79999999999995</ele>
<time>2023-05-16T12:46:50Z</time>
</trkpt>
<trkpt lat="49.054786982014775" lon="9.241981990635395">
<ele>195.79999999999995</ele>
<time>2023-05-16T12:46:52Z</time>
</trkpt>
<trkpt lat="49.05479192733765" lon="9.241987941786647">
<ele>195.79999999999995</ele>
<time>2023-05-16T12:46:53Z</time>
</trkpt>
<trkpt lat="49.05479695647955" lon="9.24199196510017">
<ele>195.79999999999995</ele>
<time>2023-05-16T12:46:54Z</time>
</trkpt>
<trkpt lat="49.05481698922813" lon="9.242029935121536">
<ele>195.79999999999995</ele>
<time>2023-05-16T12:46:55Z</time>
</trkpt>
<trkpt lat="49.05482294037938" lon="9.242026917636395">
<ele>195.79999999999995</ele>
<time>2023-05-16T12:46:56Z</time>
</trkpt>
<trkpt lat="49.054827969521284" lon="9.242022978141904">
<ele>195.60000000000002</ele>
<time>2023-05-16T12:46:57Z</time>
</trkpt>
<trkpt lat="49.054831992834806" lon="9.242017949000001">
<ele>195.60000000000002</ele>
<time>2023-05-16T12:46:58Z</time>
</trkpt>
<trkpt lat="49.05483693815768" lon="9.242009986191988">
<ele>195.60000000000002</ele>
<time>2023-05-16T12:46:59Z</time>
</trkpt>
<trkpt lat="49.05484196729958" lon="9.242002945393324">
<ele>195.60000000000002</ele>
<time>2023-05-16T12:47:00Z</time>
</trkpt>
<trkpt lat="49.05484196729958" lon="9.241997916251421">
<ele>195.60000000000002</ele>
<time>2023-05-16T12:47:01Z</time>
</trkpt>
<trkpt lat="49.05484699644148" lon="9.241994982585311">
<ele>195.60000000000002</ele>
<time>2023-05-16T12:47:02Z</time>
</trkpt>
<trkpt lat="49.054852947592735" lon="9.241987941786647">
<ele>195.60000000000002</ele>
<time>2023-05-16T12:47:03Z</time>
</trkpt>
<trkpt lat="49.05486191622913" lon="9.241982996463776">
<ele>195.60000000000002</ele>
<time>2023-05-16T12:47:04Z</time>
</trkpt>
<trkpt lat="49.05486292205751" lon="9.241987941786647">
<ele>195.60000000000002</ele>
<time>2023-05-16T12:47:05Z</time>
</trkpt>
<trkpt lat="49.05486493371427" lon="9.241987941786647">
<ele>195.60000000000002</ele>
<time>2023-05-16T12:47:06Z</time>
</trkpt>
<trkpt lat="49.05486493371427" lon="9.241982996463776">
<ele>195.60000000000002</ele>
<time>2023-05-16T12:47:07Z</time>
</trkpt>
<trkpt lat="49.05486292205751" lon="9.241984924301505">
<ele>195.60000000000002</ele>
<time>2023-05-16T12:47:08Z</time>
</trkpt>
<trkpt lat="49.05486191622913" lon="9.241986935958266">
<ele>195.60000000000002</ele>
<time>2023-05-16T12:47:09Z</time>
</trkpt>
<trkpt lat="49.05485697090626" lon="9.24199196510017">
<ele>195.60000000000002</ele>
<time>2023-05-16T12:47:10Z</time>
</trkpt>
<trkpt lat="49.05484791845083" lon="9.241996994242072">
<ele>195.60000000000002</ele>
<time>2023-05-16T12:47:11Z</time>
</trkpt>
<trkpt lat="49.05484993010759" lon="9.24199297092855">
<ele>195.60000000000002</ele>
<time>2023-05-16T12:47:12Z</time>
</trkpt>
<trkpt lat="49.054851941764355" lon="9.24199196510017">
<ele>195.60000000000002</ele>
<time>2023-05-16T12:47:13Z</time>
</trkpt>
<trkpt lat="49.054852947592735" lon="9.242001939564943">
<ele>195.60000000000002</ele>
<time>2023-05-16T12:47:14Z</time>
</trkpt>
<trkpt lat="49.05486191622913" lon="9.24201199784875">
<ele>195.60000000000002</ele>
<time>2023-05-16T12:47:15Z</time>
</trkpt>
<trkpt lat="49.05486694537103" lon="9.24201199784875">
<ele>195.60000000000002</ele>
<time>2023-05-16T12:47:16Z</time>
</trkpt>
<trkpt lat="49.05486292205751" lon="9.24201199784875">
<ele>195.60000000000002</ele>
<time>2023-05-16T12:47:17Z</time>
</trkpt>
<trkpt lat="49.05486795119941" lon="9.242006968706846">
<ele>195.60000000000002</ele>
<time>2023-05-16T12:47:18Z</time>
</trkpt>
<trkpt lat="49.05486795119941" lon="9.242002945393324">
<ele>195.79999999999995</ele>
<time>2023-05-16T12:47:19Z</time>
</trkpt>
<trkpt lat="49.054831992834806" lon="9.242052985355258">
<ele>196.20000000000005</ele>
<time>2023-05-16T12:47:20Z</time>
</trkpt>
<trkpt lat="49.054829981178045" lon="9.242051979526877">
<ele>196</ele>
<time>2023-05-16T12:47:21Z</time>
</trkpt>
<trkpt lat="49.05481799505651" lon="9.242052985355258">
<ele>196</ele>
<time>2023-05-16T12:47:22Z</time>
</trkpt>
<trkpt lat="49.05481992289424" lon="9.242056924849749">
<ele>196</ele>
<time>2023-05-16T12:47:23Z</time>
</trkpt>
<trkpt lat="49.05478195287287" lon="9.24205499701202">
<ele>196</ele>
<time>2023-05-16T12:47:26Z</time>
</trkpt>
<trkpt lat="49.05477994121611" lon="9.24205793067813">
<ele>196</ele>
<time>2023-05-16T12:47:27Z</time>
</trkpt>
<trkpt lat="49.05476996675134" lon="9.242052985355258">
<ele>196</ele>
<time>2023-05-16T12:47:28Z</time>
</trkpt>
<trkpt lat="49.05475999228656" lon="9.242061953991652">
<ele>196</ele>
<time>2023-05-16T12:47:29Z</time>
</trkpt>
<trkpt lat="49.0547579806298" lon="9.242052985355258">
<ele>196</ele>
<time>2023-05-16T12:47:30Z</time>
</trkpt>
<trkpt lat="49.05475496314466" lon="9.242041921243072">
<ele>196</ele>
<time>2023-05-16T12:47:31Z</time>
</trkpt>
<trkpt lat="49.0547529514879" lon="9.2420369759202">
<ele>196</ele>
<time>2023-05-16T12:47:32Z</time>
</trkpt>
<trkpt lat="49.054744988679886" lon="9.242039993405342">
<ele>196</ele>
<time>2023-05-16T12:47:33Z</time>
</trkpt>
<trkpt lat="49.05475194565952" lon="9.242039993405342">
<ele>196</ele>
<time>2023-05-16T12:47:34Z</time>
</trkpt>
<trkpt lat="49.0547579806298" lon="9.242037981748581">
<ele>196</ele>
<time>2023-05-16T12:47:35Z</time>
</trkpt>
<trkpt lat="49.05473199672997" lon="9.242037981748581">
<ele>196</ele>
<time>2023-05-16T12:47:36Z</time>
</trkpt>
<trkpt lat="49.054721938446164" lon="9.242017949000001">
<ele>196</ele>
<time>2023-05-16T12:47:37Z</time>
</trkpt>
<trkpt lat="49.05470794066787" lon="9.242012919858098">
<ele>196</ele>
<time>2023-05-16T12:47:38Z</time>
</trkpt>
<trkpt lat="49.054704923182726" lon="9.242002945393324">
<ele>196</ele>
<time>2023-05-16T12:47:39Z</time>
</trkpt>
<trkpt lat="49.05469796620309" lon="9.242002945393324">
<ele>196.20000000000005</ele>
<time>2023-05-16T12:47:40Z</time>
</trkpt>
<trkpt lat="49.05469293706119" lon="9.241997916251421">
<ele>196.20000000000005</ele>
<time>2023-05-16T12:47:41Z</time>
</trkpt>
<trkpt lat="49.054702995345" lon="9.241997916251421">
<ele>196.20000000000005</ele>
<time>2023-05-16T12:47:42Z</time>
</trkpt>
<trkpt lat="49.05471498146653" lon="9.241989953443408">
<ele>196.20000000000005</ele>
<time>2023-05-16T12:47:43Z</time>
</trkpt>
<trkpt lat="49.054721938446164" lon="9.241987941786647">
<ele>196.39999999999998</ele>
<time>2023-05-16T12:47:44Z</time>
</trkpt>
<trkpt lat="49.05472998507321" lon="9.241977967321873">
<ele>196.39999999999998</ele>
<time>2023-05-16T12:47:45Z</time>
</trkpt>
<trkpt lat="49.054741971194744" lon="9.241974949836731">
<ele>196.39999999999998</ele>
<time>2023-05-16T12:47:46Z</time>
</trkpt>
<trkpt lat="49.05475194565952" lon="9.241981990635395">
<ele>196.39999999999998</ele>
<time>2023-05-16T12:47:47Z</time>
</trkpt>
<trkpt lat="49.0547579806298" lon="9.241986935958266">
<ele>196.39999999999998</ele>
<time>2023-05-16T12:47:48Z</time>
</trkpt>
<trkpt lat="49.054766949266195" lon="9.241997916251421">
<ele>196.39999999999998</ele>
<time>2023-05-16T12:47:49Z</time>
</trkpt>
<trkpt lat="49.05477499589324" lon="9.242012919858098">
<ele>196.39999999999998</ele>
<time>2023-05-16T12:47:50Z</time>
</trkpt>
<trkpt lat="49.054767955094576" lon="9.241997916251421">
<ele>196.39999999999998</ele>
<time>2023-05-16T12:47:51Z</time>
</trkpt>
<trkpt lat="49.05477298423648" lon="9.242009986191988">
<ele>196.39999999999998</ele>
<time>2023-05-16T12:47:52Z</time>
</trkpt>
<trkpt lat="49.05477499589324" lon="9.242012919858098">
<ele>196.39999999999998</ele>
<time>2023-05-16T12:47:54Z</time>
</trkpt>
<trkpt lat="49.05477499589324" lon="9.242017949000001">
<ele>196.39999999999998</ele>
<time>2023-05-16T12:47:55Z</time>
</trkpt>
<trkpt lat="49.05477499589324" lon="9.242024989798665">
<ele>196.39999999999998</ele>
<time>2023-05-16T12:47:56Z</time>
</trkpt>
<trkpt lat="49.054831992834806" lon="9.242152981460094">
<ele>196.20000000000005</ele>
<time>2023-05-16T12:47:56Z</time>
</trkpt>
<trkpt lat="49.05482294037938" lon="9.242152981460094">
<ele>196.20000000000005</ele>
<time>2023-05-16T12:47:57Z</time>
</trkpt>
<trkpt lat="49.05481698922813" lon="9.242156920954585">
<ele>196.20000000000005</ele>
<time>2023-05-16T12:47:58Z</time>
</trkpt>
<trkpt lat="49.05481196008623" lon="9.242157926782966">
<ele>196.20000000000005</ele>
<time>2023-05-16T12:47:59Z</time>
</trkpt>
<trkpt lat="49.05479494482279" lon="9.242156920954585">
<ele>196.20000000000005</ele>
<time>2023-05-16T12:48:01Z</time>
</trkpt>
<trkpt lat="49.05479796230793" lon="9.242156920954585">
<ele>196.20000000000005</ele>
<time>2023-05-16T12:48:02Z</time>
</trkpt>
<trkpt lat="49.05480299144983" lon="9.242141917347908">
<ele>196.20000000000005</ele>
<time>2023-05-16T12:48:03Z</time>
</trkpt>
<trkpt lat="49.05480693094432" lon="9.242132948711514">
<ele>196.20000000000005</ele>
<time>2023-05-16T12:48:04Z</time>
</trkpt>
<trkpt lat="49.05481698922813" lon="9.242112999781966">
<ele>196.20000000000005</ele>
<time>2023-05-16T12:48:05Z</time>
</trkpt>
<trkpt lat="49.05481196008623" lon="9.24209799617529">
<ele>196.20000000000005</ele>
<time>2023-05-16T12:48:06Z</time>
</trkpt>
<trkpt lat="49.05480299144983" lon="9.242081986740232">
<ele>196.20000000000005</ele>
<time>2023-05-16T12:48:07Z</time>
</trkpt>
<trkpt lat="49.05479494482279" lon="9.242047956213355">
<ele>196.20000000000005</ele>
<time>2023-05-16T12:48:08Z</time>
</trkpt>
<trkpt lat="49.054742977023125" lon="9.242019960656762">
<ele>196.20000000000005</ele>
<time>2023-05-16T12:48:09Z</time>
</trkpt>
<trkpt lat="49.05470995232463" lon="9.242027923464775">
<ele>196</ele>
<time>2023-05-16T12:48:10Z</time>
</trkpt>
<trkpt lat="49.05468698590994" lon="9.242037981748581">
<ele>196</ele>
<time>2023-05-16T12:48:11Z</time>
</trkpt>
<trkpt lat="49.05467793345451" lon="9.242041921243072">
<ele>196</ele>
<time>2023-05-16T12:48:12Z</time>
</trkpt>
<trkpt lat="49.05467198230326" lon="9.242046950384974">
<ele>196</ele>
<time>2023-05-16T12:48:13Z</time>
</trkpt>
<trkpt lat="49.05466795898974" lon="9.242081986740232">
<ele>196</ele>
<time>2023-05-16T12:48:14Z</time>
</trkpt>
<trkpt lat="49.0546749997884" lon="9.242072934284806">
<ele>196</ele>
<time>2023-05-16T12:48:16Z</time>
</trkpt>
<trkpt lat="49.05467793345451" lon="9.242062959820032">
<ele>195.79999999999995</ele>
<time>2023-05-16T12:48:17Z</time>
</trkpt>
<trkpt lat="49.05467692762613" lon="9.242084920406342">
<ele>195.79999999999995</ele>
<time>2023-05-16T12:48:18Z</time>
</trkpt>
<trkpt lat="49.05467198230326" lon="9.242072934284806">
<ele>195.79999999999995</ele>
<time>2023-05-16T12:48:19Z</time>
</trkpt>
<trkpt lat="49.054679945111275" lon="9.242061953991652">
<ele>195.79999999999995</ele>
<time>2023-05-16T12:48:20Z</time>
</trkpt>
<trkpt lat="49.05468698590994" lon="9.24205499701202">
<ele>195.79999999999995</ele>
<time>2023-05-16T12:48:21Z</time>
</trkpt>
<trkpt lat="49.054657984524965" lon="9.242076957598329">
<ele>195.79999999999995</ele>
<time>2023-05-16T12:48:22Z</time>
</trkpt>
<trkpt lat="49.05464499257505" lon="9.242092967033386">
<ele>195.79999999999995</ele>
<time>2023-05-16T12:48:24Z</time>
</trkpt>
<trkpt lat="49.05465295538306" lon="9.24207796342671">
<ele>195.79999999999995</ele>
<time>2023-05-16T12:48:25Z</time>
</trkpt>
<trkpt lat="49.05465999618173" lon="9.242067988961935">
<ele>196</ele>
<time>2023-05-16T12:48:26Z</time>
</trkpt>
<trkpt lat="49.054661924019456" lon="9.242046950384974">
<ele>196</ele>
<time>2023-05-16T12:48:27Z</time>
</trkpt>
<trkpt lat="49.05466795898974" lon="9.24201694317162">
<ele>196</ele>
<time>2023-05-16T12:48:28Z</time>
</trkpt>
<trkpt lat="49.0546749997884" lon="9.24199196510017">
<ele>196</ele>
<time>2023-05-16T12:48:29Z</time>
</trkpt>
<trkpt lat="49.05467793345451" lon="9.241966987028718">
<ele>196</ele>
<time>2023-05-16T12:48:30Z</time>
</trkpt>
<trkpt lat="49.05468698590994" lon="9.241957934573293">
<ele>196</ele>
<time>2023-05-16T12:48:31Z</time>
</trkpt>
<trkpt lat="49.05469293706119" lon="9.241954917088151">
<ele>196</ele>
<time>2023-05-16T12:48:32Z</time>
</trkpt>
<trkpt lat="49.054699977859855" lon="9.241966987028718">
<ele>196</ele>
<time>2023-05-16T12:48:33Z</time>
</trkpt>
<trkpt lat="49.05470995232463" lon="9.241974949836731">
<ele>196</ele>
<time>2023-05-16T12:48:34Z</time>
</trkpt>
<trkpt lat="49.05471498146653" lon="9.241979978978634">
<ele>196</ele>
<time>2023-05-16T12:48:35Z</time>
</trkpt>
<trkpt lat="49.05471799895167" lon="9.241986935958266">
<ele>196</ele>
<time>2023-05-16T12:48:36Z</time>
</trkpt>
<trkpt lat="49.05472797341645" lon="9.24199297092855">
<ele>196</ele>
<time>2023-05-16T12:48:37Z</time>
</trkpt>
<trkpt lat="49.054742977023125" lon="9.241997916251421">
<ele>196</ele>
<time>2023-05-16T12:48:38Z</time>
</trkpt>
<trkpt lat="49.054741971194744" lon="9.241999927908182">
<ele>196</ele>
<time>2023-05-16T12:48:39Z</time>
</trkpt>
<trkpt lat="49.054746916517615" lon="9.242001939564943">
<ele>196</ele>
<time>2023-05-16T12:48:40Z</time>
</trkpt>
<trkpt lat="49.05475194565952" lon="9.241999927908182">
<ele>196</ele>
<time>2023-05-16T12:48:41Z</time>
</trkpt>
<trkpt lat="49.054766949266195" lon="9.242012919858098">
<ele>196</ele>
<time>2023-05-16T12:48:42Z</time>
</trkpt>
<trkpt lat="49.054766949266195" lon="9.242006968706846">
<ele>196</ele>
<time>2023-05-16T12:48:43Z</time>
</trkpt>
<trkpt lat="49.054767955094576" lon="9.242004957050085">
<ele>195.79999999999995</ele>
<time>2023-05-16T12:48:44Z</time>
</trkpt>
<trkpt lat="49.05476292595267" lon="9.242009986191988">
<ele>195.79999999999995</ele>
<time>2023-05-16T12:48:45Z</time>
</trkpt>
<trkpt lat="49.0547719784081" lon="9.24201493151486">
<ele>195.79999999999995</ele>
<time>2023-05-16T12:48:46Z</time>
</trkpt>
<trkpt lat="49.05477792955935" lon="9.242017949000001">
<ele>195.79999999999995</ele>
<time>2023-05-16T12:48:47Z</time>
</trkpt>
<trkpt lat="49.05478195287287" lon="9.242026917636395">
<ele>195.79999999999995</ele>
<time>2023-05-16T12:48:48Z</time>
</trkpt>
<trkpt lat="49.054786982014775" lon="9.242024989798665">
<ele>195.79999999999995</ele>
<time>2023-05-16T12:48:49Z</time>
</trkpt>
<trkpt lat="49.054787987843156" lon="9.242024989798665">
<ele>195.79999999999995</ele>
<time>2023-05-16T12:48:50Z</time>
</trkpt>
<trkpt lat="49.05479192733765" lon="9.241927927359939">
<ele>196</ele>
<time>2023-05-16T12:48:51Z</time>
</trkpt>
<trkpt lat="49.054787987843156" lon="9.241927927359939">
<ele>196</ele>
<time>2023-05-16T12:48:52Z</time>
</trkpt>
<trkpt lat="49.054786982014775" lon="9.241931950673461">
<ele>196</ele>
<time>2023-05-16T12:48:53Z</time>
</trkpt>
<trkpt lat="49.054787987843156" lon="9.241941925138235">
<ele>196</ele>
<time>2023-05-16T12:48:54Z</time>
</trkpt>
<trkpt lat="49.054786982014775" lon="9.241942930966616">
<ele>196</ele>
<time>2023-05-16T12:48:55Z</time>
</trkpt>
<trkpt lat="49.05478999949992" lon="9.241939997300506">
<ele>196</ele>
<time>2023-05-16T12:48:56Z</time>
</trkpt>
<trkpt lat="49.05491195619106" lon="9.241997916251421">
<ele>195.79999999999995</ele>
<time>2023-05-16T12:48:56Z</time>
</trkpt>
<trkpt lat="49.05491296201944" lon="9.242006968706846">
<ele>195.79999999999995</ele>
<time>2023-05-16T12:48:57Z</time>
</trkpt>
<trkpt lat="49.054917991161346" lon="9.242012919858098">
<ele>195.79999999999995</ele>
<time>2023-05-16T12:48:58Z</time>
</trkpt>
<trkpt lat="49.05493299476802" lon="9.24201694317162">
<ele>195.79999999999995</ele>
<time>2023-05-16T12:48:59Z</time>
</trkpt>
<trkpt lat="49.05492293648422" lon="9.242012919858098">
<ele>195.79999999999995</ele>
<time>2023-05-16T12:49:00Z</time>
</trkpt>
<trkpt lat="49.05493492260575" lon="9.242027923464775">
<ele>195.79999999999995</ele>
<time>2023-05-16T12:49:01Z</time>
</trkpt>
<trkpt lat="49.05493299476802" lon="9.242027923464775">
<ele>195.79999999999995</ele>
<time>2023-05-16T12:49:02Z</time>
</trkpt>
<trkpt lat="49.054957972839475" lon="9.242042927071452">
<ele>195.79999999999995</ele>
<time>2023-05-16T12:49:04Z</time>
</trkpt>
<trkpt lat="49.054961996153" lon="9.242044938728213">
<ele>195.79999999999995</ele>
<time>2023-05-16T12:49:05Z</time>
</trkpt>
<trkpt lat="49.05496995896101" lon="9.242042927071452">
<ele>195.79999999999995</ele>
<time>2023-05-16T12:49:06Z</time>
</trkpt>
<trkpt lat="49.05497297644615" lon="9.242041921243072">
<ele>195.79999999999995</ele>
<time>2023-05-16T12:49:07Z</time>
</trkpt>
<trkpt lat="49.05497498810291" lon="9.242037981748581">
<ele>195.79999999999995</ele>
<time>2023-05-16T12:49:08Z</time>
</trkpt>
<trkpt lat="49.05496492981911" lon="9.242026917636395">
<ele>195.79999999999995</ele>
<time>2023-05-16T12:49:09Z</time>
</trkpt>
<trkpt lat="49.0549479983747" lon="9.24201694317162">
<ele>195.79999999999995</ele>
<time>2023-05-16T12:49:10Z</time>
</trkpt>
<trkpt lat="49.05493299476802" lon="9.24201199784875">
<ele>195.79999999999995</ele>
<time>2023-05-16T12:49:11Z</time>
</trkpt>
<trkpt lat="49.054914973676205" lon="9.242004957050085">
<ele>195.79999999999995</ele>
<time>2023-05-16T12:49:12Z</time>
</trkpt>
<trkpt lat="49.05489292927086" lon="9.241994982585311">
<ele>195.79999999999995</ele>
<time>2023-05-16T12:49:13Z</time>
</trkpt>
<trkpt lat="49.05488295480609" lon="9.241987941786647">
<ele>195.79999999999995</ele>
<time>2023-05-16T12:49:14Z</time>
</trkpt>
<trkpt lat="49.054874991998076" lon="9.241984924301505">
<ele>195.79999999999995</ele>
<time>2023-05-16T12:49:15Z</time>
</trkpt>
<trkpt lat="49.05486795119941" lon="9.241982996463776">
<ele>195.79999999999995</ele>
<time>2023-05-16T12:49:16Z</time>
</trkpt>
<trkpt lat="49.054871974512935" lon="9.241974949836731">
<ele>195.79999999999995</ele>
<time>2023-05-16T12:49:17Z</time>
</trkpt>
<trkpt lat="49.05486795119941" lon="9.241969920694828">
<ele>195.79999999999995</ele>
<time>2023-05-16T12:49:18Z</time>
</trkpt>
<trkpt lat="49.05486795119941" lon="9.241959946230054">
<ele>195.79999999999995</ele>
<time>2023-05-16T12:49:19Z</time>
</trkpt>
<trkpt lat="49.05486292205751" lon="9.24194997176528">
<ele>195.79999999999995</ele>
<time>2023-05-16T12:49:20Z</time>
</trkpt>
<trkpt lat="49.0548599883914" lon="9.241934968158603">
<ele>195.79999999999995</ele>
<time>2023-05-16T12:49:21Z</time>
</trkpt>
<trkpt lat="49.054852947592735" lon="9.241922982037067">
<ele>195.79999999999995</ele>
<time>2023-05-16T12:49:22Z</time>
</trkpt>
<trkpt lat="49.05484297312796" lon="9.241917952895164">
<ele>195.79999999999995</ele>
<time>2023-05-16T12:49:23Z</time>
</trkpt>
<trkpt lat="49.05483794398606" lon="9.241912923753262">
<ele>195.79999999999995</ele>
<time>2023-05-16T12:49:24Z</time>
</trkpt>
<trkpt lat="49.05483794398606" lon="9.241904960945249">
<ele>195.79999999999995</ele>
<time>2023-05-16T12:49:25Z</time>
</trkpt>
<trkpt lat="49.05483693815768" lon="9.241897920146585">
<ele>195.79999999999995</ele>
<time>2023-05-16T12:49:26Z</time>
</trkpt>
<trkpt lat="49.05483693815768" lon="9.241889957338572">
<ele>195.79999999999995</ele>
<time>2023-05-16T12:49:27Z</time>
</trkpt>
<trkpt lat="49.054827969521284" lon="9.24188794568181">
<ele>195.79999999999995</ele>
<time>2023-05-16T12:49:28Z</time>
</trkpt>
<trkpt lat="49.05483299866319" lon="9.241881994530559">
<ele>195.79999999999995</ele>
<time>2023-05-16T12:49:29Z</time>
</trkpt>
<trkpt lat="49.054831992834806" lon="9.24188794568181">
<ele>195.79999999999995</ele>
<time>2023-05-16T12:49:30Z</time>
</trkpt>
<trkpt lat="49.05483693815768" lon="9.241884928196669">
<ele>195.79999999999995</ele>
<time>2023-05-16T12:49:31Z</time>
</trkpt>
<trkpt lat="49.05483794398606" lon="9.241884928196669">
<ele>195.79999999999995</ele>
<time>2023-05-16T12:49:32Z</time>
</trkpt>
<trkpt lat="49.05478295870125" lon="9.241917952895164">
<ele>196</ele>
<time>2023-05-16T12:49:32Z</time>
</trkpt>
<trkpt lat="49.054784970358014" lon="9.241917952895164">
<ele>196</ele>
<time>2023-05-16T12:49:33Z</time>
</trkpt>
<trkpt lat="49.054786982014775" lon="9.241919964551926">
<ele>196</ele>
<time>2023-05-16T12:49:34Z</time>
</trkpt>
<trkpt lat="49.05479192733765" lon="9.241921976208687">
<ele>196</ele>
<time>2023-05-16T12:49:35Z</time>
</trkpt>
<trkpt lat="49.05479695647955" lon="9.241924993693829">
<ele>196</ele>
<time>2023-05-16T12:49:36Z</time>
</trkpt>
<trkpt lat="49.05479494482279" lon="9.241924993693829">
<ele>196</ele>
<time>2023-05-16T12:49:37Z</time>
</trkpt>
<trkpt lat="49.05479494482279" lon="9.241919964551926">
<ele>196</ele>
<time>2023-05-16T12:49:38Z</time>
</trkpt>
<trkpt lat="49.05479494482279" lon="9.241916947066784">
<ele>196</ele>
<time>2023-05-16T12:49:39Z</time>
</trkpt>
<trkpt lat="49.054916985332966" lon="9.241962963715196">
<ele>195.79999999999995</ele>
<time>2023-05-16T12:49:39Z</time>
</trkpt>
<trkpt lat="49.05492193065584" lon="9.241967992857099">
<ele>195.79999999999995</ele>
<time>2023-05-16T12:49:40Z</time>
</trkpt>
<trkpt lat="49.05492494814098" lon="9.241967992857099">
<ele>195.79999999999995</ele>
<time>2023-05-16T12:49:41Z</time>
</trkpt>
<trkpt lat="49.05492494814098" lon="9.241974949836731">
<ele>195.79999999999995</ele>
<time>2023-05-16T12:49:43Z</time>
</trkpt>
<trkpt lat="49.05486493371427" lon="9.241961957886815">
<ele>196</ele>
<time>2023-05-16T12:49:43Z</time>
</trkpt>
<trkpt lat="49.0548599883914" lon="9.241959946230054">
<ele>196</ele>
<time>2023-05-16T12:49:44Z</time>
</trkpt>
<trkpt lat="49.0548549592495" lon="9.241952989250422">
<ele>196</ele>
<time>2023-05-16T12:49:45Z</time>
</trkpt>
<trkpt lat="49.05483693815768" lon="9.241942930966616">
<ele>196</ele>
<time>2023-05-16T12:49:46Z</time>
</trkpt>
<trkpt lat="49.05482294037938" lon="9.241926921531558">
<ele>196</ele>
<time>2023-05-16T12:49:47Z</time>
</trkpt>
<trkpt lat="49.05482495203614" lon="9.241921976208687">
<ele>196</ele>
<time>2023-05-16T12:49:48Z</time>
</trkpt>
<trkpt lat="49.054827969521284" lon="9.241919964551926">
<ele>196</ele>
<time>2023-05-16T12:49:49Z</time>
</trkpt>
<trkpt lat="49.054821934551" lon="9.241921976208687">
<ele>196</ele>
<time>2023-05-16T12:49:50Z</time>
</trkpt>
<trkpt lat="49.05481799505651" lon="9.241924993693829">
<ele>196</ele>
<time>2023-05-16T12:49:51Z</time>
</trkpt>
<trkpt lat="49.05481698922813" lon="9.241926921531558">
<ele>196</ele>
<time>2023-05-16T12:49:52Z</time>
</trkpt>
<trkpt lat="49.05480299144983" lon="9.241932956501842">
<ele>196</ele>
<time>2023-05-16T12:49:53Z</time>
</trkpt>
<trkpt lat="49.05477792955935" lon="9.241962963715196">
<ele>196</ele>
<time>2023-05-16T12:49:54Z</time>
</trkpt>
<trkpt lat="49.05478195287287" lon="9.241966987028718">
<ele>196</ele>
<time>2023-05-16T12:49:55Z</time>
</trkpt>
<trkpt lat="49.05477499589324" lon="9.241969920694828">
<ele>196</ele>
<time>2023-05-16T12:49:56Z</time>
</trkpt>
<trkpt lat="49.05478295870125" lon="9.241967992857099">
<ele>196</ele>
<time>2023-05-16T12:49:57Z</time>
</trkpt>
<trkpt lat="49.05479192733765" lon="9.241974949836731">
<ele>196</ele>
<time>2023-05-16T12:49:58Z</time>
</trkpt>
<trkpt lat="49.05479192733765" lon="9.241984924301505">
<ele>196</ele>
<time>2023-05-16T12:49:59Z</time>
</trkpt>
<trkpt lat="49.05480491928756" lon="9.242012919858098">
<ele>196</ele>
<time>2023-05-16T12:50:01Z</time>
</trkpt>
<trkpt lat="49.054807936772704" lon="9.24201199784875">
<ele>196</ele>
<time>2023-05-16T12:50:02Z</time>
</trkpt>
<trkpt lat="49.05480491928756" lon="9.242007974535227">
<ele>196</ele>
<time>2023-05-16T12:50:03Z</time>
</trkpt>
<trkpt lat="49.054809948429465" lon="9.242001939564943">
<ele>196</ele>
<time>2023-05-16T12:50:04Z</time>
</trkpt>
<trkpt lat="49.054809948429465" lon="9.241996994242072">
<ele>196</ele>
<time>2023-05-16T12:50:05Z</time>
</trkpt>
<trkpt lat="49.05481698922813" lon="9.241994982585311">
<ele>196</ele>
<time>2023-05-16T12:50:06Z</time>
</trkpt>
<trkpt lat="49.0548269636929" lon="9.24199297092855">
<ele>196</ele>
<time>2023-05-16T12:50:07Z</time>
</trkpt>
<trkpt lat="49.05483492650092" lon="9.24199297092855">
<ele>196</ele>
<time>2023-05-16T12:50:08Z</time>
</trkpt>
<trkpt lat="49.05484196729958" lon="9.241994982585311">
<ele>196</ele>
<time>2023-05-16T12:50:09Z</time>
</trkpt>
<trkpt lat="49.05484498478472" lon="9.241994982585311">
<ele>196</ele>
<time>2023-05-16T12:50:10Z</time>
</trkpt>
<trkpt lat="49.05484791845083" lon="9.241987941786647">
<ele>196</ele>
<time>2023-05-16T12:50:11Z</time>
</trkpt>
<trkpt lat="49.054852947592735" lon="9.241987941786647">
<ele>196</ele>
<time>2023-05-16T12:50:12Z</time>
</trkpt>
<trkpt lat="49.0548549592495" lon="9.241984924301505">
<ele>196</ele>
<time>2023-05-16T12:50:13Z</time>
</trkpt>
<trkpt lat="49.05486292205751" lon="9.241982996463776">
<ele>195.79999999999995</ele>
<time>2023-05-16T12:50:14Z</time>
</trkpt>
<trkpt lat="49.05486191622913" lon="9.241986935958266">
<ele>195.79999999999995</ele>
<time>2023-05-16T12:50:15Z</time>
</trkpt>
<trkpt lat="49.0548599883914" lon="9.241974949836731">
<ele>195.79999999999995</ele>
<time>2023-05-16T12:50:16Z</time>
</trkpt>
<trkpt lat="49.0548599883914" lon="9.241969920694828">
<ele>195.79999999999995</ele>
<time>2023-05-16T12:50:17Z</time>
</trkpt>
<trkpt lat="49.05486795119941" lon="9.241961957886815">
<ele>195.79999999999995</ele>
<time>2023-05-16T12:50:18Z</time>
</trkpt>
<trkpt lat="49.0548549592495" lon="9.241951983422041">
<ele>195.79999999999995</ele>
<time>2023-05-16T12:50:19Z</time>
</trkpt>
<trkpt lat="49.05483299866319" lon="9.241942930966616">
<ele>195.79999999999995</ele>
<time>2023-05-16T12:50:20Z</time>
</trkpt>
<trkpt lat="49.05479293316603" lon="9.241951983422041">
<ele>195.79999999999995</ele>
<time>2023-05-16T12:50:21Z</time>
</trkpt>
<trkpt lat="49.05479293316603" lon="9.241946954280138">
<ele>195.79999999999995</ele>
<time>2023-05-16T12:50:22Z</time>
</trkpt>
<trkpt lat="49.05478195287287" lon="9.241939997300506">
<ele>195.79999999999995</ele>
<time>2023-05-16T12:50:23Z</time>
</trkpt>
<trkpt lat="49.05477792955935" lon="9.24194997176528">
<ele>195.79999999999995</ele>
<time>2023-05-16T12:50:24Z</time>
</trkpt>
<trkpt lat="49.05476996675134" lon="9.24197193235159">
<ele>195.79999999999995</ele>
<time>2023-05-16T12:50:25Z</time>
</trkpt>
<trkpt lat="49.054766949266195" lon="9.24197293817997">
<ele>195.79999999999995</ele>
<time>2023-05-16T12:50:26Z</time>
</trkpt>
<trkpt lat="49.05476292595267" lon="9.24197193235159">
<ele>195.79999999999995</ele>
<time>2023-05-16T12:50:27Z</time>
</trkpt>
<trkpt lat="49.0547579806298" lon="9.24197193235159">
<ele>195.79999999999995</ele>
<time>2023-05-16T12:50:28Z</time>
</trkpt>
<trkpt lat="49.05475496314466" lon="9.241967992857099">
<ele>195.79999999999995</ele>
<time>2023-05-16T12:50:29Z</time>
</trkpt>
<trkpt lat="49.054741971194744" lon="9.241959946230054">
<ele>196</ele>
<time>2023-05-16T12:50:30Z</time>
</trkpt>
<trkpt lat="49.054741971194744" lon="9.241956928744912">
<ele>196</ele>
<time>2023-05-16T12:50:31Z</time>
</trkpt>
<trkpt lat="49.05473995953798" lon="9.24194997176528">
<ele>196</ele>
<time>2023-05-16T12:50:32Z</time>
</trkpt>
<trkpt lat="49.05472696758807" lon="9.241946954280138">
<ele>196</ele>
<time>2023-05-16T12:50:33Z</time>
</trkpt>
<trkpt lat="49.054724955931306" lon="9.24194997176528">
<ele>196</ele>
<time>2023-05-16T12:50:34Z</time>
</trkpt>
<trkpt lat="49.05473291873932" lon="9.241951983422041">
<ele>196</ele>
<time>2023-05-16T12:50:35Z</time>
</trkpt>
<trkpt lat="49.054747922345996" lon="9.241952989250422">
<ele>196</ele>
<time>2023-05-16T12:50:36Z</time>
</trkpt>
<trkpt lat="49.05475194565952" lon="9.241946954280138">
<ele>196</ele>
<time>2023-05-16T12:50:37Z</time>
</trkpt>
<trkpt lat="49.054764937609434" lon="9.241942930966616">
<ele>196</ele>
<time>2023-05-16T12:50:38Z</time>
</trkpt>
<trkpt lat="49.05477298423648" lon="9.241931950673461">
<ele>196</ele>
<time>2023-05-16T12:50:39Z</time>
</trkpt>
<trkpt lat="49.05481296591461" lon="9.242001939564943">
<ele>196</ele>
<time>2023-05-16T12:50:40Z</time>
</trkpt>
<trkpt lat="49.05484993010759" lon="9.242071928456426">
<ele>196</ele>
<time>2023-05-16T12:50:41Z</time>
</trkpt>
<trkpt lat="49.05486292205751" lon="9.24210193566978">
<ele>196</ele>
<time>2023-05-16T12:50:42Z</time>
</trkpt>
<trkpt lat="49.05486694537103" lon="9.242129931226373">
<ele>196</ele>
<time>2023-05-16T12:50:43Z</time>
</trkpt>
<trkpt lat="49.05486996285617" lon="9.242132948711514">
<ele>196</ele>
<time>2023-05-16T12:50:44Z</time>
</trkpt>
<trkpt lat="49.054874991998076" lon="9.242129931226373">
<ele>196</ele>
<time>2023-05-16T12:50:45Z</time>
</trkpt>
<trkpt lat="49.05486996285617" lon="9.242119956761599">
<ele>196</ele>
<time>2023-05-16T12:50:46Z</time>
</trkpt>
<trkpt lat="49.05486493371427" lon="9.242114927619696">
<ele>196</ele>
<time>2023-05-16T12:50:47Z</time>
</trkpt>
<trkpt lat="49.05486795119941" lon="9.242106964811683">
<ele>196</ele>
<time>2023-05-16T12:50:48Z</time>
</trkpt>
<trkpt lat="49.05486493371427" lon="9.24209799617529">
<ele>196</ele>
<time>2023-05-16T12:50:49Z</time>
</trkpt>
<trkpt lat="49.05486493371427" lon="9.242089949548244">
<ele>196</ele>
<time>2023-05-16T12:50:50Z</time>
</trkpt>
<trkpt lat="49.05486292205751" lon="9.242084920406342">
<ele>196</ele>
<time>2023-05-16T12:50:51Z</time>
</trkpt>
<trkpt lat="49.05486292205751" lon="9.24207796342671">
<ele>196</ele>
<time>2023-05-16T12:50:52Z</time>
</trkpt>
<trkpt lat="49.054894940927625" lon="9.242084920406342">
<ele>196</ele>
<time>2023-05-16T12:50:52Z</time>
</trkpt>
<trkpt lat="49.054896952584386" lon="9.242081986740232">
<ele>196</ele>
<time>2023-05-16T12:50:53Z</time>
</trkpt>
<trkpt lat="49.054896952584386" lon="9.242072934284806">
<ele>196</ele>
<time>2023-05-16T12:50:54Z</time>
</trkpt>
<trkpt lat="49.05489795841277" lon="9.242056924849749">
<ele>196</ele>
<time>2023-05-16T12:50:55Z</time>
</trkpt>
<trkpt lat="49.054896952584386" lon="9.242044938728213">
<ele>196</ele>
<time>2023-05-16T12:50:56Z</time>
</trkpt>
<trkpt lat="49.05489292927086" lon="9.242027923464775">
<ele>196</ele>
<time>2023-05-16T12:50:58Z</time>
</trkpt>
<trkpt lat="49.05488999560475" lon="9.242012919858098">
<ele>196</ele>
<time>2023-05-16T12:50:59Z</time>
</trkpt>
<trkpt lat="49.05488798394799" lon="9.242001939564943">
<ele>196</ele>
<time>2023-05-16T12:51:00Z</time>
</trkpt>
<trkpt lat="49.05488194897771" lon="9.241994982585311">
<ele>196</ele>
<time>2023-05-16T12:51:01Z</time>
</trkpt>
<trkpt lat="49.05488295480609" lon="9.241986935958266">
<ele>196</ele>
<time>2023-05-16T12:51:02Z</time>
</trkpt>
<trkpt lat="49.05488496646285" lon="9.241979978978634">
<ele>196</ele>
<time>2023-05-16T12:51:03Z</time>
</trkpt>
<trkpt lat="49.05488295480609" lon="9.24197293817997">
<ele>196</ele>
<time>2023-05-16T12:51:04Z</time>
</trkpt>
<trkpt lat="49.05489192344248" lon="9.241954917088151">
<ele>196.20000000000005</ele>
<time>2023-05-16T12:51:06Z</time>
</trkpt>
<trkpt lat="49.054896952584386" lon="9.241951983422041">
<ele>196.20000000000005</ele>
<time>2023-05-16T12:51:07Z</time>
</trkpt>
<trkpt lat="49.05490198172629" lon="9.241947960108519">
<ele>196.20000000000005</ele>
<time>2023-05-16T12:51:08Z</time>
</trkpt>
<trkpt lat="49.054894940927625" lon="9.241939997300506">
<ele>196.20000000000005</ele>
<time>2023-05-16T12:51:09Z</time>
</trkpt>
<trkpt lat="49.05490198172629" lon="9.241941925138235">
<ele>196.20000000000005</ele>
<time>2023-05-16T12:51:10Z</time>
</trkpt>
<trkpt lat="49.05490793287754" lon="9.241927927359939">
<ele>196.20000000000005</ele>
<time>2023-05-16T12:51:11Z</time>
</trkpt>
<trkpt lat="49.05490793287754" lon="9.241916947066784">
<ele>196.20000000000005</ele>
<time>2023-05-16T12:51:12Z</time>
</trkpt>
<trkpt lat="49.05489292927086" lon="9.24190797843039">
<ele>196.20000000000005</ele>
<time>2023-05-16T12:51:13Z</time>
</trkpt>
<trkpt lat="49.054894940927625" lon="9.241897920146585">
<ele>196.20000000000005</ele>
<time>2023-05-16T12:51:14Z</time>
</trkpt>
<trkpt lat="49.05489292927086" lon="9.241897920146585">
<ele>196.20000000000005</ele>
<time>2023-05-16T12:51:15Z</time>
</trkpt>
<trkpt lat="49.054894940927625" lon="9.241892974823713">
<ele>196</ele>
<time>2023-05-16T12:51:16Z</time>
</trkpt>
<trkpt lat="49.05489997006953" lon="9.241892974823713">
<ele>196</ele>
<time>2023-05-16T12:51:17Z</time>
</trkpt>
<trkpt lat="49.05490793287754" lon="9.241891968995333">
<ele>196</ele>
<time>2023-05-16T12:51:18Z</time>
</trkpt>
<trkpt lat="49.054914973676205" lon="9.241899931803346">
<ele>196</ele>
<time>2023-05-16T12:51:19Z</time>
</trkpt>
<trkpt lat="49.05491195619106" lon="9.241892974823713">
<ele>196</ele>
<time>2023-05-16T12:51:20Z</time>
</trkpt>
<trkpt lat="49.05491195619106" lon="9.241889957338572">
<ele>196</ele>
<time>2023-05-16T12:51:21Z</time>
</trkpt>
<trkpt lat="49.05491296201944" lon="9.24188693985343">
<ele>196</ele>
<time>2023-05-16T12:51:22Z</time>
</trkpt>
<trkpt lat="49.054917991161346" lon="9.241892974823713">
<ele>196</ele>
<time>2023-05-16T12:51:23Z</time>
</trkpt>
<trkpt lat="49.054917991161346" lon="9.241902949288487">
<ele>196</ele>
<time>2023-05-16T12:51:24Z</time>
</trkpt>
<trkpt lat="49.054917991161346" lon="9.241899931803346">
<ele>196</ele>
<time>2023-05-16T12:51:25Z</time>
</trkpt>
<trkpt lat="49.05490198172629" lon="9.241899931803346">
<ele>196</ele>
<time>2023-05-16T12:51:26Z</time>
</trkpt>
<trkpt lat="49.05490499921143" lon="9.241901943460107">
<ele>196</ele>
<time>2023-05-16T12:51:27Z</time>
</trkpt>
<trkpt lat="49.05490793287754" lon="9.241901943460107">
<ele>196</ele>
<time>2023-05-16T12:51:28Z</time>
</trkpt>
<trkpt lat="49.05490499921143" lon="9.241899931803346">
<ele>196</ele>
<time>2023-05-16T12:51:29Z</time>
</trkpt>
<trkpt lat="49.05490298755467" lon="9.241897920146585">
<ele>196</ele>
<time>2023-05-16T12:51:30Z</time>
</trkpt>
<trkpt lat="49.05489795841277" lon="9.241896998137236">
<ele>196</ele>
<time>2023-05-16T12:51:31Z</time>
</trkpt>
<trkpt lat="49.05489192344248" lon="9.24190697260201">
<ele>196</ele>
<time>2023-05-16T12:51:32Z</time>
</trkpt>
<trkpt lat="49.05488295480609" lon="9.241911917924881">
<ele>195.79999999999995</ele>
<time>2023-05-16T12:51:33Z</time>
</trkpt>
<trkpt lat="49.05489192344248" lon="9.241909990087152">
<ele>195.79999999999995</ele>
<time>2023-05-16T12:51:34Z</time>
</trkpt>
<trkpt lat="49.05489292927086" lon="9.241912923753262">
<ele>196</ele>
<time>2023-05-16T12:51:35Z</time>
</trkpt>
<trkpt lat="49.05487993732095" lon="9.241917952895164">
<ele>196</ele>
<time>2023-05-16T12:51:36Z</time>
</trkpt>
<trkpt lat="49.05488295480609" lon="9.241911917924881">
<ele>196</ele>
<time>2023-05-16T12:51:37Z</time>
</trkpt>
<trkpt lat="49.05489192344248" lon="9.24190697260201">
<ele>196</ele>
<time>2023-05-16T12:51:38Z</time>
</trkpt>
<trkpt lat="49.05490298755467" lon="9.241897920146585">
<ele>196</ele>
<time>2023-05-16T12:51:39Z</time>
</trkpt>
<trkpt lat="49.05490198172629" lon="9.241892974823713">
<ele>196</ele>
<time>2023-05-16T12:51:40Z</time>
</trkpt>
<trkpt lat="49.05490793287754" lon="9.24188693985343">
<ele>196</ele>
<time>2023-05-16T12:51:41Z</time>
</trkpt>
<trkpt lat="49.05490692704916" lon="9.24188693985343">
<ele>196</ele>
<time>2023-05-16T12:51:42Z</time>
</trkpt>
<trkpt lat="49.05490499921143" lon="9.241871936246753">
<ele>196</ele>
<time>2023-05-16T12:51:43Z</time>
</trkpt>
<trkpt lat="49.054896952584386" lon="9.24186497926712">
<ele>196</ele>
<time>2023-05-16T12:51:44Z</time>
</trkpt>
<trkpt lat="49.054894940927625" lon="9.241857938468456">
<ele>196</ele>
<time>2023-05-16T12:51:45Z</time>
</trkpt>
<trkpt lat="49.054894940927625" lon="9.241849975660443">
<ele>196</ele>
<time>2023-05-16T12:51:46Z</time>
</trkpt>
<trkpt lat="49.05489292927086" lon="9.241847964003682">
<ele>196</ele>
<time>2023-05-16T12:51:47Z</time>
</trkpt>
<trkpt lat="49.054894940927625" lon="9.241854920983315">
<ele>196</ele>
<time>2023-05-16T12:51:48Z</time>
</trkpt>
<trkpt lat="49.05490198172629" lon="9.241869924589992">
<ele>196</ele>
<time>2023-05-16T12:51:49Z</time>
</trkpt>
<trkpt lat="49.05489997006953" lon="9.241867996752262">
<ele>196</ele>
<time>2023-05-16T12:51:50Z</time>
</trkpt>
<trkpt lat="49.05489795841277" lon="9.241836983710527">
<ele>196</ele>
<time>2023-05-16T12:51:53Z</time>
</trkpt>
<trkpt lat="49.054894940927625" lon="9.241849975660443">
<ele>196</ele>
<time>2023-05-16T12:51:54Z</time>
</trkpt>
<trkpt lat="49.054896952584386" lon="9.241856932640076">
<ele>196</ele>
<time>2023-05-16T12:51:55Z</time>
</trkpt>
<trkpt lat="49.05488999560475" lon="9.241869924589992">
<ele>196</ele>
<time>2023-05-16T12:51:56Z</time>
</trkpt>
<trkpt lat="49.05488697811961" lon="9.241879982873797">
<ele>196</ele>
<time>2023-05-16T12:51:57Z</time>
</trkpt>
<trkpt lat="49.05487993732095" lon="9.241884928196669">
<ele>196</ele>
<time>2023-05-16T12:51:58Z</time>
</trkpt>
<trkpt lat="49.054876919835806" lon="9.241891968995333">
<ele>196</ele>
<time>2023-05-16T12:51:59Z</time>
</trkpt>
<trkpt lat="49.054874991998076" lon="9.241894986480474">
<ele>196</ele>
<time>2023-05-16T12:52:00Z</time>
</trkpt>
<trkpt lat="49.05488697811961" lon="9.241897920146585">
<ele>196</ele>
<time>2023-05-16T12:52:01Z</time>
</trkpt>
<trkpt lat="49.05488194897771" lon="9.241897920146585">
<ele>196</ele>
<time>2023-05-16T12:52:02Z</time>
</trkpt>
<trkpt lat="49.05488697811961" lon="9.241897920146585">
<ele>196</ele>
<time>2023-05-16T12:52:03Z</time>
</trkpt>
<trkpt lat="49.05488496646285" lon="9.241902949288487">
<ele>196</ele>
<time>2023-05-16T12:52:04Z</time>
</trkpt>
<trkpt lat="49.05488697811961" lon="9.241901943460107">
<ele>196</ele>
<time>2023-05-16T12:52:05Z</time>
</trkpt>
<trkpt lat="49.05489292927086" lon="9.241891968995333">
<ele>196</ele>
<time>2023-05-16T12:52:06Z</time>
</trkpt>
<trkpt lat="49.05489292927086" lon="9.241896998137236">
<ele>196</ele>
<time>2023-05-16T12:52:07Z</time>
</trkpt>
<trkpt lat="49.05489292927086" lon="9.241904960945249">
<ele>196</ele>
<time>2023-05-16T12:52:08Z</time>
</trkpt>
<trkpt lat="49.054896952584386" lon="9.241902949288487">
<ele>196</ele>
<time>2023-05-16T12:52:09Z</time>
</trkpt>
<trkpt lat="49.054896952584386" lon="9.241912923753262">
<ele>196</ele>
<time>2023-05-16T12:52:10Z</time>
</trkpt>
<trkpt lat="49.05488999560475" lon="9.241917952895164">
<ele>196</ele>
<time>2023-05-16T12:52:11Z</time>
</trkpt>
<trkpt lat="49.05488798394799" lon="9.2419299390167">
<ele>196</ele>
<time>2023-05-16T12:52:12Z</time>
</trkpt>
<trkpt lat="49.05488496646285" lon="9.241939997300506">
<ele>196</ele>
<time>2023-05-16T12:52:13Z</time>
</trkpt>
<trkpt lat="49.05488496646285" lon="9.241946954280138">
<ele>196</ele>
<time>2023-05-16T12:52:14Z</time>
</trkpt>
<trkpt lat="49.05488194897771" lon="9.241956928744912">
<ele>196</ele>
<time>2023-05-16T12:52:15Z</time>
</trkpt>
<trkpt lat="49.05488295480609" lon="9.241976961493492">
<ele>196</ele>
<time>2023-05-16T12:52:16Z</time>
</trkpt>
<trkpt lat="49.05488295480609" lon="9.241989953443408">
<ele>196</ele>
<time>2023-05-16T12:52:17Z</time>
</trkpt>
<trkpt lat="49.05488295480609" lon="9.241996994242072">
<ele>196</ele>
<time>2023-05-16T12:52:18Z</time>
</trkpt>
<trkpt lat="49.054871974512935" lon="9.242009986191988">
<ele>196</ele>
<time>2023-05-16T12:52:19Z</time>
</trkpt>
<trkpt lat="49.05486694537103" lon="9.24201199784875">
<ele>196</ele>
<time>2023-05-16T12:52:20Z</time>
</trkpt>
<trkpt lat="49.05486694537103" lon="9.242009986191988">
<ele>196</ele>
<time>2023-05-16T12:52:21Z</time>
</trkpt>
<trkpt lat="49.05486795119941" lon="9.242006968706846">
<ele>196</ele>
<time>2023-05-16T12:52:22Z</time>
</trkpt>
<trkpt lat="49.05485797673464" lon="9.242007974535227">
<ele>196</ele>
<time>2023-05-16T12:52:23Z</time>
</trkpt>
<trkpt lat="49.05483995564282" lon="9.242026917636395">
<ele>196</ele>
<time>2023-05-16T12:52:24Z</time>
</trkpt>
<trkpt lat="49.05483299866319" lon="9.2420369759202">
<ele>196</ele>
<time>2023-05-16T12:52:25Z</time>
</trkpt>
<trkpt lat="49.054831992834806" lon="9.2420369759202">
<ele>196</ele>
<time>2023-05-16T12:52:26Z</time>
</trkpt>
<trkpt lat="49.054829981178045" lon="9.242032952606678">
<ele>196</ele>
<time>2023-05-16T12:52:27Z</time>
</trkpt>
<trkpt lat="49.05483492650092" lon="9.242029935121536">
<ele>196</ele>
<time>2023-05-16T12:52:28Z</time>
</trkpt>
<trkpt lat="49.05484196729958" lon="9.242024989798665">
<ele>196</ele>
<time>2023-05-16T12:52:29Z</time>
</trkpt>
<trkpt lat="49.05484791845083" lon="9.242027923464775">
<ele>196</ele>
<time>2023-05-16T12:52:30Z</time>
</trkpt>
<trkpt lat="49.05485697090626" lon="9.24201694317162">
<ele>196</ele>
<time>2023-05-16T12:52:32Z</time>
</trkpt>
<trkpt lat="49.054852947592735" lon="9.242021972313523">
<ele>196</ele>
<time>2023-05-16T12:52:33Z</time>
</trkpt>
<trkpt lat="49.05484993010759" lon="9.242027923464775">
<ele>196</ele>
<time>2023-05-16T12:52:34Z</time>
</trkpt>
<trkpt lat="49.05484297312796" lon="9.242024989798665">
<ele>196</ele>
<time>2023-05-16T12:52:35Z</time>
</trkpt>
<trkpt lat="49.054874991998076" lon="9.24197193235159">
<ele>196</ele>
<time>2023-05-16T12:52:38Z</time>
</trkpt>
<trkpt lat="49.05487792566419" lon="9.241967992857099">
<ele>196</ele>
<time>2023-05-16T12:52:39Z</time>
</trkpt>
<trkpt lat="49.05488194897771" lon="9.24197293817997">
<ele>196</ele>
<time>2023-05-16T12:52:40Z</time>
</trkpt>
<trkpt lat="49.05488295480609" lon="9.241979978978634">
<ele>196</ele>
<time>2023-05-16T12:52:41Z</time>
</trkpt>
<trkpt lat="49.05488194897771" lon="9.241984924301505">
<ele>196</ele>
<time>2023-05-16T12:52:42Z</time>
</trkpt>
<trkpt lat="49.05486694537103" lon="9.242019960656762">
<ele>196</ele>
<time>2023-05-16T12:52:43Z</time>
</trkpt>
<trkpt lat="49.05486795119941" lon="9.242024989798665">
<ele>196</ele>
<time>2023-05-16T12:52:43Z</time>
</trkpt>
<trkpt lat="49.05486292205751" lon="9.242021972313523">
<ele>196</ele>
<time>2023-05-16T12:52:44Z</time>
</trkpt>
<trkpt lat="49.05486292205751" lon="9.242024989798665">
<ele>196</ele>
<time>2023-05-16T12:52:45Z</time>
</trkpt>
<trkpt lat="49.05486694537103" lon="9.242031946778297">
<ele>195.79999999999995</ele>
<time>2023-05-16T12:52:46Z</time>
</trkpt>
<trkpt lat="49.05486694537103" lon="9.242044938728213">
<ele>195.79999999999995</ele>
<time>2023-05-16T12:52:47Z</time>
</trkpt>
<trkpt lat="49.05487993732095" lon="9.242029935121536">
<ele>195.79999999999995</ele>
<time>2023-05-16T12:52:48Z</time>
</trkpt>
<trkpt lat="49.05488798394799" lon="9.242031946778297">
<ele>195.60000000000002</ele>
<time>2023-05-16T12:52:49Z</time>
</trkpt>
<trkpt lat="49.05488999560475" lon="9.24203496426344">
<ele>195.60000000000002</ele>
<time>2023-05-16T12:52:50Z</time>
</trkpt>
<trkpt lat="49.054894940927625" lon="9.24203496426344">
<ele>195.60000000000002</ele>
<time>2023-05-16T12:52:51Z</time>
</trkpt>
<trkpt lat="49.054894940927625" lon="9.24212297424674">
<ele>195.79999999999995</ele>
<time>2023-05-16T12:52:53Z</time>
</trkpt>
<trkpt lat="49.05488194897771" lon="9.242129931226373">
<ele>195.79999999999995</ele>
<time>2023-05-16T12:52:54Z</time>
</trkpt>
<trkpt lat="49.054876919835806" lon="9.242131942883134">
<ele>195.79999999999995</ele>
<time>2023-05-16T12:52:55Z</time>
</trkpt>
<trkpt lat="49.054872980341315" lon="9.242131942883134">
<ele>195.79999999999995</ele>
<time>2023-05-16T12:52:56Z</time>
</trkpt>
<trkpt lat="49.054871974512935" lon="9.24210193566978">
<ele>195.79999999999995</ele>
<time>2023-05-16T12:52:57Z</time>
</trkpt>
<trkpt lat="49.05484498478472" lon="9.242052985355258">
<ele>195.79999999999995</ele>
<time>2023-05-16T12:53:01Z</time>
</trkpt>
<trkpt lat="49.05484297312796" lon="9.242061953991652">
<ele>195.79999999999995</ele>
<time>2023-05-16T12:53:02Z</time>
</trkpt>
<trkpt lat="49.05483794398606" lon="9.242062959820032">
<ele>195.79999999999995</ele>
<time>2023-05-16T12:53:03Z</time>
</trkpt>
<trkpt lat="49.05483794398606" lon="9.242061953991652">
<ele>195.79999999999995</ele>
<time>2023-05-16T12:53:04Z</time>
</trkpt>
<trkpt lat="49.05483693815768" lon="9.24205994233489">
<ele>195.79999999999995</ele>
<time>2023-05-16T12:53:05Z</time>
</trkpt>
<trkpt lat="49.054831992834806" lon="9.242064971476793">
<ele>195.79999999999995</ele>
<time>2023-05-16T12:53:06Z</time>
</trkpt>
<trkpt lat="49.054829981178045" lon="9.24205994233489">
<ele>195.79999999999995</ele>
<time>2023-05-16T12:53:07Z</time>
</trkpt>
<trkpt lat="49.054827969521284" lon="9.24205994233489">
<ele>195.79999999999995</ele>
<time>2023-05-16T12:53:08Z</time>
</trkpt>
<trkpt lat="49.05482294037938" lon="9.242062959820032">
<ele>195.79999999999995</ele>
<time>2023-05-16T12:53:09Z</time>
</trkpt>
<trkpt lat="49.05481698922813" lon="9.242069916799664">
<ele>195.79999999999995</ele>
<time>2023-05-16T12:53:10Z</time>
</trkpt>
<trkpt lat="49.05481698922813" lon="9.242072934284806">
<ele>195.79999999999995</ele>
<time>2023-05-16T12:53:11Z</time>
</trkpt>
<trkpt lat="49.05481196008623" lon="9.242039993405342">
<ele>195.79999999999995</ele>
<time>2023-05-16T12:53:11Z</time>
</trkpt>
<trkpt lat="49.05481497757137" lon="9.242041921243072">
<ele>195.79999999999995</ele>
<time>2023-05-16T12:53:12Z</time>
</trkpt>
<trkpt lat="49.05481799505651" lon="9.242047956213355">
<ele>195.79999999999995</ele>
<time>2023-05-16T12:53:13Z</time>
</trkpt>
<trkpt lat="49.05482495203614" lon="9.24205793067813">
<ele>195.79999999999995</ele>
<time>2023-05-16T12:53:14Z</time>
</trkpt>
<trkpt lat="49.05482495203614" lon="9.242067988961935">
<ele>195.79999999999995</ele>
<time>2023-05-16T12:53:15Z</time>
</trkpt>
<trkpt lat="49.05481992289424" lon="9.242074945941567">
<ele>195.79999999999995</ele>
<time>2023-05-16T12:53:16Z</time>
</trkpt>
<trkpt lat="49.05481799505651" lon="9.242069916799664">
<ele>195.79999999999995</ele>
<time>2023-05-16T12:53:17Z</time>
</trkpt>
<trkpt lat="49.054821934551" lon="9.242072934284806">
<ele>195.79999999999995</ele>
<time>2023-05-16T12:53:19Z</time>
</trkpt>
<trkpt lat="49.054827969521284" lon="9.241977967321873">
<ele>195.79999999999995</ele>
<time>2023-05-16T12:53:19Z</time>
</trkpt>
<trkpt lat="49.054827969521284" lon="9.241976961493492">
<ele>195.79999999999995</ele>
<time>2023-05-16T12:53:20Z</time>
</trkpt>
<trkpt lat="49.0548269636929" lon="9.241974949836731">
<ele>195.79999999999995</ele>
<time>2023-05-16T12:53:21Z</time>
</trkpt>
<trkpt lat="49.054831992834806" lon="9.242072934284806">
<ele>195.60000000000002</ele>
<time>2023-05-16T12:53:21Z</time>
</trkpt>
<trkpt lat="49.054831992834806" lon="9.242071928456426">
<ele>195.60000000000002</ele>
<time>2023-05-16T12:53:22Z</time>
</trkpt>
<trkpt lat="49.05483693815768" lon="9.242071928456426">
<ele>195.60000000000002</ele>
<time>2023-05-16T12:53:23Z</time>
</trkpt>
<trkpt lat="49.05484196729958" lon="9.242071928456426">
<ele>195.60000000000002</ele>
<time>2023-05-16T12:53:24Z</time>
</trkpt>
<trkpt lat="49.05481799505651" lon="9.242012919858098">
<ele>195.39999999999998</ele>
<time>2023-05-16T12:53:25Z</time>
</trkpt>
<trkpt lat="49.054821934551" lon="9.242024989798665">
<ele>195.39999999999998</ele>
<time>2023-05-16T12:53:25Z</time>
</trkpt>
<trkpt lat="49.05482495203614" lon="9.24203496426344">
<ele>195.39999999999998</ele>
<time>2023-05-16T12:53:26Z</time>
</trkpt>
<trkpt lat="49.054829981178045" lon="9.242007974535227">
<ele>195.39999999999998</ele>
<time>2023-05-16T12:53:27Z</time>
</trkpt>
<trkpt lat="49.05483299866319" lon="9.241997916251421">
<ele>195.39999999999998</ele>
<time>2023-05-16T12:53:28Z</time>
</trkpt>
<trkpt lat="49.05483299866319" lon="9.242001939564943">
<ele>195.39999999999998</ele>
<time>2023-05-16T12:53:29Z</time>
</trkpt>
<trkpt lat="49.05483693815768" lon="9.242001939564943">
<ele>195.39999999999998</ele>
<time>2023-05-16T12:53:30Z</time>
</trkpt>
<trkpt lat="49.05483693815768" lon="9.242006968706846">
<ele>195.39999999999998</ele>
<time>2023-05-16T12:53:31Z</time>
</trkpt>
<trkpt lat="49.05481992289424" lon="9.242067988961935">
<ele>195.39999999999998</ele>
<time>2023-05-16T12:53:31Z</time>
</trkpt>
<trkpt lat="49.05482495203614" lon="9.242061953991652">
<ele>195.39999999999998</ele>
<time>2023-05-16T12:53:32Z</time>
</trkpt>
<trkpt lat="49.05483492650092" lon="9.242046950384974">
<ele>195.39999999999998</ele>
<time>2023-05-16T12:53:33Z</time>
</trkpt>
<trkpt lat="49.05483794398606" lon="9.242041921243072">
<ele>195.39999999999998</ele>
<time>2023-05-16T12:53:34Z</time>
</trkpt>
<trkpt lat="49.05484297312796" lon="9.2420369759202">
<ele>195.39999999999998</ele>
<time>2023-05-16T12:53:35Z</time>
</trkpt>
<trkpt lat="49.05484498478472" lon="9.242039993405342">
<ele>195.39999999999998</ele>
<time>2023-05-16T12:53:36Z</time>
</trkpt>
<trkpt lat="49.05484498478472" lon="9.242041921243072">
<ele>195.39999999999998</ele>
<time>2023-05-16T12:53:37Z</time>
</trkpt>
<trkpt lat="49.054787987843156" lon="9.242162955924869">
<ele>195.39999999999998</ele>
<time>2023-05-16T12:53:38Z</time>
</trkpt>
<trkpt lat="49.054787987843156" lon="9.24216496758163">
<ele>195.39999999999998</ele>
<time>2023-05-16T12:53:38Z</time>
</trkpt>
<trkpt lat="49.054786982014775" lon="9.242161950096488">
<ele>195.39999999999998</ele>
<time>2023-05-16T12:53:39Z</time>
</trkpt>
<trkpt lat="49.054786982014775" lon="9.242159938439727">
<ele>195.39999999999998</ele>
<time>2023-05-16T12:53:40Z</time>
</trkpt>
<trkpt lat="49.054786982014775" lon="9.242152981460094">
<ele>195.39999999999998</ele>
<time>2023-05-16T12:53:41Z</time>
</trkpt>
<trkpt lat="49.054827969521284" lon="9.241977967321873">
<ele>195.20000000000005</ele>
<time>2023-05-16T12:53:42Z</time>
</trkpt>
<trkpt lat="49.0548269636929" lon="9.24197293817997">
<ele>195.20000000000005</ele>
<time>2023-05-16T12:53:42Z</time>
</trkpt>
<trkpt lat="49.05482495203614" lon="9.241974949836731">
<ele>195.20000000000005</ele>
<time>2023-05-16T12:53:43Z</time>
</trkpt>
<trkpt lat="49.05482294037938" lon="9.241974949836731">
<ele>195.20000000000005</ele>
<time>2023-05-16T12:53:44Z</time>
</trkpt>
<trkpt lat="49.05491296201944" lon="9.24188693985343">
<ele>195</ele>
<time>2023-05-16T12:53:44Z</time>
</trkpt>
<trkpt lat="49.05491296201944" lon="9.241889957338572">
<ele>195</ele>
<time>2023-05-16T12:53:45Z</time>
</trkpt>
<trkpt lat="49.05491296201944" lon="9.241901943460107">
<ele>194.79999999999995</ele>
<time>2023-05-16T12:53:46Z</time>
</trkpt>
<trkpt lat="49.05489997006953" lon="9.241916947066784">
<ele>194.79999999999995</ele>
<time>2023-05-16T12:53:47Z</time>
</trkpt>
<trkpt lat="49.05488697811961" lon="9.241927927359939">
<ele>194.79999999999995</ele>
<time>2023-05-16T12:53:48Z</time>
</trkpt>
<trkpt lat="49.05489192344248" lon="9.241924993693829">
<ele>194.79999999999995</ele>
<time>2023-05-16T12:53:49Z</time>
</trkpt>
<trkpt lat="49.05489292927086" lon="9.241919964551926">
<ele>194.79999999999995</ele>
<time>2023-05-16T12:53:50Z</time>
</trkpt>
<trkpt lat="49.054896952584386" lon="9.241912923753262">
<ele>195</ele>
<time>2023-05-16T12:53:51Z</time>
</trkpt>
<trkpt lat="49.05489292927086" lon="9.241919964551926">
<ele>195</ele>
<time>2023-05-16T12:53:52Z</time>
</trkpt>
<trkpt lat="49.05489292927086" lon="9.241926921531558">
<ele>195</ele>
<time>2023-05-16T12:53:53Z</time>
</trkpt>
<trkpt lat="49.05488798394799" lon="9.241934968158603">
<ele>195</ele>
<time>2023-05-16T12:53:55Z</time>
</trkpt>
<trkpt lat="49.05489192344248" lon="9.241919964551926">
<ele>195</ele>
<time>2023-05-16T12:53:56Z</time>
</trkpt>
<trkpt lat="49.05488999560475" lon="9.241919964551926">
<ele>195</ele>
<time>2023-05-16T12:53:57Z</time>
</trkpt>
<trkpt lat="49.05489292927086" lon="9.24190797843039">
<ele>195</ele>
<time>2023-05-16T12:53:58Z</time>
</trkpt>
<trkpt lat="49.05489292927086" lon="9.241899931803346">
<ele>195</ele>
<time>2023-05-16T12:53:59Z</time>
</trkpt>
<trkpt lat="49.054896952584386" lon="9.241891968995333">
<ele>195</ele>
<time>2023-05-16T12:54:00Z</time>
</trkpt>
<trkpt lat="49.054874991998076" lon="9.242024989798665">
<ele>195</ele>
<time>2023-05-16T12:54:02Z</time>
</trkpt>
<trkpt lat="49.05487993732095" lon="9.242031946778297">
<ele>195</ele>
<time>2023-05-16T12:54:03Z</time>
</trkpt>
<trkpt lat="49.054871974512935" lon="9.242031946778297">
<ele>195</ele>
<time>2023-05-16T12:54:04Z</time>
</trkpt>
<trkpt lat="49.05484993010759" lon="9.242037981748581">
<ele>195</ele>
<time>2023-05-16T12:54:05Z</time>
</trkpt>
<trkpt lat="49.05483299866319" lon="9.2420369759202">
<ele>195</ele>
<time>2023-05-16T12:54:06Z</time>
</trkpt>
<trkpt lat="49.05482294037938" lon="9.242039993405342">
<ele>195</ele>
<time>2023-05-16T12:54:07Z</time>
</trkpt>
<trkpt lat="49.05481296591461" lon="9.242037981748581">
<ele>195</ele>
<time>2023-05-16T12:54:08Z</time>
</trkpt>
<trkpt lat="49.05481698922813" lon="9.24203496426344">
<ele>195</ele>
<time>2023-05-16T12:54:09Z</time>
</trkpt>
<trkpt lat="49.05481196008623" lon="9.242024989798665">
<ele>195</ele>
<time>2023-05-16T12:54:10Z</time>
</trkpt>
<trkpt lat="49.05481698922813" lon="9.242022978141904">
<ele>195</ele>
<time>2023-05-16T12:54:11Z</time>
</trkpt>
<trkpt lat="49.054821934551" lon="9.242029935121536">
<ele>195</ele>
<time>2023-05-16T12:54:12Z</time>
</trkpt>
<trkpt lat="49.054827969521284" lon="9.242019960656762">
<ele>195</ele>
<time>2023-05-16T12:54:13Z</time>
</trkpt>
<trkpt lat="49.05483794398606" lon="9.242024989798665">
<ele>195</ele>
<time>2023-05-16T12:54:14Z</time>
</trkpt>
<trkpt lat="49.05484498478472" lon="9.242022978141904">
<ele>195</ele>
<time>2023-05-16T12:54:15Z</time>
</trkpt>
<trkpt lat="49.05484993010759" lon="9.242024989798665">
<ele>195</ele>
<time>2023-05-16T12:54:16Z</time>
</trkpt>
<trkpt lat="49.054851941764355" lon="9.242029935121536">
<ele>195</ele>
<time>2023-05-16T12:54:17Z</time>
</trkpt>
<trkpt lat="49.0548549592495" lon="9.2420369759202">
<ele>195</ele>
<time>2023-05-16T12:54:18Z</time>
</trkpt>
<trkpt lat="49.05486292205751" lon="9.242031946778297">
<ele>195</ele>
<time>2023-05-16T12:54:19Z</time>
</trkpt>
<trkpt lat="49.05486292205751" lon="9.242029935121536">
<ele>195</ele>
<time>2023-05-16T12:54:20Z</time>
</trkpt>
<trkpt lat="49.05486292205751" lon="9.242032952606678">
<ele>195</ele>
<time>2023-05-16T12:54:21Z</time>
</trkpt>
<trkpt lat="49.05486292205751" lon="9.242046950384974">
<ele>195</ele>
<time>2023-05-16T12:54:22Z</time>
</trkpt>
<trkpt lat="49.0548599883914" lon="9.242064971476793">
<ele>195</ele>
<time>2023-05-16T12:54:23Z</time>
</trkpt>
<trkpt lat="49.0548599883914" lon="9.24205499701202">
<ele>195</ele>
<time>2023-05-16T12:54:24Z</time>
</trkpt>
<trkpt lat="49.05485797673464" lon="9.24205793067813">
<ele>195</ele>
<time>2023-05-16T12:54:25Z</time>
</trkpt>
<trkpt lat="49.05486493371427" lon="9.24205499701202">
<ele>195</ele>
<time>2023-05-16T12:54:26Z</time>
</trkpt>
<trkpt lat="49.05486191622913" lon="9.242056924849749">
<ele>195</ele>
<time>2023-05-16T12:54:27Z</time>
</trkpt>
<trkpt lat="49.0548549592495" lon="9.242061953991652">
<ele>195</ele>
<time>2023-05-16T12:54:28Z</time>
</trkpt>
<trkpt lat="49.05484993010759" lon="9.242072934284806">
<ele>195</ele>
<time>2023-05-16T12:54:29Z</time>
</trkpt>
<trkpt lat="49.05484993010759" lon="9.242056924849749">
<ele>195</ele>
<time>2023-05-16T12:54:30Z</time>
</trkpt>
<trkpt lat="49.054852947592735" lon="9.242044938728213">
<ele>195</ele>
<time>2023-05-16T12:54:31Z</time>
</trkpt>
<trkpt lat="49.0548599883914" lon="9.242031946778297">
<ele>195</ele>
<time>2023-05-16T12:54:32Z</time>
</trkpt>
<trkpt lat="49.05485797673464" lon="9.242029935121536">
<ele>195</ele>
<time>2023-05-16T12:54:33Z</time>
</trkpt>
<trkpt lat="49.05485697090626" lon="9.242029935121536">
<ele>195</ele>
<time>2023-05-16T12:54:35Z</time>
</trkpt>
<trkpt lat="49.0548549592495" lon="9.24203496426344">
<ele>195</ele>
<time>2023-05-16T12:54:36Z</time>
</trkpt>
<trkpt lat="49.05484791845083" lon="9.242051979526877">
<ele>195</ele>
<time>2023-05-16T12:54:37Z</time>
</trkpt>
<trkpt lat="49.05484791845083" lon="9.242052985355258">
<ele>195</ele>
<time>2023-05-16T12:54:38Z</time>
</trkpt>
<trkpt lat="49.05484196729958" lon="9.24205793067813">
<ele>195</ele>
<time>2023-05-16T12:54:39Z</time>
</trkpt>
<trkpt lat="49.05484297312796" lon="9.242041921243072">
<ele>195</ele>
<time>2023-05-16T12:54:40Z</time>
</trkpt>
<trkpt lat="49.05484297312796" lon="9.242029935121536">
<ele>195</ele>
<time>2023-05-16T12:54:41Z</time>
</trkpt>
<trkpt lat="49.05484498478472" lon="9.242022978141904">
<ele>195</ele>
<time>2023-05-16T12:54:42Z</time>
</trkpt>
<trkpt lat="49.05484297312796" lon="9.242021972313523">
<ele>195</ele>
<time>2023-05-16T12:54:43Z</time>
</trkpt>
<trkpt lat="49.05484297312796" lon="9.24201493151486">
<ele>195</ele>
<time>2023-05-16T12:54:44Z</time>
</trkpt>
<trkpt lat="49.054916985332966" lon="9.241899931803346">
<ele>195.20000000000005</ele>
<time>2023-05-16T12:54:45Z</time>
</trkpt>
<trkpt lat="49.05493198893964" lon="9.241871936246753">
<ele>195.20000000000005</ele>
<time>2023-05-16T12:54:45Z</time>
</trkpt>
<trkpt lat="49.05494196340442" lon="9.241857938468456">
<ele>195.20000000000005</ele>
<time>2023-05-16T12:54:46Z</time>
</trkpt>
<trkpt lat="49.0549429692328" lon="9.241851987317204">
<ele>195.20000000000005</ele>
<time>2023-05-16T12:54:47Z</time>
</trkpt>
<trkpt lat="49.0549479983747" lon="9.241851987317204">
<ele>195.20000000000005</ele>
<time>2023-05-16T12:54:48Z</time>
</trkpt>
<trkpt lat="49.05495193786919" lon="9.241856932640076">
<ele>195.20000000000005</ele>
<time>2023-05-16T12:54:49Z</time>
</trkpt>
<trkpt lat="49.054917991161346" lon="9.241969920694828">
<ele>195.20000000000005</ele>
<time>2023-05-16T12:54:50Z</time>
</trkpt>
<trkpt lat="49.054919918999076" lon="9.241982996463776">
<ele>195.20000000000005</ele>
<time>2023-05-16T12:54:51Z</time>
</trkpt>
<trkpt lat="49.05493198893964" lon="9.241969920694828">
<ele>195.20000000000005</ele>
<time>2023-05-16T12:54:52Z</time>
</trkpt>
<trkpt lat="49.05492193065584" lon="9.241977967321873">
<ele>195.20000000000005</ele>
<time>2023-05-16T12:54:53Z</time>
</trkpt>
<trkpt lat="49.054916985332966" lon="9.241979978978634">
<ele>195.20000000000005</ele>
<time>2023-05-16T12:54:54Z</time>
</trkpt>
<trkpt lat="49.054917991161346" lon="9.241982996463776">
<ele>195.20000000000005</ele>
<time>2023-05-16T12:54:55Z</time>
</trkpt>
<trkpt lat="49.054917991161346" lon="9.241984924301505">
<ele>195.20000000000005</ele>
<time>2023-05-16T12:54:56Z</time>
</trkpt>
<trkpt lat="49.05491195619106" lon="9.241996994242072">
<ele>195.20000000000005</ele>
<time>2023-05-16T12:54:57Z</time>
</trkpt>
<trkpt lat="49.054917991161346" lon="9.241981990635395">
<ele>195.20000000000005</ele>
<time>2023-05-16T12:54:58Z</time>
</trkpt>
<trkpt lat="49.054919918999076" lon="9.241989953443408">
<ele>195.20000000000005</ele>
<time>2023-05-16T12:54:59Z</time>
</trkpt>
<trkpt lat="49.054917991161346" lon="9.241984924301505">
<ele>195.20000000000005</ele>
<time>2023-05-16T12:55:00Z</time>
</trkpt>
<trkpt lat="49.054919918999076" lon="9.241969920694828">
<ele>195.20000000000005</ele>
<time>2023-05-16T12:55:01Z</time>
</trkpt>
<trkpt lat="49.054914973676205" lon="9.24197193235159">
<ele>195.20000000000005</ele>
<time>2023-05-16T12:55:02Z</time>
</trkpt>
<trkpt lat="49.05491296201944" lon="9.241964975371957">
<ele>195.20000000000005</ele>
<time>2023-05-16T12:55:03Z</time>
</trkpt>
<trkpt lat="49.05491195619106" lon="9.241961957886815">
<ele>195.20000000000005</ele>
<time>2023-05-16T12:55:04Z</time>
</trkpt>
<trkpt lat="49.05490499921143" lon="9.241962963715196">
<ele>195.20000000000005</ele>
<time>2023-05-16T12:55:05Z</time>
</trkpt>
<trkpt lat="49.05489997006953" lon="9.241964975371957">
<ele>195.20000000000005</ele>
<time>2023-05-16T12:55:06Z</time>
</trkpt>
<trkpt lat="49.054894940927625" lon="9.241964975371957">
<ele>195</ele>
<time>2023-05-16T12:55:07Z</time>
</trkpt>
<trkpt lat="49.05488999560475" lon="9.241967992857099">
<ele>195</ele>
<time>2023-05-16T12:55:08Z</time>
</trkpt>
<trkpt lat="49.05488999560475" lon="9.24197193235159">
<ele>195</ele>
<time>2023-05-16T12:55:09Z</time>
</trkpt>
<trkpt lat="49.05488496646285" lon="9.241966987028718">
<ele>195</ele>
<time>2023-05-16T12:55:10Z</time>
</trkpt>
<trkpt lat="49.05488697811961" lon="9.241964975371957">
<ele>195</ele>
<time>2023-05-16T12:55:11Z</time>
</trkpt>
<trkpt lat="49.05488697811961" lon="9.241962963715196">
<ele>195</ele>
<time>2023-05-16T12:55:12Z</time>
</trkpt>
<trkpt lat="49.05488295480609" lon="9.241951983422041">
<ele>195</ele>
<time>2023-05-16T12:55:13Z</time>
</trkpt>
<trkpt lat="49.05488295480609" lon="9.241932956501842">
<ele>195</ele>
<time>2023-05-16T12:55:14Z</time>
</trkpt>
<trkpt lat="49.05488798394799" lon="9.241927927359939">
<ele>195</ele>
<time>2023-05-16T12:55:17Z</time>
</trkpt>
<trkpt lat="49.05488194897771" lon="9.241931950673461">
<ele>195</ele>
<time>2023-05-16T12:55:18Z</time>
</trkpt>
<trkpt lat="49.05487993732095" lon="9.241939997300506">
<ele>195</ele>
<time>2023-05-16T12:55:19Z</time>
</trkpt>
<trkpt lat="49.05487993732095" lon="9.241942930966616">
<ele>195</ele>
<time>2023-05-16T12:55:20Z</time>
</trkpt>
<trkpt lat="49.05487792566419" lon="9.241936979815364">
<ele>195</ele>
<time>2023-05-16T12:55:21Z</time>
</trkpt>
<trkpt lat="49.05488194897771" lon="9.241931950673461">
<ele>195</ele>
<time>2023-05-16T12:55:22Z</time>
</trkpt>
<trkpt lat="49.05488496646285" lon="9.241921976208687">
<ele>195</ele>
<time>2023-05-16T12:55:23Z</time>
</trkpt>
<trkpt lat="49.05488798394799" lon="9.241911917924881">
<ele>195</ele>
<time>2023-05-16T12:55:24Z</time>
</trkpt>
<trkpt lat="49.054896952584386" lon="9.241897920146585">
<ele>195</ele>
<time>2023-05-16T12:55:25Z</time>
</trkpt>
<trkpt lat="49.0549099445343" lon="9.24190697260201">
<ele>195</ele>
<time>2023-05-16T12:55:26Z</time>
</trkpt>
<trkpt lat="49.05493299476802" lon="9.24190797843039">
<ele>195</ele>
<time>2023-05-16T12:55:27Z</time>
</trkpt>
<trkpt lat="49.054937940090895" lon="9.241909990087152">
<ele>195</ele>
<time>2023-05-16T12:55:28Z</time>
</trkpt>
<trkpt lat="49.05494498088956" lon="9.241914935410023">
<ele>195</ele>
<time>2023-05-16T12:55:29Z</time>
</trkpt>
<trkpt lat="49.05495495535433" lon="9.241917952895164">
<ele>195</ele>
<time>2023-05-16T12:55:30Z</time>
</trkpt>
<trkpt lat="49.0549429692328" lon="9.241917952895164">
<ele>195</ele>
<time>2023-05-16T12:55:31Z</time>
</trkpt>
<trkpt lat="49.05495193786919" lon="9.24190697260201">
<ele>195</ele>
<time>2023-05-16T12:55:32Z</time>
</trkpt>
<trkpt lat="49.054961996153" lon="9.241889957338572">
<ele>195</ele>
<time>2023-05-16T12:55:33Z</time>
</trkpt>
<trkpt lat="49.054959984496236" lon="9.241889957338572">
<ele>195</ele>
<time>2023-05-16T12:55:34Z</time>
</trkpt>
<trkpt lat="49.054956967011094" lon="9.241901943460107">
<ele>195</ele>
<time>2023-05-16T12:55:35Z</time>
</trkpt>
<trkpt lat="49.0549429692328" lon="9.241911917924881">
<ele>195</ele>
<time>2023-05-16T12:55:36Z</time>
</trkpt>
<trkpt lat="49.05493492260575" lon="9.241927927359939">
<ele>195</ele>
<time>2023-05-16T12:55:37Z</time>
</trkpt>
<trkpt lat="49.05492997728288" lon="9.241951983422041">
<ele>195</ele>
<time>2023-05-16T12:55:38Z</time>
</trkpt>
<trkpt lat="49.05492293648422" lon="9.241967992857099">
<ele>195</ele>
<time>2023-05-16T12:55:39Z</time>
</trkpt>
<trkpt lat="49.05492193065584" lon="9.241986935958266">
<ele>195</ele>
<time>2023-05-16T12:55:40Z</time>
</trkpt>
<trkpt lat="49.054917991161346" lon="9.241994982585311">
<ele>195</ele>
<time>2023-05-16T12:55:41Z</time>
</trkpt>
<trkpt lat="49.05492695979774" lon="9.241996994242072">
<ele>195</ele>
<time>2023-05-16T12:55:42Z</time>
</trkpt>
<trkpt lat="49.05492997728288" lon="9.241989953443408">
<ele>195</ele>
<time>2023-05-16T12:55:43Z</time>
</trkpt>
<trkpt lat="49.05492796562612" lon="9.241981990635395">
<ele>195</ele>
<time>2023-05-16T12:55:44Z</time>
</trkpt>
<trkpt lat="49.05492494814098" lon="9.241977967321873">
<ele>195</ele>
<time>2023-05-16T12:55:45Z</time>
</trkpt>
<trkpt lat="49.05492494814098" lon="9.241976961493492">
<ele>195</ele>
<time>2023-05-16T12:55:46Z</time>
</trkpt>
<trkpt lat="49.05492193065584" lon="9.24197293817997">
<ele>195</ele>
<time>2023-05-16T12:55:47Z</time>
</trkpt>
<trkpt lat="49.05492193065584" lon="9.241967992857099">
<ele>195</ele>
<time>2023-05-16T12:55:48Z</time>
</trkpt>
<trkpt lat="49.054896952584386" lon="9.241999927908182">
<ele>194.60000000000002</ele>
<time>2023-05-16T12:55:48Z</time>
</trkpt>
<trkpt lat="49.054876919835806" lon="9.242006968706846">
<ele>194.60000000000002</ele>
<time>2023-05-16T12:55:49Z</time>
</trkpt>
<trkpt lat="49.0548599883914" lon="9.242006968706846">
<ele>194.60000000000002</ele>
<time>2023-05-16T12:55:50Z</time>
</trkpt>
<trkpt lat="49.0548549592495" lon="9.24201199784875">
<ele>194.60000000000002</ele>
<time>2023-05-16T12:55:51Z</time>
</trkpt>
<trkpt lat="49.054852947592735" lon="9.242021972313523">
<ele>194.60000000000002</ele>
<time>2023-05-16T12:55:52Z</time>
</trkpt>
<trkpt lat="49.054851941764355" lon="9.242019960656762">
<ele>194.60000000000002</ele>
<time>2023-05-16T12:55:53Z</time>
</trkpt>
<trkpt lat="49.05485797673464" lon="9.242019960656762">
<ele>194.60000000000002</ele>
<time>2023-05-16T12:55:54Z</time>
</trkpt>
<trkpt lat="49.05486493371427" lon="9.242024989798665">
<ele>194.60000000000002</ele>
<time>2023-05-16T12:55:55Z</time>
</trkpt>
<trkpt lat="49.05485797673464" lon="9.242037981748581">
<ele>194.60000000000002</ele>
<time>2023-05-16T12:55:56Z</time>
</trkpt>
<trkpt lat="49.05484791845083" lon="9.242049967870116">
<ele>194.60000000000002</ele>
<time>2023-05-16T12:55:57Z</time>
</trkpt>
<trkpt lat="49.054851941764355" lon="9.242046950384974">
<ele>194.60000000000002</ele>
<time>2023-05-16T12:55:58Z</time>
</trkpt>
<trkpt lat="49.05485697090626" lon="9.242046950384974">
<ele>194.60000000000002</ele>
<time>2023-05-16T12:55:59Z</time>
</trkpt>
<trkpt lat="49.05485797673464" lon="9.242051979526877">
<ele>194.60000000000002</ele>
<time>2023-05-16T12:56:00Z</time>
</trkpt>
<trkpt lat="49.05486493371427" lon="9.242047956213355">
<ele>194.60000000000002</ele>
<time>2023-05-16T12:56:01Z</time>
</trkpt>
<trkpt lat="49.05486996285617" lon="9.242051979526877">
<ele>194.60000000000002</ele>
<time>2023-05-16T12:56:02Z</time>
</trkpt>
<trkpt lat="49.05482294037938" lon="9.24205793067813">
<ele>195</ele>
<time>2023-05-16T12:56:03Z</time>
</trkpt>
<trkpt lat="49.054821934551" lon="9.242062959820032">
<ele>195</ele>
<time>2023-05-16T12:56:03Z</time>
</trkpt>
<trkpt lat="49.05482294037938" lon="9.242062959820032">
<ele>195</ele>
<time>2023-05-16T12:56:04Z</time>
</trkpt>
<trkpt lat="49.0548269636929" lon="9.24205499701202">
<ele>195</ele>
<time>2023-05-16T12:56:05Z</time>
</trkpt>
<trkpt lat="49.05482294037938" lon="9.242051979526877">
<ele>195</ele>
<time>2023-05-16T12:56:06Z</time>
</trkpt>
<trkpt lat="49.05482495203614" lon="9.242052985355258">
<ele>195</ele>
<time>2023-05-16T12:56:08Z</time>
</trkpt>
<trkpt lat="49.054829981178045" lon="9.242056924849749">
<ele>195</ele>
<time>2023-05-16T12:56:09Z</time>
</trkpt>
<trkpt lat="49.054829981178045" lon="9.242061953991652">
<ele>195</ele>
<time>2023-05-16T12:56:10Z</time>
</trkpt>
<trkpt lat="49.0548269636929" lon="9.242064971476793">
<ele>195</ele>
<time>2023-05-16T12:56:11Z</time>
</trkpt>
<trkpt lat="49.05482495203614" lon="9.242062959820032">
<ele>195</ele>
<time>2023-05-16T12:56:12Z</time>
</trkpt>
<trkpt lat="49.0548269636929" lon="9.24205994233489">
<ele>195</ele>
<time>2023-05-16T12:56:13Z</time>
</trkpt>
<trkpt lat="49.054827969521284" lon="9.242051979526877">
<ele>195</ele>
<time>2023-05-16T12:56:14Z</time>
</trkpt>
<trkpt lat="49.05483299866319" lon="9.242049967870116">
<ele>195</ele>
<time>2023-05-16T12:56:15Z</time>
</trkpt>
<trkpt lat="49.05483693815768" lon="9.242047956213355">
<ele>195</ele>
<time>2023-05-16T12:56:16Z</time>
</trkpt>
<trkpt lat="49.05483794398606" lon="9.242047956213355">
<ele>195</ele>
<time>2023-05-16T12:56:17Z</time>
</trkpt>
<trkpt lat="49.054831992834806" lon="9.242052985355258">
<ele>195</ele>
<time>2023-05-16T12:56:18Z</time>
</trkpt>
<trkpt lat="49.05483299866319" lon="9.242051979526877">
<ele>195</ele>
<time>2023-05-16T12:56:19Z</time>
</trkpt>
<trkpt lat="49.05483693815768" lon="9.242052985355258">
<ele>195</ele>
<time>2023-05-16T12:56:20Z</time>
</trkpt>
<trkpt lat="49.05483995564282" lon="9.24205499701202">
<ele>195</ele>
<time>2023-05-16T12:56:21Z</time>
</trkpt>
<trkpt lat="49.05483794398606" lon="9.242056924849749">
<ele>195</ele>
<time>2023-05-16T12:56:22Z</time>
</trkpt>
<trkpt lat="49.05484699644148" lon="9.242072934284806">
<ele>194.79999999999995</ele>
<time>2023-05-16T12:56:22Z</time>
</trkpt>
<trkpt lat="49.05484791845083" lon="9.242072934284806">
<ele>194.79999999999995</ele>
<time>2023-05-16T12:56:23Z</time>
</trkpt>
<trkpt lat="49.05484699644148" lon="9.242069916799664">
<ele>194.79999999999995</ele>
<time>2023-05-16T12:56:24Z</time>
</trkpt>
<trkpt lat="49.05486795119941" lon="9.242001939564943">
<ele>194.79999999999995</ele>
<time>2023-05-16T12:56:24Z</time>
</trkpt>
<trkpt lat="49.05486795119941" lon="9.242007974535227">
<ele>194.79999999999995</ele>
<time>2023-05-16T12:56:25Z</time>
</trkpt>
<trkpt lat="49.0548599883914" lon="9.242026917636395">
<ele>194.79999999999995</ele>
<time>2023-05-16T12:56:26Z</time>
</trkpt>
<trkpt lat="49.054852947592735" lon="9.24203496426344">
<ele>194.79999999999995</ele>
<time>2023-05-16T12:56:27Z</time>
</trkpt>
<trkpt lat="49.05484699644148" lon="9.242046950384974">
<ele>194.79999999999995</ele>
<time>2023-05-16T12:56:28Z</time>
</trkpt>
<trkpt lat="49.05484791845083" lon="9.242049967870116">
<ele>194.79999999999995</ele>
<time>2023-05-16T12:56:29Z</time>
</trkpt>
<trkpt lat="49.05484699644148" lon="9.24205499701202">
<ele>194.79999999999995</ele>
<time>2023-05-16T12:56:30Z</time>
</trkpt>
<trkpt lat="49.05484297312796" lon="9.24205793067813">
<ele>194.79999999999995</ele>
<time>2023-05-16T12:56:31Z</time>
</trkpt>
<trkpt lat="49.05484498478472" lon="9.242056924849749">
<ele>194.79999999999995</ele>
<time>2023-05-16T12:56:32Z</time>
</trkpt>
<trkpt lat="49.054851941764355" lon="9.242049967870116">
<ele>194.79999999999995</ele>
<time>2023-05-16T12:56:33Z</time>
</trkpt>
<trkpt lat="49.05485797673464" lon="9.242039993405342">
<ele>194.79999999999995</ele>
<time>2023-05-16T12:56:34Z</time>
</trkpt>
<trkpt lat="49.05486694537103" lon="9.242031946778297">
<ele>194.79999999999995</ele>
<time>2023-05-16T12:56:35Z</time>
</trkpt>
<trkpt lat="49.05487792566419" lon="9.242007974535227">
<ele>194.79999999999995</ele>
<time>2023-05-16T12:56:36Z</time>
</trkpt>
<trkpt lat="49.05488999560475" lon="9.241982996463776">
<ele>194.79999999999995</ele>
<time>2023-05-16T12:56:37Z</time>
</trkpt>
<trkpt lat="49.05488999560475" lon="9.242002945393324">
<ele>194.79999999999995</ele>
<time>2023-05-16T12:56:38Z</time>
</trkpt>
<trkpt lat="49.05489292927086" lon="9.24201199784875">
<ele>194.79999999999995</ele>
<time>2023-05-16T12:56:39Z</time>
</trkpt>
<trkpt lat="49.05489997006953" lon="9.241997916251421">
<ele>194.79999999999995</ele>
<time>2023-05-16T12:56:40Z</time>
</trkpt>
<trkpt lat="49.0549099445343" lon="9.241977967321873">
<ele>194.79999999999995</ele>
<time>2023-05-16T12:56:41Z</time>
</trkpt>
<trkpt lat="49.05491296201944" lon="9.241984924301505">
<ele>194.79999999999995</ele>
<time>2023-05-16T12:56:42Z</time>
</trkpt>
<trkpt lat="49.054914973676205" lon="9.24199196510017">
<ele>194.79999999999995</ele>
<time>2023-05-16T12:56:43Z</time>
</trkpt>
<trkpt lat="49.054896952584386" lon="9.241997916251421">
<ele>194.79999999999995</ele>
<time>2023-05-16T12:56:44Z</time>
</trkpt>
<trkpt lat="49.05488798394799" lon="9.242002945393324">
<ele>194.79999999999995</ele>
<time>2023-05-16T12:56:45Z</time>
</trkpt>
<trkpt lat="49.05488496646285" lon="9.242001939564943">
<ele>194.79999999999995</ele>
<time>2023-05-16T12:56:46Z</time>
</trkpt>
<trkpt lat="49.05488295480609" lon="9.242007974535227">
<ele>194.79999999999995</ele>
<time>2023-05-16T12:56:47Z</time>
</trkpt>
<trkpt lat="49.05488194897771" lon="9.242006968706846">
<ele>194.79999999999995</ele>
<time>2023-05-16T12:56:48Z</time>
</trkpt>
<trkpt lat="49.05488194897771" lon="9.242004957050085">
<ele>194.79999999999995</ele>
<time>2023-05-16T12:56:49Z</time>
</trkpt>
<trkpt lat="49.054876919835806" lon="9.242012919858098">
<ele>194.79999999999995</ele>
<time>2023-05-16T12:56:50Z</time>
</trkpt>
<trkpt lat="49.05484791845083" lon="9.242216935381293">
<ele>194.60000000000002</ele>
<time>2023-05-16T12:56:50Z</time>
</trkpt>
<trkpt lat="49.05484791845083" lon="9.242222970351577">
<ele>194.60000000000002</ele>
<time>2023-05-16T12:56:51Z</time>
</trkpt>
<trkpt lat="49.05484498478472" lon="9.242236968129873">
<ele>194.60000000000002</ele>
<time>2023-05-16T12:56:52Z</time>
</trkpt>
<trkpt lat="49.054829981178045" lon="9.24225197173655">
<ele>194.60000000000002</ele>
<time>2023-05-16T12:56:53Z</time>
</trkpt>
<trkpt lat="49.054831992834806" lon="9.242262952029705">
<ele>194.60000000000002</ele>
<time>2023-05-16T12:56:54Z</time>
</trkpt>
<trkpt lat="49.05483794398606" lon="9.242256917059422">
<ele>194.60000000000002</ele>
<time>2023-05-16T12:56:55Z</time>
</trkpt>
<trkpt lat="49.05484196729958" lon="9.242261946201324">
<ele>194.60000000000002</ele>
<time>2023-05-16T12:56:56Z</time>
</trkpt>
<trkpt lat="49.054852947592735" lon="9.242262952029705">
<ele>194.60000000000002</ele>
<time>2023-05-16T12:56:57Z</time>
</trkpt>
<trkpt lat="49.05486191622913" lon="9.242276949808002">
<ele>194.60000000000002</ele>
<time>2023-05-16T12:56:58Z</time>
</trkpt>
<trkpt lat="49.05486694537103" lon="9.24229295924306">
<ele>194.60000000000002</ele>
<time>2023-05-16T12:56:59Z</time>
</trkpt>
<trkpt lat="49.054851941764355" lon="9.24231299199164">
<ele>194.60000000000002</ele>
<time>2023-05-16T12:57:00Z</time>
</trkpt>
<trkpt lat="49.054852947592735" lon="9.242306957021356">
<ele>194.60000000000002</ele>
<time>2023-05-16T12:57:01Z</time>
</trkpt>
<trkpt lat="49.054852947592735" lon="9.242304945364594">
<ele>194.60000000000002</ele>
<time>2023-05-16T12:57:02Z</time>
</trkpt>
<trkpt lat="49.05484993010759" lon="9.242301927879453">
<ele>194.60000000000002</ele>
<time>2023-05-16T12:57:03Z</time>
</trkpt>
<trkpt lat="49.054851941764355" lon="9.242297988384962">
<ele>194.60000000000002</ele>
<time>2023-05-16T12:57:04Z</time>
</trkpt>
<trkpt lat="49.054851941764355" lon="9.242276949808002">
<ele>194.60000000000002</ele>
<time>2023-05-16T12:57:05Z</time>
</trkpt>
<trkpt lat="49.05484791845083" lon="9.242222970351577">
<ele>194.60000000000002</ele>
<time>2023-05-16T12:57:06Z</time>
</trkpt>
<trkpt lat="49.05484791845083" lon="9.242177959531546">
<ele>194.60000000000002</ele>
<time>2023-05-16T12:57:07Z</time>
</trkpt>
<trkpt lat="49.05484993010759" lon="9.242171924561262">
<ele>194.60000000000002</ele>
<time>2023-05-16T12:57:08Z</time>
</trkpt>
<trkpt lat="49.0548549592495" lon="9.24214493483305">
<ele>194.60000000000002</ele>
<time>2023-05-16T12:57:09Z</time>
</trkpt>
<trkpt lat="49.054851941764355" lon="9.242142923176289">
<ele>194.60000000000002</ele>
<time>2023-05-16T12:57:10Z</time>
</trkpt>
<trkpt lat="49.054851941764355" lon="9.242136972025037">
<ele>194.60000000000002</ele>
<time>2023-05-16T12:57:11Z</time>
</trkpt>
<trkpt lat="49.05484498478472" lon="9.242132948711514">
<ele>194.60000000000002</ele>
<time>2023-05-16T12:57:12Z</time>
</trkpt>
<trkpt lat="49.05483492650092" lon="9.242136972025037">
<ele>194.39999999999998</ele>
<time>2023-05-16T12:57:13Z</time>
</trkpt>
<trkpt lat="49.054827969521284" lon="9.242136972025037">
<ele>194.39999999999998</ele>
<time>2023-05-16T12:57:14Z</time>
</trkpt>
<trkpt lat="49.054827969521284" lon="9.242141917347908">
<ele>194.39999999999998</ele>
<time>2023-05-16T12:57:15Z</time>
</trkpt>
<trkpt lat="49.054821934551" lon="9.242137977853417">
<ele>194.39999999999998</ele>
<time>2023-05-16T12:57:16Z</time>
</trkpt>
<trkpt lat="49.05481992289424" lon="9.242126997560263">
<ele>194.39999999999998</ele>
<time>2023-05-16T12:57:17Z</time>
</trkpt>
<trkpt lat="49.05481992289424" lon="9.242109982296824">
<ele>194.39999999999998</ele>
<time>2023-05-16T12:57:18Z</time>
</trkpt>
<trkpt lat="49.054821934551" lon="9.242104953154922">
<ele>194.39999999999998</ele>
<time>2023-05-16T12:57:19Z</time>
</trkpt>
<trkpt lat="49.0548269636929" lon="9.242089949548244">
<ele>194.39999999999998</ele>
<time>2023-05-16T12:57:20Z</time>
</trkpt>
<trkpt lat="49.054831992834806" lon="9.242081986740232">
<ele>194.39999999999998</ele>
<time>2023-05-16T12:57:21Z</time>
</trkpt>
<trkpt lat="49.05483794398606" lon="9.242067988961935">
<ele>194.39999999999998</ele>
<time>2023-05-16T12:57:22Z</time>
</trkpt>
<trkpt lat="49.05483794398606" lon="9.242062959820032">
<ele>194.39999999999998</ele>
<time>2023-05-16T12:57:23Z</time>
</trkpt>
<trkpt lat="49.054827969521284" lon="9.242061953991652">
<ele>194.39999999999998</ele>
<time>2023-05-16T12:57:24Z</time>
</trkpt>
<trkpt lat="49.0548269636929" lon="9.24205499701202">
<ele>194.39999999999998</ele>
<time>2023-05-16T12:57:25Z</time>
</trkpt>
<trkpt lat="49.05482294037938" lon="9.242046950384974">
<ele>194.39999999999998</ele>
<time>2023-05-16T12:57:26Z</time>
</trkpt>
<trkpt lat="49.05481698922813" lon="9.242042927071452">
<ele>194.39999999999998</ele>
<time>2023-05-16T12:57:27Z</time>
</trkpt>
<trkpt lat="49.054809948429465" lon="9.242046950384974">
<ele>194.39999999999998</ele>
<time>2023-05-16T12:57:28Z</time>
</trkpt>
<trkpt lat="49.05480299144983" lon="9.242044938728213">
<ele>194.39999999999998</ele>
<time>2023-05-16T12:57:29Z</time>
</trkpt>
<trkpt lat="49.05479695647955" lon="9.242046950384974">
<ele>194.39999999999998</ele>
<time>2023-05-16T12:57:30Z</time>
</trkpt>
<trkpt lat="49.05479796230793" lon="9.242039993405342">
<ele>194.39999999999998</ele>
<time>2023-05-16T12:57:31Z</time>
</trkpt>
<trkpt lat="49.05479796230793" lon="9.242032952606678">
<ele>194.39999999999998</ele>
<time>2023-05-16T12:57:32Z</time>
</trkpt>
<trkpt lat="49.05480693094432" lon="9.242022978141904">
<ele>194.39999999999998</ele>
<time>2023-05-16T12:57:33Z</time>
</trkpt>
<trkpt lat="49.054809948429465" lon="9.24201694317162">
<ele>194.39999999999998</ele>
<time>2023-05-16T12:57:34Z</time>
</trkpt>
<trkpt lat="49.054807936772704" lon="9.242017949000001">
<ele>194.39999999999998</ele>
<time>2023-05-16T12:57:35Z</time>
</trkpt>
<trkpt lat="49.05481296591461" lon="9.242017949000001">
<ele>194.39999999999998</ele>
<time>2023-05-16T12:57:37Z</time>
</trkpt>
<trkpt lat="49.05481799505651" lon="9.242017949000001">
<ele>194.39999999999998</ele>
<time>2023-05-16T12:57:38Z</time>
</trkpt>
<trkpt lat="49.05481799505651" lon="9.242022978141904">
<ele>194.39999999999998</ele>
<time>2023-05-16T12:57:39Z</time>
</trkpt>
<trkpt lat="49.05481992289424" lon="9.242027923464775">
<ele>194.39999999999998</ele>
<time>2023-05-16T12:57:40Z</time>
</trkpt>
<trkpt lat="49.054821934551" lon="9.242029935121536">
<ele>194.39999999999998</ele>
<time>2023-05-16T12:57:41Z</time>
</trkpt>
<trkpt lat="49.05482495203614" lon="9.242029935121536">
<ele>194.39999999999998</ele>
<time>2023-05-16T12:57:42Z</time>
</trkpt>
<trkpt lat="49.05481196008623" lon="9.241957934573293">
<ele>194.20000000000005</ele>
<time>2023-05-16T12:57:42Z</time>
</trkpt>
<trkpt lat="49.054821934551" lon="9.241951983422041">
<ele>194.20000000000005</ele>
<time>2023-05-16T12:57:43Z</time>
</trkpt>
<trkpt lat="49.054829981178045" lon="9.241952989250422">
<ele>194.20000000000005</ele>
<time>2023-05-16T12:57:44Z</time>
</trkpt>
<trkpt lat="49.0548269636929" lon="9.241956928744912">
<ele>194.39999999999998</ele>
<time>2023-05-16T12:57:45Z</time>
</trkpt>
<trkpt lat="49.054829981178045" lon="9.241957934573293">
<ele>194.39999999999998</ele>
<time>2023-05-16T12:57:46Z</time>
</trkpt>
<trkpt lat="49.05483492650092" lon="9.241957934573293">
<ele>194.39999999999998</ele>
<time>2023-05-16T12:57:47Z</time>
</trkpt>
<trkpt lat="49.05484498478472" lon="9.241954917088151">
<ele>194.39999999999998</ele>
<time>2023-05-16T12:57:48Z</time>
</trkpt>
<trkpt lat="49.05484993010759" lon="9.241952989250422">
<ele>194.39999999999998</ele>
<time>2023-05-16T12:57:49Z</time>
</trkpt>
<trkpt lat="49.05484791845083" lon="9.241956928744912">
<ele>194.39999999999998</ele>
<time>2023-05-16T12:57:50Z</time>
</trkpt>
<trkpt lat="49.05484993010759" lon="9.241952989250422">
<ele>194.39999999999998</ele>
<time>2023-05-16T12:57:51Z</time>
</trkpt>
<trkpt lat="49.0548549592495" lon="9.241951983422041">
<ele>194.39999999999998</ele>
<time>2023-05-16T12:57:52Z</time>
</trkpt>
<trkpt lat="49.05486996285617" lon="9.241941925138235">
<ele>194.39999999999998</ele>
<time>2023-05-16T12:57:53Z</time>
</trkpt>
<trkpt lat="49.054872980341315" lon="9.241941925138235">
<ele>194.39999999999998</ele>
<time>2023-05-16T12:57:54Z</time>
</trkpt>
<trkpt lat="49.054872980341315" lon="9.241937985643744">
<ele>194.39999999999998</ele>
<time>2023-05-16T12:57:55Z</time>
</trkpt>
<trkpt lat="49.05486996285617" lon="9.241936979815364">
<ele>194.39999999999998</ele>
<time>2023-05-16T12:57:56Z</time>
</trkpt>
<trkpt lat="49.05486795119941" lon="9.241937985643744">
<ele>194.39999999999998</ele>
<time>2023-05-16T12:57:57Z</time>
</trkpt>
<trkpt lat="49.05486493371427" lon="9.241947960108519">
<ele>194.39999999999998</ele>
<time>2023-05-16T12:57:58Z</time>
</trkpt>
<trkpt lat="49.054871974512935" lon="9.241951983422041">
<ele>194.39999999999998</ele>
<time>2023-05-16T12:57:59Z</time>
</trkpt>
<trkpt lat="49.05487792566419" lon="9.241947960108519">
<ele>194.39999999999998</ele>
<time>2023-05-16T12:58:01Z</time>
</trkpt>
<trkpt lat="49.054874991998076" lon="9.241956928744912">
<ele>194.39999999999998</ele>
<time>2023-05-16T12:58:02Z</time>
</trkpt>
<trkpt lat="49.05486996285617" lon="9.241956928744912">
<ele>194.39999999999998</ele>
<time>2023-05-16T12:58:03Z</time>
</trkpt>
<trkpt lat="49.05486795119941" lon="9.241954917088151">
<ele>194.39999999999998</ele>
<time>2023-05-16T12:58:04Z</time>
</trkpt>
<trkpt lat="49.05484498478472" lon="9.241964975371957">
<ele>194.39999999999998</ele>
<time>2023-05-16T12:58:05Z</time>
</trkpt>
<trkpt lat="49.05483995564282" lon="9.24197193235159">
<ele>194.39999999999998</ele>
<time>2023-05-16T12:58:06Z</time>
</trkpt>
<trkpt lat="49.05483794398606" lon="9.24197293817997">
<ele>194.39999999999998</ele>
<time>2023-05-16T12:58:07Z</time>
</trkpt>
<trkpt lat="49.05483995564282" lon="9.241979978978634">
<ele>194.39999999999998</ele>
<time>2023-05-16T12:58:08Z</time>
</trkpt>
<trkpt lat="49.05484699644148" lon="9.241976961493492">
<ele>194.39999999999998</ele>
<time>2023-05-16T12:58:09Z</time>
</trkpt>
<trkpt lat="49.05488697811961" lon="9.24197293817997">
<ele>194.20000000000005</ele>
<time>2023-05-16T12:58:09Z</time>
</trkpt>
<trkpt lat="49.054894940927625" lon="9.241966987028718">
<ele>194.20000000000005</ele>
<time>2023-05-16T12:58:10Z</time>
</trkpt>
<trkpt lat="49.05490198172629" lon="9.241959946230054">
<ele>194.20000000000005</ele>
<time>2023-05-16T12:58:11Z</time>
</trkpt>
<trkpt lat="49.05490499921143" lon="9.241964975371957">
<ele>194.20000000000005</ele>
<time>2023-05-16T12:58:12Z</time>
</trkpt>
<trkpt lat="49.054916985332966" lon="9.241967992857099">
<ele>194.20000000000005</ele>
<time>2023-05-16T12:58:13Z</time>
</trkpt>
<trkpt lat="49.05492193065584" lon="9.241977967321873">
<ele>194.20000000000005</ele>
<time>2023-05-16T12:58:14Z</time>
</trkpt>
<trkpt lat="49.05493198893964" lon="9.241987941786647">
<ele>194.20000000000005</ele>
<time>2023-05-16T12:58:15Z</time>
</trkpt>
<trkpt lat="49.05494699254632" lon="9.241997916251421">
<ele>194.20000000000005</ele>
<time>2023-05-16T12:58:16Z</time>
</trkpt>
<trkpt lat="49.05494699254632" lon="9.241986935958266">
<ele>194.20000000000005</ele>
<time>2023-05-16T12:58:17Z</time>
</trkpt>
<trkpt lat="49.0549429692328" lon="9.241984924301505">
<ele>194.20000000000005</ele>
<time>2023-05-16T12:58:18Z</time>
</trkpt>
<trkpt lat="49.0549479983747" lon="9.241979978978634">
<ele>194.20000000000005</ele>
<time>2023-05-16T12:58:19Z</time>
</trkpt>
<trkpt lat="49.0549479983747" lon="9.24197193235159">
<ele>194.20000000000005</ele>
<time>2023-05-16T12:58:20Z</time>
</trkpt>
<trkpt lat="49.054956967011094" lon="9.241969920694828">
<ele>194.20000000000005</ele>
<time>2023-05-16T12:58:21Z</time>
</trkpt>
<trkpt lat="49.05494992621243" lon="9.241976961493492">
<ele>194.20000000000005</ele>
<time>2023-05-16T12:58:22Z</time>
</trkpt>
<trkpt lat="49.054939951747656" lon="9.241979978978634">
<ele>194</ele>
<time>2023-05-16T12:58:23Z</time>
</trkpt>
<trkpt lat="49.05492695979774" lon="9.241982996463776">
<ele>194</ele>
<time>2023-05-16T12:58:24Z</time>
</trkpt>
<trkpt lat="49.05492796562612" lon="9.241977967321873">
<ele>194</ele>
<time>2023-05-16T12:58:25Z</time>
</trkpt>
<trkpt lat="49.05491296201944" lon="9.241986935958266">
<ele>194</ele>
<time>2023-05-16T12:58:26Z</time>
</trkpt>
<trkpt lat="49.054914973676205" lon="9.241987941786647">
<ele>194</ele>
<time>2023-05-16T12:58:27Z</time>
</trkpt>
<trkpt lat="49.054914973676205" lon="9.241982996463776">
<ele>194</ele>
<time>2023-05-16T12:58:28Z</time>
</trkpt>
<trkpt lat="49.05491195619106" lon="9.241984924301505">
<ele>194</ele>
<time>2023-05-16T12:58:29Z</time>
</trkpt>
<trkpt lat="49.05490793287754" lon="9.241984924301505">
<ele>194</ele>
<time>2023-05-16T12:58:30Z</time>
</trkpt>
<trkpt lat="49.05488295480609" lon="9.24199297092855">
<ele>194</ele>
<time>2023-05-16T12:58:30Z</time>
</trkpt>
<trkpt lat="49.054874991998076" lon="9.241982996463776">
<ele>194</ele>
<time>2023-05-16T12:58:31Z</time>
</trkpt>
<trkpt lat="49.054874991998076" lon="9.241974949836731">
<ele>194</ele>
<time>2023-05-16T12:58:32Z</time>
</trkpt>
<trkpt lat="49.05487993732095" lon="9.241957934573293">
<ele>194</ele>
<time>2023-05-16T12:58:33Z</time>
</trkpt>
<trkpt lat="49.054872980341315" lon="9.241959946230054">
<ele>194</ele>
<time>2023-05-16T12:58:34Z</time>
</trkpt>
<trkpt lat="49.05488295480609" lon="9.241961957886815">
<ele>194</ele>
<time>2023-05-16T12:58:35Z</time>
</trkpt>
<trkpt lat="49.05488999560475" lon="9.241961957886815">
<ele>194</ele>
<time>2023-05-16T12:58:36Z</time>
</trkpt>
<trkpt lat="49.05490298755467" lon="9.241961957886815">
<ele>194.20000000000005</ele>
<time>2023-05-16T12:58:37Z</time>
</trkpt>
<trkpt lat="49.0549099445343" lon="9.241952989250422">
<ele>194.20000000000005</ele>
<time>2023-05-16T12:58:38Z</time>
</trkpt>
<trkpt lat="49.05492695979774" lon="9.241951983422041">
<ele>194.20000000000005</ele>
<time>2023-05-16T12:58:39Z</time>
</trkpt>
<trkpt lat="49.05494498088956" lon="9.241927927359939">
<ele>194.20000000000005</ele>
<time>2023-05-16T12:58:40Z</time>
</trkpt>
<trkpt lat="49.054957972839475" lon="9.241926921531558">
<ele>194.20000000000005</ele>
<time>2023-05-16T12:58:41Z</time>
</trkpt>
<trkpt lat="49.054962918162346" lon="9.241911917924881">
<ele>194.20000000000005</ele>
<time>2023-05-16T12:58:42Z</time>
</trkpt>
<trkpt lat="49.05496492981911" lon="9.241894986480474">
<ele>194.20000000000005</ele>
<time>2023-05-16T12:58:43Z</time>
</trkpt>
<trkpt lat="49.054956967011094" lon="9.241897920146585">
<ele>194.20000000000005</ele>
<time>2023-05-16T12:58:44Z</time>
</trkpt>
<trkpt lat="49.054961996153" lon="9.241889957338572">
<ele>194.20000000000005</ele>
<time>2023-05-16T12:58:45Z</time>
</trkpt>
<trkpt lat="49.054937940090895" lon="9.241902949288487">
<ele>194.20000000000005</ele>
<time>2023-05-16T12:58:46Z</time>
</trkpt>
<trkpt lat="49.05492293648422" lon="9.241927927359939">
<ele>194.20000000000005</ele>
<time>2023-05-16T12:58:47Z</time>
</trkpt>
<trkpt lat="49.054919918999076" lon="9.241939997300506">
<ele>194.20000000000005</ele>
<time>2023-05-16T12:58:48Z</time>
</trkpt>
<trkpt lat="49.054919918999076" lon="9.241941925138235">
<ele>194.20000000000005</ele>
<time>2023-05-16T12:58:49Z</time>
</trkpt>
<trkpt lat="49.05492193065584" lon="9.241946954280138">
<ele>194.20000000000005</ele>
<time>2023-05-16T12:58:50Z</time>
</trkpt>
<trkpt lat="49.05490793287754" lon="9.241957934573293">
<ele>194.20000000000005</ele>
<time>2023-05-16T12:58:51Z</time>
</trkpt>
<trkpt lat="49.05489795841277" lon="9.241957934573293">
<ele>194.20000000000005</ele>
<time>2023-05-16T12:58:52Z</time>
</trkpt>
<trkpt lat="49.05488999560475" lon="9.241957934573293">
<ele>194.20000000000005</ele>
<time>2023-05-16T12:58:53Z</time>
</trkpt>
<trkpt lat="49.05488798394799" lon="9.24197293817997">
<ele>194.20000000000005</ele>
<time>2023-05-16T12:58:54Z</time>
</trkpt>
<trkpt lat="49.05488496646285" lon="9.24199196510017">
<ele>194.20000000000005</ele>
<time>2023-05-16T12:58:55Z</time>
</trkpt>
<trkpt lat="49.05488295480609" lon="9.242001939564943">
<ele>194.20000000000005</ele>
<time>2023-05-16T12:58:56Z</time>
</trkpt>
<trkpt lat="49.05488295480609" lon="9.241994982585311">
<ele>194.20000000000005</ele>
<time>2023-05-16T12:58:57Z</time>
</trkpt>
<trkpt lat="49.05487993732095" lon="9.242007974535227">
<ele>194.20000000000005</ele>
<time>2023-05-16T12:58:58Z</time>
</trkpt>
<trkpt lat="49.05487792566419" lon="9.242007974535227">
<ele>194.20000000000005</ele>
<time>2023-05-16T12:58:59Z</time>
</trkpt>
<trkpt lat="49.05486996285617" lon="9.24201694317162">
<ele>194.20000000000005</ele>
<time>2023-05-16T12:59:00Z</time>
</trkpt>
<trkpt lat="49.054874991998076" lon="9.241989953443408">
<ele>194.20000000000005</ele>
<time>2023-05-16T12:59:01Z</time>
</trkpt>
<trkpt lat="49.05488295480609" lon="9.241976961493492">
<ele>194.20000000000005</ele>
<time>2023-05-16T12:59:02Z</time>
</trkpt>
<trkpt lat="49.05487993732095" lon="9.241969920694828">
<ele>194.20000000000005</ele>
<time>2023-05-16T12:59:03Z</time>
</trkpt>
<trkpt lat="49.05488194897771" lon="9.241966987028718">
<ele>194.20000000000005</ele>
<time>2023-05-16T12:59:04Z</time>
</trkpt>
<trkpt lat="49.05487792566419" lon="9.241974949836731">
<ele>194.20000000000005</ele>
<time>2023-05-16T12:59:05Z</time>
</trkpt>
<trkpt lat="49.05486795119941" lon="9.241979978978634">
<ele>194.20000000000005</ele>
<time>2023-05-16T12:59:06Z</time>
</trkpt>
<trkpt lat="49.054852947592735" lon="9.241982996463776">
<ele>194.20000000000005</ele>
<time>2023-05-16T12:59:07Z</time>
</trkpt>
<trkpt lat="49.05486191622913" lon="9.24197293817997">
<ele>194.20000000000005</ele>
<time>2023-05-16T12:59:08Z</time>
</trkpt>
<trkpt lat="49.05486694537103" lon="9.241961957886815">
<ele>194.20000000000005</ele>
<time>2023-05-16T12:59:09Z</time>
</trkpt>
<trkpt lat="49.054872980341315" lon="9.241956928744912">
<ele>194.20000000000005</ele>
<time>2023-05-16T12:59:10Z</time>
</trkpt>
<trkpt lat="49.05487792566419" lon="9.24194997176528">
<ele>194.20000000000005</ele>
<time>2023-05-16T12:59:11Z</time>
</trkpt>
<trkpt lat="49.05488295480609" lon="9.241957934573293">
<ele>194.20000000000005</ele>
<time>2023-05-16T12:59:12Z</time>
</trkpt>
<trkpt lat="49.05488496646285" lon="9.241954917088151">
<ele>194.20000000000005</ele>
<time>2023-05-16T12:59:13Z</time>
</trkpt>
<trkpt lat="49.05488496646285" lon="9.241967992857099">
<ele>194.20000000000005</ele>
<time>2023-05-16T12:59:14Z</time>
</trkpt>
<trkpt lat="49.054876919835806" lon="9.241986935958266">
<ele>194.20000000000005</ele>
<time>2023-05-16T12:59:15Z</time>
</trkpt>
<trkpt lat="49.054874991998076" lon="9.242032952606678">
<ele>194.20000000000005</ele>
<time>2023-05-16T12:59:16Z</time>
</trkpt>
<trkpt lat="49.05487792566419" lon="9.24203496426344">
<ele>194.20000000000005</ele>
<time>2023-05-16T12:59:17Z</time>
</trkpt>
<trkpt lat="49.054874991998076" lon="9.242031946778297">
<ele>194.20000000000005</ele>
<time>2023-05-16T12:59:18Z</time>
</trkpt>
<trkpt lat="49.05487993732095" lon="9.242031946778297">
<ele>194.20000000000005</ele>
<time>2023-05-16T12:59:19Z</time>
</trkpt>
<trkpt lat="49.05489997006953" lon="9.241981990635395">
<ele>194.20000000000005</ele>
<time>2023-05-16T12:59:20Z</time>
</trkpt>
<trkpt lat="49.05490692704916" lon="9.241946954280138">
<ele>194.20000000000005</ele>
<time>2023-05-16T12:59:21Z</time>
</trkpt>
<trkpt lat="49.05490793287754" lon="9.241927927359939">
<ele>194.20000000000005</ele>
<time>2023-05-16T12:59:22Z</time>
</trkpt>
<trkpt lat="49.054937940090895" lon="9.241866990923882">
<ele>194.20000000000005</ele>
<time>2023-05-16T12:59:23Z</time>
</trkpt>
<trkpt lat="49.05494196340442" lon="9.241852993145585">
<ele>194.20000000000005</ele>
<time>2023-05-16T12:59:24Z</time>
</trkpt>
<trkpt lat="49.05494196340442" lon="9.24184494651854">
<ele>194.20000000000005</ele>
<time>2023-05-16T12:59:25Z</time>
</trkpt>
<trkpt lat="49.0549479983747" lon="9.24184494651854">
<ele>194.20000000000005</ele>
<time>2023-05-16T12:59:26Z</time>
</trkpt>
<trkpt lat="49.054956967011094" lon="9.241847964003682">
<ele>194.20000000000005</ele>
<time>2023-05-16T12:59:27Z</time>
</trkpt>
<trkpt lat="49.05495294369757" lon="9.241869924589992">
<ele>194.20000000000005</ele>
<time>2023-05-16T12:59:28Z</time>
</trkpt>
<trkpt lat="49.05495294369757" lon="9.241874953731894">
<ele>194.20000000000005</ele>
<time>2023-05-16T12:59:29Z</time>
</trkpt>
<trkpt lat="49.054956967011094" lon="9.24186296761036">
<ele>194.20000000000005</ele>
<time>2023-05-16T12:59:30Z</time>
</trkpt>
<trkpt lat="49.05495495535433" lon="9.241866990923882">
<ele>194.20000000000005</ele>
<time>2023-05-16T12:59:31Z</time>
</trkpt>
<trkpt lat="49.054956967011094" lon="9.24186497926712">
<ele>194.20000000000005</ele>
<time>2023-05-16T12:59:32Z</time>
</trkpt>
<trkpt lat="49.054959984496236" lon="9.24186296761036">
<ele>194.20000000000005</ele>
<time>2023-05-16T12:59:33Z</time>
</trkpt>
<trkpt lat="49.05496694147587" lon="9.24184293486178">
<ele>194.20000000000005</ele>
<time>2023-05-16T12:59:34Z</time>
</trkpt>
<trkpt lat="49.05496694147587" lon="9.241841929033399">
<ele>194.20000000000005</ele>
<time>2023-05-16T12:59:35Z</time>
</trkpt>
<trkpt lat="49.05496694147587" lon="9.241839917376637">
<ele>194.20000000000005</ele>
<time>2023-05-16T12:59:36Z</time>
</trkpt>
<trkpt lat="49.05496794730425" lon="9.241836983710527">
<ele>194.20000000000005</ele>
<time>2023-05-16T12:59:37Z</time>
</trkpt>
<trkpt lat="49.054976999759674" lon="9.241824997588992">
<ele>194.20000000000005</ele>
<time>2023-05-16T12:59:38Z</time>
</trkpt>
<trkpt lat="49.05498496256769" lon="9.241827931255102">
<ele>194.20000000000005</ele>
<time>2023-05-16T12:59:39Z</time>
</trkpt>
<trkpt lat="49.05498999170959" lon="9.241829942911863">
<ele>194.20000000000005</ele>
<time>2023-05-16T12:59:40Z</time>
</trkpt>
<trkpt lat="49.05499493703246" lon="9.241841929033399">
<ele>194.20000000000005</ele>
<time>2023-05-16T12:59:41Z</time>
</trkpt>
<trkpt lat="49.05499493703246" lon="9.241834972053766">
<ele>194.20000000000005</ele>
<time>2023-05-16T12:59:42Z</time>
</trkpt>
<trkpt lat="49.05498496256769" lon="9.241871936246753">
<ele>194.20000000000005</ele>
<time>2023-05-16T12:59:43Z</time>
</trkpt>
<trkpt lat="49.05497792176902" lon="9.241897920146585">
<ele>194.20000000000005</ele>
<time>2023-05-16T12:59:44Z</time>
</trkpt>
<trkpt lat="49.05496995896101" lon="9.241941925138235">
<ele>194.20000000000005</ele>
<time>2023-05-16T12:59:45Z</time>
</trkpt>
<trkpt lat="49.054959984496236" lon="9.241974949836731">
<ele>194.20000000000005</ele>
<time>2023-05-16T12:59:46Z</time>
</trkpt>
<trkpt lat="49.054959984496236" lon="9.241986935958266">
<ele>194.20000000000005</ele>
<time>2023-05-16T12:59:47Z</time>
</trkpt>
<trkpt lat="49.054962918162346" lon="9.241984924301505">
<ele>194.20000000000005</ele>
<time>2023-05-16T12:59:48Z</time>
</trkpt>
<trkpt lat="49.05496492981911" lon="9.241989953443408">
<ele>194.20000000000005</ele>
<time>2023-05-16T12:59:49Z</time>
</trkpt>
<trkpt lat="49.05496694147587" lon="9.241989953443408">
<ele>194.20000000000005</ele>
<time>2023-05-16T12:59:50Z</time>
</trkpt>
<trkpt lat="49.05496794730425" lon="9.241984924301505">
<ele>194.20000000000005</ele>
<time>2023-05-16T12:59:51Z</time>
</trkpt>
<trkpt lat="49.05497297644615" lon="9.241981990635395">
<ele>194.20000000000005</ele>
<time>2023-05-16T12:59:52Z</time>
</trkpt>
<trkpt lat="49.05497197061777" lon="9.241989953443408">
<ele>194.20000000000005</ele>
<time>2023-05-16T12:59:53Z</time>
</trkpt>
<trkpt lat="49.05497197061777" lon="9.241999927908182">
<ele>194.20000000000005</ele>
<time>2023-05-16T12:59:54Z</time>
</trkpt>
<trkpt lat="49.05496794730425" lon="9.242002945393324">
<ele>194.20000000000005</ele>
<time>2023-05-16T12:59:55Z</time>
</trkpt>
<trkpt lat="49.054957972839475" lon="9.24201694317162">
<ele>194.20000000000005</ele>
<time>2023-05-16T12:59:56Z</time>
</trkpt>
<trkpt lat="49.0549479983747" lon="9.24203496426344">
<ele>194.20000000000005</ele>
<time>2023-05-16T12:59:57Z</time>
</trkpt>
<trkpt lat="49.0549429692328" lon="9.242039993405342">
<ele>194.20000000000005</ele>
<time>2023-05-16T12:59:58Z</time>
</trkpt>
<trkpt lat="49.054937940090895" lon="9.242046950384974">
<ele>194.20000000000005</ele>
<time>2023-05-16T12:59:59Z</time>
</trkpt>
<trkpt lat="49.05493198893964" lon="9.242047956213355">
<ele>194.20000000000005</ele>
<time>2023-05-16T13:00:00Z</time>
</trkpt>
<trkpt lat="49.05492796562612" lon="9.242047956213355">
<ele>194.20000000000005</ele>
<time>2023-05-16T13:00:01Z</time>
</trkpt>
<trkpt lat="49.05492997728288" lon="9.242047956213355">
<ele>194.20000000000005</ele>
<time>2023-05-16T13:00:02Z</time>
</trkpt>
<trkpt lat="49.05492695979774" lon="9.242051979526877">
<ele>194.20000000000005</ele>
<time>2023-05-16T13:00:03Z</time>
</trkpt>
<trkpt lat="49.05492293648422" lon="9.242051979526877">
<ele>194.20000000000005</ele>
<time>2023-05-16T13:00:04Z</time>
</trkpt>
<trkpt lat="49.05492193065584" lon="9.242019960656762">
<ele>194.20000000000005</ele>
<time>2023-05-16T13:00:04Z</time>
</trkpt>
<trkpt lat="49.054917991161346" lon="9.242019960656762">
<ele>194.20000000000005</ele>
<time>2023-05-16T13:00:05Z</time>
</trkpt>
<trkpt lat="49.054917991161346" lon="9.242009986191988">
<ele>194.20000000000005</ele>
<time>2023-05-16T13:00:06Z</time>
</trkpt>
<trkpt lat="49.054916985332966" lon="9.241999927908182">
<ele>194.20000000000005</ele>
<time>2023-05-16T13:00:07Z</time>
</trkpt>
<trkpt lat="49.054917991161346" lon="9.241987941786647">
<ele>194.20000000000005</ele>
<time>2023-05-16T13:00:08Z</time>
</trkpt>
<trkpt lat="49.054917991161346" lon="9.241969920694828">
<ele>194.20000000000005</ele>
<time>2023-05-16T13:00:09Z</time>
</trkpt>
<trkpt lat="49.054917991161346" lon="9.241957934573293">
<ele>194.20000000000005</ele>
<time>2023-05-16T13:00:11Z</time>
</trkpt>
<trkpt lat="49.054914973676205" lon="9.241957934573293">
<ele>194.20000000000005</ele>
<time>2023-05-16T13:00:12Z</time>
</trkpt>
<trkpt lat="49.05491296201944" lon="9.241946954280138">
<ele>194.20000000000005</ele>
<time>2023-05-16T13:00:13Z</time>
</trkpt>
<trkpt lat="49.05490793287754" lon="9.241942930966616">
<ele>194.20000000000005</ele>
<time>2023-05-16T13:00:14Z</time>
</trkpt>
<trkpt lat="49.05490692704916" lon="9.241939997300506">
<ele>194.20000000000005</ele>
<time>2023-05-16T13:00:15Z</time>
</trkpt>
<trkpt lat="49.05490692704916" lon="9.241934968158603">
<ele>194.20000000000005</ele>
<time>2023-05-16T13:00:16Z</time>
</trkpt>
<trkpt lat="49.0549099445343" lon="9.241917952895164">
<ele>194.20000000000005</ele>
<time>2023-05-16T13:00:17Z</time>
</trkpt>
<trkpt lat="49.05491195619106" lon="9.241916947066784">
<ele>194.20000000000005</ele>
<time>2023-05-16T13:00:18Z</time>
</trkpt>
<trkpt lat="49.054914973676205" lon="9.24190797843039">
<ele>194.20000000000005</ele>
<time>2023-05-16T13:00:19Z</time>
</trkpt>
<trkpt lat="49.05492193065584" lon="9.241892974823713">
<ele>194.20000000000005</ele>
<time>2023-05-16T13:00:20Z</time>
</trkpt>
<trkpt lat="49.05492494814098" lon="9.241891968995333">
<ele>194.20000000000005</ele>
<time>2023-05-16T13:00:21Z</time>
</trkpt>
<trkpt lat="49.05492997728288" lon="9.241891968995333">
<ele>194.20000000000005</ele>
<time>2023-05-16T13:00:22Z</time>
</trkpt>
<trkpt lat="49.05493299476802" lon="9.241889957338572">
<ele>194.20000000000005</ele>
<time>2023-05-16T13:00:23Z</time>
</trkpt>
<trkpt lat="49.05493299476802" lon="9.241884928196669">
<ele>194.20000000000005</ele>
<time>2023-05-16T13:00:24Z</time>
</trkpt>
<trkpt lat="49.05493492260575" lon="9.241874953731894">
<ele>194.20000000000005</ele>
<time>2023-05-16T13:00:25Z</time>
</trkpt>
<trkpt lat="49.054939951747656" lon="9.241874953731894">
<ele>194.20000000000005</ele>
<time>2023-05-16T13:00:26Z</time>
</trkpt>
<trkpt lat="49.0549429692328" lon="9.241857938468456">
<ele>194.20000000000005</ele>
<time>2023-05-16T13:00:27Z</time>
</trkpt>
<trkpt lat="49.0549429692328" lon="9.241846958175302">
<ele>194.20000000000005</ele>
<time>2023-05-16T13:00:28Z</time>
</trkpt>
<trkpt lat="49.05494992621243" lon="9.241836983710527">
<ele>194.20000000000005</ele>
<time>2023-05-16T13:00:29Z</time>
</trkpt>
<trkpt lat="49.05494992621243" lon="9.241831954568624">
<ele>194.20000000000005</ele>
<time>2023-05-16T13:00:30Z</time>
</trkpt>
<trkpt lat="49.05494699254632" lon="9.241839917376637">
<ele>194.20000000000005</ele>
<time>2023-05-16T13:00:31Z</time>
</trkpt>
<trkpt lat="49.05494992621243" lon="9.24182198010385">
<ele>194.20000000000005</ele>
<time>2023-05-16T13:00:32Z</time>
</trkpt>
<trkpt lat="49.054956967011094" lon="9.241824997588992">
<ele>194.20000000000005</ele>
<time>2023-05-16T13:00:33Z</time>
</trkpt>
<trkpt lat="49.054956967011094" lon="9.24182198010385">
<ele>194.20000000000005</ele>
<time>2023-05-16T13:00:34Z</time>
</trkpt>
<trkpt lat="49.054957972839475" lon="9.241817956790328">
<ele>194.20000000000005</ele>
<time>2023-05-16T13:00:35Z</time>
</trkpt>
<trkpt lat="49.054961996153" lon="9.241797924041748">
<ele>194.20000000000005</ele>
<time>2023-05-16T13:00:36Z</time>
</trkpt>
<trkpt lat="49.054962918162346" lon="9.241786943748593">
<ele>194.20000000000005</ele>
<time>2023-05-16T13:00:37Z</time>
</trkpt>
<trkpt lat="49.05496694147587" lon="9.241781998425722">
<ele>194.20000000000005</ele>
<time>2023-05-16T13:00:38Z</time>
</trkpt>
<trkpt lat="49.054962918162346" lon="9.241779986768961">
<ele>194.20000000000005</ele>
<time>2023-05-16T13:00:40Z</time>
</trkpt>
<trkpt lat="49.054956967011094" lon="9.241789961233735">
<ele>194.20000000000005</ele>
<time>2023-05-16T13:00:41Z</time>
</trkpt>
<trkpt lat="49.054956967011094" lon="9.241797924041748">
<ele>194.20000000000005</ele>
<time>2023-05-16T13:00:42Z</time>
</trkpt>
<trkpt lat="49.054957972839475" lon="9.241792978718877">
<ele>194.20000000000005</ele>
<time>2023-05-16T13:00:43Z</time>
</trkpt>
<trkpt lat="49.05495294369757" lon="9.24180194735527">
<ele>194.20000000000005</ele>
<time>2023-05-16T13:00:44Z</time>
</trkpt>
<trkpt lat="49.05495495535433" lon="9.241764983162284">
<ele>194.20000000000005</ele>
<time>2023-05-16T13:00:45Z</time>
</trkpt>
<trkpt lat="49.05496694147587" lon="9.241721983999014">
<ele>194.20000000000005</ele>
<time>2023-05-16T13:00:46Z</time>
</trkpt>
<trkpt lat="49.05497297644615" lon="9.241704968735576">
<ele>194.20000000000005</ele>
<time>2023-05-16T13:00:47Z</time>
</trkpt>
<trkpt lat="49.054976999759674" lon="9.241697927936912">
<ele>194.20000000000005</ele>
<time>2023-05-16T13:00:48Z</time>
</trkpt>
<trkpt lat="49.05496694147587" lon="9.241724917665124">
<ele>194.20000000000005</ele>
<time>2023-05-16T13:00:50Z</time>
</trkpt>
<trkpt lat="49.05495294369757" lon="9.241761965677142">
<ele>194.20000000000005</ele>
<time>2023-05-16T13:00:51Z</time>
</trkpt>
<trkpt lat="49.05495193786919" lon="9.24179993569851">
<ele>194.20000000000005</ele>
<time>2023-05-16T13:00:52Z</time>
</trkpt>
<trkpt lat="49.05494992621243" lon="9.241826925426722">
<ele>194.20000000000005</ele>
<time>2023-05-16T13:00:53Z</time>
</trkpt>
<trkpt lat="49.05494699254632" lon="9.241852993145585">
<ele>194.20000000000005</ele>
<time>2023-05-16T13:00:54Z</time>
</trkpt>
<trkpt lat="49.054936934262514" lon="9.241872942075133">
<ele>194.20000000000005</ele>
<time>2023-05-16T13:00:55Z</time>
</trkpt>
<trkpt lat="49.05492695979774" lon="9.241891968995333">
<ele>194.20000000000005</ele>
<time>2023-05-16T13:00:56Z</time>
</trkpt>
<trkpt lat="49.05492494814098" lon="9.241874953731894">
<ele>194.20000000000005</ele>
<time>2023-05-16T13:00:57Z</time>
</trkpt>
<trkpt lat="49.05493299476802" lon="9.241832960397005">
<ele>194.20000000000005</ele>
<time>2023-05-16T13:00:58Z</time>
</trkpt>
<trkpt lat="49.05494196340442" lon="9.241811921820045">
<ele>194.20000000000005</ele>
<time>2023-05-16T13:00:59Z</time>
</trkpt>
<trkpt lat="49.054937940090895" lon="9.24181996844709">
<ele>194.20000000000005</ele>
<time>2023-05-16T13:01:00Z</time>
</trkpt>
<trkpt lat="49.0549429692328" lon="9.241817956790328">
<ele>194.20000000000005</ele>
<time>2023-05-16T13:01:01Z</time>
</trkpt>
<trkpt lat="49.05495193786919" lon="9.24180194735527">
<ele>194.20000000000005</ele>
<time>2023-05-16T13:01:02Z</time>
</trkpt>
<trkpt lat="49.054956967011094" lon="9.241774957627058">
<ele>194.20000000000005</ele>
<time>2023-05-16T13:01:03Z</time>
</trkpt>
<trkpt lat="49.05495495535433" lon="9.241767916828394">
<ele>194.20000000000005</ele>
<time>2023-05-16T13:01:04Z</time>
</trkpt>
<trkpt lat="49.054957972839475" lon="9.241742938756943">
<ele>194.20000000000005</ele>
<time>2023-05-16T13:01:05Z</time>
</trkpt>
<trkpt lat="49.054956967011094" lon="9.241747967898846">
<ele>194.20000000000005</ele>
<time>2023-05-16T13:01:06Z</time>
</trkpt>
<trkpt lat="49.054957972839475" lon="9.241739921271801">
<ele>194.20000000000005</ele>
<time>2023-05-16T13:01:07Z</time>
</trkpt>
<trkpt lat="49.054959984496236" lon="9.241722989827394">
<ele>194.20000000000005</ele>
<time>2023-05-16T13:01:08Z</time>
</trkpt>
<trkpt lat="49.054959984496236" lon="9.241709997877479">
<ele>194.20000000000005</ele>
<time>2023-05-16T13:01:09Z</time>
</trkpt>
<trkpt lat="49.05495294369757" lon="9.241711925715208">
<ele>194.20000000000005</ele>
<time>2023-05-16T13:01:10Z</time>
</trkpt>
<trkpt lat="49.05494699254632" lon="9.241727935150266">
<ele>194.20000000000005</ele>
<time>2023-05-16T13:01:11Z</time>
</trkpt>
<trkpt lat="49.0549479983747" lon="9.241711925715208">
<ele>194.20000000000005</ele>
<time>2023-05-16T13:01:12Z</time>
</trkpt>
<trkpt lat="49.0549429692328" lon="9.241711925715208">
<ele>194.20000000000005</ele>
<time>2023-05-16T13:01:13Z</time>
</trkpt>
<trkpt lat="49.05493492260575" lon="9.241726929321885">
<ele>194.20000000000005</ele>
<time>2023-05-16T13:01:14Z</time>
</trkpt>
<trkpt lat="49.05493492260575" lon="9.241722989827394">
<ele>194.20000000000005</ele>
<time>2023-05-16T13:01:15Z</time>
</trkpt>
<trkpt lat="49.05492796562612" lon="9.241737993434072">
<ele>194.20000000000005</ele>
<time>2023-05-16T13:01:16Z</time>
</trkpt>
<trkpt lat="49.05492695979774" lon="9.241747967898846">
<ele>194.20000000000005</ele>
<time>2023-05-16T13:01:17Z</time>
</trkpt>
<trkpt lat="49.054917991161346" lon="9.24177696928382">
<ele>194.20000000000005</ele>
<time>2023-05-16T13:01:18Z</time>
</trkpt>
<trkpt lat="49.05490692704916" lon="9.241802953183651">
<ele>194.20000000000005</ele>
<time>2023-05-16T13:01:19Z</time>
</trkpt>
<trkpt lat="49.054894940927625" lon="9.241826925426722">
<ele>194.20000000000005</ele>
<time>2023-05-16T13:01:20Z</time>
</trkpt>
<trkpt lat="49.05489192344248" lon="9.241832960397005">
<ele>194.20000000000005</ele>
<time>2023-05-16T13:01:21Z</time>
</trkpt>
<trkpt lat="49.05488496646285" lon="9.24184494651854">
<ele>194.20000000000005</ele>
<time>2023-05-16T13:01:22Z</time>
</trkpt>
<trkpt lat="49.05488194897771" lon="9.241854920983315">
<ele>194.20000000000005</ele>
<time>2023-05-16T13:01:23Z</time>
</trkpt>
<trkpt lat="49.05487792566419" lon="9.241857938468456">
<ele>194.20000000000005</ele>
<time>2023-05-16T13:01:24Z</time>
</trkpt>
<trkpt lat="49.054876919835806" lon="9.241872942075133">
<ele>194.20000000000005</ele>
<time>2023-05-16T13:01:25Z</time>
</trkpt>
<trkpt lat="49.054874991998076" lon="9.241867996752262">
<ele>194.20000000000005</ele>
<time>2023-05-16T13:01:27Z</time>
</trkpt>
<trkpt lat="49.054874991998076" lon="9.241861961781979">
<ele>194.20000000000005</ele>
<time>2023-05-16T13:01:28Z</time>
</trkpt>
<trkpt lat="49.054871974512935" lon="9.241859950125217">
<ele>194.20000000000005</ele>
<time>2023-05-16T13:01:29Z</time>
</trkpt>
<trkpt lat="49.05486795119941" lon="9.241854920983315">
<ele>194.20000000000005</ele>
<time>2023-05-16T13:01:30Z</time>
</trkpt>
<trkpt lat="49.05486996285617" lon="9.241869924589992">
<ele>194.20000000000005</ele>
<time>2023-05-16T13:01:32Z</time>
</trkpt>
<trkpt lat="49.05486493371427" lon="9.241881994530559">
<ele>194.20000000000005</ele>
<time>2023-05-16T13:01:33Z</time>
</trkpt>
<trkpt lat="49.054871974512935" lon="9.241897920146585">
<ele>194</ele>
<time>2023-05-16T13:01:34Z</time>
</trkpt>
<trkpt lat="49.05487792566419" lon="9.241927927359939">
<ele>194</ele>
<time>2023-05-16T13:01:35Z</time>
</trkpt>
<trkpt lat="49.05488496646285" lon="9.241946954280138">
<ele>194</ele>
<time>2023-05-16T13:01:36Z</time>
</trkpt>
<trkpt lat="49.05488999560475" lon="9.241957934573293">
<ele>194</ele>
<time>2023-05-16T13:01:37Z</time>
</trkpt>
<trkpt lat="49.05488697811961" lon="9.241979978978634">
<ele>194</ele>
<time>2023-05-16T13:01:38Z</time>
</trkpt>
<trkpt lat="49.05488697811961" lon="9.241976961493492">
<ele>194</ele>
<time>2023-05-16T13:01:39Z</time>
</trkpt>
<trkpt lat="49.05488798394799" lon="9.241969920694828">
<ele>194</ele>
<time>2023-05-16T13:01:40Z</time>
</trkpt>
<trkpt lat="49.05489292927086" lon="9.241974949836731">
<ele>194</ele>
<time>2023-05-16T13:01:41Z</time>
</trkpt>
<trkpt lat="49.05489192344248" lon="9.241986935958266">
<ele>194</ele>
<time>2023-05-16T13:01:42Z</time>
</trkpt>
<trkpt lat="49.054894940927625" lon="9.241989953443408">
<ele>194</ele>
<time>2023-05-16T13:01:43Z</time>
</trkpt>
<trkpt lat="49.05488999560475" lon="9.242002945393324">
<ele>194</ele>
<time>2023-05-16T13:01:44Z</time>
</trkpt>
<trkpt lat="49.05489192344248" lon="9.242006968706846">
<ele>194</ele>
<time>2023-05-16T13:01:45Z</time>
</trkpt>
<trkpt lat="49.05489292927086" lon="9.242012919858098">
<ele>194</ele>
<time>2023-05-16T13:01:46Z</time>
</trkpt>
<trkpt lat="49.05488798394799" lon="9.24201694317162">
<ele>194</ele>
<time>2023-05-16T13:01:47Z</time>
</trkpt>
<trkpt lat="49.05488697811961" lon="9.242021972313523">
<ele>194</ele>
<time>2023-05-16T13:01:48Z</time>
</trkpt>
<trkpt lat="49.054894940927625" lon="9.241997916251421">
<ele>194</ele>
<time>2023-05-16T13:01:48Z</time>
</trkpt>
<trkpt lat="49.05490198172629" lon="9.241984924301505">
<ele>194</ele>
<time>2023-05-16T13:01:49Z</time>
</trkpt>
<trkpt lat="49.05490198172629" lon="9.241982996463776">
<ele>194</ele>
<time>2023-05-16T13:01:50Z</time>
</trkpt>
<trkpt lat="49.05490198172629" lon="9.242021972313523">
<ele>194</ele>
<time>2023-05-16T13:01:51Z</time>
</trkpt>
<trkpt lat="49.054896952584386" lon="9.24203496426344">
<ele>194</ele>
<time>2023-05-16T13:01:52Z</time>
</trkpt>
<trkpt lat="49.054894940927625" lon="9.242037981748581">
<ele>194</ele>
<time>2023-05-16T13:01:53Z</time>
</trkpt>
<trkpt lat="49.05489192344248" lon="9.242019960656762">
<ele>194</ele>
<time>2023-05-16T13:01:54Z</time>
</trkpt>
<trkpt lat="49.05488798394799" lon="9.242027923464775">
<ele>194</ele>
<time>2023-05-16T13:01:55Z</time>
</trkpt>
<trkpt lat="49.05488295480609" lon="9.242039993405342">
<ele>194</ele>
<time>2023-05-16T13:01:56Z</time>
</trkpt>
<trkpt lat="49.05488697811961" lon="9.242042927071452">
<ele>194</ele>
<time>2023-05-16T13:01:57Z</time>
</trkpt>
<trkpt lat="49.05488697811961" lon="9.242044938728213">
<ele>194</ele>
<time>2023-05-16T13:01:58Z</time>
</trkpt>
<trkpt lat="49.05488295480609" lon="9.242051979526877">
<ele>194</ele>
<time>2023-05-16T13:01:59Z</time>
</trkpt>
<trkpt lat="49.05487993732095" lon="9.242056924849749">
<ele>194</ele>
<time>2023-05-16T13:02:00Z</time>
</trkpt>
<trkpt lat="49.054874991998076" lon="9.24205793067813">
<ele>194</ele>
<time>2023-05-16T13:02:01Z</time>
</trkpt>
<trkpt lat="49.054872980341315" lon="9.24205793067813">
<ele>194.20000000000005</ele>
<time>2023-05-16T13:02:02Z</time>
</trkpt>
<trkpt lat="49.054874991998076" lon="9.242067988961935">
<ele>194.20000000000005</ele>
<time>2023-05-16T13:02:03Z</time>
</trkpt>
<trkpt lat="49.05487792566419" lon="9.242084920406342">
<ele>194.20000000000005</ele>
<time>2023-05-16T13:02:04Z</time>
</trkpt>
<trkpt lat="49.054876919835806" lon="9.242104953154922">
<ele>194.20000000000005</ele>
<time>2023-05-16T13:02:05Z</time>
</trkpt>
<trkpt lat="49.054876919835806" lon="9.242111993953586">
<ele>194.20000000000005</ele>
<time>2023-05-16T13:02:06Z</time>
</trkpt>
<trkpt lat="49.05487792566419" lon="9.24212196841836">
<ele>194.20000000000005</ele>
<time>2023-05-16T13:02:07Z</time>
</trkpt>
<trkpt lat="49.05488295480609" lon="9.242129931226373">
<ele>194.20000000000005</ele>
<time>2023-05-16T13:02:08Z</time>
</trkpt>
<trkpt lat="49.05488697811961" lon="9.242129931226373">
<ele>194.20000000000005</ele>
<time>2023-05-16T13:02:09Z</time>
</trkpt>
<trkpt lat="49.05488295480609" lon="9.242127919569612">
<ele>194.20000000000005</ele>
<time>2023-05-16T13:02:10Z</time>
</trkpt>
<trkpt lat="49.05488295480609" lon="9.242114927619696">
<ele>194.20000000000005</ele>
<time>2023-05-16T13:02:11Z</time>
</trkpt>
<trkpt lat="49.05488697811961" lon="9.242109982296824">
<ele>194.20000000000005</ele>
<time>2023-05-16T13:02:12Z</time>
</trkpt>
<trkpt lat="49.05489192344248" lon="9.242092967033386">
<ele>194.20000000000005</ele>
<time>2023-05-16T13:02:13Z</time>
</trkpt>
<trkpt lat="49.05488798394799" lon="9.242082992568612">
<ele>194</ele>
<time>2023-05-16T13:02:14Z</time>
</trkpt>
<trkpt lat="49.05489192344248" lon="9.242062959820032">
<ele>194</ele>
<time>2023-05-16T13:02:15Z</time>
</trkpt>
<trkpt lat="49.05488697811961" lon="9.242051979526877">
<ele>194</ele>
<time>2023-05-16T13:02:16Z</time>
</trkpt>
<trkpt lat="49.054896952584386" lon="9.242002945393324">
<ele>194</ele>
<time>2023-05-16T13:02:17Z</time>
</trkpt>
<trkpt lat="49.05489997006953" lon="9.241966987028718">
<ele>194</ele>
<time>2023-05-16T13:02:18Z</time>
</trkpt>
<trkpt lat="49.05489292927086" lon="9.241941925138235">
<ele>194</ele>
<time>2023-05-16T13:02:19Z</time>
</trkpt>
<trkpt lat="49.05488798394799" lon="9.241911917924881">
<ele>194</ele>
<time>2023-05-16T13:02:20Z</time>
</trkpt>
<trkpt lat="49.05488999560475" lon="9.241881994530559">
<ele>194</ele>
<time>2023-05-16T13:02:21Z</time>
</trkpt>
<trkpt lat="49.05488999560475" lon="9.241867996752262">
<ele>194</ele>
<time>2023-05-16T13:02:22Z</time>
</trkpt>
<trkpt lat="49.054896952584386" lon="9.24186497926712">
<ele>194</ele>
<time>2023-05-16T13:02:23Z</time>
</trkpt>
<trkpt lat="49.05490198172629" lon="9.241854920983315">
<ele>194</ele>
<time>2023-05-16T13:02:24Z</time>
</trkpt>
<trkpt lat="49.05490298755467" lon="9.241851987317204">
<ele>194</ele>
<time>2023-05-16T13:02:25Z</time>
</trkpt>
<trkpt lat="49.05490499921143" lon="9.241854920983315">
<ele>194</ele>
<time>2023-05-16T13:02:26Z</time>
</trkpt>
<trkpt lat="49.05490793287754" lon="9.241852993145585">
<ele>194</ele>
<time>2023-05-16T13:02:27Z</time>
</trkpt>
<trkpt lat="49.054874991998076" lon="9.241837989538908">
<ele>194</ele>
<time>2023-05-16T13:02:27Z</time>
</trkpt>
<trkpt lat="49.05486996285617" lon="9.241839917376637">
<ele>194</ele>
<time>2023-05-16T13:02:28Z</time>
</trkpt>
<trkpt lat="49.05486795119941" lon="9.241849975660443">
<ele>194</ele>
<time>2023-05-16T13:02:29Z</time>
</trkpt>
<trkpt lat="49.05486694537103" lon="9.241849975660443">
<ele>194</ele>
<time>2023-05-16T13:02:31Z</time>
</trkpt>
<trkpt lat="49.0549429692328" lon="9.241899931803346">
<ele>194</ele>
<time>2023-05-16T13:02:31Z</time>
</trkpt>
<trkpt lat="49.054936934262514" lon="9.241904960945249">
<ele>194</ele>
<time>2023-05-16T13:02:32Z</time>
</trkpt>
<trkpt lat="49.05493198893964" lon="9.241909990087152">
<ele>194</ele>
<time>2023-05-16T13:02:33Z</time>
</trkpt>
<trkpt lat="49.05492997728288" lon="9.24190797843039">
<ele>194</ele>
<time>2023-05-16T13:02:34Z</time>
</trkpt>
<trkpt lat="49.05492695979774" lon="9.241914935410023">
<ele>194</ele>
<time>2023-05-16T13:02:35Z</time>
</trkpt>
<trkpt lat="49.05492494814098" lon="9.241917952895164">
<ele>194</ele>
<time>2023-05-16T13:02:36Z</time>
</trkpt>
<trkpt lat="49.05492695979774" lon="9.241909990087152">
<ele>194</ele>
<time>2023-05-16T13:02:37Z</time>
</trkpt>
<trkpt lat="49.054896952584386" lon="9.241939997300506">
<ele>194</ele>
<time>2023-05-16T13:02:37Z</time>
</trkpt>
<trkpt lat="49.05489292927086" lon="9.241937985643744">
<ele>194</ele>
<time>2023-05-16T13:02:38Z</time>
</trkpt>
<trkpt lat="49.05488697811961" lon="9.241939997300506">
<ele>194</ele>
<time>2023-05-16T13:02:39Z</time>
</trkpt>
<trkpt lat="49.05488496646285" lon="9.241942930966616">
<ele>194</ele>
<time>2023-05-16T13:02:40Z</time>
</trkpt>
<trkpt lat="49.05488295480609" lon="9.241952989250422">
<ele>194</ele>
<time>2023-05-16T13:02:41Z</time>
</trkpt>
<trkpt lat="49.05488798394799" lon="9.241944942623377">
<ele>194</ele>
<time>2023-05-16T13:02:42Z</time>
</trkpt>
<trkpt lat="49.05490298755467" lon="9.241904960945249">
<ele>194</ele>
<time>2023-05-16T13:02:43Z</time>
</trkpt>
<trkpt lat="49.054914973676205" lon="9.241881994530559">
<ele>194</ele>
<time>2023-05-16T13:02:44Z</time>
</trkpt>
<trkpt lat="49.054916985332966" lon="9.241879982873797">
<ele>194</ele>
<time>2023-05-16T13:02:45Z</time>
</trkpt>
<trkpt lat="49.05492193065584" lon="9.241872942075133">
<ele>194</ele>
<time>2023-05-16T13:02:46Z</time>
</trkpt>
<trkpt lat="49.05492293648422" lon="9.24186497926712">
<ele>194</ele>
<time>2023-05-16T13:02:47Z</time>
</trkpt>
<trkpt lat="49.05492997728288" lon="9.241856932640076">
<ele>194</ele>
<time>2023-05-16T13:02:48Z</time>
</trkpt>
<trkpt lat="49.05492796562612" lon="9.24186497926712">
<ele>194</ele>
<time>2023-05-16T13:02:49Z</time>
</trkpt>
<trkpt lat="49.05492695979774" lon="9.24186497926712">
<ele>194</ele>
<time>2023-05-16T13:02:50Z</time>
</trkpt>
<trkpt lat="49.054936934262514" lon="9.241826925426722">
<ele>194</ele>
<time>2023-05-16T13:02:51Z</time>
</trkpt>
<trkpt lat="49.0549479983747" lon="9.241791972890496">
<ele>194</ele>
<time>2023-05-16T13:02:52Z</time>
</trkpt>
<trkpt lat="49.05495193786919" lon="9.24177696928382">
<ele>194</ele>
<time>2023-05-16T13:02:53Z</time>
</trkpt>
<trkpt lat="49.0549479983747" lon="9.241787949576974">
<ele>194</ele>
<time>2023-05-16T13:02:54Z</time>
</trkpt>
<trkpt lat="49.05494699254632" lon="9.241792978718877">
<ele>194</ele>
<time>2023-05-16T13:02:55Z</time>
</trkpt>
<trkpt lat="49.05495294369757" lon="9.24179993569851">
<ele>194</ele>
<time>2023-05-16T13:02:57Z</time>
</trkpt>
<trkpt lat="49.0549479983747" lon="9.241817956790328">
<ele>194</ele>
<time>2023-05-16T13:02:58Z</time>
</trkpt>
<trkpt lat="49.05494196340442" lon="9.241827931255102">
<ele>194</ele>
<time>2023-05-16T13:02:59Z</time>
</trkpt>
<trkpt lat="49.05492695979774" lon="9.24184494651854">
<ele>194</ele>
<time>2023-05-16T13:03:00Z</time>
</trkpt>
<trkpt lat="49.054916985332966" lon="9.24186296761036">
<ele>194</ele>
<time>2023-05-16T13:03:01Z</time>
</trkpt>
<trkpt lat="49.05490499921143" lon="9.241874953731894">
<ele>194</ele>
<time>2023-05-16T13:03:02Z</time>
</trkpt>
<trkpt lat="49.054914973676205" lon="9.241861961781979">
<ele>194</ele>
<time>2023-05-16T13:03:03Z</time>
</trkpt>
<trkpt lat="49.054914973676205" lon="9.241859950125217">
<ele>194</ele>
<time>2023-05-16T13:03:04Z</time>
</trkpt>
<trkpt lat="49.05491296201944" lon="9.241879982873797">
<ele>194</ele>
<time>2023-05-16T13:03:07Z</time>
</trkpt>
<trkpt lat="49.0549099445343" lon="9.241894986480474">
<ele>194</ele>
<time>2023-05-16T13:03:08Z</time>
</trkpt>
<trkpt lat="49.05490793287754" lon="9.241901943460107">
<ele>194</ele>
<time>2023-05-16T13:03:09Z</time>
</trkpt>
<trkpt lat="49.05490692704916" lon="9.241901943460107">
<ele>194</ele>
<time>2023-05-16T13:03:10Z</time>
</trkpt>
<trkpt lat="49.05490499921143" lon="9.241899931803346">
<ele>194</ele>
<time>2023-05-16T13:03:11Z</time>
</trkpt>
<trkpt lat="49.05489795841277" lon="9.241904960945249">
<ele>194</ele>
<time>2023-05-16T13:03:12Z</time>
</trkpt>
<trkpt lat="49.0549099445343" lon="9.241934968158603">
<ele>194.20000000000005</ele>
<time>2023-05-16T13:03:12Z</time>
</trkpt>
<trkpt lat="49.05490499921143" lon="9.241952989250422">
<ele>194.20000000000005</ele>
<time>2023-05-16T13:03:13Z</time>
</trkpt>
<trkpt lat="49.05489795841277" lon="9.241959946230054">
<ele>194.20000000000005</ele>
<time>2023-05-16T13:03:14Z</time>
</trkpt>
<trkpt lat="49.05489795841277" lon="9.241956928744912">
<ele>194.20000000000005</ele>
<time>2023-05-16T13:03:15Z</time>
</trkpt>
<trkpt lat="49.05489997006953" lon="9.241957934573293">
<ele>194.20000000000005</ele>
<time>2023-05-16T13:03:16Z</time>
</trkpt>
<trkpt lat="49.05490298755467" lon="9.241957934573293">
<ele>194.20000000000005</ele>
<time>2023-05-16T13:03:17Z</time>
</trkpt>
<trkpt lat="49.05489997006953" lon="9.241969920694828">
<ele>194.20000000000005</ele>
<time>2023-05-16T13:03:18Z</time>
</trkpt>
<trkpt lat="49.05498798005283" lon="9.241892974823713">
<ele>194.20000000000005</ele>
<time>2023-05-16T13:03:18Z</time>
</trkpt>
<trkpt lat="49.05500994063914" lon="9.241872942075133">
<ele>194.20000000000005</ele>
<time>2023-05-16T13:03:19Z</time>
</trkpt>
<trkpt lat="49.055026955902576" lon="9.241854920983315">
<ele>194.20000000000005</ele>
<time>2023-05-16T13:03:20Z</time>
</trkpt>
<trkpt lat="49.055026955902576" lon="9.241841929033399">
<ele>194.20000000000005</ele>
<time>2023-05-16T13:03:21Z</time>
</trkpt>
<trkpt lat="49.05503491871059" lon="9.241837989538908">
<ele>194.20000000000005</ele>
<time>2023-05-16T13:03:22Z</time>
</trkpt>
<trkpt lat="49.055042965337634" lon="9.241831954568624">
<ele>194.20000000000005</ele>
<time>2023-05-16T13:03:23Z</time>
</trkpt>
<trkpt lat="49.055042965337634" lon="9.241809993982315">
<ele>194.20000000000005</ele>
<time>2023-05-16T13:03:24Z</time>
</trkpt>
<trkpt lat="49.05505293980241" lon="9.24179993569851">
<ele>194.20000000000005</ele>
<time>2023-05-16T13:03:25Z</time>
</trkpt>
<trkpt lat="49.05505293980241" lon="9.241786943748593">
<ele>194.20000000000005</ele>
<time>2023-05-16T13:03:26Z</time>
</trkpt>
<trkpt lat="49.05504799447954" lon="9.241779986768961">
<ele>194.20000000000005</ele>
<time>2023-05-16T13:03:27Z</time>
</trkpt>
<trkpt lat="49.05505193397403" lon="9.241769928485155">
<ele>194.20000000000005</ele>
<time>2023-05-16T13:03:28Z</time>
</trkpt>
<trkpt lat="49.055046988651156" lon="9.2417779751122">
<ele>194.20000000000005</ele>
<time>2023-05-16T13:03:29Z</time>
</trkpt>
<trkpt lat="49.05504195950925" lon="9.2417779751122">
<ele>194.20000000000005</ele>
<time>2023-05-16T13:03:30Z</time>
</trkpt>
<trkpt lat="49.05502796173096" lon="9.241784932091832">
<ele>194.20000000000005</ele>
<time>2023-05-16T13:03:31Z</time>
</trkpt>
<trkpt lat="49.0550169814378" lon="9.241779986768961">
<ele>194.20000000000005</ele>
<time>2023-05-16T13:03:32Z</time>
</trkpt>
<trkpt lat="49.05500499531627" lon="9.241782920435071">
<ele>194.20000000000005</ele>
<time>2023-05-16T13:03:33Z</time>
</trkpt>
<trkpt lat="49.05499694868922" lon="9.241792978718877">
<ele>194.20000000000005</ele>
<time>2023-05-16T13:03:34Z</time>
</trkpt>
<trkpt lat="49.05499694868922" lon="9.241791972890496">
<ele>194.20000000000005</ele>
<time>2023-05-16T13:03:35Z</time>
</trkpt>
<trkpt lat="49.05494992621243" lon="9.24181996844709">
<ele>194.20000000000005</ele>
<time>2023-05-16T13:03:37Z</time>
</trkpt>
<trkpt lat="49.05494196340442" lon="9.241822985932231">
<ele>194.20000000000005</ele>
<time>2023-05-16T13:03:38Z</time>
</trkpt>
<trkpt lat="49.054936934262514" lon="9.241834972053766">
<ele>194.20000000000005</ele>
<time>2023-05-16T13:03:39Z</time>
</trkpt>
<trkpt lat="49.05493299476802" lon="9.241837989538908">
<ele>194.20000000000005</ele>
<time>2023-05-16T13:03:40Z</time>
</trkpt>
<trkpt lat="49.05492997728288" lon="9.241836983710527">
<ele>194.20000000000005</ele>
<time>2023-05-16T13:03:41Z</time>
</trkpt>
<trkpt lat="49.05492796562612" lon="9.241831954568624">
<ele>194.20000000000005</ele>
<time>2023-05-16T13:03:42Z</time>
</trkpt>
<trkpt lat="49.05492796562612" lon="9.241826925426722">
<ele>194.20000000000005</ele>
<time>2023-05-16T13:03:43Z</time>
</trkpt>
<trkpt lat="49.05492494814098" lon="9.241829942911863">
<ele>194.20000000000005</ele>
<time>2023-05-16T13:03:44Z</time>
</trkpt>
<trkpt lat="49.05494498088956" lon="9.241744950413704">
<ele>194.20000000000005</ele>
<time>2023-05-16T13:03:44Z</time>
</trkpt>
<trkpt lat="49.0549429692328" lon="9.241747967898846">
<ele>194.20000000000005</ele>
<time>2023-05-16T13:03:45Z</time>
</trkpt>
<trkpt lat="49.054937940090895" lon="9.241751991212368">
<ele>194.20000000000005</ele>
<time>2023-05-16T13:03:46Z</time>
</trkpt>
<trkpt lat="49.054937940090895" lon="9.24175693653524">
<ele>194.20000000000005</ele>
<time>2023-05-16T13:03:47Z</time>
</trkpt>
<trkpt lat="49.05493299476802" lon="9.241772945970297">
<ele>194.20000000000005</ele>
<time>2023-05-16T13:03:48Z</time>
</trkpt>
<trkpt lat="49.05492997728288" lon="9.241781998425722">
<ele>194.20000000000005</ele>
<time>2023-05-16T13:03:49Z</time>
</trkpt>
<trkpt lat="49.05492494814098" lon="9.241791972890496">
<ele>194.20000000000005</ele>
<time>2023-05-16T13:03:50Z</time>
</trkpt>
<trkpt lat="49.054919918999076" lon="9.241811921820045">
<ele>194.20000000000005</ele>
<time>2023-05-16T13:03:51Z</time>
</trkpt>
<trkpt lat="49.05492695979774" lon="9.241822985932231">
<ele>194.20000000000005</ele>
<time>2023-05-16T13:03:52Z</time>
</trkpt>
<trkpt lat="49.05493299476802" lon="9.241834972053766">
<ele>194.20000000000005</ele>
<time>2023-05-16T13:03:53Z</time>
</trkpt>
<trkpt lat="49.05492695979774" lon="9.241849975660443">
<ele>194.20000000000005</ele>
<time>2023-05-16T13:03:54Z</time>
</trkpt>
<trkpt lat="49.054916985332966" lon="9.241866990923882">
<ele>194.20000000000005</ele>
<time>2023-05-16T13:03:55Z</time>
</trkpt>
<trkpt lat="49.054917991161346" lon="9.241867996752262">
<ele>194.20000000000005</ele>
<time>2023-05-16T13:03:56Z</time>
</trkpt>
<trkpt lat="49.05492193065584" lon="9.241869924589992">
<ele>194.20000000000005</ele>
<time>2023-05-16T13:03:57Z</time>
</trkpt>
<trkpt lat="49.05488496646285" lon="9.241902949288487">
<ele>194.20000000000005</ele>
<time>2023-05-16T13:03:58Z</time>
</trkpt>
<trkpt lat="49.05487792566419" lon="9.241919964551926">
<ele>194.20000000000005</ele>
<time>2023-05-16T13:03:59Z</time>
</trkpt>
<trkpt lat="49.05486795119941" lon="9.241931950673461">
<ele>194.20000000000005</ele>
<time>2023-05-16T13:04:00Z</time>
</trkpt>
<trkpt lat="49.054851941764355" lon="9.241966987028718">
<ele>194.20000000000005</ele>
<time>2023-05-16T13:04:01Z</time>
</trkpt>
<trkpt lat="49.05484791845083" lon="9.241961957886815">
<ele>194.20000000000005</ele>
<time>2023-05-16T13:04:02Z</time>
</trkpt>
<trkpt lat="49.05484993010759" lon="9.241956928744912">
<ele>194.20000000000005</ele>
<time>2023-05-16T13:04:03Z</time>
</trkpt>
<trkpt lat="49.05484993010759" lon="9.241957934573293">
<ele>194.20000000000005</ele>
<time>2023-05-16T13:04:04Z</time>
</trkpt>
<trkpt lat="49.054851941764355" lon="9.241966987028718">
<ele>194.20000000000005</ele>
<time>2023-05-16T13:04:05Z</time>
</trkpt>
<trkpt lat="49.05485797673464" lon="9.241967992857099">
<ele>194.20000000000005</ele>
<time>2023-05-16T13:04:06Z</time>
</trkpt>
<trkpt lat="49.054851941764355" lon="9.241981990635395">
<ele>194.20000000000005</ele>
<time>2023-05-16T13:04:07Z</time>
</trkpt>
<trkpt lat="49.05483693815768" lon="9.242001939564943">
<ele>194.20000000000005</ele>
<time>2023-05-16T13:04:08Z</time>
</trkpt>
<trkpt lat="49.05483995564282" lon="9.242002945393324">
<ele>194.20000000000005</ele>
<time>2023-05-16T13:04:09Z</time>
</trkpt>
<trkpt lat="49.054827969521284" lon="9.241999927908182">
<ele>194.20000000000005</ele>
<time>2023-05-16T13:04:10Z</time>
</trkpt>
<trkpt lat="49.05484791845083" lon="9.241981990635395">
<ele>194.20000000000005</ele>
<time>2023-05-16T13:04:11Z</time>
</trkpt>
<trkpt lat="49.05484699644148" lon="9.241977967321873">
<ele>194.20000000000005</ele>
<time>2023-05-16T13:04:12Z</time>
</trkpt>
<trkpt lat="49.05484297312796" lon="9.241974949836731">
<ele>194.20000000000005</ele>
<time>2023-05-16T13:04:13Z</time>
</trkpt>
<trkpt lat="49.05483995564282" lon="9.241966987028718">
<ele>194.20000000000005</ele>
<time>2023-05-16T13:04:14Z</time>
</trkpt>
<trkpt lat="49.05483794398606" lon="9.241962963715196">
<ele>194.20000000000005</ele>
<time>2023-05-16T13:04:15Z</time>
</trkpt>
<trkpt lat="49.0548599883914" lon="9.241944942623377">
<ele>194.20000000000005</ele>
<time>2023-05-16T13:04:16Z</time>
</trkpt>
<trkpt lat="49.054876919835806" lon="9.241912923753262">
<ele>194.20000000000005</ele>
<time>2023-05-16T13:04:17Z</time>
</trkpt>
<trkpt lat="49.05486996285617" lon="9.241919964551926">
<ele>194.20000000000005</ele>
<time>2023-05-16T13:04:18Z</time>
</trkpt>
<trkpt lat="49.054871974512935" lon="9.241911917924881">
<ele>194.20000000000005</ele>
<time>2023-05-16T13:04:19Z</time>
</trkpt>
<trkpt lat="49.05486795119941" lon="9.241901943460107">
<ele>194.20000000000005</ele>
<time>2023-05-16T13:04:20Z</time>
</trkpt>
<trkpt lat="49.05486493371427" lon="9.241904960945249">
<ele>194.20000000000005</ele>
<time>2023-05-16T13:04:21Z</time>
</trkpt>
<trkpt lat="49.054851941764355" lon="9.241917952895164">
<ele>194.20000000000005</ele>
<time>2023-05-16T13:04:22Z</time>
</trkpt>
<trkpt lat="49.05484699644148" lon="9.241916947066784">
<ele>194.20000000000005</ele>
<time>2023-05-16T13:04:23Z</time>
</trkpt>
<trkpt lat="49.05483492650092" lon="9.241926921531558">
<ele>194.20000000000005</ele>
<time>2023-05-16T13:04:24Z</time>
</trkpt>
<trkpt lat="49.054827969521284" lon="9.241939997300506">
<ele>194.20000000000005</ele>
<time>2023-05-16T13:04:25Z</time>
</trkpt>
<trkpt lat="49.05482294037938" lon="9.241946954280138">
<ele>194.20000000000005</ele>
<time>2023-05-16T13:04:26Z</time>
</trkpt>
<trkpt lat="49.054852947592735" lon="9.241874953731894">
<ele>194.20000000000005</ele>
<time>2023-05-16T13:04:27Z</time>
</trkpt>
<trkpt lat="49.05483995564282" lon="9.241857938468456">
<ele>194.20000000000005</ele>
<time>2023-05-16T13:04:28Z</time>
</trkpt>
<trkpt lat="49.054829981178045" lon="9.241854920983315">
<ele>194.20000000000005</ele>
<time>2023-05-16T13:04:29Z</time>
</trkpt>
<trkpt lat="49.05480299144983" lon="9.241876965388656">
<ele>194.20000000000005</ele>
<time>2023-05-16T13:04:30Z</time>
</trkpt>
<trkpt lat="49.05479695647955" lon="9.241892974823713">
<ele>194.20000000000005</ele>
<time>2023-05-16T13:04:31Z</time>
</trkpt>
<trkpt lat="49.05479695647955" lon="9.241901943460107">
<ele>194.20000000000005</ele>
<time>2023-05-16T13:04:32Z</time>
</trkpt>
<trkpt lat="49.054809948429465" lon="9.241899931803346">
<ele>194.20000000000005</ele>
<time>2023-05-16T13:04:33Z</time>
</trkpt>
<trkpt lat="49.05481296591461" lon="9.241897920146585">
<ele>194.20000000000005</ele>
<time>2023-05-16T13:04:34Z</time>
</trkpt>
<trkpt lat="49.05483299866319" lon="9.241867996752262">
<ele>194.20000000000005</ele>
<time>2023-05-16T13:04:35Z</time>
</trkpt>
<trkpt lat="49.05483995564282" lon="9.241857938468456">
<ele>194.20000000000005</ele>
<time>2023-05-16T13:04:36Z</time>
</trkpt>
<trkpt lat="49.05486493371427" lon="9.241841929033399">
<ele>194.20000000000005</ele>
<time>2023-05-16T13:04:37Z</time>
</trkpt>
<trkpt lat="49.05484993010759" lon="9.241884928196669">
<ele>194.20000000000005</ele>
<time>2023-05-16T13:04:38Z</time>
</trkpt>
<trkpt lat="49.05484993010759" lon="9.241894986480474">
<ele>194.20000000000005</ele>
<time>2023-05-16T13:04:39Z</time>
</trkpt>
<trkpt lat="49.0548549592495" lon="9.241894986480474">
<ele>194.20000000000005</ele>
<time>2023-05-16T13:04:40Z</time>
</trkpt>
<trkpt lat="49.0548549592495" lon="9.241902949288487">
<ele>194.20000000000005</ele>
<time>2023-05-16T13:04:41Z</time>
</trkpt>
<trkpt lat="49.05485697090626" lon="9.241917952895164">
<ele>194.20000000000005</ele>
<time>2023-05-16T13:04:42Z</time>
</trkpt>
<trkpt lat="49.05485697090626" lon="9.2419299390167">
<ele>194.20000000000005</ele>
<time>2023-05-16T13:04:43Z</time>
</trkpt>
<trkpt lat="49.054851941764355" lon="9.241934968158603">
<ele>194.20000000000005</ele>
<time>2023-05-16T13:04:44Z</time>
</trkpt>
<trkpt lat="49.05483492650092" lon="9.241952989250422">
<ele>194.20000000000005</ele>
<time>2023-05-16T13:04:45Z</time>
</trkpt>
<trkpt lat="49.05483492650092" lon="9.241957934573293">
<ele>194.20000000000005</ele>
<time>2023-05-16T13:04:46Z</time>
</trkpt>
<trkpt lat="49.054821934551" lon="9.241969920694828">
<ele>194.20000000000005</ele>
<time>2023-05-16T13:04:47Z</time>
</trkpt>
<trkpt lat="49.0547719784081" lon="9.242007974535227">
<ele>194.20000000000005</ele>
<time>2023-05-16T13:04:48Z</time>
</trkpt>
<trkpt lat="49.05477298423648" lon="9.242002945393324">
<ele>194.20000000000005</ele>
<time>2023-05-16T13:04:49Z</time>
</trkpt>
<trkpt lat="49.05477994121611" lon="9.241994982585311">
<ele>194.20000000000005</ele>
<time>2023-05-16T13:04:50Z</time>
</trkpt>
<trkpt lat="49.05477692373097" lon="9.242024989798665">
<ele>194.20000000000005</ele>
<time>2023-05-16T13:04:51Z</time>
</trkpt>
<trkpt lat="49.05476996675134" lon="9.242062959820032">
<ele>194.20000000000005</ele>
<time>2023-05-16T13:04:52Z</time>
</trkpt>
<trkpt lat="49.0547719784081" lon="9.242084920406342">
<ele>194.20000000000005</ele>
<time>2023-05-16T13:04:53Z</time>
</trkpt>
<trkpt lat="49.05477499589324" lon="9.242084920406342">
<ele>194.20000000000005</ele>
<time>2023-05-16T13:04:54Z</time>
</trkpt>
<trkpt lat="49.054787987843156" lon="9.242082992568612">
<ele>194.20000000000005</ele>
<time>2023-05-16T13:04:55Z</time>
</trkpt>
<trkpt lat="49.05480491928756" lon="9.242067988961935">
<ele>194</ele>
<time>2023-05-16T13:04:56Z</time>
</trkpt>
<trkpt lat="49.054807936772704" lon="9.242067988961935">
<ele>194</ele>
<time>2023-05-16T13:04:57Z</time>
</trkpt>
<trkpt lat="49.05481497757137" lon="9.242067988961935">
<ele>194</ele>
<time>2023-05-16T13:04:58Z</time>
</trkpt>
<trkpt lat="49.054827969521284" lon="9.242069916799664">
<ele>194</ele>
<time>2023-05-16T13:04:59Z</time>
</trkpt>
<trkpt lat="49.05484993010759" lon="9.242052985355258">
<ele>194</ele>
<time>2023-05-16T13:05:00Z</time>
</trkpt>
<trkpt lat="49.0548549592495" lon="9.242047956213355">
<ele>194</ele>
<time>2023-05-16T13:05:01Z</time>
</trkpt>
<trkpt lat="49.05488697811961" lon="9.242012919858098">
<ele>194</ele>
<time>2023-05-16T13:05:02Z</time>
</trkpt>
<trkpt lat="49.054896952584386" lon="9.242009986191988">
<ele>194</ele>
<time>2023-05-16T13:05:03Z</time>
</trkpt>
<trkpt lat="49.054919918999076" lon="9.241996994242072">
<ele>194</ele>
<time>2023-05-16T13:05:04Z</time>
</trkpt>
<trkpt lat="49.054936934262514" lon="9.241974949836731">
<ele>194</ele>
<time>2023-05-16T13:05:05Z</time>
</trkpt>
<trkpt lat="49.054939951747656" lon="9.241969920694828">
<ele>194</ele>
<time>2023-05-16T13:05:06Z</time>
</trkpt>
<trkpt lat="49.054936934262514" lon="9.241964975371957">
<ele>194</ele>
<time>2023-05-16T13:05:07Z</time>
</trkpt>
<trkpt lat="49.05494196340442" lon="9.241957934573293">
<ele>194</ele>
<time>2023-05-16T13:05:08Z</time>
</trkpt>
<trkpt lat="49.05494498088956" lon="9.241954917088151">
<ele>194</ele>
<time>2023-05-16T13:05:09Z</time>
</trkpt>
<trkpt lat="49.05494196340442" lon="9.241954917088151">
<ele>194</ele>
<time>2023-05-16T13:05:10Z</time>
</trkpt>
<trkpt lat="49.05493299476802" lon="9.241946954280138">
<ele>194</ele>
<time>2023-05-16T13:05:11Z</time>
</trkpt>
<trkpt lat="49.054936934262514" lon="9.241951983422041">
<ele>194</ele>
<time>2023-05-16T13:05:12Z</time>
</trkpt>
<trkpt lat="49.054936934262514" lon="9.241947960108519">
<ele>194</ele>
<time>2023-05-16T13:05:13Z</time>
</trkpt>
<trkpt lat="49.05494992621243" lon="9.241941925138235">
<ele>194</ele>
<time>2023-05-16T13:05:14Z</time>
</trkpt>
<trkpt lat="49.05495495535433" lon="9.241961957886815">
<ele>194</ele>
<time>2023-05-16T13:05:15Z</time>
</trkpt>
<trkpt lat="49.054959984496236" lon="9.241981990635395">
<ele>194</ele>
<time>2023-05-16T13:05:16Z</time>
</trkpt>
<trkpt lat="49.05495495535433" lon="9.241997916251421">
<ele>194</ele>
<time>2023-05-16T13:05:17Z</time>
</trkpt>
<trkpt lat="49.05495193786919" lon="9.242009986191988">
<ele>194</ele>
<time>2023-05-16T13:05:18Z</time>
</trkpt>
<trkpt lat="49.05495193786919" lon="9.24199297092855">
<ele>194</ele>
<time>2023-05-16T13:05:19Z</time>
</trkpt>
<trkpt lat="49.05494992621243" lon="9.241974949836731">
<ele>194</ele>
<time>2023-05-16T13:05:20Z</time>
</trkpt>
<trkpt lat="49.054957972839475" lon="9.241961957886815">
<ele>194</ele>
<time>2023-05-16T13:05:21Z</time>
</trkpt>
<trkpt lat="49.05497197061777" lon="9.241954917088151">
<ele>194</ele>
<time>2023-05-16T13:05:22Z</time>
</trkpt>
<trkpt lat="49.054976999759674" lon="9.24194997176528">
<ele>194</ele>
<time>2023-05-16T13:05:23Z</time>
</trkpt>
<trkpt lat="49.05497297644615" lon="9.241952989250422">
<ele>194</ele>
<time>2023-05-16T13:05:24Z</time>
</trkpt>
<trkpt lat="49.05497792176902" lon="9.241946954280138">
<ele>194</ele>
<time>2023-05-16T13:05:25Z</time>
</trkpt>
<trkpt lat="49.05497498810291" lon="9.241934968158603">
<ele>194</ele>
<time>2023-05-16T13:05:26Z</time>
</trkpt>
<trkpt lat="49.05496694147587" lon="9.241916947066784">
<ele>194</ele>
<time>2023-05-16T13:05:28Z</time>
</trkpt>
<trkpt lat="49.05496995896101" lon="9.241951983422041">
<ele>194</ele>
<time>2023-05-16T13:05:29Z</time>
</trkpt>
<trkpt lat="49.05496694147587" lon="9.241967992857099">
<ele>194</ele>
<time>2023-05-16T13:05:30Z</time>
</trkpt>
<trkpt lat="49.05496492981911" lon="9.241964975371957">
<ele>194</ele>
<time>2023-05-16T13:05:31Z</time>
</trkpt>
<trkpt lat="49.05496492981911" lon="9.241962963715196">
<ele>194</ele>
<time>2023-05-16T13:05:32Z</time>
</trkpt>
<trkpt lat="49.05496794730425" lon="9.241951983422041">
<ele>194</ele>
<time>2023-05-16T13:05:33Z</time>
</trkpt>
<trkpt lat="49.054959984496236" lon="9.241944942623377">
<ele>194</ele>
<time>2023-05-16T13:05:34Z</time>
</trkpt>
<trkpt lat="49.05493198893964" lon="9.241952989250422">
<ele>194</ele>
<time>2023-05-16T13:05:35Z</time>
</trkpt>
<trkpt lat="49.054914973676205" lon="9.241966987028718">
<ele>194</ele>
<time>2023-05-16T13:05:36Z</time>
</trkpt>
<trkpt lat="49.054916985332966" lon="9.241969920694828">
<ele>194</ele>
<time>2023-05-16T13:05:37Z</time>
</trkpt>
<trkpt lat="49.054916985332966" lon="9.241976961493492">
<ele>194</ele>
<time>2023-05-16T13:05:38Z</time>
</trkpt>
<trkpt lat="49.05491195619106" lon="9.241984924301505">
<ele>194</ele>
<time>2023-05-16T13:05:39Z</time>
</trkpt>
<trkpt lat="49.054916985332966" lon="9.24199297092855">
<ele>194</ele>
<time>2023-05-16T13:05:40Z</time>
</trkpt>
<trkpt lat="49.05490298755467" lon="9.241987941786647">
<ele>194</ele>
<time>2023-05-16T13:05:41Z</time>
</trkpt>
<trkpt lat="49.054896952584386" lon="9.24199196510017">
<ele>194</ele>
<time>2023-05-16T13:05:42Z</time>
</trkpt>
<trkpt lat="49.05488798394799" lon="9.24199196510017">
<ele>194</ele>
<time>2023-05-16T13:05:44Z</time>
</trkpt>
<trkpt lat="49.054874991998076" lon="9.241994982585311">
<ele>194</ele>
<time>2023-05-16T13:05:45Z</time>
</trkpt>
<trkpt lat="49.05486292205751" lon="9.242002945393324">
<ele>194</ele>
<time>2023-05-16T13:05:46Z</time>
</trkpt>
<trkpt lat="49.0548549592495" lon="9.242032952606678">
<ele>194</ele>
<time>2023-05-16T13:05:47Z</time>
</trkpt>
<trkpt lat="49.05484791845083" lon="9.24205499701202">
<ele>194.20000000000005</ele>
<time>2023-05-16T13:05:48Z</time>
</trkpt>
<trkpt lat="49.05484196729958" lon="9.242066983133554">
<ele>194.20000000000005</ele>
<time>2023-05-16T13:05:49Z</time>
</trkpt>
<trkpt lat="49.05483995564282" lon="9.242049967870116">
<ele>194.20000000000005</ele>
<time>2023-05-16T13:05:50Z</time>
</trkpt>
<trkpt lat="49.05483995564282" lon="9.242044938728213">
<ele>194.20000000000005</ele>
<time>2023-05-16T13:05:51Z</time>
</trkpt>
<trkpt lat="49.05483995564282" lon="9.242037981748581">
<ele>194.20000000000005</ele>
<time>2023-05-16T13:05:52Z</time>
</trkpt>
<trkpt lat="49.05483794398606" lon="9.242032952606678">
<ele>194.20000000000005</ele>
<time>2023-05-16T13:05:53Z</time>
</trkpt>
<trkpt lat="49.05484498478472" lon="9.242026917636395">
<ele>194.20000000000005</ele>
<time>2023-05-16T13:05:54Z</time>
</trkpt>
<trkpt lat="49.05486795119941" lon="9.241997916251421">
<ele>194.20000000000005</ele>
<time>2023-05-16T13:05:55Z</time>
</trkpt>
<trkpt lat="49.05488496646285" lon="9.241974949836731">
<ele>194.20000000000005</ele>
<time>2023-05-16T13:05:56Z</time>
</trkpt>
<trkpt lat="49.05490198172629" lon="9.241951983422041">
<ele>194.20000000000005</ele>
<time>2023-05-16T13:05:57Z</time>
</trkpt>
<trkpt lat="49.054914973676205" lon="9.241931950673461">
<ele>194.20000000000005</ele>
<time>2023-05-16T13:05:58Z</time>
</trkpt>
<trkpt lat="49.054917991161346" lon="9.241926921531558">
<ele>194.20000000000005</ele>
<time>2023-05-16T13:05:59Z</time>
</trkpt>
<trkpt lat="49.05492997728288" lon="9.241922982037067">
<ele>194.20000000000005</ele>
<time>2023-05-16T13:06:00Z</time>
</trkpt>
<trkpt lat="49.05492997728288" lon="9.2419299390167">
<ele>194.20000000000005</ele>
<time>2023-05-16T13:06:01Z</time>
</trkpt>
<trkpt lat="49.05492193065584" lon="9.241946954280138">
<ele>194.20000000000005</ele>
<time>2023-05-16T13:06:02Z</time>
</trkpt>
<trkpt lat="49.05492193065584" lon="9.241954917088151">
<ele>194.20000000000005</ele>
<time>2023-05-16T13:06:03Z</time>
</trkpt>
<trkpt lat="49.05492997728288" lon="9.24194997176528">
<ele>194.20000000000005</ele>
<time>2023-05-16T13:06:04Z</time>
</trkpt>
<trkpt lat="49.05493198893964" lon="9.241942930966616">
<ele>194.20000000000005</ele>
<time>2023-05-16T13:06:05Z</time>
</trkpt>
<trkpt lat="49.054936934262514" lon="9.241926921531558">
<ele>194.20000000000005</ele>
<time>2023-05-16T13:06:06Z</time>
</trkpt>
<trkpt lat="49.054937940090895" lon="9.2419299390167">
<ele>194.20000000000005</ele>
<time>2023-05-16T13:06:07Z</time>
</trkpt>
<trkpt lat="49.054896952584386" lon="9.241954917088151">
<ele>194.20000000000005</ele>
<time>2023-05-16T13:06:08Z</time>
</trkpt>
<trkpt lat="49.054896952584386" lon="9.241941925138235">
<ele>194.20000000000005</ele>
<time>2023-05-16T13:06:09Z</time>
</trkpt>
<trkpt lat="49.05489795841277" lon="9.241921976208687">
<ele>194.20000000000005</ele>
<time>2023-05-16T13:06:10Z</time>
</trkpt>
<trkpt lat="49.05489997006953" lon="9.241901943460107">
<ele>194.20000000000005</ele>
<time>2023-05-16T13:06:11Z</time>
</trkpt>
<trkpt lat="49.05489997006953" lon="9.241892974823713">
<ele>194.20000000000005</ele>
<time>2023-05-16T13:06:12Z</time>
</trkpt>
<trkpt lat="49.05490298755467" lon="9.241872942075133">
<ele>194.20000000000005</ele>
<time>2023-05-16T13:06:13Z</time>
</trkpt>
<trkpt lat="49.05488194897771" lon="9.241899931803346">
<ele>194.20000000000005</ele>
<time>2023-05-16T13:06:14Z</time>
</trkpt>
<trkpt lat="49.05486694537103" lon="9.24190797843039">
<ele>194.20000000000005</ele>
<time>2023-05-16T13:06:15Z</time>
</trkpt>
<trkpt lat="49.054827969521284" lon="9.241914935410023">
<ele>194.20000000000005</ele>
<time>2023-05-16T13:06:16Z</time>
</trkpt>
<trkpt lat="49.0548269636929" lon="9.241921976208687">
<ele>194.20000000000005</ele>
<time>2023-05-16T13:06:17Z</time>
</trkpt>
<trkpt lat="49.05481799505651" lon="9.2419299390167">
<ele>194.20000000000005</ele>
<time>2023-05-16T13:06:18Z</time>
</trkpt>
<trkpt lat="49.05481698922813" lon="9.241942930966616">
<ele>194.20000000000005</ele>
<time>2023-05-16T13:06:19Z</time>
</trkpt>
<trkpt lat="49.05482294037938" lon="9.24197293817997">
<ele>194.20000000000005</ele>
<time>2023-05-16T13:06:21Z</time>
</trkpt>
<trkpt lat="49.05484297312796" lon="9.241984924301505">
<ele>194.20000000000005</ele>
<time>2023-05-16T13:06:21Z</time>
</trkpt>
<trkpt lat="49.0548599883914" lon="9.242006968706846">
<ele>194.20000000000005</ele>
<time>2023-05-16T13:06:22Z</time>
</trkpt>
<trkpt lat="49.05485797673464" lon="9.24201199784875">
<ele>194.20000000000005</ele>
<time>2023-05-16T13:06:23Z</time>
</trkpt>
<trkpt lat="49.05484699644148" lon="9.242022978141904">
<ele>194.20000000000005</ele>
<time>2023-05-16T13:06:24Z</time>
</trkpt>
<trkpt lat="49.0548549592495" lon="9.242024989798665">
<ele>194.20000000000005</ele>
<time>2023-05-16T13:06:25Z</time>
</trkpt>
<trkpt lat="49.05485697090626" lon="9.242017949000001">
<ele>194.20000000000005</ele>
<time>2023-05-16T13:06:26Z</time>
</trkpt>
<trkpt lat="49.05485697090626" lon="9.242026917636395">
<ele>194.20000000000005</ele>
<time>2023-05-16T13:06:27Z</time>
</trkpt>
<trkpt lat="49.05485697090626" lon="9.242039993405342">
<ele>194.20000000000005</ele>
<time>2023-05-16T13:06:28Z</time>
</trkpt>
<trkpt lat="49.0548599883914" lon="9.24205793067813">
<ele>194.20000000000005</ele>
<time>2023-05-16T13:06:29Z</time>
</trkpt>
<trkpt lat="49.05486996285617" lon="9.242052985355258">
<ele>194.20000000000005</ele>
<time>2023-05-16T13:06:30Z</time>
</trkpt>
<trkpt lat="49.05486996285617" lon="9.242051979526877">
<ele>194.20000000000005</ele>
<time>2023-05-16T13:06:31Z</time>
</trkpt>
<trkpt lat="49.054876919835806" lon="9.242042927071452">
<ele>194.20000000000005</ele>
<time>2023-05-16T13:06:32Z</time>
</trkpt>
<trkpt lat="49.05487993732095" lon="9.242039993405342">
<ele>194.20000000000005</ele>
<time>2023-05-16T13:06:33Z</time>
</trkpt>
<trkpt lat="49.05488295480609" lon="9.242029935121536">
<ele>194.20000000000005</ele>
<time>2023-05-16T13:06:34Z</time>
</trkpt>
<trkpt lat="49.05488194897771" lon="9.242027923464775">
<ele>194.20000000000005</ele>
<time>2023-05-16T13:06:35Z</time>
</trkpt>
<trkpt lat="49.05488496646285" lon="9.242027923464775">
<ele>194.20000000000005</ele>
<time>2023-05-16T13:06:36Z</time>
</trkpt>
<trkpt lat="49.05488295480609" lon="9.2420369759202">
<ele>194.20000000000005</ele>
<time>2023-05-16T13:06:37Z</time>
</trkpt>
<trkpt lat="49.05488496646285" lon="9.242037981748581">
<ele>194.20000000000005</ele>
<time>2023-05-16T13:06:38Z</time>
</trkpt>
<trkpt lat="49.05488295480609" lon="9.242046950384974">
<ele>194.20000000000005</ele>
<time>2023-05-16T13:06:39Z</time>
</trkpt>
<trkpt lat="49.05488496646285" lon="9.242056924849749">
<ele>194.20000000000005</ele>
<time>2023-05-16T13:06:40Z</time>
</trkpt>
<trkpt lat="49.05488496646285" lon="9.242061953991652">
<ele>194.20000000000005</ele>
<time>2023-05-16T13:06:41Z</time>
</trkpt>
<trkpt lat="49.05488295480609" lon="9.242067988961935">
<ele>194.20000000000005</ele>
<time>2023-05-16T13:06:42Z</time>
</trkpt>
<trkpt lat="49.05486292205751" lon="9.24210193566978">
<ele>194.20000000000005</ele>
<time>2023-05-16T13:06:42Z</time>
</trkpt>
<trkpt lat="49.05486795119941" lon="9.242096990346909">
<ele>194.20000000000005</ele>
<time>2023-05-16T13:06:43Z</time>
</trkpt>
<trkpt lat="49.054872980341315" lon="9.242091961205006">
<ele>194.20000000000005</ele>
<time>2023-05-16T13:06:44Z</time>
</trkpt>
<trkpt lat="49.05487792566419" lon="9.242071928456426">
<ele>194.20000000000005</ele>
<time>2023-05-16T13:06:45Z</time>
</trkpt>
<trkpt lat="49.05488496646285" lon="9.242052985355258">
<ele>194.20000000000005</ele>
<time>2023-05-16T13:06:46Z</time>
</trkpt>
<trkpt lat="49.05488999560475" lon="9.24203496426344">
<ele>194.20000000000005</ele>
<time>2023-05-16T13:06:47Z</time>
</trkpt>
<trkpt lat="49.054894940927625" lon="9.242009986191988">
<ele>194.20000000000005</ele>
<time>2023-05-16T13:06:48Z</time>
</trkpt>
<trkpt lat="49.05489997006953" lon="9.241996994242072">
<ele>194.20000000000005</ele>
<time>2023-05-16T13:06:49Z</time>
</trkpt>
<trkpt lat="49.05490793287754" lon="9.241979978978634">
<ele>194.20000000000005</ele>
<time>2023-05-16T13:06:50Z</time>
</trkpt>
<trkpt lat="49.054916985332966" lon="9.24197193235159">
<ele>194.20000000000005</ele>
<time>2023-05-16T13:06:51Z</time>
</trkpt>
<trkpt lat="49.054919918999076" lon="9.241962963715196">
<ele>194.20000000000005</ele>
<time>2023-05-16T13:06:52Z</time>
</trkpt>
<trkpt lat="49.05492293648422" lon="9.241962963715196">
<ele>194.20000000000005</ele>
<time>2023-05-16T13:06:53Z</time>
</trkpt>
<trkpt lat="49.05492796562612" lon="9.241956928744912">
<ele>194.20000000000005</ele>
<time>2023-05-16T13:06:54Z</time>
</trkpt>
<trkpt lat="49.05493492260575" lon="9.241946954280138">
<ele>194.20000000000005</ele>
<time>2023-05-16T13:06:55Z</time>
</trkpt>
<trkpt lat="49.054936934262514" lon="9.241936979815364">
<ele>194.20000000000005</ele>
<time>2023-05-16T13:06:56Z</time>
</trkpt>
<trkpt lat="49.05493299476802" lon="9.241934968158603">
<ele>194.20000000000005</ele>
<time>2023-05-16T13:06:57Z</time>
</trkpt>
<trkpt lat="49.054936934262514" lon="9.241931950673461">
<ele>194.20000000000005</ele>
<time>2023-05-16T13:06:58Z</time>
</trkpt>
<trkpt lat="49.05493299476802" lon="9.241932956501842">
<ele>194.20000000000005</ele>
<time>2023-05-16T13:06:59Z</time>
</trkpt>
<trkpt lat="49.05493198893964" lon="9.241936979815364">
<ele>194.20000000000005</ele>
<time>2023-05-16T13:07:00Z</time>
</trkpt>
<trkpt lat="49.054851941764355" lon="9.24205793067813">
<ele>194.39999999999998</ele>
<time>2023-05-16T13:07:00Z</time>
</trkpt>
<trkpt lat="49.05484699644148" lon="9.242062959820032">
<ele>194.39999999999998</ele>
<time>2023-05-16T13:07:01Z</time>
</trkpt>
<trkpt lat="49.054829981178045" lon="9.242056924849749">
<ele>194.39999999999998</ele>
<time>2023-05-16T13:07:02Z</time>
</trkpt>
<trkpt lat="49.05481992289424" lon="9.242052985355258">
<ele>194.39999999999998</ele>
<time>2023-05-16T13:07:03Z</time>
</trkpt>
<trkpt lat="49.05479293316603" lon="9.242042927071452">
<ele>194.39999999999998</ele>
<time>2023-05-16T13:07:04Z</time>
</trkpt>
<trkpt lat="49.054787987843156" lon="9.242056924849749">
<ele>194.39999999999998</ele>
<time>2023-05-16T13:07:05Z</time>
</trkpt>
<trkpt lat="49.054809948429465" lon="9.242042927071452">
<ele>194.39999999999998</ele>
<time>2023-05-16T13:07:06Z</time>
</trkpt>
<trkpt lat="49.05481992289424" lon="9.242032952606678">
<ele>194.39999999999998</ele>
<time>2023-05-16T13:07:07Z</time>
</trkpt>
<trkpt lat="49.05483794398606" lon="9.242012919858098">
<ele>194.60000000000002</ele>
<time>2023-05-16T13:07:08Z</time>
</trkpt>
<trkpt lat="49.054852947592735" lon="9.242006968706846">
<ele>194.60000000000002</ele>
<time>2023-05-16T13:07:09Z</time>
</trkpt>
<trkpt lat="49.05485697090626" lon="9.24199196510017">
<ele>194.60000000000002</ele>
<time>2023-05-16T13:07:10Z</time>
</trkpt>
<trkpt lat="49.054851941764355" lon="9.241982996463776">
<ele>194.60000000000002</ele>
<time>2023-05-16T13:07:11Z</time>
</trkpt>
<trkpt lat="49.05483492650092" lon="9.241987941786647">
<ele>194.60000000000002</ele>
<time>2023-05-16T13:07:12Z</time>
</trkpt>
<trkpt lat="49.05483492650092" lon="9.241977967321873">
<ele>194.60000000000002</ele>
<time>2023-05-16T13:07:13Z</time>
</trkpt>
<trkpt lat="49.05484699644148" lon="9.241956928744912">
<ele>194.60000000000002</ele>
<time>2023-05-16T13:07:14Z</time>
</trkpt>
<trkpt lat="49.0548549592495" lon="9.241954917088151">
<ele>194.60000000000002</ele>
<time>2023-05-16T13:07:16Z</time>
</trkpt>
<trkpt lat="49.05484993010759" lon="9.241926921531558">
<ele>194.39999999999998</ele>
<time>2023-05-16T13:07:17Z</time>
</trkpt>
<trkpt lat="49.054831992834806" lon="9.241939997300506">
<ele>194.39999999999998</ele>
<time>2023-05-16T13:07:18Z</time>
</trkpt>
<trkpt lat="49.05481497757137" lon="9.24194997176528">
<ele>194.39999999999998</ele>
<time>2023-05-16T13:07:19Z</time>
</trkpt>
<trkpt lat="49.054809948429465" lon="9.241954917088151">
<ele>194.39999999999998</ele>
<time>2023-05-16T13:07:20Z</time>
</trkpt>
<trkpt lat="49.054809948429465" lon="9.241956928744912">
<ele>194.39999999999998</ele>
<time>2023-05-16T13:07:21Z</time>
</trkpt>
<trkpt lat="49.05480299144983" lon="9.241956928744912">
<ele>194.39999999999998</ele>
<time>2023-05-16T13:07:22Z</time>
</trkpt>
<trkpt lat="49.05480491928756" lon="9.241952989250422">
<ele>194.39999999999998</ele>
<time>2023-05-16T13:07:23Z</time>
</trkpt>
<trkpt lat="49.05476292595267" lon="9.241947960108519">
<ele>194.60000000000002</ele>
<time>2023-05-16T13:07:23Z</time>
</trkpt>
<trkpt lat="49.054764937609434" lon="9.24194997176528">
<ele>194.60000000000002</ele>
<time>2023-05-16T13:07:24Z</time>
</trkpt>
<trkpt lat="49.05475999228656" lon="9.241944942623377">
<ele>194.60000000000002</ele>
<time>2023-05-16T13:07:25Z</time>
</trkpt>
<trkpt lat="49.05475697480142" lon="9.241944942623377">
<ele>194.60000000000002</ele>
<time>2023-05-16T13:07:26Z</time>
</trkpt>
<trkpt lat="49.05475496314466" lon="9.241944942623377">
<ele>194.60000000000002</ele>
<time>2023-05-16T13:07:27Z</time>
</trkpt>
<trkpt lat="49.05475697480142" lon="9.241942930966616">
<ele>194.60000000000002</ele>
<time>2023-05-16T13:07:28Z</time>
</trkpt>
<trkpt lat="49.05475697480142" lon="9.241941925138235">
<ele>194.60000000000002</ele>
<time>2023-05-16T13:07:29Z</time>
</trkpt>
<trkpt lat="49.05478195287287" lon="9.241896998137236">
<ele>194.60000000000002</ele>
<time>2023-05-16T13:07:29Z</time>
</trkpt>
<trkpt lat="49.05478295870125" lon="9.241892974823713">
<ele>194.79999999999995</ele>
<time>2023-05-16T13:07:30Z</time>
</trkpt>
<trkpt lat="49.05479796230793" lon="9.241861961781979">
<ele>194.79999999999995</ele>
<time>2023-05-16T13:07:31Z</time>
</trkpt>
<trkpt lat="49.05480693094432" lon="9.24184494651854">
<ele>194.79999999999995</ele>
<time>2023-05-16T13:07:32Z</time>
</trkpt>
<trkpt lat="49.05479192733765" lon="9.241866990923882">
<ele>194.79999999999995</ele>
<time>2023-05-16T13:07:33Z</time>
</trkpt>
<trkpt lat="49.054784970358014" lon="9.241877971217036">
<ele>194.79999999999995</ele>
<time>2023-05-16T13:07:34Z</time>
</trkpt>
<trkpt lat="49.05479494482279" lon="9.241866990923882">
<ele>194.79999999999995</ele>
<time>2023-05-16T13:07:35Z</time>
</trkpt>
<trkpt lat="49.05479796230793" lon="9.24188693985343">
<ele>194.79999999999995</ele>
<time>2023-05-16T13:07:36Z</time>
</trkpt>
<trkpt lat="49.05478999949992" lon="9.241899931803346">
<ele>195</ele>
<time>2023-05-16T13:07:39Z</time>
</trkpt>
<trkpt lat="49.05479997396469" lon="9.241861961781979">
<ele>195</ele>
<time>2023-05-16T13:07:40Z</time>
</trkpt>
<trkpt lat="49.05479293316603" lon="9.241867996752262">
<ele>195</ele>
<time>2023-05-16T13:07:41Z</time>
</trkpt>
<trkpt lat="49.05483794398606" lon="9.241746962070465">
<ele>195.20000000000005</ele>
<time>2023-05-16T13:07:45Z</time>
</trkpt>
<trkpt lat="49.05484993010759" lon="9.241724917665124">
<ele>195.20000000000005</ele>
<time>2023-05-16T13:07:46Z</time>
</trkpt>
<trkpt lat="49.05484297312796" lon="9.241711925715208">
<ele>195.20000000000005</ele>
<time>2023-05-16T13:07:47Z</time>
</trkpt>
<trkpt lat="49.05486292205751" lon="9.24167294986546">
<ele>195.20000000000005</ele>
<time>2023-05-16T13:07:48Z</time>
</trkpt>
<trkpt lat="49.05486191622913" lon="9.241659957915545">
<ele>195.20000000000005</ele>
<time>2023-05-16T13:07:49Z</time>
</trkpt>
<trkpt lat="49.05485697090626" lon="9.241644954308867">
<ele>195.20000000000005</ele>
<time>2023-05-16T13:07:50Z</time>
</trkpt>
<trkpt lat="49.05486191622913" lon="9.241636991500854">
<ele>195.20000000000005</ele>
<time>2023-05-16T13:07:51Z</time>
</trkpt>
<trkpt lat="49.05487792566419" lon="9.241624921560287">
<ele>195.20000000000005</ele>
<time>2023-05-16T13:07:52Z</time>
</trkpt>
<trkpt lat="49.05489192344248" lon="9.241619976237416">
<ele>195.20000000000005</ele>
<time>2023-05-16T13:07:53Z</time>
</trkpt>
<trkpt lat="49.05492193065584" lon="9.241592986509204">
<ele>195.20000000000005</ele>
<time>2023-05-16T13:07:54Z</time>
</trkpt>
<trkpt lat="49.05491296201944" lon="9.241612935438752">
<ele>195.20000000000005</ele>
<time>2023-05-16T13:07:55Z</time>
</trkpt>
<trkpt lat="49.054919918999076" lon="9.241602960973978">
<ele>195.20000000000005</ele>
<time>2023-05-16T13:07:56Z</time>
</trkpt>
<trkpt lat="49.05492293648422" lon="9.24156197346747">
<ele>195.20000000000005</ele>
<time>2023-05-16T13:07:57Z</time>
</trkpt>
<trkpt lat="49.054919918999076" lon="9.241574965417385">
<ele>195.20000000000005</ele>
<time>2023-05-16T13:07:58Z</time>
</trkpt>
<trkpt lat="49.054919918999076" lon="9.241572953760624">
<ele>195.20000000000005</ele>
<time>2023-05-16T13:07:59Z</time>
</trkpt>
<trkpt lat="49.05490793287754" lon="9.241587957367301">
<ele>195.20000000000005</ele>
<time>2023-05-16T13:08:00Z</time>
</trkpt>
<trkpt lat="49.054896952584386" lon="9.24160991795361">
<ele>195.20000000000005</ele>
<time>2023-05-16T13:08:01Z</time>
</trkpt>
<trkpt lat="49.05488496646285" lon="9.241624921560287">
<ele>195.20000000000005</ele>
<time>2023-05-16T13:08:02Z</time>
</trkpt>
<trkpt lat="49.05487792566419" lon="9.24162995070219">
<ele>195.20000000000005</ele>
<time>2023-05-16T13:08:03Z</time>
</trkpt>
<trkpt lat="49.054871974512935" lon="9.241626933217049">
<ele>195.20000000000005</ele>
<time>2023-05-16T13:08:04Z</time>
</trkpt>
<trkpt lat="49.054871974512935" lon="9.24162793904543">
<ele>195.20000000000005</ele>
<time>2023-05-16T13:08:05Z</time>
</trkpt>
<trkpt lat="49.054874991998076" lon="9.241616958752275">
<ele>195.20000000000005</ele>
<time>2023-05-16T13:08:06Z</time>
</trkpt>
<trkpt lat="49.05486493371427" lon="9.241621987894177">
<ele>195.20000000000005</ele>
<time>2023-05-16T13:08:07Z</time>
</trkpt>
<trkpt lat="49.05484498478472" lon="9.241614947095513">
<ele>195.20000000000005</ele>
<time>2023-05-16T13:08:08Z</time>
</trkpt>
<trkpt lat="49.054821934551" lon="9.241631962358952">
<ele>195.20000000000005</ele>
<time>2023-05-16T13:08:09Z</time>
</trkpt>
<trkpt lat="49.05477692373097" lon="9.241634979844093">
<ele>195.20000000000005</ele>
<time>2023-05-16T13:08:10Z</time>
</trkpt>
<trkpt lat="49.054742977023125" lon="9.241644954308867">
<ele>195</ele>
<time>2023-05-16T13:08:11Z</time>
</trkpt>
<trkpt lat="49.05472998507321" lon="9.241662975400686">
<ele>195</ele>
<time>2023-05-16T13:08:12Z</time>
</trkpt>
<trkpt lat="49.05473493039608" lon="9.241637997329235">
<ele>195</ele>
<time>2023-05-16T13:08:13Z</time>
</trkpt>
<trkpt lat="49.05471296980977" lon="9.241662975400686">
<ele>194.79999999999995</ele>
<time>2023-05-16T13:08:16Z</time>
</trkpt>
<trkpt lat="49.05469796620309" lon="9.241711925715208">
<ele>194.79999999999995</ele>
<time>2023-05-16T13:08:17Z</time>
</trkpt>
<trkpt lat="49.05469494871795" lon="9.241709997877479">
<ele>194.79999999999995</ele>
<time>2023-05-16T13:08:18Z</time>
</trkpt>
<trkpt lat="49.05468296259642" lon="9.241721983999014">
<ele>194.79999999999995</ele>
<time>2023-05-16T13:08:19Z</time>
</trkpt>
<trkpt lat="49.05466292984784" lon="9.241789961233735">
<ele>194.79999999999995</ele>
<time>2023-05-16T13:08:20Z</time>
</trkpt>
<trkpt lat="49.05465194955468" lon="9.241794990375638">
<ele>194.79999999999995</ele>
<time>2023-05-16T13:08:21Z</time>
</trkpt>
<trkpt lat="49.05464692041278" lon="9.241791972890496">
<ele>194.79999999999995</ele>
<time>2023-05-16T13:08:22Z</time>
</trkpt>
<trkpt lat="49.05464993789792" lon="9.241786943748593">
<ele>194.79999999999995</ele>
<time>2023-05-16T13:08:23Z</time>
</trkpt>
<trkpt lat="49.054661924019456" lon="9.241786943748593">
<ele>194.79999999999995</ele>
<time>2023-05-16T13:08:24Z</time>
</trkpt>
<trkpt lat="49.054657984524965" lon="9.241792978718877">
<ele>194.79999999999995</ele>
<time>2023-05-16T13:08:25Z</time>
</trkpt>
<trkpt lat="49.054661924019456" lon="9.241794990375638">
<ele>194.79999999999995</ele>
<time>2023-05-16T13:08:26Z</time>
</trkpt>
<trkpt lat="49.054679945111275" lon="9.241774957627058">
<ele>194.79999999999995</ele>
<time>2023-05-16T13:08:27Z</time>
</trkpt>
<trkpt lat="49.05469494871795" lon="9.241796918213367">
<ele>194.79999999999995</ele>
<time>2023-05-16T13:08:28Z</time>
</trkpt>
<trkpt lat="49.054699977859855" lon="9.241809993982315">
<ele>194.79999999999995</ele>
<time>2023-05-16T13:08:29Z</time>
</trkpt>
<trkpt lat="49.05472797341645" lon="9.24184293486178">
<ele>194.79999999999995</ele>
<time>2023-05-16T13:08:30Z</time>
</trkpt>
<trkpt lat="49.0547579806298" lon="9.241851987317204">
<ele>194.79999999999995</ele>
<time>2023-05-16T13:08:31Z</time>
</trkpt>
<trkpt lat="49.05480693094432" lon="9.241891968995333">
<ele>194.79999999999995</ele>
<time>2023-05-16T13:08:34Z</time>
</trkpt>
<trkpt lat="49.05481992289424" lon="9.241892974823713">
<ele>194.60000000000002</ele>
<time>2023-05-16T13:08:35Z</time>
</trkpt>
<trkpt lat="49.05483794398606" lon="9.241897920146585">
<ele>194.60000000000002</ele>
<time>2023-05-16T13:08:36Z</time>
</trkpt>
<trkpt lat="49.05483995564282" lon="9.241911917924881">
<ele>194.60000000000002</ele>
<time>2023-05-16T13:08:37Z</time>
</trkpt>
<trkpt lat="49.05484699644148" lon="9.241917952895164">
<ele>194.60000000000002</ele>
<time>2023-05-16T13:08:38Z</time>
</trkpt>
<trkpt lat="49.05485697090626" lon="9.241927927359939">
<ele>194.60000000000002</ele>
<time>2023-05-16T13:08:39Z</time>
</trkpt>
<trkpt lat="49.05486694537103" lon="9.241934968158603">
<ele>194.79999999999995</ele>
<time>2023-05-16T13:08:40Z</time>
</trkpt>
<trkpt lat="49.05487993732095" lon="9.241959946230054">
<ele>194.79999999999995</ele>
<time>2023-05-16T13:08:41Z</time>
</trkpt>
<trkpt lat="49.05490692704916" lon="9.241974949836731">
<ele>194.79999999999995</ele>
<time>2023-05-16T13:08:42Z</time>
</trkpt>
<trkpt lat="49.05494699254632" lon="9.241946954280138">
<ele>194.79999999999995</ele>
<time>2023-05-16T13:08:43Z</time>
</trkpt>
<trkpt lat="49.054956967011094" lon="9.241944942623377">
<ele>194.79999999999995</ele>
<time>2023-05-16T13:08:44Z</time>
</trkpt>
<trkpt lat="49.054981945082545" lon="9.241939997300506">
<ele>194.79999999999995</ele>
<time>2023-05-16T13:08:45Z</time>
</trkpt>
<trkpt lat="49.05499191954732" lon="9.241932956501842">
<ele>194.79999999999995</ele>
<time>2023-05-16T13:08:46Z</time>
</trkpt>
<trkpt lat="49.055044976994395" lon="9.241936979815364">
<ele>194.79999999999995</ele>
<time>2023-05-16T13:08:47Z</time>
</trkpt>
<trkpt lat="49.055044976994395" lon="9.241924993693829">
<ele>194.79999999999995</ele>
<time>2023-05-16T13:08:48Z</time>
</trkpt>
<trkpt lat="49.055046988651156" lon="9.241914935410023">
<ele>194.79999999999995</ele>
<time>2023-05-16T13:08:49Z</time>
</trkpt>
<trkpt lat="49.05505193397403" lon="9.241901943460107">
<ele>194.79999999999995</ele>
<time>2023-05-16T13:08:50Z</time>
</trkpt>
<trkpt lat="49.05505293980241" lon="9.241889957338572">
<ele>194.79999999999995</ele>
<time>2023-05-16T13:08:51Z</time>
</trkpt>
<trkpt lat="49.05505495145917" lon="9.241877971217036">
<ele>194.79999999999995</ele>
<time>2023-05-16T13:08:52Z</time>
</trkpt>
<trkpt lat="49.05505495145917" lon="9.241866990923882">
<ele>194.79999999999995</ele>
<time>2023-05-16T13:08:53Z</time>
</trkpt>
<trkpt lat="49.05505495145917" lon="9.241856932640076">
<ele>194.79999999999995</ele>
<time>2023-05-16T13:08:54Z</time>
</trkpt>
<trkpt lat="49.05505796894431" lon="9.241847964003682">
<ele>194.79999999999995</ele>
<time>2023-05-16T13:08:55Z</time>
</trkpt>
<trkpt lat="49.05505796894431" lon="9.241846958175302">
<ele>194.79999999999995</ele>
<time>2023-05-16T13:08:56Z</time>
</trkpt>
<trkpt lat="49.05506199225783" lon="9.241839917376637">
<ele>194.79999999999995</ele>
<time>2023-05-16T13:08:57Z</time>
</trkpt>
<trkpt lat="49.05507791787386" lon="9.242029935121536">
<ele>195.39999999999998</ele>
<time>2023-05-16T13:08:57Z</time>
</trkpt>
<trkpt lat="49.05508194118738" lon="9.242052985355258">
<ele>195.39999999999998</ele>
<time>2023-05-16T13:08:58Z</time>
</trkpt>
<trkpt lat="49.05509199947119" lon="9.242074945941567">
<ele>195.39999999999998</ele>
<time>2023-05-16T13:08:59Z</time>
</trkpt>
<trkpt lat="49.05509694479406" lon="9.242096990346909">
<ele>195.39999999999998</ele>
<time>2023-05-16T13:09:00Z</time>
</trkpt>
<trkpt lat="49.05509694479406" lon="9.242116939276457">
<ele>195.39999999999998</ele>
<time>2023-05-16T13:09:01Z</time>
</trkpt>
<trkpt lat="49.0550949331373" lon="9.242137977853417">
<ele>195.39999999999998</ele>
<time>2023-05-16T13:09:02Z</time>
</trkpt>
<trkpt lat="49.0550949331373" lon="9.242152981460094">
<ele>195.39999999999998</ele>
<time>2023-05-16T13:09:03Z</time>
</trkpt>
<trkpt lat="49.05509795062244" lon="9.242169996723533">
<ele>195.60000000000002</ele>
<time>2023-05-16T13:09:04Z</time>
</trkpt>
<trkpt lat="49.05509292148054" lon="9.242197992280126">
<ele>195.60000000000002</ele>
<time>2023-05-16T13:09:05Z</time>
</trkpt>
<trkpt lat="49.05508294701576" lon="9.24222992733121">
<ele>195.60000000000002</ele>
<time>2023-05-16T13:09:06Z</time>
</trkpt>
<trkpt lat="49.05507498420775" lon="9.24224996007979">
<ele>195.60000000000002</ele>
<time>2023-05-16T13:09:07Z</time>
</trkpt>
<trkpt lat="49.05507297255099" lon="9.242267981171608">
<ele>195.60000000000002</ele>
<time>2023-05-16T13:09:08Z</time>
</trkpt>
<trkpt lat="49.055069955065846" lon="9.242286924272776">
<ele>195.60000000000002</ele>
<time>2023-05-16T13:09:09Z</time>
</trkpt>
<trkpt lat="49.05505193397403" lon="9.24231693148613">
<ele>195.60000000000002</ele>
<time>2023-05-16T13:09:10Z</time>
</trkpt>
<trkpt lat="49.055024944245815" lon="9.242347944527864">
<ele>195.60000000000002</ele>
<time>2023-05-16T13:09:11Z</time>
</trkpt>
<trkpt lat="49.0549929253757" lon="9.242366971448064">
<ele>195.39999999999998</ele>
<time>2023-05-16T13:09:12Z</time>
</trkpt>
<trkpt lat="49.05496492981911" lon="9.242367977276444">
<ele>195.39999999999998</ele>
<time>2023-05-16T13:09:13Z</time>
</trkpt>
<trkpt lat="49.05492494814098" lon="9.242371916770935">
<ele>195.39999999999998</ele>
<time>2023-05-16T13:09:14Z</time>
</trkpt>
<trkpt lat="49.054874991998076" lon="9.242376945912838">
<ele>195.39999999999998</ele>
<time>2023-05-16T13:09:15Z</time>
</trkpt>
<trkpt lat="49.05483299866319" lon="9.242376945912838">
<ele>195.20000000000005</ele>
<time>2023-05-16T13:09:16Z</time>
</trkpt>
<trkpt lat="49.05478999949992" lon="9.242372922599316">
<ele>195.20000000000005</ele>
<time>2023-05-16T13:09:17Z</time>
</trkpt>
<trkpt lat="49.054741971194744" lon="9.242367977276444">
<ele>195</ele>
<time>2023-05-16T13:09:18Z</time>
</trkpt>
<trkpt lat="49.05469193123281" lon="9.242364959791303">
<ele>194.79999999999995</ele>
<time>2023-05-16T13:09:19Z</time>
</trkpt>
<trkpt lat="49.05464692041278" lon="9.242361942306161">
<ele>194.60000000000002</ele>
<time>2023-05-16T13:09:20Z</time>
</trkpt>
<trkpt lat="49.05460299924016" lon="9.242371916770935">
<ele>194.39999999999998</ele>
<time>2023-05-16T13:09:21Z</time>
</trkpt>
<trkpt lat="49.05455698259175" lon="9.242389937862754">
<ele>194</ele>
<time>2023-05-16T13:09:22Z</time>
</trkpt>
<trkpt lat="49.0545129776001" lon="9.242394967004657">
<ele>193.79999999999995</ele>
<time>2023-05-16T13:09:23Z</time>
</trkpt>
<trkpt lat="49.05447199009359" lon="9.242381975054741">
<ele>193.60000000000002</ele>
<time>2023-05-16T13:09:24Z</time>
</trkpt>
<trkpt lat="49.05442697927356" lon="9.242372922599316">
<ele>193.39999999999998</ele>
<time>2023-05-16T13:09:25Z</time>
</trkpt>
<trkpt lat="49.05438791960478" lon="9.242367977276444">
<ele>193</ele>
<time>2023-05-16T13:09:26Z</time>
</trkpt>
<trkpt lat="49.05434994958341" lon="9.242364959791303">
<ele>192.79999999999995</ele>
<time>2023-05-16T13:09:27Z</time>
</trkpt>
<trkpt lat="49.05430795624852" lon="9.242357918992639">
<ele>192.60000000000002</ele>
<time>2023-05-16T13:09:28Z</time>
</trkpt>
<trkpt lat="49.05426696874201" lon="9.242344927042723">
<ele>192.39999999999998</ele>
<time>2023-05-16T13:09:29Z</time>
</trkpt>
<trkpt lat="49.054227992892265" lon="9.242327995598316">
<ele>192.20000000000005</ele>
<time>2023-05-16T13:09:30Z</time>
</trkpt>
<trkpt lat="49.05419195070863" lon="9.242314919829369">
<ele>192.20000000000005</ele>
<time>2023-05-16T13:09:31Z</time>
</trkpt>
<trkpt lat="49.0541569981724" lon="9.242307962849736">
<ele>192</ele>
<time>2023-05-16T13:09:32Z</time>
</trkpt>
<trkpt lat="49.05412497930229" lon="9.242301927879453">
<ele>191.79999999999995</ele>
<time>2023-05-16T13:09:33Z</time>
</trkpt>
<trkpt lat="49.05409497208893" lon="9.242296982556581">
<ele>191.79999999999995</ele>
<time>2023-05-16T13:09:34Z</time>
</trkpt>
<trkpt lat="49.05406999401748" lon="9.242297988384962">
<ele>191.60000000000002</ele>
<time>2023-05-16T13:09:35Z</time>
</trkpt>
<trkpt lat="49.05404292047024" lon="9.24229497089982">
<ele>191.60000000000002</ele>
<time>2023-05-16T13:09:36Z</time>
</trkpt>
<trkpt lat="49.05401995405555" lon="9.242291953414679">
<ele>191.60000000000002</ele>
<time>2023-05-16T13:09:37Z</time>
</trkpt>
<trkpt lat="49.05399992130697" lon="9.242289941757917">
<ele>191.39999999999998</ele>
<time>2023-05-16T13:09:38Z</time>
</trkpt>
<trkpt lat="49.05397796072066" lon="9.242287930101156">
<ele>191.39999999999998</ele>
<time>2023-05-16T13:09:39Z</time>
</trkpt>
<trkpt lat="49.05395792797208" lon="9.242281978949904">
<ele>191.39999999999998</ele>
<time>2023-05-16T13:09:40Z</time>
</trkpt>
<trkpt lat="49.05393294990063" lon="9.242276949808002">
<ele>191.20000000000005</ele>
<time>2023-05-16T13:09:41Z</time>
</trkpt>
<trkpt lat="49.05390294268727" lon="9.242271920666099">
<ele>191.20000000000005</ele>
<time>2023-05-16T13:09:42Z</time>
</trkpt>
<trkpt lat="49.05387192964554" lon="9.242264963686466">
<ele>191.20000000000005</ele>
<time>2023-05-16T13:09:43Z</time>
</trkpt>
<trkpt lat="49.05383194796741" lon="9.242262952029705">
<ele>191</ele>
<time>2023-05-16T13:09:44Z</time>
</trkpt>
<trkpt lat="49.05379196628928" lon="9.242256917059422">
<ele>191</ele>
<time>2023-05-16T13:09:45Z</time>
</trkpt>
<trkpt lat="49.05374695546925" lon="9.24225197173655">
<ele>191</ele>
<time>2023-05-16T13:09:46Z</time>
</trkpt>
<trkpt lat="49.05370496213436" lon="9.24224996007979">
<ele>191</ele>
<time>2023-05-16T13:09:47Z</time>
</trkpt>
<trkpt lat="49.05366498045623" lon="9.24224996007979">
<ele>190.79999999999995</ele>
<time>2023-05-16T13:09:48Z</time>
</trkpt>
<trkpt lat="49.053626926615834" lon="9.24225197173655">
<ele>190.79999999999995</ele>
<time>2023-05-16T13:09:49Z</time>
</trkpt>
<trkpt lat="49.053582921624184" lon="9.242259934544563">
<ele>190.79999999999995</ele>
<time>2023-05-16T13:09:50Z</time>
</trkpt>
<trkpt lat="49.053541934117675" lon="9.242266975343227">
<ele>190.79999999999995</ele>
<time>2023-05-16T13:09:51Z</time>
</trkpt>
<trkpt lat="49.053497929126024" lon="9.242267981171608">
<ele>190.79999999999995</ele>
<time>2023-05-16T13:09:52Z</time>
</trkpt>
<trkpt lat="49.05345291830599" lon="9.24227292649448">
<ele>190.60000000000002</ele>
<time>2023-05-16T13:09:53Z</time>
</trkpt>
<trkpt lat="49.05340497381985" lon="9.242277955636382">
<ele>190.60000000000002</ele>
<time>2023-05-16T13:09:54Z</time>
</trkpt>
<trkpt lat="49.05335694551468" lon="9.242282984778285">
<ele>190.60000000000002</ele>
<time>2023-05-16T13:09:55Z</time>
</trkpt>
<trkpt lat="49.05330698937178" lon="9.242286924272776">
<ele>190.39999999999998</ele>
<time>2023-05-16T13:09:56Z</time>
</trkpt>
<trkpt lat="49.053259966894984" lon="9.242287930101156">
<ele>190.39999999999998</ele>
<time>2023-05-16T13:09:57Z</time>
</trkpt>
<trkpt lat="49.05320992693305" lon="9.242291953414679">
<ele>190.20000000000005</ele>
<time>2023-05-16T13:09:58Z</time>
</trkpt>
<trkpt lat="49.05316198244691" lon="9.242301927879453">
<ele>190.20000000000005</ele>
<time>2023-05-16T13:09:59Z</time>
</trkpt>
<trkpt lat="49.053112948313355" lon="9.242309974506497">
<ele>190</ele>
<time>2023-05-16T13:10:00Z</time>
</trkpt>
<trkpt lat="49.053067937493324" lon="9.242319948971272">
<ele>190</ele>
<time>2023-05-16T13:10:01Z</time>
</trkpt>
<trkpt lat="49.05302292667329" lon="9.242326989769936">
<ele>190</ele>
<time>2023-05-16T13:10:02Z</time>
</trkpt>
<trkpt lat="49.05297699384391" lon="9.242331935092807">
<ele>190</ele>
<time>2023-05-16T13:10:03Z</time>
</trkpt>
<trkpt lat="49.05292795971036" lon="9.242331935092807">
<ele>190</ele>
<time>2023-05-16T13:10:04Z</time>
</trkpt>
<trkpt lat="49.05287993140519" lon="9.242334952577949">
<ele>189.79999999999995</ele>
<time>2023-05-16T13:10:05Z</time>
</trkpt>
<trkpt lat="49.052829975262284" lon="9.242332940921187">
<ele>189.79999999999995</ele>
<time>2023-05-16T13:10:06Z</time>
</trkpt>
<trkpt lat="49.052787981927395" lon="9.242319948971272">
<ele>189.79999999999995</ele>
<time>2023-05-16T13:10:07Z</time>
</trkpt>
<trkpt lat="49.052746994420886" lon="9.242301927879453">
<ele>189.79999999999995</ele>
<time>2023-05-16T13:10:08Z</time>
</trkpt>
<trkpt lat="49.052701983600855" lon="9.242284996435046">
<ele>189.79999999999995</ele>
<time>2023-05-16T13:10:09Z</time>
</trkpt>
<trkpt lat="49.052662923932076" lon="9.242266975343227">
<ele>189.79999999999995</ele>
<time>2023-05-16T13:10:10Z</time>
</trkpt>
<trkpt lat="49.052619924768806" lon="9.242247948423028">
<ele>189.79999999999995</ele>
<time>2023-05-16T13:10:11Z</time>
</trkpt>
<trkpt lat="49.052574997767806" lon="9.2422269936651">
<ele>189.79999999999995</ele>
<time>2023-05-16T13:10:12Z</time>
</trkpt>
<trkpt lat="49.052527975291014" lon="9.242204949259758">
<ele>189.79999999999995</ele>
<time>2023-05-16T13:10:13Z</time>
</trkpt>
<trkpt lat="49.0524819586426" lon="9.242182988673449">
<ele>189.79999999999995</ele>
<time>2023-05-16T13:10:14Z</time>
</trkpt>
<trkpt lat="49.05243795365095" lon="9.242159938439727">
<ele>189.79999999999995</ele>
<time>2023-05-16T13:10:15Z</time>
</trkpt>
<trkpt lat="49.05239294283092" lon="9.242134960368276">
<ele>190</ele>
<time>2023-05-16T13:10:16Z</time>
</trkpt>
<trkpt lat="49.05234793201089" lon="9.242107970640063">
<ele>190</ele>
<time>2023-05-16T13:10:17Z</time>
</trkpt>
<trkpt lat="49.05230292119086" lon="9.24207997508347">
<ele>190</ele>
<time>2023-05-16T13:10:18Z</time>
</trkpt>
<trkpt lat="49.05226193368435" lon="9.242049967870116">
<ele>190</ele>
<time>2023-05-16T13:10:19Z</time>
</trkpt>
<trkpt lat="49.05221298336983" lon="9.242017949000001">
<ele>190</ele>
<time>2023-05-16T13:10:20Z</time>
</trkpt>
<trkpt lat="49.052166966721416" lon="9.241987941786647">
<ele>190</ele>
<time>2023-05-16T13:10:21Z</time>
</trkpt>
<trkpt lat="49.05211994424462" lon="9.241961957886815">
<ele>190</ele>
<time>2023-05-16T13:10:22Z</time>
</trkpt>
<trkpt lat="49.05207694508135" lon="9.241934968158603">
<ele>190</ele>
<time>2023-05-16T13:10:23Z</time>
</trkpt>
<trkpt lat="49.05203193426132" lon="9.241911917924881">
<ele>190.20000000000005</ele>
<time>2023-05-16T13:10:24Z</time>
</trkpt>
<trkpt lat="49.05198994092643" lon="9.241889957338572">
<ele>190.20000000000005</ele>
<time>2023-05-16T13:10:25Z</time>
</trkpt>
<trkpt lat="49.051951970905066" lon="9.24186497926712">
<ele>190.20000000000005</ele>
<time>2023-05-16T13:10:26Z</time>
</trkpt>
<trkpt lat="49.05191794037819" lon="9.241836983710527">
<ele>190.39999999999998</ele>
<time>2023-05-16T13:10:27Z</time>
</trkpt>
<trkpt lat="49.051886927336454" lon="9.241807982325554">
<ele>190.39999999999998</ele>
<time>2023-05-16T13:10:28Z</time>
</trkpt>
<trkpt lat="49.05185993760824" lon="9.2417779751122">
<ele>190.39999999999998</ele>
<time>2023-05-16T13:10:29Z</time>
</trkpt>
<trkpt lat="49.05183495953679" lon="9.241749979555607">
<ele>190.60000000000002</ele>
<time>2023-05-16T13:10:30Z</time>
</trkpt>
<trkpt lat="49.0518069639802" lon="9.241724917665124">
<ele>190.60000000000002</ele>
<time>2023-05-16T13:10:31Z</time>
</trkpt>
<trkpt lat="49.05177494511008" lon="9.24169298261404">
<ele>190.79999999999995</ele>
<time>2023-05-16T13:10:32Z</time>
</trkpt>
<trkpt lat="49.05174292623997" lon="9.241659957915545">
<ele>190.79999999999995</ele>
<time>2023-05-16T13:10:33Z</time>
</trkpt>
<trkpt lat="49.05171291902661" lon="9.241624921560287">
<ele>191</ele>
<time>2023-05-16T13:10:34Z</time>
</trkpt>
<trkpt lat="49.05168693512678" lon="9.24158493988216">
<ele>191</ele>
<time>2023-05-16T13:10:35Z</time>
</trkpt>
<trkpt lat="49.05165793374181" lon="9.24154194071889">
<ele>191.20000000000005</ele>
<time>2023-05-16T13:10:36Z</time>
</trkpt>
<trkpt lat="49.051629938185215" lon="9.241496929898858">
<ele>191.20000000000005</ele>
<time>2023-05-16T13:10:37Z</time>
</trkpt>
<trkpt lat="49.0515979193151" lon="9.241451919078827">
<ele>191.39999999999998</ele>
<time>2023-05-16T13:10:38Z</time>
</trkpt>
<trkpt lat="49.05156799592078" lon="9.241407997906208">
<ele>191.39999999999998</ele>
<time>2023-05-16T13:10:39Z</time>
</trkpt>
<trkpt lat="49.05153698287904" lon="9.241362987086177">
<ele>191.39999999999998</ele>
<time>2023-05-16T13:10:40Z</time>
</trkpt>
<trkpt lat="49.05150798149407" lon="9.241321999579668">
<ele>191.39999999999998</ele>
<time>2023-05-16T13:10:41Z</time>
</trkpt>
<trkpt lat="49.051479985937476" lon="9.241279922425747">
<ele>191.60000000000002</ele>
<time>2023-05-16T13:10:42Z</time>
</trkpt>
<trkpt lat="49.051452996209264" lon="9.241232983767986">
<ele>191.60000000000002</ele>
<time>2023-05-16T13:10:43Z</time>
</trkpt>
<trkpt lat="49.05142198316753" lon="9.241187972947955">
<ele>191.79999999999995</ele>
<time>2023-05-16T13:10:44Z</time>
</trkpt>
<trkpt lat="49.05138795264065" lon="9.241142962127924">
<ele>191.79999999999995</ele>
<time>2023-05-16T13:10:45Z</time>
</trkpt>
<trkpt lat="49.05135492794216" lon="9.241097951307893">
<ele>191.79999999999995</ele>
<time>2023-05-16T13:10:46Z</time>
</trkpt>
<trkpt lat="49.05131997540593" lon="9.241054952144623">
<ele>192</ele>
<time>2023-05-16T13:10:47Z</time>
</trkpt>
<trkpt lat="49.051287956535816" lon="9.241009941324592">
<ele>192.20000000000005</ele>
<time>2023-05-16T13:10:48Z</time>
</trkpt>
<trkpt lat="49.05125996097922" lon="9.24096493050456">
<ele>192.20000000000005</ele>
<time>2023-05-16T13:10:49Z</time>
</trkpt>
<trkpt lat="49.05122794210911" lon="9.2409179918468">
<ele>192.39999999999998</ele>
<time>2023-05-16T13:10:50Z</time>
</trkpt>
<trkpt lat="49.05119692906737" lon="9.240872981026769">
<ele>192.39999999999998</ele>
<time>2023-05-16T13:10:51Z</time>
</trkpt>
<trkpt lat="49.05116298235953" lon="9.240829981863499">
<ele>192.60000000000002</ele>
<time>2023-05-16T13:10:52Z</time>
</trkpt>
<trkpt lat="49.051131969317794" lon="9.24078798852861">
<ele>192.60000000000002</ele>
<time>2023-05-16T13:10:53Z</time>
</trkpt>
<trkpt lat="49.05110296793282" lon="9.24074792303145">
<ele>192.79999999999995</ele>
<time>2023-05-16T13:10:54Z</time>
</trkpt>
<trkpt lat="49.051071954891086" lon="9.24070693552494">
<ele>192.79999999999995</ele>
<time>2023-05-16T13:10:55Z</time>
</trkpt>
<trkpt lat="49.05104295350611" lon="9.240667959675193">
<ele>193</ele>
<time>2023-05-16T13:10:56Z</time>
</trkpt>
<trkpt lat="49.05101696960628" lon="9.240627977997065">
<ele>193.20000000000005</ele>
<time>2023-05-16T13:10:57Z</time>
</trkpt>
<trkpt lat="49.050986962392926" lon="9.240587996318936">
<ele>193.20000000000005</ele>
<time>2023-05-16T13:10:58Z</time>
</trkpt>
<trkpt lat="49.05095796100795" lon="9.240547930821776">
<ele>193.39999999999998</ele>
<time>2023-05-16T13:10:59Z</time>
</trkpt>
<trkpt lat="49.05093197710812" lon="9.240507949143648">
<ele>193.39999999999998</ele>
<time>2023-05-16T13:11:00Z</time>
</trkpt>
<trkpt lat="49.05090498737991" lon="9.24046696163714">
<ele>193.60000000000002</ele>
<time>2023-05-16T13:11:01Z</time>
</trkpt>
<trkpt lat="49.050874980166554" lon="9.24042496830225">
<ele>193.79999999999995</ele>
<time>2023-05-16T13:11:02Z</time>
</trkpt>
<trkpt lat="49.05084799043834" lon="9.240384986624122">
<ele>193.79999999999995</ele>
<time>2023-05-16T13:11:03Z</time>
</trkpt>
<trkpt lat="49.05081798322499" lon="9.240341987460852">
<ele>194</ele>
<time>2023-05-16T13:11:04Z</time>
</trkpt>
<trkpt lat="49.050789987668395" lon="9.240301921963692">
<ele>194.20000000000005</ele>
<time>2023-05-16T13:11:05Z</time>
</trkpt>
<trkpt lat="49.05076299794018" lon="9.240261940285563">
<ele>194.39999999999998</ele>
<time>2023-05-16T13:11:06Z</time>
</trkpt>
<trkpt lat="49.0507379360497" lon="9.240224976092577">
<ele>194.60000000000002</ele>
<time>2023-05-16T13:11:07Z</time>
</trkpt>
<trkpt lat="49.05071195214987" lon="9.240186922252178">
<ele>194.79999999999995</ele>
<time>2023-05-16T13:11:08Z</time>
</trkpt>
<trkpt lat="49.05068697407842" lon="9.24014794640243">
<ele>195</ele>
<time>2023-05-16T13:11:09Z</time>
</trkpt>
<trkpt lat="49.05065696686506" lon="9.240116933360696">
<ele>195.20000000000005</ele>
<time>2023-05-16T13:11:10Z</time>
</trkpt>
<trkpt lat="49.05063198879361" lon="9.240082986652851">
<ele>195.39999999999998</ele>
<time>2023-05-16T13:11:11Z</time>
</trkpt>
<trkpt lat="49.0506049990654" lon="9.240047950297594">
<ele>195.39999999999998</ele>
<time>2023-05-16T13:11:12Z</time>
</trkpt>
<trkpt lat="49.05058194883168" lon="9.240009980276227">
<ele>195.60000000000002</ele>
<time>2023-05-16T13:11:13Z</time>
</trkpt>
<trkpt lat="49.050554959103465" lon="9.239969998598099">
<ele>195.79999999999995</ele>
<time>2023-05-16T13:11:14Z</time>
</trkpt>
<trkpt lat="49.05052696354687" lon="9.2399319447577">
<ele>196</ele>
<time>2023-05-16T13:11:15Z</time>
</trkpt>
<trkpt lat="49.05049997381866" lon="9.239892968907952">
<ele>196.20000000000005</ele>
<time>2023-05-16T13:11:16Z</time>
</trkpt>
<trkpt lat="49.05047197826207" lon="9.239856926724315">
<ele>196.60000000000002</ele>
<time>2023-05-16T13:11:17Z</time>
</trkpt>
<trkpt lat="49.05044197104871" lon="9.23982197418809">
<ele>196.79999999999995</ele>
<time>2023-05-16T13:11:18Z</time>
</trkpt>
<trkpt lat="49.0504149813205" lon="9.239784926176071">
<ele>197</ele>
<time>2023-05-16T13:11:19Z</time>
</trkpt>
<trkpt lat="49.05038799159229" lon="9.239746956154704">
<ele>197.20000000000005</ele>
<time>2023-05-16T13:11:20Z</time>
</trkpt>
<trkpt lat="49.050362929701805" lon="9.239711919799447">
<ele>197.39999999999998</ele>
<time>2023-05-16T13:11:21Z</time>
</trkpt>
<trkpt lat="49.05033191666007" lon="9.239676967263222">
<ele>197.60000000000002</ele>
<time>2023-05-16T13:11:22Z</time>
</trkpt>
<trkpt lat="49.05030299909413" lon="9.239639919251204">
<ele>198</ele>
<time>2023-05-16T13:11:23Z</time>
</trkpt>
<trkpt lat="49.050272991880774" lon="9.239602955058217">
<ele>198.20000000000005</ele>
<time>2023-05-16T13:11:24Z</time>
</trkpt>
<trkpt lat="49.05024298466742" lon="9.23956791870296">
<ele>198.60000000000002</ele>
<time>2023-05-16T13:11:25Z</time>
</trkpt>
<trkpt lat="49.050211971625686" lon="9.239536989480257">
<ele>198.79999999999995</ele>
<time>2023-05-16T13:11:26Z</time>
</trkpt>
<trkpt lat="49.05018196441233" lon="9.239504970610142">
<ele>199</ele>
<time>2023-05-16T13:11:27Z</time>
</trkpt>
<trkpt lat="49.05015296302736" lon="9.239471945911646">
<ele>199.20000000000005</ele>
<time>2023-05-16T13:11:28Z</time>
</trkpt>
<trkpt lat="49.050124967470765" lon="9.23943699337542">
<ele>199.39999999999998</ele>
<time>2023-05-16T13:11:29Z</time>
</trkpt>
<trkpt lat="49.05009797774255" lon="9.239401957020164">
<ele>199.79999999999995</ele>
<time>2023-05-16T13:11:30Z</time>
</trkpt>
<trkpt lat="49.05007199384272" lon="9.239367926493287">
<ele>200</ele>
<time>2023-05-16T13:11:31Z</time>
</trkpt>
<trkpt lat="49.05004693195224" lon="9.239336997270584">
<ele>200.20000000000005</ele>
<time>2023-05-16T13:11:32Z</time>
</trkpt>
<trkpt lat="49.05002195388079" lon="9.239302966743708">
<ele>200.39999999999998</ele>
<time>2023-05-16T13:11:33Z</time>
</trkpt>
<trkpt lat="49.049996975809336" lon="9.239271953701973">
<ele>200.79999999999995</ele>
<time>2023-05-16T13:11:34Z</time>
</trkpt>
<trkpt lat="49.04996998608112" lon="9.239242952317">
<ele>201</ele>
<time>2023-05-16T13:11:35Z</time>
</trkpt>
<trkpt lat="49.04994492419064" lon="9.239212945103645">
<ele>201.20000000000005</ele>
<time>2023-05-16T13:11:36Z</time>
</trkpt>
<trkpt lat="49.04991994611919" lon="9.23918193206191">
<ele>201.60000000000002</ele>
<time>2023-05-16T13:11:37Z</time>
</trkpt>
<trkpt lat="49.0498969797045" lon="9.239149997010827">
<ele>201.79999999999995</ele>
<time>2023-05-16T13:11:38Z</time>
</trkpt>
<trkpt lat="49.049871917814016" lon="9.239117978140712">
<ele>202.20000000000005</ele>
<time>2023-05-16T13:11:39Z</time>
</trkpt>
<trkpt lat="49.04984995722771" lon="9.239086965098977">
<ele>202.60000000000002</ele>
<time>2023-05-16T13:11:40Z</time>
</trkpt>
<trkpt lat="49.049822967499495" lon="9.239056957885623">
<ele>202.79999999999995</ele>
<time>2023-05-16T13:11:41Z</time>
</trkpt>
<trkpt lat="49.04979798942804" lon="9.239026950672269">
<ele>203</ele>
<time>2023-05-16T13:11:42Z</time>
</trkpt>
<trkpt lat="49.04977695085108" lon="9.238994931802154">
<ele>203.39999999999998</ele>
<time>2023-05-16T13:11:43Z</time>
</trkpt>
<trkpt lat="49.04975197277963" lon="9.23896199092269">
<ele>203.60000000000002</ele>
<time>2023-05-16T13:11:44Z</time>
</trkpt>
<trkpt lat="49.04972791671753" lon="9.238932989537716">
<ele>204</ele>
<time>2023-05-16T13:11:45Z</time>
</trkpt>
<trkpt lat="49.04970495030284" lon="9.238902982324362">
<ele>204.20000000000005</ele>
<time>2023-05-16T13:11:46Z</time>
</trkpt>
<trkpt lat="49.04967997223139" lon="9.238869957625866">
<ele>204.60000000000002</ele>
<time>2023-05-16T13:11:47Z</time>
</trkpt>
<trkpt lat="49.04965499415994" lon="9.238839950412512">
<ele>204.79999999999995</ele>
<time>2023-05-16T13:11:48Z</time>
</trkpt>
<trkpt lat="49.049629932269454" lon="9.238811954855919">
<ele>205</ele>
<time>2023-05-16T13:11:49Z</time>
</trkpt>
<trkpt lat="49.049606965854764" lon="9.238781947642565">
<ele>205.39999999999998</ele>
<time>2023-05-16T13:11:50Z</time>
</trkpt>
<trkpt lat="49.04958198778331" lon="9.23875194042921">
<ele>205.60000000000002</ele>
<time>2023-05-16T13:11:51Z</time>
</trkpt>
<trkpt lat="49.04955793172121" lon="9.238721933215857">
<ele>206</ele>
<time>2023-05-16T13:11:52Z</time>
</trkpt>
<trkpt lat="49.04953295364976" lon="9.238689998164773">
<ele>206.20000000000005</ele>
<time>2023-05-16T13:11:53Z</time>
</trkpt>
<trkpt lat="49.04950998723507" lon="9.238657979294658">
<ele>206.60000000000002</ele>
<time>2023-05-16T13:11:54Z</time>
</trkpt>
<trkpt lat="49.04948693700135" lon="9.238629983738065">
<ele>206.79999999999995</ele>
<time>2023-05-16T13:11:55Z</time>
</trkpt>
<trkpt lat="49.049461958929896" lon="9.238601988181472">
<ele>207.20000000000005</ele>
<time>2023-05-16T13:11:56Z</time>
</trkpt>
<trkpt lat="49.049437986686826" lon="9.238571980968118">
<ele>207.39999999999998</ele>
<time>2023-05-16T13:11:57Z</time>
</trkpt>
<trkpt lat="49.049416948109865" lon="9.238542979583144">
<ele>207.79999999999995</ele>
<time>2023-05-16T13:11:58Z</time>
</trkpt>
<trkpt lat="49.049394987523556" lon="9.23851196654141">
<ele>208</ele>
<time>2023-05-16T13:11:59Z</time>
</trkpt>
<trkpt lat="49.049374954774976" lon="9.238477936014533">
<ele>208.39999999999998</ele>
<time>2023-05-16T13:12:00Z</time>
</trkpt>
<trkpt lat="49.04934796504676" lon="9.238447928801179">
<ele>208.60000000000002</ele>
<time>2023-05-16T13:12:01Z</time>
</trkpt>
<trkpt lat="49.04932499863207" lon="9.238416999578476">
<ele>209</ele>
<time>2023-05-16T13:12:02Z</time>
</trkpt>
<trkpt lat="49.04930194839835" lon="9.238386992365122">
<ele>209.20000000000005</ele>
<time>2023-05-16T13:12:03Z</time>
</trkpt>
<trkpt lat="49.0492819994688" lon="9.238357990980148">
<ele>209.60000000000002</ele>
<time>2023-05-16T13:12:04Z</time>
</trkpt>
<trkpt lat="49.04925995506346" lon="9.238331923261285">
<ele>209.79999999999995</ele>
<time>2023-05-16T13:12:05Z</time>
</trkpt>
<trkpt lat="49.04923698864877" lon="9.238304933533072">
<ele>210.20000000000005</ele>
<time>2023-05-16T13:12:06Z</time>
</trkpt>
<trkpt lat="49.04921293258667" lon="9.238274926319718">
<ele>210.60000000000002</ele>
<time>2023-05-16T13:12:07Z</time>
</trkpt>
<trkpt lat="49.04918996617198" lon="9.238244919106364">
<ele>210.79999999999995</ele>
<time>2023-05-16T13:12:08Z</time>
</trkpt>
<trkpt lat="49.04916498810053" lon="9.238214995712042">
<ele>211.20000000000005</ele>
<time>2023-05-16T13:12:09Z</time>
</trkpt>
<trkpt lat="49.04914193786681" lon="9.238182976841927">
<ele>211.60000000000002</ele>
<time>2023-05-16T13:12:10Z</time>
</trkpt>
<trkpt lat="49.049117965623736" lon="9.238152969628572">
<ele>212</ele>
<time>2023-05-16T13:12:11Z</time>
</trkpt>
<trkpt lat="49.049096927046776" lon="9.238121956586838">
<ele>212.20000000000005</ele>
<time>2023-05-16T13:12:12Z</time>
</trkpt>
<trkpt lat="49.049071948975325" lon="9.238091949373484">
<ele>212.60000000000002</ele>
<time>2023-05-16T13:12:13Z</time>
</trkpt>
<trkpt lat="49.049047976732254" lon="9.23806194216013">
<ele>213</ele>
<time>2023-05-16T13:12:14Z</time>
</trkpt>
<trkpt lat="49.0490229986608" lon="9.238027995452285">
<ele>213.20000000000005</ele>
<time>2023-05-16T13:12:15Z</time>
</trkpt>
<trkpt lat="49.04899793677032" lon="9.237994970753789">
<ele>213.60000000000002</ele>
<time>2023-05-16T13:12:16Z</time>
</trkpt>
<trkpt lat="49.04897195287049" lon="9.237961946055293">
<ele>213.79999999999995</ele>
<time>2023-05-16T13:12:17Z</time>
</trkpt>
<trkpt lat="49.048944963142276" lon="9.237926993519068">
<ele>214.20000000000005</ele>
<time>2023-05-16T13:12:18Z</time>
</trkpt>
<trkpt lat="49.048919985070825" lon="9.23789195716381">
<ele>214.39999999999998</ele>
<time>2023-05-16T13:12:19Z</time>
</trkpt>
<trkpt lat="49.04889198951423" lon="9.237856920808554">
<ele>214.79999999999995</ele>
<time>2023-05-16T13:12:20Z</time>
</trkpt>
<trkpt lat="49.04886692762375" lon="9.23782498575747">
<ele>215.20000000000005</ele>
<time>2023-05-16T13:12:21Z</time>
</trkpt>
<trkpt lat="49.04884295538068" lon="9.237794978544116">
<ele>215.39999999999998</ele>
<time>2023-05-16T13:12:22Z</time>
</trkpt>
<trkpt lat="49.04881998896599" lon="9.237762959674">
<ele>215.79999999999995</ele>
<time>2023-05-16T13:12:23Z</time>
</trkpt>
<trkpt lat="49.04879794456065" lon="9.237731946632266">
<ele>216.20000000000005</ele>
<time>2023-05-16T13:12:24Z</time>
</trkpt>
<trkpt lat="49.048772966489196" lon="9.237701939418912">
<ele>216.60000000000002</ele>
<time>2023-05-16T13:12:25Z</time>
</trkpt>
<trkpt lat="49.048747988417745" lon="9.237669920548797">
<ele>217</ele>
<time>2023-05-16T13:12:26Z</time>
</trkpt>
<trkpt lat="49.04872493818402" lon="9.237639997154474">
<ele>217.20000000000005</ele>
<time>2023-05-16T13:12:27Z</time>
</trkpt>
<trkpt lat="49.048704989254475" lon="9.23760998994112">
<ele>217.60000000000002</ele>
<time>2023-05-16T13:12:28Z</time>
</trkpt>
<trkpt lat="49.04868294484913" lon="9.237576965242624">
<ele>217.79999999999995</ele>
<time>2023-05-16T13:12:29Z</time>
</trkpt>
<trkpt lat="49.04865997843444" lon="9.237544946372509">
<ele>218.20000000000005</ele>
<time>2023-05-16T13:12:30Z</time>
</trkpt>
<trkpt lat="49.04863491654396" lon="9.237514939159155">
<ele>218.39999999999998</ele>
<time>2023-05-16T13:12:31Z</time>
</trkpt>
<trkpt lat="49.04861195012927" lon="9.237486943602562">
<ele>218.79999999999995</ele>
<time>2023-05-16T13:12:32Z</time>
</trkpt>
<trkpt lat="49.0485879778862" lon="9.237457942217588">
<ele>219.20000000000005</ele>
<time>2023-05-16T13:12:33Z</time>
</trkpt>
<trkpt lat="49.04856492765248" lon="9.237431958317757">
<ele>219.39999999999998</ele>
<time>2023-05-16T13:12:34Z</time>
</trkpt>
<trkpt lat="49.04854196123779" lon="9.237404968589544">
<ele>219.79999999999995</ele>
<time>2023-05-16T13:12:35Z</time>
</trkpt>
<trkpt lat="49.04851698316634" lon="9.237376973032951">
<ele>220.20000000000005</ele>
<time>2023-05-16T13:12:36Z</time>
</trkpt>
<trkpt lat="49.048492927104235" lon="9.237346965819597">
<ele>220.39999999999998</ele>
<time>2023-05-16T13:12:37Z</time>
</trkpt>
<trkpt lat="49.048469960689545" lon="9.237317964434624">
<ele>220.79999999999995</ele>
<time>2023-05-16T13:12:38Z</time>
</trkpt>
<trkpt lat="49.04844498261809" lon="9.237291980534792">
<ele>221.20000000000005</ele>
<time>2023-05-16T13:12:39Z</time>
</trkpt>
<trkpt lat="49.04842193238437" lon="9.23726499080658">
<ele>221.39999999999998</ele>
<time>2023-05-16T13:12:40Z</time>
</trkpt>
<trkpt lat="49.0483979601413" lon="9.237237917259336">
<ele>221.79999999999995</ele>
<time>2023-05-16T13:12:41Z</time>
</trkpt>
<trkpt lat="49.04837499372661" lon="9.237211933359504">
<ele>222</ele>
<time>2023-05-16T13:12:42Z</time>
</trkpt>
<trkpt lat="49.04835294932127" lon="9.237186955288053">
<ele>222.39999999999998</ele>
<time>2023-05-16T13:12:43Z</time>
</trkpt>
<trkpt lat="49.04833199456334" lon="9.237161977216601">
<ele>222.60000000000002</ele>
<time>2023-05-16T13:12:44Z</time>
</trkpt>
<trkpt lat="49.048309950158" lon="9.237137921154499">
<ele>223</ele>
<time>2023-05-16T13:12:45Z</time>
</trkpt>
<trkpt lat="49.04828497208655" lon="9.237114954739809">
<ele>223.39999999999998</ele>
<time>2023-05-16T13:12:46Z</time>
</trkpt>
<trkpt lat="49.04826192185283" lon="9.237089976668358">
<ele>223.60000000000002</ele>
<time>2023-05-16T13:12:47Z</time>
</trkpt>
<trkpt lat="49.04823292046785" lon="9.237066926434636">
<ele>224</ele>
<time>2023-05-16T13:12:48Z</time>
</trkpt>
<trkpt lat="49.04820693656802" lon="9.237042954191566">
<ele>224.20000000000005</ele>
<time>2023-05-16T13:12:49Z</time>
</trkpt>
<trkpt lat="49.04817793518305" lon="9.237017976120114">
<ele>224.60000000000002</ele>
<time>2023-05-16T13:12:50Z</time>
</trkpt>
<trkpt lat="49.04815195128322" lon="9.236994925886393">
<ele>225</ele>
<time>2023-05-16T13:12:51Z</time>
</trkpt>
<trkpt lat="49.048126973211765" lon="9.236969947814941">
<ele>225.20000000000005</ele>
<time>2023-05-16T13:12:52Z</time>
</trkpt>
<trkpt lat="49.048101995140314" lon="9.236946981400251">
<ele>225.60000000000002</ele>
<time>2023-05-16T13:12:53Z</time>
</trkpt>
<trkpt lat="49.04807693324983" lon="9.23692493699491">
<ele>225.79999999999995</ele>
<time>2023-05-16T13:12:54Z</time>
</trkpt>
<trkpt lat="49.04804994352162" lon="9.236904988065362">
<ele>226.20000000000005</ele>
<time>2023-05-16T13:12:55Z</time>
</trkpt>
<trkpt lat="49.048021947965026" lon="9.236884955316782">
<ele>226.60000000000002</ele>
<time>2023-05-16T13:12:56Z</time>
</trkpt>
<trkpt lat="49.04799294658005" lon="9.236864922568202">
<ele>226.79999999999995</ele>
<time>2023-05-16T13:12:57Z</time>
</trkpt>
<trkpt lat="49.04796696268022" lon="9.236846985295415">
<ele>227.20000000000005</ele>
<time>2023-05-16T13:12:58Z</time>
</trkpt>
<trkpt lat="49.04793997295201" lon="9.236827958375216">
<ele>227.39999999999998</ele>
<time>2023-05-16T13:12:59Z</time>
</trkpt>
<trkpt lat="49.047911977395415" lon="9.236809937283397">
<ele>227.60000000000002</ele>
<time>2023-05-16T13:13:00Z</time>
</trkpt>
<trkpt lat="49.0478849876672" lon="9.236789988353848">
<ele>228</ele>
<time>2023-05-16T13:13:01Z</time>
</trkpt>
<trkpt lat="49.04785699211061" lon="9.23677196726203">
<ele>228.20000000000005</ele>
<time>2023-05-16T13:13:02Z</time>
</trkpt>
<trkpt lat="49.04782799072564" lon="9.23675193451345">
<ele>228.39999999999998</ele>
<time>2023-05-16T13:13:03Z</time>
</trkpt>
<trkpt lat="49.04780192300677" lon="9.236732991412282">
<ele>228.60000000000002</ele>
<time>2023-05-16T13:13:04Z</time>
</trkpt>
<trkpt lat="49.0477729216218" lon="9.236712958663702">
<ele>229</ele>
<time>2023-05-16T13:13:05Z</time>
</trkpt>
<trkpt lat="49.04774693772197" lon="9.236691920086741">
<ele>229.20000000000005</ele>
<time>2023-05-16T13:13:06Z</time>
</trkpt>
<trkpt lat="49.047717936336994" lon="9.236669959500432">
<ele>229.39999999999998</ele>
<time>2023-05-16T13:13:07Z</time>
</trkpt>
<trkpt lat="49.04769195243716" lon="9.236646993085742">
<ele>229.60000000000002</ele>
<time>2023-05-16T13:13:08Z</time>
</trkpt>
<trkpt lat="49.04766697436571" lon="9.23662293702364">
<ele>229.79999999999995</ele>
<time>2023-05-16T13:13:09Z</time>
</trkpt>
<trkpt lat="49.04764199629426" lon="9.23660198226571">
<ele>230</ele>
<time>2023-05-16T13:13:10Z</time>
</trkpt>
<trkpt lat="49.047614922747016" lon="9.236576920375228">
<ele>230.20000000000005</ele>
<time>2023-05-16T13:13:11Z</time>
</trkpt>
<trkpt lat="49.047587933018804" lon="9.236552948132157">
<ele>230.39999999999998</ele>
<time>2023-05-16T13:13:12Z</time>
</trkpt>
<trkpt lat="49.04756194911897" lon="9.236527970060706">
<ele>230.60000000000002</ele>
<time>2023-05-16T13:13:13Z</time>
</trkpt>
<trkpt lat="49.047532947734" lon="9.236506931483746">
<ele>230.79999999999995</ele>
<time>2023-05-16T13:13:14Z</time>
</trkpt>
<trkpt lat="49.04750696383417" lon="9.236479941755533">
<ele>231</ele>
<time>2023-05-16T13:13:15Z</time>
</trkpt>
<trkpt lat="49.047482991591096" lon="9.236449934542179">
<ele>231.20000000000005</ele>
<time>2023-05-16T13:13:16Z</time>
</trkpt>
<trkpt lat="49.047459941357374" lon="9.236422944813967">
<ele>231.39999999999998</ele>
<time>2023-05-16T13:13:17Z</time>
</trkpt>
<trkpt lat="49.047437980771065" lon="9.236394949257374">
<ele>231.60000000000002</ele>
<time>2023-05-16T13:13:18Z</time>
</trkpt>
<trkpt lat="49.04741493053734" lon="9.236362930387259">
<ele>231.79999999999995</ele>
<time>2023-05-16T13:13:19Z</time>
</trkpt>
<trkpt lat="49.04738995246589" lon="9.236334934830666">
<ele>232</ele>
<time>2023-05-16T13:13:20Z</time>
</trkpt>
<trkpt lat="49.04736799187958" lon="9.236302999779582">
<ele>232.20000000000005</ele>
<time>2023-05-16T13:13:21Z</time>
</trkpt>
<trkpt lat="49.04734695330262" lon="9.236271986737847">
<ele>232.39999999999998</ele>
<time>2023-05-16T13:13:22Z</time>
</trkpt>
<trkpt lat="49.04732298105955" lon="9.23623695038259">
<ele>232.60000000000002</ele>
<time>2023-05-16T13:13:23Z</time>
</trkpt>
<trkpt lat="49.04730495996773" lon="9.236201997846365">
<ele>232.60000000000002</ele>
<time>2023-05-16T13:13:24Z</time>
</trkpt>
<trkpt lat="49.04728199355304" lon="9.236164949834347">
<ele>232.79999999999995</ele>
<time>2023-05-16T13:13:25Z</time>
</trkpt>
<trkpt lat="49.04726296663284" lon="9.23612697981298">
<ele>233</ele>
<time>2023-05-16T13:13:26Z</time>
</trkpt>
<trkpt lat="49.04724192805588" lon="9.236086998134851">
<ele>233.20000000000005</ele>
<time>2023-05-16T13:13:27Z</time>
</trkpt>
<trkpt lat="49.04721996746957" lon="9.236046932637691">
<ele>233.39999999999998</ele>
<time>2023-05-16T13:13:28Z</time>
</trkpt>
<trkpt lat="49.047202952206135" lon="9.236002927646041">
<ele>233.39999999999998</ele>
<time>2023-05-16T13:13:29Z</time>
</trkpt>
<trkpt lat="49.04718694277108" lon="9.23595699481666">
<ele>233.60000000000002</ele>
<time>2023-05-16T13:13:30Z</time>
</trkpt>
<trkpt lat="49.04716799966991" lon="9.23591298982501">
<ele>233.79999999999995</ele>
<time>2023-05-16T13:13:31Z</time>
</trkpt>
<trkpt lat="49.04714997857809" lon="9.23586999066174">
<ele>234</ele>
<time>2023-05-16T13:13:32Z</time>
</trkpt>
<trkpt lat="49.04713195748627" lon="9.23582699149847">
<ele>234.20000000000005</ele>
<time>2023-05-16T13:13:33Z</time>
</trkpt>
<trkpt lat="49.047114942222834" lon="9.235779969021678">
<ele>234.39999999999998</ele>
<time>2023-05-16T13:13:34Z</time>
</trkpt>
<trkpt lat="49.04709993861616" lon="9.235734958201647">
<ele>234.60000000000002</ele>
<time>2023-05-16T13:13:35Z</time>
</trkpt>
<trkpt lat="49.04708292335272" lon="9.235689947381616">
<ele>234.79999999999995</ele>
<time>2023-05-16T13:13:36Z</time>
</trkpt>
<trkpt lat="49.04706699773669" lon="9.235642924904823">
<ele>235</ele>
<time>2023-05-16T13:13:37Z</time>
</trkpt>
<trkpt lat="49.047049982473254" lon="9.235596992075443">
<ele>235.20000000000005</ele>
<time>2023-05-16T13:13:38Z</time>
</trkpt>
<trkpt lat="49.04703799635172" lon="9.235552987083793">
<ele>235.39999999999998</ele>
<time>2023-05-16T13:13:39Z</time>
</trkpt>
<trkpt lat="49.04702299274504" lon="9.235507976263762">
<ele>235.39999999999998</ele>
<time>2023-05-16T13:13:40Z</time>
</trkpt>
<trkpt lat="49.047007989138365" lon="9.235466988757253">
<ele>235.60000000000002</ele>
<time>2023-05-16T13:13:41Z</time>
</trkpt>
<trkpt lat="49.04699793085456" lon="9.235422983765602">
<ele>235.79999999999995</ele>
<time>2023-05-16T13:13:42Z</time>
</trkpt>
<trkpt lat="49.04698292724788" lon="9.235379984602332">
<ele>236</ele>
<time>2023-05-16T13:13:43Z</time>
</trkpt>
<trkpt lat="49.046969935297966" lon="9.23533296212554">
<ele>236.20000000000005</ele>
<time>2023-05-16T13:13:44Z</time>
</trkpt>
<trkpt lat="49.04695996083319" lon="9.235279988497496">
<ele>236.39999999999998</ele>
<time>2023-05-16T13:13:45Z</time>
</trkpt>
<trkpt lat="49.04694998636842" lon="9.23522693105042">
<ele>236.79999999999995</ele>
<time>2023-05-16T13:13:46Z</time>
</trkpt>
<trkpt lat="49.04694797471166" lon="9.235169934108853">
<ele>237</ele>
<time>2023-05-16T13:13:47Z</time>
</trkpt>
<trkpt lat="49.04694193974137" lon="9.235107991844416">
<ele>237.20000000000005</ele>
<time>2023-05-16T13:13:48Z</time>
</trkpt>
<trkpt lat="49.04694193974137" lon="9.235044959932566">
<ele>237.39999999999998</ele>
<time>2023-05-16T13:13:49Z</time>
</trkpt>
<trkpt lat="49.046942945569754" lon="9.234984945505857">
<ele>237.79999999999995</ele>
<time>2023-05-16T13:13:50Z</time>
</trkpt>
<trkpt lat="49.046944957226515" lon="9.23492199741304">
<ele>238</ele>
<time>2023-05-16T13:13:51Z</time>
</trkpt>
<trkpt lat="49.04694797471166" lon="9.234861982986331">
<ele>238.20000000000005</ele>
<time>2023-05-16T13:13:52Z</time>
</trkpt>
<trkpt lat="49.04695199802518" lon="9.234801968559623">
<ele>238.39999999999998</ele>
<time>2023-05-16T13:13:53Z</time>
</trkpt>
<trkpt lat="49.04695199802518" lon="9.234744971618056">
<ele>238.79999999999995</ele>
<time>2023-05-16T13:13:54Z</time>
</trkpt>
<trkpt lat="49.04695292003453" lon="9.23468797467649">
<ele>239</ele>
<time>2023-05-16T13:13:55Z</time>
</trkpt>
<trkpt lat="49.04695493169129" lon="9.234634917229414">
<ele>239.20000000000005</ele>
<time>2023-05-16T13:13:56Z</time>
</trkpt>
<trkpt lat="49.04695694334805" lon="9.234577920287848">
<ele>239.39999999999998</ele>
<time>2023-05-16T13:13:57Z</time>
</trkpt>
<trkpt lat="49.04695794917643" lon="9.234521929174662">
<ele>239.60000000000002</ele>
<time>2023-05-16T13:13:58Z</time>
</trkpt>
<trkpt lat="49.046962978318334" lon="9.234466943889856">
<ele>239.79999999999995</ele>
<time>2023-05-16T13:13:59Z</time>
</trkpt>
<trkpt lat="49.046966917812824" lon="9.234412964433432">
<ele>240.20000000000005</ele>
<time>2023-05-16T13:14:00Z</time>
</trkpt>
<trkpt lat="49.046966917812824" lon="9.234356973320246">
<ele>240.39999999999998</ele>
<time>2023-05-16T13:14:01Z</time>
</trkpt>
<trkpt lat="49.046967923641205" lon="9.234297964721918">
<ele>240.60000000000002</ele>
<time>2023-05-16T13:14:02Z</time>
</trkpt>
<trkpt lat="49.04697194695473" lon="9.234242979437113">
<ele>240.79999999999995</ele>
<time>2023-05-16T13:14:03Z</time>
</trkpt>
<trkpt lat="49.04697496443987" lon="9.234186988323927">
<ele>241</ele>
<time>2023-05-16T13:14:04Z</time>
</trkpt>
<trkpt lat="49.04697697609663" lon="9.2341279797256">
<ele>241.20000000000005</ele>
<time>2023-05-16T13:14:05Z</time>
</trkpt>
<trkpt lat="49.04697798192501" lon="9.234067965298891">
<ele>241.60000000000002</ele>
<time>2023-05-16T13:14:06Z</time>
</trkpt>
<trkpt lat="49.04697798192501" lon="9.234011974185705">
<ele>241.79999999999995</ele>
<time>2023-05-16T13:14:07Z</time>
</trkpt>
<trkpt lat="49.04697697609663" lon="9.233952965587378">
<ele>242</ele>
<time>2023-05-16T13:14:08Z</time>
</trkpt>
<trkpt lat="49.04697295278311" lon="9.23389496281743">
<ele>242.20000000000005</ele>
<time>2023-05-16T13:14:09Z</time>
</trkpt>
<trkpt lat="49.04697295278311" lon="9.233836960047483">
<ele>242.60000000000002</ele>
<time>2023-05-16T13:14:10Z</time>
</trkpt>
<trkpt lat="49.04697295278311" lon="9.233779963105917">
<ele>242.79999999999995</ele>
<time>2023-05-16T13:14:11Z</time>
</trkpt>
<trkpt lat="49.04697194695473" lon="9.23372196033597">
<ele>243</ele>
<time>2023-05-16T13:14:12Z</time>
</trkpt>
<trkpt lat="49.046967923641205" lon="9.2336599342525">
<ele>243.20000000000005</ele>
<time>2023-05-16T13:14:13Z</time>
</trkpt>
<trkpt lat="49.046962978318334" lon="9.233597991988063">
<ele>243.39999999999998</ele>
<time>2023-05-16T13:14:14Z</time>
</trkpt>
<trkpt lat="49.04695694334805" lon="9.233539989218116">
<ele>243.60000000000002</ele>
<time>2023-05-16T13:14:15Z</time>
</trkpt>
<trkpt lat="49.04695199802518" lon="9.233477963134646">
<ele>243.79999999999995</ele>
<time>2023-05-16T13:14:16Z</time>
</trkpt>
<trkpt lat="49.046946968883276" lon="9.233417948707938">
<ele>244</ele>
<time>2023-05-16T13:14:17Z</time>
</trkpt>
<trkpt lat="49.04693992808461" lon="9.233361957594752">
<ele>244</ele>
<time>2023-05-16T13:14:18Z</time>
</trkpt>
<trkpt lat="49.04693498276174" lon="9.233302948996425">
<ele>244.20000000000005</ele>
<time>2023-05-16T13:14:19Z</time>
</trkpt>
<trkpt lat="49.04692794196308" lon="9.233242934569716">
<ele>244.20000000000005</ele>
<time>2023-05-16T13:14:20Z</time>
</trkpt>
<trkpt lat="49.046921990811825" lon="9.23318493179977">
<ele>244.39999999999998</ele>
<time>2023-05-16T13:14:21Z</time>
</trkpt>
<trkpt lat="49.04691495001316" lon="9.233126929029822">
<ele>244.60000000000002</ele>
<time>2023-05-16T13:14:22Z</time>
</trkpt>
<trkpt lat="49.04690698720515" lon="9.233069932088256">
<ele>244.60000000000002</ele>
<time>2023-05-16T13:14:23Z</time>
</trkpt>
<trkpt lat="49.04689793474972" lon="9.233011929318309">
<ele>244.79999999999995</ele>
<time>2023-05-16T13:14:24Z</time>
</trkpt>
<trkpt lat="49.04688796028495" lon="9.232952920719981">
<ele>244.79999999999995</ele>
<time>2023-05-16T13:14:25Z</time>
</trkpt>
<trkpt lat="49.046879997476935" lon="9.232894917950034">
<ele>244.79999999999995</ele>
<time>2023-05-16T13:14:26Z</time>
</trkpt>
<trkpt lat="49.04686993919313" lon="9.232834987342358">
<ele>245</ele>
<time>2023-05-16T13:14:27Z</time>
</trkpt>
<trkpt lat="49.046857953071594" lon="9.23277497291565">
<ele>245</ele>
<time>2023-05-16T13:14:28Z</time>
</trkpt>
<trkpt lat="49.04684194363654" lon="9.232714958488941">
<ele>245.20000000000005</ele>
<time>2023-05-16T13:14:29Z</time>
</trkpt>
<trkpt lat="49.0468249283731" lon="9.232656955718994">
<ele>245.20000000000005</ele>
<time>2023-05-16T13:14:30Z</time>
</trkpt>
<trkpt lat="49.04681193642318" lon="9.232597947120667">
<ele>245.20000000000005</ele>
<time>2023-05-16T13:14:31Z</time>
</trkpt>
<trkpt lat="49.046797938644886" lon="9.23253994435072">
<ele>245.39999999999998</ele>
<time>2023-05-16T13:14:32Z</time>
</trkpt>
<trkpt lat="49.04678293503821" lon="9.232484959065914">
<ele>245.39999999999998</ele>
<time>2023-05-16T13:14:33Z</time>
</trkpt>
<trkpt lat="49.04676692560315" lon="9.232427962124348">
<ele>245.39999999999998</ele>
<time>2023-05-16T13:14:34Z</time>
</trkpt>
<trkpt lat="49.046752927824855" lon="9.2323699593544">
<ele>245.60000000000002</ele>
<time>2023-05-16T13:14:35Z</time>
</trkpt>
<trkpt lat="49.0467419475317" lon="9.232311956584454">
<ele>245.60000000000002</ele>
<time>2023-05-16T13:14:36Z</time>
</trkpt>
<trkpt lat="49.04672694392502" lon="9.232251942157745">
<ele>245.60000000000002</ele>
<time>2023-05-16T13:14:37Z</time>
</trkpt>
<trkpt lat="49.04671294614673" lon="9.232191927731037">
<ele>245.79999999999995</ele>
<time>2023-05-16T13:14:38Z</time>
</trkpt>
<trkpt lat="49.04669995419681" lon="9.23213199712336">
<ele>245.79999999999995</ele>
<time>2023-05-16T13:14:39Z</time>
</trkpt>
<trkpt lat="49.046686962246895" lon="9.232069971039891">
<ele>246</ele>
<time>2023-05-16T13:14:40Z</time>
</trkpt>
<trkpt lat="49.0466729644686" lon="9.232007944956422">
<ele>246</ele>
<time>2023-05-16T13:14:41Z</time>
</trkpt>
<trkpt lat="49.046662990003824" lon="9.231946924701333">
<ele>246.20000000000005</ele>
<time>2023-05-16T13:14:42Z</time>
</trkpt>
<trkpt lat="49.04665192589164" lon="9.231884982436895">
<ele>246.20000000000005</ele>
<time>2023-05-16T13:14:43Z</time>
</trkpt>
<trkpt lat="49.046641951426864" lon="9.231821950525045">
<ele>246.39999999999998</ele>
<time>2023-05-16T13:14:44Z</time>
</trkpt>
<trkpt lat="49.04662795364857" lon="9.231759924441576">
<ele>246.39999999999998</ele>
<time>2023-05-16T13:14:45Z</time>
</trkpt>
<trkpt lat="49.04661797918379" lon="9.231694964691997">
<ele>246.39999999999998</ele>
<time>2023-05-16T13:14:46Z</time>
</trkpt>
<trkpt lat="49.04660792089999" lon="9.231629921123385">
<ele>246.60000000000002</ele>
<time>2023-05-16T13:14:47Z</time>
</trkpt>
<trkpt lat="49.046602975577116" lon="9.231564961373806">
<ele>246.60000000000002</ele>
<time>2023-05-16T13:14:48Z</time>
</trkpt>
<trkpt lat="49.046599958091974" lon="9.231499917805195">
<ele>246.60000000000002</ele>
<time>2023-05-16T13:14:49Z</time>
</trkpt>
<trkpt lat="49.04659794643521" lon="9.231432946398854">
<ele>246.79999999999995</ele>
<time>2023-05-16T13:14:50Z</time>
</trkpt>
<trkpt lat="49.04659794643521" lon="9.231367986649275">
<ele>246.79999999999995</ele>
<time>2023-05-16T13:14:51Z</time>
</trkpt>
<trkpt lat="49.04659694060683" lon="9.231304954737425">
<ele>246.79999999999995</ele>
<time>2023-05-16T13:14:52Z</time>
</trkpt>
<trkpt lat="49.04659694060683" lon="9.231237983331084">
<ele>246.79999999999995</ele>
<time>2023-05-16T13:14:53Z</time>
</trkpt>
<trkpt lat="49.046599958091974" lon="9.231171933934093">
<ele>246.79999999999995</ele>
<time>2023-05-16T13:14:54Z</time>
</trkpt>
<trkpt lat="49.046602975577116" lon="9.231104962527752">
<ele>247</ele>
<time>2023-05-16T13:14:55Z</time>
</trkpt>
<trkpt lat="49.04660792089999" lon="9.23103698529303">
<ele>247</ele>
<time>2023-05-16T13:14:56Z</time>
</trkpt>
<trkpt lat="49.04661194421351" lon="9.230966996401548">
<ele>247.20000000000005</ele>
<time>2023-05-16T13:14:57Z</time>
</trkpt>
<trkpt lat="49.04661496169865" lon="9.230897929519415">
<ele>247.20000000000005</ele>
<time>2023-05-16T13:14:58Z</time>
</trkpt>
<trkpt lat="49.04661697335541" lon="9.230829952284694">
<ele>247.39999999999998</ele>
<time>2023-05-16T13:14:59Z</time>
</trkpt>
<trkpt lat="49.04661797918379" lon="9.230762980878353">
<ele>247.60000000000002</ele>
<time>2023-05-16T13:15:00Z</time>
</trkpt>
<trkpt lat="49.04661697335541" lon="9.23069299198687">
<ele>247.60000000000002</ele>
<time>2023-05-16T13:15:01Z</time>
</trkpt>
<trkpt lat="49.04661295004189" lon="9.230619985610247">
<ele>247.79999999999995</ele>
<time>2023-05-16T13:15:02Z</time>
</trkpt>
<trkpt lat="49.04660993255675" lon="9.230547985062003">
<ele>248</ele>
<time>2023-05-16T13:15:03Z</time>
</trkpt>
<trkpt lat="49.046601969748735" lon="9.23047699034214">
<ele>248.20000000000005</ele>
<time>2023-05-16T13:15:04Z</time>
</trkpt>
<trkpt lat="49.04659199528396" lon="9.230407923460007">
<ele>248.39999999999998</ele>
<time>2023-05-16T13:15:05Z</time>
</trkpt>
<trkpt lat="49.046579925343394" lon="9.230341957882047">
<ele>248.60000000000002</ele>
<time>2023-05-16T13:15:06Z</time>
</trkpt>
<trkpt lat="49.04656693339348" lon="9.230272974818945">
<ele>249</ele>
<time>2023-05-16T13:15:07Z</time>
</trkpt>
<trkpt lat="49.0465519297868" lon="9.230206925421953">
<ele>249.20000000000005</ele>
<time>2023-05-16T13:15:08Z</time>
</trkpt>
<trkpt lat="49.046536926180124" lon="9.230137942358851">
<ele>249.39999999999998</ele>
<time>2023-05-16T13:15:09Z</time>
</trkpt>
<trkpt lat="49.04652192257345" lon="9.230066947638988">
<ele>249.60000000000002</ele>
<time>2023-05-16T13:15:10Z</time>
</trkpt>
<trkpt lat="49.04650792479515" lon="9.229992935433984">
<ele>249.79999999999995</ele>
<time>2023-05-16T13:15:11Z</time>
</trkpt>
<trkpt lat="49.046491999179125" lon="9.22991992905736">
<ele>250.20000000000005</ele>
<time>2023-05-16T13:15:12Z</time>
</trkpt>
<trkpt lat="49.04647498391569" lon="9.229844994843006">
<ele>250.39999999999998</ele>
<time>2023-05-16T13:15:13Z</time>
</trkpt>
<trkpt lat="49.04645796865225" lon="9.229771988466382">
<ele>250.60000000000002</ele>
<time>2023-05-16T13:15:14Z</time>
</trkpt>
<trkpt lat="49.04644195921719" lon="9.229699987918139">
<ele>250.79999999999995</ele>
<time>2023-05-16T13:15:15Z</time>
</trkpt>
<trkpt lat="49.046426955610514" lon="9.229627987369895">
<ele>251</ele>
<time>2023-05-16T13:15:16Z</time>
</trkpt>
<trkpt lat="49.04641295783222" lon="9.229556992650032">
<ele>251.20000000000005</ele>
<time>2023-05-16T13:15:17Z</time>
</trkpt>
<trkpt lat="49.0463999658823" lon="9.229486919939518">
<ele>251.39999999999998</ele>
<time>2023-05-16T13:15:18Z</time>
</trkpt>
<trkpt lat="49.046384962275624" lon="9.229416931048036">
<ele>251.60000000000002</ele>
<time>2023-05-16T13:15:19Z</time>
</trkpt>
<trkpt lat="49.04636995866895" lon="9.229346942156553">
<ele>251.79999999999995</ele>
<time>2023-05-16T13:15:20Z</time>
</trkpt>
<trkpt lat="49.04635294340551" lon="9.229272929951549">
<ele>252</ele>
<time>2023-05-16T13:15:21Z</time>
</trkpt>
<trkpt lat="49.04633793979883" lon="9.229201935231686">
<ele>252.20000000000005</ele>
<time>2023-05-16T13:15:22Z</time>
</trkpt>
<trkpt lat="49.046321930363774" lon="9.229127923026681">
<ele>252.60000000000002</ele>
<time>2023-05-16T13:15:23Z</time>
</trkpt>
<trkpt lat="49.04630793258548" lon="9.229056928306818">
<ele>252.79999999999995</ele>
<time>2023-05-16T13:15:24Z</time>
</trkpt>
<trkpt lat="49.04629494063556" lon="9.228984927758574">
<ele>253</ele>
<time>2023-05-16T13:15:25Z</time>
</trkpt>
<trkpt lat="49.04628295451403" lon="9.228914938867092">
<ele>253.39999999999998</ele>
<time>2023-05-16T13:15:26Z</time>
</trkpt>
<trkpt lat="49.04626795090735" lon="9.22884494997561">
<ele>253.60000000000002</ele>
<time>2023-05-16T13:15:27Z</time>
</trkpt>
<trkpt lat="49.046256970614195" lon="9.228776972740889">
<ele>253.79999999999995</ele>
<time>2023-05-16T13:15:28Z</time>
</trkpt>
<trkpt lat="49.0462429728359" lon="9.228709917515516">
<ele>254.20000000000005</ele>
<time>2023-05-16T13:15:29Z</time>
</trkpt>
<trkpt lat="49.04622796922922" lon="9.228642946109176">
<ele>254.39999999999998</ele>
<time>2023-05-16T13:15:30Z</time>
</trkpt>
<trkpt lat="49.04621698893607" lon="9.228579998016357">
<ele>254.79999999999995</ele>
<time>2023-05-16T13:15:31Z</time>
</trkpt>
<trkpt lat="49.04620693065226" lon="9.228517971932888">
<ele>255</ele>
<time>2023-05-16T13:15:32Z</time>
</trkpt>
<trkpt lat="49.04619796201587" lon="9.228454940021038">
<ele>255.20000000000005</ele>
<time>2023-05-16T13:15:33Z</time>
</trkpt>
<trkpt lat="49.046189999207854" lon="9.22839492559433">
<ele>255.60000000000002</ele>
<time>2023-05-16T13:15:34Z</time>
</trkpt>
<trkpt lat="49.04617792926729" lon="9.228336922824383">
<ele>256</ele>
<time>2023-05-16T13:15:35Z</time>
</trkpt>
<trkpt lat="49.04616493731737" lon="9.228279925882816">
<ele>256.20000000000005</ele>
<time>2023-05-16T13:15:36Z</time>
</trkpt>
<trkpt lat="49.046152951195836" lon="9.228226952254772">
<ele>256.6</ele>
<time>2023-05-16T13:15:37Z</time>
</trkpt>
<trkpt lat="49.04614297673106" lon="9.228172972798347">
<ele>256.79999999999995</ele>
<time>2023-05-16T13:15:38Z</time>
</trkpt>
<trkpt lat="49.04613493010402" lon="9.228116981685162">
<ele>257.20000000000005</ele>
<time>2023-05-16T13:15:39Z</time>
</trkpt>
<trkpt lat="49.04612495563924" lon="9.228064930066466">
<ele>257.6</ele>
<time>2023-05-16T13:15:40Z</time>
</trkpt>
<trkpt lat="49.04611196368933" lon="9.228011956438422">
<ele>257.79999999999995</ele>
<time>2023-05-16T13:15:41Z</time>
</trkpt>
<trkpt lat="49.04609997756779" lon="9.227959988638759">
<ele>258.20000000000005</ele>
<time>2023-05-16T13:15:42Z</time>
</trkpt>
<trkpt lat="49.04608799144626" lon="9.227907937020063">
<ele>258.4</ele>
<time>2023-05-16T13:15:43Z</time>
</trkpt>
<trkpt lat="49.04607499949634" lon="9.22785496339202">
<ele>258.79999999999995</ele>
<time>2023-05-16T13:15:44Z</time>
</trkpt>
<trkpt lat="49.046064941212535" lon="9.227802995592356">
<ele>259</ele>
<time>2023-05-16T13:15:45Z</time>
</trkpt>
<trkpt lat="49.04605496674776" lon="9.227752955630422">
<ele>259.20000000000005</ele>
<time>2023-05-16T13:15:46Z</time>
</trkpt>
<trkpt lat="49.046042980626225" lon="9.22770299948752">
<ele>259.6</ele>
<time>2023-05-16T13:15:47Z</time>
</trkpt>
<trkpt lat="49.04603191651404" lon="9.227652959525585">
<ele>259.79999999999995</ele>
<time>2023-05-16T13:15:48Z</time>
</trkpt>
<trkpt lat="49.046019930392504" lon="9.227601997554302">
<ele>260</ele>
<time>2023-05-16T13:15:49Z</time>
</trkpt>
<trkpt lat="49.04600995592773" lon="9.227551957592368">
<ele>260.4</ele>
<time>2023-05-16T13:15:50Z</time>
</trkpt>
<trkpt lat="49.045997969806194" lon="9.227501917630434">
<ele>260.6</ele>
<time>2023-05-16T13:15:51Z</time>
</trkpt>
<trkpt lat="49.04598296619952" lon="9.22744994983077">
<ele>260.79999999999995</ele>
<time>2023-05-16T13:15:52Z</time>
</trkpt>
<trkpt lat="49.0459699742496" lon="9.227397982031107">
<ele>261</ele>
<time>2023-05-16T13:15:53Z</time>
</trkpt>
<trkpt lat="49.045957988128066" lon="9.227344924584031">
<ele>261.4</ele>
<time>2023-05-16T13:15:54Z</time>
</trkpt>
<trkpt lat="49.04594692401588" lon="9.227294968441129">
<ele>261.6</ele>
<time>2023-05-16T13:15:55Z</time>
</trkpt>
<trkpt lat="49.04593292623758" lon="9.227251969277859">
<ele>261.79999999999995</ele>
<time>2023-05-16T13:15:56Z</time>
</trkpt>
<trkpt lat="49.04592295177281" lon="9.227206958457828">
<ele>262</ele>
<time>2023-05-16T13:15:57Z</time>
</trkpt>
<trkpt lat="49.045917922630906" lon="9.227162953466177">
<ele>262.4</ele>
<time>2023-05-16T13:15:58Z</time>
</trkpt>
<trkpt lat="49.04590995982289" lon="9.227114925161004">
<ele>262.6</ele>
<time>2023-05-16T13:15:59Z</time>
</trkpt>
<trkpt lat="49.04589797370136" lon="9.227069998160005">
<ele>262.79999999999995</ele>
<time>2023-05-16T13:16:00Z</time>
</trkpt>
<trkpt lat="49.045887999236584" lon="9.227026998996735">
<ele>263</ele>
<time>2023-05-16T13:16:01Z</time>
</trkpt>
<trkpt lat="49.04587995260954" lon="9.226981988176703">
<ele>263.4</ele>
<time>2023-05-16T13:16:02Z</time>
</trkpt>
<trkpt lat="49.045871989801526" lon="9.22693295404315">
<ele>263.6</ele>
<time>2023-05-16T13:16:03Z</time>
</trkpt>
<trkpt lat="49.04585799202323" lon="9.226884925737977">
<ele>263.79999999999995</ele>
<time>2023-05-16T13:16:04Z</time>
</trkpt>
<trkpt lat="49.04584298841655" lon="9.226839998736978">
<ele>264</ele>
<time>2023-05-16T13:16:05Z</time>
</trkpt>
<trkpt lat="49.045827984809875" lon="9.226794987916946">
<ele>264.4</ele>
<time>2023-05-16T13:16:06Z</time>
</trkpt>
<trkpt lat="49.04580996371806" lon="9.226754922419786">
<ele>264.6</ele>
<time>2023-05-16T13:16:07Z</time>
</trkpt>
<trkpt lat="49.04579294845462" lon="9.226719969883561">
<ele>264.79999999999995</ele>
<time>2023-05-16T13:16:08Z</time>
</trkpt>
<trkpt lat="49.0457749273628" lon="9.226687951013446">
<ele>265</ele>
<time>2023-05-16T13:16:09Z</time>
</trkpt>
<trkpt lat="49.04575992375612" lon="9.226661967113614">
<ele>265.20000000000005</ele>
<time>2023-05-16T13:16:10Z</time>
</trkpt>
<trkpt lat="49.045742992311716" lon="9.226639922708273">
<ele>265.4</ele>
<time>2023-05-16T13:16:11Z</time>
</trkpt>
<trkpt lat="49.04572698287666" lon="9.226622991263866">
<ele>265.6</ele>
<time>2023-05-16T13:16:12Z</time>
</trkpt>
<trkpt lat="49.04570996761322" lon="9.226606981828809">
<ele>265.6</ele>
<time>2023-05-16T13:16:13Z</time>
</trkpt>
<trkpt lat="49.0456919465214" lon="9.226592984050512">
<ele>265.79999999999995</ele>
<time>2023-05-16T13:16:14Z</time>
</trkpt>
<trkpt lat="49.0456729196012" lon="9.226576974615455">
<ele>265.79999999999995</ele>
<time>2023-05-16T13:16:15Z</time>
</trkpt>
<trkpt lat="49.045654982328415" lon="9.226559959352016">
<ele>265.79999999999995</ele>
<time>2023-05-16T13:16:16Z</time>
</trkpt>
<trkpt lat="49.045636961236596" lon="9.22654495574534">
<ele>265.79999999999995</ele>
<time>2023-05-16T13:16:17Z</time>
</trkpt>
<trkpt lat="49.045616928488016" lon="9.22652693465352">
<ele>265.79999999999995</ele>
<time>2023-05-16T13:16:18Z</time>
</trkpt>
<trkpt lat="49.04559697955847" lon="9.226507991552353">
<ele>265.79999999999995</ele>
<time>2023-05-16T13:16:19Z</time>
</trkpt>
<trkpt lat="49.04557493515313" lon="9.226486952975392">
<ele>265.6</ele>
<time>2023-05-16T13:16:20Z</time>
</trkpt>
<trkpt lat="49.045549957081676" lon="9.226466920226812">
<ele>265.6</ele>
<time>2023-05-16T13:16:21Z</time>
</trkpt>
<trkpt lat="49.045526990666986" lon="9.226442947983742">
<ele>265.6</ele>
<time>2023-05-16T13:16:22Z</time>
</trkpt>
<trkpt lat="49.04549991711974" lon="9.22641796991229">
<ele>265.4</ele>
<time>2023-05-16T13:16:23Z</time>
</trkpt>
<trkpt lat="49.04547192156315" lon="9.226389974355698">
<ele>265.4</ele>
<time>2023-05-16T13:16:24Z</time>
</trkpt>
<trkpt lat="49.045444931834936" lon="9.226359967142344">
<ele>265.20000000000005</ele>
<time>2023-05-16T13:16:25Z</time>
</trkpt>
<trkpt lat="49.04541299678385" lon="9.22632995992899">
<ele>265</ele>
<time>2023-05-16T13:16:26Z</time>
</trkpt>
<trkpt lat="49.04537997208536" lon="9.226299952715635">
<ele>265</ele>
<time>2023-05-16T13:16:27Z</time>
</trkpt>
<trkpt lat="49.0453449357301" lon="9.22626793384552">
<ele>264.79999999999995</ele>
<time>2023-05-16T13:16:28Z</time>
</trkpt>
<trkpt lat="49.04530696570873" lon="9.226232981309295">
<ele>264.6</ele>
<time>2023-05-16T13:16:29Z</time>
</trkpt>
<trkpt lat="49.045267989858985" lon="9.226196939125657">
<ele>264.4</ele>
<time>2023-05-16T13:16:30Z</time>
</trkpt>
<trkpt lat="49.045229936018586" lon="9.22615997493267">
<ele>264.20000000000005</ele>
<time>2023-05-16T13:16:31Z</time>
</trkpt>
<trkpt lat="49.04518995434046" lon="9.226122926920652">
<ele>264</ele>
<time>2023-05-16T13:16:32Z</time>
</trkpt>
<trkpt lat="49.04514997266233" lon="9.226086968556046">
<ele>263.79999999999995</ele>
<time>2023-05-16T13:16:33Z</time>
</trkpt>
<trkpt lat="49.04510697349906" lon="9.226044975221157">
<ele>263.4</ele>
<time>2023-05-16T13:16:34Z</time>
</trkpt>
<trkpt lat="49.04506296850741" lon="9.226002981886268">
<ele>263.20000000000005</ele>
<time>2023-05-16T13:16:35Z</time>
</trkpt>
<trkpt lat="49.0450219810009" lon="9.225956965237856">
<ele>262.79999999999995</ele>
<time>2023-05-16T13:16:36Z</time>
</trkpt>
<trkpt lat="49.04497797600925" lon="9.225911954417825">
<ele>262.4</ele>
<time>2023-05-16T13:16:37Z</time>
</trkpt>
<trkpt lat="49.04493296518922" lon="9.225861998274922">
<ele>262.20000000000005</ele>
<time>2023-05-16T13:16:38Z</time>
</trkpt>
<trkpt lat="49.044884936884046" lon="9.225811958312988">
<ele>261.79999999999995</ele>
<time>2023-05-16T13:16:39Z</time>
</trkpt>
<trkpt lat="49.04483296908438" lon="9.225764935836196">
<ele>261.6</ele>
<time>2023-05-16T13:16:40Z</time>
</trkpt>
<trkpt lat="49.04478494077921" lon="9.225719925016165">
<ele>261.20000000000005</ele>
<time>2023-05-16T13:16:41Z</time>
</trkpt>
<trkpt lat="49.04473791830242" lon="9.225669968873262">
<ele>261</ele>
<time>2023-05-16T13:16:42Z</time>
</trkpt>
<trkpt lat="49.04469198547304" lon="9.22562294639647">
<ele>260.6</ele>
<time>2023-05-16T13:16:43Z</time>
</trkpt>
<trkpt lat="49.044644962996244" lon="9.225576929748058">
<ele>260.4</ele>
<time>2023-05-16T13:16:44Z</time>
</trkpt>
<trkpt lat="49.04459693469107" lon="9.225527979433537">
<ele>260</ele>
<time>2023-05-16T13:16:45Z</time>
</trkpt>
<trkpt lat="49.04454798437655" lon="9.225479951128364">
<ele>259.6</ele>
<time>2023-05-16T13:16:46Z</time>
</trkpt>
<trkpt lat="49.044497944414616" lon="9.2254279833287">
<ele>259</ele>
<time>2023-05-16T13:16:47Z</time>
</trkpt>
<trkpt lat="49.04444295912981" lon="9.225374925881624">
<ele>258.6</ele>
<time>2023-05-16T13:16:48Z</time>
</trkpt>
<trkpt lat="49.04438495635986" lon="9.225317928940058">
<ele>258</ele>
<time>2023-05-16T13:16:49Z</time>
</trkpt>
<trkpt lat="49.044324941933155" lon="9.225257998332381">
<ele>257.4</ele>
<time>2023-05-16T13:16:50Z</time>
</trkpt>
<trkpt lat="49.04426199384034" lon="9.225197983905673">
<ele>257</ele>
<time>2023-05-16T13:16:51Z</time>
</trkpt>
<trkpt lat="49.044196950271726" lon="9.225134951993823">
<ele>256.4</ele>
<time>2023-05-16T13:16:52Z</time>
</trkpt>
<trkpt lat="49.044131990522146" lon="9.225072925910354">
<ele>255.60000000000002</ele>
<time>2023-05-16T13:16:53Z</time>
</trkpt>
<trkpt lat="49.044067952781916" lon="9.225009977817535">
<ele>255</ele>
<time>2023-05-16T13:16:54Z</time>
</trkpt>
<trkpt lat="49.044004920870066" lon="9.224949963390827">
<ele>254.20000000000005</ele>
<time>2023-05-16T13:16:55Z</time>
</trkpt>
<trkpt lat="49.04394197277725" lon="9.224886931478977">
<ele>253.39999999999998</ele>
<time>2023-05-16T13:16:56Z</time>
</trkpt>
<trkpt lat="49.04387793503702" lon="9.224822977557778">
<ele>252.79999999999995</ele>
<time>2023-05-16T13:16:57Z</time>
</trkpt>
<trkpt lat="49.043809957802296" lon="9.224757933989167">
<ele>252</ele>
<time>2023-05-16T13:16:58Z</time>
</trkpt>
<trkpt lat="49.043742986395955" lon="9.224691968411207">
<ele>251.20000000000005</ele>
<time>2023-05-16T13:16:59Z</time>
</trkpt>
<trkpt lat="49.0436749253422" lon="9.224626924842596">
<ele>250.39999999999998</ele>
<time>2023-05-16T13:17:00Z</time>
</trkpt>
<trkpt lat="49.04360996559262" lon="9.224562970921397">
<ele>249.39999999999998</ele>
<time>2023-05-16T13:17:01Z</time>
</trkpt>
<trkpt lat="49.04354693368077" lon="9.22450496815145">
<ele>248.60000000000002</ele>
<time>2023-05-16T13:17:02Z</time>
</trkpt>
<trkpt lat="49.043486919254065" lon="9.224447971209884">
<ele>247.60000000000002</ele>
<time>2023-05-16T13:17:03Z</time>
</trkpt>
<trkpt lat="49.0434299223125" lon="9.22439499758184">
<ele>246.79999999999995</ele>
<time>2023-05-16T13:17:04Z</time>
</trkpt>
<trkpt lat="49.04337493702769" lon="9.224342945963144">
<ele>246</ele>
<time>2023-05-16T13:17:05Z</time>
</trkpt>
<trkpt lat="49.043317940086126" lon="9.2242899723351">
<ele>245.20000000000005</ele>
<time>2023-05-16T13:17:06Z</time>
</trkpt>
<trkpt lat="49.04326194897294" lon="9.224236998707056">
<ele>244.39999999999998</ele>
<time>2023-05-16T13:17:07Z</time>
</trkpt>
<trkpt lat="49.043206963688135" lon="9.224181929603219">
<ele>243.39999999999998</ele>
<time>2023-05-16T13:17:08Z</time>
</trkpt>
<trkpt lat="49.04314996674657" lon="9.224129961803555">
<ele>242.60000000000002</ele>
<time>2023-05-16T13:17:09Z</time>
</trkpt>
<trkpt lat="49.043096993118525" lon="9.224077994003892">
<ele>241.60000000000002</ele>
<time>2023-05-16T13:17:10Z</time>
</trkpt>
<trkpt lat="49.04304292984307" lon="9.22403197735548">
<ele>240.79999999999995</ele>
<time>2023-05-16T13:17:11Z</time>
</trkpt>
<trkpt lat="49.042991967871785" lon="9.223984954878688">
<ele>240</ele>
<time>2023-05-16T13:17:12Z</time>
</trkpt>
<trkpt lat="49.04294293373823" lon="9.223939944058657">
<ele>239.20000000000005</ele>
<time>2023-05-16T13:17:13Z</time>
</trkpt>
<trkpt lat="49.04289498925209" lon="9.223892921581864">
<ele>238.60000000000002</ele>
<time>2023-05-16T13:17:14Z</time>
</trkpt>
<trkpt lat="49.04284997843206" lon="9.223847994580865">
<ele>237.79999999999995</ele>
<time>2023-05-16T13:17:15Z</time>
</trkpt>
<trkpt lat="49.04280697926879" lon="9.223806923255324">
<ele>237.20000000000005</ele>
<time>2023-05-16T13:17:16Z</time>
</trkpt>
<trkpt lat="49.04276699759066" lon="9.223766941577196">
<ele>236.60000000000002</ele>
<time>2023-05-16T13:17:17Z</time>
</trkpt>
<trkpt lat="49.042732967063785" lon="9.223717991262674">
<ele>236.20000000000005</ele>
<time>2023-05-16T13:17:18Z</time>
</trkpt>
<trkpt lat="49.04271695762873" lon="9.223661916330457">
<ele>235.60000000000002</ele>
<time>2023-05-16T13:17:19Z</time>
</trkpt>
<trkpt lat="49.042714945971966" lon="9.22360491938889">
<ele>235.39999999999998</ele>
<time>2023-05-16T13:17:20Z</time>
</trkpt>
<trkpt lat="49.04272793792188" lon="9.22355798073113">
<ele>235</ele>
<time>2023-05-16T13:17:21Z</time>
</trkpt>
<trkpt lat="49.04274294152856" lon="9.223522944375873">
<ele>234.60000000000002</ele>
<time>2023-05-16T13:17:22Z</time>
</trkpt>
<trkpt lat="49.042752999812365" lon="9.223489919677377">
<ele>234.39999999999998</ele>
<time>2023-05-16T13:17:23Z</time>
</trkpt>
<trkpt lat="49.04276196844876" lon="9.223457984626293">
<ele>234.20000000000005</ele>
<time>2023-05-16T13:17:24Z</time>
</trkpt>
<trkpt lat="49.04277294874191" lon="9.2234299890697">
<ele>234</ele>
<time>2023-05-16T13:17:25Z</time>
</trkpt>
<trkpt lat="49.04278292320669" lon="9.223401993513107">
<ele>233.79999999999995</ele>
<time>2023-05-16T13:17:26Z</time>
</trkpt>
<trkpt lat="49.042794993147254" lon="9.223369974642992">
<ele>233.60000000000002</ele>
<time>2023-05-16T13:17:27Z</time>
</trkpt>
<trkpt lat="49.04280496761203" lon="9.223339967429638">
<ele>233.60000000000002</ele>
<time>2023-05-16T13:17:28Z</time>
</trkpt>
<trkpt lat="49.04281695373356" lon="9.223307948559523">
<ele>233.39999999999998</ele>
<time>2023-05-16T13:17:29Z</time>
</trkpt>
<trkpt lat="49.04282692819834" lon="9.22327995300293">
<ele>233.20000000000005</ele>
<time>2023-05-16T13:17:30Z</time>
</trkpt>
<trkpt lat="49.04283497482538" lon="9.223251957446337">
<ele>233.20000000000005</ele>
<time>2023-05-16T13:17:31Z</time>
</trkpt>
<trkpt lat="49.042841931805015" lon="9.223227985203266">
<ele>233</ele>
<time>2023-05-16T13:17:32Z</time>
</trkpt>
<trkpt lat="49.042844949290156" lon="9.223209964111447">
<ele>233</ele>
<time>2023-05-16T13:17:33Z</time>
</trkpt>
<trkpt lat="49.04284696094692" lon="9.223202923312783">
<ele>233</ele>
<time>2023-05-16T13:17:34Z</time>
</trkpt>
<trkpt lat="49.0428479667753" lon="9.223201917484403">
<ele>232.79999999999995</ele>
<time>2023-05-16T13:17:35Z</time>
</trkpt>
<trkpt lat="49.0428479667753" lon="9.223199989646673">
<ele>232.79999999999995</ele>
<time>2023-05-16T13:17:36Z</time>
</trkpt>
<trkpt lat="49.04284997843206" lon="9.223232930526137">
<ele>232.60000000000002</ele>
<time>2023-05-16T13:17:36Z</time>
</trkpt>
<trkpt lat="49.04284696094692" lon="9.223249945789576">
<ele>232.60000000000002</ele>
<time>2023-05-16T13:17:37Z</time>
</trkpt>
<trkpt lat="49.042837992310524" lon="9.223264949396253">
<ele>232.60000000000002</ele>
<time>2023-05-16T13:17:38Z</time>
</trkpt>
<trkpt lat="49.04283195734024" lon="9.223282970488071">
<ele>232.60000000000002</ele>
<time>2023-05-16T13:17:39Z</time>
</trkpt>
<trkpt lat="49.04282298870385" lon="9.22330291941762">
<ele>232.60000000000002</ele>
<time>2023-05-16T13:17:40Z</time>
</trkpt>
<trkpt lat="49.04281695373356" lon="9.22332496382296">
<ele>232.60000000000002</ele>
<time>2023-05-16T13:17:41Z</time>
</trkpt>
<trkpt lat="49.04280697926879" lon="9.22334298491478">
<ele>232.60000000000002</ele>
<time>2023-05-16T13:17:42Z</time>
</trkpt>
<trkpt lat="49.042797926813364" lon="9.223359916359186">
<ele>232.60000000000002</ele>
<time>2023-05-16T13:17:43Z</time>
</trkpt>
<trkpt lat="49.04278996400535" lon="9.223381960764527">
<ele>232.60000000000002</ele>
<time>2023-05-16T13:17:44Z</time>
</trkpt>
<trkpt lat="49.042781917378306" lon="9.223399981856346">
<ele>232.60000000000002</ele>
<time>2023-05-16T13:17:45Z</time>
</trkpt>
<trkpt lat="49.04277294874191" lon="9.223416997119784">
<ele>232.60000000000002</ele>
<time>2023-05-16T13:17:46Z</time>
</trkpt>
<trkpt lat="49.04276297427714" lon="9.223436946049333">
<ele>232.60000000000002</ele>
<time>2023-05-16T13:17:47Z</time>
</trkpt>
<trkpt lat="49.042757945135236" lon="9.223456978797913">
<ele>232.79999999999995</ele>
<time>2023-05-16T13:17:48Z</time>
</trkpt>
<trkpt lat="49.042751993983984" lon="9.22347692772746">
<ele>232.79999999999995</ele>
<time>2023-05-16T13:17:49Z</time>
</trkpt>
<trkpt lat="49.04274495318532" lon="9.22349494881928">
<ele>232.79999999999995</ele>
<time>2023-05-16T13:17:50Z</time>
</trkpt>
<trkpt lat="49.04273992404342" lon="9.22351498156786">
<ele>232.79999999999995</ele>
<time>2023-05-16T13:17:51Z</time>
</trkpt>
<trkpt lat="49.042731961235404" lon="9.223529985174537">
<ele>232.79999999999995</ele>
<time>2023-05-16T13:17:52Z</time>
</trkpt>
<trkpt lat="49.04272299259901" lon="9.223546916618943">
<ele>232.79999999999995</ele>
<time>2023-05-16T13:17:53Z</time>
</trkpt>
<trkpt lat="49.042714945971966" lon="9.223562926054">
<ele>232.79999999999995</ele>
<time>2023-05-16T13:17:54Z</time>
</trkpt>
<trkpt lat="49.04270698316395" lon="9.223577929660678">
<ele>232.79999999999995</ele>
<time>2023-05-16T13:17:55Z</time>
</trkpt>
<trkpt lat="49.04269994236529" lon="9.223592933267355">
<ele>232.79999999999995</ele>
<time>2023-05-16T13:17:56Z</time>
</trkpt>
<trkpt lat="49.042692985385656" lon="9.223606931045651">
<ele>232.79999999999995</ele>
<time>2023-05-16T13:17:57Z</time>
</trkpt>
<trkpt lat="49.04268695041537" lon="9.223621934652328">
<ele>232.79999999999995</ele>
<time>2023-05-16T13:17:58Z</time>
</trkpt>
<trkpt lat="49.04268292710185" lon="9.223631992936134">
<ele>232.79999999999995</ele>
<time>2023-05-16T13:17:59Z</time>
</trkpt>
<trkpt lat="49.04268493875861" lon="9.223637944087386">
<ele>232.79999999999995</ele>
<time>2023-05-16T13:18:00Z</time>
</trkpt>
<trkpt lat="49.04268695041537" lon="9.223646996542811">
<ele>232.79999999999995</ele>
<time>2023-05-16T13:18:01Z</time>
</trkpt>
<trkpt lat="49.04274696484208" lon="9.22370994463563">
<ele>233</ele>
<time>2023-05-16T13:18:01Z</time>
</trkpt>
<trkpt lat="49.0427649859339" lon="9.22372997738421">
<ele>233</ele>
<time>2023-05-16T13:18:02Z</time>
</trkpt>
<trkpt lat="49.04278292320669" lon="9.223747998476028">
<ele>233</ele>
<time>2023-05-16T13:18:03Z</time>
</trkpt>
<trkpt lat="49.04280295595527" lon="9.223767947405577">
<ele>233</ele>
<time>2023-05-16T13:18:04Z</time>
</trkpt>
<trkpt lat="49.04282298870385" lon="9.223791919648647">
<ele>233</ele>
<time>2023-05-16T13:18:05Z</time>
</trkpt>
<trkpt lat="49.042841931805015" lon="9.223811952397227">
<ele>233</ele>
<time>2023-05-16T13:18:06Z</time>
</trkpt>
<trkpt lat="49.042861964553595" lon="9.223831985145807">
<ele>233.20000000000005</ele>
<time>2023-05-16T13:18:07Z</time>
</trkpt>
<trkpt lat="49.04288291931152" lon="9.223852939903736">
<ele>233.20000000000005</ele>
<time>2023-05-16T13:18:08Z</time>
</trkpt>
<trkpt lat="49.042907981202006" lon="9.223876995965838">
<ele>233.39999999999998</ele>
<time>2023-05-16T13:18:09Z</time>
</trkpt>
<trkpt lat="49.042929941788316" lon="9.223896944895387">
<ele>233.39999999999998</ele>
<time>2023-05-16T13:18:10Z</time>
</trkpt>
<trkpt lat="49.04295299202204" lon="9.223919995129108">
<ele>233.60000000000002</ele>
<time>2023-05-16T13:18:11Z</time>
</trkpt>
<trkpt lat="49.04297696426511" lon="9.223942961543798">
<ele>233.79999999999995</ele>
<time>2023-05-16T13:18:12Z</time>
</trkpt>
<trkpt lat="49.0429999306798" lon="9.223966933786869">
<ele>234.20000000000005</ele>
<time>2023-05-16T13:18:13Z</time>
</trkpt>
<trkpt lat="49.04302499257028" lon="9.223991995677352">
<ele>234.39999999999998</ele>
<time>2023-05-16T13:18:14Z</time>
</trkpt>
<trkpt lat="49.04304997064173" lon="9.224016973748803">
<ele>234.60000000000002</ele>
<time>2023-05-16T13:18:15Z</time>
</trkpt>
<trkpt lat="49.04307293705642" lon="9.224042957648635">
<ele>235</ele>
<time>2023-05-16T13:18:16Z</time>
</trkpt>
<trkpt lat="49.043097998946905" lon="9.224069947376847">
<ele>235.20000000000005</ele>
<time>2023-05-16T13:18:17Z</time>
</trkpt>
<trkpt lat="49.043121971189976" lon="9.224094925448298">
<ele>235.39999999999998</ele>
<time>2023-05-16T13:18:18Z</time>
</trkpt>
<trkpt lat="49.043144937604666" lon="9.224119987338781">
<ele>235.79999999999995</ele>
<time>2023-05-16T13:18:19Z</time>
</trkpt>
<trkpt lat="49.04316798783839" lon="9.224144965410233">
<ele>236</ele>
<time>2023-05-16T13:18:20Z</time>
</trkpt>
<trkpt lat="49.04319196008146" lon="9.224167931824923">
<ele>236.39999999999998</ele>
<time>2023-05-16T13:18:21Z</time>
</trkpt>
<trkpt lat="49.04321299865842" lon="9.224191987887025">
<ele>236.60000000000002</ele>
<time>2023-05-16T13:18:22Z</time>
</trkpt>
<trkpt lat="49.04323697090149" lon="9.224214954301715">
<ele>237</ele>
<time>2023-05-16T13:18:23Z</time>
</trkpt>
<trkpt lat="49.04326194897294" lon="9.224239932373166">
<ele>237.20000000000005</ele>
<time>2023-05-16T13:18:24Z</time>
</trkpt>
<trkpt lat="49.04328499920666" lon="9.224264994263649">
<ele>237.60000000000002</ele>
<time>2023-05-16T13:18:25Z</time>
</trkpt>
<trkpt lat="49.04330997727811" lon="9.2242899723351">
<ele>238</ele>
<time>2023-05-16T13:18:26Z</time>
</trkpt>
<trkpt lat="49.043334955349565" lon="9.224316962063313">
<ele>238.39999999999998</ele>
<time>2023-05-16T13:18:27Z</time>
</trkpt>
<trkpt lat="49.043359933421016" lon="9.224339928478003">
<ele>238.79999999999995</ele>
<time>2023-05-16T13:18:28Z</time>
</trkpt>
<trkpt lat="49.0433849953115" lon="9.224362978711724">
<ele>239.20000000000005</ele>
<time>2023-05-16T13:18:29Z</time>
</trkpt>
<trkpt lat="49.04340796172619" lon="9.224384939298034">
<ele>239.39999999999998</ele>
<time>2023-05-16T13:18:30Z</time>
</trkpt>
<trkpt lat="49.04343293979764" lon="9.224407989531755">
<ele>239.79999999999995</ele>
<time>2023-05-16T13:18:31Z</time>
</trkpt>
<trkpt lat="49.04345791786909" lon="9.224429950118065">
<ele>240.20000000000005</ele>
<time>2023-05-16T13:18:32Z</time>
</trkpt>
<trkpt lat="49.043482979759574" lon="9.224451994523406">
<ele>240.60000000000002</ele>
<time>2023-05-16T13:18:33Z</time>
</trkpt>
<trkpt lat="49.04350494034588" lon="9.224472949281335">
<ele>241</ele>
<time>2023-05-16T13:18:34Z</time>
</trkpt>
<trkpt lat="49.043527990579605" lon="9.224494993686676">
<ele>241.39999999999998</ele>
<time>2023-05-16T13:18:35Z</time>
</trkpt>
<trkpt lat="49.04354793950915" lon="9.224512930959463">
<ele>241.79999999999995</ele>
<time>2023-05-16T13:18:36Z</time>
</trkpt>
<trkpt lat="49.043569983914495" lon="9.224536987021565">
<ele>242</ele>
<time>2023-05-16T13:18:37Z</time>
</trkpt>
<trkpt lat="49.043591944500804" lon="9.224554924294353">
<ele>242.39999999999998</ele>
<time>2023-05-16T13:18:38Z</time>
</trkpt>
<trkpt lat="49.043612983077765" lon="9.224572945386171">
<ele>242.79999999999995</ele>
<time>2023-05-16T13:18:39Z</time>
</trkpt>
<trkpt lat="49.043634943664074" lon="9.22459197230637">
<ele>243</ele>
<time>2023-05-16T13:18:40Z</time>
</trkpt>
<trkpt lat="49.043656988069415" lon="9.224611921235919">
<ele>243.39999999999998</ele>
<time>2023-05-16T13:18:41Z</time>
</trkpt>
<trkpt lat="49.04367693699896" lon="9.224629942327738">
<ele>243.60000000000002</ele>
<time>2023-05-16T13:18:42Z</time>
</trkpt>
<trkpt lat="49.043697975575924" lon="9.224649975076318">
<ele>244</ele>
<time>2023-05-16T13:18:43Z</time>
</trkpt>
<trkpt lat="49.04371792450547" lon="9.224669924005866">
<ele>244.20000000000005</ele>
<time>2023-05-16T13:18:44Z</time>
</trkpt>
<trkpt lat="49.04373795725405" lon="9.224687945097685">
<ele>244.60000000000002</ele>
<time>2023-05-16T13:18:45Z</time>
</trkpt>
<trkpt lat="49.04375698417425" lon="9.224706972017884">
<ele>244.79999999999995</ele>
<time>2023-05-16T13:18:46Z</time>
</trkpt>
<trkpt lat="49.04377492144704" lon="9.224724993109703">
<ele>245.20000000000005</ele>
<time>2023-05-16T13:18:47Z</time>
</trkpt>
<trkpt lat="49.04379495419562" lon="9.22474192455411">
<ele>245.39999999999998</ele>
<time>2023-05-16T13:18:48Z</time>
</trkpt>
<trkpt lat="49.04381699860096" lon="9.224759945645928">
<ele>245.60000000000002</ele>
<time>2023-05-16T13:18:49Z</time>
</trkpt>
<trkpt lat="49.04383694753051" lon="9.224779978394508">
<ele>246</ele>
<time>2023-05-16T13:18:50Z</time>
</trkpt>
<trkpt lat="49.04385496862233" lon="9.224799927324057">
<ele>246.20000000000005</ele>
<time>2023-05-16T13:18:51Z</time>
</trkpt>
<trkpt lat="49.043874917551875" lon="9.224819960072637">
<ele>246.39999999999998</ele>
<time>2023-05-16T13:18:52Z</time>
</trkpt>
<trkpt lat="49.043894950300455" lon="9.224837981164455">
<ele>246.79999999999995</ele>
<time>2023-05-16T13:18:53Z</time>
</trkpt>
<trkpt lat="49.043912971392274" lon="9.224856924265623">
<ele>247.20000000000005</ele>
<time>2023-05-16T13:18:54Z</time>
</trkpt>
<trkpt lat="49.04393199831247" lon="9.22487293370068">
<ele>247.39999999999998</ele>
<time>2023-05-16T13:18:55Z</time>
</trkpt>
<trkpt lat="49.04394993558526" lon="9.22489296644926">
<ele>247.60000000000002</ele>
<time>2023-05-16T13:18:56Z</time>
</trkpt>
<trkpt lat="49.0439669508487" lon="9.224916938692331">
<ele>248</ele>
<time>2023-05-16T13:18:57Z</time>
</trkpt>
<trkpt lat="49.04398698359728" lon="9.224936971440911">
<ele>248.20000000000005</ele>
<time>2023-05-16T13:18:58Z</time>
</trkpt>
<trkpt lat="49.04400693252683" lon="9.22495499253273">
<ele>248.60000000000002</ele>
<time>2023-05-16T13:18:59Z</time>
</trkpt>
<trkpt lat="49.04402797110379" lon="9.224971923977137">
<ele>248.79999999999995</ele>
<time>2023-05-16T13:19:00Z</time>
</trkpt>
<trkpt lat="49.0440499316901" lon="9.224987933412194">
<ele>249</ele>
<time>2023-05-16T13:19:01Z</time>
</trkpt>
<trkpt lat="49.04406996443868" lon="9.225004948675632">
<ele>249.39999999999998</ele>
<time>2023-05-16T13:19:02Z</time>
</trkpt>
<trkpt lat="49.04408999718726" lon="9.22502196393907">
<ele>249.60000000000002</ele>
<time>2023-05-16T13:19:03Z</time>
</trkpt>
<trkpt lat="49.044109946116805" lon="9.225042918697">
<ele>250</ele>
<time>2023-05-16T13:19:04Z</time>
</trkpt>
<trkpt lat="49.044129978865385" lon="9.225061945617199">
<ele>250.20000000000005</ele>
<time>2023-05-16T13:19:05Z</time>
</trkpt>
<trkpt lat="49.044147999957204" lon="9.225079966709018">
<ele>250.60000000000002</ele>
<time>2023-05-16T13:19:06Z</time>
</trkpt>
<trkpt lat="49.04416794888675" lon="9.225097987800837">
<ele>250.79999999999995</ele>
<time>2023-05-16T13:19:07Z</time>
</trkpt>
<trkpt lat="49.04418697580695" lon="9.225114919245243">
<ele>251.20000000000005</ele>
<time>2023-05-16T13:19:08Z</time>
</trkpt>
<trkpt lat="49.04420499689877" lon="9.22512992285192">
<ele>251.39999999999998</ele>
<time>2023-05-16T13:19:09Z</time>
</trkpt>
<trkpt lat="49.04422293417156" lon="9.225144926458597">
<ele>251.79999999999995</ele>
<time>2023-05-16T13:19:10Z</time>
</trkpt>
<trkpt lat="49.04424296692014" lon="9.225162947550416">
<ele>252</ele>
<time>2023-05-16T13:19:11Z</time>
</trkpt>
<trkpt lat="49.04426299966872" lon="9.225182980298996">
<ele>252.20000000000005</ele>
<time>2023-05-16T13:19:12Z</time>
</trkpt>
<trkpt lat="49.044282948598266" lon="9.225204940885305">
<ele>252.60000000000002</ele>
<time>2023-05-16T13:19:13Z</time>
</trkpt>
<trkpt lat="49.044302981346846" lon="9.225222961977124">
<ele>252.79999999999995</ele>
<time>2023-05-16T13:19:14Z</time>
</trkpt>
<trkpt lat="49.04432192444801" lon="9.225242994725704">
<ele>253</ele>
<time>2023-05-16T13:19:15Z</time>
</trkpt>
<trkpt lat="49.04433994553983" lon="9.225257998332381">
<ele>253.20000000000005</ele>
<time>2023-05-16T13:19:16Z</time>
</trkpt>
<trkpt lat="49.04435997828841" lon="9.225274929776788">
<ele>253.39999999999998</ele>
<time>2023-05-16T13:19:17Z</time>
</trkpt>
<trkpt lat="49.04437992721796" lon="9.225289933383465">
<ele>253.79999999999995</ele>
<time>2023-05-16T13:19:18Z</time>
</trkpt>
<trkpt lat="49.04439794830978" lon="9.225309966132045">
<ele>254</ele>
<time>2023-05-16T13:19:19Z</time>
</trkpt>
<trkpt lat="49.04441798105836" lon="9.225329998880625">
<ele>254.20000000000005</ele>
<time>2023-05-16T13:19:20Z</time>
</trkpt>
<trkpt lat="49.04443692415953" lon="9.225347936153412">
<ele>254.39999999999998</ele>
<time>2023-05-16T13:19:21Z</time>
</trkpt>
<trkpt lat="49.04445796273649" lon="9.22536495141685">
<ele>254.60000000000002</ele>
<time>2023-05-16T13:19:22Z</time>
</trkpt>
<trkpt lat="49.04447698965669" lon="9.225381966680288">
<ele>254.79999999999995</ele>
<time>2023-05-16T13:19:23Z</time>
</trkpt>
<trkpt lat="49.044496938586235" lon="9.225397976115346">
<ele>255.20000000000005</ele>
<time>2023-05-16T13:19:24Z</time>
</trkpt>
<trkpt lat="49.044514959678054" lon="9.225416919216514">
<ele>255.39999999999998</ele>
<time>2023-05-16T13:19:25Z</time>
</trkpt>
<trkpt lat="49.04453298076987" lon="9.225434940308332">
<ele>255.60000000000002</ele>
<time>2023-05-16T13:19:26Z</time>
</trkpt>
<trkpt lat="49.04455292969942" lon="9.225452961400151">
<ele>255.79999999999995</ele>
<time>2023-05-16T13:19:27Z</time>
</trkpt>
<trkpt lat="49.04457195661962" lon="9.22546997666359">
<ele>256</ele>
<time>2023-05-16T13:19:28Z</time>
</trkpt>
<trkpt lat="49.0445919893682" lon="9.225487997755408">
<ele>256.4</ele>
<time>2023-05-16T13:19:29Z</time>
</trkpt>
<trkpt lat="49.04460992664099" lon="9.225506940856576">
<ele>256.4</ele>
<time>2023-05-16T13:19:30Z</time>
</trkpt>
<trkpt lat="49.04462995938957" lon="9.225526973605156">
<ele>256.6</ele>
<time>2023-05-16T13:19:31Z</time>
</trkpt>
<trkpt lat="49.04464999213815" lon="9.225544994696975">
<ele>256.79999999999995</ele>
<time>2023-05-16T13:19:32Z</time>
</trkpt>
<trkpt lat="49.044669941067696" lon="9.225566955283284">
<ele>257</ele>
<time>2023-05-16T13:19:33Z</time>
</trkpt>
<trkpt lat="49.044689973816276" lon="9.225586988031864">
<ele>257.20000000000005</ele>
<time>2023-05-16T13:19:34Z</time>
</trkpt>
<trkpt lat="49.044709922745824" lon="9.225606936961412">
<ele>257.4</ele>
<time>2023-05-16T13:19:35Z</time>
</trkpt>
<trkpt lat="49.04472794383764" lon="9.225627975538373">
<ele>257.6</ele>
<time>2023-05-16T13:19:36Z</time>
</trkpt>
<trkpt lat="49.044749988242984" lon="9.225647924467921">
<ele>257.79999999999995</ele>
<time>2023-05-16T13:19:37Z</time>
</trkpt>
<trkpt lat="49.04477194882929" lon="9.225671980530024">
<ele>258</ele>
<time>2023-05-16T13:19:38Z</time>
</trkpt>
<trkpt lat="49.044794999063015" lon="9.225694946944714">
<ele>258</ele>
<time>2023-05-16T13:19:39Z</time>
</trkpt>
<trkpt lat="49.044817965477705" lon="9.225716991350055">
<ele>258.20000000000005</ele>
<time>2023-05-16T13:19:40Z</time>
</trkpt>
<trkpt lat="49.044841937720776" lon="9.225736940279603">
<ele>258.4</ele>
<time>2023-05-16T13:19:41Z</time>
</trkpt>
<trkpt lat="49.0448649879545" lon="9.225756973028183">
<ele>258.6</ele>
<time>2023-05-16T13:19:42Z</time>
</trkpt>
<trkpt lat="49.04488694854081" lon="9.225776921957731">
<ele>258.79999999999995</ele>
<time>2023-05-16T13:19:43Z</time>
</trkpt>
<trkpt lat="49.04490698128939" lon="9.225796954706311">
<ele>259</ele>
<time>2023-05-16T13:19:44Z</time>
</trkpt>
<trkpt lat="49.044927936047316" lon="9.225817993283272">
<ele>259</ele>
<time>2023-05-16T13:19:45Z</time>
</trkpt>
<trkpt lat="49.04494998045266" lon="9.22583794221282">
<ele>259.20000000000005</ele>
<time>2023-05-16T13:19:46Z</time>
</trkpt>
<trkpt lat="49.044969929382205" lon="9.225861998274922">
<ele>259.4</ele>
<time>2023-05-16T13:19:47Z</time>
</trkpt>
<trkpt lat="49.044989962130785" lon="9.225882953032851">
<ele>259.6</ele>
<time>2023-05-16T13:19:48Z</time>
</trkpt>
<trkpt lat="49.045012928545475" lon="9.225904997438192">
<ele>259.6</ele>
<time>2023-05-16T13:19:49Z</time>
</trkpt>
<trkpt lat="49.045034972950816" lon="9.22592494636774">
<ele>259.79999999999995</ele>
<time>2023-05-16T13:19:50Z</time>
</trkpt>
<trkpt lat="49.045054921880364" lon="9.22594296745956">
<ele>260</ele>
<time>2023-05-16T13:19:51Z</time>
</trkpt>
<trkpt lat="49.045076966285706" lon="9.225962916389108">
<ele>260.20000000000005</ele>
<time>2023-05-16T13:19:52Z</time>
</trkpt>
<trkpt lat="49.045097921043634" lon="9.225982949137688">
<ele>260.4</ele>
<time>2023-05-16T13:19:53Z</time>
</trkpt>
<trkpt lat="49.045117953792214" lon="9.226004993543029">
<ele>260.6</ele>
<time>2023-05-16T13:19:54Z</time>
</trkpt>
<trkpt lat="49.045139998197556" lon="9.226024942472577">
<ele>260.79999999999995</ele>
<time>2023-05-16T13:19:55Z</time>
</trkpt>
<trkpt lat="49.045159947127104" lon="9.226046986877918">
<ele>261</ele>
<time>2023-05-16T13:19:56Z</time>
</trkpt>
<trkpt lat="49.045179979875684" lon="9.226069953292608">
<ele>261.20000000000005</ele>
<time>2023-05-16T13:19:57Z</time>
</trkpt>
<trkpt lat="49.04520194046199" lon="9.226089986041188">
<ele>261.4</ele>
<time>2023-05-16T13:19:58Z</time>
</trkpt>
<trkpt lat="49.045222979038954" lon="9.226109934970737">
<ele>261.6</ele>
<time>2023-05-16T13:19:59Z</time>
</trkpt>
<trkpt lat="49.04524493962526" lon="9.226129967719316">
<ele>261.79999999999995</ele>
<time>2023-05-16T13:20:00Z</time>
</trkpt>
<trkpt lat="49.045266984030604" lon="9.226152934134007">
<ele>262</ele>
<time>2023-05-16T13:20:01Z</time>
</trkpt>
<trkpt lat="49.04528793878853" lon="9.226176990196109">
<ele>262.20000000000005</ele>
<time>2023-05-16T13:20:02Z</time>
</trkpt>
<trkpt lat="49.045309983193874" lon="9.226197944954038">
<ele>262.4</ele>
<time>2023-05-16T13:20:03Z</time>
</trkpt>
<trkpt lat="49.045331943780184" lon="9.226216971874237">
<ele>262.6</ele>
<time>2023-05-16T13:20:04Z</time>
</trkpt>
<trkpt lat="49.045352982357144" lon="9.226234992966056">
<ele>262.79999999999995</ele>
<time>2023-05-16T13:20:05Z</time>
</trkpt>
<trkpt lat="49.04537293128669" lon="9.226254941895604">
<ele>263</ele>
<time>2023-05-16T13:20:06Z</time>
</trkpt>
<trkpt lat="49.045394975692034" lon="9.226272962987423">
<ele>263.20000000000005</ele>
<time>2023-05-16T13:20:07Z</time>
</trkpt>
<trkpt lat="49.04541693627834" lon="9.226292995736003">
<ele>263.4</ele>
<time>2023-05-16T13:20:08Z</time>
</trkpt>
<trkpt lat="49.045437974855304" lon="9.226314956322312">
<ele>263.6</ele>
<time>2023-05-16T13:20:09Z</time>
</trkpt>
<trkpt lat="49.04545792378485" lon="9.226337922737002">
<ele>263.79999999999995</ele>
<time>2023-05-16T13:20:10Z</time>
</trkpt>
<trkpt lat="49.045481979846954" lon="9.226359967142344">
<ele>263.79999999999995</ele>
<time>2023-05-16T13:20:11Z</time>
</trkpt>
<trkpt lat="49.0455019287765" lon="9.226382933557034">
<ele>264</ele>
<time>2023-05-16T13:20:12Z</time>
</trkpt>
<trkpt lat="49.04552296735346" lon="9.226406989619136">
<ele>264.20000000000005</ele>
<time>2023-05-16T13:20:13Z</time>
</trkpt>
<trkpt lat="49.04554492793977" lon="9.226429956033826">
<ele>264.20000000000005</ele>
<time>2023-05-16T13:20:14Z</time>
</trkpt>
<trkpt lat="49.045566972345114" lon="9.226449988782406">
<ele>264.4</ele>
<time>2023-05-16T13:20:15Z</time>
</trkpt>
<trkpt lat="49.04558792710304" lon="9.226466920226812">
<ele>264.4</ele>
<time>2023-05-16T13:20:16Z</time>
</trkpt>
<trkpt lat="49.04560795985162" lon="9.226486952975392">
<ele>264.6</ele>
<time>2023-05-16T13:20:17Z</time>
</trkpt>
<trkpt lat="49.04562497511506" lon="9.226504974067211">
<ele>264.79999999999995</ele>
<time>2023-05-16T13:20:18Z</time>
</trkpt>
<trkpt lat="49.0456419903785" lon="9.22652299515903">
<ele>264.79999999999995</ele>
<time>2023-05-16T13:20:19Z</time>
</trkpt>
<trkpt lat="49.045656993985176" lon="9.226542944088578">
<ele>265</ele>
<time>2023-05-16T13:20:20Z</time>
</trkpt>
<trkpt lat="49.04567493125796" lon="9.226561971008778">
<ele>265</ele>
<time>2023-05-16T13:20:21Z</time>
</trkpt>
<trkpt lat="49.0456919465214" lon="9.226581919938326">
<ele>265.20000000000005</ele>
<time>2023-05-16T13:20:22Z</time>
</trkpt>
<trkpt lat="49.04570493847132" lon="9.226596923545003">
<ele>265.20000000000005</ele>
<time>2023-05-16T13:20:23Z</time>
</trkpt>
<trkpt lat="49.04571692459285" lon="9.22660798765719">
<ele>265.20000000000005</ele>
<time>2023-05-16T13:20:24Z</time>
</trkpt>
<trkpt lat="49.045719942077994" lon="9.22660798765719">
<ele>265.4</ele>
<time>2023-05-16T13:20:25Z</time>
</trkpt>
<trkpt lat="49.045741986483335" lon="9.22663195990026">
<ele>265.6</ele>
<time>2023-05-16T13:20:25Z</time>
</trkpt>
<trkpt lat="49.04575497843325" lon="9.226642940193415">
<ele>265.6</ele>
<time>2023-05-16T13:20:26Z</time>
</trkpt>
<trkpt lat="49.04576797038317" lon="9.226649980992079">
<ele>265.79999999999995</ele>
<time>2023-05-16T13:20:27Z</time>
</trkpt>
<trkpt lat="49.045781968161464" lon="9.22665299847722">
<ele>265.79999999999995</ele>
<time>2023-05-16T13:20:28Z</time>
</trkpt>
<trkpt lat="49.04579496011138" lon="9.22665199264884">
<ele>265.79999999999995</ele>
<time>2023-05-16T13:20:29Z</time>
</trkpt>
<trkpt lat="49.045804934576154" lon="9.226644951850176">
<ele>265.79999999999995</ele>
<time>2023-05-16T13:20:30Z</time>
</trkpt>
<trkpt lat="49.04581499285996" lon="9.226636989042163">
<ele>265.79999999999995</ele>
<time>2023-05-16T13:20:31Z</time>
</trkpt>
<trkpt lat="49.04582295566797" lon="9.226624919101596">
<ele>265.79999999999995</ele>
<time>2023-05-16T13:20:32Z</time>
</trkpt>
<trkpt lat="49.045827984809875" lon="9.22661192715168">
<ele>265.79999999999995</ele>
<time>2023-05-16T13:20:33Z</time>
</trkpt>
<trkpt lat="49.045827984809875" lon="9.226592984050512">
<ele>265.79999999999995</ele>
<time>2023-05-16T13:20:34Z</time>
</trkpt>
<trkpt lat="49.04582295566797" lon="9.226577980443835">
<ele>265.79999999999995</ele>
<time>2023-05-16T13:20:35Z</time>
</trkpt>
<trkpt lat="49.04581499285996" lon="9.22656792216003">
<ele>265.79999999999995</ele>
<time>2023-05-16T13:20:36Z</time>
</trkpt>
<trkpt lat="49.045806946232915" lon="9.226562976837158">
<ele>265.79999999999995</ele>
<time>2023-05-16T13:20:37Z</time>
</trkpt>
<trkpt lat="49.04580292291939" lon="9.226561971008778">
<ele>265.79999999999995</ele>
<time>2023-05-16T13:20:38Z</time>
</trkpt>
<trkpt lat="49.04572991654277" lon="9.226577980443835">
<ele>265.79999999999995</ele>
<time>2023-05-16T13:20:38Z</time>
</trkpt>
<trkpt lat="49.04571197926998" lon="9.226576974615455">
<ele>265.79999999999995</ele>
<time>2023-05-16T13:20:39Z</time>
</trkpt>
<trkpt lat="49.0456919465214" lon="9.226566916331649">
<ele>265.79999999999995</ele>
<time>2023-05-16T13:20:40Z</time>
</trkpt>
<trkpt lat="49.04566998593509" lon="9.226549984887242">
<ele>265.79999999999995</ele>
<time>2023-05-16T13:20:41Z</time>
</trkpt>
<trkpt lat="49.04564492404461" lon="9.22652693465352">
<ele>265.79999999999995</ele>
<time>2023-05-16T13:20:42Z</time>
</trkpt>
<trkpt lat="49.04561994597316" lon="9.226497933268547">
<ele>265.79999999999995</ele>
<time>2023-05-16T13:20:43Z</time>
</trkpt>
<trkpt lat="49.045592956244946" lon="9.226471949368715">
<ele>265.6</ele>
<time>2023-05-16T13:20:44Z</time>
</trkpt>
<trkpt lat="49.045566972345114" lon="9.226447977125645">
<ele>265.6</ele>
<time>2023-05-16T13:20:45Z</time>
</trkpt>
<trkpt lat="49.04553797096014" lon="9.226422999054193">
<ele>265.4</ele>
<time>2023-05-16T13:20:46Z</time>
</trkpt>
<trkpt lat="49.045507963746786" lon="9.226394919678569">
<ele>265.4</ele>
<time>2023-05-16T13:20:47Z</time>
</trkpt>
<trkpt lat="49.04547695070505" lon="9.226364996284246">
<ele>265.20000000000005</ele>
<time>2023-05-16T13:20:48Z</time>
</trkpt>
<trkpt lat="49.045442920178175" lon="9.226332977414131">
<ele>265</ele>
<time>2023-05-16T13:20:49Z</time>
</trkpt>
<trkpt lat="49.04540997929871" lon="9.226297941058874">
<ele>264.79999999999995</ele>
<time>2023-05-16T13:20:50Z</time>
</trkpt>
<trkpt lat="49.04537192545831" lon="9.226261982694268">
<ele>264.79999999999995</ele>
<time>2023-05-16T13:20:51Z</time>
</trkpt>
<trkpt lat="49.04532792046666" lon="9.226222923025489">
<ele>264.6</ele>
<time>2023-05-16T13:20:52Z</time>
</trkpt>
<trkpt lat="49.04528299346566" lon="9.22618193551898">
<ele>264.4</ele>
<time>2023-05-16T13:20:53Z</time>
</trkpt>
<trkpt lat="49.04523295350373" lon="9.22613793052733">
<ele>264</ele>
<time>2023-05-16T13:20:54Z</time>
</trkpt>
<trkpt lat="49.045181991532445" lon="9.226086968556046">
<ele>263.79999999999995</ele>
<time>2023-05-16T13:20:55Z</time>
</trkpt>
<trkpt lat="49.04512692242861" lon="9.226034916937351">
<ele>263.6</ele>
<time>2023-05-16T13:20:56Z</time>
</trkpt>
<trkpt lat="49.04506992548704" lon="9.225982949137688">
<ele>263.20000000000005</ele>
<time>2023-05-16T13:20:57Z</time>
</trkpt>
<trkpt lat="49.045014940202236" lon="9.225929975509644">
<ele>262.79999999999995</ele>
<time>2023-05-16T13:20:58Z</time>
</trkpt>
<trkpt lat="49.04495995491743" lon="9.225874990224838">
<ele>262.4</ele>
<time>2023-05-16T13:20:59Z</time>
</trkpt>
<trkpt lat="49.044902957975864" lon="9.225819921121001">
<ele>262</ele>
<time>2023-05-16T13:21:00Z</time>
</trkpt>
<trkpt lat="49.04484797269106" lon="9.225764935836196">
<ele>261.6</ele>
<time>2023-05-16T13:21:01Z</time>
</trkpt>
<trkpt lat="49.044794999063015" lon="9.22570995055139">
<ele>261.20000000000005</ele>
<time>2023-05-16T13:21:02Z</time>
</trkpt>
<trkpt lat="49.04474294744432" lon="9.225656976923347">
<ele>260.79999999999995</ele>
<time>2023-05-16T13:21:03Z</time>
</trkpt>
<trkpt lat="49.04469299130142" lon="9.225606936961412">
<ele>260.4</ele>
<time>2023-05-16T13:21:04Z</time>
</trkpt>
<trkpt lat="49.044646974653006" lon="9.225559998303652">
<ele>260</ele>
<time>2023-05-16T13:21:05Z</time>
</trkpt>
<trkpt lat="49.044601963832974" lon="9.22551498748362">
<ele>259.6</ele>
<time>2023-05-16T13:21:06Z</time>
</trkpt>
<trkpt lat="49.044561982154846" lon="9.225472994148731">
<ele>259.20000000000005</ele>
<time>2023-05-16T13:21:07Z</time>
</trkpt>
<trkpt lat="49.044521916657686" lon="9.225432928651571">
<ele>258.79999999999995</ele>
<time>2023-05-16T13:21:08Z</time>
</trkpt>
<trkpt lat="49.04447799548507" lon="9.225389929488301">
<ele>258.20000000000005</ele>
<time>2023-05-16T13:21:09Z</time>
</trkpt>
<trkpt lat="49.044432984665036" lon="9.225347936153412">
<ele>257.79999999999995</ele>
<time>2023-05-16T13:21:10Z</time>
</trkpt>
<trkpt lat="49.044386968016624" lon="9.225304936990142">
<ele>257.4</ele>
<time>2023-05-16T13:21:11Z</time>
</trkpt>
<trkpt lat="49.044342963024974" lon="9.225264955312014">
<ele>257</ele>
<time>2023-05-16T13:21:12Z</time>
</trkpt>
<trkpt lat="49.044299963861704" lon="9.225224973633885">
<ele>256.6</ele>
<time>2023-05-16T13:21:13Z</time>
</trkpt>
<trkpt lat="49.044257970526814" lon="9.225184991955757">
<ele>256</ele>
<time>2023-05-16T13:21:14Z</time>
</trkpt>
<trkpt lat="49.044214971363544" lon="9.225146938115358">
<ele>255.60000000000002</ele>
<time>2023-05-16T13:21:15Z</time>
</trkpt>
<trkpt lat="49.044171972200274" lon="9.225102933123708">
<ele>255.20000000000005</ele>
<time>2023-05-16T13:21:16Z</time>
</trkpt>
<trkpt lat="49.044127967208624" lon="9.225059933960438">
<ele>254.79999999999995</ele>
<time>2023-05-16T13:21:17Z</time>
</trkpt>
<trkpt lat="49.04408295638859" lon="9.22501995228231">
<ele>254.39999999999998</ele>
<time>2023-05-16T13:21:18Z</time>
</trkpt>
<trkpt lat="49.04403693974018" lon="9.22497795894742">
<ele>253.79999999999995</ele>
<time>2023-05-16T13:21:19Z</time>
</trkpt>
<trkpt lat="49.04398991726339" lon="9.224931942299008">
<ele>253.39999999999998</ele>
<time>2023-05-16T13:21:20Z</time>
</trkpt>
<trkpt lat="49.04394197277725" lon="9.224884919822216">
<ele>252.79999999999995</ele>
<time>2023-05-16T13:21:21Z</time>
</trkpt>
<trkpt lat="49.043894950300455" lon="9.224837981164455">
<ele>252.20000000000005</ele>
<time>2023-05-16T13:21:22Z</time>
</trkpt>
<trkpt lat="49.04384692199528" lon="9.224792970344424">
<ele>251.60000000000002</ele>
<time>2023-05-16T13:21:23Z</time>
</trkpt>
<trkpt lat="49.04380199499428" lon="9.224749971181154">
<ele>251.20000000000005</ele>
<time>2023-05-16T13:21:24Z</time>
</trkpt>
<trkpt lat="49.04375497251749" lon="9.224706972017884">
<ele>250.60000000000002</ele>
<time>2023-05-16T13:21:25Z</time>
</trkpt>
<trkpt lat="49.04370996169746" lon="9.224661961197853">
<ele>250</ele>
<time>2023-05-16T13:21:26Z</time>
</trkpt>
<trkpt lat="49.04366495087743" lon="9.224616950377822">
<ele>249.39999999999998</ele>
<time>2023-05-16T13:21:27Z</time>
</trkpt>
<trkpt lat="49.043617928400636" lon="9.224574957042933">
<ele>248.79999999999995</ele>
<time>2023-05-16T13:21:28Z</time>
</trkpt>
<trkpt lat="49.043572917580605" lon="9.224529946222901">
<ele>248</ele>
<time>2023-05-16T13:21:29Z</time>
</trkpt>
<trkpt lat="49.043526984751225" lon="9.224486947059631">
<ele>247.39999999999998</ele>
<time>2023-05-16T13:21:30Z</time>
</trkpt>
<trkpt lat="49.04347795061767" lon="9.2244419362396">
<ele>246.79999999999995</ele>
<time>2023-05-16T13:21:31Z</time>
</trkpt>
<trkpt lat="49.04343193396926" lon="9.224396925419569">
<ele>246</ele>
<time>2023-05-16T13:21:32Z</time>
</trkpt>
<trkpt lat="49.0433849953115" lon="9.224347975105047">
<ele>245.39999999999998</ele>
<time>2023-05-16T13:21:33Z</time>
</trkpt>
<trkpt lat="49.043334955349565" lon="9.224302964285016">
<ele>244.60000000000002</ele>
<time>2023-05-16T13:21:34Z</time>
</trkpt>
<trkpt lat="49.04328692704439" lon="9.224257953464985">
<ele>244</ele>
<time>2023-05-16T13:21:35Z</time>
</trkpt>
<trkpt lat="49.04323998838663" lon="9.224212942644954">
<ele>243.20000000000005</ele>
<time>2023-05-16T13:21:36Z</time>
</trkpt>
<trkpt lat="49.0431949775666" lon="9.224167931824923">
<ele>242.39999999999998</ele>
<time>2023-05-16T13:21:37Z</time>
</trkpt>
<trkpt lat="49.04315197840333" lon="9.224126944318414">
<ele>241.79999999999995</ele>
<time>2023-05-16T13:21:38Z</time>
</trkpt>
<trkpt lat="49.0431069675833" lon="9.224082939326763">
<ele>241</ele>
<time>2023-05-16T13:21:39Z</time>
</trkpt>
<trkpt lat="49.043059945106506" lon="9.224039940163493">
<ele>240.39999999999998</ele>
<time>2023-05-16T13:21:40Z</time>
</trkpt>
<trkpt lat="49.043014934286475" lon="9.223996941000223">
<ele>239.60000000000002</ele>
<time>2023-05-16T13:21:41Z</time>
</trkpt>
<trkpt lat="49.042967995628715" lon="9.22394991852343">
<ele>239</ele>
<time>2023-05-16T13:21:42Z</time>
</trkpt>
<trkpt lat="49.0429219789803" lon="9.22390297986567">
<ele>238.39999999999998</ele>
<time>2023-05-16T13:21:43Z</time>
</trkpt>
<trkpt lat="49.04287696816027" lon="9.223861992359161">
<ele>237.79999999999995</ele>
<time>2023-05-16T13:21:44Z</time>
</trkpt>
<trkpt lat="49.04283497482538" lon="9.223819999024272">
<ele>237.20000000000005</ele>
<time>2023-05-16T13:21:45Z</time>
</trkpt>
<trkpt lat="49.04279197566211" lon="9.223781945183873">
<ele>236.60000000000002</ele>
<time>2023-05-16T13:21:46Z</time>
</trkpt>
<trkpt lat="49.042754927650094" lon="9.223737940192223">
<ele>236</ele>
<time>2023-05-16T13:21:47Z</time>
</trkpt>
<trkpt lat="49.04272492043674" lon="9.22368697822094">
<ele>235.39999999999998</ele>
<time>2023-05-16T13:21:48Z</time>
</trkpt>
<trkpt lat="49.04270991683006" lon="9.22362495213747">
<ele>235</ele>
<time>2023-05-16T13:21:49Z</time>
</trkpt>
<trkpt lat="49.042712934315205" lon="9.223564937710762">
<ele>234.60000000000002</ele>
<time>2023-05-16T13:21:50Z</time>
</trkpt>
<trkpt lat="49.04272793792188" lon="9.223509952425957">
<ele>234.20000000000005</ele>
<time>2023-05-16T13:21:51Z</time>
</trkpt>
<trkpt lat="49.04274495318532" lon="9.223459996283054">
<ele>234</ele>
<time>2023-05-16T13:21:52Z</time>
</trkpt>
<trkpt lat="49.04276196844876" lon="9.223416997119784">
<ele>233.79999999999995</ele>
<time>2023-05-16T13:21:53Z</time>
</trkpt>
<trkpt lat="49.042776972055435" lon="9.223377937451005">
<ele>233.39999999999998</ele>
<time>2023-05-16T13:21:54Z</time>
</trkpt>
<trkpt lat="49.04278996400535" lon="9.22334298491478">
<ele>233.20000000000005</ele>
<time>2023-05-16T13:21:55Z</time>
</trkpt>
<trkpt lat="49.042801950126886" lon="9.223307948559523">
<ele>233.20000000000005</ele>
<time>2023-05-16T13:21:56Z</time>
</trkpt>
<trkpt lat="49.04280999675393" lon="9.223277941346169">
<ele>233</ele>
<time>2023-05-16T13:21:57Z</time>
</trkpt>
<trkpt lat="49.042817959561944" lon="9.223254974931479">
<ele>232.79999999999995</ele>
<time>2023-05-16T13:21:58Z</time>
</trkpt>
<trkpt lat="49.042824916541576" lon="9.223232930526137">
<ele>232.79999999999995</ele>
<time>2023-05-16T13:21:59Z</time>
</trkpt>
<trkpt lat="49.04282793402672" lon="9.22321499325335">
<ele>232.79999999999995</ele>
<time>2023-05-16T13:22:00Z</time>
</trkpt>
<trkpt lat="49.04283195734024" lon="9.223202923312783">
<ele>232.60000000000002</ele>
<time>2023-05-16T13:22:01Z</time>
</trkpt>
<trkpt lat="49.04283296316862" lon="9.223197977989912">
<ele>232.60000000000002</ele>
<time>2023-05-16T13:22:02Z</time>
</trkpt>
<trkpt lat="49.04283296316862" lon="9.22319496050477">
<ele>232.60000000000002</ele>
<time>2023-05-16T13:22:03Z</time>
</trkpt>
<trkpt lat="49.04283497482538" lon="9.22319496050477">
<ele>232.60000000000002</ele>
<time>2023-05-16T13:22:04Z</time>
</trkpt>
<trkpt lat="49.042864982038736" lon="9.223111979663372">
<ele>232.39999999999998</ele>
<time>2023-05-16T13:22:04Z</time>
</trkpt>
<trkpt lat="49.04287193901837" lon="9.223089935258031">
<ele>232.39999999999998</ele>
<time>2023-05-16T13:22:05Z</time>
</trkpt>
<trkpt lat="49.04287998564541" lon="9.223062945529819">
<ele>232.39999999999998</ele>
<time>2023-05-16T13:22:06Z</time>
</trkpt>
<trkpt lat="49.04288996011019" lon="9.223032938316464">
<ele>232.39999999999998</ele>
<time>2023-05-16T13:22:07Z</time>
</trkpt>
<trkpt lat="49.04290194623172" lon="9.222997985780239">
<ele>232.39999999999998</ele>
<time>2023-05-16T13:22:08Z</time>
</trkpt>
<trkpt lat="49.0429169498384" lon="9.22295993193984">
<ele>232.39999999999998</ele>
<time>2023-05-16T13:22:09Z</time>
</trkpt>
<trkpt lat="49.04293195344508" lon="9.22291693277657">
<ele>232.39999999999998</ele>
<time>2023-05-16T13:22:10Z</time>
</trkpt>
<trkpt lat="49.042946957051754" lon="9.222864964976907">
<ele>232.39999999999998</ele>
<time>2023-05-16T13:22:11Z</time>
</trkpt>
<trkpt lat="49.04296196065843" lon="9.222812997177243">
<ele>232.39999999999998</ele>
<time>2023-05-16T13:22:12Z</time>
</trkpt>
<trkpt lat="49.04297797009349" lon="9.222761951386929">
<ele>232.39999999999998</ele>
<time>2023-05-16T13:22:13Z</time>
</trkpt>
<trkpt lat="49.04299498535693" lon="9.222709983587265">
<ele>232.20000000000005</ele>
<time>2023-05-16T13:22:14Z</time>
</trkpt>
<trkpt lat="49.04300797730684" lon="9.22265499830246">
<ele>232.20000000000005</ele>
<time>2023-05-16T13:22:15Z</time>
</trkpt>
<trkpt lat="49.04302298091352" lon="9.222597917541862">
<ele>232.20000000000005</ele>
<time>2023-05-16T13:22:16Z</time>
</trkpt>
<trkpt lat="49.0430379845202" lon="9.222537986934185">
<ele>232.20000000000005</ele>
<time>2023-05-16T13:22:17Z</time>
</trkpt>
<trkpt lat="49.04304997064173" lon="9.222472943365574">
<ele>232.20000000000005</ele>
<time>2023-05-16T13:22:18Z</time>
</trkpt>
<trkpt lat="49.043056927621365" lon="9.222404966130853">
<ele>232.20000000000005</ele>
<time>2023-05-16T13:22:19Z</time>
</trkpt>
<trkpt lat="49.04306195676327" lon="9.22233497723937">
<ele>232.20000000000005</ele>
<time>2023-05-16T13:22:20Z</time>
</trkpt>
<trkpt lat="49.04306698590517" lon="9.222266916185617">
<ele>232.20000000000005</ele>
<time>2023-05-16T13:22:21Z</time>
</trkpt>
<trkpt lat="49.04307193122804" lon="9.222197933122516">
<ele>232.20000000000005</ele>
<time>2023-05-16T13:22:22Z</time>
</trkpt>
<trkpt lat="49.043076960369945" lon="9.222132973372936">
<ele>232.20000000000005</ele>
<time>2023-05-16T13:22:23Z</time>
</trkpt>
<trkpt lat="49.04308198951185" lon="9.222059966996312">
<ele>232</ele>
<time>2023-05-16T13:22:24Z</time>
</trkpt>
<trkpt lat="49.04308492317796" lon="9.221986960619688">
<ele>232</ele>
<time>2023-05-16T13:22:25Z</time>
</trkpt>
<trkpt lat="49.0430879406631" lon="9.221911942586303">
<ele>232</ele>
<time>2023-05-16T13:22:26Z</time>
</trkpt>
<trkpt lat="49.04309196397662" lon="9.221836924552917">
<ele>231.79999999999995</ele>
<time>2023-05-16T13:22:27Z</time>
</trkpt>
<trkpt lat="49.043096993118525" lon="9.221766935661435">
<ele>231.79999999999995</ele>
<time>2023-05-16T13:22:28Z</time>
</trkpt>
<trkpt lat="49.043101938441396" lon="9.22168998979032">
<ele>231.60000000000002</ele>
<time>2023-05-16T13:22:29Z</time>
</trkpt>
<trkpt lat="49.0431069675833" lon="9.221616983413696">
<ele>231.60000000000002</ele>
<time>2023-05-16T13:22:30Z</time>
</trkpt>
<trkpt lat="49.0431119967252" lon="9.221546994522214">
<ele>231.60000000000002</ele>
<time>2023-05-16T13:22:31Z</time>
</trkpt>
<trkpt lat="49.04311694204807" lon="9.221481950953603">
<ele>231.39999999999998</ele>
<time>2023-05-16T13:22:32Z</time>
</trkpt>
<trkpt lat="49.043121971189976" lon="9.221416991204023">
<ele>231.39999999999998</ele>
<time>2023-05-16T13:22:33Z</time>
</trkpt>
<trkpt lat="49.04312691651285" lon="9.22134792432189">
<ele>231.20000000000005</ele>
<time>2023-05-16T13:22:34Z</time>
</trkpt>
<trkpt lat="49.04313295148313" lon="9.22128195874393">
<ele>231.20000000000005</ele>
<time>2023-05-16T13:22:35Z</time>
</trkpt>
<trkpt lat="49.043141920119524" lon="9.221212975680828">
<ele>231.20000000000005</ele>
<time>2023-05-16T13:22:36Z</time>
</trkpt>
<trkpt lat="49.04314795508981" lon="9.221141980960965">
<ele>231</ele>
<time>2023-05-16T13:22:37Z</time>
</trkpt>
<trkpt lat="49.04315298423171" lon="9.221072997897863">
<ele>231</ele>
<time>2023-05-16T13:22:38Z</time>
</trkpt>
<trkpt lat="49.0431569237262" lon="9.22099999152124">
<ele>230.79999999999995</ele>
<time>2023-05-16T13:22:39Z</time>
</trkpt>
<trkpt lat="49.04315994121134" lon="9.220922961831093">
<ele>230.60000000000002</ele>
<time>2023-05-16T13:22:40Z</time>
</trkpt>
<trkpt lat="49.043162958696485" lon="9.220847943797708">
<ele>230.60000000000002</ele>
<time>2023-05-16T13:22:41Z</time>
</trkpt>
<trkpt lat="49.04316798783839" lon="9.220772925764322">
<ele>230.39999999999998</ele>
<time>2023-05-16T13:22:42Z</time>
</trkpt>
<trkpt lat="49.04317293316126" lon="9.220692962408066">
<ele>230.39999999999998</ele>
<time>2023-05-16T13:22:43Z</time>
</trkpt>
<trkpt lat="49.04317796230316" lon="9.22061299905181">
<ele>230.20000000000005</ele>
<time>2023-05-16T13:22:44Z</time>
</trkpt>
<trkpt lat="49.043184919282794" lon="9.220532951876521">
<ele>230.20000000000005</ele>
<time>2023-05-16T13:22:45Z</time>
</trkpt>
<trkpt lat="49.04319196008146" lon="9.220446953549981">
<ele>230</ele>
<time>2023-05-16T13:22:46Z</time>
</trkpt>
<trkpt lat="49.04319799505174" lon="9.2203579377383">
<ele>230</ele>
<time>2023-05-16T13:22:47Z</time>
</trkpt>
<trkpt lat="49.043206963688135" lon="9.220266994088888">
<ele>229.79999999999995</ele>
<time>2023-05-16T13:22:48Z</time>
</trkpt>
<trkpt lat="49.04321693815291" lon="9.220179989933968">
<ele>229.79999999999995</ele>
<time>2023-05-16T13:22:49Z</time>
</trkpt>
<trkpt lat="49.043224984779954" lon="9.220092985779047">
<ele>229.79999999999995</ele>
<time>2023-05-16T13:22:50Z</time>
</trkpt>
<trkpt lat="49.043231941759586" lon="9.220004975795746">
<ele>229.60000000000002</ele>
<time>2023-05-16T13:22:51Z</time>
</trkpt>
<trkpt lat="49.04323797672987" lon="9.219917971640825">
<ele>229.39999999999998</ele>
<time>2023-05-16T13:22:52Z</time>
</trkpt>
<trkpt lat="49.04324694536626" lon="9.219832979142666">
<ele>229.39999999999998</ele>
<time>2023-05-16T13:22:53Z</time>
</trkpt>
<trkpt lat="49.043249962851405" lon="9.219749998301268">
<ele>229.20000000000005</ele>
<time>2023-05-16T13:22:54Z</time>
</trkpt>
<trkpt lat="49.04325499199331" lon="9.219662994146347">
<ele>229.20000000000005</ele>
<time>2023-05-16T13:22:55Z</time>
</trkpt>
<trkpt lat="49.04326194897294" lon="9.219574984163046">
<ele>229</ele>
<time>2023-05-16T13:22:56Z</time>
</trkpt>
<trkpt lat="49.043267983943224" lon="9.21947993338108">
<ele>229</ele>
<time>2023-05-16T13:22:57Z</time>
</trkpt>
<trkpt lat="49.043272929266095" lon="9.219386978074908">
<ele>228.79999999999995</ele>
<time>2023-05-16T13:22:58Z</time>
</trkpt>
<trkpt lat="49.04327695257962" lon="9.219294944778085">
<ele>228.79999999999995</ele>
<time>2023-05-16T13:22:59Z</time>
</trkpt>
<trkpt lat="49.0432829875499" lon="9.219199977815151">
<ele>228.60000000000002</ele>
<time>2023-05-16T13:23:00Z</time>
</trkpt>
<trkpt lat="49.043291956186295" lon="9.219106938689947">
<ele>228.39999999999998</ele>
<time>2023-05-16T13:23:01Z</time>
</trkpt>
<trkpt lat="49.04330193065107" lon="9.219011971727014">
<ele>228.39999999999998</ele>
<time>2023-05-16T13:23:02Z</time>
</trkpt>
<trkpt lat="49.043311988934875" lon="9.218916920945048">
<ele>228.20000000000005</ele>
<time>2023-05-16T13:23:03Z</time>
</trkpt>
<trkpt lat="49.04331995174289" lon="9.218826983124018">
<ele>228.20000000000005</ele>
<time>2023-05-16T13:23:04Z</time>
</trkpt>
<trkpt lat="49.04332799836993" lon="9.218734949827194">
<ele>228</ele>
<time>2023-05-16T13:23:05Z</time>
</trkpt>
<trkpt lat="49.0433329436928" lon="9.21864291653037">
<ele>228</ele>
<time>2023-05-16T13:23:06Z</time>
</trkpt>
<trkpt lat="49.04334291815758" lon="9.21855691820383">
<ele>228</ele>
<time>2023-05-16T13:23:07Z</time>
</trkpt>
<trkpt lat="49.043351970613" lon="9.21846798621118">
<ele>227.79999999999995</ele>
<time>2023-05-16T13:23:08Z</time>
</trkpt>
<trkpt lat="49.043359933421016" lon="9.21838198788464">
<ele>227.79999999999995</ele>
<time>2023-05-16T13:23:09Z</time>
</trkpt>
<trkpt lat="49.04336798004806" lon="9.218296995386481">
<ele>227.79999999999995</ele>
<time>2023-05-16T13:23:10Z</time>
</trkpt>
<trkpt lat="49.04337493702769" lon="9.21820999123156">
<ele>227.79999999999995</ele>
<time>2023-05-16T13:23:11Z</time>
</trkpt>
<trkpt lat="49.04338298365474" lon="9.218129944056273">
<ele>227.79999999999995</ele>
<time>2023-05-16T13:23:12Z</time>
</trkpt>
<trkpt lat="49.04338792897761" lon="9.218051992356777">
<ele>227.60000000000002</ele>
<time>2023-05-16T13:23:13Z</time>
</trkpt>
<trkpt lat="49.04339195229113" lon="9.21797496266663">
<ele>227.60000000000002</ele>
<time>2023-05-16T13:23:14Z</time>
</trkpt>
<trkpt lat="49.043396981433034" lon="9.217897932976484">
<ele>227.60000000000002</ele>
<time>2023-05-16T13:23:15Z</time>
</trkpt>
<trkpt lat="49.043402932584286" lon="9.217819981276989">
<ele>227.60000000000002</ele>
<time>2023-05-16T13:23:16Z</time>
</trkpt>
<trkpt lat="49.04340796172619" lon="9.217742951586843">
<ele>227.60000000000002</ele>
<time>2023-05-16T13:23:17Z</time>
</trkpt>
<trkpt lat="49.04341299086809" lon="9.217666927725077">
<ele>227.39999999999998</ele>
<time>2023-05-16T13:23:18Z</time>
</trkpt>
<trkpt lat="49.043419947847724" lon="9.217594927176833">
<ele>227.39999999999998</ele>
<time>2023-05-16T13:23:19Z</time>
</trkpt>
<trkpt lat="49.04342497698963" lon="9.217526949942112">
<ele>227.39999999999998</ele>
<time>2023-05-16T13:23:20Z</time>
</trkpt>
<trkpt lat="49.0434299223125" lon="9.217461990192533">
<ele>227.39999999999998</ele>
<time>2023-05-16T13:23:21Z</time>
</trkpt>
<trkpt lat="49.04343696311116" lon="9.217397952452302">
<ele>227.39999999999998</ele>
<time>2023-05-16T13:23:22Z</time>
</trkpt>
<trkpt lat="49.043446937575936" lon="9.217332992702723">
<ele>227.39999999999998</ele>
<time>2023-05-16T13:23:23Z</time>
</trkpt>
<trkpt lat="49.04346194118261" lon="9.21726493164897">
<ele>227.39999999999998</ele>
<time>2023-05-16T13:23:24Z</time>
</trkpt>
<trkpt lat="49.04347795061767" lon="9.217191925272346">
<ele>227.20000000000005</ele>
<time>2023-05-16T13:23:25Z</time>
</trkpt>
<trkpt lat="49.04349496588111" lon="9.217111961916089">
<ele>227.20000000000005</ele>
<time>2023-05-16T13:23:26Z</time>
</trkpt>
<trkpt lat="49.04351298697293" lon="9.217029986903071">
<ele>227</ele>
<time>2023-05-16T13:23:27Z</time>
</trkpt>
<trkpt lat="49.043532935902476" lon="9.216944994404912">
<ele>227</ele>
<time>2023-05-16T13:23:28Z</time>
</trkpt>
<trkpt lat="49.043552968651056" lon="9.21685698442161">
<ele>226.79999999999995</ele>
<time>2023-05-16T13:23:29Z</time>
</trkpt>
<trkpt lat="49.043572917580605" lon="9.216764951124787">
<ele>226.60000000000002</ele>
<time>2023-05-16T13:23:30Z</time>
</trkpt>
<trkpt lat="49.04359697364271" lon="9.216669984161854">
<ele>226.39999999999998</ele>
<time>2023-05-16T13:23:31Z</time>
</trkpt>
<trkpt lat="49.04362195171416" lon="9.216572921723127">
<ele>226.20000000000005</ele>
<time>2023-05-16T13:23:32Z</time>
</trkpt>
<trkpt lat="49.04364692978561" lon="9.216477954760194">
<ele>226.20000000000005</ele>
<time>2023-05-16T13:23:33Z</time>
</trkpt>
<trkpt lat="49.04367199167609" lon="9.21638198196888">
<ele>226</ele>
<time>2023-05-16T13:23:34Z</time>
</trkpt>
<trkpt lat="49.04369696974754" lon="9.216284919530153">
<ele>225.79999999999995</ele>
<time>2023-05-16T13:23:35Z</time>
</trkpt>
<trkpt lat="49.043721947818995" lon="9.216186935082078">
<ele>225.60000000000002</ele>
<time>2023-05-16T13:23:36Z</time>
</trkpt>
<trkpt lat="49.043744998052716" lon="9.216086938977242">
<ele>225.39999999999998</ele>
<time>2023-05-16T13:23:37Z</time>
</trkpt>
<trkpt lat="49.04376997612417" lon="9.215987948700786">
<ele>225.20000000000005</ele>
<time>2023-05-16T13:23:38Z</time>
</trkpt>
<trkpt lat="49.043789925053716" lon="9.21588996425271">
<ele>225</ele>
<time>2023-05-16T13:23:39Z</time>
</trkpt>
<trkpt lat="49.04381297528744" lon="9.215792985633016">
<ele>224.60000000000002</ele>
<time>2023-05-16T13:23:40Z</time>
</trkpt>
<trkpt lat="49.04383694753051" lon="9.215701958164573">
<ele>224.39999999999998</ele>
<time>2023-05-16T13:23:41Z</time>
</trkpt>
<trkpt lat="49.04385999776423" lon="9.21560992486775">
<ele>224.20000000000005</ele>
<time>2023-05-16T13:23:42Z</time>
</trkpt>
<trkpt lat="49.04388296417892" lon="9.215517975389957">
<ele>224</ele>
<time>2023-05-16T13:23:43Z</time>
</trkpt>
<trkpt lat="49.04390492476523" lon="9.215426947921515">
<ele>223.79999999999995</ele>
<time>2023-05-16T13:23:44Z</time>
</trkpt>
<trkpt lat="49.04392696917057" lon="9.215334998443723">
<ele>223.79999999999995</ele>
<time>2023-05-16T13:23:45Z</time>
</trkpt>
<trkpt lat="49.04394691810012" lon="9.2152429651469">
<ele>223.79999999999995</ele>
<time>2023-05-16T13:23:46Z</time>
</trkpt>
<trkpt lat="49.04396996833384" lon="9.215152943506837">
<ele>223.60000000000002</ele>
<time>2023-05-16T13:23:47Z</time>
</trkpt>
<trkpt lat="49.04399192892015" lon="9.215062921866775">
<ele>223.60000000000002</ele>
<time>2023-05-16T13:23:48Z</time>
</trkpt>
<trkpt lat="49.04401497915387" lon="9.214971978217363">
<ele>223.60000000000002</ele>
<time>2023-05-16T13:23:49Z</time>
</trkpt>
<trkpt lat="49.04403995722532" lon="9.21487994492054">
<ele>223.60000000000002</ele>
<time>2023-05-16T13:23:50Z</time>
</trkpt>
<trkpt lat="49.04406191781163" lon="9.214787995442748">
<ele>223.60000000000002</ele>
<time>2023-05-16T13:23:51Z</time>
</trkpt>
<trkpt lat="49.044084968045354" lon="9.214696967974305">
<ele>223.39999999999998</ele>
<time>2023-05-16T13:23:52Z</time>
</trkpt>
<trkpt lat="49.04410692863166" lon="9.214606946334243">
<ele>223.39999999999998</ele>
<time>2023-05-16T13:23:53Z</time>
</trkpt>
<trkpt lat="49.044127967208624" lon="9.21451692469418">
<ele>223.39999999999998</ele>
<time>2023-05-16T13:23:54Z</time>
</trkpt>
<trkpt lat="49.044151939451694" lon="9.21442799270153">
<ele>223.39999999999998</ele>
<time>2023-05-16T13:23:55Z</time>
</trkpt>
<trkpt lat="49.044174989685416" lon="9.21434199437499">
<ele>223.39999999999998</ele>
<time>2023-05-16T13:23:56Z</time>
</trkpt>
<trkpt lat="49.044197956100106" lon="9.21425792388618">
<ele>223.20000000000005</ele>
<time>2023-05-16T13:23:57Z</time>
</trkpt>
<trkpt lat="49.044219916686416" lon="9.21417192555964">
<ele>223.20000000000005</ele>
<time>2023-05-16T13:23:58Z</time>
</trkpt>
<trkpt lat="49.04424196109176" lon="9.214087938889861">
<ele>223.20000000000005</ele>
<time>2023-05-16T13:23:59Z</time>
</trkpt>
<trkpt lat="49.04426492750645" lon="9.214004958048463">
<ele>223.20000000000005</ele>
<time>2023-05-16T13:24:00Z</time>
</trkpt>
<trkpt lat="49.04428697191179" lon="9.213921977207065">
<ele>223.20000000000005</ele>
<time>2023-05-16T13:24:01Z</time>
</trkpt>
<trkpt lat="49.04430792666972" lon="9.213836984708905">
<ele>223.20000000000005</ele>
<time>2023-05-16T13:24:02Z</time>
</trkpt>
<trkpt lat="49.04433198273182" lon="9.213754925876856">
<ele>223.20000000000005</ele>
<time>2023-05-16T13:24:03Z</time>
</trkpt>
<trkpt lat="49.04435494914651" lon="9.213671945035458">
<ele>223.20000000000005</ele>
<time>2023-05-16T13:24:04Z</time>
</trkpt>
<trkpt lat="49.04437799938023" lon="9.213584940880537">
<ele>223.20000000000005</ele>
<time>2023-05-16T13:24:05Z</time>
</trkpt>
<trkpt lat="49.0444019716233" lon="9.213501960039139">
<ele>223.20000000000005</ele>
<time>2023-05-16T13:24:06Z</time>
</trkpt>
<trkpt lat="49.04442292638123" lon="9.21341696754098">
<ele>223.20000000000005</ele>
<time>2023-05-16T13:24:07Z</time>
</trkpt>
<trkpt lat="49.04444195330143" lon="9.21333197504282">
<ele>223.20000000000005</ele>
<time>2023-05-16T13:24:08Z</time>
</trkpt>
<trkpt lat="49.044452933594584" lon="9.21324698254466">
<ele>223</ele>
<time>2023-05-16T13:24:09Z</time>
</trkpt>
<trkpt lat="49.04446299187839" lon="9.21315997838974">
<ele>223</ele>
<time>2023-05-16T13:24:10Z</time>
</trkpt>
<trkpt lat="49.04446994885802" lon="9.21307297423482">
<ele>223</ele>
<time>2023-05-16T13:24:11Z</time>
</trkpt>
<trkpt lat="49.044474977999926" lon="9.21298697590828">
<ele>223</ele>
<time>2023-05-16T13:24:12Z</time>
</trkpt>
<trkpt lat="49.04448193497956" lon="9.21290198341012">
<ele>223</ele>
<time>2023-05-16T13:24:13Z</time>
</trkpt>
<trkpt lat="49.0444849524647" lon="9.212817996740341">
<ele>223</ele>
<time>2023-05-16T13:24:14Z</time>
</trkpt>
<trkpt lat="49.0444899816066" lon="9.212734932079911">
<ele>223</ele>
<time>2023-05-16T13:24:15Z</time>
</trkpt>
<trkpt lat="49.044494926929474" lon="9.212652957066894">
<ele>223</ele>
<time>2023-05-16T13:24:16Z</time>
</trkpt>
<trkpt lat="49.044497944414616" lon="9.212572993710637">
<ele>223.20000000000005</ele>
<time>2023-05-16T13:24:17Z</time>
</trkpt>
<trkpt lat="49.04450196772814" lon="9.212491940706968">
<ele>223.20000000000005</ele>
<time>2023-05-16T13:24:18Z</time>
</trkpt>
<trkpt lat="49.04450699687004" lon="9.212411977350712">
<ele>223.20000000000005</ele>
<time>2023-05-16T13:24:19Z</time>
</trkpt>
<trkpt lat="49.04450993053615" lon="9.212329918518662">
<ele>223.20000000000005</ele>
<time>2023-05-16T13:24:20Z</time>
</trkpt>
<trkpt lat="49.04451294802129" lon="9.212251966819167">
<ele>223.39999999999998</ele>
<time>2023-05-16T13:24:21Z</time>
</trkpt>
<trkpt lat="49.044516971334815" lon="9.21216999180615">
<ele>223.39999999999998</ele>
<time>2023-05-16T13:24:22Z</time>
</trkpt>
<trkpt lat="49.044521916657686" lon="9.2120879329741">
<ele>223.39999999999998</ele>
<time>2023-05-16T13:24:23Z</time>
</trkpt>
<trkpt lat="49.04452694579959" lon="9.212006963789463">
<ele>223.39999999999998</ele>
<time>2023-05-16T13:24:24Z</time>
</trkpt>
<trkpt lat="49.04453197494149" lon="9.211922977119684">
<ele>223.39999999999998</ele>
<time>2023-05-16T13:24:25Z</time>
</trkpt>
<trkpt lat="49.04453692026436" lon="9.211834967136383">
<ele>223.39999999999998</ele>
<time>2023-05-16T13:24:26Z</time>
</trkpt>
<trkpt lat="49.044537926092744" lon="9.211749974638224">
<ele>223.39999999999998</ele>
<time>2023-05-16T13:24:27Z</time>
</trkpt>
<trkpt lat="49.04454295523465" lon="9.211664982140064">
<ele>223.20000000000005</ele>
<time>2023-05-16T13:24:28Z</time>
</trkpt>
<trkpt lat="49.04454999603331" lon="9.211577977985144">
<ele>223.20000000000005</ele>
<time>2023-05-16T13:24:29Z</time>
</trkpt>
<trkpt lat="49.04455494135618" lon="9.211492985486984">
<ele>223.20000000000005</ele>
<time>2023-05-16T13:24:30Z</time>
</trkpt>
<trkpt lat="49.044559970498085" lon="9.211411932483315">
<ele>223.20000000000005</ele>
<time>2023-05-16T13:24:31Z</time>
</trkpt>
<trkpt lat="49.04456499963999" lon="9.211331969127059">
<ele>223.20000000000005</ele>
<time>2023-05-16T13:24:32Z</time>
</trkpt>
<trkpt lat="49.0445679333061" lon="9.211257956922054">
<ele>223.20000000000005</ele>
<time>2023-05-16T13:24:33Z</time>
</trkpt>
<trkpt lat="49.04456994496286" lon="9.211189979687333">
<ele>223.20000000000005</ele>
<time>2023-05-16T13:24:34Z</time>
</trkpt>
<trkpt lat="49.044572962448" lon="9.21112292446196">
<ele>223.39999999999998</ele>
<time>2023-05-16T13:24:35Z</time>
</trkpt>
<trkpt lat="49.04457497410476" lon="9.21105494722724">
<ele>223.39999999999998</ele>
<time>2023-05-16T13:24:36Z</time>
</trkpt>
<trkpt lat="49.044577991589904" lon="9.21098998747766">
<ele>223.39999999999998</ele>
<time>2023-05-16T13:24:37Z</time>
</trkpt>
<trkpt lat="49.044582936912775" lon="9.210922932252288">
<ele>223.60000000000002</ele>
<time>2023-05-16T13:24:38Z</time>
</trkpt>
<trkpt lat="49.0445869602263" lon="9.21085998415947">
<ele>223.60000000000002</ele>
<time>2023-05-16T13:24:39Z</time>
</trkpt>
<trkpt lat="49.04458997771144" lon="9.21079695224762">
<ele>223.79999999999995</ele>
<time>2023-05-16T13:24:40Z</time>
</trkpt>
<trkpt lat="49.0445919893682" lon="9.21073299832642">
<ele>224</ele>
<time>2023-05-16T13:24:41Z</time>
</trkpt>
<trkpt lat="49.04459492303431" lon="9.21066996641457">
<ele>224.39999999999998</ele>
<time>2023-05-16T13:24:42Z</time>
</trkpt>
<trkpt lat="49.04459794051945" lon="9.21060693450272">
<ele>224.60000000000002</ele>
<time>2023-05-16T13:24:43Z</time>
</trkpt>
<trkpt lat="49.04459995217621" lon="9.210541974753141">
<ele>225</ele>
<time>2023-05-16T13:24:44Z</time>
</trkpt>
<trkpt lat="49.044602969661355" lon="9.21047793701291">
<ele>225.20000000000005</ele>
<time>2023-05-16T13:24:45Z</time>
</trkpt>
<trkpt lat="49.044604981318116" lon="9.210419934242964">
<ele>225.60000000000002</ele>
<time>2023-05-16T13:24:46Z</time>
</trkpt>
<trkpt lat="49.04460799880326" lon="9.210361931473017">
<ele>226</ele>
<time>2023-05-16T13:24:47Z</time>
</trkpt>
<trkpt lat="49.04461193829775" lon="9.210306946188211">
<ele>226.20000000000005</ele>
<time>2023-05-16T13:24:48Z</time>
</trkpt>
<trkpt lat="49.04461495578289" lon="9.210254978388548">
<ele>226.60000000000002</ele>
<time>2023-05-16T13:24:49Z</time>
</trkpt>
<trkpt lat="49.04461797326803" lon="9.210202926769853">
<ele>226.79999999999995</ele>
<time>2023-05-16T13:24:50Z</time>
</trkpt>
<trkpt lat="49.044621996581554" lon="9.21015196479857">
<ele>227.20000000000005</ele>
<time>2023-05-16T13:24:51Z</time>
</trkpt>
<trkpt lat="49.044621996581554" lon="9.210099996998906">
<ele>227.39999999999998</ele>
<time>2023-05-16T13:24:52Z</time>
</trkpt>
<trkpt lat="49.044624930247664" lon="9.21004794538021">
<ele>227.79999999999995</ele>
<time>2023-05-16T13:24:53Z</time>
</trkpt>
<trkpt lat="49.044627947732806" lon="9.209997989237309">
<ele>228</ele>
<time>2023-05-16T13:24:54Z</time>
</trkpt>
<trkpt lat="49.04462995938957" lon="9.209949960932136">
<ele>228.39999999999998</ele>
<time>2023-05-16T13:24:55Z</time>
</trkpt>
<trkpt lat="49.04463197104633" lon="9.209902938455343">
<ele>228.60000000000002</ele>
<time>2023-05-16T13:24:56Z</time>
</trkpt>
<trkpt lat="49.04463297687471" lon="9.20985298231244">
<ele>229</ele>
<time>2023-05-16T13:24:57Z</time>
</trkpt>
<trkpt lat="49.0446369163692" lon="9.209802942350507">
<ele>229.20000000000005</ele>
<time>2023-05-16T13:24:58Z</time>
</trkpt>
<trkpt lat="49.04463993385434" lon="9.209754997864366">
<ele>229.60000000000002</ele>
<time>2023-05-16T13:24:59Z</time>
</trkpt>
<trkpt lat="49.04464295133948" lon="9.209706969559193">
<ele>229.79999999999995</ele>
<time>2023-05-16T13:25:00Z</time>
</trkpt>
<trkpt lat="49.044646974653006" lon="9.209656929597259">
<ele>230.20000000000005</ele>
<time>2023-05-16T13:25:01Z</time>
</trkpt>
<trkpt lat="49.044647980481386" lon="9.209604961797595">
<ele>230.39999999999998</ele>
<time>2023-05-16T13:25:02Z</time>
</trkpt>
<trkpt lat="49.04464999213815" lon="9.209554921835661">
<ele>230.79999999999995</ele>
<time>2023-05-16T13:25:03Z</time>
</trkpt>
<trkpt lat="49.04465493746102" lon="9.209504965692759">
<ele>231</ele>
<time>2023-05-16T13:25:04Z</time>
</trkpt>
<trkpt lat="49.04465996660292" lon="9.209454925730824">
<ele>231.39999999999998</ele>
<time>2023-05-16T13:25:05Z</time>
</trkpt>
<trkpt lat="49.04466298408806" lon="9.209407987073064">
<ele>231.60000000000002</ele>
<time>2023-05-16T13:25:06Z</time>
</trkpt>
<trkpt lat="49.044666923582554" lon="9.209359958767891">
<ele>232</ele>
<time>2023-05-16T13:25:07Z</time>
</trkpt>
<trkpt lat="49.04467195272446" lon="9.209312936291099">
<ele>232.20000000000005</ele>
<time>2023-05-16T13:25:08Z</time>
</trkpt>
<trkpt lat="49.04467698186636" lon="9.209267925471067">
<ele>232.39999999999998</ele>
<time>2023-05-16T13:25:09Z</time>
</trkpt>
<trkpt lat="49.0446799993515" lon="9.209224926307797">
<ele>232.60000000000002</ele>
<time>2023-05-16T13:25:10Z</time>
</trkpt>
<trkpt lat="49.04468494467437" lon="9.209179999306798">
<ele>232.79999999999995</ele>
<time>2023-05-16T13:25:11Z</time>
</trkpt>
<trkpt lat="49.04469198547304" lon="9.209134988486767">
<ele>233.20000000000005</ele>
<time>2023-05-16T13:25:12Z</time>
</trkpt>
<trkpt lat="49.04469693079591" lon="9.209087966009974">
<ele>233.39999999999998</ele>
<time>2023-05-16T13:25:13Z</time>
</trkpt>
<trkpt lat="49.04469994828105" lon="9.209039937704802">
<ele>233.60000000000002</ele>
<time>2023-05-16T13:25:14Z</time>
</trkpt>
<trkpt lat="49.04470296576619" lon="9.208992999047041">
<ele>234</ele>
<time>2023-05-16T13:25:15Z</time>
</trkpt>
<trkpt lat="49.044706989079714" lon="9.208944970741868">
<ele>234.20000000000005</ele>
<time>2023-05-16T13:25:16Z</time>
</trkpt>
<trkpt lat="49.044709922745824" lon="9.208896942436695">
<ele>234.60000000000002</ele>
<time>2023-05-16T13:25:17Z</time>
</trkpt>
<trkpt lat="49.04471696354449" lon="9.208849919959903">
<ele>234.79999999999995</ele>
<time>2023-05-16T13:25:18Z</time>
</trkpt>
<trkpt lat="49.04471998102963" lon="9.208802981302142">
<ele>235</ele>
<time>2023-05-16T13:25:19Z</time>
</trkpt>
<trkpt lat="49.04472299851477" lon="9.20875696465373">
<ele>235.39999999999998</ele>
<time>2023-05-16T13:25:20Z</time>
</trkpt>
<trkpt lat="49.04472693800926" lon="9.2087119538337">
<ele>235.60000000000002</ele>
<time>2023-05-16T13:25:21Z</time>
</trkpt>
<trkpt lat="49.044731967151165" lon="9.208664931356907">
<ele>236</ele>
<time>2023-05-16T13:25:22Z</time>
</trkpt>
<trkpt lat="49.04473699629307" lon="9.208619920536876">
<ele>236.20000000000005</ele>
<time>2023-05-16T13:25:23Z</time>
</trkpt>
<trkpt lat="49.04473992995918" lon="9.208574993535876">
<ele>236.60000000000002</ele>
<time>2023-05-16T13:25:24Z</time>
</trkpt>
<trkpt lat="49.04474495910108" lon="9.208527971059084">
<ele>236.79999999999995</ele>
<time>2023-05-16T13:25:25Z</time>
</trkpt>
<trkpt lat="49.044749988242984" lon="9.208481954410672">
<ele>237.20000000000005</ele>
<time>2023-05-16T13:25:26Z</time>
</trkpt>
<trkpt lat="49.044754933565855" lon="9.208436943590641">
<ele>237.39999999999998</ele>
<time>2023-05-16T13:25:27Z</time>
</trkpt>
<trkpt lat="49.04476197436452" lon="9.20838799327612">
<ele>237.79999999999995</ele>
<time>2023-05-16T13:25:28Z</time>
</trkpt>
<trkpt lat="49.04476691968739" lon="9.208339964970946">
<ele>238</ele>
<time>2023-05-16T13:25:29Z</time>
</trkpt>
<trkpt lat="49.044774966314435" lon="9.208289925009012">
<ele>238.39999999999998</ele>
<time>2023-05-16T13:25:30Z</time>
</trkpt>
<trkpt lat="49.04477999545634" lon="9.208242986351252">
<ele>238.60000000000002</ele>
<time>2023-05-16T13:25:31Z</time>
</trkpt>
<trkpt lat="49.04478695243597" lon="9.20819696970284">
<ele>238.79999999999995</ele>
<time>2023-05-16T13:25:32Z</time>
</trkpt>
<trkpt lat="49.044792987406254" lon="9.208149947226048">
<ele>239.20000000000005</ele>
<time>2023-05-16T13:25:33Z</time>
</trkpt>
<trkpt lat="49.04480195604265" lon="9.208104936406016">
<ele>239.39999999999998</ele>
<time>2023-05-16T13:25:34Z</time>
</trkpt>
<trkpt lat="49.04480799101293" lon="9.208059925585985">
<ele>239.79999999999995</ele>
<time>2023-05-16T13:25:35Z</time>
</trkpt>
<trkpt lat="49.0448129363358" lon="9.208014998584986">
<ele>240</ele>
<time>2023-05-16T13:25:36Z</time>
</trkpt>
<trkpt lat="49.044819977134466" lon="9.207967976108193">
<ele>240.20000000000005</ele>
<time>2023-05-16T13:25:37Z</time>
</trkpt>
<trkpt lat="49.04482492245734" lon="9.20791793614626">
<ele>240.60000000000002</ele>
<time>2023-05-16T13:25:38Z</time>
</trkpt>
<trkpt lat="49.04482995159924" lon="9.207866974174976">
<ele>240.79999999999995</ele>
<time>2023-05-16T13:25:39Z</time>
</trkpt>
<trkpt lat="49.044836992397904" lon="9.207817940041423">
<ele>241.20000000000005</ele>
<time>2023-05-16T13:25:40Z</time>
</trkpt>
<trkpt lat="49.044842943549156" lon="9.207771923393011">
<ele>241.39999999999998</ele>
<time>2023-05-16T13:25:41Z</time>
</trkpt>
<trkpt lat="49.04484797269106" lon="9.20772498473525">
<ele>241.79999999999995</ele>
<time>2023-05-16T13:25:42Z</time>
</trkpt>
<trkpt lat="49.04485291801393" lon="9.207677962258458">
<ele>242</ele>
<time>2023-05-16T13:25:43Z</time>
</trkpt>
<trkpt lat="49.044859958812594" lon="9.207632951438427">
<ele>242.39999999999998</ele>
<time>2023-05-16T13:25:44Z</time>
</trkpt>
<trkpt lat="49.04486792162061" lon="9.207587940618396">
<ele>242.60000000000002</ele>
<time>2023-05-16T13:25:45Z</time>
</trkpt>
<trkpt lat="49.04487295076251" lon="9.207539996132255">
<ele>243</ele>
<time>2023-05-16T13:25:46Z</time>
</trkpt>
<trkpt lat="49.044879991561174" lon="9.207496996968985">
<ele>243.39999999999998</ele>
<time>2023-05-16T13:25:47Z</time>
</trkpt>
<trkpt lat="49.044884936884046" lon="9.207452991977334">
<ele>243.60000000000002</ele>
<time>2023-05-16T13:25:48Z</time>
</trkpt>
<trkpt lat="49.04489197768271" lon="9.207409992814064">
<ele>244</ele>
<time>2023-05-16T13:25:49Z</time>
</trkpt>
<trkpt lat="49.04489692300558" lon="9.207367999479175">
<ele>244.20000000000005</ele>
<time>2023-05-16T13:25:50Z</time>
</trkpt>
<trkpt lat="49.044904969632626" lon="9.207327933982015">
<ele>244.39999999999998</ele>
<time>2023-05-16T13:25:51Z</time>
</trkpt>
<trkpt lat="49.04491192661226" lon="9.207287952303886">
<ele>244.79999999999995</ele>
<time>2023-05-16T13:25:52Z</time>
</trkpt>
<trkpt lat="49.04491796158254" lon="9.207247970625758">
<ele>245</ele>
<time>2023-05-16T13:25:53Z</time>
</trkpt>
<trkpt lat="49.044924918562174" lon="9.207202959805727">
<ele>245.20000000000005</ele>
<time>2023-05-16T13:25:54Z</time>
</trkpt>
<trkpt lat="49.04492994770408" lon="9.207161972299218">
<ele>245.39999999999998</ele>
<time>2023-05-16T13:25:55Z</time>
</trkpt>
<trkpt lat="49.04493698850274" lon="9.207116961479187">
<ele>245.60000000000002</ele>
<time>2023-05-16T13:25:56Z</time>
</trkpt>
<trkpt lat="49.04494293965399" lon="9.207071950659156">
<ele>246</ele>
<time>2023-05-16T13:25:57Z</time>
</trkpt>
<trkpt lat="49.04495199210942" lon="9.207022916525602">
<ele>246.20000000000005</ele>
<time>2023-05-16T13:25:58Z</time>
</trkpt>
<trkpt lat="49.04495794326067" lon="9.206976983696222">
<ele>246.39999999999998</ele>
<time>2023-05-16T13:25:59Z</time>
</trkpt>
<trkpt lat="49.044964984059334" lon="9.206931972876191">
<ele>246.60000000000002</ele>
<time>2023-05-16T13:26:00Z</time>
</trkpt>
<trkpt lat="49.04497294686735" lon="9.20688696205616">
<ele>246.79999999999995</ele>
<time>2023-05-16T13:26:01Z</time>
</trkpt>
<trkpt lat="49.04498199932277" lon="9.206841951236129">
<ele>247</ele>
<time>2023-05-16T13:26:02Z</time>
</trkpt>
<trkpt lat="49.044989962130785" lon="9.206794928759336">
<ele>247.20000000000005</ele>
<time>2023-05-16T13:26:03Z</time>
</trkpt>
<trkpt lat="49.0449979249388" lon="9.206749917939305">
<ele>247.39999999999998</ele>
<time>2023-05-16T13:26:04Z</time>
</trkpt>
<trkpt lat="49.04500496573746" lon="9.206707924604416">
<ele>247.60000000000002</ele>
<time>2023-05-16T13:26:05Z</time>
</trkpt>
<trkpt lat="49.045011922717094" lon="9.206662997603416">
<ele>247.79999999999995</ele>
<time>2023-05-16T13:26:06Z</time>
</trkpt>
<trkpt lat="49.04501996934414" lon="9.206621926277876">
<ele>248</ele>
<time>2023-05-16T13:26:07Z</time>
</trkpt>
<trkpt lat="49.04502692632377" lon="9.206577921286225">
<ele>248</ele>
<time>2023-05-16T13:26:08Z</time>
</trkpt>
<trkpt lat="49.045031955465674" lon="9.206536933779716">
<ele>248.20000000000005</ele>
<time>2023-05-16T13:26:09Z</time>
</trkpt>
<trkpt lat="49.04503799043596" lon="9.206494940444827">
<ele>248.39999999999998</ele>
<time>2023-05-16T13:26:10Z</time>
</trkpt>
<trkpt lat="49.04504494741559" lon="9.206454958766699">
<ele>248.60000000000002</ele>
<time>2023-05-16T13:26:11Z</time>
</trkpt>
<trkpt lat="49.045051988214254" lon="9.20641296543181">
<ele>248.60000000000002</ele>
<time>2023-05-16T13:26:12Z</time>
</trkpt>
<trkpt lat="49.045056933537126" lon="9.20636996626854">
<ele>248.79999999999995</ele>
<time>2023-05-16T13:26:13Z</time>
</trkpt>
<trkpt lat="49.04506296850741" lon="9.20632696710527">
<ele>249</ele>
<time>2023-05-16T13:26:14Z</time>
</trkpt>
<trkpt lat="49.04506992548704" lon="9.206279944628477">
<ele>249</ele>
<time>2023-05-16T13:26:15Z</time>
</trkpt>
<trkpt lat="49.045076966285706" lon="9.206234933808446">
<ele>249.20000000000005</ele>
<time>2023-05-16T13:26:16Z</time>
</trkpt>
<trkpt lat="49.04508291743696" lon="9.206186989322305">
<ele>249.39999999999998</ele>
<time>2023-05-16T13:26:17Z</time>
</trkpt>
<trkpt lat="49.04508995823562" lon="9.206137955188751">
<ele>249.60000000000002</ele>
<time>2023-05-16T13:26:18Z</time>
</trkpt>
<trkpt lat="49.045096999034286" lon="9.206086993217468">
<ele>249.60000000000002</ele>
<time>2023-05-16T13:26:19Z</time>
</trkpt>
<trkpt lat="49.04510697349906" lon="9.206036953255534">
<ele>249.79999999999995</ele>
<time>2023-05-16T13:26:20Z</time>
</trkpt>
<trkpt lat="49.04511493630707" lon="9.20598498545587">
<ele>249.79999999999995</ele>
<time>2023-05-16T13:26:21Z</time>
</trkpt>
<trkpt lat="49.04512197710574" lon="9.205931928008795">
<ele>250</ele>
<time>2023-05-16T13:26:22Z</time>
</trkpt>
<trkpt lat="49.04512993991375" lon="9.20587794855237">
<ele>250</ele>
<time>2023-05-16T13:26:23Z</time>
</trkpt>
<trkpt lat="49.045136980712414" lon="9.205824974924326">
<ele>250.20000000000005</ele>
<time>2023-05-16T13:26:24Z</time>
</trkpt>
<trkpt lat="49.04514494352043" lon="9.20577191747725">
<ele>250.20000000000005</ele>
<time>2023-05-16T13:26:25Z</time>
</trkpt>
<trkpt lat="49.04515299014747" lon="9.205716932192445">
<ele>250.39999999999998</ele>
<time>2023-05-16T13:26:26Z</time>
</trkpt>
<trkpt lat="49.045162964612246" lon="9.205659935250878">
<ele>250.39999999999998</ele>
<time>2023-05-16T13:26:27Z</time>
</trkpt>
<trkpt lat="49.04517193324864" lon="9.205602938309312">
<ele>250.60000000000002</ele>
<time>2023-05-16T13:26:28Z</time>
</trkpt>
<trkpt lat="49.045179979875684" lon="9.205547953024507">
<ele>250.60000000000002</ele>
<time>2023-05-16T13:26:29Z</time>
</trkpt>
<trkpt lat="49.0451879426837" lon="9.20549196191132">
<ele>250.79999999999995</ele>
<time>2023-05-16T13:26:30Z</time>
</trkpt>
<trkpt lat="49.04519498348236" lon="9.205432953312993">
<ele>250.79999999999995</ele>
<time>2023-05-16T13:26:31Z</time>
</trkpt>
<trkpt lat="49.045202946290374" lon="9.205379979684949">
<ele>250.79999999999995</ele>
<time>2023-05-16T13:26:32Z</time>
</trkpt>
<trkpt lat="49.04520998708904" lon="9.205324994400144">
<ele>250.79999999999995</ele>
<time>2023-05-16T13:26:33Z</time>
</trkpt>
<trkpt lat="49.04521694406867" lon="9.205269925296307">
<ele>251</ele>
<time>2023-05-16T13:26:34Z</time>
</trkpt>
<trkpt lat="49.045226918533444" lon="9.20521292835474">
<ele>251</ele>
<time>2023-05-16T13:26:35Z</time>
</trkpt>
<trkpt lat="49.04523496516049" lon="9.205154925584793">
<ele>251</ele>
<time>2023-05-16T13:26:36Z</time>
</trkpt>
<trkpt lat="49.045246951282024" lon="9.205096922814846">
<ele>251.20000000000005</ele>
<time>2023-05-16T13:26:37Z</time>
</trkpt>
<trkpt lat="49.04525298625231" lon="9.20503799803555">
<ele>251.20000000000005</ele>
<time>2023-05-16T13:26:38Z</time>
</trkpt>
<trkpt lat="49.04526497237384" lon="9.204979995265603">
<ele>251.39999999999998</ele>
<time>2023-05-16T13:26:39Z</time>
</trkpt>
<trkpt lat="49.045272935181856" lon="9.204921992495656">
<ele>251.39999999999998</ele>
<time>2023-05-16T13:26:40Z</time>
</trkpt>
<trkpt lat="49.04528198763728" lon="9.20486499555409">
<ele>251.39999999999998</ele>
<time>2023-05-16T13:26:41Z</time>
</trkpt>
<trkpt lat="49.045291962102056" lon="9.204807998612523">
<ele>251.39999999999998</ele>
<time>2023-05-16T13:26:42Z</time>
</trkpt>
<trkpt lat="49.04529992491007" lon="9.204749995842576">
<ele>251.60000000000002</ele>
<time>2023-05-16T13:26:43Z</time>
</trkpt>
<trkpt lat="49.04530696570873" lon="9.20469299890101">
<ele>251.60000000000002</ele>
<time>2023-05-16T13:26:44Z</time>
</trkpt>
<trkpt lat="49.045314928516746" lon="9.204634996131063">
<ele>251.60000000000002</ele>
<time>2023-05-16T13:26:45Z</time>
</trkpt>
<trkpt lat="49.04532196931541" lon="9.204576993361115">
<ele>251.60000000000002</ele>
<time>2023-05-16T13:26:46Z</time>
</trkpt>
<trkpt lat="49.04532993212342" lon="9.204517984762788">
<ele>251.79999999999995</ele>
<time>2023-05-16T13:26:47Z</time>
</trkpt>
<trkpt lat="49.04533999040723" lon="9.204462999477983">
<ele>251.79999999999995</ele>
<time>2023-05-16T13:26:48Z</time>
</trkpt>
<trkpt lat="49.045349964872" lon="9.204407930374146">
<ele>251.79999999999995</ele>
<time>2023-05-16T13:26:49Z</time>
</trkpt>
<trkpt lat="49.045356921851635" lon="9.20435294508934">
<ele>251.79999999999995</ele>
<time>2023-05-16T13:26:50Z</time>
</trkpt>
<trkpt lat="49.04536496847868" lon="9.204299971461296">
<ele>251.79999999999995</ele>
<time>2023-05-16T13:26:51Z</time>
</trkpt>
<trkpt lat="49.04537293128669" lon="9.2042479198426">
<ele>251.79999999999995</ele>
<time>2023-05-16T13:26:52Z</time>
</trkpt>
<trkpt lat="49.04538198374212" lon="9.204194946214557">
<ele>251.79999999999995</ele>
<time>2023-05-16T13:26:53Z</time>
</trkpt>
<trkpt lat="49.04538994655013" lon="9.20413794927299">
<ele>251.79999999999995</ele>
<time>2023-05-16T13:26:54Z</time>
</trkpt>
<trkpt lat="49.045397993177176" lon="9.204081958159804">
<ele>251.79999999999995</ele>
<time>2023-05-16T13:26:55Z</time>
</trkpt>
<trkpt lat="49.04540796764195" lon="9.204021943733096">
<ele>252</ele>
<time>2023-05-16T13:26:56Z</time>
</trkpt>
<trkpt lat="49.045417942106724" lon="9.203959917649627">
<ele>252</ele>
<time>2023-05-16T13:26:57Z</time>
</trkpt>
<trkpt lat="49.0454279165715" lon="9.20389998704195">
<ele>252</ele>
<time>2023-05-16T13:26:58Z</time>
</trkpt>
<trkpt lat="49.045437974855304" lon="9.203841984272003">
<ele>252</ele>
<time>2023-05-16T13:26:59Z</time>
</trkpt>
<trkpt lat="49.04544794932008" lon="9.203782975673676">
<ele>252</ele>
<time>2023-05-16T13:27:00Z</time>
</trkpt>
<trkpt lat="49.04545691795647" lon="9.203724972903728">
<ele>252</ele>
<time>2023-05-16T13:27:01Z</time>
</trkpt>
<trkpt lat="49.04546697624028" lon="9.203667975962162">
<ele>252</ele>
<time>2023-05-16T13:27:02Z</time>
</trkpt>
<trkpt lat="49.04547795653343" lon="9.203611984848976">
<ele>251.79999999999995</ele>
<time>2023-05-16T13:27:03Z</time>
</trkpt>
<trkpt lat="49.045486925169826" lon="9.20355699956417">
<ele>251.79999999999995</ele>
<time>2023-05-16T13:27:04Z</time>
</trkpt>
<trkpt lat="49.04549497179687" lon="9.203497990965843">
<ele>251.79999999999995</ele>
<time>2023-05-16T13:27:05Z</time>
</trkpt>
<trkpt lat="49.04550293460488" lon="9.203439988195896">
<ele>251.79999999999995</ele>
<time>2023-05-16T13:27:06Z</time>
</trkpt>
<trkpt lat="49.04551198706031" lon="9.20338491909206">
<ele>251.79999999999995</ele>
<time>2023-05-16T13:27:07Z</time>
</trkpt>
<trkpt lat="49.04552196152508" lon="9.203327922150493">
<ele>251.79999999999995</ele>
<time>2023-05-16T13:27:08Z</time>
</trkpt>
<trkpt lat="49.04553294181824" lon="9.203271931037307">
<ele>251.79999999999995</ele>
<time>2023-05-16T13:27:09Z</time>
</trkpt>
<trkpt lat="49.04554291628301" lon="9.20321292243898">
<ele>251.79999999999995</ele>
<time>2023-05-16T13:27:10Z</time>
</trkpt>
<trkpt lat="49.04555297456682" lon="9.203154919669032">
<ele>251.60000000000002</ele>
<time>2023-05-16T13:27:11Z</time>
</trkpt>
<trkpt lat="49.04556194320321" lon="9.203099934384227">
<ele>251.60000000000002</ele>
<time>2023-05-16T13:27:12Z</time>
</trkpt>
<trkpt lat="49.045569989830256" lon="9.20304193161428">
<ele>251.60000000000002</ele>
<time>2023-05-16T13:27:13Z</time>
</trkpt>
<trkpt lat="49.04557694680989" lon="9.202982923015952">
<ele>251.60000000000002</ele>
<time>2023-05-16T13:27:14Z</time>
</trkpt>
<trkpt lat="49.04558197595179" lon="9.202926931902766">
<ele>251.60000000000002</ele>
<time>2023-05-16T13:27:15Z</time>
</trkpt>
<trkpt lat="49.04558792710304" lon="9.202866917476058">
<ele>251.60000000000002</ele>
<time>2023-05-16T13:27:16Z</time>
</trkpt>
<trkpt lat="49.045592956244946" lon="9.202807992696762">
<ele>251.39999999999998</ele>
<time>2023-05-16T13:27:17Z</time>
</trkpt>
<trkpt lat="49.04559496790171" lon="9.202751917764544">
<ele>251.39999999999998</ele>
<time>2023-05-16T13:27:18Z</time>
</trkpt>
<trkpt lat="49.045592956244946" lon="9.202692992985249">
<ele>251.39999999999998</ele>
<time>2023-05-16T13:27:19Z</time>
</trkpt>
<trkpt lat="49.045591950416565" lon="9.20263197273016">
<ele>251.20000000000005</ele>
<time>2023-05-16T13:27:20Z</time>
</trkpt>
<trkpt lat="49.04558792710304" lon="9.202566929161549">
<ele>251.20000000000005</ele>
<time>2023-05-16T13:27:21Z</time>
</trkpt>
<trkpt lat="49.04558499343693" lon="9.20250297524035">
<ele>251.20000000000005</ele>
<time>2023-05-16T13:27:22Z</time>
</trkpt>
<trkpt lat="49.04558298178017" lon="9.202437931671739">
<ele>251.20000000000005</ele>
<time>2023-05-16T13:27:23Z</time>
</trkpt>
<trkpt lat="49.04558298178017" lon="9.202376995235682">
<ele>251.20000000000005</ele>
<time>2023-05-16T13:27:24Z</time>
</trkpt>
<trkpt lat="49.04557996429503" lon="9.20231195166707">
<ele>251</ele>
<time>2023-05-16T13:27:25Z</time>
</trkpt>
<trkpt lat="49.045572923496366" lon="9.202242968603969">
<ele>251</ele>
<time>2023-05-16T13:27:26Z</time>
</trkpt>
<trkpt lat="49.045566972345114" lon="9.202172979712486">
<ele>251</ele>
<time>2023-05-16T13:27:27Z</time>
</trkpt>
<trkpt lat="49.04555993154645" lon="9.202102990821004">
<ele>250.79999999999995</ele>
<time>2023-05-16T13:27:28Z</time>
</trkpt>
<trkpt lat="49.04555196873844" lon="9.202031996101141">
<ele>250.79999999999995</ele>
<time>2023-05-16T13:27:29Z</time>
</trkpt>
<trkpt lat="49.04554492793977" lon="9.201956978067756">
<ele>250.60000000000002</ele>
<time>2023-05-16T13:27:30Z</time>
</trkpt>
<trkpt lat="49.0455399826169" lon="9.201886989176273">
<ele>250.60000000000002</ele>
<time>2023-05-16T13:27:31Z</time>
</trkpt>
<trkpt lat="49.045534953475" lon="9.201809959486127">
<ele>250.60000000000002</ele>
<time>2023-05-16T13:27:32Z</time>
</trkpt>
<trkpt lat="49.045526990666986" lon="9.2017319239676">
<ele>250.60000000000002</ele>
<time>2023-05-16T13:27:33Z</time>
</trkpt>
<trkpt lat="49.04551693238318" lon="9.201651960611343">
<ele>250.39999999999998</ele>
<time>2023-05-16T13:27:34Z</time>
</trkpt>
<trkpt lat="49.045507963746786" lon="9.201574930921197">
<ele>250.39999999999998</ele>
<time>2023-05-16T13:27:35Z</time>
</trkpt>
<trkpt lat="49.04549991711974" lon="9.201501924544573">
<ele>250.20000000000005</ele>
<time>2023-05-16T13:27:36Z</time>
</trkpt>
<trkpt lat="49.04549195431173" lon="9.201424978673458">
<ele>250</ele>
<time>2023-05-16T13:27:37Z</time>
</trkpt>
<trkpt lat="49.045482985675335" lon="9.201349960640073">
<ele>250</ele>
<time>2023-05-16T13:27:38Z</time>
</trkpt>
<trkpt lat="49.04547695070505" lon="9.20127796009183">
<ele>250</ele>
<time>2023-05-16T13:27:39Z</time>
</trkpt>
<trkpt lat="49.04546999372542" lon="9.201202942058444">
<ele>249.79999999999995</ele>
<time>2023-05-16T13:27:40Z</time>
</trkpt>
<trkpt lat="49.045461947098374" lon="9.201131947338581">
<ele>249.79999999999995</ele>
<time>2023-05-16T13:27:41Z</time>
</trkpt>
<trkpt lat="49.04545297846198" lon="9.201056929305196">
<ele>249.60000000000002</ele>
<time>2023-05-16T13:27:42Z</time>
</trkpt>
<trkpt lat="49.0454469434917" lon="9.200984928756952">
<ele>249.60000000000002</ele>
<time>2023-05-16T13:27:43Z</time>
</trkpt>
<trkpt lat="49.045441998168826" lon="9.200912928208709">
<ele>249.60000000000002</ele>
<time>2023-05-16T13:27:44Z</time>
</trkpt>
<trkpt lat="49.04543495737016" lon="9.200842939317226">
<ele>249.60000000000002</ele>
<time>2023-05-16T13:27:45Z</time>
</trkpt>
<trkpt lat="49.0454279165715" lon="9.200772950425744">
<ele>249.39999999999998</ele>
<time>2023-05-16T13:27:46Z</time>
</trkpt>
<trkpt lat="49.045419953763485" lon="9.200704973191023">
<ele>249.39999999999998</ele>
<time>2023-05-16T13:27:47Z</time>
</trkpt>
<trkpt lat="49.04541199095547" lon="9.20063791796565">
<ele>249.39999999999998</ele>
<time>2023-05-16T13:27:48Z</time>
</trkpt>
<trkpt lat="49.04540495015681" lon="9.20057195238769">
<ele>249.20000000000005</ele>
<time>2023-05-16T13:27:49Z</time>
</trkpt>
<trkpt lat="49.045399921014905" lon="9.200506992638111">
<ele>249.20000000000005</ele>
<time>2023-05-16T13:27:50Z</time>
</trkpt>
<trkpt lat="49.045396987348795" lon="9.200444966554642">
<ele>249</ele>
<time>2023-05-16T13:27:51Z</time>
</trkpt>
<trkpt lat="49.045396987348795" lon="9.200382940471172">
<ele>249</ele>
<time>2023-05-16T13:27:52Z</time>
</trkpt>
<trkpt lat="49.045401932671666" lon="9.200324937701225">
<ele>248.79999999999995</ele>
<time>2023-05-16T13:27:53Z</time>
</trkpt>
<trkpt lat="49.04540696181357" lon="9.200266934931278">
<ele>248.79999999999995</ele>
<time>2023-05-16T13:27:54Z</time>
</trkpt>
<trkpt lat="49.04540997929871" lon="9.20020298101008">
<ele>248.79999999999995</ele>
<time>2023-05-16T13:27:55Z</time>
</trkpt>
<trkpt lat="49.04540997929871" lon="9.200134919956326">
<ele>248.79999999999995</ele>
<time>2023-05-16T13:27:56Z</time>
</trkpt>
<trkpt lat="49.04540796764195" lon="9.200066942721605">
<ele>248.79999999999995</ele>
<time>2023-05-16T13:27:57Z</time>
</trkpt>
<trkpt lat="49.04540696181357" lon="9.199996953830123">
<ele>248.60000000000002</ele>
<time>2023-05-16T13:27:58Z</time>
</trkpt>
<trkpt lat="49.04540495015681" lon="9.199921935796738">
<ele>248.60000000000002</ele>
<time>2023-05-16T13:27:59Z</time>
</trkpt>
<trkpt lat="49.04540495015681" lon="9.199847923591733">
<ele>248.60000000000002</ele>
<time>2023-05-16T13:28:00Z</time>
</trkpt>
<trkpt lat="49.04540696181357" lon="9.19977298937738">
<ele>248.60000000000002</ele>
<time>2023-05-16T13:28:01Z</time>
</trkpt>
<trkpt lat="49.04540796764195" lon="9.199699983000755">
<ele>248.60000000000002</ele>
<time>2023-05-16T13:28:02Z</time>
</trkpt>
<trkpt lat="49.04540997929871" lon="9.199626976624131">
<ele>248.60000000000002</ele>
<time>2023-05-16T13:28:03Z</time>
</trkpt>
<trkpt lat="49.04540796764195" lon="9.199551958590746">
<ele>248.39999999999998</ele>
<time>2023-05-16T13:28:04Z</time>
</trkpt>
<trkpt lat="49.04540796764195" lon="9.1994749289006">
<ele>248.39999999999998</ele>
<time>2023-05-16T13:28:05Z</time>
</trkpt>
<trkpt lat="49.04540696181357" lon="9.199397983029485">
<ele>248.20000000000005</ele>
<time>2023-05-16T13:28:06Z</time>
</trkpt>
<trkpt lat="49.04540696181357" lon="9.199321959167719">
<ele>248.20000000000005</ele>
<time>2023-05-16T13:28:07Z</time>
</trkpt>
<trkpt lat="49.04540495015681" lon="9.199239984154701">
<ele>248</ele>
<time>2023-05-16T13:28:08Z</time>
</trkpt>
<trkpt lat="49.045399921014905" lon="9.199159936979413">
<ele>247.79999999999995</ele>
<time>2023-05-16T13:28:09Z</time>
</trkpt>
<trkpt lat="49.045394975692034" lon="9.199079973623157">
<ele>247.60000000000002</ele>
<time>2023-05-16T13:28:10Z</time>
</trkpt>
<trkpt lat="49.04538692906499" lon="9.198996992781758">
<ele>247.39999999999998</ele>
<time>2023-05-16T13:28:11Z</time>
</trkpt>
<trkpt lat="49.04537997208536" lon="9.198909988626838">
<ele>247.20000000000005</ele>
<time>2023-05-16T13:28:12Z</time>
</trkpt>
<trkpt lat="49.045374942943454" lon="9.198822984471917">
<ele>247</ele>
<time>2023-05-16T13:28:13Z</time>
</trkpt>
<trkpt lat="49.045374942943454" lon="9.198736986145377">
<ele>246.79999999999995</ele>
<time>2023-05-16T13:28:14Z</time>
</trkpt>
<trkpt lat="49.04537997208536" lon="9.198651993647218">
<ele>246.60000000000002</ele>
<time>2023-05-16T13:28:15Z</time>
</trkpt>
<trkpt lat="49.0453829895705" lon="9.198562977835536">
<ele>246.39999999999998</ele>
<time>2023-05-16T13:28:16Z</time>
</trkpt>
<trkpt lat="49.04538692906499" lon="9.198474967852235">
<ele>246.20000000000005</ele>
<time>2023-05-16T13:28:17Z</time>
</trkpt>
<trkpt lat="49.04538692906499" lon="9.198384946212173">
<ele>246</ele>
<time>2023-05-16T13:28:18Z</time>
</trkpt>
<trkpt lat="49.04538491740823" lon="9.198296936228871">
<ele>245.79999999999995</ele>
<time>2023-05-16T13:28:19Z</time>
</trkpt>
<trkpt lat="49.04538491740823" lon="9.19820699840784">
<ele>245.39999999999998</ele>
<time>2023-05-16T13:28:20Z</time>
</trkpt>
<trkpt lat="49.04538198374212" lon="9.198112953454256">
<ele>245.20000000000005</ele>
<time>2023-05-16T13:28:21Z</time>
</trkpt>
<trkpt lat="49.04537997208536" lon="9.198017986491323">
<ele>245</ele>
<time>2023-05-16T13:28:22Z</time>
</trkpt>
<trkpt lat="49.04538198374212" lon="9.19792796485126">
<ele>244.79999999999995</ele>
<time>2023-05-16T13:28:23Z</time>
</trkpt>
<trkpt lat="49.0453829895705" lon="9.19784196652472">
<ele>244.79999999999995</ele>
<time>2023-05-16T13:28:24Z</time>
</trkpt>
<trkpt lat="49.0453829895705" lon="9.197757979854941">
<ele>244.60000000000002</ele>
<time>2023-05-16T13:28:25Z</time>
</trkpt>
<trkpt lat="49.04538692906499" lon="9.197679944336414">
<ele>244.60000000000002</ele>
<time>2023-05-16T13:28:26Z</time>
</trkpt>
<trkpt lat="49.04538793489337" lon="9.1976029984653">
<ele>244.39999999999998</ele>
<time>2023-05-16T13:28:27Z</time>
</trkpt>
<trkpt lat="49.04538994655013" lon="9.197526974603534">
<ele>244.20000000000005</ele>
<time>2023-05-16T13:28:28Z</time>
</trkpt>
<trkpt lat="49.04539296403527" lon="9.197451956570148">
<ele>244.20000000000005</ele>
<time>2023-05-16T13:28:29Z</time>
</trkpt>
<trkpt lat="49.045397993177176" lon="9.197376938536763">
<ele>244</ele>
<time>2023-05-16T13:28:30Z</time>
</trkpt>
<trkpt lat="49.045401932671666" lon="9.197301920503378">
<ele>243.79999999999995</ele>
<time>2023-05-16T13:28:31Z</time>
</trkpt>
<trkpt lat="49.04540495015681" lon="9.197227992117405">
<ele>243.79999999999995</ele>
<time>2023-05-16T13:28:32Z</time>
</trkpt>
<trkpt lat="49.04540495015681" lon="9.19715498574078">
<ele>243.60000000000002</ele>
<time>2023-05-16T13:28:33Z</time>
</trkpt>
<trkpt lat="49.04540696181357" lon="9.197084996849298">
<ele>243.39999999999998</ele>
<time>2023-05-16T13:28:34Z</time>
</trkpt>
<trkpt lat="49.04540696181357" lon="9.197011990472674">
<ele>243.20000000000005</ele>
<time>2023-05-16T13:28:35Z</time>
</trkpt>
<trkpt lat="49.04540495015681" lon="9.19693998992443">
<ele>243.20000000000005</ele>
<time>2023-05-16T13:28:36Z</time>
</trkpt>
<trkpt lat="49.04540293850005" lon="9.196866983547807">
<ele>243</ele>
<time>2023-05-16T13:28:37Z</time>
</trkpt>
<trkpt lat="49.045401932671666" lon="9.196792971342802">
<ele>242.79999999999995</ele>
<time>2023-05-16T13:28:38Z</time>
</trkpt>
<trkpt lat="49.045396987348795" lon="9.196717953309417">
<ele>242.79999999999995</ele>
<time>2023-05-16T13:28:39Z</time>
</trkpt>
<trkpt lat="49.04538793489337" lon="9.196641929447651">
<ele>242.60000000000002</ele>
<time>2023-05-16T13:28:40Z</time>
</trkpt>
<trkpt lat="49.04537997208536" lon="9.196561966091394">
<ele>242.39999999999998</ele>
<time>2023-05-16T13:28:41Z</time>
</trkpt>
<trkpt lat="49.04537192545831" lon="9.196482924744487">
<ele>242.20000000000005</ele>
<time>2023-05-16T13:28:42Z</time>
</trkpt>
<trkpt lat="49.04536496847868" lon="9.196406984701753">
<ele>242</ele>
<time>2023-05-16T13:28:43Z</time>
</trkpt>
<trkpt lat="49.04535993933678" lon="9.196331966668367">
<ele>241.79999999999995</ele>
<time>2023-05-16T13:28:44Z</time>
</trkpt>
<trkpt lat="49.045354994013906" lon="9.196257954463363">
<ele>241.60000000000002</ele>
<time>2023-05-16T13:28:45Z</time>
</trkpt>
<trkpt lat="49.04534694738686" lon="9.1961869597435">
<ele>241.39999999999998</ele>
<time>2023-05-16T13:28:46Z</time>
</trkpt>
<trkpt lat="49.04533999040723" lon="9.196111941710114">
<ele>241.20000000000005</ele>
<time>2023-05-16T13:28:47Z</time>
</trkpt>
<trkpt lat="49.04533999040723" lon="9.196032984182239">
<ele>241</ele>
<time>2023-05-16T13:28:48Z</time>
</trkpt>
<trkpt lat="49.04533797875047" lon="9.195956960320473">
<ele>240.79999999999995</ele>
<time>2023-05-16T13:28:49Z</time>
</trkpt>
<trkpt lat="49.04533797875047" lon="9.195881942287087">
<ele>240.60000000000002</ele>
<time>2023-05-16T13:28:50Z</time>
</trkpt>
<trkpt lat="49.04533999040723" lon="9.19579996727407">
<ele>240.39999999999998</ele>
<time>2023-05-16T13:28:51Z</time>
</trkpt>
<trkpt lat="49.045332949608564" lon="9.195717992261052">
<ele>240.20000000000005</ele>
<time>2023-05-16T13:28:52Z</time>
</trkpt>
<trkpt lat="49.04532792046666" lon="9.195631993934512">
<ele>239.79999999999995</ele>
<time>2023-05-16T13:28:53Z</time>
</trkpt>
<trkpt lat="49.04532196931541" lon="9.19554197229445">
<ele>239.60000000000002</ele>
<time>2023-05-16T13:28:54Z</time>
</trkpt>
<trkpt lat="49.045311994850636" lon="9.195449938997626">
<ele>239.39999999999998</ele>
<time>2023-05-16T13:28:55Z</time>
</trkpt>
<trkpt lat="49.04530294239521" lon="9.195357989519835">
<ele>239.20000000000005</ele>
<time>2023-05-16T13:28:56Z</time>
</trkpt>
<trkpt lat="49.04529699124396" lon="9.19526293873787">
<ele>239</ele>
<time>2023-05-16T13:28:57Z</time>
</trkpt>
<trkpt lat="49.045289950445294" lon="9.195166965946555">
<ele>238.79999999999995</ele>
<time>2023-05-16T13:28:58Z</time>
</trkpt>
<trkpt lat="49.04528492130339" lon="9.19507292099297">
<ele>238.60000000000002</ele>
<time>2023-05-16T13:28:59Z</time>
</trkpt>
<trkpt lat="49.04527695849538" lon="9.194979965686798">
<ele>238.60000000000002</ele>
<time>2023-05-16T13:29:00Z</time>
</trkpt>
<trkpt lat="49.045269917696714" lon="9.194886926561594">
<ele>238.39999999999998</ele>
<time>2023-05-16T13:29:01Z</time>
</trkpt>
<trkpt lat="49.04525994323194" lon="9.194792965427041">
<ele>238.20000000000005</ele>
<time>2023-05-16T13:29:02Z</time>
</trkpt>
<trkpt lat="49.04525499790907" lon="9.194697998464108">
<ele>238</ele>
<time>2023-05-16T13:29:03Z</time>
</trkpt>
<trkpt lat="49.045249968767166" lon="9.194606970995665">
<ele>238</ele>
<time>2023-05-16T13:29:04Z</time>
</trkpt>
<trkpt lat="49.04524493962526" lon="9.194519966840744">
<ele>237.79999999999995</ele>
<time>2023-05-16T13:29:05Z</time>
</trkpt>
<trkpt lat="49.0452429279685" lon="9.194437991827726">
<ele>237.60000000000002</ele>
<time>2023-05-16T13:29:06Z</time>
</trkpt>
<trkpt lat="49.04523697681725" lon="9.1943599563092">
<ele>237.39999999999998</ele>
<time>2023-05-16T13:29:07Z</time>
</trkpt>
<trkpt lat="49.04523194767535" lon="9.194286949932575">
<ele>237.20000000000005</ele>
<time>2023-05-16T13:29:08Z</time>
</trkpt>
<trkpt lat="49.045226918533444" lon="9.194222996011376">
<ele>237</ele>
<time>2023-05-16T13:29:09Z</time>
</trkpt>
<trkpt lat="49.04521996155381" lon="9.19416792690754">
<ele>236.79999999999995</ele>
<time>2023-05-16T13:29:10Z</time>
</trkpt>
<trkpt lat="49.04521493241191" lon="9.194116964936256">
<ele>236.60000000000002</ele>
<time>2023-05-16T13:29:11Z</time>
</trkpt>
<trkpt lat="49.04520998708904" lon="9.194062985479832">
<ele>236.60000000000002</ele>
<time>2023-05-16T13:29:12Z</time>
</trkpt>
<trkpt lat="49.045204957947135" lon="9.194009928032756">
<ele>236.39999999999998</ele>
<time>2023-05-16T13:29:13Z</time>
</trkpt>
<trkpt lat="49.04520194046199" lon="9.193956954404712">
<ele>236.20000000000005</ele>
<time>2023-05-16T13:29:14Z</time>
</trkpt>
<trkpt lat="49.04520194046199" lon="9.193897945806384">
<ele>236</ele>
<time>2023-05-16T13:29:15Z</time>
</trkpt>
<trkpt lat="49.045206969603896" lon="9.193839943036437">
<ele>235.79999999999995</ele>
<time>2023-05-16T13:29:16Z</time>
</trkpt>
<trkpt lat="49.04521493241191" lon="9.19378194026649">
<ele>235.60000000000002</ele>
<time>2023-05-16T13:29:17Z</time>
</trkpt>
<trkpt lat="49.04522197321057" lon="9.193724943324924">
<ele>235.60000000000002</ele>
<time>2023-05-16T13:29:18Z</time>
</trkpt>
<trkpt lat="49.04522197321057" lon="9.193667946383357">
<ele>235.39999999999998</ele>
<time>2023-05-16T13:29:19Z</time>
</trkpt>
<trkpt lat="49.04521694406867" lon="9.19360994361341">
<ele>235.20000000000005</ele>
<time>2023-05-16T13:29:20Z</time>
</trkpt>
<trkpt lat="49.04521794989705" lon="9.193551940843463">
<ele>235.20000000000005</ele>
<time>2023-05-16T13:29:21Z</time>
</trkpt>
<trkpt lat="49.045222979038954" lon="9.193489998579025">
<ele>235</ele>
<time>2023-05-16T13:29:22Z</time>
</trkpt>
<trkpt lat="49.045227924361825" lon="9.193424955010414">
<ele>234.79999999999995</ele>
<time>2023-05-16T13:29:23Z</time>
</trkpt>
<trkpt lat="49.045227924361825" lon="9.193359995260835">
<ele>234.79999999999995</ele>
<time>2023-05-16T13:29:24Z</time>
</trkpt>
<trkpt lat="49.045227924361825" lon="9.193291934207082">
<ele>234.60000000000002</ele>
<time>2023-05-16T13:29:25Z</time>
</trkpt>
<trkpt lat="49.04523194767535" lon="9.19322295114398">
<ele>234.39999999999998</ele>
<time>2023-05-16T13:29:26Z</time>
</trkpt>
<trkpt lat="49.04523295350373" lon="9.193151956424117">
<ele>234.39999999999998</ele>
<time>2023-05-16T13:29:27Z</time>
</trkpt>
<trkpt lat="49.045229936018586" lon="9.193079955875874">
<ele>234.20000000000005</ele>
<time>2023-05-16T13:29:28Z</time>
</trkpt>
<trkpt lat="49.045222979038954" lon="9.193011978641152">
<ele>234</ele>
<time>2023-05-16T13:29:29Z</time>
</trkpt>
<trkpt lat="49.04521493241191" lon="9.192946935072541">
<ele>234</ele>
<time>2023-05-16T13:29:30Z</time>
</trkpt>
<trkpt lat="49.045206969603896" lon="9.192882981151342">
<ele>234</ele>
<time>2023-05-16T13:29:31Z</time>
</trkpt>
<trkpt lat="49.04519791714847" lon="9.192822966724634">
<ele>233.79999999999995</ele>
<time>2023-05-16T13:29:32Z</time>
</trkpt>
<trkpt lat="49.04518995434046" lon="9.192761946469545">
<ele>233.79999999999995</ele>
<time>2023-05-16T13:29:33Z</time>
</trkpt>
<trkpt lat="49.045184925198555" lon="9.192701932042837">
<ele>233.79999999999995</ele>
<time>2023-05-16T13:29:34Z</time>
</trkpt>
<trkpt lat="49.045184925198555" lon="9.1926399897784">
<ele>233.60000000000002</ele>
<time>2023-05-16T13:29:35Z</time>
</trkpt>
<trkpt lat="49.045184925198555" lon="9.192579975351691">
<ele>233.60000000000002</ele>
<time>2023-05-16T13:29:36Z</time>
</trkpt>
<trkpt lat="49.045182997360826" lon="9.192519960924983">
<ele>233.60000000000002</ele>
<time>2023-05-16T13:29:37Z</time>
</trkpt>
<trkpt lat="49.04517696239054" lon="9.192459946498275">
<ele>233.39999999999998</ele>
<time>2023-05-16T13:29:38Z</time>
</trkpt>
<trkpt lat="49.04517293907702" lon="9.192397920414805">
<ele>233.39999999999998</ele>
<time>2023-05-16T13:29:39Z</time>
</trkpt>
<trkpt lat="49.04516799375415" lon="9.192327931523323">
<ele>233.39999999999998</ele>
<time>2023-05-16T13:29:40Z</time>
</trkpt>
<trkpt lat="49.04516497626901" lon="9.19225693680346">
<ele>233.20000000000005</ele>
<time>2023-05-16T13:29:41Z</time>
</trkpt>
<trkpt lat="49.045159947127104" lon="9.192179990932345">
<ele>233</ele>
<time>2023-05-16T13:29:42Z</time>
</trkpt>
<trkpt lat="49.04515299014747" lon="9.192102961242199">
<ele>232.79999999999995</ele>
<time>2023-05-16T13:29:43Z</time>
</trkpt>
<trkpt lat="49.04514695517719" lon="9.1920199804008">
<ele>232.60000000000002</ele>
<time>2023-05-16T13:29:44Z</time>
</trkpt>
<trkpt lat="49.045137986540794" lon="9.191934987902641">
<ele>232.39999999999998</ele>
<time>2023-05-16T13:29:45Z</time>
</trkpt>
<trkpt lat="49.04512993991375" lon="9.19184798374772">
<ele>232.20000000000005</ele>
<time>2023-05-16T13:29:46Z</time>
</trkpt>
<trkpt lat="49.045117953792214" lon="9.19175997376442">
<ele>231.79999999999995</ele>
<time>2023-05-16T13:29:47Z</time>
</trkpt>
<trkpt lat="49.04510697349906" lon="9.191671963781118">
<ele>231.39999999999998</ele>
<time>2023-05-16T13:29:48Z</time>
</trkpt>
<trkpt lat="49.04508995823562" lon="9.191581942141056">
<ele>231</ele>
<time>2023-05-16T13:29:49Z</time>
</trkpt>
<trkpt lat="49.04506992548704" lon="9.191492926329374">
<ele>230.60000000000002</ele>
<time>2023-05-16T13:29:50Z</time>
</trkpt>
<trkpt lat="49.04504695907235" lon="9.191407933831215">
<ele>230.20000000000005</ele>
<time>2023-05-16T13:29:51Z</time>
</trkpt>
<trkpt lat="49.04502298682928" lon="9.191327970474958">
<ele>229.79999999999995</ele>
<time>2023-05-16T13:29:52Z</time>
</trkpt>
<trkpt lat="49.04499993659556" lon="9.19124691747129">
<ele>229.39999999999998</ele>
<time>2023-05-16T13:29:53Z</time>
</trkpt>
<trkpt lat="49.04497998766601" lon="9.191166954115033">
<ele>228.79999999999995</ele>
<time>2023-05-16T13:29:54Z</time>
</trkpt>
<trkpt lat="49.04495794326067" lon="9.191084979102015">
<ele>228.20000000000005</ele>
<time>2023-05-16T13:29:55Z</time>
</trkpt>
<trkpt lat="49.04493799433112" lon="9.191001998260617">
<ele>227.60000000000002</ele>
<time>2023-05-16T13:29:56Z</time>
</trkpt>
<trkpt lat="49.04491695575416" lon="9.190921951085329">
<ele>227</ele>
<time>2023-05-16T13:29:57Z</time>
</trkpt>
<trkpt lat="49.04489792883396" lon="9.19083796441555">
<ele>226.20000000000005</ele>
<time>2023-05-16T13:29:58Z</time>
</trkpt>
<trkpt lat="49.044879991561174" lon="9.190756995230913">
<ele>225.60000000000002</ele>
<time>2023-05-16T13:29:59Z</time>
</trkpt>
<trkpt lat="49.044859958812594" lon="9.190679965540767">
<ele>225</ele>
<time>2023-05-16T13:30:00Z</time>
</trkpt>
<trkpt lat="49.044841937720776" lon="9.19060293585062">
<ele>224.39999999999998</ele>
<time>2023-05-16T13:30:01Z</time>
</trkpt>
<trkpt lat="49.04482492245734" lon="9.190524984151125">
<ele>223.79999999999995</ele>
<time>2023-05-16T13:30:02Z</time>
</trkpt>
<trkpt lat="49.04481193050742" lon="9.190441919490695">
<ele>223.20000000000005</ele>
<time>2023-05-16T13:30:03Z</time>
</trkpt>
<trkpt lat="49.04480296187103" lon="9.190357932820916">
<ele>222.60000000000002</ele>
<time>2023-05-16T13:30:04Z</time>
</trkpt>
<trkpt lat="49.044794999063015" lon="9.190274951979518">
<ele>222</ele>
<time>2023-05-16T13:30:05Z</time>
</trkpt>
<trkpt lat="49.04478795826435" lon="9.190196916460991">
<ele>221.39999999999998</ele>
<time>2023-05-16T13:30:06Z</time>
</trkpt>
<trkpt lat="49.04478192329407" lon="9.190117958933115">
<ele>220.79999999999995</ele>
<time>2023-05-16T13:30:07Z</time>
</trkpt>
<trkpt lat="49.044776977971196" lon="9.190037995576859">
<ele>220.20000000000005</ele>
<time>2023-05-16T13:30:08Z</time>
</trkpt>
<trkpt lat="49.044772954657674" lon="9.189959960058331">
<ele>219.60000000000002</ele>
<time>2023-05-16T13:30:09Z</time>
</trkpt>
<trkpt lat="49.044772954657674" lon="9.189887959510088">
<ele>219</ele>
<time>2023-05-16T13:30:10Z</time>
</trkpt>
<trkpt lat="49.044772954657674" lon="9.189816964790225">
<ele>218.39999999999998</ele>
<time>2023-05-16T13:30:11Z</time>
</trkpt>
<trkpt lat="49.044772954657674" lon="9.18974194675684">
<ele>218</ele>
<time>2023-05-16T13:30:12Z</time>
</trkpt>
<trkpt lat="49.04477194882929" lon="9.189671957865357">
<ele>217.39999999999998</ele>
<time>2023-05-16T13:30:13Z</time>
</trkpt>
<trkpt lat="49.04477194882929" lon="9.189607920125127">
<ele>216.79999999999995</ele>
<time>2023-05-16T13:30:14Z</time>
</trkpt>
<trkpt lat="49.04477194882929" lon="9.18954698368907">
<ele>216.20000000000005</ele>
<time>2023-05-16T13:30:15Z</time>
</trkpt>
<trkpt lat="49.04477194882929" lon="9.1894849576056">
<ele>215.60000000000002</ele>
<time>2023-05-16T13:30:16Z</time>
</trkpt>
<trkpt lat="49.04476993717253" lon="9.18941798619926">
<ele>215</ele>
<time>2023-05-16T13:30:17Z</time>
</trkpt>
<trkpt lat="49.0447629801929" lon="9.189344979822636">
<ele>214.39999999999998</ele>
<time>2023-05-16T13:30:18Z</time>
</trkpt>
<trkpt lat="49.044752921909094" lon="9.18926996178925">
<ele>213.79999999999995</ele>
<time>2023-05-16T13:30:19Z</time>
</trkpt>
<trkpt lat="49.04474495910108" lon="9.189189998432994">
<ele>213.20000000000005</ele>
<time>2023-05-16T13:30:20Z</time>
</trkpt>
<trkpt lat="49.04473699629307" lon="9.189102994278073">
<ele>212.60000000000002</ele>
<time>2023-05-16T13:30:21Z</time>
</trkpt>
<trkpt lat="49.04472693800926" lon="9.189014984294772">
<ele>212</ele>
<time>2023-05-16T13:30:22Z</time>
</trkpt>
<trkpt lat="49.04471696354449" lon="9.188926974311471">
<ele>211.39999999999998</ele>
<time>2023-05-16T13:30:23Z</time>
</trkpt>
<trkpt lat="49.044706989079714" lon="9.188836952671409">
<ele>210.60000000000002</ele>
<time>2023-05-16T13:30:24Z</time>
</trkpt>
<trkpt lat="49.04469693079591" lon="9.188746931031346">
<ele>210</ele>
<time>2023-05-16T13:30:25Z</time>
</trkpt>
<trkpt lat="49.044686956331134" lon="9.188651964068413">
<ele>209.39999999999998</ele>
<time>2023-05-16T13:30:26Z</time>
</trkpt>
<trkpt lat="49.04467798769474" lon="9.188551967963576">
<ele>208.60000000000002</ele>
<time>2023-05-16T13:30:27Z</time>
</trkpt>
<trkpt lat="49.04467295855284" lon="9.18845197185874">
<ele>207.79999999999995</ele>
<time>2023-05-16T13:30:28Z</time>
</trkpt>
<trkpt lat="49.04467195272446" lon="9.188349964097142">
<ele>207.20000000000005</ele>
<time>2023-05-16T13:30:29Z</time>
</trkpt>
<trkpt lat="49.04467195272446" lon="9.188246950507164">
<ele>206.39999999999998</ele>
<time>2023-05-16T13:30:30Z</time>
</trkpt>
<trkpt lat="49.04467798769474" lon="9.188139997422695">
<ele>205.60000000000002</ele>
<time>2023-05-16T13:30:31Z</time>
</trkpt>
<trkpt lat="49.044686956331134" lon="9.188032960519195">
<ele>204.79999999999995</ele>
<time>2023-05-16T13:30:32Z</time>
</trkpt>
<trkpt lat="49.04469793662429" lon="9.187927935272455">
<ele>204</ele>
<time>2023-05-16T13:30:33Z</time>
</trkpt>
<trkpt lat="49.044712940230966" lon="9.187824921682477">
<ele>203.20000000000005</ele>
<time>2023-05-16T13:30:34Z</time>
</trkpt>
<trkpt lat="49.04472794383764" lon="9.18772199191153">
<ele>202.60000000000002</ele>
<time>2023-05-16T13:30:35Z</time>
</trkpt>
<trkpt lat="49.04473992995918" lon="9.187621995806694">
<ele>202</ele>
<time>2023-05-16T13:30:36Z</time>
</trkpt>
<trkpt lat="49.04474797658622" lon="9.187521999701858">
<ele>201.60000000000002</ele>
<time>2023-05-16T13:30:37Z</time>
</trkpt>
<trkpt lat="49.044756945222616" lon="9.18742292560637">
<ele>201.20000000000005</ele>
<time>2023-05-16T13:30:38Z</time>
</trkpt>
<trkpt lat="49.0447629801929" lon="9.187322929501534">
<ele>200.79999999999995</ele>
<time>2023-05-16T13:30:39Z</time>
</trkpt>
<trkpt lat="49.044772954657674" lon="9.18722695671022">
<ele>200.60000000000002</ele>
<time>2023-05-16T13:30:40Z</time>
</trkpt>
<trkpt lat="49.04478192329407" lon="9.187131989747286">
<ele>200.39999999999998</ele>
<time>2023-05-16T13:30:41Z</time>
</trkpt>
<trkpt lat="49.04478996992111" lon="9.187041968107224">
<ele>200</ele>
<time>2023-05-16T13:30:42Z</time>
</trkpt>
<trkpt lat="49.044794999063015" lon="9.186952952295542">
<ele>199.79999999999995</ele>
<time>2023-05-16T13:30:43Z</time>
</trkpt>
<trkpt lat="49.044797932729125" lon="9.186867959797382">
<ele>199.60000000000002</ele>
<time>2023-05-16T13:30:44Z</time>
</trkpt>
<trkpt lat="49.04480195604265" lon="9.186784978955984">
<ele>199.39999999999998</ele>
<time>2023-05-16T13:30:45Z</time>
</trkpt>
<trkpt lat="49.044799944385886" lon="9.186706943437457">
<ele>199.20000000000005</ele>
<time>2023-05-16T13:30:46Z</time>
</trkpt>
<trkpt lat="49.044794999063015" lon="9.186636954545975">
<ele>199</ele>
<time>2023-05-16T13:30:47Z</time>
</trkpt>
<trkpt lat="49.04479198157787" lon="9.186567971482873">
<ele>198.79999999999995</ele>
<time>2023-05-16T13:30:48Z</time>
</trkpt>
<trkpt lat="49.044792987406254" lon="9.186502927914262">
<ele>198.60000000000002</ele>
<time>2023-05-16T13:30:49Z</time>
</trkpt>
<trkpt lat="49.04480497352779" lon="9.186444925144315">
<ele>198.60000000000002</ele>
<time>2023-05-16T13:30:50Z</time>
</trkpt>
<trkpt lat="49.04482492245734" lon="9.186397986486554">
<ele>198.39999999999998</ele>
<time>2023-05-16T13:30:51Z</time>
</trkpt>
<trkpt lat="49.04485199600458" lon="9.186359932646155">
<ele>198.39999999999998</ele>
<time>2023-05-16T13:30:52Z</time>
</trkpt>
<trkpt lat="49.044879991561174" lon="9.186326991766691">
<ele>198.20000000000005</ele>
<time>2023-05-16T13:30:53Z</time>
</trkpt>
<trkpt lat="49.04490698128939" lon="9.186287932097912">
<ele>198.20000000000005</ele>
<time>2023-05-16T13:30:54Z</time>
</trkpt>
<trkpt lat="49.044926930218935" lon="9.18623998761177">
<ele>198.20000000000005</ele>
<time>2023-05-16T13:30:55Z</time>
</trkpt>
<trkpt lat="49.04493992216885" lon="9.186184918507934">
<ele>198</ele>
<time>2023-05-16T13:30:56Z</time>
</trkpt>
<trkpt lat="49.04494193382561" lon="9.186129933223128">
<ele>197.79999999999995</ele>
<time>2023-05-16T13:30:57Z</time>
</trkpt>
<trkpt lat="49.04492994770408" lon="9.186072936281562">
<ele>197.79999999999995</ele>
<time>2023-05-16T13:30:58Z</time>
</trkpt>
<trkpt lat="49.044904969632626" lon="9.18602298013866">
<ele>197.60000000000002</ele>
<time>2023-05-16T13:30:59Z</time>
</trkpt>
<trkpt lat="49.04487194493413" lon="9.18598199263215">
<ele>197.39999999999998</ele>
<time>2023-05-16T13:31:00Z</time>
</trkpt>
<trkpt lat="49.04483296908438" lon="9.185944944620132">
<ele>197.20000000000005</ele>
<time>2023-05-16T13:31:01Z</time>
</trkpt>
<trkpt lat="49.044799944385886" lon="9.185899933800101">
<ele>197</ele>
<time>2023-05-16T13:31:02Z</time>
</trkpt>
<trkpt lat="49.044772954657674" lon="9.185847966000438">
<ele>196.79999999999995</ele>
<time>2023-05-16T13:31:03Z</time>
</trkpt>
<trkpt lat="49.044756945222616" lon="9.185797926038504">
<ele>196.39999999999998</ele>
<time>2023-05-16T13:31:04Z</time>
</trkpt>
<trkpt lat="49.04473992995918" lon="9.18574495241046">
<ele>196.20000000000005</ele>
<time>2023-05-16T13:31:05Z</time>
</trkpt>
<trkpt lat="49.04471998102963" lon="9.185692984610796">
<ele>196</ele>
<time>2023-05-16T13:31:06Z</time>
</trkpt>
<trkpt lat="49.04469793662429" lon="9.18563699349761">
<ele>196</ele>
<time>2023-05-16T13:31:07Z</time>
</trkpt>
<trkpt lat="49.04467295855284" lon="9.18557496741414">
<ele>195.79999999999995</ele>
<time>2023-05-16T13:31:08Z</time>
</trkpt>
<trkpt lat="49.04464295133948" lon="9.18551193550229">
<ele>195.60000000000002</ele>
<time>2023-05-16T13:31:09Z</time>
</trkpt>
<trkpt lat="49.04461193829775" lon="9.18544496409595">
<ele>195.39999999999998</ele>
<time>2023-05-16T13:31:10Z</time>
</trkpt>
<trkpt lat="49.04457991942763" lon="9.185371957719326">
<ele>195.20000000000005</ele>
<time>2023-05-16T13:31:11Z</time>
</trkpt>
<trkpt lat="49.04454697854817" lon="9.185297945514321">
<ele>194.79999999999995</ele>
<time>2023-05-16T13:31:12Z</time>
</trkpt>
<trkpt lat="49.04451294802129" lon="9.185221921652555">
<ele>194.60000000000002</ele>
<time>2023-05-16T13:31:13Z</time>
</trkpt>
<trkpt lat="49.04447799548507" lon="9.185146987438202">
<ele>194.39999999999998</ele>
<time>2023-05-16T13:31:14Z</time>
</trkpt>
<trkpt lat="49.04444497078657" lon="9.185071969404817">
<ele>194</ele>
<time>2023-05-16T13:31:15Z</time>
</trkpt>
<trkpt lat="49.044411946088076" lon="9.184997957199812">
<ele>193.79999999999995</ele>
<time>2023-05-16T13:31:16Z</time>
</trkpt>
<trkpt lat="49.04437992721796" lon="9.184921933338046">
<ele>193.39999999999998</ele>
<time>2023-05-16T13:31:17Z</time>
</trkpt>
<trkpt lat="49.044342963024974" lon="9.18484297581017">
<ele>193.20000000000005</ele>
<time>2023-05-16T13:31:18Z</time>
</trkpt>
<trkpt lat="49.044306920841336" lon="9.184767957776785">
<ele>192.79999999999995</ele>
<time>2023-05-16T13:31:19Z</time>
</trkpt>
<trkpt lat="49.04426995664835" lon="9.184689922258258">
<ele>192.39999999999998</ele>
<time>2023-05-16T13:31:20Z</time>
</trkpt>
<trkpt lat="49.04423299245536" lon="9.184611970558763">
<ele>192</ele>
<time>2023-05-16T13:31:21Z</time>
</trkpt>
<trkpt lat="49.044194938614964" lon="9.184532929211855">
<ele>191.60000000000002</ele>
<time>2023-05-16T13:31:22Z</time>
</trkpt>
<trkpt lat="49.0441569685936" lon="9.184451960027218">
<ele>191.20000000000005</ele>
<time>2023-05-16T13:31:23Z</time>
</trkpt>
<trkpt lat="49.04411799274385" lon="9.184366967529058">
<ele>190.79999999999995</ele>
<time>2023-05-16T13:31:24Z</time>
</trkpt>
<trkpt lat="49.04407792724669" lon="9.184281975030899">
<ele>190.39999999999998</ele>
<time>2023-05-16T13:31:25Z</time>
</trkpt>
<trkpt lat="49.04403794556856" lon="9.184191953390837">
<ele>190</ele>
<time>2023-05-16T13:31:26Z</time>
</trkpt>
<trkpt lat="49.04399796389043" lon="9.184097992256284">
<ele>189.60000000000002</ele>
<time>2023-05-16T13:31:27Z</time>
</trkpt>
<trkpt lat="49.043956976383924" lon="9.183999923989177">
<ele>189.20000000000005</ele>
<time>2023-05-16T13:31:28Z</time>
</trkpt>
<trkpt lat="49.043912971392274" lon="9.183902945369482">
<ele>188.79999999999995</ele>
<time>2023-05-16T13:31:29Z</time>
</trkpt>
<trkpt lat="49.043871983885765" lon="9.183806972578168">
<ele>188.39999999999998</ele>
<time>2023-05-16T13:31:30Z</time>
</trkpt>
<trkpt lat="49.043829990550876" lon="9.183716950938106">
<ele>188</ele>
<time>2023-05-16T13:31:31Z</time>
</trkpt>
<trkpt lat="49.04379294253886" lon="9.183629946783185">
<ele>187.79999999999995</ele>
<time>2023-05-16T13:31:32Z</time>
</trkpt>
<trkpt lat="49.04375698417425" lon="9.183546965941787">
<ele>187.39999999999998</ele>
<time>2023-05-16T13:31:33Z</time>
</trkpt>
<trkpt lat="49.04371993616223" lon="9.183464990928769">
<ele>187</ele>
<time>2023-05-16T13:31:34Z</time>
</trkpt>
<trkpt lat="49.04368699528277" lon="9.18338293209672">
<ele>186.79999999999995</ele>
<time>2023-05-16T13:31:35Z</time>
</trkpt>
<trkpt lat="49.04365195892751" lon="9.183301962912083">
<ele>186.39999999999998</ele>
<time>2023-05-16T13:31:36Z</time>
</trkpt>
<trkpt lat="49.043612983077765" lon="9.183219987899065">
<ele>186</ele>
<time>2023-05-16T13:31:37Z</time>
</trkpt>
<trkpt lat="49.043574929237366" lon="9.183136923238635">
<ele>185.79999999999995</ele>
<time>2023-05-16T13:31:38Z</time>
</trkpt>
<trkpt lat="49.043536959216" lon="9.183049919083714">
<ele>185.39999999999998</ele>
<time>2023-05-16T13:31:39Z</time>
</trkpt>
<trkpt lat="49.04349697753787" lon="9.182959981262684">
<ele>185</ele>
<time>2023-05-16T13:31:40Z</time>
</trkpt>
<trkpt lat="49.04345699585974" lon="9.182869959622622">
<ele>184.79999999999995</ele>
<time>2023-05-16T13:31:41Z</time>
</trkpt>
<trkpt lat="49.04341693036258" lon="9.18277993798256">
<ele>184.60000000000002</ele>
<time>2023-05-16T13:31:42Z</time>
</trkpt>
<trkpt lat="49.043377954512835" lon="9.182692933827639">
<ele>184.20000000000005</ele>
<time>2023-05-16T13:31:43Z</time>
</trkpt>
<trkpt lat="49.04333998449147" lon="9.182606935501099">
<ele>184</ele>
<time>2023-05-16T13:31:44Z</time>
</trkpt>
<trkpt lat="49.04330193065107" lon="9.18252194300294">
<ele>183.60000000000002</ele>
<time>2023-05-16T13:31:45Z</time>
</trkpt>
<trkpt lat="49.04326295480132" lon="9.182434938848019">
<ele>183.39999999999998</ele>
<time>2023-05-16T13:31:46Z</time>
</trkpt>
<trkpt lat="49.043224984779954" lon="9.18234994634986">
<ele>183</ele>
<time>2023-05-16T13:31:47Z</time>
</trkpt>
<trkpt lat="49.043187936767936" lon="9.1822649538517">
<ele>182.79999999999995</ele>
<time>2023-05-16T13:31:48Z</time>
</trkpt>
<trkpt lat="49.04315197840333" lon="9.182186918333173">
<ele>182.60000000000002</ele>
<time>2023-05-16T13:31:49Z</time>
</trkpt>
<trkpt lat="49.04311694204807" lon="9.18211198411882">
<ele>182.20000000000005</ele>
<time>2023-05-16T13:31:50Z</time>
</trkpt>
<trkpt lat="49.04308198951185" lon="9.182039983570576">
<ele>182</ele>
<time>2023-05-16T13:31:51Z</time>
</trkpt>
<trkpt lat="49.04305198229849" lon="9.181972928345203">
<ele>181.79999999999995</ele>
<time>2023-05-16T13:31:52Z</time>
</trkpt>
<trkpt lat="49.04302197508514" lon="9.181907968595624">
<ele>181.60000000000002</ele>
<time>2023-05-16T13:31:53Z</time>
</trkpt>
<trkpt lat="49.042992973700166" lon="9.181849965825677">
<ele>181.39999999999998</ele>
<time>2023-05-16T13:31:54Z</time>
</trkpt>
<trkpt lat="49.04296497814357" lon="9.18179296888411">
<ele>181.20000000000005</ele>
<time>2023-05-16T13:31:55Z</time>
</trkpt>
<trkpt lat="49.04293798841536" lon="9.181744940578938">
<ele>181</ele>
<time>2023-05-16T13:31:56Z</time>
</trkpt>
<trkpt lat="49.04291795566678" lon="9.181699929758906">
<ele>180.79999999999995</ele>
<time>2023-05-16T13:31:57Z</time>
</trkpt>
<trkpt lat="49.04289993457496" lon="9.181657936424017">
<ele>180.79999999999995</ele>
<time>2023-05-16T13:31:58Z</time>
</trkpt>
<trkpt lat="49.04287998564541" lon="9.181626923382282">
<ele>180.60000000000002</ele>
<time>2023-05-16T13:31:59Z</time>
</trkpt>
<trkpt lat="49.04285693541169" lon="9.181602951139212">
<ele>180.39999999999998</ele>
<time>2023-05-16T13:32:00Z</time>
</trkpt>
<trkpt lat="49.04283195734024" lon="9.181586941704154">
<ele>180.39999999999998</ele>
<time>2023-05-16T13:32:01Z</time>
</trkpt>
<trkpt lat="49.04280798509717" lon="9.181572943925858">
<ele>180.20000000000005</ele>
<time>2023-05-16T13:32:02Z</time>
</trkpt>
<trkpt lat="49.042781917378306" lon="9.181562969461083">
<ele>180.20000000000005</ele>
<time>2023-05-16T13:32:03Z</time>
</trkpt>
<trkpt lat="49.042756939306855" lon="9.18155794031918">
<ele>180</ele>
<time>2023-05-16T13:32:04Z</time>
</trkpt>
<trkpt lat="49.04272793792188" lon="9.18155794031918">
<ele>180</ele>
<time>2023-05-16T13:32:05Z</time>
</trkpt>
<trkpt lat="49.04270295985043" lon="9.181564981117845">
<ele>179.79999999999995</ele>
<time>2023-05-16T13:32:06Z</time>
</trkpt>
<trkpt lat="49.0426769759506" lon="9.181572943925858">
<ele>179.79999999999995</ele>
<time>2023-05-16T13:32:07Z</time>
</trkpt>
<trkpt lat="49.042647974565625" lon="9.181581996381283">
<ele>179.60000000000002</ele>
<time>2023-05-16T13:32:08Z</time>
</trkpt>
<trkpt lat="49.04261193238199" lon="9.181584930047393">
<ele>179.60000000000002</ele>
<time>2023-05-16T13:32:09Z</time>
</trkpt>
<trkpt lat="49.0425699390471" lon="9.181579984724522">
<ele>179.39999999999998</ele>
<time>2023-05-16T13:32:10Z</time>
</trkpt>
<trkpt lat="49.04252995736897" lon="9.181574955582619">
<ele>179.39999999999998</ele>
<time>2023-05-16T13:32:11Z</time>
</trkpt>
<trkpt lat="49.04248494654894" lon="9.181559951975942">
<ele>179.20000000000005</ele>
<time>2023-05-16T13:32:12Z</time>
</trkpt>
<trkpt lat="49.042436918243766" lon="9.181539919227362">
<ele>179.20000000000005</ele>
<time>2023-05-16T13:32:13Z</time>
</trkpt>
<trkpt lat="49.042387967929244" lon="9.18151292949915">
<ele>179</ele>
<time>2023-05-16T13:32:14Z</time>
</trkpt>
<trkpt lat="49.04233792796731" lon="9.18148996308446">
<ele>179</ele>
<time>2023-05-16T13:32:15Z</time>
</trkpt>
<trkpt lat="49.04228696599603" lon="9.18146699666977">
<ele>178.79999999999995</ele>
<time>2023-05-16T13:32:16Z</time>
</trkpt>
<trkpt lat="49.0422329865396" lon="9.181444952264428">
<ele>178.60000000000002</ele>
<time>2023-05-16T13:32:17Z</time>
</trkpt>
<trkpt lat="49.042177917435765" lon="9.181424919515848">
<ele>178.39999999999998</ele>
<time>2023-05-16T13:32:18Z</time>
</trkpt>
<trkpt lat="49.04212293215096" lon="9.181402958929539">
<ele>178.20000000000005</ele>
<time>2023-05-16T13:32:19Z</time>
</trkpt>
<trkpt lat="49.042066941037774" lon="9.181376975029707">
<ele>178.20000000000005</ele>
<time>2023-05-16T13:32:20Z</time>
</trkpt>
<trkpt lat="49.04200994409621" lon="9.181352918967605">
<ele>178</ele>
<time>2023-05-16T13:32:21Z</time>
</trkpt>
<trkpt lat="49.041957976296544" lon="9.181332970038056">
<ele>177.79999999999995</ele>
<time>2023-05-16T13:32:22Z</time>
</trkpt>
<trkpt lat="49.04190994799137" lon="9.181312937289476">
<ele>177.60000000000002</ele>
<time>2023-05-16T13:32:23Z</time>
</trkpt>
<trkpt lat="49.04185999184847" lon="9.181291982531548">
<ele>177.39999999999998</ele>
<time>2023-05-16T13:32:24Z</time>
</trkpt>
<trkpt lat="49.041809951886535" lon="9.181267926469445">
<ele>177.20000000000005</ele>
<time>2023-05-16T13:32:25Z</time>
</trkpt>
<trkpt lat="49.04175798408687" lon="9.181242948397994">
<ele>177</ele>
<time>2023-05-16T13:32:26Z</time>
</trkpt>
<trkpt lat="49.04170693829656" lon="9.181216964498162">
<ele>176.79999999999995</ele>
<time>2023-05-16T13:32:27Z</time>
</trkpt>
<trkpt lat="49.04165195301175" lon="9.181192992255092">
<ele>176.60000000000002</ele>
<time>2023-05-16T13:32:28Z</time>
</trkpt>
<trkpt lat="49.04159797355533" lon="9.181167930364609">
<ele>176.39999999999998</ele>
<time>2023-05-16T13:32:29Z</time>
</trkpt>
<trkpt lat="49.04154692776501" lon="9.181142952293158">
<ele>176.20000000000005</ele>
<time>2023-05-16T13:32:30Z</time>
</trkpt>
<trkpt lat="49.04149697162211" lon="9.181121997535229">
<ele>176</ele>
<time>2023-05-16T13:32:31Z</time>
</trkpt>
<trkpt lat="49.041446931660175" lon="9.181099953129888">
<ele>175.79999999999995</ele>
<time>2023-05-16T13:32:32Z</time>
</trkpt>
<trkpt lat="49.04139697551727" lon="9.181077992543578">
<ele>175.39999999999998</ele>
<time>2023-05-16T13:32:33Z</time>
</trkpt>
<trkpt lat="49.04134794138372" lon="9.181057959794998">
<ele>175.20000000000005</ele>
<time>2023-05-16T13:32:34Z</time>
</trkpt>
<trkpt lat="49.04129697941244" lon="9.18103993870318">
<ele>175</ele>
<time>2023-05-16T13:32:35Z</time>
</trkpt>
<trkpt lat="49.04124299995601" lon="9.18101797811687">
<ele>174.60000000000002</ele>
<time>2023-05-16T13:32:36Z</time>
</trkpt>
<trkpt lat="49.041187930852175" lon="9.180992916226387">
<ele>174.39999999999998</ele>
<time>2023-05-16T13:32:37Z</time>
</trkpt>
<trkpt lat="49.04113495722413" lon="9.180969949811697">
<ele>174</ele>
<time>2023-05-16T13:32:38Z</time>
</trkpt>
<trkpt lat="49.04108198359609" lon="9.180946983397007">
<ele>173.60000000000002</ele>
<time>2023-05-16T13:32:39Z</time>
</trkpt>
<trkpt lat="49.04102792032063" lon="9.180921921506524">
<ele>173.39999999999998</ele>
<time>2023-05-16T13:32:40Z</time>
</trkpt>
<trkpt lat="49.040972935035825" lon="9.180897949263453">
<ele>173</ele>
<time>2023-05-16T13:32:41Z</time>
</trkpt>
<trkpt lat="49.04091794975102" lon="9.180874982848763">
<ele>172.60000000000002</ele>
<time>2023-05-16T13:32:42Z</time>
</trkpt>
<trkpt lat="49.040861958637834" lon="9.180851932615042">
<ele>172.20000000000005</ele>
<time>2023-05-16T13:32:43Z</time>
</trkpt>
<trkpt lat="49.040802950039506" lon="9.180832989513874">
<ele>171.79999999999995</ele>
<time>2023-05-16T13:32:44Z</time>
</trkpt>
<trkpt lat="49.0407429356128" lon="9.180812956765294">
<ele>171.39999999999998</ele>
<time>2023-05-16T13:32:45Z</time>
</trkpt>
<trkpt lat="49.04068493284285" lon="9.180789990350604">
<ele>171</ele>
<time>2023-05-16T13:32:46Z</time>
</trkpt>
<trkpt lat="49.040626930072904" lon="9.180764928460121">
<ele>170.60000000000002</ele>
<time>2023-05-16T13:32:47Z</time>
</trkpt>
<trkpt lat="49.0405719447881" lon="9.180742967873812">
<ele>170</ele>
<time>2023-05-16T13:32:48Z</time>
</trkpt>
<trkpt lat="49.040519976988435" lon="9.18071991764009">
<ele>169.60000000000002</ele>
<time>2023-05-16T13:32:49Z</time>
</trkpt>
<trkpt lat="49.04046499170363" lon="9.180694939568639">
<ele>169.20000000000005</ele>
<time>2023-05-16T13:32:50Z</time>
</trkpt>
<trkpt lat="49.04040799476206" lon="9.180667949840426">
<ele>168.79999999999995</ele>
<time>2023-05-16T13:32:51Z</time>
</trkpt>
<trkpt lat="49.04035493731499" lon="9.180641965940595">
<ele>168.39999999999998</ele>
<time>2023-05-16T13:32:52Z</time>
</trkpt>
<trkpt lat="49.040302969515324" lon="9.180612964555621">
<ele>168</ele>
<time>2023-05-16T13:32:53Z</time>
</trkpt>
<trkpt lat="49.04025292955339" lon="9.18058798648417">
<ele>167.60000000000002</ele>
<time>2023-05-16T13:32:54Z</time>
</trkpt>
<trkpt lat="49.040199955925345" lon="9.18056795373559">
<ele>167.20000000000005</ele>
<time>2023-05-16T13:32:55Z</time>
</trkpt>
<trkpt lat="49.0401469822973" lon="9.180542975664139">
<ele>166.79999999999995</ele>
<time>2023-05-16T13:32:56Z</time>
</trkpt>
<trkpt lat="49.04009995982051" lon="9.18050492182374">
<ele>166.39999999999998</ele>
<time>2023-05-16T13:32:57Z</time>
</trkpt>
<trkpt lat="49.04005796648562" lon="9.18046192266047">
<ele>166</ele>
<time>2023-05-16T13:32:58Z</time>
</trkpt>
<trkpt lat="49.04001798480749" lon="9.18041699565947">
<ele>165.60000000000002</ele>
<time>2023-05-16T13:32:59Z</time>
</trkpt>
<trkpt lat="49.039982948452234" lon="9.180367961525917">
<ele>165.20000000000005</ele>
<time>2023-05-16T13:33:00Z</time>
</trkpt>
<trkpt lat="49.0399519354105" lon="9.18033191934228">
<ele>164.79999999999995</ele>
<time>2023-05-16T13:33:01Z</time>
</trkpt>
<trkpt lat="49.039916982874274" lon="9.180304929614067">
<ele>164.39999999999998</ele>
<time>2023-05-16T13:33:02Z</time>
</trkpt>
<trkpt lat="49.039877923205495" lon="9.18028699234128">
<ele>164.20000000000005</ele>
<time>2023-05-16T13:33:03Z</time>
</trkpt>
<trkpt lat="49.03983995318413" lon="9.180269977077842">
<ele>163.79999999999995</ele>
<time>2023-05-16T13:33:04Z</time>
</trkpt>
<trkpt lat="49.039799971506" lon="9.180261930450797">
<ele>163.60000000000002</ele>
<time>2023-05-16T13:33:05Z</time>
</trkpt>
<trkpt lat="49.03975998982787" lon="9.1802669595927">
<ele>163.20000000000005</ele>
<time>2023-05-16T13:33:06Z</time>
</trkpt>
<trkpt lat="49.03971992433071" lon="9.180284980684519">
<ele>163</ele>
<time>2023-05-16T13:33:07Z</time>
</trkpt>
<trkpt lat="49.03967692516744" lon="9.180302917957306">
<ele>162.79999999999995</ele>
<time>2023-05-16T13:33:08Z</time>
</trkpt>
<trkpt lat="49.03962998650968" lon="9.180306941270828">
<ele>162.60000000000002</ele>
<time>2023-05-16T13:33:09Z</time>
</trkpt>
<trkpt lat="49.03958698734641" lon="9.180294955149293">
<ele>162.39999999999998</ele>
<time>2023-05-16T13:33:10Z</time>
</trkpt>
<trkpt lat="49.03954298235476" lon="9.180272994562984">
<ele>162.39999999999998</ele>
<time>2023-05-16T13:33:11Z</time>
</trkpt>
<trkpt lat="49.03949696570635" lon="9.18024298734963">
<ele>162.20000000000005</ele>
<time>2023-05-16T13:33:12Z</time>
</trkpt>
<trkpt lat="49.03945195488632" lon="9.180206945165992">
<ele>162</ele>
<time>2023-05-16T13:33:13Z</time>
</trkpt>
<trkpt lat="49.039404932409525" lon="9.180166963487864">
<ele>162</ele>
<time>2023-05-16T13:33:14Z</time>
</trkpt>
<trkpt lat="49.039361933246255" lon="9.180124970152974">
<ele>162</ele>
<time>2023-05-16T13:33:15Z</time>
</trkpt>
<trkpt lat="49.039317928254604" lon="9.180082976818085">
<ele>161.79999999999995</ele>
<time>2023-05-16T13:33:16Z</time>
</trkpt>
<trkpt lat="49.039276940748096" lon="9.180036960169673">
<ele>161.79999999999995</ele>
<time>2023-05-16T13:33:17Z</time>
</trkpt>
<trkpt lat="49.039234947413206" lon="9.17998792603612">
<ele>161.60000000000002</ele>
<time>2023-05-16T13:33:18Z</time>
</trkpt>
<trkpt lat="49.03919496573508" lon="9.179937969893217">
<ele>161.60000000000002</ele>
<time>2023-05-16T13:33:19Z</time>
</trkpt>
<trkpt lat="49.03915699571371" lon="9.179887929931283">
<ele>161.60000000000002</ele>
<time>2023-05-16T13:33:20Z</time>
</trkpt>
<trkpt lat="49.039121959358454" lon="9.179834956303239">
<ele>161.60000000000002</ele>
<time>2023-05-16T13:33:21Z</time>
</trkpt>
<trkpt lat="49.0390869230032" lon="9.179777959361672">
<ele>161.60000000000002</ele>
<time>2023-05-16T13:33:22Z</time>
</trkpt>
<trkpt lat="49.03905197046697" lon="9.179719956591725">
<ele>161.60000000000002</ele>
<time>2023-05-16T13:33:23Z</time>
</trkpt>
<trkpt lat="49.039016934111714" lon="9.179661953821778">
<ele>161.60000000000002</ele>
<time>2023-05-16T13:33:24Z</time>
</trkpt>
<trkpt lat="49.03898499906063" lon="9.17960193939507">
<ele>161.60000000000002</ele>
<time>2023-05-16T13:33:25Z</time>
</trkpt>
<trkpt lat="49.03895499184728" lon="9.179541924968362">
<ele>161.60000000000002</ele>
<time>2023-05-16T13:33:26Z</time>
</trkpt>
<trkpt lat="49.03892498463392" lon="9.179481994360685">
<ele>161.60000000000002</ele>
<time>2023-05-16T13:33:27Z</time>
</trkpt>
<trkpt lat="49.03889799490571" lon="9.179421979933977">
<ele>161.60000000000002</ele>
<time>2023-05-16T13:33:28Z</time>
</trkpt>
<trkpt lat="49.03886999934912" lon="9.179361965507269">
<ele>161.79999999999995</ele>
<time>2023-05-16T13:33:29Z</time>
</trkpt>
<trkpt lat="49.03884292580187" lon="9.1792999394238">
<ele>161.79999999999995</ele>
<time>2023-05-16T13:33:30Z</time>
</trkpt>
<trkpt lat="49.03881794773042" lon="9.179237997159362">
<ele>161.79999999999995</ele>
<time>2023-05-16T13:33:31Z</time>
</trkpt>
<trkpt lat="49.03879498131573" lon="9.179174965247512">
<ele>162</ele>
<time>2023-05-16T13:33:32Z</time>
</trkpt>
<trkpt lat="49.03877494856715" lon="9.179114950820804">
<ele>162</ele>
<time>2023-05-16T13:33:33Z</time>
</trkpt>
<trkpt lat="49.038754999637604" lon="9.17906197719276">
<ele>162.20000000000005</ele>
<time>2023-05-16T13:33:34Z</time>
</trkpt>
<trkpt lat="49.038736978545785" lon="9.179014954715967">
<ele>162.39999999999998</ele>
<time>2023-05-16T13:33:35Z</time>
</trkpt>
<trkpt lat="49.03872298076749" lon="9.178969943895936">
<ele>162.39999999999998</ele>
<time>2023-05-16T13:33:36Z</time>
</trkpt>
<trkpt lat="49.038716945797205" lon="9.178926944732666">
<ele>162.60000000000002</ele>
<time>2023-05-16T13:33:37Z</time>
</trkpt>
<trkpt lat="49.03871292248368" lon="9.178897943347692">
<ele>162.79999999999995</ele>
<time>2023-05-16T13:33:38Z</time>
</trkpt>
<trkpt lat="49.0387119166553" lon="9.178887968882918">
<ele>163</ele>
<time>2023-05-16T13:33:39Z</time>
</trkpt>
<trkpt lat="49.0387119166553" lon="9.178886963054538">
<ele>163.20000000000005</ele>
<time>2023-05-16T13:33:41Z</time>
</trkpt>
<trkpt lat="49.038692973554134" lon="9.17882694862783">
<ele>163.79999999999995</ele>
<time>2023-05-16T13:33:43Z</time>
</trkpt>
<trkpt lat="49.03868693858385" lon="9.178799958899617">
<ele>163.79999999999995</ele>
<time>2023-05-16T13:33:44Z</time>
</trkpt>
<trkpt lat="49.03867696411908" lon="9.178769951686263">
<ele>163.79999999999995</ele>
<time>2023-05-16T13:33:45Z</time>
</trkpt>
<trkpt lat="49.03866799548268" lon="9.178734999150038">
<ele>163.79999999999995</ele>
<time>2023-05-16T13:33:46Z</time>
</trkpt>
<trkpt lat="49.0386619605124" lon="9.178694933652878">
<ele>164</ele>
<time>2023-05-16T13:33:47Z</time>
</trkpt>
<trkpt lat="49.038654919713736" lon="9.178651934489608">
<ele>164</ele>
<time>2023-05-16T13:33:48Z</time>
</trkpt>
<trkpt lat="49.0386479627341" lon="9.178606923669577">
<ele>164.20000000000005</ele>
<time>2023-05-16T13:33:49Z</time>
</trkpt>
<trkpt lat="49.03863999992609" lon="9.178556967526674">
<ele>164.20000000000005</ele>
<time>2023-05-16T13:33:50Z</time>
</trkpt>
<trkpt lat="49.038631953299046" lon="9.17850298807025">
<ele>164.39999999999998</ele>
<time>2023-05-16T13:33:51Z</time>
</trkpt>
<trkpt lat="49.03862298466265" lon="9.178446996957064">
<ele>164.39999999999998</ele>
<time>2023-05-16T13:33:52Z</time>
</trkpt>
<trkpt lat="49.03861493803561" lon="9.178384970873594">
<ele>164.60000000000002</ele>
<time>2023-05-16T13:33:53Z</time>
</trkpt>
<trkpt lat="49.038607981055975" lon="9.178321938961744">
<ele>164.79999999999995</ele>
<time>2023-05-16T13:33:54Z</time>
</trkpt>
<trkpt lat="49.03860194608569" lon="9.178257985040545">
<ele>165</ele>
<time>2023-05-16T13:33:55Z</time>
</trkpt>
<trkpt lat="49.03859691694379" lon="9.178192941471934">
<ele>165.20000000000005</ele>
<time>2023-05-16T13:33:56Z</time>
</trkpt>
<trkpt lat="49.0385929774493" lon="9.178129993379116">
<ele>165.20000000000005</ele>
<time>2023-05-16T13:33:57Z</time>
</trkpt>
<trkpt lat="49.038589959964156" lon="9.178067967295647">
<ele>165.39999999999998</ele>
<time>2023-05-16T13:33:58Z</time>
</trkpt>
<trkpt lat="49.038587948307395" lon="9.178004935383797">
<ele>165.60000000000002</ele>
<time>2023-05-16T13:33:59Z</time>
</trkpt>
<trkpt lat="49.038587948307395" lon="9.177939975634217">
<ele>165.79999999999995</ele>
<time>2023-05-16T13:34:00Z</time>
</trkpt>
<trkpt lat="49.038587948307395" lon="9.177872920408845">
<ele>166</ele>
<time>2023-05-16T13:34:01Z</time>
</trkpt>
<trkpt lat="49.038589959964156" lon="9.177806954830885">
<ele>166.20000000000005</ele>
<time>2023-05-16T13:34:02Z</time>
</trkpt>
<trkpt lat="49.03859197162092" lon="9.177741995081306">
<ele>166.20000000000005</ele>
<time>2023-05-16T13:34:03Z</time>
</trkpt>
<trkpt lat="49.03859498910606" lon="9.177674939855933">
<ele>166.39999999999998</ele>
<time>2023-05-16T13:34:04Z</time>
</trkpt>
<trkpt lat="49.03859993442893" lon="9.177606962621212">
<ele>166.60000000000002</ele>
<time>2023-05-16T13:34:05Z</time>
</trkpt>
<trkpt lat="49.03860496357083" lon="9.17753697372973">
<ele>166.79999999999995</ele>
<time>2023-05-16T13:34:06Z</time>
</trkpt>
<trkpt lat="49.038612926378846" lon="9.177466984838247">
<ele>167</ele>
<time>2023-05-16T13:34:07Z</time>
</trkpt>
<trkpt lat="49.03861694969237" lon="9.177401941269636">
<ele>167.20000000000005</ele>
<time>2023-05-16T13:34:08Z</time>
</trkpt>
<trkpt lat="49.03862197883427" lon="9.177336981520057">
<ele>167.39999999999998</ele>
<time>2023-05-16T13:34:09Z</time>
</trkpt>
<trkpt lat="49.03862692415714" lon="9.177269926294684">
<ele>167.39999999999998</ele>
<time>2023-05-16T13:34:10Z</time>
</trkpt>
<trkpt lat="49.038632959127426" lon="9.177201949059963">
<ele>167.60000000000002</ele>
<time>2023-05-16T13:34:11Z</time>
</trkpt>
<trkpt lat="49.03863798826933" lon="9.177127936854959">
<ele>167.60000000000002</ele>
<time>2023-05-16T13:34:12Z</time>
</trkpt>
<trkpt lat="49.03864494524896" lon="9.177054930478334">
<ele>167.79999999999995</ele>
<time>2023-05-16T13:34:13Z</time>
</trkpt>
<trkpt lat="49.038652991876006" lon="9.176982929930091">
<ele>168</ele>
<time>2023-05-16T13:34:14Z</time>
</trkpt>
<trkpt lat="49.0386619605124" lon="9.176909923553467">
<ele>168</ele>
<time>2023-05-16T13:34:15Z</time>
</trkpt>
<trkpt lat="49.03866992332041" lon="9.176837923005223">
<ele>168</ele>
<time>2023-05-16T13:34:16Z</time>
</trkpt>
<trkpt lat="49.038674952462316" lon="9.176771957427263">
<ele>168.20000000000005</ele>
<time>2023-05-16T13:34:17Z</time>
</trkpt>
<trkpt lat="49.03868199326098" lon="9.176709931343794">
<ele>168.20000000000005</ele>
<time>2023-05-16T13:34:18Z</time>
</trkpt>
<trkpt lat="49.03868995606899" lon="9.176649916917086">
<ele>168.39999999999998</ele>
<time>2023-05-16T13:34:19Z</time>
</trkpt>
<trkpt lat="49.038697918877006" lon="9.176587974652648">
<ele>168.39999999999998</ele>
<time>2023-05-16T13:34:20Z</time>
</trkpt>
<trkpt lat="49.03870294801891" lon="9.17652695439756">
<ele>168.39999999999998</ele>
<time>2023-05-16T13:34:21Z</time>
</trkpt>
<trkpt lat="49.0387119166553" lon="9.17646199464798">
<ele>168.60000000000002</ele>
<time>2023-05-16T13:34:22Z</time>
</trkpt>
<trkpt lat="49.03871996328235" lon="9.176396951079369">
<ele>168.60000000000002</ele>
<time>2023-05-16T13:34:23Z</time>
</trkpt>
<trkpt lat="49.03872792609036" lon="9.176327968016267">
<ele>168.60000000000002</ele>
<time>2023-05-16T13:34:24Z</time>
</trkpt>
<trkpt lat="49.038736978545785" lon="9.176259990781546">
<ele>168.60000000000002</ele>
<time>2023-05-16T13:34:25Z</time>
</trkpt>
<trkpt lat="49.03874795883894" lon="9.176191929727793">
<ele>168.79999999999995</ele>
<time>2023-05-16T13:34:26Z</time>
</trkpt>
<trkpt lat="49.038759944960475" lon="9.17612194083631">
<ele>168.79999999999995</ele>
<time>2023-05-16T13:34:27Z</time>
</trkpt>
<trkpt lat="49.03876991942525" lon="9.176051951944828">
<ele>168.79999999999995</ele>
<time>2023-05-16T13:34:28Z</time>
</trkpt>
<trkpt lat="49.038777966052294" lon="9.175979951396585">
<ele>168.79999999999995</ele>
<time>2023-05-16T13:34:29Z</time>
</trkpt>
<trkpt lat="49.03878693468869" lon="9.1759049333632">
<ele>168.79999999999995</ele>
<time>2023-05-16T13:34:30Z</time>
</trkpt>
<trkpt lat="49.03879296965897" lon="9.175829999148846">
<ele>168.79999999999995</ele>
<time>2023-05-16T13:34:31Z</time>
</trkpt>
<trkpt lat="49.038802944123745" lon="9.1757529694587">
<ele>168.79999999999995</ele>
<time>2023-05-16T13:34:32Z</time>
</trkpt>
<trkpt lat="49.03881199657917" lon="9.175672922283411">
<ele>168.79999999999995</ele>
<time>2023-05-16T13:34:33Z</time>
</trkpt>
<trkpt lat="49.038821971043944" lon="9.175592958927155">
<ele>168.79999999999995</ele>
<time>2023-05-16T13:34:34Z</time>
</trkpt>
<trkpt lat="49.03882993385196" lon="9.175509978085756">
<ele>168.79999999999995</ele>
<time>2023-05-16T13:34:35Z</time>
</trkpt>
<trkpt lat="49.038837980479" lon="9.175424985587597">
<ele>168.79999999999995</ele>
<time>2023-05-16T13:34:36Z</time>
</trkpt>
<trkpt lat="49.038846949115396" lon="9.175339993089437">
<ele>168.79999999999995</ele>
<time>2023-05-16T13:34:37Z</time>
</trkpt>
<trkpt lat="49.03885792940855" lon="9.175251983106136">
<ele>168.79999999999995</ele>
<time>2023-05-16T13:34:38Z</time>
</trkpt>
<trkpt lat="49.038867987692356" lon="9.175162967294455">
<ele>168.79999999999995</ele>
<time>2023-05-16T13:34:39Z</time>
</trkpt>
<trkpt lat="49.03887796215713" lon="9.175071939826012">
<ele>168.79999999999995</ele>
<time>2023-05-16T13:34:40Z</time>
</trkpt>
<trkpt lat="49.038887936621904" lon="9.17497999034822">
<ele>168.79999999999995</ele>
<time>2023-05-16T13:34:41Z</time>
</trkpt>
<trkpt lat="49.03889799490571" lon="9.174887957051396">
<ele>168.79999999999995</ele>
<time>2023-05-16T13:34:42Z</time>
</trkpt>
<trkpt lat="49.038909981027246" lon="9.174794917926192">
<ele>168.79999999999995</ele>
<time>2023-05-16T13:34:43Z</time>
</trkpt>
<trkpt lat="49.03892297297716" lon="9.174699950963259">
<ele>168.60000000000002</ele>
<time>2023-05-16T13:34:44Z</time>
</trkpt>
<trkpt lat="49.03893697075546" lon="9.174606995657086">
<ele>168.60000000000002</ele>
<time>2023-05-16T13:34:45Z</time>
</trkpt>
<trkpt lat="49.03894694522023" lon="9.174512950703502">
<ele>168.60000000000002</ele>
<time>2023-05-16T13:34:46Z</time>
</trkpt>
<trkpt lat="49.038956919685006" lon="9.17441999539733">
<ele>168.39999999999998</ele>
<time>2023-05-16T13:34:47Z</time>
</trkpt>
<trkpt lat="49.03896798379719" lon="9.174324944615364">
<ele>168.20000000000005</ele>
<time>2023-05-16T13:34:48Z</time>
</trkpt>
<trkpt lat="49.03897996991873" lon="9.17422796599567">
<ele>168.20000000000005</ele>
<time>2023-05-16T13:34:49Z</time>
</trkpt>
<trkpt lat="49.03899195604026" lon="9.174131993204355">
<ele>168</ele>
<time>2023-05-16T13:34:50Z</time>
</trkpt>
<trkpt lat="49.03900293633342" lon="9.174032919108868">
<ele>168</ele>
<time>2023-05-16T13:34:51Z</time>
</trkpt>
<trkpt lat="49.039012994617224" lon="9.173934934660792">
<ele>167.79999999999995</ele>
<time>2023-05-16T13:34:52Z</time>
</trkpt>
<trkpt lat="49.039022969082" lon="9.173836950212717">
<ele>167.79999999999995</ele>
<time>2023-05-16T13:34:53Z</time>
</trkpt>
<trkpt lat="49.039037972688675" lon="9.173737959936261">
<ele>167.79999999999995</ele>
<time>2023-05-16T13:34:54Z</time>
</trkpt>
<trkpt lat="49.03904995881021" lon="9.173639975488186">
<ele>167.60000000000002</ele>
<time>2023-05-16T13:34:55Z</time>
</trkpt>
<trkpt lat="49.039061944931746" lon="9.173537967726588">
<ele>167.60000000000002</ele>
<time>2023-05-16T13:34:56Z</time>
</trkpt>
<trkpt lat="49.03907191939652" lon="9.173436965793371">
<ele>167.39999999999998</ele>
<time>2023-05-16T13:34:57Z</time>
</trkpt>
<trkpt lat="49.039082983508706" lon="9.173332946375012">
<ele>167.39999999999998</ele>
<time>2023-05-16T13:34:58Z</time>
</trkpt>
<trkpt lat="49.03909496963024" lon="9.173231944441795">
<ele>167.39999999999998</ele>
<time>2023-05-16T13:34:59Z</time>
</trkpt>
<trkpt lat="49.03910695575178" lon="9.173126919195056">
<ele>167.39999999999998</ele>
<time>2023-05-16T13:35:00Z</time>
</trkpt>
<trkpt lat="49.03911793604493" lon="9.173021977767348">
<ele>167.20000000000005</ele>
<time>2023-05-16T13:35:01Z</time>
</trkpt>
<trkpt lat="49.03912799432874" lon="9.17291795834899">
<ele>167.20000000000005</ele>
<time>2023-05-16T13:35:02Z</time>
</trkpt>
<trkpt lat="49.03913696296513" lon="9.17281192727387">
<ele>167.20000000000005</ele>
<time>2023-05-16T13:35:03Z</time>
</trkpt>
<trkpt lat="49.039144925773144" lon="9.172706985846162">
<ele>167.20000000000005</ele>
<time>2023-05-16T13:35:04Z</time>
</trkpt>
<trkpt lat="49.03915196657181" lon="9.172602966427803">
<ele>167.20000000000005</ele>
<time>2023-05-16T13:35:05Z</time>
</trkpt>
<trkpt lat="49.03915791772306" lon="9.172501964494586">
<ele>167.20000000000005</ele>
<time>2023-05-16T13:35:06Z</time>
</trkpt>
<trkpt lat="49.039164958521724" lon="9.172399956732988">
<ele>167.20000000000005</ele>
<time>2023-05-16T13:35:07Z</time>
</trkpt>
<trkpt lat="49.03916998766363" lon="9.172299960628152">
<ele>167.20000000000005</ele>
<time>2023-05-16T13:35:08Z</time>
</trkpt>
<trkpt lat="49.03917292132974" lon="9.172202982008457">
<ele>167.20000000000005</ele>
<time>2023-05-16T13:35:09Z</time>
</trkpt>
<trkpt lat="49.03917795047164" lon="9.172106925398111">
<ele>167.20000000000005</ele>
<time>2023-05-16T13:35:10Z</time>
</trkpt>
<trkpt lat="49.03918297961354" lon="9.172012964263558">
<ele>167.39999999999998</ele>
<time>2023-05-16T13:35:11Z</time>
</trkpt>
<trkpt lat="49.03918691910803" lon="9.171922942623496">
<ele>167.39999999999998</ele>
<time>2023-05-16T13:35:12Z</time>
</trkpt>
<trkpt lat="49.039187924936414" lon="9.171832920983434">
<ele>167.39999999999998</ele>
<time>2023-05-16T13:35:13Z</time>
</trkpt>
<trkpt lat="49.039189936593175" lon="9.171744994819164">
<ele>167.39999999999998</ele>
<time>2023-05-16T13:35:14Z</time>
</trkpt>
<trkpt lat="49.039191948249936" lon="9.171657990664244">
<ele>167.60000000000002</ele>
<time>2023-05-16T13:35:15Z</time>
</trkpt>
<trkpt lat="49.03919295407832" lon="9.171572998166084">
<ele>167.79999999999995</ele>
<time>2023-05-16T13:35:16Z</time>
</trkpt>
<trkpt lat="49.03919295407832" lon="9.171486999839544">
<ele>167.79999999999995</ele>
<time>2023-05-16T13:35:17Z</time>
</trkpt>
<trkpt lat="49.039191948249936" lon="9.171399995684624">
<ele>168</ele>
<time>2023-05-16T13:35:18Z</time>
</trkpt>
<trkpt lat="49.039189936593175" lon="9.171312991529703">
<ele>168.20000000000005</ele>
<time>2023-05-16T13:35:19Z</time>
</trkpt>
<trkpt lat="49.03918691910803" lon="9.171227999031544">
<ele>168.20000000000005</ele>
<time>2023-05-16T13:35:20Z</time>
</trkpt>
<trkpt lat="49.03918297961354" lon="9.171144934371114">
<ele>168.39999999999998</ele>
<time>2023-05-16T13:35:21Z</time>
</trkpt>
<trkpt lat="49.03917694464326" lon="9.171064971014857">
<ele>168.60000000000002</ele>
<time>2023-05-16T13:35:22Z</time>
</trkpt>
<trkpt lat="49.03916998766363" lon="9.17098299600184">
<ele>168.79999999999995</ele>
<time>2023-05-16T13:35:23Z</time>
</trkpt>
<trkpt lat="49.039166970178485" lon="9.170904960483313">
<ele>169</ele>
<time>2023-05-16T13:35:24Z</time>
</trkpt>
<trkpt lat="49.03915992937982" lon="9.170826924964786">
<ele>169.20000000000005</ele>
<time>2023-05-16T13:35:25Z</time>
</trkpt>
<trkpt lat="49.03915498405695" lon="9.17074997909367">
<ele>169.39999999999998</ele>
<time>2023-05-16T13:35:26Z</time>
</trkpt>
<trkpt lat="49.039147943258286" lon="9.170669931918383">
<ele>169.39999999999998</ele>
<time>2023-05-16T13:35:27Z</time>
</trkpt>
<trkpt lat="49.03913998045027" lon="9.170589968562126">
<ele>169.60000000000002</ele>
<time>2023-05-16T13:35:28Z</time>
</trkpt>
<trkpt lat="49.03912799432874" lon="9.170509921386838">
<ele>169.79999999999995</ele>
<time>2023-05-16T13:35:29Z</time>
</trkpt>
<trkpt lat="49.03911793604493" lon="9.170429958030581">
<ele>170</ele>
<time>2023-05-16T13:35:30Z</time>
</trkpt>
<trkpt lat="49.03910997323692" lon="9.170349994674325">
<ele>170.20000000000005</ele>
<time>2023-05-16T13:35:31Z</time>
</trkpt>
<trkpt lat="49.039099998772144" lon="9.170272964984179">
<ele>170.39999999999998</ele>
<time>2023-05-16T13:35:32Z</time>
</trkpt>
<trkpt lat="49.03908994048834" lon="9.170201970264316">
<ele>170.60000000000002</ele>
<time>2023-05-16T13:35:33Z</time>
</trkpt>
<trkpt lat="49.039079966023564" lon="9.170131981372833">
<ele>170.79999999999995</ele>
<time>2023-05-16T13:35:34Z</time>
</trkpt>
<trkpt lat="49.03907191939652" lon="9.170066937804222">
<ele>171</ele>
<time>2023-05-16T13:35:35Z</time>
</trkpt>
<trkpt lat="49.039061944931746" lon="9.170004995539784">
<ele>171.20000000000005</ele>
<time>2023-05-16T13:35:36Z</time>
</trkpt>
<trkpt lat="49.03905297629535" lon="9.169942969456315">
<ele>171.39999999999998</ele>
<time>2023-05-16T13:35:37Z</time>
</trkpt>
<trkpt lat="49.0390419960022" lon="9.169879937544465">
<ele>171.60000000000002</ele>
<time>2023-05-16T13:35:38Z</time>
</trkpt>
<trkpt lat="49.03902992606163" lon="9.169817995280027">
<ele>171.79999999999995</ele>
<time>2023-05-16T13:35:39Z</time>
</trkpt>
<trkpt lat="49.039019951596856" lon="9.16975999251008">
<ele>172</ele>
<time>2023-05-16T13:35:40Z</time>
</trkpt>
<trkpt lat="49.03900796547532" lon="9.169702995568514">
<ele>172.20000000000005</ele>
<time>2023-05-16T13:35:41Z</time>
</trkpt>
<trkpt lat="49.038996985182166" lon="9.169646920636296">
<ele>172.39999999999998</ele>
<time>2023-05-16T13:35:42Z</time>
</trkpt>
<trkpt lat="49.03898499906063" lon="9.169592941179872">
<ele>172.60000000000002</ele>
<time>2023-05-16T13:35:43Z</time>
</trkpt>
<trkpt lat="49.038972929120064" lon="9.169537955895066">
<ele>172.79999999999995</ele>
<time>2023-05-16T13:35:44Z</time>
</trkpt>
<trkpt lat="49.03896194882691" lon="9.169484982267022">
<ele>173</ele>
<time>2023-05-16T13:35:45Z</time>
</trkpt>
<trkpt lat="49.03894795104861" lon="9.169429996982217">
<ele>173.20000000000005</ele>
<time>2023-05-16T13:35:46Z</time>
</trkpt>
<trkpt lat="49.03893697075546" lon="9.169372916221619">
<ele>173.39999999999998</ele>
<time>2023-05-16T13:35:47Z</time>
</trkpt>
<trkpt lat="49.038926996290684" lon="9.169316925108433">
<ele>173.60000000000002</ele>
<time>2023-05-16T13:35:48Z</time>
</trkpt>
<trkpt lat="49.03891299851239" lon="9.169259928166866">
<ele>173.79999999999995</ele>
<time>2023-05-16T13:35:49Z</time>
</trkpt>
<trkpt lat="49.03889992274344" lon="9.1692029312253">
<ele>174</ele>
<time>2023-05-16T13:35:50Z</time>
</trkpt>
<trkpt lat="49.038887936621904" lon="9.169146940112114">
<ele>174.20000000000005</ele>
<time>2023-05-16T13:35:51Z</time>
</trkpt>
<trkpt lat="49.03887494467199" lon="9.169089943170547">
<ele>174.20000000000005</ele>
<time>2023-05-16T13:35:52Z</time>
</trkpt>
<trkpt lat="49.03886195272207" lon="9.169034957885742">
<ele>174.39999999999998</ele>
<time>2023-05-16T13:35:53Z</time>
</trkpt>
<trkpt lat="49.038844937458634" lon="9.168979972600937">
<ele>174.60000000000002</ele>
<time>2023-05-16T13:35:54Z</time>
</trkpt>
<trkpt lat="49.03882993385196" lon="9.168924987316132">
<ele>174.60000000000002</ele>
<time>2023-05-16T13:35:55Z</time>
</trkpt>
<trkpt lat="49.03881694190204" lon="9.168871929869056">
<ele>174.79999999999995</ele>
<time>2023-05-16T13:35:56Z</time>
</trkpt>
<trkpt lat="49.038801938295364" lon="9.168819962069392">
<ele>174.79999999999995</ele>
<time>2023-05-16T13:35:57Z</time>
</trkpt>
<trkpt lat="49.03878995217383" lon="9.168767994269729">
<ele>175</ele>
<time>2023-05-16T13:35:58Z</time>
</trkpt>
<trkpt lat="49.038781989365816" lon="9.168717954307795">
<ele>175</ele>
<time>2023-05-16T13:35:59Z</time>
</trkpt>
<trkpt lat="49.03877293691039" lon="9.168669926002622">
<ele>175.20000000000005</ele>
<time>2023-05-16T13:36:00Z</time>
</trkpt>
<trkpt lat="49.03876497410238" lon="9.16862198151648">
<ele>175.39999999999998</ele>
<time>2023-05-16T13:36:01Z</time>
</trkpt>
<trkpt lat="49.03875692747533" lon="9.168572947382927">
<ele>175.39999999999998</ele>
<time>2023-05-16T13:36:02Z</time>
</trkpt>
<trkpt lat="49.0387499704957" lon="9.168524919077754">
<ele>175.60000000000002</ele>
<time>2023-05-16T13:36:03Z</time>
</trkpt>
<trkpt lat="49.038741923868656" lon="9.168476974591613">
<ele>175.60000000000002</ele>
<time>2023-05-16T13:36:04Z</time>
</trkpt>
<trkpt lat="49.038736978545785" lon="9.16842794045806">
<ele>175.79999999999995</ele>
<time>2023-05-16T13:36:05Z</time>
</trkpt>
<trkpt lat="49.03873295523226" lon="9.168382929638028">
<ele>176</ele>
<time>2023-05-16T13:36:06Z</time>
</trkpt>
<trkpt lat="49.03873295523226" lon="9.168339930474758">
<ele>176</ele>
<time>2023-05-16T13:36:07Z</time>
</trkpt>
<trkpt lat="49.038734966889024" lon="9.16829994879663">
<ele>176.20000000000005</ele>
<time>2023-05-16T13:36:08Z</time>
</trkpt>
<trkpt lat="49.038737984374166" lon="9.168262984603643">
<ele>176.20000000000005</ele>
<time>2023-05-16T13:36:09Z</time>
</trkpt>
<trkpt lat="49.0387449413538" lon="9.168229959905148">
<ele>176.39999999999998</ele>
<time>2023-05-16T13:36:10Z</time>
</trkpt>
<trkpt lat="49.038754999637604" lon="9.168199952691793">
<ele>176.39999999999998</ele>
<time>2023-05-16T13:36:11Z</time>
</trkpt>
<trkpt lat="49.03876296244562" lon="9.168174974620342">
<ele>176.60000000000002</ele>
<time>2023-05-16T13:36:12Z</time>
</trkpt>
<trkpt lat="49.03877494856715" lon="9.16815192438662">
<ele>176.60000000000002</ele>
<time>2023-05-16T13:36:13Z</time>
</trkpt>
<trkpt lat="49.03878794051707" lon="9.168132981285453">
<ele>176.79999999999995</ele>
<time>2023-05-16T13:36:14Z</time>
</trkpt>
<trkpt lat="49.038802944123745" lon="9.168114960193634">
<ele>176.79999999999995</ele>
<time>2023-05-16T13:36:15Z</time>
</trkpt>
<trkpt lat="49.03881995938718" lon="9.168094927445054">
<ele>176.79999999999995</ele>
<time>2023-05-16T13:36:16Z</time>
</trkpt>
<trkpt lat="49.03883697465062" lon="9.168072966858745">
<ele>177</ele>
<time>2023-05-16T13:36:17Z</time>
</trkpt>
<trkpt lat="49.038847954943776" lon="9.16804295964539">
<ele>177.20000000000005</ele>
<time>2023-05-16T13:36:18Z</time>
</trkpt>
<trkpt lat="49.038844937458634" lon="9.168006917461753">
<ele>177.20000000000005</ele>
<time>2023-05-16T13:36:19Z</time>
</trkpt>
<trkpt lat="49.0388329513371" lon="9.167971964925528">
<ele>177.39999999999998</ele>
<time>2023-05-16T13:36:20Z</time>
</trkpt>
<trkpt lat="49.03881493024528" lon="9.16793298907578">
<ele>177.39999999999998</ele>
<time>2023-05-16T13:36:21Z</time>
</trkpt>
<trkpt lat="49.03879196383059" lon="9.167896946892142">
<ele>177.60000000000002</ele>
<time>2023-05-16T13:36:22Z</time>
</trkpt>
<trkpt lat="49.03876497410238" lon="9.167857971042395">
<ele>177.60000000000002</ele>
<time>2023-05-16T13:36:23Z</time>
</trkpt>
<trkpt lat="49.03873295523226" lon="9.167821928858757">
<ele>177.79999999999995</ele>
<time>2023-05-16T13:36:24Z</time>
</trkpt>
<trkpt lat="49.038697918877006" lon="9.167796950787306">
<ele>177.79999999999995</ele>
<time>2023-05-16T13:36:25Z</time>
</trkpt>
<trkpt lat="49.03865793719888" lon="9.167787982150912">
<ele>177.79999999999995</ele>
<time>2023-05-16T13:36:26Z</time>
</trkpt>
<trkpt lat="49.03861493803561" lon="9.167787982150912">
<ele>178</ele>
<time>2023-05-16T13:36:27Z</time>
</trkpt>
<trkpt lat="49.03857193887234" lon="9.16778295300901">
<ele>178</ele>
<time>2023-05-16T13:36:28Z</time>
</trkpt>
<trkpt lat="49.03852793388069" lon="9.16775998659432">
<ele>178</ele>
<time>2023-05-16T13:36:29Z</time>
</trkpt>
<trkpt lat="49.03848996385932" lon="9.16771992109716">
<ele>178</ele>
<time>2023-05-16T13:36:30Z</time>
</trkpt>
<trkpt lat="49.038457944989204" lon="9.167672982439399">
<ele>178</ele>
<time>2023-05-16T13:36:31Z</time>
</trkpt>
<trkpt lat="49.038434978574514" lon="9.167619924992323">
<ele>178</ele>
<time>2023-05-16T13:36:32Z</time>
</trkpt>
<trkpt lat="49.03841293416917" lon="9.167564939707518">
<ele>178.20000000000005</ele>
<time>2023-05-16T13:36:33Z</time>
</trkpt>
<trkpt lat="49.038391979411244" lon="9.167509954422712">
<ele>178.20000000000005</ele>
<time>2023-05-16T13:36:34Z</time>
</trkpt>
<trkpt lat="49.038371946662664" lon="9.167454969137907">
<ele>178.39999999999998</ele>
<time>2023-05-16T13:36:35Z</time>
</trkpt>
<trkpt lat="49.038349986076355" lon="9.167399983853102">
<ele>178.39999999999998</ele>
<time>2023-05-16T13:36:36Z</time>
</trkpt>
<trkpt lat="49.038327941671014" lon="9.167341981083155">
<ele>178.39999999999998</ele>
<time>2023-05-16T13:36:37Z</time>
</trkpt>
<trkpt lat="49.038304975256324" lon="9.167282972484827">
<ele>178.60000000000002</ele>
<time>2023-05-16T13:36:38Z</time>
</trkpt>
<trkpt lat="49.03827999718487" lon="9.167221952229738">
<ele>178.60000000000002</ele>
<time>2023-05-16T13:36:39Z</time>
</trkpt>
<trkpt lat="49.03825493529439" lon="9.16716193780303">
<ele>178.60000000000002</ele>
<time>2023-05-16T13:36:40Z</time>
</trkpt>
<trkpt lat="49.03822995722294" lon="9.167099995538592">
<ele>178.79999999999995</ele>
<time>2023-05-16T13:36:41Z</time>
</trkpt>
<trkpt lat="49.038202967494726" lon="9.167039981111884">
<ele>178.79999999999995</ele>
<time>2023-05-16T13:36:42Z</time>
</trkpt>
<trkpt lat="49.03817497193813" lon="9.166977955028415">
<ele>178.79999999999995</ele>
<time>2023-05-16T13:36:43Z</time>
</trkpt>
<trkpt lat="49.03814798220992" lon="9.166914923116565">
<ele>179</ele>
<time>2023-05-16T13:36:44Z</time>
</trkpt>
<trkpt lat="49.03812199831009" lon="9.166851975023746">
<ele>179</ele>
<time>2023-05-16T13:36:45Z</time>
</trkpt>
<trkpt lat="49.038092996925116" lon="9.166787937283516">
<ele>179.20000000000005</ele>
<time>2023-05-16T13:36:46Z</time>
</trkpt>
<trkpt lat="49.03806692920625" lon="9.166724989190698">
<ele>179.39999999999998</ele>
<time>2023-05-16T13:36:47Z</time>
</trkpt>
<trkpt lat="49.03803993947804" lon="9.166662963107228">
<ele>179.39999999999998</ele>
<time>2023-05-16T13:36:48Z</time>
</trkpt>
<trkpt lat="49.03801294974983" lon="9.16660194285214">
<ele>179.60000000000002</ele>
<time>2023-05-16T13:36:49Z</time>
</trkpt>
<trkpt lat="49.037986965849996" lon="9.166541928425431">
<ele>179.60000000000002</ele>
<time>2023-05-16T13:36:50Z</time>
</trkpt>
<trkpt lat="49.037962993606925" lon="9.166482919827104">
<ele>179.79999999999995</ele>
<time>2023-05-16T13:36:51Z</time>
</trkpt>
<trkpt lat="49.03793793171644" lon="9.166424917057157">
<ele>180</ele>
<time>2023-05-16T13:36:52Z</time>
</trkpt>
<trkpt lat="49.03791496530175" lon="9.166369931772351">
<ele>180</ele>
<time>2023-05-16T13:36:53Z</time>
</trkpt>
<trkpt lat="49.0378899872303" lon="9.166312934830785">
<ele>180.20000000000005</ele>
<time>2023-05-16T13:36:54Z</time>
</trkpt>
<trkpt lat="49.03786693699658" lon="9.166252920404077">
<ele>180.20000000000005</ele>
<time>2023-05-16T13:36:55Z</time>
</trkpt>
<trkpt lat="49.03784497641027" lon="9.16619491763413">
<ele>180.39999999999998</ele>
<time>2023-05-16T13:36:56Z</time>
</trkpt>
<trkpt lat="49.03782192617655" lon="9.166136998683214">
<ele>180.39999999999998</ele>
<time>2023-05-16T13:36:57Z</time>
</trkpt>
<trkpt lat="49.03779996559024" lon="9.166079917922616">
<ele>180.60000000000002</ele>
<time>2023-05-16T13:36:58Z</time>
</trkpt>
<trkpt lat="49.03778194449842" lon="9.166026944294572">
<ele>180.60000000000002</ele>
<time>2023-05-16T13:36:59Z</time>
</trkpt>
<trkpt lat="49.03776199556887" lon="9.165972964838147">
<ele>180.79999999999995</ele>
<time>2023-05-16T13:37:00Z</time>
</trkpt>
<trkpt lat="49.03774296864867" lon="9.165919991210103">
<ele>181</ele>
<time>2023-05-16T13:37:01Z</time>
</trkpt>
<trkpt lat="49.03772293590009" lon="9.165866933763027">
<ele>181</ele>
<time>2023-05-16T13:37:02Z</time>
</trkpt>
<trkpt lat="49.037704998627305" lon="9.165812954306602">
<ele>181.20000000000005</ele>
<time>2023-05-16T13:37:03Z</time>
</trkpt>
<trkpt lat="49.037686977535486" lon="9.165759980678558">
<ele>181.20000000000005</ele>
<time>2023-05-16T13:37:04Z</time>
</trkpt>
<trkpt lat="49.037664933130145" lon="9.165707929059863">
<ele>181.39999999999998</ele>
<time>2023-05-16T13:37:05Z</time>
</trkpt>
<trkpt lat="49.0376449842006" lon="9.165661996230483">
<ele>181.60000000000002</ele>
<time>2023-05-16T13:37:06Z</time>
</trkpt>
<trkpt lat="49.03762495145202" lon="9.165616985410452">
<ele>181.79999999999995</ele>
<time>2023-05-16T13:37:07Z</time>
</trkpt>
<trkpt lat="49.03760198503733" lon="9.165572980418801">
<ele>182</ele>
<time>2023-05-16T13:37:08Z</time>
</trkpt>
<trkpt lat="49.037577928975224" lon="9.165531992912292">
<ele>182.20000000000005</ele>
<time>2023-05-16T13:37:09Z</time>
</trkpt>
<trkpt lat="49.03754993341863" lon="9.165492933243513">
<ele>182.20000000000005</ele>
<time>2023-05-16T13:37:10Z</time>
</trkpt>
<trkpt lat="49.03752193786204" lon="9.165454963222146">
<ele>182.39999999999998</ele>
<time>2023-05-16T13:37:11Z</time>
</trkpt>
<trkpt lat="49.037494948133826" lon="9.165414981544018">
<ele>182.60000000000002</ele>
<time>2023-05-16T13:37:12Z</time>
</trkpt>
<trkpt lat="49.03746292926371" lon="9.165372988209128">
<ele>182.79999999999995</ele>
<time>2023-05-16T13:37:13Z</time>
</trkpt>
<trkpt lat="49.03743292205036" lon="9.165331916883588">
<ele>182.79999999999995</ele>
<time>2023-05-16T13:37:14Z</time>
</trkpt>
<trkpt lat="49.037404926493764" lon="9.165289923548698">
<ele>183</ele>
<time>2023-05-16T13:37:15Z</time>
</trkpt>
<trkpt lat="49.03737994842231" lon="9.16524994187057">
<ele>183.20000000000005</ele>
<time>2023-05-16T13:37:16Z</time>
</trkpt>
<trkpt lat="49.0373529586941" lon="9.1652069427073">
<ele>183.39999999999998</ele>
<time>2023-05-16T13:37:17Z</time>
</trkpt>
<trkpt lat="49.03733192011714" lon="9.16516293771565">
<ele>183.60000000000002</ele>
<time>2023-05-16T13:37:18Z</time>
</trkpt>
<trkpt lat="49.03730794787407" lon="9.165117926895618">
<ele>183.60000000000002</ele>
<time>2023-05-16T13:37:19Z</time>
</trkpt>
<trkpt lat="49.03728699311614" lon="9.165072999894619">
<ele>183.79999999999995</ele>
<time>2023-05-16T13:37:20Z</time>
</trkpt>
<trkpt lat="49.03726293705404" lon="9.165027989074588">
<ele>184</ele>
<time>2023-05-16T13:37:21Z</time>
</trkpt>
<trkpt lat="49.03723795898259" lon="9.164986917749047">
<ele>184.20000000000005</ele>
<time>2023-05-16T13:37:22Z</time>
</trkpt>
<trkpt lat="49.0372149925679" lon="9.164939979091287">
<ele>184.39999999999998</ele>
<time>2023-05-16T13:37:23Z</time>
</trkpt>
<trkpt lat="49.037191942334175" lon="9.164894968271255">
<ele>184.60000000000002</ele>
<time>2023-05-16T13:37:24Z</time>
</trkpt>
<trkpt lat="49.037169981747866" lon="9.164849957451224">
<ele>184.79999999999995</ele>
<time>2023-05-16T13:37:25Z</time>
</trkpt>
<trkpt lat="49.037147937342525" lon="9.164801929146051">
<ele>185</ele>
<time>2023-05-16T13:37:26Z</time>
</trkpt>
<trkpt lat="49.037126982584596" lon="9.16475499048829">
<ele>185.20000000000005</ele>
<time>2023-05-16T13:37:27Z</time>
</trkpt>
<trkpt lat="49.037104938179255" lon="9.16470997966826">
<ele>185.39999999999998</ele>
<time>2023-05-16T13:37:28Z</time>
</trkpt>
<trkpt lat="49.037082977592945" lon="9.164664968848228">
<ele>185.60000000000002</ele>
<time>2023-05-16T13:37:29Z</time>
</trkpt>
<trkpt lat="49.03705992735922" lon="9.164619958028197">
<ele>185.79999999999995</ele>
<time>2023-05-16T13:37:30Z</time>
</trkpt>
<trkpt lat="49.037037966772914" lon="9.164574947208166">
<ele>186</ele>
<time>2023-05-16T13:37:31Z</time>
</trkpt>
<trkpt lat="49.03701298870146" lon="9.164527924731374">
<ele>186.20000000000005</ele>
<time>2023-05-16T13:37:32Z</time>
</trkpt>
<trkpt lat="49.03698792681098" lon="9.164479980245233">
<ele>186.39999999999998</ele>
<time>2023-05-16T13:37:33Z</time>
</trkpt>
<trkpt lat="49.03696194291115" lon="9.164427928626537">
<ele>186.60000000000002</ele>
<time>2023-05-16T13:37:34Z</time>
</trkpt>
<trkpt lat="49.036932941526175" lon="9.164371937513351">
<ele>186.79999999999995</ele>
<time>2023-05-16T13:37:35Z</time>
</trkpt>
<trkpt lat="49.03690494596958" lon="9.164314940571785">
<ele>187</ele>
<time>2023-05-16T13:37:36Z</time>
</trkpt>
<trkpt lat="49.03687795624137" lon="9.164256937801838">
<ele>187.39999999999998</ele>
<time>2023-05-16T13:37:37Z</time>
</trkpt>
<trkpt lat="49.036849960684776" lon="9.164199940860271">
<ele>187.60000000000002</ele>
<time>2023-05-16T13:37:38Z</time>
</trkpt>
<trkpt lat="49.03682196512818" lon="9.164141938090324">
<ele>188</ele>
<time>2023-05-16T13:37:39Z</time>
</trkpt>
<trkpt lat="49.03679296374321" lon="9.164082929491997">
<ele>188.39999999999998</ele>
<time>2023-05-16T13:37:40Z</time>
</trkpt>
<trkpt lat="49.03676496818662" lon="9.16402492672205">
<ele>188.60000000000002</ele>
<time>2023-05-16T13:37:41Z</time>
</trkpt>
<trkpt lat="49.036737978458405" lon="9.163971953094006">
<ele>189</ele>
<time>2023-05-16T13:37:42Z</time>
</trkpt>
<trkpt lat="49.03671199455857" lon="9.163919985294342">
<ele>189.39999999999998</ele>
<time>2023-05-16T13:37:43Z</time>
</trkpt>
<trkpt lat="49.03668793849647" lon="9.16387296281755">
<ele>189.79999999999995</ele>
<time>2023-05-16T13:37:44Z</time>
</trkpt>
<trkpt lat="49.03666698373854" lon="9.16382996365428">
<ele>190.20000000000005</ele>
<time>2023-05-16T13:37:45Z</time>
</trkpt>
<trkpt lat="49.03664695098996" lon="9.16378696449101">
<ele>190.39999999999998</ele>
<time>2023-05-16T13:37:46Z</time>
</trkpt>
<trkpt lat="49.03662499040365" lon="9.163741953670979">
<ele>190.79999999999995</ele>
<time>2023-05-16T13:37:47Z</time>
</trkpt>
<trkpt lat="49.03660696931183" lon="9.163697948679328">
<ele>191.20000000000005</ele>
<time>2023-05-16T13:37:48Z</time>
</trkpt>
<trkpt lat="49.03658693656325" lon="9.16365696117282">
<ele>191.39999999999998</ele>
<time>2023-05-16T13:37:49Z</time>
</trkpt>
<trkpt lat="49.036566987633705" lon="9.163617985323071">
<ele>191.79999999999995</ele>
<time>2023-05-16T13:37:50Z</time>
</trkpt>
<trkpt lat="49.036546954885125" lon="9.163576997816563">
<ele>192.20000000000005</ele>
<time>2023-05-16T13:37:51Z</time>
</trkpt>
<trkpt lat="49.036527927964926" lon="9.163536932319403">
<ele>192.39999999999998</ele>
<time>2023-05-16T13:37:52Z</time>
</trkpt>
<trkpt lat="49.036506973207" lon="9.163497956469655">
<ele>192.79999999999995</ele>
<time>2023-05-16T13:37:53Z</time>
</trkpt>
<trkpt lat="49.0364879462868" lon="9.163459986448288">
<ele>193</ele>
<time>2023-05-16T13:37:54Z</time>
</trkpt>
<trkpt lat="49.03646799735725" lon="9.16342193260789">
<ele>193.39999999999998</ele>
<time>2023-05-16T13:37:55Z</time>
</trkpt>
<trkpt lat="49.03644796460867" lon="9.163389997556806">
<ele>193.79999999999995</ele>
<time>2023-05-16T13:37:56Z</time>
</trkpt>
<trkpt lat="49.03642994351685" lon="9.163354961201549">
<ele>194</ele>
<time>2023-05-16T13:37:57Z</time>
</trkpt>
<trkpt lat="49.03641192242503" lon="9.163316991180182">
<ele>194.39999999999998</ele>
<time>2023-05-16T13:37:58Z</time>
</trkpt>
<trkpt lat="49.036392979323864" lon="9.163279943168163">
<ele>194.60000000000002</ele>
<time>2023-05-16T13:37:59Z</time>
</trkpt>
<trkpt lat="49.036372946575284" lon="9.163244990631938">
<ele>195</ele>
<time>2023-05-16T13:38:00Z</time>
</trkpt>
<trkpt lat="49.036354925483465" lon="9.16320794261992">
<ele>195.20000000000005</ele>
<time>2023-05-16T13:38:01Z</time>
</trkpt>
<trkpt lat="49.03633497655392" lon="9.163172990083694">
<ele>195.60000000000002</ele>
<time>2023-05-16T13:38:02Z</time>
</trkpt>
<trkpt lat="49.03631494380534" lon="9.163136947900057">
<ele>195.79999999999995</ele>
<time>2023-05-16T13:38:03Z</time>
</trkpt>
<trkpt lat="49.03629692271352" lon="9.16309797205031">
<ele>196.20000000000005</ele>
<time>2023-05-16T13:38:04Z</time>
</trkpt>
<trkpt lat="49.03627697378397" lon="9.163057990372181">
<ele>196.39999999999998</ele>
<time>2023-05-16T13:38:05Z</time>
</trkpt>
<trkpt lat="49.03625794686377" lon="9.163017924875021">
<ele>196.79999999999995</ele>
<time>2023-05-16T13:38:06Z</time>
</trkpt>
<trkpt lat="49.03623992577195" lon="9.162981966510415">
<ele>197</ele>
<time>2023-05-16T13:38:07Z</time>
</trkpt>
<trkpt lat="49.036221988499165" lon="9.162942990660667">
<ele>197.20000000000005</ele>
<time>2023-05-16T13:38:08Z</time>
</trkpt>
<trkpt lat="49.036202961578965" lon="9.16290795430541">
<ele>197.39999999999998</ele>
<time>2023-05-16T13:38:09Z</time>
</trkpt>
<trkpt lat="49.036182928830385" lon="9.162871995940804">
<ele>197.60000000000002</ele>
<time>2023-05-16T13:38:10Z</time>
</trkpt>
<trkpt lat="49.0361649915576" lon="9.162836959585547">
<ele>198</ele>
<time>2023-05-16T13:38:11Z</time>
</trkpt>
<trkpt lat="49.03614495880902" lon="9.162802929058671">
<ele>198.20000000000005</ele>
<time>2023-05-16T13:38:12Z</time>
</trkpt>
<trkpt lat="49.03612794354558" lon="9.162764959037304">
<ele>198.39999999999998</ele>
<time>2023-05-16T13:38:13Z</time>
</trkpt>
<trkpt lat="49.03610992245376" lon="9.162729922682047">
<ele>198.60000000000002</ele>
<time>2023-05-16T13:38:14Z</time>
</trkpt>
<trkpt lat="49.03608997352421" lon="9.162696981802583">
<ele>198.79999999999995</ele>
<time>2023-05-16T13:38:15Z</time>
</trkpt>
<trkpt lat="49.036072958260775" lon="9.162662951275706">
<ele>199</ele>
<time>2023-05-16T13:38:16Z</time>
</trkpt>
<trkpt lat="49.036054937168956" lon="9.162627998739481">
<ele>199</ele>
<time>2023-05-16T13:38:17Z</time>
</trkpt>
<trkpt lat="49.03603498823941" lon="9.162594974040985">
<ele>199.20000000000005</ele>
<time>2023-05-16T13:38:18Z</time>
</trkpt>
<trkpt lat="49.03601495549083" lon="9.162556920200586">
<ele>199.39999999999998</ele>
<time>2023-05-16T13:38:19Z</time>
</trkpt>
<trkpt lat="49.03599492274225" lon="9.1625199560076">
<ele>199.60000000000002</ele>
<time>2023-05-16T13:38:20Z</time>
</trkpt>
<trkpt lat="49.0359749738127" lon="9.162481985986233">
<ele>199.60000000000002</ele>
<time>2023-05-16T13:38:21Z</time>
</trkpt>
<trkpt lat="49.03595292940736" lon="9.162446949630976">
<ele>199.79999999999995</ele>
<time>2023-05-16T13:38:22Z</time>
</trkpt>
<trkpt lat="49.0359369199723" lon="9.16240998543799">
<ele>199.79999999999995</ele>
<time>2023-05-16T13:38:23Z</time>
</trkpt>
<trkpt lat="49.03592191636562" lon="9.162372937425971">
<ele>200</ele>
<time>2023-05-16T13:38:24Z</time>
</trkpt>
<trkpt lat="49.03590791858733" lon="9.162337984889746">
<ele>200</ele>
<time>2023-05-16T13:38:25Z</time>
</trkpt>
<trkpt lat="49.03589299879968" lon="9.16230496019125">
<ele>200.20000000000005</ele>
<time>2023-05-16T13:38:26Z</time>
</trkpt>
<trkpt lat="49.0358729660511" lon="9.162272941321135">
<ele>200.20000000000005</ele>
<time>2023-05-16T13:38:27Z</time>
</trkpt>
<trkpt lat="49.03585192747414" lon="9.1622419282794">
<ele>200.20000000000005</ele>
<time>2023-05-16T13:38:28Z</time>
</trkpt>
<trkpt lat="49.03582795523107" lon="9.162206975743175">
<ele>200.39999999999998</ele>
<time>2023-05-16T13:38:29Z</time>
</trkpt>
<trkpt lat="49.03580498881638" lon="9.162169927731156">
<ele>200.39999999999998</ele>
<time>2023-05-16T13:38:30Z</time>
</trkpt>
<trkpt lat="49.0357849560678" lon="9.16213195770979">
<ele>200.39999999999998</ele>
<time>2023-05-16T13:38:31Z</time>
</trkpt>
<trkpt lat="49.03576693497598" lon="9.162092981860042">
<ele>200.60000000000002</ele>
<time>2023-05-16T13:38:32Z</time>
</trkpt>
<trkpt lat="49.035747991874814" lon="9.162054928019643">
<ele>200.60000000000002</ele>
<time>2023-05-16T13:38:33Z</time>
</trkpt>
<trkpt lat="49.035729970782995" lon="9.162019975483418">
<ele>200.60000000000002</ele>
<time>2023-05-16T13:38:34Z</time>
</trkpt>
<trkpt lat="49.035711949691176" lon="9.161986950784922">
<ele>200.79999999999995</ele>
<time>2023-05-16T13:38:35Z</time>
</trkpt>
<trkpt lat="49.03569493442774" lon="9.161946969106793">
<ele>200.79999999999995</ele>
<time>2023-05-16T13:38:36Z</time>
</trkpt>
<trkpt lat="49.0356779191643" lon="9.161911932751536">
<ele>200.79999999999995</ele>
<time>2023-05-16T13:38:37Z</time>
</trkpt>
<trkpt lat="49.03565797023475" lon="9.161877986043692">
<ele>201</ele>
<time>2023-05-16T13:38:38Z</time>
</trkpt>
<trkpt lat="49.03563693165779" lon="9.161846973001957">
<ele>201</ele>
<time>2023-05-16T13:38:39Z</time>
</trkpt>
<trkpt lat="49.03561698272824" lon="9.16180799715221">
<ele>201</ele>
<time>2023-05-16T13:38:40Z</time>
</trkpt>
<trkpt lat="49.03559795580804" lon="9.161766925826669">
<ele>201</ele>
<time>2023-05-16T13:38:41Z</time>
</trkpt>
<trkpt lat="49.03557691723108" lon="9.161727949976921">
<ele>201.20000000000005</ele>
<time>2023-05-16T13:38:42Z</time>
</trkpt>
<trkpt lat="49.035556968301535" lon="9.161684950813651">
<ele>201.20000000000005</ele>
<time>2023-05-16T13:38:43Z</time>
</trkpt>
<trkpt lat="49.035536935552955" lon="9.16163993999362">
<ele>201.20000000000005</ele>
<time>2023-05-16T13:38:44Z</time>
</trkpt>
<trkpt lat="49.035516986623406" lon="9.161594929173589">
<ele>201.20000000000005</ele>
<time>2023-05-16T13:38:45Z</time>
</trkpt>
<trkpt lat="49.035492930561304" lon="9.1615529358387">
<ele>201.20000000000005</ele>
<time>2023-05-16T13:38:46Z</time>
</trkpt>
<trkpt lat="49.03546795248985" lon="9.161514965817332">
<ele>201.20000000000005</ele>
<time>2023-05-16T13:38:47Z</time>
</trkpt>
<trkpt lat="49.035446997731924" lon="9.161476995795965">
<ele>201.20000000000005</ele>
<time>2023-05-16T13:38:48Z</time>
</trkpt>
<trkpt lat="49.03542193584144" lon="9.161437936127186">
<ele>201.20000000000005</ele>
<time>2023-05-16T13:38:49Z</time>
</trkpt>
<trkpt lat="49.03539997525513" lon="9.161399966105819">
<ele>201.20000000000005</ele>
<time>2023-05-16T13:38:50Z</time>
</trkpt>
<trkpt lat="49.03537994250655" lon="9.16135797277093">
<ele>201.20000000000005</ele>
<time>2023-05-16T13:38:51Z</time>
</trkpt>
<trkpt lat="49.03535798192024" lon="9.16131991893053">
<ele>201.20000000000005</ele>
<time>2023-05-16T13:38:52Z</time>
</trkpt>
<trkpt lat="49.03533493168652" lon="9.161277925595641">
<ele>201.20000000000005</ele>
<time>2023-05-16T13:38:53Z</time>
</trkpt>
<trkpt lat="49.03531297110021" lon="9.161237943917513">
<ele>201.20000000000005</ele>
<time>2023-05-16T13:38:54Z</time>
</trkpt>
<trkpt lat="49.03528992086649" lon="9.161192933097482">
<ele>201.20000000000005</ele>
<time>2023-05-16T13:38:55Z</time>
</trkpt>
<trkpt lat="49.03526796028018" lon="9.16114691644907">
<ele>201.20000000000005</ele>
<time>2023-05-16T13:38:56Z</time>
</trkpt>
<trkpt lat="49.03524692170322" lon="9.161094948649406">
<ele>201.20000000000005</ele>
<time>2023-05-16T13:38:57Z</time>
</trkpt>
<trkpt lat="49.03522999025881" lon="9.161041975021362">
<ele>201.20000000000005</ele>
<time>2023-05-16T13:38:58Z</time>
</trkpt>
<trkpt lat="49.03522294946015" lon="9.160986989736557">
<ele>201</ele>
<time>2023-05-16T13:38:59Z</time>
</trkpt>
<trkpt lat="49.03522697277367" lon="9.16093192063272">
<ele>201</ele>
<time>2023-05-16T13:39:00Z</time>
</trkpt>
<trkpt lat="49.035237953066826" lon="9.16088498197496">
<ele>201</ele>
<time>2023-05-16T13:39:01Z</time>
</trkpt>
<trkpt lat="49.0352529566735" lon="9.1608449164778">
<ele>201</ele>
<time>2023-05-16T13:39:02Z</time>
</trkpt>
<trkpt lat="49.0352719835937" lon="9.160806946456432">
<ele>200.79999999999995</ele>
<time>2023-05-16T13:39:03Z</time>
</trkpt>
<trkpt lat="49.03528799302876" lon="9.160769982263446">
<ele>200.79999999999995</ele>
<time>2023-05-16T13:39:04Z</time>
</trkpt>
<trkpt lat="49.03530299663544" lon="9.160732934251428">
<ele>200.60000000000002</ele>
<time>2023-05-16T13:39:05Z</time>
</trkpt>
<trkpt lat="49.03531297110021" lon="9.160699993371964">
<ele>200.60000000000002</ele>
<time>2023-05-16T13:39:06Z</time>
</trkpt>
<trkpt lat="49.03531498275697" lon="9.160667974501848">
<ele>200.39999999999998</ele>
<time>2023-05-16T13:39:07Z</time>
</trkpt>
<trkpt lat="49.03530693612993" lon="9.160636961460114">
<ele>200.39999999999998</ele>
<time>2023-05-16T13:39:08Z</time>
</trkpt>
<trkpt lat="49.03528799302876" lon="9.160614917054772">
<ele>200.20000000000005</ele>
<time>2023-05-16T13:39:09Z</time>
</trkpt>
<trkpt lat="49.03526293113828" lon="9.160614917054772">
<ele>200.20000000000005</ele>
<time>2023-05-16T13:39:10Z</time>
</trkpt>
<trkpt lat="49.03524298220873" lon="9.160636961460114">
<ele>200</ele>
<time>2023-05-16T13:39:11Z</time>
</trkpt>
<trkpt lat="49.03522797860205" lon="9.16067199781537">
<ele>200</ele>
<time>2023-05-16T13:39:12Z</time>
</trkpt>
<trkpt lat="49.03520995751023" lon="9.160706950351596">
<ele>199.79999999999995</ele>
<time>2023-05-16T13:39:13Z</time>
</trkpt>
<trkpt lat="49.03518992476165" lon="9.160734945908189">
<ele>199.79999999999995</ele>
<time>2023-05-16T13:39:14Z</time>
</trkpt>
<trkpt lat="49.03516695834696" lon="9.16075699031353">
<ele>199.79999999999995</ele>
<time>2023-05-16T13:39:15Z</time>
</trkpt>
<trkpt lat="49.03514198027551" lon="9.160771993920207">
<ele>199.60000000000002</ele>
<time>2023-05-16T13:39:16Z</time>
</trkpt>
<trkpt lat="49.03511297889054" lon="9.160772999748588">
<ele>199.60000000000002</ele>
<time>2023-05-16T13:39:17Z</time>
</trkpt>
<trkpt lat="49.035084983333945" lon="9.16075699031353">
<ele>199.60000000000002</ele>
<time>2023-05-16T13:39:18Z</time>
</trkpt>
<trkpt lat="49.03505698777735" lon="9.16071793064475">
<ele>199.39999999999998</ele>
<time>2023-05-16T13:39:19Z</time>
</trkpt>
<trkpt lat="49.03502999804914" lon="9.16066998615861">
<ele>199.20000000000005</ele>
<time>2023-05-16T13:39:20Z</time>
</trkpt>
<trkpt lat="49.035002924501896" lon="9.160616928711534">
<ele>199</ele>
<time>2023-05-16T13:39:21Z</time>
</trkpt>
<trkpt lat="49.03497199527919" lon="9.160561943426728">
<ele>198.79999999999995</ele>
<time>2023-05-16T13:39:22Z</time>
</trkpt>
<trkpt lat="49.03493997640908" lon="9.16050192900002">
<ele>198.60000000000002</ele>
<time>2023-05-16T13:39:23Z</time>
</trkpt>
<trkpt lat="49.03490795753896" lon="9.160439986735582">
<ele>198.20000000000005</ele>
<time>2023-05-16T13:39:24Z</time>
</trkpt>
<trkpt lat="49.034872921183705" lon="9.16037293151021">
<ele>197.79999999999995</ele>
<time>2023-05-16T13:39:25Z</time>
</trkpt>
<trkpt lat="49.03483796864748" lon="9.160304954275489">
<ele>197.39999999999998</ele>
<time>2023-05-16T13:39:26Z</time>
</trkpt>
<trkpt lat="49.03480293229222" lon="9.160232953727245">
<ele>197</ele>
<time>2023-05-16T13:39:27Z</time>
</trkpt>
<trkpt lat="49.03476697392762" lon="9.160159947350621">
<ele>196.39999999999998</ele>
<time>2023-05-16T13:39:28Z</time>
</trkpt>
<trkpt lat="49.03473294340074" lon="9.160084929317236">
<ele>196</ele>
<time>2023-05-16T13:39:29Z</time>
</trkpt>
<trkpt lat="49.03469497337937" lon="9.160002954304218">
<ele>195.39999999999998</ele>
<time>2023-05-16T13:39:30Z</time>
</trkpt>
<trkpt lat="49.034652980044484" lon="9.159917961806059">
<ele>194.79999999999995</ele>
<time>2023-05-16T13:39:31Z</time>
</trkpt>
<trkpt lat="49.034611992537975" lon="9.159831963479519">
<ele>194.20000000000005</ele>
<time>2023-05-16T13:39:32Z</time>
</trkpt>
<trkpt lat="49.034567987546325" lon="9.159739930182695">
<ele>193.39999999999998</ele>
<time>2023-05-16T13:39:33Z</time>
</trkpt>
<trkpt lat="49.034526916220784" lon="9.159651920199394">
<ele>192.79999999999995</ele>
<time>2023-05-16T13:39:34Z</time>
</trkpt>
<trkpt lat="49.034486934542656" lon="9.159571956843138">
<ele>192</ele>
<time>2023-05-16T13:39:35Z</time>
</trkpt>
<trkpt lat="49.03444695286453" lon="9.15948998183012">
<ele>191.39999999999998</ele>
<time>2023-05-16T13:39:36Z</time>
</trkpt>
<trkpt lat="49.03440998867154" lon="9.159411946311593">
<ele>190.79999999999995</ele>
<time>2023-05-16T13:39:37Z</time>
</trkpt>
<trkpt lat="49.03437294065952" lon="9.159336928278208">
<ele>190</ele>
<time>2023-05-16T13:39:38Z</time>
</trkpt>
<trkpt lat="49.03433999978006" lon="9.159261994063854">
<ele>189.39999999999998</ele>
<time>2023-05-16T13:39:39Z</time>
</trkpt>
<trkpt lat="49.034307980909944" lon="9.159181946888566">
<ele>188.39999999999998</ele>
<time>2023-05-16T13:39:40Z</time>
</trkpt>
<trkpt lat="49.03427797369659" lon="9.159094942733645">
<ele>187.60000000000002</ele>
<time>2023-05-16T13:39:41Z</time>
</trkpt>
<trkpt lat="49.034244948998094" lon="9.159004921093583">
<ele>186.60000000000002</ele>
<time>2023-05-16T13:39:42Z</time>
</trkpt>
<trkpt lat="49.0342119242996" lon="9.158914983272552">
<ele>185.60000000000002</ele>
<time>2023-05-16T13:39:43Z</time>
</trkpt>
<trkpt lat="49.03417697176337" lon="9.158829990774393">
<ele>184.60000000000002</ele>
<time>2023-05-16T13:39:44Z</time>
</trkpt>
<trkpt lat="49.034141935408115" lon="9.158741980791092">
<ele>183.79999999999995</ele>
<time>2023-05-16T13:39:45Z</time>
</trkpt>
<trkpt lat="49.03410497121513" lon="9.158649947494268">
<ele>182.79999999999995</ele>
<time>2023-05-16T13:39:46Z</time>
</trkpt>
<trkpt lat="49.03406792320311" lon="9.158552968874574">
<ele>181.79999999999995</ele>
<time>2023-05-16T13:39:47Z</time>
</trkpt>
<trkpt lat="49.034032970666885" lon="9.158451966941357">
<ele>180.79999999999995</ele>
<time>2023-05-16T13:39:48Z</time>
</trkpt>
<trkpt lat="49.03399994596839" lon="9.158347947522998">
<ele>179.79999999999995</ele>
<time>2023-05-16T13:39:49Z</time>
</trkpt>
<trkpt lat="49.033969938755035" lon="9.158249963074923">
<ele>178.79999999999995</ele>
<time>2023-05-16T13:39:50Z</time>
</trkpt>
<trkpt lat="49.03393993154168" lon="9.15815994143486">
<ele>177.79999999999995</ele>
<time>2023-05-16T13:39:51Z</time>
</trkpt>
<trkpt lat="49.03391696512699" lon="9.1580749489367">
<ele>176.79999999999995</ele>
<time>2023-05-16T13:39:52Z</time>
</trkpt>
<trkpt lat="49.03389693237841" lon="9.1579869389534">
<ele>175.79999999999995</ele>
<time>2023-05-16T13:39:53Z</time>
</trkpt>
<trkpt lat="49.03387698344886" lon="9.157896917313337">
<ele>175</ele>
<time>2023-05-16T13:39:54Z</time>
</trkpt>
<trkpt lat="49.033859968185425" lon="9.157806979492307">
<ele>174</ele>
<time>2023-05-16T13:39:55Z</time>
</trkpt>
<trkpt lat="49.03384295292199" lon="9.157712934538722">
<ele>173.20000000000005</ele>
<time>2023-05-16T13:39:56Z</time>
</trkpt>
<trkpt lat="49.03382996097207" lon="9.157616961747408">
<ele>172.20000000000005</ele>
<time>2023-05-16T13:39:57Z</time>
</trkpt>
<trkpt lat="49.0338199865073" lon="9.157521994784474">
<ele>171.39999999999998</ele>
<time>2023-05-16T13:39:58Z</time>
</trkpt>
<trkpt lat="49.03380699455738" lon="9.15742794983089">
<ele>170.39999999999998</ele>
<time>2023-05-16T13:39:59Z</time>
</trkpt>
<trkpt lat="49.03379995375872" lon="9.157337928190827">
<ele>169.60000000000002</ele>
<time>2023-05-16T13:40:00Z</time>
</trkpt>
<trkpt lat="49.03380196541548" lon="9.157246984541416">
<ele>168.60000000000002</ele>
<time>2023-05-16T13:40:01Z</time>
</trkpt>
<trkpt lat="49.033817974850535" lon="9.157162997871637">
<ele>167.79999999999995</ele>
<time>2023-05-16T13:40:02Z</time>
</trkpt>
<trkpt lat="49.03384697623551" lon="9.157091919332743">
<ele>167</ele>
<time>2023-05-16T13:40:03Z</time>
</trkpt>
<trkpt lat="49.033882934600115" lon="9.157036934047937">
<ele>166.20000000000005</ele>
<time>2023-05-16T13:40:04Z</time>
</trkpt>
<trkpt lat="49.033921994268894" lon="9.156999969854951">
<ele>165.60000000000002</ele>
<time>2023-05-16T13:40:05Z</time>
</trkpt>
<trkpt lat="49.03395996429026" lon="9.156966945156455">
<ele>164.79999999999995</ele>
<time>2023-05-16T13:40:06Z</time>
</trkpt>
<trkpt lat="49.03400195762515" lon="9.15693299844861">
<ele>164.20000000000005</ele>
<time>2023-05-16T13:40:07Z</time>
</trkpt>
<trkpt lat="49.03403498232365" lon="9.15689293295145">
<ele>163.39999999999998</ele>
<time>2023-05-16T13:40:08Z</time>
</trkpt>
<trkpt lat="49.03406297788024" lon="9.156852951273322">
<ele>162.79999999999995</ele>
<time>2023-05-16T13:40:09Z</time>
</trkpt>
<trkpt lat="49.03408493846655" lon="9.15680492296815">
<ele>162.39999999999998</ele>
<time>2023-05-16T13:40:10Z</time>
</trkpt>
<trkpt lat="49.034096924588084" lon="9.156751949340105">
<ele>161.79999999999995</ele>
<time>2023-05-16T13:40:11Z</time>
</trkpt>
<trkpt lat="49.034094996750355" lon="9.156692940741777">
<ele>161.39999999999998</ele>
<time>2023-05-16T13:40:12Z</time>
</trkpt>
<trkpt lat="49.03408996760845" lon="9.156636949628592">
<ele>161</ele>
<time>2023-05-16T13:40:13Z</time>
</trkpt>
<trkpt lat="49.03408795595169" lon="9.156571989879012">
<ele>160.79999999999995</ele>
<time>2023-05-16T13:40:14Z</time>
</trkpt>
<trkpt lat="49.03408795595169" lon="9.156502922996879">
<ele>160.39999999999998</ele>
<time>2023-05-16T13:40:15Z</time>
</trkpt>
<trkpt lat="49.03409197926521" lon="9.1564379632473">
<ele>160.20000000000005</ele>
<time>2023-05-16T13:40:16Z</time>
</trkpt>
<trkpt lat="49.03408795595169" lon="9.156364956870675">
<ele>160</ele>
<time>2023-05-16T13:40:17Z</time>
</trkpt>
<trkpt lat="49.03408795595169" lon="9.156291950494051">
<ele>159.60000000000002</ele>
<time>2023-05-16T13:40:18Z</time>
</trkpt>
<trkpt lat="49.03408996760845" lon="9.156216932460666">
<ele>159.39999999999998</ele>
<time>2023-05-16T13:40:19Z</time>
</trkpt>
<trkpt lat="49.03409197926521" lon="9.15613696910441">
<ele>159</ele>
<time>2023-05-16T13:40:20Z</time>
</trkpt>
<trkpt lat="49.034092985093594" lon="9.156057927757502">
<ele>158.60000000000002</ele>
<time>2023-05-16T13:40:21Z</time>
</trkpt>
<trkpt lat="49.03409197926521" lon="9.155974946916103">
<ele>158.20000000000005</ele>
<time>2023-05-16T13:40:22Z</time>
</trkpt>
<trkpt lat="49.03408795595169" lon="9.155891966074705">
<ele>157.79999999999995</ele>
<time>2023-05-16T13:40:23Z</time>
</trkpt>
<trkpt lat="49.03408493846655" lon="9.155809991061687">
<ele>157.39999999999998</ele>
<time>2023-05-16T13:40:24Z</time>
</trkpt>
<trkpt lat="49.03408292680979" lon="9.155727932229638">
<ele>157</ele>
<time>2023-05-16T13:40:25Z</time>
</trkpt>
<trkpt lat="49.03408292680979" lon="9.155649980530143">
<ele>156.60000000000002</ele>
<time>2023-05-16T13:40:26Z</time>
</trkpt>
<trkpt lat="49.03408192098141" lon="9.155572950839996">
<ele>156.20000000000005</ele>
<time>2023-05-16T13:40:27Z</time>
</trkpt>
<trkpt lat="49.03407798148692" lon="9.155497932806611">
<ele>155.60000000000002</ele>
<time>2023-05-16T13:40:28Z</time>
</trkpt>
<trkpt lat="49.034072952345014" lon="9.155426938086748">
<ele>155.20000000000005</ele>
<time>2023-05-16T13:40:29Z</time>
</trkpt>
<trkpt lat="49.03406993485987" lon="9.155354937538505">
<ele>154.79999999999995</ele>
<time>2023-05-16T13:40:30Z</time>
</trkpt>
<trkpt lat="49.03406792320311" lon="9.155284948647022">
<ele>154.39999999999998</ele>
<time>2023-05-16T13:40:31Z</time>
</trkpt>
<trkpt lat="49.03406691737473" lon="9.15521495975554">
<ele>154</ele>
<time>2023-05-16T13:40:32Z</time>
</trkpt>
<trkpt lat="49.03406691737473" lon="9.155149916186929">
<ele>153.60000000000002</ele>
<time>2023-05-16T13:40:33Z</time>
</trkpt>
<trkpt lat="49.034064989537" lon="9.155101971700788">
<ele>153.20000000000005</ele>
<time>2023-05-16T13:40:34Z</time>
</trkpt>
<trkpt lat="49.034064989537" lon="9.15506299585104">
<ele>152.79999999999995</ele>
<time>2023-05-16T13:40:35Z</time>
</trkpt>
<trkpt lat="49.034064989537" lon="9.155027959495783">
<ele>152.60000000000002</ele>
<time>2023-05-16T13:40:36Z</time>
</trkpt>
<trkpt lat="49.034064989537" lon="9.154992923140526">
<ele>152.20000000000005</ele>
<time>2023-05-16T13:40:37Z</time>
</trkpt>
<trkpt lat="49.034064989537" lon="9.154961993917823">
<ele>152</ele>
<time>2023-05-16T13:40:38Z</time>
</trkpt>
<trkpt lat="49.034064989537" lon="9.154926957562566">
<ele>151.79999999999995</ele>
<time>2023-05-16T13:40:39Z</time>
</trkpt>
<trkpt lat="49.03406297788024" lon="9.15489292703569">
<ele>151.60000000000002</ele>
<time>2023-05-16T13:40:40Z</time>
</trkpt>
<trkpt lat="49.0340599603951" lon="9.154861997812986">
<ele>151.39999999999998</ele>
<time>2023-05-16T13:40:41Z</time>
</trkpt>
<trkpt lat="49.034056942909956" lon="9.154831990599632">
<ele>151.20000000000005</ele>
<time>2023-05-16T13:40:42Z</time>
</trkpt>
<trkpt lat="49.034054931253195" lon="9.154802989214659">
<ele>151</ele>
<time>2023-05-16T13:40:43Z</time>
</trkpt>
<trkpt lat="49.034051997587085" lon="9.154774993658066">
<ele>150.79999999999995</ele>
<time>2023-05-16T13:40:44Z</time>
</trkpt>
<trkpt lat="49.034051997587085" lon="9.154744986444712">
<ele>150.60000000000002</ele>
<time>2023-05-16T13:40:45Z</time>
</trkpt>
<trkpt lat="49.034051997587085" lon="9.154719924554229">
<ele>150.39999999999998</ele>
<time>2023-05-16T13:40:46Z</time>
</trkpt>
<trkpt lat="49.034049985930324" lon="9.154694946482778">
<ele>150.20000000000005</ele>
<time>2023-05-16T13:40:47Z</time>
</trkpt>
<trkpt lat="49.03404696844518" lon="9.154667956754565">
<ele>150.20000000000005</ele>
<time>2023-05-16T13:40:48Z</time>
</trkpt>
<trkpt lat="49.03404294513166" lon="9.154642978683114">
<ele>150</ele>
<time>2023-05-16T13:40:49Z</time>
</trkpt>
<trkpt lat="49.03404193930328" lon="9.154621940106153">
<ele>150</ele>
<time>2023-05-16T13:40:50Z</time>
</trkpt>
<trkpt lat="49.03403699398041" lon="9.154599979519844">
<ele>149.79999999999995</ele>
<time>2023-05-16T13:40:51Z</time>
</trkpt>
<trkpt lat="49.03403498232365" lon="9.154576929286122">
<ele>149.79999999999995</ele>
<time>2023-05-16T13:40:52Z</time>
</trkpt>
<trkpt lat="49.034031964838505" lon="9.154559997841716">
<ele>149.60000000000002</ele>
<time>2023-05-16T13:40:53Z</time>
</trkpt>
<trkpt lat="49.03402794152498" lon="9.154551951214671">
<ele>149.60000000000002</ele>
<time>2023-05-16T13:40:54Z</time>
</trkpt>
<trkpt lat="49.03402794152498" lon="9.15454993955791">
<ele>149.39999999999998</ele>
<time>2023-05-16T13:40:56Z</time>
</trkpt>
<trkpt lat="49.03397295624018" lon="9.154551951214671">
<ele>149.20000000000005</ele>
<time>2023-05-16T13:40:57Z</time>
</trkpt>
<trkpt lat="49.0339579526335" lon="9.154554968699813">
<ele>149.20000000000005</ele>
<time>2023-05-16T13:40:58Z</time>
</trkpt>
<trkpt lat="49.03393993154168" lon="9.154556980356574">
<ele>149.39999999999998</ele>
<time>2023-05-16T13:40:59Z</time>
</trkpt>
<trkpt lat="49.03392291627824" lon="9.154554968699813">
<ele>149.39999999999998</ele>
<time>2023-05-16T13:41:00Z</time>
</trkpt>
<trkpt lat="49.03390992432833" lon="9.154547927901149">
<ele>149.39999999999998</ele>
<time>2023-05-16T13:41:01Z</time>
</trkpt>
<trkpt lat="49.03389793820679" lon="9.154539965093136">
<ele>149.39999999999998</ele>
<time>2023-05-16T13:41:02Z</time>
</trkpt>
<trkpt lat="49.03389299288392" lon="9.154536947607994">
<ele>149.60000000000002</ele>
<time>2023-05-16T13:41:03Z</time>
</trkpt>
<trkpt lat="49.033882934600115" lon="9.154531918466091">
<ele>149.60000000000002</ele>
<time>2023-05-16T13:41:04Z</time>
</trkpt>
<trkpt lat="49.03386692516506" lon="9.154519932344556">
<ele>149.60000000000002</ele>
<time>2023-05-16T13:41:05Z</time>
</trkpt>
<trkpt lat="49.03384496457875" lon="9.154511969536543">
<ele>149.60000000000002</ele>
<time>2023-05-16T13:41:06Z</time>
</trkpt>
<trkpt lat="49.03382493183017" lon="9.154501995071769">
<ele>149.79999999999995</ele>
<time>2023-05-16T13:41:07Z</time>
</trkpt>
<trkpt lat="49.03380498290062" lon="9.154487997293472">
<ele>149.79999999999995</ele>
<time>2023-05-16T13:41:08Z</time>
</trkpt>
<trkpt lat="49.03378796763718" lon="9.154469976201653">
<ele>149.79999999999995</ele>
<time>2023-05-16T13:41:09Z</time>
</trkpt>
<trkpt lat="49.033772964030504" lon="9.154447931796312">
<ele>149.79999999999995</ele>
<time>2023-05-16T13:41:10Z</time>
</trkpt>
<trkpt lat="49.03375997208059" lon="9.154431922361255">
<ele>150</ele>
<time>2023-05-16T13:41:11Z</time>
</trkpt>
<trkpt lat="49.033749997615814" lon="9.154414990916848">
<ele>150</ele>
<time>2023-05-16T13:41:12Z</time>
</trkpt>
<trkpt lat="49.03374195098877" lon="9.154394958168268">
<ele>150</ele>
<time>2023-05-16T13:41:13Z</time>
</trkpt>
<trkpt lat="49.03373499400914" lon="9.154372997581959">
<ele>150</ele>
<time>2023-05-16T13:41:14Z</time>
</trkpt>
<trkpt lat="49.033731976523995" lon="9.154349947348237">
<ele>150</ele>
<time>2023-05-16T13:41:15Z</time>
</trkpt>
<trkpt lat="49.033729964867234" lon="9.154327986761928">
<ele>150</ele>
<time>2023-05-16T13:41:16Z</time>
</trkpt>
<trkpt lat="49.033731976523995" lon="9.154316922649741">
<ele>150</ele>
<time>2023-05-16T13:41:17Z</time>
</trkpt>
<trkpt lat="49.033732982352376" lon="9.15431197732687">
<ele>150</ele>
<time>2023-05-16T13:41:18Z</time>
</trkpt>
<trkpt lat="49.033732982352376" lon="9.154309965670109">
<ele>150</ele>
<time>2023-05-16T13:41:19Z</time>
</trkpt>
<trkpt lat="49.033731976523995" lon="9.154244922101498">
<ele>149.79999999999995</ele>
<time>2023-05-16T13:41:19Z</time>
</trkpt>
<trkpt lat="49.033729964867234" lon="9.15422497317195">
<ele>149.79999999999995</ele>
<time>2023-05-16T13:41:20Z</time>
</trkpt>
<trkpt lat="49.033729964867234" lon="9.154211981222034">
<ele>149.79999999999995</ele>
<time>2023-05-16T13:41:21Z</time>
</trkpt>
<trkpt lat="49.033731976523995" lon="9.15420494042337">
<ele>149.79999999999995</ele>
<time>2023-05-16T13:41:22Z</time>
</trkpt>
<trkpt lat="49.033729964867234" lon="9.154201922938228">
<ele>149.79999999999995</ele>
<time>2023-05-16T13:41:23Z</time>
</trkpt>
<trkpt lat="49.033731976523995" lon="9.154196977615356">
<ele>149.79999999999995</ele>
<time>2023-05-16T13:41:24Z</time>
</trkpt>
<trkpt lat="49.03372795321047" lon="9.154107961803675">
<ele>149.60000000000002</ele>
<time>2023-05-16T13:41:24Z</time>
</trkpt>
<trkpt lat="49.03372795321047" lon="9.154084995388985">
<ele>149.60000000000002</ele>
<time>2023-05-16T13:41:25Z</time>
</trkpt>
<trkpt lat="49.033729964867234" lon="9.154061945155263">
<ele>149.60000000000002</ele>
<time>2023-05-16T13:41:26Z</time>
</trkpt>
<trkpt lat="49.033729964867234" lon="9.154042918235064">
<ele>149.60000000000002</ele>
<time>2023-05-16T13:41:27Z</time>
</trkpt>
<trkpt lat="49.033731976523995" lon="9.154022969305515">
<ele>149.60000000000002</ele>
<time>2023-05-16T13:41:28Z</time>
</trkpt>
<trkpt lat="49.033732982352376" lon="9.154002936556935">
<ele>149.39999999999998</ele>
<time>2023-05-16T13:41:29Z</time>
</trkpt>
<trkpt lat="49.03373792767525" lon="9.153976952657104">
<ele>149.39999999999998</ele>
<time>2023-05-16T13:41:30Z</time>
</trkpt>
<trkpt lat="49.03374295681715" lon="9.153944933786988">
<ele>149.39999999999998</ele>
<time>2023-05-16T13:41:31Z</time>
</trkpt>
<trkpt lat="49.033749997615814" lon="9.153912998735905">
<ele>149.39999999999998</ele>
<time>2023-05-16T13:41:32Z</time>
</trkpt>
<trkpt lat="49.033754942938685" lon="9.15388198569417">
<ele>149.20000000000005</ele>
<time>2023-05-16T13:41:33Z</time>
</trkpt>
<trkpt lat="49.03376198373735" lon="9.153844937682152">
<ele>149.20000000000005</ele>
<time>2023-05-16T13:41:34Z</time>
</trkpt>
<trkpt lat="49.03376692906022" lon="9.153806967660785">
<ele>149.20000000000005</ele>
<time>2023-05-16T13:41:35Z</time>
</trkpt>
<trkpt lat="49.03376994654536" lon="9.153769919648767">
<ele>149.20000000000005</ele>
<time>2023-05-16T13:41:36Z</time>
</trkpt>
<trkpt lat="49.033772964030504" lon="9.15373295545578">
<ele>149.20000000000005</ele>
<time>2023-05-16T13:41:37Z</time>
</trkpt>
<trkpt lat="49.03377698734403" lon="9.153697919100523">
<ele>149.20000000000005</ele>
<time>2023-05-16T13:41:38Z</time>
</trkpt>
<trkpt lat="49.0337819326669" lon="9.153662966564298">
<ele>149.20000000000005</ele>
<time>2023-05-16T13:41:39Z</time>
</trkpt>
<trkpt lat="49.0337869618088" lon="9.15362692438066">
<ele>149</ele>
<time>2023-05-16T13:41:40Z</time>
</trkpt>
<trkpt lat="49.033791990950704" lon="9.15358493104577">
<ele>149</ele>
<time>2023-05-16T13:41:41Z</time>
</trkpt>
<trkpt lat="49.033794924616814" lon="9.15353992022574">
<ele>149</ele>
<time>2023-05-16T13:41:42Z</time>
</trkpt>
<trkpt lat="49.033797942101955" lon="9.153492981567979">
<ele>149</ele>
<time>2023-05-16T13:41:43Z</time>
</trkpt>
<trkpt lat="49.03380196541548" lon="9.153447970747948">
<ele>149</ele>
<time>2023-05-16T13:41:44Z</time>
</trkpt>
<trkpt lat="49.03380699455738" lon="9.153399942442775">
<ele>149</ele>
<time>2023-05-16T13:41:45Z</time>
</trkpt>
<trkpt lat="49.03380992822349" lon="9.153347974643111">
<ele>149</ele>
<time>2023-05-16T13:41:46Z</time>
</trkpt>
<trkpt lat="49.033814957365394" lon="9.153294917196035">
<ele>149</ele>
<time>2023-05-16T13:41:47Z</time>
</trkpt>
<trkpt lat="49.03382292017341" lon="9.153237920254469">
<ele>149</ele>
<time>2023-05-16T13:41:48Z</time>
</trkpt>
<trkpt lat="49.03382794931531" lon="9.153179917484522">
<ele>149</ele>
<time>2023-05-16T13:41:49Z</time>
</trkpt>
<trkpt lat="49.0338369179517" lon="9.153116969391704">
<ele>149</ele>
<time>2023-05-16T13:41:50Z</time>
</trkpt>
<trkpt lat="49.033841947093606" lon="9.153051925823092">
<ele>149</ele>
<time>2023-05-16T13:41:51Z</time>
</trkpt>
<trkpt lat="49.03384697623551" lon="9.152986966073513">
<ele>149</ele>
<time>2023-05-16T13:41:52Z</time>
</trkpt>
<trkpt lat="49.03384999372065" lon="9.15291496552527">
<ele>149</ele>
<time>2023-05-16T13:41:53Z</time>
</trkpt>
<trkpt lat="49.03385695070028" lon="9.152847994118929">
<ele>149</ele>
<time>2023-05-16T13:41:54Z</time>
</trkpt>
<trkpt lat="49.03386298567057" lon="9.152782950550318">
<ele>149.20000000000005</ele>
<time>2023-05-16T13:41:55Z</time>
</trkpt>
<trkpt lat="49.03387195430696" lon="9.152716984972358">
<ele>149.20000000000005</ele>
<time>2023-05-16T13:41:56Z</time>
</trkpt>
<trkpt lat="49.03387991711497" lon="9.152646996080875">
<ele>149.39999999999998</ele>
<time>2023-05-16T13:41:57Z</time>
</trkpt>
<trkpt lat="49.03388796374202" lon="9.152577929198742">
<ele>149.39999999999998</ele>
<time>2023-05-16T13:41:58Z</time>
</trkpt>
<trkpt lat="49.03389492072165" lon="9.15250794030726">
<ele>149.60000000000002</ele>
<time>2023-05-16T13:41:59Z</time>
</trkpt>
<trkpt lat="49.033904979005456" lon="9.152436945587397">
<ele>149.79999999999995</ele>
<time>2023-05-16T13:42:00Z</time>
</trkpt>
<trkpt lat="49.03391495347023" lon="9.152364945039153">
<ele>149.79999999999995</ele>
<time>2023-05-16T13:42:01Z</time>
</trkpt>
<trkpt lat="49.03392291627824" lon="9.152289927005768">
<ele>150</ele>
<time>2023-05-16T13:42:02Z</time>
</trkpt>
<trkpt lat="49.03392995707691" lon="9.152214992791414">
<ele>150.20000000000005</ele>
<time>2023-05-16T13:42:03Z</time>
</trkpt>
<trkpt lat="49.03393791988492" lon="9.15214198641479">
<ele>150.39999999999998</ele>
<time>2023-05-16T13:42:04Z</time>
</trkpt>
<trkpt lat="49.033944960683584" lon="9.152067974209785">
<ele>150.60000000000002</ele>
<time>2023-05-16T13:42:05Z</time>
</trkpt>
<trkpt lat="49.03395191766322" lon="9.151994967833161">
<ele>150.79999999999995</ele>
<time>2023-05-16T13:42:06Z</time>
</trkpt>
<trkpt lat="49.0339579526335" lon="9.151921961456537">
<ele>151</ele>
<time>2023-05-16T13:42:07Z</time>
</trkpt>
<trkpt lat="49.033966921269894" lon="9.151847949251533">
<ele>151.20000000000005</ele>
<time>2023-05-16T13:42:08Z</time>
</trkpt>
<trkpt lat="49.03397295624018" lon="9.151771925389767">
<ele>151.39999999999998</ele>
<time>2023-05-16T13:42:09Z</time>
</trkpt>
<trkpt lat="49.03397999703884" lon="9.151694979518652">
<ele>151.60000000000002</ele>
<time>2023-05-16T13:42:10Z</time>
</trkpt>
<trkpt lat="49.033987959846854" lon="9.151621973142028">
<ele>151.60000000000002</ele>
<time>2023-05-16T13:42:11Z</time>
</trkpt>
<trkpt lat="49.03399298898876" lon="9.151549972593784">
<ele>151.79999999999995</ele>
<time>2023-05-16T13:42:12Z</time>
</trkpt>
<trkpt lat="49.03399994596839" lon="9.151479983702302">
<ele>152</ele>
<time>2023-05-16T13:42:13Z</time>
</trkpt>
<trkpt lat="49.034006986767054" lon="9.15140999481082">
<ele>152.20000000000005</ele>
<time>2023-05-16T13:42:14Z</time>
</trkpt>
<trkpt lat="49.034011932089925" lon="9.151339922100306">
<ele>152.20000000000005</ele>
<time>2023-05-16T13:42:15Z</time>
</trkpt>
<trkpt lat="49.03401796706021" lon="9.151269933208823">
<ele>152.39999999999998</ele>
<time>2023-05-16T13:42:16Z</time>
</trkpt>
<trkpt lat="49.03402492403984" lon="9.151196926832199">
<ele>152.60000000000002</ele>
<time>2023-05-16T13:42:17Z</time>
</trkpt>
<trkpt lat="49.034031964838505" lon="9.151124926283956">
<ele>152.60000000000002</ele>
<time>2023-05-16T13:42:18Z</time>
</trkpt>
<trkpt lat="49.03403799980879" lon="9.151052925735712">
<ele>152.60000000000002</ele>
<time>2023-05-16T13:42:19Z</time>
</trkpt>
<trkpt lat="49.03404495678842" lon="9.150986960157752">
<ele>152.79999999999995</ele>
<time>2023-05-16T13:42:20Z</time>
</trkpt>
<trkpt lat="49.034051997587085" lon="9.150922922417521">
<ele>152.79999999999995</ele>
<time>2023-05-16T13:42:21Z</time>
</trkpt>
<trkpt lat="49.034056942909956" lon="9.150859974324703">
<ele>153</ele>
<time>2023-05-16T13:42:22Z</time>
</trkpt>
<trkpt lat="49.03406297788024" lon="9.150797948241234">
<ele>153</ele>
<time>2023-05-16T13:42:23Z</time>
</trkpt>
<trkpt lat="49.03406993485987" lon="9.150737933814526">
<ele>153.20000000000005</ele>
<time>2023-05-16T13:42:24Z</time>
</trkpt>
<trkpt lat="49.034076975658536" lon="9.150677919387817">
<ele>153.20000000000005</ele>
<time>2023-05-16T13:42:25Z</time>
</trkpt>
<trkpt lat="49.03408192098141" lon="9.15061991661787">
<ele>153.20000000000005</ele>
<time>2023-05-16T13:42:26Z</time>
</trkpt>
<trkpt lat="49.03408695012331" lon="9.150564931333065">
<ele>153.39999999999998</ele>
<time>2023-05-16T13:42:27Z</time>
</trkpt>
<trkpt lat="49.03409197926521" lon="9.150511957705021">
<ele>153.39999999999998</ele>
<time>2023-05-16T13:42:28Z</time>
</trkpt>
<trkpt lat="49.034094996750355" lon="9.150459989905357">
<ele>153.39999999999998</ele>
<time>2023-05-16T13:42:29Z</time>
</trkpt>
<trkpt lat="49.034097930416465" lon="9.150407938286662">
<ele>153.60000000000002</ele>
<time>2023-05-16T13:42:30Z</time>
</trkpt>
<trkpt lat="49.03410295955837" lon="9.15035798214376">
<ele>153.60000000000002</ele>
<time>2023-05-16T13:42:31Z</time>
</trkpt>
<trkpt lat="49.03410798870027" lon="9.150307942181826">
<ele>153.79999999999995</ele>
<time>2023-05-16T13:42:32Z</time>
</trkpt>
<trkpt lat="49.03411293402314" lon="9.150261925533414">
<ele>153.79999999999995</ele>
<time>2023-05-16T13:42:33Z</time>
</trkpt>
<trkpt lat="49.034116957336664" lon="9.150212975218892">
<ele>153.79999999999995</ele>
<time>2023-05-16T13:42:34Z</time>
</trkpt>
<trkpt lat="49.03412492014468" lon="9.150159917771816">
<ele>154</ele>
<time>2023-05-16T13:42:35Z</time>
</trkpt>
<trkpt lat="49.03413296677172" lon="9.15010292083025">
<ele>154</ele>
<time>2023-05-16T13:42:36Z</time>
</trkpt>
<trkpt lat="49.03414495289326" lon="9.150046929717064">
<ele>154</ele>
<time>2023-05-16T13:42:37Z</time>
</trkpt>
<trkpt lat="49.03415693901479" lon="9.14999295026064">
<ele>154</ele>
<time>2023-05-16T13:42:38Z</time>
</trkpt>
<trkpt lat="49.03416791930795" lon="9.149941988289356">
<ele>154.20000000000005</ele>
<time>2023-05-16T13:42:39Z</time>
</trkpt>
<trkpt lat="49.034179989248514" lon="9.149889936670661">
<ele>154.20000000000005</ele>
<time>2023-05-16T13:42:40Z</time>
</trkpt>
<trkpt lat="49.03419692069292" lon="9.14984492585063">
<ele>154.20000000000005</ele>
<time>2023-05-16T13:42:41Z</time>
</trkpt>
<trkpt lat="49.03421795926988" lon="9.149804944172502">
<ele>154.39999999999998</ele>
<time>2023-05-16T13:42:42Z</time>
</trkpt>
<trkpt lat="49.034244948998094" lon="9.149774936959147">
<ele>154.39999999999998</ele>
<time>2023-05-16T13:42:43Z</time>
</trkpt>
<trkpt lat="49.034271938726306" lon="9.14975699968636">
<ele>154.39999999999998</ele>
<time>2023-05-16T13:42:44Z</time>
</trkpt>
<trkpt lat="49.03429792262614" lon="9.149747947230935">
<ele>154.39999999999998</ele>
<time>2023-05-16T13:42:45Z</time>
</trkpt>
<trkpt lat="49.034331953153014" lon="9.149749958887696">
<ele>154.39999999999998</ele>
<time>2023-05-16T13:42:46Z</time>
</trkpt>
<trkpt lat="49.03436992317438" lon="9.1497549880296">
<ele>154.39999999999998</ele>
<time>2023-05-16T13:42:47Z</time>
</trkpt>
<trkpt lat="49.03440797701478" lon="9.149761945009232">
<ele>154.20000000000005</ele>
<time>2023-05-16T13:42:48Z</time>
</trkpt>
<trkpt lat="49.03444695286453" lon="9.149769991636276">
<ele>154.20000000000005</ele>
<time>2023-05-16T13:42:49Z</time>
</trkpt>
<trkpt lat="49.034482995048165" lon="9.14977795444429">
<ele>154.20000000000005</ele>
<time>2023-05-16T13:42:50Z</time>
</trkpt>
<trkpt lat="49.03451995924115" lon="9.149784995242953">
<ele>154</ele>
<time>2023-05-16T13:42:51Z</time>
</trkpt>
<trkpt lat="49.03455692343414" lon="9.149789940565825">
<ele>154</ele>
<time>2023-05-16T13:42:52Z</time>
</trkpt>
<trkpt lat="49.03458793647587" lon="9.149794969707727">
<ele>154</ele>
<time>2023-05-16T13:42:53Z</time>
</trkpt>
<trkpt lat="49.03461995534599" lon="9.14979798719287">
<ele>154</ele>
<time>2023-05-16T13:42:54Z</time>
</trkpt>
<trkpt lat="49.034651974216104" lon="9.149804944172502">
<ele>154</ele>
<time>2023-05-16T13:42:55Z</time>
</trkpt>
<trkpt lat="49.0346849989146" lon="9.149812990799546">
<ele>153.79999999999995</ele>
<time>2023-05-16T13:42:56Z</time>
</trkpt>
<trkpt lat="49.034717939794064" lon="9.14982296526432">
<ele>153.79999999999995</ele>
<time>2023-05-16T13:42:57Z</time>
</trkpt>
<trkpt lat="49.03474995866418" lon="9.149829922243953">
<ele>153.60000000000002</ele>
<time>2023-05-16T13:42:58Z</time>
</trkpt>
<trkpt lat="49.034781977534294" lon="9.149836963042617">
<ele>153.60000000000002</ele>
<time>2023-05-16T13:42:59Z</time>
</trkpt>
<trkpt lat="49.03481299057603" lon="9.14984492585063">
<ele>153.39999999999998</ele>
<time>2023-05-16T13:43:00Z</time>
</trkpt>
<trkpt lat="49.034846937283874" lon="9.149856995791197">
<ele>153.39999999999998</ele>
<time>2023-05-16T13:43:01Z</time>
</trkpt>
<trkpt lat="49.03487996198237" lon="9.14986495859921">
<ele>153.20000000000005</ele>
<time>2023-05-16T13:43:02Z</time>
</trkpt>
<trkpt lat="49.034916926175356" lon="9.149874933063984">
<ele>153.20000000000005</ele>
<time>2023-05-16T13:43:03Z</time>
</trkpt>
<trkpt lat="49.034954980015755" lon="9.14988499134779">
<ele>153</ele>
<time>2023-05-16T13:43:04Z</time>
</trkpt>
<trkpt lat="49.03499295003712" lon="9.149894965812564">
<ele>152.79999999999995</ele>
<time>2023-05-16T13:43:05Z</time>
</trkpt>
<trkpt lat="49.03503293171525" lon="9.149904940277338">
<ele>152.79999999999995</ele>
<time>2023-05-16T13:43:06Z</time>
</trkpt>
<trkpt lat="49.03507199138403" lon="9.149914998561144">
<ele>152.60000000000002</ele>
<time>2023-05-16T13:43:07Z</time>
</trkpt>
<trkpt lat="49.0351099614054" lon="9.14992799051106">
<ele>152.39999999999998</ele>
<time>2023-05-16T13:43:08Z</time>
</trkpt>
<trkpt lat="49.035151954740286" lon="9.149937964975834">
<ele>152.39999999999998</ele>
<time>2023-05-16T13:43:09Z</time>
</trkpt>
<trkpt lat="49.03518992476165" lon="9.149947939440608">
<ele>152.20000000000005</ele>
<time>2023-05-16T13:43:10Z</time>
</trkpt>
<trkpt lat="49.03522797860205" lon="9.149957997724414">
<ele>152</ele>
<time>2023-05-16T13:43:11Z</time>
</trkpt>
<trkpt lat="49.03526796028018" lon="9.149967972189188">
<ele>152</ele>
<time>2023-05-16T13:43:12Z</time>
</trkpt>
<trkpt lat="49.03530693612993" lon="9.149977946653962">
<ele>151.79999999999995</ele>
<time>2023-05-16T13:43:13Z</time>
</trkpt>
<trkpt lat="49.035346917808056" lon="9.149984987452626">
<ele>151.60000000000002</ele>
<time>2023-05-16T13:43:14Z</time>
</trkpt>
<trkpt lat="49.03539192862809" lon="9.1499949619174">
<ele>151.39999999999998</ele>
<time>2023-05-16T13:43:15Z</time>
</trkpt>
<trkpt lat="49.0354429744184" lon="9.150002924725413">
<ele>151.20000000000005</ele>
<time>2023-05-16T13:43:16Z</time>
</trkpt>
<trkpt lat="49.03549997135997" lon="9.150011977180839">
<ele>151.20000000000005</ele>
<time>2023-05-16T13:43:17Z</time>
</trkpt>
<trkpt lat="49.03555495664477" lon="9.150021951645613">
<ele>151</ele>
<time>2023-05-16T13:43:18Z</time>
</trkpt>
<trkpt lat="49.03561497107148" lon="9.15003796108067">
<ele>150.79999999999995</ele>
<time>2023-05-16T13:43:19Z</time>
</trkpt>
<trkpt lat="49.0356779191643" lon="9.150051958858967">
<ele>150.60000000000002</ele>
<time>2023-05-16T13:43:20Z</time>
</trkpt>
<trkpt lat="49.03573994524777" lon="9.150064950808883">
<ele>150.39999999999998</ele>
<time>2023-05-16T13:43:21Z</time>
</trkpt>
<trkpt lat="49.03580297715962" lon="9.15007995441556">
<ele>150.20000000000005</ele>
<time>2023-05-16T13:43:22Z</time>
</trkpt>
<trkpt lat="49.03587196022272" lon="9.150097975507379">
<ele>149.79999999999995</ele>
<time>2023-05-16T13:43:23Z</time>
</trkpt>
<trkpt lat="49.0359419491142" lon="9.150114990770817">
<ele>149.60000000000002</ele>
<time>2023-05-16T13:43:24Z</time>
</trkpt>
<trkpt lat="49.036009926348925" lon="9.150131922215223">
<ele>149.39999999999998</ele>
<time>2023-05-16T13:43:25Z</time>
</trkpt>
<trkpt lat="49.036071952432394" lon="9.1501469258219">
<ele>149</ele>
<time>2023-05-16T13:43:26Z</time>
</trkpt>
<trkpt lat="49.03612995520234" lon="9.150156984105706">
<ele>148.79999999999995</ele>
<time>2023-05-16T13:43:27Z</time>
</trkpt>
<trkpt lat="49.036184940487146" lon="9.150172993540764">
<ele>148.60000000000002</ele>
<time>2023-05-16T13:43:28Z</time>
</trkpt>
<trkpt lat="49.036244954913855" lon="9.150191936641932">
<ele>148.39999999999998</ele>
<time>2023-05-16T13:43:29Z</time>
</trkpt>
<trkpt lat="49.0362979285419" lon="9.150201994925737">
<ele>148.20000000000005</ele>
<time>2023-05-16T13:43:30Z</time>
</trkpt>
<trkpt lat="49.036351991817355" lon="9.15020794607699">
<ele>148</ele>
<time>2023-05-16T13:43:31Z</time>
</trkpt>
<trkpt lat="49.03640697710216" lon="9.150212975218892">
<ele>147.79999999999995</ele>
<time>2023-05-16T13:43:32Z</time>
</trkpt>
<trkpt lat="49.03646497987211" lon="9.150217920541763">
<ele>147.60000000000002</ele>
<time>2023-05-16T13:43:33Z</time>
</trkpt>
<trkpt lat="49.036522982642055" lon="9.15022797882557">
<ele>147.39999999999998</ele>
<time>2023-05-16T13:43:34Z</time>
</trkpt>
<trkpt lat="49.03658492490649" lon="9.150239964947104">
<ele>147.20000000000005</ele>
<time>2023-05-16T13:43:35Z</time>
</trkpt>
<trkpt lat="49.0366499684751" lon="9.150256980210543">
<ele>147</ele>
<time>2023-05-16T13:43:36Z</time>
</trkpt>
<trkpt lat="49.03670797124505" lon="9.1502729896456">
<ele>147</ele>
<time>2023-05-16T13:43:37Z</time>
</trkpt>
<trkpt lat="49.03676697984338" lon="9.150286987423897">
<ele>146.79999999999995</ele>
<time>2023-05-16T13:43:38Z</time>
</trkpt>
<trkpt lat="49.036822970956564" lon="9.150301991030574">
<ele>146.79999999999995</ele>
<time>2023-05-16T13:43:39Z</time>
</trkpt>
<trkpt lat="49.03687996789813" lon="9.150316994637251">
<ele>146.60000000000002</ele>
<time>2023-05-16T13:43:40Z</time>
</trkpt>
<trkpt lat="49.0369369648397" lon="9.150331998243928">
<ele>146.60000000000002</ele>
<time>2023-05-16T13:43:41Z</time>
</trkpt>
<trkpt lat="49.03698993846774" lon="9.150339961051941">
<ele>146.39999999999998</ele>
<time>2023-05-16T13:43:42Z</time>
</trkpt>
<trkpt lat="49.03704299591482" lon="9.150351947173476">
<ele>146.39999999999998</ele>
<time>2023-05-16T13:43:43Z</time>
</trkpt>
<trkpt lat="49.03709999285638" lon="9.150362927466631">
<ele>146.39999999999998</ele>
<time>2023-05-16T13:43:44Z</time>
</trkpt>
<trkpt lat="49.03715799562633" lon="9.150369968265295">
<ele>146.39999999999998</ele>
<time>2023-05-16T13:43:45Z</time>
</trkpt>
<trkpt lat="49.037216920405626" lon="9.150377931073308">
<ele>146.39999999999998</ele>
<time>2023-05-16T13:43:46Z</time>
</trkpt>
<trkpt lat="49.037272995337844" lon="9.150386983528733">
<ele>146.39999999999998</ele>
<time>2023-05-16T13:43:47Z</time>
</trkpt>
<trkpt lat="49.03732798062265" lon="9.150394946336746">
<ele>146.20000000000005</ele>
<time>2023-05-16T13:43:48Z</time>
</trkpt>
<trkpt lat="49.03737793676555" lon="9.150402992963791">
<ele>146.20000000000005</ele>
<time>2023-05-16T13:43:49Z</time>
</trkpt>
<trkpt lat="49.037427976727486" lon="9.150411961600184">
<ele>146.20000000000005</ele>
<time>2023-05-16T13:43:50Z</time>
</trkpt>
<trkpt lat="49.03747793287039" lon="9.150421936064959">
<ele>146.20000000000005</ele>
<time>2023-05-16T13:43:51Z</time>
</trkpt>
<trkpt lat="49.03752797283232" lon="9.150431994348764">
<ele>146.20000000000005</ele>
<time>2023-05-16T13:43:52Z</time>
</trkpt>
<trkpt lat="49.03758195228875" lon="9.150441968813539">
<ele>146.20000000000005</ele>
<time>2023-05-16T13:43:53Z</time>
</trkpt>
<trkpt lat="49.03763693757355" lon="9.15044791996479">
<ele>146.20000000000005</ele>
<time>2023-05-16T13:43:54Z</time>
</trkpt>
<trkpt lat="49.03768999502063" lon="9.150452949106693">
<ele>146.20000000000005</ele>
<time>2023-05-16T13:43:55Z</time>
</trkpt>
<trkpt lat="49.03774498030543" lon="9.150459989905357">
<ele>146.20000000000005</ele>
<time>2023-05-16T13:43:56Z</time>
</trkpt>
<trkpt lat="49.03779996559024" lon="9.150464935228229">
<ele>146.20000000000005</ele>
<time>2023-05-16T13:43:57Z</time>
</trkpt>
<trkpt lat="49.0378519333899" lon="9.150472981855273">
<ele>146.20000000000005</ele>
<time>2023-05-16T13:43:58Z</time>
</trkpt>
<trkpt lat="49.037901973351836" lon="9.150484967976809">
<ele>146.20000000000005</ele>
<time>2023-05-16T13:43:59Z</time>
</trkpt>
<trkpt lat="49.03794991783798" lon="9.150496954098344">
<ele>146.20000000000005</ele>
<time>2023-05-16T13:44:00Z</time>
</trkpt>
<trkpt lat="49.03799694031477" lon="9.150506928563118">
<ele>146</ele>
<time>2023-05-16T13:44:01Z</time>
</trkpt>
<trkpt lat="49.0380419511348" lon="9.150512963533401">
<ele>146</ele>
<time>2023-05-16T13:44:02Z</time>
</trkpt>
<trkpt lat="49.03808796778321" lon="9.150519920513034">
<ele>146</ele>
<time>2023-05-16T13:44:03Z</time>
</trkpt>
<trkpt lat="49.038134990260005" lon="9.150526961311698">
<ele>146</ele>
<time>2023-05-16T13:44:04Z</time>
</trkpt>
<trkpt lat="49.038181928917766" lon="9.150527967140079">
<ele>146</ele>
<time>2023-05-16T13:44:05Z</time>
</trkpt>
<trkpt lat="49.0382269397378" lon="9.15052997879684">
<ele>146</ele>
<time>2023-05-16T13:44:06Z</time>
</trkpt>
<trkpt lat="49.03827195055783" lon="9.150526961311698">
<ele>146</ele>
<time>2023-05-16T13:44:07Z</time>
</trkpt>
<trkpt lat="49.0383149497211" lon="9.150522937998176">
<ele>146</ele>
<time>2023-05-16T13:44:08Z</time>
</trkpt>
<trkpt lat="49.038354931399226" lon="9.150516986846924">
<ele>146</ele>
<time>2023-05-16T13:44:09Z</time>
</trkpt>
<trkpt lat="49.038396924734116" lon="9.150507934391499">
<ele>146</ele>
<time>2023-05-16T13:44:10Z</time>
</trkpt>
<trkpt lat="49.038437996059656" lon="9.150496954098344">
<ele>146</ele>
<time>2023-05-16T13:44:11Z</time>
</trkpt>
<trkpt lat="49.038481917232275" lon="9.150476921349764">
<ele>146</ele>
<time>2023-05-16T13:44:12Z</time>
</trkpt>
<trkpt lat="49.038526928052306" lon="9.150452949106693">
<ele>146</ele>
<time>2023-05-16T13:44:13Z</time>
</trkpt>
<trkpt lat="49.038569927215576" lon="9.150427971035242">
<ele>145.79999999999995</ele>
<time>2023-05-16T13:44:14Z</time>
</trkpt>
<trkpt lat="49.038612926378846" lon="9.150396957993507">
<ele>145.79999999999995</ele>
<time>2023-05-16T13:44:15Z</time>
</trkpt>
<trkpt lat="49.038652991876006" lon="9.150364939123392">
<ele>145.79999999999995</ele>
<time>2023-05-16T13:44:16Z</time>
</trkpt>
<trkpt lat="49.038691967725754" lon="9.150327974930406">
<ele>145.79999999999995</ele>
<time>2023-05-16T13:44:17Z</time>
</trkpt>
<trkpt lat="49.03872692026198" lon="9.150287993252277">
<ele>145.79999999999995</ele>
<time>2023-05-16T13:44:18Z</time>
</trkpt>
<trkpt lat="49.038757933303714" lon="9.150241976603866">
<ele>145.60000000000002</ele>
<time>2023-05-16T13:44:19Z</time>
</trkpt>
<trkpt lat="49.03878995217383" lon="9.15018992498517">
<ele>145.60000000000002</ele>
<time>2023-05-16T13:44:20Z</time>
</trkpt>
<trkpt lat="49.03881694190204" lon="9.150131922215223">
<ele>145.60000000000002</ele>
<time>2023-05-16T13:44:21Z</time>
</trkpt>
<trkpt lat="49.03884292580187" lon="9.150074925273657">
<ele>145.60000000000002</ele>
<time>2023-05-16T13:44:22Z</time>
</trkpt>
<trkpt lat="49.03887192718685" lon="9.15001499466598">
<ele>145.39999999999998</ele>
<time>2023-05-16T13:44:23Z</time>
</trkpt>
<trkpt lat="49.03889698907733" lon="9.149956991896033">
<ele>145.39999999999998</ele>
<time>2023-05-16T13:44:24Z</time>
</trkpt>
<trkpt lat="49.03891794383526" lon="9.149896977469325">
<ele>145.39999999999998</ele>
<time>2023-05-16T13:44:25Z</time>
</trkpt>
<trkpt lat="49.03894199989736" lon="9.149834951385856">
<ele>145.39999999999998</ele>
<time>2023-05-16T13:44:26Z</time>
</trkpt>
<trkpt lat="49.03896295465529" lon="9.149776948615909">
<ele>145.39999999999998</ele>
<time>2023-05-16T13:44:27Z</time>
</trkpt>
<trkpt lat="49.03898499906063" lon="9.149717940017581">
<ele>145.39999999999998</ele>
<time>2023-05-16T13:44:28Z</time>
</trkpt>
<trkpt lat="49.03900293633342" lon="9.149659937247634">
<ele>145.39999999999998</ele>
<time>2023-05-16T13:44:29Z</time>
</trkpt>
<trkpt lat="49.03902196325362" lon="9.149599922820926">
<ele>145.20000000000005</ele>
<time>2023-05-16T13:44:30Z</time>
</trkpt>
<trkpt lat="49.039042918011546" lon="9.149537980556488">
<ele>145.20000000000005</ele>
<time>2023-05-16T13:44:31Z</time>
</trkpt>
<trkpt lat="49.039062950760126" lon="9.1494769603014">
<ele>145.20000000000005</ele>
<time>2023-05-16T13:44:32Z</time>
</trkpt>
<trkpt lat="49.039082983508706" lon="9.149411916732788">
<ele>145.20000000000005</ele>
<time>2023-05-16T13:44:33Z</time>
</trkpt>
<trkpt lat="49.039099998772144" lon="9.149351986125112">
<ele>145.20000000000005</ele>
<time>2023-05-16T13:44:34Z</time>
</trkpt>
<trkpt lat="49.03911693021655" lon="9.149289960041642">
<ele>145.20000000000005</ele>
<time>2023-05-16T13:44:35Z</time>
</trkpt>
<trkpt lat="49.03913696296513" lon="9.149226928129792">
<ele>145.20000000000005</ele>
<time>2023-05-16T13:44:36Z</time>
</trkpt>
<trkpt lat="49.03915992937982" lon="9.149162974208593">
<ele>145</ele>
<time>2023-05-16T13:44:37Z</time>
</trkpt>
<trkpt lat="49.03917795047164" lon="9.149101953953505">
<ele>145</ele>
<time>2023-05-16T13:44:38Z</time>
</trkpt>
<trkpt lat="49.03919697739184" lon="9.149044957011938">
<ele>145</ele>
<time>2023-05-16T13:44:39Z</time>
</trkpt>
<trkpt lat="49.03921499848366" lon="9.148981925100088">
<ele>145</ele>
<time>2023-05-16T13:44:40Z</time>
</trkpt>
<trkpt lat="49.039234947413206" lon="9.14892291650176">
<ele>145</ele>
<time>2023-05-16T13:44:41Z</time>
</trkpt>
<trkpt lat="49.03925699181855" lon="9.1488569509238">
<ele>145</ele>
<time>2023-05-16T13:44:42Z</time>
</trkpt>
<trkpt lat="49.03928297571838" lon="9.148792997002602">
<ele>144.79999999999995</ele>
<time>2023-05-16T13:44:43Z</time>
</trkpt>
<trkpt lat="49.03930795378983" lon="9.148724935948849">
<ele>144.79999999999995</ele>
<time>2023-05-16T13:44:44Z</time>
</trkpt>
<trkpt lat="49.03933293186128" lon="9.148657964542508">
<ele>144.79999999999995</ele>
<time>2023-05-16T13:44:45Z</time>
</trkpt>
<trkpt lat="49.039356987923384" lon="9.148594932630658">
<ele>144.60000000000002</ele>
<time>2023-05-16T13:44:46Z</time>
</trkpt>
<trkpt lat="49.03937794268131" lon="9.148526955395937">
<ele>144.60000000000002</ele>
<time>2023-05-16T13:44:47Z</time>
</trkpt>
<trkpt lat="49.039402920752764" lon="9.148459983989596">
<ele>144.60000000000002</ele>
<time>2023-05-16T13:44:48Z</time>
</trkpt>
<trkpt lat="49.03942999430001" lon="9.148394940420985">
<ele>144.60000000000002</ele>
<time>2023-05-16T13:44:49Z</time>
</trkpt>
<trkpt lat="49.0394529607147" lon="9.148331992328167">
<ele>144.60000000000002</ele>
<time>2023-05-16T13:44:50Z</time>
</trkpt>
<trkpt lat="49.03947492130101" lon="9.14827298372984">
<ele>144.39999999999998</ele>
<time>2023-05-16T13:44:51Z</time>
</trkpt>
<trkpt lat="49.03949696570635" lon="9.148219926282763">
<ele>144.39999999999998</ele>
<time>2023-05-16T13:44:52Z</time>
</trkpt>
<trkpt lat="49.0395219437778" lon="9.14816695265472">
<ele>144.39999999999998</ele>
<time>2023-05-16T13:44:53Z</time>
</trkpt>
<trkpt lat="49.03954792767763" lon="9.148112973198295">
<ele>144.39999999999998</ele>
<time>2023-05-16T13:44:54Z</time>
</trkpt>
<trkpt lat="49.039576929062605" lon="9.14805798791349">
<ele>144.39999999999998</ele>
<time>2023-05-16T13:44:55Z</time>
</trkpt>
<trkpt lat="49.03960693627596" lon="9.148004930466413">
<ele>144.20000000000005</ele>
<time>2023-05-16T13:44:56Z</time>
</trkpt>
<trkpt lat="49.039639960974455" lon="9.14795195683837">
<ele>144.20000000000005</ele>
<time>2023-05-16T13:44:57Z</time>
</trkpt>
<trkpt lat="49.03967692516744" lon="9.147906946018338">
<ele>144.20000000000005</ele>
<time>2023-05-16T13:44:58Z</time>
</trkpt>
<trkpt lat="49.03971296735108" lon="9.14786797016859">
<ele>144.20000000000005</ele>
<time>2023-05-16T13:44:59Z</time>
</trkpt>
<trkpt lat="49.03975496068597" lon="9.14782497100532">
<ele>144.20000000000005</ele>
<time>2023-05-16T13:45:00Z</time>
</trkpt>
<trkpt lat="49.03979695402086" lon="9.14778197184205">
<ele>144</ele>
<time>2023-05-16T13:45:01Z</time>
</trkpt>
<trkpt lat="49.039836935698986" lon="9.147739978507161">
<ele>144</ele>
<time>2023-05-16T13:45:02Z</time>
</trkpt>
<trkpt lat="49.03988194651902" lon="9.147704942151904">
<ele>144</ele>
<time>2023-05-16T13:45:03Z</time>
</trkpt>
<trkpt lat="49.03992695733905" lon="9.147669989615679">
<ele>144</ele>
<time>2023-05-16T13:45:04Z</time>
</trkpt>
<trkpt lat="49.03996995650232" lon="9.14763294160366">
<ele>144</ele>
<time>2023-05-16T13:45:05Z</time>
</trkpt>
<trkpt lat="49.04001295566559" lon="9.147596983239055">
<ele>144</ele>
<time>2023-05-16T13:45:06Z</time>
</trkpt>
<trkpt lat="49.04005997814238" lon="9.147562952712178">
<ele>144</ele>
<time>2023-05-16T13:45:07Z</time>
</trkpt>
<trkpt lat="49.04009995982051" lon="9.147529928013682">
<ele>143.79999999999995</ele>
<time>2023-05-16T13:45:08Z</time>
</trkpt>
<trkpt lat="49.0401419531554" lon="9.147497992962599">
<ele>143.79999999999995</ele>
<time>2023-05-16T13:45:09Z</time>
</trkpt>
<trkpt lat="49.04018495231867" lon="9.147474942728877">
<ele>143.79999999999995</ele>
<time>2023-05-16T13:45:10Z</time>
</trkpt>
<trkpt lat="49.04022694565356" lon="9.147456921637058">
<ele>143.79999999999995</ele>
<time>2023-05-16T13:45:11Z</time>
</trkpt>
<trkpt lat="49.040266927331686" lon="9.147441918030381">
<ele>143.79999999999995</ele>
<time>2023-05-16T13:45:12Z</time>
</trkpt>
<trkpt lat="49.04031495563686" lon="9.147422974929214">
<ele>143.79999999999995</ele>
<time>2023-05-16T13:45:13Z</time>
</trkpt>
<trkpt lat="49.04036197811365" lon="9.147407971322536">
<ele>143.79999999999995</ele>
<time>2023-05-16T13:45:14Z</time>
</trkpt>
<trkpt lat="49.04040296562016" lon="9.147386932745576">
<ele>143.79999999999995</ele>
<time>2023-05-16T13:45:15Z</time>
</trkpt>
<trkpt lat="49.04044294729829" lon="9.147366983816028">
<ele>143.79999999999995</ele>
<time>2023-05-16T13:45:16Z</time>
</trkpt>
<trkpt lat="49.04048695228994" lon="9.147339994087815">
<ele>143.79999999999995</ele>
<time>2023-05-16T13:45:17Z</time>
</trkpt>
<trkpt lat="49.04052693396807" lon="9.14732993580401">
<ele>143.60000000000002</ele>
<time>2023-05-16T13:45:18Z</time>
</trkpt>
<trkpt lat="49.04056699946523" lon="9.14730696938932">
<ele>143.60000000000002</ele>
<time>2023-05-16T13:45:19Z</time>
</trkpt>
<trkpt lat="49.0406099986285" lon="9.147279979661107">
<ele>143.60000000000002</ele>
<time>2023-05-16T13:45:20Z</time>
</trkpt>
<trkpt lat="49.04065199196339" lon="9.147249972447753">
<ele>143.60000000000002</ele>
<time>2023-05-16T13:45:21Z</time>
</trkpt>
<trkpt lat="49.04069499112666" lon="9.147216947749257">
<ele>143.60000000000002</ele>
<time>2023-05-16T13:45:22Z</time>
</trkpt>
<trkpt lat="49.04073799028993" lon="9.147184928879142">
<ele>143.60000000000002</ele>
<time>2023-05-16T13:45:23Z</time>
</trkpt>
<trkpt lat="49.04077495448291" lon="9.147147964686155">
<ele>143.60000000000002</ele>
<time>2023-05-16T13:45:24Z</time>
</trkpt>
<trkpt lat="49.04081493616104" lon="9.147109994664788">
<ele>143.60000000000002</ele>
<time>2023-05-16T13:45:25Z</time>
</trkpt>
<trkpt lat="49.04085692949593" lon="9.147069929167628">
<ele>143.60000000000002</ele>
<time>2023-05-16T13:45:26Z</time>
</trkpt>
<trkpt lat="49.04089699499309" lon="9.1470299474895">
<ele>143.60000000000002</ele>
<time>2023-05-16T13:45:27Z</time>
</trkpt>
<trkpt lat="49.04093697667122" lon="9.14698795415461">
<ele>143.60000000000002</ele>
<time>2023-05-16T13:45:28Z</time>
</trkpt>
<trkpt lat="49.04097695834935" lon="9.14694495499134">
<ele>143.60000000000002</ele>
<time>2023-05-16T13:45:29Z</time>
</trkpt>
<trkpt lat="49.041016940027475" lon="9.14690195582807">
<ele>143.60000000000002</ele>
<time>2023-05-16T13:45:30Z</time>
</trkpt>
<trkpt lat="49.04106195084751" lon="9.146854933351278">
<ele>143.60000000000002</ele>
<time>2023-05-16T13:45:31Z</time>
</trkpt>
<trkpt lat="49.041101932525635" lon="9.146811934188008">
<ele>143.60000000000002</ele>
<time>2023-05-16T13:45:32Z</time>
</trkpt>
<trkpt lat="49.041141998022795" lon="9.146769940853119">
<ele>143.60000000000002</ele>
<time>2023-05-16T13:45:33Z</time>
</trkpt>
<trkpt lat="49.041184997186065" lon="9.146717973053455">
<ele>143.39999999999998</ele>
<time>2023-05-16T13:45:34Z</time>
</trkpt>
<trkpt lat="49.041227996349335" lon="9.146674973890185">
<ele>143.39999999999998</ele>
<time>2023-05-16T13:45:35Z</time>
</trkpt>
<trkpt lat="49.041272923350334" lon="9.146627951413393">
<ele>143.39999999999998</ele>
<time>2023-05-16T13:45:36Z</time>
</trkpt>
<trkpt lat="49.04131198301911" lon="9.146587969735265">
<ele>143.39999999999998</ele>
<time>2023-05-16T13:45:37Z</time>
</trkpt>
<trkpt lat="49.04135196469724" lon="9.146542958915234">
<ele>143.39999999999998</ele>
<time>2023-05-16T13:45:38Z</time>
</trkpt>
<trkpt lat="49.04138792306185" lon="9.146504988893867">
<ele>143.39999999999998</ele>
<time>2023-05-16T13:45:39Z</time>
</trkpt>
<trkpt lat="49.04143293388188" lon="9.146454948931932">
<ele>143.39999999999998</ele>
<time>2023-05-16T13:45:40Z</time>
</trkpt>
<trkpt lat="49.04147794470191" lon="9.14640499278903">
<ele>143.39999999999998</ele>
<time>2023-05-16T13:45:41Z</time>
</trkpt>
<trkpt lat="49.0415249671787" lon="9.146354952827096">
<ele>143.39999999999998</ele>
<time>2023-05-16T13:45:42Z</time>
</trkpt>
<trkpt lat="49.04156494885683" lon="9.146301979199052">
<ele>143.20000000000005</ele>
<time>2023-05-16T13:45:43Z</time>
</trkpt>
<trkpt lat="49.0416219457984" lon="9.146239953115582">
<ele>143.20000000000005</ele>
<time>2023-05-16T13:45:44Z</time>
</trkpt>
<trkpt lat="49.04166695661843" lon="9.146187985315919">
<ele>143.20000000000005</ele>
<time>2023-05-16T13:45:45Z</time>
</trkpt>
<trkpt lat="49.0417099557817" lon="9.146134927868843">
<ele>143.20000000000005</ele>
<time>2023-05-16T13:45:46Z</time>
</trkpt>
<trkpt lat="49.041747925803065" lon="9.146079942584038">
<ele>143</ele>
<time>2023-05-16T13:45:47Z</time>
</trkpt>
<trkpt lat="49.041787991300225" lon="9.146026968955994">
<ele>143</ele>
<time>2023-05-16T13:45:48Z</time>
</trkpt>
<trkpt lat="49.04182696714997" lon="9.14597793482244">
<ele>142.79999999999995</ele>
<time>2023-05-16T13:45:49Z</time>
</trkpt>
<trkpt lat="49.04185999184847" lon="9.145926972851157">
<ele>142.79999999999995</ele>
<time>2023-05-16T13:45:50Z</time>
</trkpt>
<trkpt lat="49.04189293272793" lon="9.145874921232462">
<ele>142.79999999999995</ele>
<time>2023-05-16T13:45:51Z</time>
</trkpt>
<trkpt lat="49.04192796908319" lon="9.145829994231462">
<ele>142.79999999999995</ele>
<time>2023-05-16T13:45:52Z</time>
</trkpt>
<trkpt lat="49.041962921619415" lon="9.145787917077541">
<ele>142.60000000000002</ele>
<time>2023-05-16T13:45:53Z</time>
</trkpt>
<trkpt lat="49.042001981288195" lon="9.145742990076542">
<ele>142.60000000000002</ele>
<time>2023-05-16T13:45:54Z</time>
</trkpt>
<trkpt lat="49.04203492216766" lon="9.145691944286227">
<ele>142.60000000000002</ele>
<time>2023-05-16T13:45:55Z</time>
</trkpt>
<trkpt lat="49.042069958522916" lon="9.145637964829803">
<ele>142.60000000000002</ele>
<time>2023-05-16T13:45:56Z</time>
</trkpt>
<trkpt lat="49.04210499487817" lon="9.145586919039488">
<ele>142.60000000000002</ele>
<time>2023-05-16T13:45:57Z</time>
</trkpt>
<trkpt lat="49.042136929929256" lon="9.145534951239824">
<ele>142.39999999999998</ele>
<time>2023-05-16T13:45:58Z</time>
</trkpt>
<trkpt lat="49.04215796850622" lon="9.145494969561696">
<ele>142.39999999999998</ele>
<time>2023-05-16T13:45:59Z</time>
</trkpt>
<trkpt lat="49.042179929092526" lon="9.145452976226807">
<ele>142.39999999999998</ele>
<time>2023-05-16T13:46:00Z</time>
</trkpt>
<trkpt lat="49.042196944355965" lon="9.145414922386408">
<ele>142.39999999999998</ele>
<time>2023-05-16T13:46:01Z</time>
</trkpt>
<trkpt lat="49.04220691882074" lon="9.145387932658195">
<ele>142.39999999999998</ele>
<time>2023-05-16T13:46:02Z</time>
</trkpt>
<trkpt lat="49.042219994589686" lon="9.145362954586744">
<ele>142.20000000000005</ele>
<time>2023-05-16T13:46:03Z</time>
</trkpt>
<trkpt lat="49.04222996905446" lon="9.145339988172054">
<ele>142.20000000000005</ele>
<time>2023-05-16T13:46:04Z</time>
</trkpt>
<trkpt lat="49.04224497266114" lon="9.145319955423474">
<ele>142.20000000000005</ele>
<time>2023-05-16T13:46:05Z</time>
</trkpt>
<trkpt lat="49.04225494712591" lon="9.145297994837165">
<ele>142.20000000000005</ele>
<time>2023-05-16T13:46:06Z</time>
</trkpt>
<trkpt lat="49.042262993752956" lon="9.145282991230488">
<ele>142</ele>
<time>2023-05-16T13:46:07Z</time>
</trkpt>
<trkpt lat="49.04227497987449" lon="9.145254995673895">
<ele>142</ele>
<time>2023-05-16T13:46:08Z</time>
</trkpt>
<trkpt lat="49.042284954339266" lon="9.145236974582076">
<ele>142</ele>
<time>2023-05-16T13:46:09Z</time>
</trkpt>
<trkpt lat="49.04229995794594" lon="9.145217947661877">
<ele>142</ele>
<time>2023-05-16T13:46:10Z</time>
</trkpt>
<trkpt lat="49.04231294989586" lon="9.145196992903948">
<ele>141.79999999999995</ele>
<time>2023-05-16T13:46:11Z</time>
</trkpt>
<trkpt lat="49.042324936017394" lon="9.145176960155368">
<ele>141.79999999999995</ele>
<time>2023-05-16T13:46:12Z</time>
</trkpt>
<trkpt lat="49.0423349943012" lon="9.145156927406788">
<ele>141.79999999999995</ele>
<time>2023-05-16T13:46:13Z</time>
</trkpt>
<trkpt lat="49.042344968765974" lon="9.14513798430562">
<ele>141.79999999999995</ele>
<time>2023-05-16T13:46:14Z</time>
</trkpt>
<trkpt lat="49.04235494323075" lon="9.145119963213801">
<ele>141.79999999999995</ele>
<time>2023-05-16T13:46:15Z</time>
</trkpt>
<trkpt lat="49.04236491769552" lon="9.145101942121983">
<ele>141.79999999999995</ele>
<time>2023-05-16T13:46:16Z</time>
</trkpt>
<trkpt lat="49.0423799213022" lon="9.145079981535673">
<ele>141.79999999999995</ele>
<time>2023-05-16T13:46:17Z</time>
</trkpt>
<trkpt lat="49.042394924908876" lon="9.14505491964519">
<ele>141.79999999999995</ele>
<time>2023-05-16T13:46:18Z</time>
</trkpt>
<trkpt lat="49.04240992851555" lon="9.145029941573739">
<ele>141.79999999999995</ele>
<time>2023-05-16T13:46:19Z</time>
</trkpt>
<trkpt lat="49.04242794960737" lon="9.144999934360385">
<ele>141.79999999999995</ele>
<time>2023-05-16T13:46:20Z</time>
</trkpt>
<trkpt lat="49.04244295321405" lon="9.14496992714703">
<ele>141.79999999999995</ele>
<time>2023-05-16T13:46:21Z</time>
</trkpt>
<trkpt lat="49.042457956820726" lon="9.144941931590438">
<ele>141.79999999999995</ele>
<time>2023-05-16T13:46:22Z</time>
</trkpt>
<trkpt lat="49.042474972084165" lon="9.144909996539354">
<ele>141.79999999999995</ele>
<time>2023-05-16T13:46:23Z</time>
</trkpt>
<trkpt lat="49.04248997569084" lon="9.144879989326">
<ele>141.79999999999995</ele>
<time>2023-05-16T13:46:24Z</time>
</trkpt>
<trkpt lat="49.04250699095428" lon="9.144847970455885">
<ele>141.79999999999995</ele>
<time>2023-05-16T13:46:25Z</time>
</trkpt>
<trkpt lat="49.04252199456096" lon="9.144821986556053">
<ele>141.79999999999995</ele>
<time>2023-05-16T13:46:26Z</time>
</trkpt>
<trkpt lat="49.04253498651087" lon="9.14479692466557">
<ele>141.60000000000002</ele>
<time>2023-05-16T13:46:27Z</time>
</trkpt>
<trkpt lat="49.04255191795528" lon="9.144776975736022">
<ele>141.60000000000002</ele>
<time>2023-05-16T13:46:28Z</time>
</trkpt>
<trkpt lat="49.042562982067466" lon="9.144757948815823">
<ele>141.60000000000002</ele>
<time>2023-05-16T13:46:29Z</time>
</trkpt>
<trkpt lat="49.04257295653224" lon="9.144737999886274">
<ele>141.60000000000002</ele>
<time>2023-05-16T13:46:30Z</time>
</trkpt>
<trkpt lat="49.042584942653775" lon="9.144716961309314">
<ele>141.60000000000002</ele>
<time>2023-05-16T13:46:31Z</time>
</trkpt>
<trkpt lat="49.04259994626045" lon="9.144694916903973">
<ele>141.60000000000002</ele>
<time>2023-05-16T13:46:32Z</time>
</trkpt>
<trkpt lat="49.04261494986713" lon="9.14466792717576">
<ele>141.60000000000002</ele>
<time>2023-05-16T13:46:33Z</time>
</trkpt>
<trkpt lat="49.042629953473806" lon="9.144642949104309">
<ele>141.60000000000002</ele>
<time>2023-05-16T13:46:34Z</time>
</trkpt>
<trkpt lat="49.04264495708048" lon="9.14462199434638">
<ele>141.60000000000002</ele>
<time>2023-05-16T13:46:35Z</time>
</trkpt>
<trkpt lat="49.04265996068716" lon="9.144604979082942">
<ele>141.60000000000002</ele>
<time>2023-05-16T13:46:36Z</time>
</trkpt>
<trkpt lat="49.042671946808696" lon="9.144589975476265">
<ele>141.60000000000002</ele>
<time>2023-05-16T13:46:37Z</time>
</trkpt>
<trkpt lat="49.04268292710185" lon="9.144574971869588">
<ele>141.39999999999998</ele>
<time>2023-05-16T13:46:38Z</time>
</trkpt>
<trkpt lat="49.04269499704242" lon="9.144554939121008">
<ele>141.39999999999998</ele>
<time>2023-05-16T13:46:39Z</time>
</trkpt>
<trkpt lat="49.04270991683006" lon="9.144542952999473">
<ele>141.39999999999998</ele>
<time>2023-05-16T13:46:40Z</time>
</trkpt>
<trkpt lat="49.04272492043674" lon="9.144527949392796">
<ele>141.39999999999998</ele>
<time>2023-05-16T13:46:41Z</time>
</trkpt>
<trkpt lat="49.04273992404342" lon="9.14451495744288">
<ele>141.39999999999998</ele>
<time>2023-05-16T13:46:42Z</time>
</trkpt>
<trkpt lat="49.042757945135236" lon="9.144499953836203">
<ele>141.39999999999998</ele>
<time>2023-05-16T13:46:43Z</time>
</trkpt>
<trkpt lat="49.04277294874191" lon="9.144484950229526">
<ele>141.20000000000005</ele>
<time>2023-05-16T13:46:44Z</time>
</trkpt>
<trkpt lat="49.04278694652021" lon="9.14447195827961">
<ele>141.20000000000005</ele>
<time>2023-05-16T13:46:45Z</time>
</trkpt>
<trkpt lat="49.042797926813364" lon="9.144456954672933">
<ele>141.20000000000005</ele>
<time>2023-05-16T13:46:46Z</time>
</trkpt>
<trkpt lat="49.04280798509717" lon="9.144442956894636">
<ele>141.20000000000005</ele>
<time>2023-05-16T13:46:47Z</time>
</trkpt>
<trkpt lat="49.042819971218705" lon="9.144431976601481">
<ele>141.20000000000005</ele>
<time>2023-05-16T13:46:48Z</time>
</trkpt>
<trkpt lat="49.04283296316862" lon="9.144422924146056">
<ele>141.20000000000005</ele>
<time>2023-05-16T13:46:49Z</time>
</trkpt>
<trkpt lat="49.042837992310524" lon="9.144416972994804">
<ele>141.20000000000005</ele>
<time>2023-05-16T13:46:50Z</time>
</trkpt>
<trkpt lat="49.04285995289683" lon="9.144402975216508">
<ele>141</ele>
<time>2023-05-16T13:46:51Z</time>
</trkpt>
<trkpt lat="49.04286799952388" lon="9.144391994923353">
<ele>141</ele>
<time>2023-05-16T13:46:52Z</time>
</trkpt>
<trkpt lat="49.04287696816027" lon="9.144374979659915">
<ele>141</ele>
<time>2023-05-16T13:46:53Z</time>
</trkpt>
<trkpt lat="49.042884930968285" lon="9.144351929426193">
<ele>141</ele>
<time>2023-05-16T13:46:54Z</time>
</trkpt>
<trkpt lat="49.042886942625046" lon="9.144329968839884">
<ele>141</ele>
<time>2023-05-16T13:46:55Z</time>
</trkpt>
<trkpt lat="49.042886942625046" lon="9.144307924434543">
<ele>141</ele>
<time>2023-05-16T13:46:56Z</time>
</trkpt>
<trkpt lat="49.042886942625046" lon="9.144284958019853">
<ele>141</ele>
<time>2023-05-16T13:46:57Z</time>
</trkpt>
<trkpt lat="49.042887948453426" lon="9.14425796829164">
<ele>141</ele>
<time>2023-05-16T13:46:58Z</time>
</trkpt>
<trkpt lat="49.04289197176695" lon="9.144224943593144">
<ele>141</ele>
<time>2023-05-16T13:46:59Z</time>
</trkpt>
<trkpt lat="49.04289691708982" lon="9.144189991056919">
<ele>141</ele>
<time>2023-05-16T13:47:00Z</time>
</trkpt>
<trkpt lat="49.0429029520601" lon="9.144157972186804">
<ele>141</ele>
<time>2023-05-16T13:47:01Z</time>
</trkpt>
<trkpt lat="49.04290999285877" lon="9.144122935831547">
<ele>141</ele>
<time>2023-05-16T13:47:02Z</time>
</trkpt>
<trkpt lat="49.04291493818164" lon="9.144089994952083">
<ele>141</ele>
<time>2023-05-16T13:47:03Z</time>
</trkpt>
<trkpt lat="49.04291795566678" lon="9.144057976081967">
<ele>141</ele>
<time>2023-05-16T13:47:04Z</time>
</trkpt>
<trkpt lat="49.0429219789803" lon="9.144032998010516">
<ele>141</ele>
<time>2023-05-16T13:47:05Z</time>
</trkpt>
<trkpt lat="49.04292298480868" lon="9.144014976918697">
<ele>141</ele>
<time>2023-05-16T13:47:06Z</time>
</trkpt>
<trkpt lat="49.04292298480868" lon="9.144007936120033">
<ele>141</ele>
<time>2023-05-16T13:47:07Z</time>
</trkpt>
<trkpt lat="49.0429219789803" lon="9.143969966098666">
<ele>141</ele>
<time>2023-05-16T13:47:07Z</time>
</trkpt>
<trkpt lat="49.042907981202006" lon="9.143959991633892">
<ele>141</ele>
<time>2023-05-16T13:47:08Z</time>
</trkpt>
<trkpt lat="49.04289197176695" lon="9.143941970542073">
<ele>141</ele>
<time>2023-05-16T13:47:09Z</time>
</trkpt>
<trkpt lat="49.04287294484675" lon="9.143926966935396">
<ele>141</ele>
<time>2023-05-16T13:47:10Z</time>
</trkpt>
<trkpt lat="49.0428529959172" lon="9.143909951671958">
<ele>141</ele>
<time>2023-05-16T13:47:11Z</time>
</trkpt>
<trkpt lat="49.04283296316862" lon="9.14389293640852">
<ele>140.79999999999995</ele>
<time>2023-05-16T13:47:12Z</time>
</trkpt>
<trkpt lat="49.04281192459166" lon="9.143874999135733">
<ele>140.79999999999995</ele>
<time>2023-05-16T13:47:13Z</time>
</trkpt>
<trkpt lat="49.04279197566211" lon="9.143859995529056">
<ele>140.79999999999995</ele>
<time>2023-05-16T13:47:14Z</time>
</trkpt>
<trkpt lat="49.04277294874191" lon="9.143844991922379">
<ele>140.79999999999995</ele>
<time>2023-05-16T13:47:15Z</time>
</trkpt>
<trkpt lat="49.042757945135236" lon="9.143831999972463">
<ele>140.79999999999995</ele>
<time>2023-05-16T13:47:16Z</time>
</trkpt>
<trkpt lat="49.04274495318532" lon="9.143816996365786">
<ele>140.79999999999995</ele>
<time>2023-05-16T13:47:17Z</time>
</trkpt>
<trkpt lat="49.042731961235404" lon="9.14380794391036">
<ele>140.79999999999995</ele>
<time>2023-05-16T13:47:18Z</time>
</trkpt>
<trkpt lat="49.04272198677063" lon="9.143799981102347">
<ele>140.79999999999995</ele>
<time>2023-05-16T13:47:19Z</time>
</trkpt>
<trkpt lat="49.04270698316395" lon="9.143789922818542">
<ele>140.79999999999995</ele>
<time>2023-05-16T13:47:20Z</time>
</trkpt>
<trkpt lat="49.04269499704242" lon="9.143777936697006">
<ele>140.79999999999995</ele>
<time>2023-05-16T13:47:21Z</time>
</trkpt>
<trkpt lat="49.04268493875861" lon="9.143767962232232">
<ele>140.79999999999995</ele>
<time>2023-05-16T13:47:22Z</time>
</trkpt>
<trkpt lat="49.04267999343574" lon="9.143761927261949">
<ele>140.79999999999995</ele>
<time>2023-05-16T13:47:23Z</time>
</trkpt>
<trkpt lat="49.04267999343574" lon="9.14375999942422">
<ele>140.79999999999995</ele>
<time>2023-05-16T13:47:24Z</time>
</trkpt>
<trkpt lat="49.04268192127347" lon="9.143761927261949">
<ele>140.79999999999995</ele>
<time>2023-05-16T13:47:25Z</time>
</trkpt>
<trkpt lat="49.042669935151935" lon="9.143709959462285">
<ele>141</ele>
<time>2023-05-16T13:47:26Z</time>
</trkpt>
<trkpt lat="49.04265694320202" lon="9.143686993047595">
<ele>141</ele>
<time>2023-05-16T13:47:27Z</time>
</trkpt>
<trkpt lat="49.04264193959534" lon="9.143666960299015">
<ele>141</ele>
<time>2023-05-16T13:47:28Z</time>
</trkpt>
<trkpt lat="49.042622996494174" lon="9.143651956692338">
<ele>141</ele>
<time>2023-05-16T13:47:29Z</time>
</trkpt>
<trkpt lat="49.042606987059116" lon="9.143639970570803">
<ele>141</ele>
<time>2023-05-16T13:47:30Z</time>
</trkpt>
<trkpt lat="49.04258997179568" lon="9.143626978620887">
<ele>141.20000000000005</ele>
<time>2023-05-16T13:47:31Z</time>
</trkpt>
<trkpt lat="49.04257295653224" lon="9.143614992499352">
<ele>141.20000000000005</ele>
<time>2023-05-16T13:47:32Z</time>
</trkpt>
<trkpt lat="49.042559964582324" lon="9.143597977235913">
<ele>141.20000000000005</ele>
<time>2023-05-16T13:47:33Z</time>
</trkpt>
<trkpt lat="49.04255292378366" lon="9.143582973629236">
<ele>141.20000000000005</ele>
<time>2023-05-16T13:47:34Z</time>
</trkpt>
<trkpt lat="49.04254797846079" lon="9.143564952537417">
<ele>141.20000000000005</ele>
<time>2023-05-16T13:47:35Z</time>
</trkpt>
<trkpt lat="49.04254999011755" lon="9.143551960587502">
<ele>141.20000000000005</ele>
<time>2023-05-16T13:47:36Z</time>
</trkpt>
<trkpt lat="49.04254999011755" lon="9.143536956980824">
<ele>141.20000000000005</ele>
<time>2023-05-16T13:47:37Z</time>
</trkpt>
<trkpt lat="49.04254496097565" lon="9.143509967252612">
<ele>141.20000000000005</ele>
<time>2023-05-16T13:47:38Z</time>
</trkpt>
<trkpt lat="49.042539931833744" lon="9.143472919240594">
<ele>141.20000000000005</ele>
<time>2023-05-16T13:47:39Z</time>
</trkpt>
<trkpt lat="49.042536998167634" lon="9.143431931734085">
<ele>141</ele>
<time>2023-05-16T13:47:40Z</time>
</trkpt>
<trkpt lat="49.04253792017698" lon="9.143384993076324">
<ele>141</ele>
<time>2023-05-16T13:47:41Z</time>
</trkpt>
<trkpt lat="49.042542949318886" lon="9.143327996134758">
<ele>141</ele>
<time>2023-05-16T13:47:42Z</time>
</trkpt>
<trkpt lat="49.04255191795528" lon="9.143269993364811">
<ele>141</ele>
<time>2023-05-16T13:47:43Z</time>
</trkpt>
<trkpt lat="49.04255694709718" lon="9.143209978938103">
<ele>141</ele>
<time>2023-05-16T13:47:44Z</time>
</trkpt>
<trkpt lat="49.04255694709718" lon="9.143144935369492">
<ele>141</ele>
<time>2023-05-16T13:47:45Z</time>
</trkpt>
<trkpt lat="49.04255795292556" lon="9.14307494647801">
<ele>141</ele>
<time>2023-05-16T13:47:46Z</time>
</trkpt>
<trkpt lat="49.042562982067466" lon="9.143006969243288">
<ele>141</ele>
<time>2023-05-16T13:47:47Z</time>
</trkpt>
<trkpt lat="49.04256792739034" lon="9.142939997836947">
<ele>141</ele>
<time>2023-05-16T13:47:48Z</time>
</trkpt>
<trkpt lat="49.04257195070386" lon="9.142871936783195">
<ele>141</ele>
<time>2023-05-16T13:47:49Z</time>
</trkpt>
<trkpt lat="49.04257195070386" lon="9.142802953720093">
<ele>141</ele>
<time>2023-05-16T13:47:50Z</time>
</trkpt>
<trkpt lat="49.04257195070386" lon="9.142734976485372">
<ele>141</ele>
<time>2023-05-16T13:47:51Z</time>
</trkpt>
<trkpt lat="49.04256792739034" lon="9.14266699925065">
<ele>141</ele>
<time>2023-05-16T13:47:52Z</time>
</trkpt>
<trkpt lat="49.04256792739034" lon="9.142596926540136">
<ele>141</ele>
<time>2023-05-16T13:47:53Z</time>
</trkpt>
<trkpt lat="49.042562982067466" lon="9.142527943477035">
<ele>141</ele>
<time>2023-05-16T13:47:54Z</time>
</trkpt>
<trkpt lat="49.04255493544042" lon="9.142459966242313">
<ele>141</ele>
<time>2023-05-16T13:47:55Z</time>
</trkpt>
<trkpt lat="49.04254999011755" lon="9.142394922673702">
<ele>141</ele>
<time>2023-05-16T13:47:56Z</time>
</trkpt>
<trkpt lat="49.04254697263241" lon="9.142331974580884">
<ele>141</ele>
<time>2023-05-16T13:47:57Z</time>
</trkpt>
<trkpt lat="49.04254496097565" lon="9.142267936840653">
<ele>140.79999999999995</ele>
<time>2023-05-16T13:47:58Z</time>
</trkpt>
<trkpt lat="49.042542949318886" lon="9.142204988747835">
<ele>140.79999999999995</ele>
<time>2023-05-16T13:47:59Z</time>
</trkpt>
<trkpt lat="49.042539931833744" lon="9.142142962664366">
<ele>140.79999999999995</ele>
<time>2023-05-16T13:48:00Z</time>
</trkpt>
<trkpt lat="49.042536998167634" lon="9.142082948237658">
<ele>140.79999999999995</ele>
<time>2023-05-16T13:48:01Z</time>
</trkpt>
<trkpt lat="49.04252995736897" lon="9.14202494546771">
<ele>140.79999999999995</ele>
<time>2023-05-16T13:48:02Z</time>
</trkpt>
<trkpt lat="49.04252492822707" lon="9.141969960182905">
<ele>140.79999999999995</ele>
<time>2023-05-16T13:48:03Z</time>
</trkpt>
<trkpt lat="49.04251495376229" lon="9.141916986554861">
<ele>140.79999999999995</ele>
<time>2023-05-16T13:48:04Z</time>
</trkpt>
<trkpt lat="49.04250497929752" lon="9.141864934936166">
<ele>140.79999999999995</ele>
<time>2023-05-16T13:48:05Z</time>
</trkpt>
<trkpt lat="49.04249492101371" lon="9.141814978793263">
<ele>140.79999999999995</ele>
<time>2023-05-16T13:48:06Z</time>
</trkpt>
<trkpt lat="49.0424869582057" lon="9.141769967973232">
<ele>140.79999999999995</ele>
<time>2023-05-16T13:48:07Z</time>
</trkpt>
<trkpt lat="49.042476983740926" lon="9.14172294549644">
<ele>140.79999999999995</ele>
<time>2023-05-16T13:48:08Z</time>
</trkpt>
<trkpt lat="49.04246994294226" lon="9.141677934676409">
<ele>140.79999999999995</ele>
<time>2023-05-16T13:48:09Z</time>
</trkpt>
<trkpt lat="49.04246198013425" lon="9.141631918027997">
<ele>140.79999999999995</ele>
<time>2023-05-16T13:48:10Z</time>
</trkpt>
<trkpt lat="49.04244798235595" lon="9.141577938571572">
<ele>140.79999999999995</ele>
<time>2023-05-16T13:48:11Z</time>
</trkpt>
<trkpt lat="49.042432978749275" lon="9.141519935801625">
<ele>141</ele>
<time>2023-05-16T13:48:12Z</time>
</trkpt>
<trkpt lat="49.0424179751426" lon="9.141456987708807">
<ele>141</ele>
<time>2023-05-16T13:48:13Z</time>
</trkpt>
<trkpt lat="49.04240699484944" lon="9.141394961625338">
<ele>141</ele>
<time>2023-05-16T13:48:14Z</time>
</trkpt>
<trkpt lat="49.04239794239402" lon="9.141331929713488">
<ele>141</ele>
<time>2023-05-16T13:48:15Z</time>
</trkpt>
<trkpt lat="49.042391991242766" lon="9.14126998744905">
<ele>141</ele>
<time>2023-05-16T13:48:16Z</time>
</trkpt>
<trkpt lat="49.042394924908876" lon="9.141214918345213">
<ele>141</ele>
<time>2023-05-16T13:48:17Z</time>
</trkpt>
<trkpt lat="49.04240791685879" lon="9.141159933060408">
<ele>141</ele>
<time>2023-05-16T13:48:18Z</time>
</trkpt>
<trkpt lat="49.04242493212223" lon="9.14109799079597">
<ele>141</ele>
<time>2023-05-16T13:48:19Z</time>
</trkpt>
<trkpt lat="49.04244496487081" lon="9.141032947227359">
<ele>141</ele>
<time>2023-05-16T13:48:20Z</time>
</trkpt>
<trkpt lat="49.04246499761939" lon="9.140962958335876">
<ele>141</ele>
<time>2023-05-16T13:48:21Z</time>
</trkpt>
<trkpt lat="49.042479917407036" lon="9.140887940302491">
<ele>141</ele>
<time>2023-05-16T13:48:22Z</time>
</trkpt>
<trkpt lat="49.04248494654894" lon="9.140806971117854">
<ele>141</ele>
<time>2023-05-16T13:48:23Z</time>
</trkpt>
<trkpt lat="49.0424869582057" lon="9.140724996104836">
<ele>141</ele>
<time>2023-05-16T13:48:24Z</time>
</trkpt>
<trkpt lat="49.04248796403408" lon="9.140644948929548">
<ele>141</ele>
<time>2023-05-16T13:48:25Z</time>
</trkpt>
<trkpt lat="49.0424869582057" lon="9.140566997230053">
<ele>141</ele>
<time>2023-05-16T13:48:26Z</time>
</trkpt>
<trkpt lat="49.04248494654894" lon="9.140487955883145">
<ele>141</ele>
<time>2023-05-16T13:48:27Z</time>
</trkpt>
<trkpt lat="49.04248494654894" lon="9.14041293784976">
<ele>141</ele>
<time>2023-05-16T13:48:28Z</time>
</trkpt>
<trkpt lat="49.04248796403408" lon="9.140337919816375">
<ele>141</ele>
<time>2023-05-16T13:48:29Z</time>
</trkpt>
<trkpt lat="49.04249299317598" lon="9.140262985602021">
<ele>141</ele>
<time>2023-05-16T13:48:30Z</time>
</trkpt>
<trkpt lat="49.042497938498855" lon="9.140191990882158">
<ele>140.79999999999995</ele>
<time>2023-05-16T13:48:31Z</time>
</trkpt>
<trkpt lat="49.042499950155616" lon="9.140122924000025">
<ele>140.79999999999995</ele>
<time>2023-05-16T13:48:32Z</time>
</trkpt>
<trkpt lat="49.04249492101371" lon="9.140054946765304">
<ele>140.79999999999995</ele>
<time>2023-05-16T13:48:33Z</time>
</trkpt>
<trkpt lat="49.0424869582057" lon="9.139986969530582">
<ele>140.79999999999995</ele>
<time>2023-05-16T13:48:34Z</time>
</trkpt>
<trkpt lat="49.0424819290638" lon="9.139914968982339">
<ele>140.79999999999995</ele>
<time>2023-05-16T13:48:35Z</time>
</trkpt>
<trkpt lat="49.042479917407036" lon="9.139842968434095">
<ele>140.79999999999995</ele>
<time>2023-05-16T13:48:36Z</time>
</trkpt>
<trkpt lat="49.04248494654894" lon="9.139772979542613">
<ele>140.79999999999995</ele>
<time>2023-05-16T13:48:37Z</time>
</trkpt>
<trkpt lat="49.04248796403408" lon="9.13970198482275">
<ele>140.79999999999995</ele>
<time>2023-05-16T13:48:38Z</time>
</trkpt>
<trkpt lat="49.04248796403408" lon="9.139629984274507">
<ele>140.79999999999995</ele>
<time>2023-05-16T13:48:39Z</time>
</trkpt>
<trkpt lat="49.04248494654894" lon="9.139556977897882">
<ele>140.79999999999995</ele>
<time>2023-05-16T13:48:40Z</time>
</trkpt>
<trkpt lat="49.04248293489218" lon="9.139481959864497">
<ele>140.79999999999995</ele>
<time>2023-05-16T13:48:41Z</time>
</trkpt>
<trkpt lat="49.04248494654894" lon="9.13940493017435">
<ele>140.79999999999995</ele>
<time>2023-05-16T13:48:42Z</time>
</trkpt>
<trkpt lat="49.04248494654894" lon="9.139326978474855">
<ele>140.79999999999995</ele>
<time>2023-05-16T13:48:43Z</time>
</trkpt>
<trkpt lat="49.04248796403408" lon="9.139254977926612">
<ele>140.79999999999995</ele>
<time>2023-05-16T13:48:44Z</time>
</trkpt>
<trkpt lat="49.0424919873476" lon="9.139182977378368">
<ele>140.79999999999995</ele>
<time>2023-05-16T13:48:45Z</time>
</trkpt>
<trkpt lat="49.04249299317598" lon="9.139109971001744">
<ele>140.79999999999995</ele>
<time>2023-05-16T13:48:46Z</time>
</trkpt>
<trkpt lat="49.04249492101371" lon="9.1390379704535">
<ele>140.79999999999995</ele>
<time>2023-05-16T13:48:47Z</time>
</trkpt>
<trkpt lat="49.04249492101371" lon="9.138962952420115">
<ele>140.79999999999995</ele>
<time>2023-05-16T13:48:48Z</time>
</trkpt>
<trkpt lat="49.04249492101371" lon="9.13888793438673">
<ele>140.79999999999995</ele>
<time>2023-05-16T13:48:49Z</time>
</trkpt>
<trkpt lat="49.04249492101371" lon="9.138811994343996">
<ele>141</ele>
<time>2023-05-16T13:48:50Z</time>
</trkpt>
<trkpt lat="49.042496932670474" lon="9.13873697631061">
<ele>141</ele>
<time>2023-05-16T13:48:51Z</time>
</trkpt>
<trkpt lat="49.04249492101371" lon="9.138661958277225">
<ele>141</ele>
<time>2023-05-16T13:48:52Z</time>
</trkpt>
<trkpt lat="49.042496932670474" lon="9.13858694024384">
<ele>141</ele>
<time>2023-05-16T13:48:53Z</time>
</trkpt>
<trkpt lat="49.042496932670474" lon="9.138512928038836">
<ele>141.20000000000005</ele>
<time>2023-05-16T13:48:54Z</time>
</trkpt>
<trkpt lat="49.042497938498855" lon="9.138439921662211">
<ele>141.20000000000005</ele>
<time>2023-05-16T13:48:55Z</time>
</trkpt>
<trkpt lat="49.04250196181238" lon="9.138369932770729">
<ele>141.20000000000005</ele>
<time>2023-05-16T13:48:56Z</time>
</trkpt>
<trkpt lat="49.04250296764076" lon="9.138297932222486">
<ele>141.20000000000005</ele>
<time>2023-05-16T13:48:57Z</time>
</trkpt>
<trkpt lat="49.04250196181238" lon="9.138226937502623">
<ele>141.39999999999998</ele>
<time>2023-05-16T13:48:58Z</time>
</trkpt>
<trkpt lat="49.042499950155616" lon="9.138152925297618">
<ele>141.39999999999998</ele>
<time>2023-05-16T13:48:59Z</time>
</trkpt>
<trkpt lat="49.042499950155616" lon="9.138079918920994">
<ele>141.39999999999998</ele>
<time>2023-05-16T13:49:00Z</time>
</trkpt>
<trkpt lat="49.042499950155616" lon="9.13800791837275">
<ele>141.39999999999998</ele>
<time>2023-05-16T13:49:01Z</time>
</trkpt>
<trkpt lat="49.042497938498855" lon="9.137936923652887">
<ele>141.39999999999998</ele>
<time>2023-05-16T13:49:02Z</time>
</trkpt>
<trkpt lat="49.042496932670474" lon="9.137864923104644">
<ele>141.39999999999998</ele>
<time>2023-05-16T13:49:03Z</time>
</trkpt>
<trkpt lat="49.042496932670474" lon="9.13779191672802">
<ele>141.39999999999998</ele>
<time>2023-05-16T13:49:04Z</time>
</trkpt>
<trkpt lat="49.042496932670474" lon="9.137719999998808">
<ele>141.39999999999998</ele>
<time>2023-05-16T13:49:05Z</time>
</trkpt>
<trkpt lat="49.042496932670474" lon="9.137654956430197">
<ele>141.39999999999998</ele>
<time>2023-05-16T13:49:06Z</time>
</trkpt>
<trkpt lat="49.042496932670474" lon="9.13759795948863">
<ele>141.39999999999998</ele>
<time>2023-05-16T13:49:07Z</time>
</trkpt>
<trkpt lat="49.042497938498855" lon="9.137546997517347">
<ele>141.39999999999998</ele>
<time>2023-05-16T13:49:08Z</time>
</trkpt>
<trkpt lat="49.04250296764076" lon="9.137496957555413">
<ele>141.39999999999998</ele>
<time>2023-05-16T13:49:09Z</time>
</trkpt>
<trkpt lat="49.04250699095428" lon="9.137441972270608">
<ele>141.39999999999998</ele>
<time>2023-05-16T13:49:10Z</time>
</trkpt>
<trkpt lat="49.04250296764076" lon="9.137386986985803">
<ele>141.39999999999998</ele>
<time>2023-05-16T13:49:11Z</time>
</trkpt>
<trkpt lat="49.042499950155616" lon="9.137331917881966">
<ele>141.20000000000005</ele>
<time>2023-05-16T13:49:12Z</time>
</trkpt>
<trkpt lat="49.042496932670474" lon="9.1372749209404">
<ele>141.20000000000005</ele>
<time>2023-05-16T13:49:13Z</time>
</trkpt>
<trkpt lat="49.042496932670474" lon="9.137217923998833">
<ele>141.20000000000005</ele>
<time>2023-05-16T13:49:14Z</time>
</trkpt>
<trkpt lat="49.042499950155616" lon="9.137156987562776">
<ele>141.20000000000005</ele>
<time>2023-05-16T13:49:15Z</time>
</trkpt>
<trkpt lat="49.04250296764076" lon="9.137094961479306">
<ele>141.20000000000005</ele>
<time>2023-05-16T13:49:16Z</time>
</trkpt>
<trkpt lat="49.04250699095428" lon="9.137032935395837">
<ele>141.20000000000005</ele>
<time>2023-05-16T13:49:17Z</time>
</trkpt>
<trkpt lat="49.04250992462039" lon="9.136969987303019">
<ele>141.20000000000005</ele>
<time>2023-05-16T13:49:18Z</time>
</trkpt>
<trkpt lat="49.04250699095428" lon="9.136902932077646">
<ele>141.20000000000005</ele>
<time>2023-05-16T13:49:19Z</time>
</trkpt>
<trkpt lat="49.04250699095428" lon="9.136832943186164">
<ele>141.20000000000005</ele>
<time>2023-05-16T13:49:20Z</time>
</trkpt>
<trkpt lat="49.04250992462039" lon="9.136764965951443">
<ele>141.20000000000005</ele>
<time>2023-05-16T13:49:21Z</time>
</trkpt>
<trkpt lat="49.042516965419054" lon="9.136697994545102">
<ele>141.20000000000005</ele>
<time>2023-05-16T13:49:22Z</time>
</trkpt>
<trkpt lat="49.042516965419054" lon="9.136636974290013">
<ele>141.20000000000005</ele>
<time>2023-05-16T13:49:23Z</time>
</trkpt>
<trkpt lat="49.042517971247435" lon="9.136569919064641">
<ele>141.20000000000005</ele>
<time>2023-05-16T13:49:24Z</time>
</trkpt>
<trkpt lat="49.042519982904196" lon="9.136504959315062">
<ele>141.20000000000005</ele>
<time>2023-05-16T13:49:25Z</time>
</trkpt>
<trkpt lat="49.04252492822707" lon="9.136439999565482">
<ele>141.20000000000005</ele>
<time>2023-05-16T13:49:26Z</time>
</trkpt>
<trkpt lat="49.04252794571221" lon="9.136374955996871">
<ele>141.20000000000005</ele>
<time>2023-05-16T13:49:27Z</time>
</trkpt>
<trkpt lat="49.04252995736897" lon="9.136314941570163">
<ele>141.20000000000005</ele>
<time>2023-05-16T13:49:28Z</time>
</trkpt>
<trkpt lat="49.04253196902573" lon="9.136254927143455">
<ele>141.20000000000005</ele>
<time>2023-05-16T13:49:29Z</time>
</trkpt>
<trkpt lat="49.04253297485411" lon="9.136192984879017">
<ele>141.20000000000005</ele>
<time>2023-05-16T13:49:30Z</time>
</trkpt>
<trkpt lat="49.042536998167634" lon="9.136131964623928">
<ele>141.20000000000005</ele>
<time>2023-05-16T13:49:31Z</time>
</trkpt>
<trkpt lat="49.04253792017698" lon="9.13607195019722">
<ele>141.20000000000005</ele>
<time>2023-05-16T13:49:32Z</time>
</trkpt>
<trkpt lat="49.042541943490505" lon="9.13600992411375">
<ele>141.20000000000005</ele>
<time>2023-05-16T13:49:33Z</time>
</trkpt>
<trkpt lat="49.04254496097565" lon="9.135947981849313">
<ele>141.20000000000005</ele>
<time>2023-05-16T13:49:34Z</time>
</trkpt>
<trkpt lat="49.04254797846079" lon="9.135884949937463">
<ele>141.20000000000005</ele>
<time>2023-05-16T13:49:35Z</time>
</trkpt>
<trkpt lat="49.04255191795528" lon="9.135821918025613">
<ele>141.20000000000005</ele>
<time>2023-05-16T13:49:36Z</time>
</trkpt>
<trkpt lat="49.04255292378366" lon="9.135759975761175">
<ele>141.20000000000005</ele>
<time>2023-05-16T13:49:37Z</time>
</trkpt>
<trkpt lat="49.04255493544042" lon="9.135697949677706">
<ele>141.20000000000005</ele>
<time>2023-05-16T13:49:38Z</time>
</trkpt>
<trkpt lat="49.04255694709718" lon="9.135637935250998">
<ele>141.20000000000005</ele>
<time>2023-05-16T13:49:39Z</time>
</trkpt>
<trkpt lat="49.04255795292556" lon="9.135569958016276">
<ele>141.20000000000005</ele>
<time>2023-05-16T13:49:40Z</time>
</trkpt>
<trkpt lat="49.04255493544042" lon="9.13548999466002">
<ele>141.39999999999998</ele>
<time>2023-05-16T13:49:41Z</time>
</trkpt>
<trkpt lat="49.04254697263241" lon="9.135401984676719">
<ele>141.39999999999998</ele>
<time>2023-05-16T13:49:42Z</time>
</trkpt>
<trkpt lat="49.04253792017698" lon="9.135311963036656">
<ele>141.39999999999998</ele>
<time>2023-05-16T13:49:43Z</time>
</trkpt>
<trkpt lat="49.04252995736897" lon="9.135226970538497">
<ele>141.39999999999998</ele>
<time>2023-05-16T13:49:44Z</time>
</trkpt>
<trkpt lat="49.04252199456096" lon="9.135142983868718">
<ele>141.39999999999998</ele>
<time>2023-05-16T13:49:45Z</time>
</trkpt>
<trkpt lat="49.04251294210553" lon="9.13506293669343">
<ele>141.39999999999998</ele>
<time>2023-05-16T13:49:46Z</time>
</trkpt>
<trkpt lat="49.042499950155616" lon="9.134986996650696">
<ele>141.39999999999998</ele>
<time>2023-05-16T13:49:47Z</time>
</trkpt>
<trkpt lat="49.0424869582057" lon="9.13491197861731">
<ele>141.39999999999998</ele>
<time>2023-05-16T13:49:48Z</time>
</trkpt>
<trkpt lat="49.042476983740926" lon="9.134837966412306">
<ele>141.39999999999998</ele>
<time>2023-05-16T13:49:49Z</time>
</trkpt>
<trkpt lat="49.0424679312855" lon="9.134764960035682">
<ele>141.39999999999998</ele>
<time>2023-05-16T13:49:50Z</time>
</trkpt>
<trkpt lat="49.04246298596263" lon="9.134692959487438">
<ele>141.39999999999998</ele>
<time>2023-05-16T13:49:51Z</time>
</trkpt>
<trkpt lat="49.042456950992346" lon="9.134624982252717">
<ele>141.39999999999998</ele>
<time>2023-05-16T13:49:52Z</time>
</trkpt>
<trkpt lat="49.04244798235595" lon="9.134557927027345">
<ele>141.39999999999998</ele>
<time>2023-05-16T13:49:53Z</time>
</trkpt>
<trkpt lat="49.04244194738567" lon="9.134492967277765">
<ele>141.39999999999998</ele>
<time>2023-05-16T13:49:54Z</time>
</trkpt>
<trkpt lat="49.042432978749275" lon="9.134427923709154">
<ele>141.39999999999998</ele>
<time>2023-05-16T13:49:55Z</time>
</trkpt>
<trkpt lat="49.04242694377899" lon="9.134362963959575">
<ele>141.39999999999998</ele>
<time>2023-05-16T13:49:56Z</time>
</trkpt>
<trkpt lat="49.042414957657456" lon="9.134291969239712">
<ele>141.39999999999998</ele>
<time>2023-05-16T13:49:57Z</time>
</trkpt>
<trkpt lat="49.04240498319268" lon="9.13422198034823">
<ele>141.39999999999998</ele>
<time>2023-05-16T13:49:58Z</time>
</trkpt>
<trkpt lat="49.04239693656564" lon="9.134151991456747">
<ele>141.39999999999998</ele>
<time>2023-05-16T13:49:59Z</time>
</trkpt>
<trkpt lat="49.042389979586005" lon="9.134084936231375">
<ele>141.39999999999998</ele>
<time>2023-05-16T13:50:00Z</time>
</trkpt>
<trkpt lat="49.04238193295896" lon="9.134016958996654">
<ele>141.39999999999998</ele>
<time>2023-05-16T13:50:01Z</time>
</trkpt>
<trkpt lat="49.04237296432257" lon="9.133947975933552">
<ele>141.39999999999998</ele>
<time>2023-05-16T13:50:02Z</time>
</trkpt>
<trkpt lat="49.04236692935228" lon="9.13387999869883">
<ele>141.60000000000002</ele>
<time>2023-05-16T13:50:03Z</time>
</trkpt>
<trkpt lat="49.04236198402941" lon="9.133811937645078">
<ele>141.60000000000002</ele>
<time>2023-05-16T13:50:04Z</time>
</trkpt>
<trkpt lat="49.04235494323075" lon="9.133739937096834">
<ele>141.60000000000002</ele>
<time>2023-05-16T13:50:05Z</time>
</trkpt>
<trkpt lat="49.04234999790788" lon="9.133664919063449">
<ele>141.60000000000002</ele>
<time>2023-05-16T13:50:06Z</time>
</trkpt>
<trkpt lat="49.042344968765974" lon="9.133589984849095">
<ele>141.60000000000002</ele>
<time>2023-05-16T13:50:07Z</time>
</trkpt>
<trkpt lat="49.04233792796731" lon="9.133516978472471">
<ele>141.79999999999995</ele>
<time>2023-05-16T13:50:08Z</time>
</trkpt>
<trkpt lat="49.042327953502536" lon="9.133441960439086">
<ele>141.79999999999995</ele>
<time>2023-05-16T13:50:09Z</time>
</trkpt>
<trkpt lat="49.04231797903776" lon="9.13336493074894">
<ele>141.79999999999995</ele>
<time>2023-05-16T13:50:10Z</time>
</trkpt>
<trkpt lat="49.04231194406748" lon="9.133291924372315">
<ele>141.79999999999995</ele>
<time>2023-05-16T13:50:11Z</time>
</trkpt>
<trkpt lat="49.042301969602704" lon="9.133216990157962">
<ele>142</ele>
<time>2023-05-16T13:50:12Z</time>
</trkpt>
<trkpt lat="49.04229199513793" lon="9.133139960467815">
<ele>142</ele>
<time>2023-05-16T13:50:13Z</time>
</trkpt>
<trkpt lat="49.042282942682505" lon="9.133061924949288">
<ele>142</ele>
<time>2023-05-16T13:50:14Z</time>
</trkpt>
<trkpt lat="49.04227497987449" lon="9.132984979078174">
<ele>142.20000000000005</ele>
<time>2023-05-16T13:50:15Z</time>
</trkpt>
<trkpt lat="49.042261987924576" lon="9.132906943559647">
<ele>142.20000000000005</ele>
<time>2023-05-16T13:50:16Z</time>
</trkpt>
<trkpt lat="49.04224799014628" lon="9.13282798603177">
<ele>142.20000000000005</ele>
<time>2023-05-16T13:50:17Z</time>
</trkpt>
<trkpt lat="49.04223499819636" lon="9.132746933028102">
<ele>142.20000000000005</ele>
<time>2023-05-16T13:50:18Z</time>
</trkpt>
<trkpt lat="49.042221922427416" lon="9.132662946358323">
<ele>142.20000000000005</ele>
<time>2023-05-16T13:50:19Z</time>
</trkpt>
<trkpt lat="49.04220993630588" lon="9.132581977173686">
<ele>142.39999999999998</ele>
<time>2023-05-16T13:50:20Z</time>
</trkpt>
<trkpt lat="49.042199961841106" lon="9.132501929998398">
<ele>142.39999999999998</ele>
<time>2023-05-16T13:50:21Z</time>
</trkpt>
<trkpt lat="49.04219292104244" lon="9.132417943328619">
<ele>142.39999999999998</ele>
<time>2023-05-16T13:50:22Z</time>
</trkpt>
<trkpt lat="49.04218797571957" lon="9.13233295083046">
<ele>142.39999999999998</ele>
<time>2023-05-16T13:50:23Z</time>
</trkpt>
<trkpt lat="49.04218194074929" lon="9.132251981645823">
<ele>142.60000000000002</ele>
<time>2023-05-16T13:50:24Z</time>
</trkpt>
<trkpt lat="49.04217196628451" lon="9.132167994976044">
<ele>142.60000000000002</ele>
<time>2023-05-16T13:50:25Z</time>
</trkpt>
<trkpt lat="49.04215998016298" lon="9.132084930315614">
<ele>142.60000000000002</ele>
<time>2023-05-16T13:50:26Z</time>
</trkpt>
<trkpt lat="49.04214698821306" lon="9.132001949474216">
<ele>142.60000000000002</ele>
<time>2023-05-16T13:50:27Z</time>
</trkpt>
<trkpt lat="49.042134918272495" lon="9.131919974461198">
<ele>142.79999999999995</ele>
<time>2023-05-16T13:50:28Z</time>
</trkpt>
<trkpt lat="49.04212494380772" lon="9.131832970306277">
<ele>142.79999999999995</ele>
<time>2023-05-16T13:50:29Z</time>
</trkpt>
<trkpt lat="49.04211496934295" lon="9.131747977808118">
<ele>142.79999999999995</ele>
<time>2023-05-16T13:50:30Z</time>
</trkpt>
<trkpt lat="49.04210499487817" lon="9.131661979481578">
<ele>142.79999999999995</ele>
<time>2023-05-16T13:50:31Z</time>
</trkpt>
<trkpt lat="49.04209493659437" lon="9.131572963669896">
<ele>142.79999999999995</ele>
<time>2023-05-16T13:50:32Z</time>
</trkpt>
<trkpt lat="49.04208496212959" lon="9.131486965343356">
<ele>142.79999999999995</ele>
<time>2023-05-16T13:50:33Z</time>
</trkpt>
<trkpt lat="49.04207498766482" lon="9.131399961188436">
<ele>142.79999999999995</ele>
<time>2023-05-16T13:50:34Z</time>
</trkpt>
<trkpt lat="49.04206492938101" lon="9.131312957033515">
<ele>142.79999999999995</ele>
<time>2023-05-16T13:50:35Z</time>
</trkpt>
<trkpt lat="49.04205495491624" lon="9.131224947050214">
<ele>143</ele>
<time>2023-05-16T13:50:36Z</time>
</trkpt>
<trkpt lat="49.042044980451465" lon="9.131141966208816">
<ele>143</ele>
<time>2023-05-16T13:50:37Z</time>
</trkpt>
<trkpt lat="49.04203693382442" lon="9.131059991195798">
<ele>143</ele>
<time>2023-05-16T13:50:38Z</time>
</trkpt>
<trkpt lat="49.042027965188026" lon="9.13097994402051">
<ele>143</ele>
<time>2023-05-16T13:50:39Z</time>
</trkpt>
<trkpt lat="49.04201698489487" lon="9.130901992321014">
<ele>143.20000000000005</ele>
<time>2023-05-16T13:50:40Z</time>
</trkpt>
<trkpt lat="49.042004998773336" lon="9.130822950974107">
<ele>143.20000000000005</ele>
<time>2023-05-16T13:50:41Z</time>
</trkpt>
<trkpt lat="49.04199494048953" lon="9.130744999274611">
<ele>143.20000000000005</ele>
<time>2023-05-16T13:50:42Z</time>
</trkpt>
<trkpt lat="49.041984966024756" lon="9.130662940442562">
<ele>143.20000000000005</ele>
<time>2023-05-16T13:50:43Z</time>
</trkpt>
<trkpt lat="49.04197499155998" lon="9.130579959601164">
<ele>143.20000000000005</ele>
<time>2023-05-16T13:50:44Z</time>
</trkpt>
<trkpt lat="49.04196493327618" lon="9.130496978759766">
<ele>143.39999999999998</ele>
<time>2023-05-16T13:50:45Z</time>
</trkpt>
<trkpt lat="49.0419549588114" lon="9.130412992089987">
<ele>143.39999999999998</ele>
<time>2023-05-16T13:50:46Z</time>
</trkpt>
<trkpt lat="49.04194498434663" lon="9.130329927429557">
<ele>143.39999999999998</ele>
<time>2023-05-16T13:50:47Z</time>
</trkpt>
<trkpt lat="49.04193299822509" lon="9.130246946588159">
<ele>143.39999999999998</ele>
<time>2023-05-16T13:50:48Z</time>
</trkpt>
<trkpt lat="49.04192495159805" lon="9.130166983231902">
<ele>143.39999999999998</ele>
<time>2023-05-16T13:50:49Z</time>
</trkpt>
<trkpt lat="49.041916988790035" lon="9.130086936056614">
<ele>143.39999999999998</ele>
<time>2023-05-16T13:50:50Z</time>
</trkpt>
<trkpt lat="49.04190693050623" lon="9.1300099901855">
<ele>143.60000000000002</ele>
<time>2023-05-16T13:50:51Z</time>
</trkpt>
<trkpt lat="49.041897961869836" lon="9.129929943010211">
<ele>143.60000000000002</ele>
<time>2023-05-16T13:50:52Z</time>
</trkpt>
<trkpt lat="49.04188798740506" lon="9.129851991310716">
<ele>143.60000000000002</ele>
<time>2023-05-16T13:50:53Z</time>
</trkpt>
<trkpt lat="49.041876923292875" lon="9.129769932478666">
<ele>143.60000000000002</ele>
<time>2023-05-16T13:50:54Z</time>
</trkpt>
<trkpt lat="49.0418669488281" lon="9.129692986607552">
<ele>143.60000000000002</ele>
<time>2023-05-16T13:50:55Z</time>
</trkpt>
<trkpt lat="49.041854962706566" lon="9.129616962745786">
<ele>143.79999999999995</ele>
<time>2023-05-16T13:50:56Z</time>
</trkpt>
<trkpt lat="49.04183794744313" lon="9.1295419447124">
<ele>143.79999999999995</ele>
<time>2023-05-16T13:50:57Z</time>
</trkpt>
<trkpt lat="49.04181799851358" lon="9.129462987184525">
<ele>143.79999999999995</ele>
<time>2023-05-16T13:50:58Z</time>
</trkpt>
<trkpt lat="49.041797965765" lon="9.129382940009236">
<ele>143.79999999999995</ele>
<time>2023-05-16T13:50:59Z</time>
</trkpt>
<trkpt lat="49.04177692718804" lon="9.12930297665298">
<ele>144</ele>
<time>2023-05-16T13:51:00Z</time>
</trkpt>
<trkpt lat="49.04175697825849" lon="9.129224941134453">
<ele>144</ele>
<time>2023-05-16T13:51:01Z</time>
</trkpt>
<trkpt lat="49.04173292219639" lon="9.129144977778196">
<ele>144</ele>
<time>2023-05-16T13:51:02Z</time>
</trkpt>
<trkpt lat="49.04171196743846" lon="9.12906794808805">
<ele>144.20000000000005</ele>
<time>2023-05-16T13:51:03Z</time>
</trkpt>
<trkpt lat="49.04168992303312" lon="9.128992930054665">
<ele>144.20000000000005</ele>
<time>2023-05-16T13:51:04Z</time>
</trkpt>
<trkpt lat="49.04166796244681" lon="9.12891699001193">
<ele>144.20000000000005</ele>
<time>2023-05-16T13:51:05Z</time>
</trkpt>
<trkpt lat="49.04164792969823" lon="9.128839960321784">
<ele>144.39999999999998</ele>
<time>2023-05-16T13:51:06Z</time>
</trkpt>
<trkpt lat="49.04162798076868" lon="9.128764942288399">
<ele>144.39999999999998</ele>
<time>2023-05-16T13:51:07Z</time>
</trkpt>
<trkpt lat="49.0416079480201" lon="9.128692941740155">
<ele>144.39999999999998</ele>
<time>2023-05-16T13:51:08Z</time>
</trkpt>
<trkpt lat="49.04158699326217" lon="9.128619935363531">
<ele>144.60000000000002</ele>
<time>2023-05-16T13:51:09Z</time>
</trkpt>
<trkpt lat="49.04156293720007" lon="9.128549946472049">
<ele>144.60000000000002</ele>
<time>2023-05-16T13:51:10Z</time>
</trkpt>
<trkpt lat="49.04154298827052" lon="9.128477945923805">
<ele>144.60000000000002</ele>
<time>2023-05-16T13:51:11Z</time>
</trkpt>
<trkpt lat="49.0415249671787" lon="9.128406951203942">
<ele>144.60000000000002</ele>
<time>2023-05-16T13:51:12Z</time>
</trkpt>
<trkpt lat="49.04150694608688" lon="9.128334950655699">
<ele>144.60000000000002</ele>
<time>2023-05-16T13:51:13Z</time>
</trkpt>
<trkpt lat="49.041484985500574" lon="9.128262950107455">
<ele>144.79999999999995</ele>
<time>2023-05-16T13:51:14Z</time>
</trkpt>
<trkpt lat="49.041464952751994" lon="9.128189943730831">
<ele>144.79999999999995</ele>
<time>2023-05-16T13:51:15Z</time>
</trkpt>
<trkpt lat="49.041442992165685" lon="9.128116937354207">
<ele>144.79999999999995</ele>
<time>2023-05-16T13:51:16Z</time>
</trkpt>
<trkpt lat="49.04141994193196" lon="9.128037979826331">
<ele>144.79999999999995</ele>
<time>2023-05-16T13:51:17Z</time>
</trkpt>
<trkpt lat="49.04139798134565" lon="9.127957932651043">
<ele>144.79999999999995</ele>
<time>2023-05-16T13:51:18Z</time>
</trkpt>
<trkpt lat="49.04137493111193" lon="9.127872940152884">
<ele>144.79999999999995</ele>
<time>2023-05-16T13:51:19Z</time>
</trkpt>
<trkpt lat="49.04134995304048" lon="9.127784930169582">
<ele>145</ele>
<time>2023-05-16T13:51:20Z</time>
</trkpt>
<trkpt lat="49.04132698662579" lon="9.127699937671423">
<ele>145</ele>
<time>2023-05-16T13:51:21Z</time>
</trkpt>
<trkpt lat="49.04130192473531" lon="9.127616956830025">
<ele>145</ele>
<time>2023-05-16T13:51:22Z</time>
</trkpt>
<trkpt lat="49.04127795249224" lon="9.127536993473768">
<ele>145.20000000000005</ele>
<time>2023-05-16T13:51:23Z</time>
</trkpt>
<trkpt lat="49.04125498607755" lon="9.127459963783622">
<ele>145.20000000000005</ele>
<time>2023-05-16T13:51:24Z</time>
</trkpt>
<trkpt lat="49.041232941672206" lon="9.127379916608334">
<ele>145.20000000000005</ele>
<time>2023-05-16T13:51:25Z</time>
</trkpt>
<trkpt lat="49.04121299274266" lon="9.127302970737219">
<ele>145.39999999999998</ele>
<time>2023-05-16T13:51:26Z</time>
</trkpt>
<trkpt lat="49.04119295999408" lon="9.127224935218692">
<ele>145.39999999999998</ele>
<time>2023-05-16T13:51:27Z</time>
</trkpt>
<trkpt lat="49.0411729272455" lon="9.127146983519197">
<ele>145.39999999999998</ele>
<time>2023-05-16T13:51:28Z</time>
</trkpt>
<trkpt lat="49.04115197248757" lon="9.127071965485811">
<ele>145.39999999999998</ele>
<time>2023-05-16T13:51:29Z</time>
</trkpt>
<trkpt lat="49.04112791642547" lon="9.126999964937568">
<ele>145.60000000000002</ele>
<time>2023-05-16T13:51:30Z</time>
</trkpt>
<trkpt lat="49.04110696166754" lon="9.126931987702847">
<ele>145.60000000000002</ele>
<time>2023-05-16T13:51:31Z</time>
</trkpt>
<trkpt lat="49.0410899464041" lon="9.126864932477474">
<ele>145.60000000000002</ele>
<time>2023-05-16T13:51:32Z</time>
</trkpt>
<trkpt lat="49.04107494279742" lon="9.126802990213037">
<ele>145.60000000000002</ele>
<time>2023-05-16T13:51:33Z</time>
</trkpt>
<trkpt lat="49.041057927533984" lon="9.126742975786328">
<ele>145.60000000000002</ele>
<time>2023-05-16T13:51:34Z</time>
</trkpt>
<trkpt lat="49.04104191809893" lon="9.126684973016381">
<ele>145.60000000000002</ele>
<time>2023-05-16T13:51:35Z</time>
</trkpt>
<trkpt lat="49.04102498665452" lon="9.126629987731576">
<ele>145.60000000000002</ele>
<time>2023-05-16T13:51:36Z</time>
</trkpt>
<trkpt lat="49.04100797139108" lon="9.12657793611288">
<ele>145.79999999999995</ele>
<time>2023-05-16T13:51:37Z</time>
</trkpt>
<trkpt lat="49.04098995029926" lon="9.126521944999695">
<ele>145.79999999999995</ele>
<time>2023-05-16T13:51:38Z</time>
</trkpt>
<trkpt lat="49.040972935035825" lon="9.12646796554327">
<ele>145.79999999999995</ele>
<time>2023-05-16T13:51:39Z</time>
</trkpt>
<trkpt lat="49.04095994308591" lon="9.126419937238097">
<ele>145.79999999999995</ele>
<time>2023-05-16T13:51:40Z</time>
</trkpt>
<trkpt lat="49.04094292782247" lon="9.126369981095195">
<ele>146</ele>
<time>2023-05-16T13:51:41Z</time>
</trkpt>
<trkpt lat="49.040927924215794" lon="9.12631994113326">
<ele>146</ele>
<time>2023-05-16T13:51:42Z</time>
</trkpt>
<trkpt lat="49.04091493226588" lon="9.126264955848455">
<ele>146</ele>
<time>2023-05-16T13:51:43Z</time>
</trkpt>
<trkpt lat="49.04090194031596" lon="9.126212988048792">
<ele>146.20000000000005</ele>
<time>2023-05-16T13:51:44Z</time>
</trkpt>
<trkpt lat="49.040887942537665" lon="9.126162948086858">
<ele>146.20000000000005</ele>
<time>2023-05-16T13:51:45Z</time>
</trkpt>
<trkpt lat="49.04087193310261" lon="9.126107962802052">
<ele>146.20000000000005</ele>
<time>2023-05-16T13:51:46Z</time>
</trkpt>
<trkpt lat="49.04085491783917" lon="9.126047948375344">
<ele>146.39999999999998</ele>
<time>2023-05-16T13:51:47Z</time>
</trkpt>
<trkpt lat="49.040839998051524" lon="9.125982988625765">
<ele>146.39999999999998</ele>
<time>2023-05-16T13:51:48Z</time>
</trkpt>
<trkpt lat="49.04082499444485" lon="9.125914927572012">
<ele>146.60000000000002</ele>
<time>2023-05-16T13:51:49Z</time>
</trkpt>
<trkpt lat="49.04081493616104" lon="9.125849967822433">
<ele>146.60000000000002</ele>
<time>2023-05-16T13:51:50Z</time>
</trkpt>
<trkpt lat="49.04081493616104" lon="9.12577997893095">
<ele>146.79999999999995</ele>
<time>2023-05-16T13:51:51Z</time>
</trkpt>
<trkpt lat="49.040821976959705" lon="9.125711917877197">
<ele>146.79999999999995</ele>
<time>2023-05-16T13:51:52Z</time>
</trkpt>
<trkpt lat="49.04082792811096" lon="9.125641928985715">
<ele>146.79999999999995</ele>
<time>2023-05-16T13:51:53Z</time>
</trkpt>
<trkpt lat="49.04083195142448" lon="9.125577975064516">
<ele>147</ele>
<time>2023-05-16T13:51:54Z</time>
</trkpt>
<trkpt lat="49.04083798639476" lon="9.125516954809427">
<ele>147</ele>
<time>2023-05-16T13:51:55Z</time>
</trkpt>
<trkpt lat="49.04084796085954" lon="9.125451995059848">
<ele>147</ele>
<time>2023-05-16T13:51:56Z</time>
</trkpt>
<trkpt lat="49.04085198417306" lon="9.125384939834476">
<ele>147.20000000000005</ele>
<time>2023-05-16T13:51:57Z</time>
</trkpt>
<trkpt lat="49.04085692949593" lon="9.125317968428135">
<ele>147.20000000000005</ele>
<time>2023-05-16T13:51:58Z</time>
</trkpt>
<trkpt lat="49.04086698777974" lon="9.125251919031143">
<ele>147.20000000000005</ele>
<time>2023-05-16T13:51:59Z</time>
</trkpt>
<trkpt lat="49.04087495058775" lon="9.12518193013966">
<ele>147.39999999999998</ele>
<time>2023-05-16T13:52:00Z</time>
</trkpt>
<trkpt lat="49.040882997214794" lon="9.125111941248178">
<ele>147.39999999999998</ele>
<time>2023-05-16T13:52:01Z</time>
</trkpt>
<trkpt lat="49.04089196585119" lon="9.125041952356696">
<ele>147.39999999999998</ele>
<time>2023-05-16T13:52:02Z</time>
</trkpt>
<trkpt lat="49.04090294614434" lon="9.124971963465214">
<ele>147.39999999999998</ele>
<time>2023-05-16T13:52:03Z</time>
</trkpt>
<trkpt lat="49.04091694392264" lon="9.124901974573731">
<ele>147.60000000000002</ele>
<time>2023-05-16T13:52:04Z</time>
</trkpt>
<trkpt lat="49.040929935872555" lon="9.12483299151063">
<ele>147.60000000000002</ele>
<time>2023-05-16T13:52:05Z</time>
</trkpt>
<trkpt lat="49.04094695113599" lon="9.124766942113638">
<ele>147.60000000000002</ele>
<time>2023-05-16T13:52:06Z</time>
</trkpt>
<trkpt lat="49.04096497222781" lon="9.124702988192439">
<ele>147.79999999999995</ele>
<time>2023-05-16T13:52:07Z</time>
</trkpt>
<trkpt lat="49.04098299331963" lon="9.12464297376573">
<ele>147.79999999999995</ele>
<time>2023-05-16T13:52:08Z</time>
</trkpt>
<trkpt lat="49.04100495390594" lon="9.124581953510642">
<ele>147.79999999999995</ele>
<time>2023-05-16T13:52:09Z</time>
</trkpt>
<trkpt lat="49.04102699831128" lon="9.124519927427173">
<ele>147.79999999999995</ele>
<time>2023-05-16T13:52:10Z</time>
</trkpt>
<trkpt lat="49.04104191809893" lon="9.124452956020832">
<ele>147.79999999999995</ele>
<time>2023-05-16T13:52:11Z</time>
</trkpt>
<trkpt lat="49.04104493558407" lon="9.12438296712935">
<ele>148</ele>
<time>2023-05-16T13:52:12Z</time>
</trkpt>
<trkpt lat="49.04102993197739" lon="9.124316917732358">
<ele>148</ele>
<time>2023-05-16T13:52:13Z</time>
</trkpt>
<trkpt lat="49.0410069655627" lon="9.12425497546792">
<ele>148</ele>
<time>2023-05-16T13:52:14Z</time>
</trkpt>
<trkpt lat="49.04098693281412" lon="9.124194961041212">
<ele>148</ele>
<time>2023-05-16T13:52:15Z</time>
</trkpt>
<trkpt lat="49.04096698388457" lon="9.124132934957743">
<ele>148.20000000000005</ele>
<time>2023-05-16T13:52:16Z</time>
</trkpt>
<trkpt lat="49.040947956964374" lon="9.124077949672937">
<ele>148.20000000000005</ele>
<time>2023-05-16T13:52:17Z</time>
</trkpt>
<trkpt lat="49.0409329533577" lon="9.12401994690299">
<ele>148.20000000000005</ele>
<time>2023-05-16T13:52:18Z</time>
</trkpt>
<trkpt lat="49.04091694392264" lon="9.123959932476282">
<ele>148.20000000000005</ele>
<time>2023-05-16T13:52:19Z</time>
</trkpt>
<trkpt lat="49.04090294614434" lon="9.123901929706335">
<ele>148.20000000000005</ele>
<time>2023-05-16T13:52:20Z</time>
</trkpt>
<trkpt lat="49.040887942537665" lon="9.123842921108007">
<ele>148.39999999999998</ele>
<time>2023-05-16T13:52:21Z</time>
</trkpt>
<trkpt lat="49.04087193310261" lon="9.123782990500331">
<ele>148.39999999999998</ele>
<time>2023-05-16T13:52:22Z</time>
</trkpt>
<trkpt lat="49.04085692949593" lon="9.12371794693172">
<ele>148.39999999999998</ele>
<time>2023-05-16T13:52:23Z</time>
</trkpt>
<trkpt lat="49.040841925889254" lon="9.12365298718214">
<ele>148.39999999999998</ele>
<time>2023-05-16T13:52:24Z</time>
</trkpt>
<trkpt lat="49.04082792811096" lon="9.123586937785149">
<ele>148.60000000000002</ele>
<time>2023-05-16T13:52:25Z</time>
</trkpt>
<trkpt lat="49.04080999083817" lon="9.12352298386395">
<ele>148.60000000000002</ele>
<time>2023-05-16T13:52:26Z</time>
</trkpt>
<trkpt lat="49.04079196974635" lon="9.1234599519521">
<ele>148.79999999999995</ele>
<time>2023-05-16T13:52:27Z</time>
</trkpt>
<trkpt lat="49.04077495448291" lon="9.123402955010533">
<ele>148.79999999999995</ele>
<time>2023-05-16T13:52:28Z</time>
</trkpt>
<trkpt lat="49.040757939219475" lon="9.123347969725728">
<ele>148.79999999999995</ele>
<time>2023-05-16T13:52:29Z</time>
</trkpt>
<trkpt lat="49.04074192978442" lon="9.123294996097684">
<ele>148.79999999999995</ele>
<time>2023-05-16T13:52:30Z</time>
</trkpt>
<trkpt lat="49.04072692617774" lon="9.12324495613575">
<ele>149</ele>
<time>2023-05-16T13:52:31Z</time>
</trkpt>
<trkpt lat="49.04071192257106" lon="9.123194999992847">
<ele>149</ele>
<time>2023-05-16T13:52:32Z</time>
</trkpt>
<trkpt lat="49.040696918964386" lon="9.123142948374152">
<ele>149.20000000000005</ele>
<time>2023-05-16T13:52:33Z</time>
</trkpt>
<trkpt lat="49.04067998751998" lon="9.123089974746108">
<ele>149.20000000000005</ele>
<time>2023-05-16T13:52:34Z</time>
</trkpt>
<trkpt lat="49.04066297225654" lon="9.123034989461303">
<ele>149.20000000000005</ele>
<time>2023-05-16T13:52:35Z</time>
</trkpt>
<trkpt lat="49.040646962821484" lon="9.122977992519736">
<ele>149.39999999999998</ele>
<time>2023-05-16T13:52:36Z</time>
</trkpt>
<trkpt lat="49.040627935901284" lon="9.1229229234159">
<ele>149.39999999999998</ele>
<time>2023-05-16T13:52:37Z</time>
</trkpt>
<trkpt lat="49.0406099986285" lon="9.122866932302713">
<ele>149.60000000000002</ele>
<time>2023-05-16T13:52:38Z</time>
</trkpt>
<trkpt lat="49.04059298336506" lon="9.122809935361147">
<ele>149.60000000000002</ele>
<time>2023-05-16T13:52:39Z</time>
</trkpt>
<trkpt lat="49.04057697393" lon="9.122749920934439">
<ele>149.60000000000002</ele>
<time>2023-05-16T13:52:40Z</time>
</trkpt>
<trkpt lat="49.040561970323324" lon="9.122689990326762">
<ele>149.79999999999995</ele>
<time>2023-05-16T13:52:41Z</time>
</trkpt>
<trkpt lat="49.04054696671665" lon="9.122627964243293">
<ele>149.79999999999995</ele>
<time>2023-05-16T13:52:42Z</time>
</trkpt>
<trkpt lat="49.04053196310997" lon="9.122567949816585">
<ele>150</ele>
<time>2023-05-16T13:52:43Z</time>
</trkpt>
<trkpt lat="49.040519976988435" lon="9.122511958703399">
<ele>150</ele>
<time>2023-05-16T13:52:44Z</time>
</trkpt>
<trkpt lat="49.0405079908669" lon="9.122462924569845">
<ele>150</ele>
<time>2023-05-16T13:52:45Z</time>
</trkpt>
<trkpt lat="49.04049298726022" lon="9.122421937063336">
<ele>150.20000000000005</ele>
<time>2023-05-16T13:52:46Z</time>
</trkpt>
<trkpt lat="49.040476977825165" lon="9.122381955385208">
<ele>150.20000000000005</ele>
<time>2023-05-16T13:52:47Z</time>
</trkpt>
<trkpt lat="49.04046298004687" lon="9.12234197370708">
<ele>150.20000000000005</ele>
<time>2023-05-16T13:52:48Z</time>
</trkpt>
<trkpt lat="49.040451999753714" lon="9.122302997857332">
<ele>150.20000000000005</ele>
<time>2023-05-16T13:52:49Z</time>
</trkpt>
<trkpt lat="49.04044194146991" lon="9.122259998694062">
<ele>150.39999999999998</ele>
<time>2023-05-16T13:52:50Z</time>
</trkpt>
<trkpt lat="49.04042995534837" lon="9.12221297621727">
<ele>150.39999999999998</ele>
<time>2023-05-16T13:52:51Z</time>
</trkpt>
<trkpt lat="49.04041796922684" lon="9.122164947912097">
<ele>150.39999999999998</ele>
<time>2023-05-16T13:52:52Z</time>
</trkpt>
<trkpt lat="49.04040497727692" lon="9.122114991769195">
<ele>150.39999999999998</ele>
<time>2023-05-16T13:52:53Z</time>
</trkpt>
<trkpt lat="49.040392991155386" lon="9.122057994827628">
<ele>150.39999999999998</ele>
<time>2023-05-16T13:52:54Z</time>
</trkpt>
<trkpt lat="49.04037999920547" lon="9.12200191989541">
<ele>150.60000000000002</ele>
<time>2023-05-16T13:52:55Z</time>
</trkpt>
<trkpt lat="49.04036499559879" lon="9.121942995116115">
<ele>150.60000000000002</ele>
<time>2023-05-16T13:52:56Z</time>
</trkpt>
<trkpt lat="49.040349991992116" lon="9.121882980689406">
<ele>150.60000000000002</ele>
<time>2023-05-16T13:52:57Z</time>
</trkpt>
<trkpt lat="49.04033498838544" lon="9.121822966262698">
<ele>150.60000000000002</ele>
<time>2023-05-16T13:52:58Z</time>
</trkpt>
<trkpt lat="49.04031696729362" lon="9.121766975149512">
<ele>150.60000000000002</ele>
<time>2023-05-16T13:52:59Z</time>
</trkpt>
<trkpt lat="49.04029794037342" lon="9.121711989864707">
<ele>150.60000000000002</ele>
<time>2023-05-16T13:53:00Z</time>
</trkpt>
<trkpt lat="49.040282936766744" lon="9.12165692076087">
<ele>150.79999999999995</ele>
<time>2023-05-16T13:53:01Z</time>
</trkpt>
<trkpt lat="49.04026793316007" lon="9.121602941304445">
<ele>150.79999999999995</ele>
<time>2023-05-16T13:53:02Z</time>
</trkpt>
<trkpt lat="49.04025494121015" lon="9.121554996818304">
<ele>150.79999999999995</ele>
<time>2023-05-16T13:53:03Z</time>
</trkpt>
<trkpt lat="49.040242955088615" lon="9.12150495685637">
<ele>150.79999999999995</ele>
<time>2023-05-16T13:53:04Z</time>
</trkpt>
<trkpt lat="49.0402299631387" lon="9.121459946036339">
<ele>150.79999999999995</ele>
<time>2023-05-16T13:53:05Z</time>
</trkpt>
<trkpt lat="49.04021294787526" lon="9.121421976014972">
<ele>150.79999999999995</ele>
<time>2023-05-16T13:53:06Z</time>
</trkpt>
<trkpt lat="49.04018796980381" lon="9.121389957144856">
<ele>150.79999999999995</ele>
<time>2023-05-16T13:53:07Z</time>
</trkpt>
<trkpt lat="49.040156956762075" lon="9.121364979073405">
<ele>150.79999999999995</ele>
<time>2023-05-16T13:53:08Z</time>
</trkpt>
<trkpt lat="49.04011999256909" lon="9.12135198712349">
<ele>150.79999999999995</ele>
<time>2023-05-16T13:53:09Z</time>
</trkpt>
<trkpt lat="49.0400779992342" lon="9.12135198712349">
<ele>150.79999999999995</ele>
<time>2023-05-16T13:53:10Z</time>
</trkpt>
<trkpt lat="49.04003298841417" lon="9.12135693244636">
<ele>150.79999999999995</ele>
<time>2023-05-16T13:53:11Z</time>
</trkpt>
<trkpt lat="49.039984960108995" lon="9.121367996558547">
<ele>150.79999999999995</ele>
<time>2023-05-16T13:53:12Z</time>
</trkpt>
<trkpt lat="49.0399379376322" lon="9.12137696519494">
<ele>150.79999999999995</ele>
<time>2023-05-16T13:53:13Z</time>
</trkpt>
<trkpt lat="49.03989192098379" lon="9.121382916346192">
<ele>150.79999999999995</ele>
<time>2023-05-16T13:53:14Z</time>
</trkpt>
<trkpt lat="49.03984699398279" lon="9.121391968801618">
<ele>150.60000000000002</ele>
<time>2023-05-16T13:53:15Z</time>
</trkpt>
<trkpt lat="49.03980198316276" lon="9.121402949094772">
<ele>150.60000000000002</ele>
<time>2023-05-16T13:53:16Z</time>
</trkpt>
<trkpt lat="49.03975194320083" lon="9.12141996435821">
<ele>150.60000000000002</ele>
<time>2023-05-16T13:53:17Z</time>
</trkpt>
<trkpt lat="49.039704920724034" lon="9.12143798545003">
<ele>150.39999999999998</ele>
<time>2023-05-16T13:53:18Z</time>
</trkpt>
<trkpt lat="49.039657982066274" lon="9.121449971571565">
<ele>150.39999999999998</ele>
<time>2023-05-16T13:53:19Z</time>
</trkpt>
<trkpt lat="49.039614982903004" lon="9.121451983228326">
<ele>150.39999999999998</ele>
<time>2023-05-16T13:53:20Z</time>
</trkpt>
<trkpt lat="49.039577934890985" lon="9.121429938822985">
<ele>150.39999999999998</ele>
<time>2023-05-16T13:53:21Z</time>
</trkpt>
<trkpt lat="49.039552956819534" lon="9.121382916346192">
<ele>150.39999999999998</ele>
<time>2023-05-16T13:53:22Z</time>
</trkpt>
<trkpt lat="49.03954499401152" lon="9.121326925233006">
<ele>150.39999999999998</ele>
<time>2023-05-16T13:53:23Z</time>
</trkpt>
<trkpt lat="49.03954692184925" lon="9.12126699462533">
<ele>150.39999999999998</ele>
<time>2023-05-16T13:53:24Z</time>
</trkpt>
<trkpt lat="49.03955798596144" lon="9.121207986027002">
<ele>150.39999999999998</ele>
<time>2023-05-16T13:53:25Z</time>
</trkpt>
<trkpt lat="49.039574917405844" lon="9.121157946065068">
<ele>150.39999999999998</ele>
<time>2023-05-16T13:53:26Z</time>
</trkpt>
<trkpt lat="49.03959293849766" lon="9.121106984093785">
<ele>150.39999999999998</ele>
<time>2023-05-16T13:53:27Z</time>
</trkpt>
<trkpt lat="49.0396099537611" lon="9.121049987152219">
<ele>150.60000000000002</ele>
<time>2023-05-16T13:53:28Z</time>
</trkpt>
<trkpt lat="49.03962696902454" lon="9.120994918048382">
<ele>150.60000000000002</ele>
<time>2023-05-16T13:53:29Z</time>
</trkpt>
<trkpt lat="49.03964691795409" lon="9.120939932763577">
<ele>150.60000000000002</ele>
<time>2023-05-16T13:53:30Z</time>
</trkpt>
<trkpt lat="49.03966795653105" lon="9.120884947478771">
<ele>150.60000000000002</ele>
<time>2023-05-16T13:53:31Z</time>
</trkpt>
<trkpt lat="49.03968698345125" lon="9.120831973850727">
<ele>150.79999999999995</ele>
<time>2023-05-16T13:53:32Z</time>
</trkpt>
<trkpt lat="49.039707938209176" lon="9.120777994394302">
<ele>150.79999999999995</ele>
<time>2023-05-16T13:53:33Z</time>
</trkpt>
<trkpt lat="49.03973693959415" lon="9.120724936947227">
<ele>150.79999999999995</ele>
<time>2023-05-16T13:53:34Z</time>
</trkpt>
<trkpt lat="49.03975998982787" lon="9.120671963319182">
<ele>151</ele>
<time>2023-05-16T13:53:35Z</time>
</trkpt>
<trkpt lat="49.03978195041418" lon="9.120617983862758">
<ele>151</ele>
<time>2023-05-16T13:53:36Z</time>
</trkpt>
<trkpt lat="49.03980491682887" lon="9.120564926415682">
<ele>151</ele>
<time>2023-05-16T13:53:37Z</time>
</trkpt>
<trkpt lat="49.03982293792069" lon="9.12051497027278">
<ele>151.20000000000005</ele>
<time>2023-05-16T13:53:38Z</time>
</trkpt>
<trkpt lat="49.03983995318413" lon="9.120464930310845">
<ele>151.20000000000005</ele>
<time>2023-05-16T13:53:39Z</time>
</trkpt>
<trkpt lat="49.039856968447566" lon="9.120411956682801">
<ele>151.39999999999998</ele>
<time>2023-05-16T13:53:40Z</time>
</trkpt>
<trkpt lat="49.039872977882624" lon="9.120357977226377">
<ele>151.39999999999998</ele>
<time>2023-05-16T13:53:41Z</time>
</trkpt>
<trkpt lat="49.03989292681217" lon="9.120309948921204">
<ele>151.39999999999998</ele>
<time>2023-05-16T13:53:42Z</time>
</trkpt>
<trkpt lat="49.03990793041885" lon="9.120269967243075">
<ele>151.60000000000002</ele>
<time>2023-05-16T13:53:43Z</time>
</trkpt>
<trkpt lat="49.039919916540384" lon="9.12023794837296">
<ele>151.60000000000002</ele>
<time>2023-05-16T13:53:44Z</time>
</trkpt>
<trkpt lat="49.03992796316743" lon="9.120211964473128">
<ele>151.60000000000002</ele>
<time>2023-05-16T13:53:45Z</time>
</trkpt>
<trkpt lat="49.03993299230933" lon="9.120189920067787">
<ele>151.79999999999995</ele>
<time>2023-05-16T13:53:46Z</time>
</trkpt>
<trkpt lat="49.03993492014706" lon="9.12017298862338">
<ele>151.79999999999995</ele>
<time>2023-05-16T13:53:47Z</time>
</trkpt>
<trkpt lat="49.03993693180382" lon="9.120156979188323">
<ele>151.79999999999995</ele>
<time>2023-05-16T13:53:48Z</time>
</trkpt>
<trkpt lat="49.0399379376322" lon="9.120146920904517">
<ele>152</ele>
<time>2023-05-16T13:53:49Z</time>
</trkpt>
<trkpt lat="49.039939949288964" lon="9.12012998946011">
<ele>152</ele>
<time>2023-05-16T13:53:50Z</time>
</trkpt>
<trkpt lat="49.0399379376322" lon="9.120114985853434">
<ele>152</ele>
<time>2023-05-16T13:53:51Z</time>
</trkpt>
<trkpt lat="49.03993299230933" lon="9.120087996125221">
<ele>152.20000000000005</ele>
<time>2023-05-16T13:53:52Z</time>
</trkpt>
<trkpt lat="49.03992997482419" lon="9.1200649458915">
<ele>152.20000000000005</ele>
<time>2023-05-16T13:53:53Z</time>
</trkpt>
<trkpt lat="49.03992494568229" lon="9.120037956163287">
<ele>152.20000000000005</ele>
<time>2023-05-16T13:53:54Z</time>
</trkpt>
<trkpt lat="49.039919916540384" lon="9.120007948949933">
<ele>152.20000000000005</ele>
<time>2023-05-16T13:53:55Z</time>
</trkpt>
<trkpt lat="49.03991295956075" lon="9.11997995339334">
<ele>152.39999999999998</ele>
<time>2023-05-16T13:53:56Z</time>
</trkpt>
<trkpt lat="49.03990499675274" lon="9.119951957836747">
<ele>152.39999999999998</ele>
<time>2023-05-16T13:53:57Z</time>
</trkpt>
<trkpt lat="49.0399019792676" lon="9.119926979765296">
<ele>152.39999999999998</ele>
<time>2023-05-16T13:53:58Z</time>
</trkpt>
<trkpt lat="49.0399019792676" lon="9.119901917874813">
<ele>152.39999999999998</ele>
<time>2023-05-16T13:53:59Z</time>
</trkpt>
<trkpt lat="49.03990692459047" lon="9.119876939803362">
<ele>152.39999999999998</ele>
<time>2023-05-16T13:54:00Z</time>
</trkpt>
<trkpt lat="49.03990994207561" lon="9.11985196173191">
<ele>152.39999999999998</ele>
<time>2023-05-16T13:54:01Z</time>
</trkpt>
<trkpt lat="49.039916982874274" lon="9.119821954518557">
<ele>152.39999999999998</ele>
<time>2023-05-16T13:54:02Z</time>
</trkpt>
<trkpt lat="49.039919916540384" lon="9.11978792399168">
<ele>152.39999999999998</ele>
<time>2023-05-16T13:54:03Z</time>
</trkpt>
<trkpt lat="49.039921928197145" lon="9.119752971455455">
<ele>152.39999999999998</ele>
<time>2023-05-16T13:54:04Z</time>
</trkpt>
<trkpt lat="49.03992695733905" lon="9.119706954807043">
<ele>152.39999999999998</ele>
<time>2023-05-16T13:54:05Z</time>
</trkpt>
<trkpt lat="49.03992997482419" lon="9.119661943987012">
<ele>152.39999999999998</ele>
<time>2023-05-16T13:54:06Z</time>
</trkpt>
<trkpt lat="49.03993492014706" lon="9.119617938995361">
<ele>152.39999999999998</ele>
<time>2023-05-16T13:54:07Z</time>
</trkpt>
<trkpt lat="49.03994699008763" lon="9.119577957317233">
<ele>152.39999999999998</ele>
<time>2023-05-16T13:54:08Z</time>
</trkpt>
<trkpt lat="49.039959982037544" lon="9.119541998952627">
<ele>152.39999999999998</ele>
<time>2023-05-16T13:54:09Z</time>
</trkpt>
<trkpt lat="49.03996794484556" lon="9.119496988132596">
<ele>152.39999999999998</ele>
<time>2023-05-16T13:54:10Z</time>
</trkpt>
<trkpt lat="49.03997498564422" lon="9.11944292485714">
<ele>152.39999999999998</ele>
<time>2023-05-16T13:54:11Z</time>
</trkpt>
<trkpt lat="49.03998697176576" lon="9.119387939572334">
<ele>152.39999999999998</ele>
<time>2023-05-16T13:54:12Z</time>
</trkpt>
<trkpt lat="49.03999191708863" lon="9.11933496594429">
<ele>152.39999999999998</ele>
<time>2023-05-16T13:54:13Z</time>
</trkpt>
<trkpt lat="49.03999694623053" lon="9.119284925982356">
<ele>152.39999999999998</ele>
<time>2023-05-16T13:54:14Z</time>
</trkpt>
<trkpt lat="49.040006920695305" lon="9.119234969839454">
<ele>152.39999999999998</ele>
<time>2023-05-16T13:54:15Z</time>
</trkpt>
<trkpt lat="49.04001999646425" lon="9.11918199621141">
<ele>152.60000000000002</ele>
<time>2023-05-16T13:54:16Z</time>
</trkpt>
<trkpt lat="49.040026953443885" lon="9.119124999269843">
<ele>152.60000000000002</ele>
<time>2023-05-16T13:54:17Z</time>
</trkpt>
<trkpt lat="49.040026953443885" lon="9.119067918509245">
<ele>152.79999999999995</ele>
<time>2023-05-16T13:54:18Z</time>
</trkpt>
<trkpt lat="49.040027959272265" lon="9.119011927396059">
<ele>153</ele>
<time>2023-05-16T13:54:19Z</time>
</trkpt>
<trkpt lat="49.040026953443885" lon="9.118951996788383">
<ele>153.20000000000005</ele>
<time>2023-05-16T13:54:20Z</time>
</trkpt>
<trkpt lat="49.040027959272265" lon="9.118894999846816">
<ele>153.39999999999998</ele>
<time>2023-05-16T13:54:21Z</time>
</trkpt>
<trkpt lat="49.04002997092903" lon="9.118839930742979">
<ele>153.60000000000002</ele>
<time>2023-05-16T13:54:22Z</time>
</trkpt>
<trkpt lat="49.04002997092903" lon="9.118784945458174">
<ele>153.79999999999995</ele>
<time>2023-05-16T13:54:23Z</time>
</trkpt>
<trkpt lat="49.04002997092903" lon="9.11873197183013">
<ele>154.20000000000005</ele>
<time>2023-05-16T13:54:24Z</time>
</trkpt>
<trkpt lat="49.04002997092903" lon="9.118686961010098">
<ele>154.39999999999998</ele>
<time>2023-05-16T13:54:25Z</time>
</trkpt>
<trkpt lat="49.040027959272265" lon="9.118641950190067">
<ele>154.60000000000002</ele>
<time>2023-05-16T13:54:26Z</time>
</trkpt>
<trkpt lat="49.040027959272265" lon="9.118597945198417">
<ele>154.79999999999995</ele>
<time>2023-05-16T13:54:27Z</time>
</trkpt>
<trkpt lat="49.040027959272265" lon="9.118549916893244">
<ele>155</ele>
<time>2023-05-16T13:54:28Z</time>
</trkpt>
<trkpt lat="49.040024941787124" lon="9.118501972407103">
<ele>155.20000000000005</ele>
<time>2023-05-16T13:54:29Z</time>
</trkpt>
<trkpt lat="49.040024941787124" lon="9.118452938273549">
<ele>155.39999999999998</ele>
<time>2023-05-16T13:54:30Z</time>
</trkpt>
<trkpt lat="49.04002293013036" lon="9.118399964645505">
<ele>155.60000000000002</ele>
<time>2023-05-16T13:54:31Z</time>
</trkpt>
<trkpt lat="49.04002293013036" lon="9.1183449793607">
<ele>155.60000000000002</ele>
<time>2023-05-16T13:54:32Z</time>
</trkpt>
<trkpt lat="49.04002293013036" lon="9.118289994075894">
<ele>155.79999999999995</ele>
<time>2023-05-16T13:54:33Z</time>
</trkpt>
<trkpt lat="49.04002293013036" lon="9.118236936628819">
<ele>156</ele>
<time>2023-05-16T13:54:34Z</time>
</trkpt>
<trkpt lat="49.04002192430198" lon="9.118182957172394">
<ele>156.20000000000005</ele>
<time>2023-05-16T13:54:35Z</time>
</trkpt>
<trkpt lat="49.04001999646425" lon="9.118137946352363">
<ele>156.20000000000005</ele>
<time>2023-05-16T13:54:36Z</time>
</trkpt>
<trkpt lat="49.04001697897911" lon="9.11809192970395">
<ele>156.39999999999998</ele>
<time>2023-05-16T13:54:37Z</time>
</trkpt>
<trkpt lat="49.04001697897911" lon="9.118041973561049">
<ele>156.60000000000002</ele>
<time>2023-05-16T13:54:38Z</time>
</trkpt>
<trkpt lat="49.04001295566559" lon="9.117984976619482">
<ele>156.79999999999995</ele>
<time>2023-05-16T13:54:39Z</time>
</trkpt>
<trkpt lat="49.04001295566559" lon="9.117929991334677">
<ele>156.79999999999995</ele>
<time>2023-05-16T13:54:40Z</time>
</trkpt>
<trkpt lat="49.04001194983721" lon="9.11787492223084">
<ele>157</ele>
<time>2023-05-16T13:54:41Z</time>
</trkpt>
<trkpt lat="49.04000993818045" lon="9.117827983573079">
<ele>157.20000000000005</ele>
<time>2023-05-16T13:54:42Z</time>
</trkpt>
<trkpt lat="49.040004992857575" lon="9.117772998288274">
<ele>157.39999999999998</ele>
<time>2023-05-16T13:54:43Z</time>
</trkpt>
<trkpt lat="49.040004992857575" lon="9.11772295832634">
<ele>157.60000000000002</ele>
<time>2023-05-16T13:54:44Z</time>
</trkpt>
<trkpt lat="49.040004992857575" lon="9.117671996355057">
<ele>157.60000000000002</ele>
<time>2023-05-16T13:54:45Z</time>
</trkpt>
<trkpt lat="49.040001975372434" lon="9.1176179330796">
<ele>157.79999999999995</ele>
<time>2023-05-16T13:54:46Z</time>
</trkpt>
<trkpt lat="49.040004992857575" lon="9.117562947794795">
<ele>157.79999999999995</ele>
<time>2023-05-16T13:54:47Z</time>
</trkpt>
<trkpt lat="49.040002981200814" lon="9.117502933368087">
<ele>158</ele>
<time>2023-05-16T13:54:48Z</time>
</trkpt>
<trkpt lat="49.03999493457377" lon="9.117442918941379">
<ele>158.20000000000005</ele>
<time>2023-05-16T13:54:49Z</time>
</trkpt>
<trkpt lat="49.03998797759414" lon="9.1173779591918">
<ele>158.20000000000005</ele>
<time>2023-05-16T13:54:50Z</time>
</trkpt>
<trkpt lat="49.03997498564422" lon="9.11731693893671">
<ele>158.39999999999998</ele>
<time>2023-05-16T13:54:51Z</time>
</trkpt>
<trkpt lat="49.039964927360415" lon="9.117254996672273">
<ele>158.39999999999998</ele>
<time>2023-05-16T13:54:52Z</time>
</trkpt>
<trkpt lat="49.039964927360415" lon="9.117192970588803">
<ele>158.60000000000002</ele>
<time>2023-05-16T13:54:53Z</time>
</trkpt>
<trkpt lat="49.03996794484556" lon="9.117131950333714">
<ele>158.60000000000002</ele>
<time>2023-05-16T13:54:54Z</time>
</trkpt>
<trkpt lat="49.039962999522686" lon="9.117071935907006">
<ele>158.60000000000002</ele>
<time>2023-05-16T13:54:55Z</time>
</trkpt>
<trkpt lat="49.039961993694305" lon="9.117006976157427">
<ele>158.79999999999995</ele>
<time>2023-05-16T13:54:56Z</time>
</trkpt>
<trkpt lat="49.0399569645524" lon="9.116939920932055">
<ele>158.79999999999995</ele>
<time>2023-05-16T13:54:57Z</time>
</trkpt>
<trkpt lat="49.0399519354105" lon="9.116874961182475">
<ele>158.79999999999995</ele>
<time>2023-05-16T13:54:58Z</time>
</trkpt>
<trkpt lat="49.03994799591601" lon="9.116807989776134">
<ele>159</ele>
<time>2023-05-16T13:54:59Z</time>
</trkpt>
<trkpt lat="49.039942966774106" lon="9.116739928722382">
<ele>159</ele>
<time>2023-05-16T13:55:00Z</time>
</trkpt>
<trkpt lat="49.039942966774106" lon="9.116672957316041">
<ele>159</ele>
<time>2023-05-16T13:55:01Z</time>
</trkpt>
<trkpt lat="49.039942966774106" lon="9.116611937060952">
<ele>159.20000000000005</ele>
<time>2023-05-16T13:55:02Z</time>
</trkpt>
<trkpt lat="49.039942966774106" lon="9.116551922634244">
<ele>159.20000000000005</ele>
<time>2023-05-16T13:55:03Z</time>
</trkpt>
<trkpt lat="49.039941960945725" lon="9.116487968713045">
<ele>159.39999999999998</ele>
<time>2023-05-16T13:55:04Z</time>
</trkpt>
<trkpt lat="49.03993693180382" lon="9.116417979821563">
<ele>159.39999999999998</ele>
<time>2023-05-16T13:55:05Z</time>
</trkpt>
<trkpt lat="49.03993693180382" lon="9.11634991876781">
<ele>159.60000000000002</ele>
<time>2023-05-16T13:55:06Z</time>
</trkpt>
<trkpt lat="49.03993492014706" lon="9.11628495901823">
<ele>159.60000000000002</ele>
<time>2023-05-16T13:55:07Z</time>
</trkpt>
<trkpt lat="49.039941960945725" lon="9.11622192710638">
<ele>159.79999999999995</ele>
<time>2023-05-16T13:55:08Z</time>
</trkpt>
<trkpt lat="49.03994699008763" lon="9.116159984841943">
<ele>160</ele>
<time>2023-05-16T13:55:09Z</time>
</trkpt>
<trkpt lat="49.0399519354105" lon="9.116096952930093">
<ele>160</ele>
<time>2023-05-16T13:55:10Z</time>
</trkpt>
<trkpt lat="49.0399519354105" lon="9.11602696403861">
<ele>160.20000000000005</ele>
<time>2023-05-16T13:55:11Z</time>
</trkpt>
<trkpt lat="49.0399569645524" lon="9.11596292629838">
<ele>160.20000000000005</ele>
<time>2023-05-16T13:55:12Z</time>
</trkpt>
<trkpt lat="49.039961993694305" lon="9.1158979665488">
<ele>160.39999999999998</ele>
<time>2023-05-16T13:55:13Z</time>
</trkpt>
<trkpt lat="49.03997196815908" lon="9.115836946293712">
<ele>160.39999999999998</ele>
<time>2023-05-16T13:55:14Z</time>
</trkpt>
<trkpt lat="49.03997699730098" lon="9.115774920210242">
<ele>160.60000000000002</ele>
<time>2023-05-16T13:55:15Z</time>
</trkpt>
<trkpt lat="49.039981942623854" lon="9.115711972117424">
<ele>160.60000000000002</ele>
<time>2023-05-16T13:55:16Z</time>
</trkpt>
<trkpt lat="49.039981942623854" lon="9.115651957690716">
<ele>160.79999999999995</ele>
<time>2023-05-16T13:55:17Z</time>
</trkpt>
<trkpt lat="49.03997993096709" lon="9.115591943264008">
<ele>161</ele>
<time>2023-05-16T13:55:18Z</time>
</trkpt>
<trkpt lat="49.03997297398746" lon="9.115536957979202">
<ele>161</ele>
<time>2023-05-16T13:55:19Z</time>
</trkpt>
<trkpt lat="49.0399569645524" lon="9.11548993550241">
<ele>161.20000000000005</ele>
<time>2023-05-16T13:55:20Z</time>
</trkpt>
<trkpt lat="49.03992997482419" lon="9.11544794216752">
<ele>161.20000000000005</ele>
<time>2023-05-16T13:55:21Z</time>
</trkpt>
<trkpt lat="49.03990499675274" lon="9.115417934954166">
<ele>161.20000000000005</ele>
<time>2023-05-16T13:55:22Z</time>
</trkpt>
<trkpt lat="49.039879934862256" lon="9.11540494300425">
<ele>161.20000000000005</ele>
<time>2023-05-16T13:55:23Z</time>
</trkpt>
<trkpt lat="49.03986199758947" lon="9.11538197658956">
<ele>161.20000000000005</ele>
<time>2023-05-16T13:55:24Z</time>
</trkpt>
<trkpt lat="49.03984699398279" lon="9.115349957719445">
<ele>161.20000000000005</ele>
<time>2023-05-16T13:55:25Z</time>
</trkpt>
<trkpt lat="49.039832996204495" lon="9.115307964384556">
<ele>161.20000000000005</ele>
<time>2023-05-16T13:55:26Z</time>
</trkpt>
<trkpt lat="49.03982193209231" lon="9.115261947736144">
<ele>161.20000000000005</ele>
<time>2023-05-16T13:55:27Z</time>
</trkpt>
<trkpt lat="49.039812963455915" lon="9.115204950794578">
<ele>161.20000000000005</ele>
<time>2023-05-16T13:55:28Z</time>
</trkpt>
<trkpt lat="49.03980793431401" lon="9.115147953853011">
<ele>161.20000000000005</ele>
<time>2023-05-16T13:55:29Z</time>
</trkpt>
<trkpt lat="49.03980198316276" lon="9.115092968568206">
<ele>161.20000000000005</ele>
<time>2023-05-16T13:55:30Z</time>
</trkpt>
<trkpt lat="49.03978496789932" lon="9.115034965798259">
<ele>161.39999999999998</ele>
<time>2023-05-16T13:55:31Z</time>
</trkpt>
<trkpt lat="49.03977298177779" lon="9.114979980513453">
<ele>161.39999999999998</ele>
<time>2023-05-16T13:55:32Z</time>
</trkpt>
<trkpt lat="49.039766946807504" lon="9.114917954429984">
<ele>161.39999999999998</ele>
<time>2023-05-16T13:55:33Z</time>
</trkpt>
<trkpt lat="49.0397619176656" lon="9.114857940003276">
<ele>161.60000000000002</ele>
<time>2023-05-16T13:55:34Z</time>
</trkpt>
<trkpt lat="49.03975797817111" lon="9.114792980253696">
<ele>161.60000000000002</ele>
<time>2023-05-16T13:55:35Z</time>
</trkpt>
<trkpt lat="49.03975294902921" lon="9.114731959998608">
<ele>161.60000000000002</ele>
<time>2023-05-16T13:55:36Z</time>
</trkpt>
<trkpt lat="49.039747919887304" lon="9.114667922258377">
<ele>161.79999999999995</ele>
<time>2023-05-16T13:55:37Z</time>
</trkpt>
<trkpt lat="49.03974196873605" lon="9.114602962508798">
<ele>161.79999999999995</ele>
<time>2023-05-16T13:55:38Z</time>
</trkpt>
<trkpt lat="49.03973492793739" lon="9.114532973617315">
<ele>162</ele>
<time>2023-05-16T13:55:39Z</time>
</trkpt>
<trkpt lat="49.03972998261452" lon="9.114462984725833">
<ele>162</ele>
<time>2023-05-16T13:55:40Z</time>
</trkpt>
<trkpt lat="49.03971497900784" lon="9.114386960864067">
<ele>162.20000000000005</ele>
<time>2023-05-16T13:55:41Z</time>
</trkpt>
<trkpt lat="49.03971296735108" lon="9.114314960315824">
<ele>162.20000000000005</ele>
<time>2023-05-16T13:55:42Z</time>
</trkpt>
<trkpt lat="49.039707938209176" lon="9.114237930625677">
<ele>162.39999999999998</ele>
<time>2023-05-16T13:55:43Z</time>
</trkpt>
<trkpt lat="49.039701987057924" lon="9.11415696144104">
<ele>162.39999999999998</ele>
<time>2023-05-16T13:55:44Z</time>
</trkpt>
<trkpt lat="49.03969997540116" lon="9.114082949236035">
<ele>162.60000000000002</ele>
<time>2023-05-16T13:55:45Z</time>
</trkpt>
<trkpt lat="49.03969997540116" lon="9.11400793120265">
<ele>162.60000000000002</ele>
<time>2023-05-16T13:55:46Z</time>
</trkpt>
<trkpt lat="49.039706932380795" lon="9.113937942311168">
<ele>162.79999999999995</ele>
<time>2023-05-16T13:55:47Z</time>
</trkpt>
<trkpt lat="49.0397119615227" lon="9.113864935934544">
<ele>162.79999999999995</ele>
<time>2023-05-16T13:55:48Z</time>
</trkpt>
<trkpt lat="49.03971497900784" lon="9.113789917901158">
<ele>163</ele>
<time>2023-05-16T13:55:49Z</time>
</trkpt>
<trkpt lat="49.0397119615227" lon="9.113719929009676">
<ele>163</ele>
<time>2023-05-16T13:55:50Z</time>
</trkpt>
<trkpt lat="49.039707938209176" lon="9.113644994795322">
<ele>163.20000000000005</ele>
<time>2023-05-16T13:55:51Z</time>
</trkpt>
<trkpt lat="49.039704920724034" lon="9.113572994247079">
<ele>163.20000000000005</ele>
<time>2023-05-16T13:55:52Z</time>
</trkpt>
<trkpt lat="49.039704920724034" lon="9.113501999527216">
<ele>163.39999999999998</ele>
<time>2023-05-16T13:55:53Z</time>
</trkpt>
<trkpt lat="49.039707938209176" lon="9.113427987322211">
<ele>163.39999999999998</ele>
<time>2023-05-16T13:55:54Z</time>
</trkpt>
<trkpt lat="49.03971296735108" lon="9.113346934318542">
<ele>163.60000000000002</ele>
<time>2023-05-16T13:55:55Z</time>
</trkpt>
<trkpt lat="49.03971799649298" lon="9.11327694542706">
<ele>163.79999999999995</ele>
<time>2023-05-16T13:55:56Z</time>
</trkpt>
<trkpt lat="49.03971497900784" lon="9.113207962363958">
<ele>163.79999999999995</ele>
<time>2023-05-16T13:55:57Z</time>
</trkpt>
<trkpt lat="49.03970994986594" lon="9.113144930452108">
<ele>164</ele>
<time>2023-05-16T13:55:58Z</time>
</trkpt>
<trkpt lat="49.03971296735108" lon="9.113071924075484">
<ele>164</ele>
<time>2023-05-16T13:55:59Z</time>
</trkpt>
<trkpt lat="49.03971992433071" lon="9.11299698986113">
<ele>164.20000000000005</ele>
<time>2023-05-16T13:56:00Z</time>
</trkpt>
<trkpt lat="49.03971296735108" lon="9.112929934635758">
<ele>164.39999999999998</ele>
<time>2023-05-16T13:56:01Z</time>
</trkpt>
<trkpt lat="49.03970994986594" lon="9.112857934087515">
<ele>164.39999999999998</ele>
<time>2023-05-16T13:56:02Z</time>
</trkpt>
<trkpt lat="49.039707938209176" lon="9.112782999873161">
<ele>164.60000000000002</ele>
<time>2023-05-16T13:56:03Z</time>
</trkpt>
<trkpt lat="49.039706932380795" lon="9.112699935212731">
<ele>164.60000000000002</ele>
<time>2023-05-16T13:56:04Z</time>
</trkpt>
<trkpt lat="49.039704920724034" lon="9.112621983513236">
<ele>164.79999999999995</ele>
<time>2023-05-16T13:56:05Z</time>
</trkpt>
<trkpt lat="49.039704920724034" lon="9.112536991015077">
<ele>165</ele>
<time>2023-05-16T13:56:06Z</time>
</trkpt>
<trkpt lat="49.039706932380795" lon="9.112447975203395">
<ele>165</ele>
<time>2023-05-16T13:56:07Z</time>
</trkpt>
<trkpt lat="49.03970994986594" lon="9.112362982705235">
<ele>165.20000000000005</ele>
<time>2023-05-16T13:56:08Z</time>
</trkpt>
<trkpt lat="49.03970994986594" lon="9.112272961065173">
<ele>165.39999999999998</ele>
<time>2023-05-16T13:56:09Z</time>
</trkpt>
<trkpt lat="49.03971296735108" lon="9.112184951081872">
<ele>165.39999999999998</ele>
<time>2023-05-16T13:56:10Z</time>
</trkpt>
<trkpt lat="49.0397169906646" lon="9.112101970240474">
<ele>165.60000000000002</ele>
<time>2023-05-16T13:56:11Z</time>
</trkpt>
<trkpt lat="49.03971992433071" lon="9.112016977742314">
<ele>165.60000000000002</ele>
<time>2023-05-16T13:56:12Z</time>
</trkpt>
<trkpt lat="49.039724953472614" lon="9.111932991072536">
<ele>165.79999999999995</ele>
<time>2023-05-16T13:56:13Z</time>
</trkpt>
<trkpt lat="49.039727970957756" lon="9.111851938068867">
<ele>165.79999999999995</ele>
<time>2023-05-16T13:56:14Z</time>
</trkpt>
<trkpt lat="49.03973199427128" lon="9.111774992197752">
<ele>166</ele>
<time>2023-05-16T13:56:15Z</time>
</trkpt>
<trkpt lat="49.03973199427128" lon="9.111699974164367">
<ele>166.20000000000005</ele>
<time>2023-05-16T13:56:16Z</time>
</trkpt>
<trkpt lat="49.03972998261452" lon="9.111629985272884">
<ele>166.20000000000005</ele>
<time>2023-05-16T13:56:17Z</time>
</trkpt>
<trkpt lat="49.039727970957756" lon="9.111562930047512">
<ele>166.39999999999998</ele>
<time>2023-05-16T13:56:18Z</time>
</trkpt>
<trkpt lat="49.03972193598747" lon="9.111497970297933">
<ele>166.39999999999998</ele>
<time>2023-05-16T13:56:19Z</time>
</trkpt>
<trkpt lat="49.03971296735108" lon="9.111431920900941">
<ele>166.60000000000002</ele>
<time>2023-05-16T13:56:20Z</time>
</trkpt>
<trkpt lat="49.03970994986594" lon="9.1113649494946">
<ele>166.60000000000002</ele>
<time>2023-05-16T13:56:21Z</time>
</trkpt>
<trkpt lat="49.039704920724034" lon="9.11129998974502">
<ele>166.60000000000002</ele>
<time>2023-05-16T13:56:22Z</time>
</trkpt>
<trkpt lat="49.0396979637444" lon="9.11123494617641">
<ele>166.79999999999995</ele>
<time>2023-05-16T13:56:23Z</time>
</trkpt>
<trkpt lat="49.03969192877412" lon="9.111176943406463">
<ele>166.79999999999995</ele>
<time>2023-05-16T13:56:24Z</time>
</trkpt>
<trkpt lat="49.03968698345125" lon="9.11112698726356">
<ele>167</ele>
<time>2023-05-16T13:56:25Z</time>
</trkpt>
<trkpt lat="49.03967994265258" lon="9.111077953130007">
<ele>167</ele>
<time>2023-05-16T13:56:26Z</time>
</trkpt>
<trkpt lat="49.03967692516744" lon="9.111031936481595">
<ele>167</ele>
<time>2023-05-16T13:56:27Z</time>
</trkpt>
<trkpt lat="49.03967692516744" lon="9.110984997823834">
<ele>167.20000000000005</ele>
<time>2023-05-16T13:56:28Z</time>
</trkpt>
<trkpt lat="49.03967793099582" lon="9.110941998660564">
<ele>167.39999999999998</ele>
<time>2023-05-16T13:56:29Z</time>
</trkpt>
<trkpt lat="49.03967298567295" lon="9.110892964527011">
<ele>167.39999999999998</ele>
<time>2023-05-16T13:56:30Z</time>
</trkpt>
<trkpt lat="49.03966996818781" lon="9.110842924565077">
<ele>167.60000000000002</ele>
<time>2023-05-16T13:56:31Z</time>
</trkpt>
<trkpt lat="49.039661921560764" lon="9.110796991735697">
<ele>167.79999999999995</ele>
<time>2023-05-16T13:56:32Z</time>
</trkpt>
<trkpt lat="49.03965194709599" lon="9.110752986744046">
<ele>167.79999999999995</ele>
<time>2023-05-16T13:56:33Z</time>
</trkpt>
<trkpt lat="49.03964792378247" lon="9.110711999237537">
<ele>168</ele>
<time>2023-05-16T13:56:34Z</time>
</trkpt>
<trkpt lat="49.0396429784596" lon="9.110679980367422">
<ele>168.20000000000005</ele>
<time>2023-05-16T13:56:35Z</time>
</trkpt>
<trkpt lat="49.039641972631216" lon="9.110642932355404">
<ele>168.39999999999998</ele>
<time>2023-05-16T13:56:36Z</time>
</trkpt>
<trkpt lat="49.03964691795409" lon="9.11061191931367">
<ele>168.39999999999998</ele>
<time>2023-05-16T13:56:37Z</time>
</trkpt>
<trkpt lat="49.039661921560764" lon="9.110579984262586">
<ele>168.60000000000002</ele>
<time>2023-05-16T13:56:38Z</time>
</trkpt>
<trkpt lat="49.039684971794486" lon="9.110564980655909">
<ele>168.60000000000002</ele>
<time>2023-05-16T13:56:39Z</time>
</trkpt>
<trkpt lat="49.0397119615227" lon="9.11054796539247">
<ele>168.79999999999995</ele>
<time>2023-05-16T13:56:40Z</time>
</trkpt>
<trkpt lat="49.03973492793739" lon="9.110529944300652">
<ele>168.79999999999995</ele>
<time>2023-05-16T13:56:41Z</time>
</trkpt>
<trkpt lat="49.03975496068597" lon="9.110497925430536">
<ele>169</ele>
<time>2023-05-16T13:56:42Z</time>
</trkpt>
<trkpt lat="49.039767952635884" lon="9.110457943752408">
<ele>169</ele>
<time>2023-05-16T13:56:43Z</time>
</trkpt>
<trkpt lat="49.039769964292645" lon="9.110419973731041">
<ele>169.20000000000005</ele>
<time>2023-05-16T13:56:44Z</time>
</trkpt>
<trkpt lat="49.03976292349398" lon="9.11037496291101">
<ele>169.20000000000005</ele>
<time>2023-05-16T13:56:45Z</time>
</trkpt>
<trkpt lat="49.03975496068597" lon="9.110324922949076">
<ele>169.39999999999998</ele>
<time>2023-05-16T13:56:46Z</time>
</trkpt>
<trkpt lat="49.03974297456443" lon="9.110271949321032">
<ele>169.39999999999998</ele>
<time>2023-05-16T13:56:47Z</time>
</trkpt>
<trkpt lat="49.03973492793739" lon="9.110212940722704">
<ele>169.60000000000002</ele>
<time>2023-05-16T13:56:48Z</time>
</trkpt>
<trkpt lat="49.039726965129375" lon="9.110149992629886">
<ele>169.60000000000002</ele>
<time>2023-05-16T13:56:49Z</time>
</trkpt>
<trkpt lat="49.03971497900784" lon="9.110084949061275">
<ele>169.79999999999995</ele>
<time>2023-05-16T13:56:50Z</time>
</trkpt>
<trkpt lat="49.039704920724034" lon="9.110016971826553">
<ele>169.79999999999995</ele>
<time>2023-05-16T13:56:51Z</time>
</trkpt>
<trkpt lat="49.03968798927963" lon="9.109947988763452">
<ele>169.79999999999995</ele>
<time>2023-05-16T13:56:52Z</time>
</trkpt>
<trkpt lat="49.03967197984457" lon="9.10987799987197">
<ele>169.79999999999995</ele>
<time>2023-05-16T13:56:53Z</time>
</trkpt>
<trkpt lat="49.03965697623789" lon="9.109804993495345">
<ele>170</ele>
<time>2023-05-16T13:56:54Z</time>
</trkpt>
<trkpt lat="49.039641972631216" lon="9.109732992947102">
<ele>170</ele>
<time>2023-05-16T13:56:55Z</time>
</trkpt>
<trkpt lat="49.03962495736778" lon="9.109661998227239">
<ele>170</ele>
<time>2023-05-16T13:56:56Z</time>
</trkpt>
<trkpt lat="49.0396099537611" lon="9.109591925516725">
<ele>170</ele>
<time>2023-05-16T13:56:57Z</time>
</trkpt>
<trkpt lat="49.03959293849766" lon="9.109519924968481">
<ele>170.20000000000005</ele>
<time>2023-05-16T13:56:58Z</time>
</trkpt>
<trkpt lat="49.039576929062605" lon="9.109446918591857">
<ele>170.20000000000005</ele>
<time>2023-05-16T13:56:59Z</time>
</trkpt>
<trkpt lat="49.03956293128431" lon="9.109374918043613">
<ele>170.20000000000005</ele>
<time>2023-05-16T13:57:00Z</time>
</trkpt>
<trkpt lat="49.03954792767763" lon="9.109306940808892">
<ele>170.39999999999998</ele>
<time>2023-05-16T13:57:01Z</time>
</trkpt>
<trkpt lat="49.039529990404844" lon="9.109242986887693">
<ele>170.39999999999998</ele>
<time>2023-05-16T13:57:02Z</time>
</trkpt>
<trkpt lat="49.03951498679817" lon="9.109182972460985">
<ele>170.39999999999998</ele>
<time>2023-05-16T13:57:03Z</time>
</trkpt>
<trkpt lat="49.0395029168576" lon="9.109129998832941">
<ele>170.60000000000002</ele>
<time>2023-05-16T13:57:04Z</time>
</trkpt>
<trkpt lat="49.039492942392826" lon="9.109081970527768">
<ele>170.60000000000002</ele>
<time>2023-05-16T13:57:05Z</time>
</trkpt>
<trkpt lat="49.039486991241574" lon="9.109032936394215">
<ele>170.60000000000002</ele>
<time>2023-05-16T13:57:06Z</time>
</trkpt>
<trkpt lat="49.03947693295777" lon="9.108984991908073">
<ele>170.79999999999995</ele>
<time>2023-05-16T13:57:07Z</time>
</trkpt>
<trkpt lat="49.039466958492994" lon="9.108937969431281">
<ele>170.79999999999995</ele>
<time>2023-05-16T13:57:08Z</time>
</trkpt>
<trkpt lat="49.0394529607147" lon="9.108897987753153">
<ele>171</ele>
<time>2023-05-16T13:57:09Z</time>
</trkpt>
<trkpt lat="49.03943996876478" lon="9.108861945569515">
<ele>171</ele>
<time>2023-05-16T13:57:10Z</time>
</trkpt>
<trkpt lat="49.039422953501344" lon="9.10882799886167">
<ele>171</ele>
<time>2023-05-16T13:57:11Z</time>
</trkpt>
<trkpt lat="49.03940794989467" lon="9.108797991648316">
<ele>171.20000000000005</ele>
<time>2023-05-16T13:57:12Z</time>
</trkpt>
<trkpt lat="49.03939696960151" lon="9.108767984434962">
<ele>171.20000000000005</ele>
<time>2023-05-16T13:57:13Z</time>
</trkpt>
<trkpt lat="49.03938791714609" lon="9.108731942251325">
<ele>171.20000000000005</ele>
<time>2023-05-16T13:57:14Z</time>
</trkpt>
<trkpt lat="49.039379954338074" lon="9.108684919774532">
<ele>171.39999999999998</ele>
<time>2023-05-16T13:57:15Z</time>
</trkpt>
<trkpt lat="49.03937693685293" lon="9.108637981116772">
<ele>171.39999999999998</ele>
<time>2023-05-16T13:57:16Z</time>
</trkpt>
<trkpt lat="49.03937492519617" lon="9.108597999438643">
<ele>171.39999999999998</ele>
<time>2023-05-16T13:57:17Z</time>
</trkpt>
<trkpt lat="49.03937299735844" lon="9.108559945598245">
<ele>171.39999999999998</ele>
<time>2023-05-16T13:57:18Z</time>
</trkpt>
<trkpt lat="49.03937199153006" lon="9.10852792672813">
<ele>171.39999999999998</ele>
<time>2023-05-16T13:57:19Z</time>
</trkpt>
<trkpt lat="49.0393699798733" lon="9.108501942828298">
<ele>171.60000000000002</ele>
<time>2023-05-16T13:57:20Z</time>
</trkpt>
<trkpt lat="49.0393699798733" lon="9.108477970585227">
<ele>171.60000000000002</ele>
<time>2023-05-16T13:57:21Z</time>
</trkpt>
<trkpt lat="49.03936796821654" lon="9.10846296697855">
<ele>171.60000000000002</ele>
<time>2023-05-16T13:57:22Z</time>
</trkpt>
<trkpt lat="49.03936796821654" lon="9.108454920351505">
<ele>171.60000000000002</ele>
<time>2023-05-16T13:57:23Z</time>
</trkpt>
<trkpt lat="49.03937199153006" lon="9.10844192840159">
<ele>171.60000000000002</ele>
<time>2023-05-16T13:57:24Z</time>
</trkpt>
<trkpt lat="49.03937299735844" lon="9.10841996781528">
<ele>171.60000000000002</ele>
<time>2023-05-16T13:57:25Z</time>
</trkpt>
<trkpt lat="49.03937299735844" lon="9.108394989743829">
<ele>171.79999999999995</ele>
<time>2023-05-16T13:57:26Z</time>
</trkpt>
<trkpt lat="49.03936796821654" lon="9.108361965045333">
<ele>171.79999999999995</ele>
<time>2023-05-16T13:57:27Z</time>
</trkpt>
<trkpt lat="49.039362939074636" lon="9.108319971710443">
<ele>171.79999999999995</ele>
<time>2023-05-16T13:57:28Z</time>
</trkpt>
<trkpt lat="49.039361933246255" lon="9.10826993174851">
<ele>171.79999999999995</ele>
<time>2023-05-16T13:57:29Z</time>
</trkpt>
<trkpt lat="49.039357993751764" lon="9.108219975605607">
<ele>171.79999999999995</ele>
<time>2023-05-16T13:57:30Z</time>
</trkpt>
<trkpt lat="49.03934994712472" lon="9.108169935643673">
<ele>172</ele>
<time>2023-05-16T13:57:31Z</time>
</trkpt>
<trkpt lat="49.039339972659945" lon="9.10811796784401">
<ele>172</ele>
<time>2023-05-16T13:57:32Z</time>
</trkpt>
<trkpt lat="49.03932798653841" lon="9.108057953417301">
<ele>172</ele>
<time>2023-05-16T13:57:33Z</time>
</trkpt>
<trkpt lat="49.03932295739651" lon="9.107994921505451">
<ele>172.20000000000005</ele>
<time>2023-05-16T13:57:34Z</time>
</trkpt>
<trkpt lat="49.039319939911366" lon="9.107924932613969">
<ele>172.20000000000005</ele>
<time>2023-05-16T13:57:35Z</time>
</trkpt>
<trkpt lat="49.039316922426224" lon="9.107852932065725">
<ele>172.39999999999998</ele>
<time>2023-05-16T13:57:36Z</time>
</trkpt>
<trkpt lat="49.03931298293173" lon="9.10777498036623">
<ele>172.60000000000002</ele>
<time>2023-05-16T13:57:37Z</time>
</trkpt>
<trkpt lat="49.03931197710335" lon="9.10768998786807">
<ele>172.60000000000002</ele>
<time>2023-05-16T13:57:38Z</time>
</trkpt>
<trkpt lat="49.03930795378983" lon="9.10760298371315">
<ele>172.79999999999995</ele>
<time>2023-05-16T13:57:39Z</time>
</trkpt>
<trkpt lat="49.03930493630469" lon="9.107512962073088">
<ele>173</ele>
<time>2023-05-16T13:57:40Z</time>
</trkpt>
<trkpt lat="49.03930292464793" lon="9.107421934604645">
<ele>173.20000000000005</ele>
<time>2023-05-16T13:57:41Z</time>
</trkpt>
<trkpt lat="49.03930292464793" lon="9.107326967641711">
<ele>173.39999999999998</ele>
<time>2023-05-16T13:57:42Z</time>
</trkpt>
<trkpt lat="49.03930292464793" lon="9.107229989022017">
<ele>173.60000000000002</ele>
<time>2023-05-16T13:57:43Z</time>
</trkpt>
<trkpt lat="49.03930795378983" lon="9.10713292658329">
<ele>173.60000000000002</ele>
<time>2023-05-16T13:57:44Z</time>
</trkpt>
<trkpt lat="49.03930996544659" lon="9.107039971277118">
<ele>173.79999999999995</ele>
<time>2023-05-16T13:57:45Z</time>
</trkpt>
<trkpt lat="49.03931197710335" lon="9.106949949637055">
<ele>174</ele>
<time>2023-05-16T13:57:46Z</time>
</trkpt>
<trkpt lat="49.039314994588494" lon="9.106856994330883">
<ele>174</ele>
<time>2023-05-16T13:57:47Z</time>
</trkpt>
<trkpt lat="49.039319939911366" lon="9.106767978519201">
<ele>174.20000000000005</ele>
<time>2023-05-16T13:57:48Z</time>
</trkpt>
<trkpt lat="49.03932295739651" lon="9.106677956879139">
<ele>174.39999999999998</ele>
<time>2023-05-16T13:57:49Z</time>
</trkpt>
<trkpt lat="49.03932798653841" lon="9.106589946895838">
<ele>174.60000000000002</ele>
<time>2023-05-16T13:57:50Z</time>
</trkpt>
<trkpt lat="49.03933494351804" lon="9.106499925255775">
<ele>174.79999999999995</ele>
<time>2023-05-16T13:57:51Z</time>
</trkpt>
<trkpt lat="49.03934198431671" lon="9.106409987434745">
<ele>175</ele>
<time>2023-05-16T13:57:52Z</time>
</trkpt>
<trkpt lat="49.03935296460986" lon="9.106321977451444">
<ele>175.20000000000005</ele>
<time>2023-05-16T13:57:53Z</time>
</trkpt>
<trkpt lat="49.039361933246255" lon="9.106234973296523">
<ele>175.39999999999998</ele>
<time>2023-05-16T13:57:54Z</time>
</trkpt>
<trkpt lat="49.03936796821654" lon="9.106151992455125">
<ele>175.60000000000002</ele>
<time>2023-05-16T13:57:55Z</time>
</trkpt>
<trkpt lat="49.03937492519617" lon="9.106069933623075">
<ele>175.79999999999995</ele>
<time>2023-05-16T13:57:56Z</time>
</trkpt>
<trkpt lat="49.039379954338074" lon="9.10599198192358">
<ele>176</ele>
<time>2023-05-16T13:57:57Z</time>
</trkpt>
<trkpt lat="49.03938791714609" lon="9.105916963890195">
<ele>176.20000000000005</ele>
<time>2023-05-16T13:57:58Z</time>
</trkpt>
<trkpt lat="49.03939495794475" lon="9.105839934200048">
<ele>176.39999999999998</ele>
<time>2023-05-16T13:57:59Z</time>
</trkpt>
<trkpt lat="49.039402920752764" lon="9.105767933651805">
<ele>176.60000000000002</ele>
<time>2023-05-16T13:58:00Z</time>
</trkpt>
<trkpt lat="49.03941297903657" lon="9.105692999437451">
<ele>176.60000000000002</ele>
<time>2023-05-16T13:58:01Z</time>
</trkpt>
<trkpt lat="49.03942194767296" lon="9.105619993060827">
<ele>176.79999999999995</ele>
<time>2023-05-16T13:58:02Z</time>
</trkpt>
<trkpt lat="49.03942798264325" lon="9.105551932007074">
<ele>177</ele>
<time>2023-05-16T13:58:03Z</time>
</trkpt>
<trkpt lat="49.03943493962288" lon="9.105491917580366">
<ele>177.20000000000005</ele>
<time>2023-05-16T13:58:04Z</time>
</trkpt>
<trkpt lat="49.03943996876478" lon="9.105424946174026">
<ele>177.20000000000005</ele>
<time>2023-05-16T13:58:05Z</time>
</trkpt>
<trkpt lat="49.039446925744414" lon="9.105357974767685">
<ele>177.39999999999998</ele>
<time>2023-05-16T13:58:06Z</time>
</trkpt>
<trkpt lat="49.0394529607147" lon="9.105294942855835">
<ele>177.60000000000002</ele>
<time>2023-05-16T13:58:07Z</time>
</trkpt>
<trkpt lat="49.03945991769433" lon="9.105236940085888">
<ele>177.60000000000002</ele>
<time>2023-05-16T13:58:08Z</time>
</trkpt>
<trkpt lat="49.039466958492994" lon="9.105182960629463">
<ele>177.79999999999995</ele>
<time>2023-05-16T13:58:09Z</time>
</trkpt>
<trkpt lat="49.03947299346328" lon="9.105124957859516">
<ele>177.79999999999995</ele>
<time>2023-05-16T13:58:10Z</time>
</trkpt>
<trkpt lat="49.03948196209967" lon="9.105064943432808">
<ele>178</ele>
<time>2023-05-16T13:58:11Z</time>
</trkpt>
<trkpt lat="49.039487997069955" lon="9.10500694066286">
<ele>178.20000000000005</ele>
<time>2023-05-16T13:58:12Z</time>
</trkpt>
<trkpt lat="49.03949495404959" lon="9.104951955378056">
<ele>178.20000000000005</ele>
<time>2023-05-16T13:58:13Z</time>
</trkpt>
<trkpt lat="49.03950199484825" lon="9.10489797592163">
<ele>178.39999999999998</ele>
<time>2023-05-16T13:58:14Z</time>
</trkpt>
<trkpt lat="49.039511969313025" lon="9.104842990636826">
<ele>178.39999999999998</ele>
<time>2023-05-16T13:58:15Z</time>
</trkpt>
<trkpt lat="49.03951993212104" lon="9.104784987866879">
<ele>178.60000000000002</ele>
<time>2023-05-16T13:58:16Z</time>
</trkpt>
<trkpt lat="49.03952797874808" lon="9.104727990925312">
<ele>178.60000000000002</ele>
<time>2023-05-16T13:58:17Z</time>
</trkpt>
<trkpt lat="49.03953996486962" lon="9.104671999812126">
<ele>178.79999999999995</ele>
<time>2023-05-16T13:58:18Z</time>
</trkpt>
<trkpt lat="49.039552956819534" lon="9.104612991213799">
<ele>178.79999999999995</ele>
<time>2023-05-16T13:58:19Z</time>
</trkpt>
<trkpt lat="49.03956293128431" lon="9.104556916281581">
<ele>179</ele>
<time>2023-05-16T13:58:20Z</time>
</trkpt>
<trkpt lat="49.03956997208297" lon="9.104502936825156">
<ele>179</ele>
<time>2023-05-16T13:58:21Z</time>
</trkpt>
<trkpt lat="49.039577934890985" lon="9.104452980682254">
<ele>179.20000000000005</ele>
<time>2023-05-16T13:58:22Z</time>
</trkpt>
<trkpt lat="49.03958992101252" lon="9.104399923235178">
<ele>179.20000000000005</ele>
<time>2023-05-16T13:58:23Z</time>
</trkpt>
<trkpt lat="49.03959997929633" lon="9.104344937950373">
<ele>179.39999999999998</ele>
<time>2023-05-16T13:58:24Z</time>
</trkpt>
<trkpt lat="49.039614982903004" lon="9.104301938787103">
<ele>179.39999999999998</ele>
<time>2023-05-16T13:58:25Z</time>
</trkpt>
<trkpt lat="49.03962495736778" lon="9.104256927967072">
<ele>179.39999999999998</ele>
<time>2023-05-16T13:58:26Z</time>
</trkpt>
<trkpt lat="49.03963493183255" lon="9.104212922975421">
<ele>179.60000000000002</ele>
<time>2023-05-16T13:58:27Z</time>
</trkpt>
<trkpt lat="49.03964691795409" lon="9.104166990146041">
<ele>179.60000000000002</ele>
<time>2023-05-16T13:58:28Z</time>
</trkpt>
<trkpt lat="49.039659993723035" lon="9.104124996811152">
<ele>179.60000000000002</ele>
<time>2023-05-16T13:58:29Z</time>
</trkpt>
<trkpt lat="49.03967197984457" lon="9.104081997647882">
<ele>179.60000000000002</ele>
<time>2023-05-16T13:58:30Z</time>
</trkpt>
<trkpt lat="49.039684971794486" lon="9.104042937979102">
<ele>179.60000000000002</ele>
<time>2023-05-16T13:58:31Z</time>
</trkpt>
<trkpt lat="49.03969494625926" lon="9.104004967957735">
<ele>179.79999999999995</ele>
<time>2023-05-16T13:58:32Z</time>
</trkpt>
<trkpt lat="49.039702992886305" lon="9.103967919945717">
<ele>179.79999999999995</ele>
<time>2023-05-16T13:58:33Z</time>
</trkpt>
<trkpt lat="49.03970994986594" lon="9.103934979066253">
<ele>179.79999999999995</ele>
<time>2023-05-16T13:58:34Z</time>
</trkpt>
<trkpt lat="49.03971497900784" lon="9.10390698350966">
<ele>179.79999999999995</ele>
<time>2023-05-16T13:58:35Z</time>
</trkpt>
<trkpt lat="49.03972193598747" lon="9.103874964639544">
<ele>179.79999999999995</ele>
<time>2023-05-16T13:58:36Z</time>
</trkpt>
<trkpt lat="49.03972294181585" lon="9.10384294576943">
<ele>180</ele>
<time>2023-05-16T13:58:37Z</time>
</trkpt>
<trkpt lat="49.039724953472614" lon="9.103804975748062">
<ele>180</ele>
<time>2023-05-16T13:58:38Z</time>
</trkpt>
<trkpt lat="49.039724953472614" lon="9.103762982413173">
<ele>180</ele>
<time>2023-05-16T13:58:39Z</time>
</trkpt>
<trkpt lat="49.039724953472614" lon="9.103721994906664">
<ele>180</ele>
<time>2023-05-16T13:58:40Z</time>
</trkpt>
<trkpt lat="49.039727970957756" lon="9.103676984086633">
<ele>180</ele>
<time>2023-05-16T13:58:41Z</time>
</trkpt>
<trkpt lat="49.03973291628063" lon="9.103632979094982">
<ele>180.20000000000005</ele>
<time>2023-05-16T13:58:42Z</time>
</trkpt>
<trkpt lat="49.03974196873605" lon="9.103589979931712">
<ele>180.20000000000005</ele>
<time>2023-05-16T13:58:43Z</time>
</trkpt>
<trkpt lat="49.03975496068597" lon="9.103551926091313">
<ele>180.20000000000005</ele>
<time>2023-05-16T13:58:44Z</time>
</trkpt>
<trkpt lat="49.03977197594941" lon="9.103517979383469">
<ele>180.20000000000005</ele>
<time>2023-05-16T13:58:45Z</time>
</trkpt>
<trkpt lat="49.03979695402086" lon="9.103492917492986">
<ele>180.20000000000005</ele>
<time>2023-05-16T13:58:46Z</time>
</trkpt>
<trkpt lat="49.03982494957745" lon="9.103466933593154">
<ele>180.39999999999998</ele>
<time>2023-05-16T13:58:47Z</time>
</trkpt>
<trkpt lat="49.03985193930566" lon="9.103431981056929">
<ele>180.39999999999998</ele>
<time>2023-05-16T13:58:48Z</time>
</trkpt>
<trkpt lat="49.039872977882624" lon="9.103387976065278">
<ele>180.39999999999998</ele>
<time>2023-05-16T13:58:49Z</time>
</trkpt>
<trkpt lat="49.03988999314606" lon="9.103341959416866">
<ele>180.39999999999998</ele>
<time>2023-05-16T13:58:50Z</time>
</trkpt>
<trkpt lat="49.03990793041885" lon="9.103289991617203">
<ele>180.39999999999998</ele>
<time>2023-05-16T13:58:51Z</time>
</trkpt>
<trkpt lat="49.03992695733905" lon="9.10324196331203">
<ele>180.39999999999998</ele>
<time>2023-05-16T13:58:52Z</time>
</trkpt>
<trkpt lat="49.03994497843087" lon="9.103189995512366">
<ele>180.39999999999998</ele>
<time>2023-05-16T13:58:53Z</time>
</trkpt>
<trkpt lat="49.039964927360415" lon="9.10313492640853">
<ele>180.39999999999998</ele>
<time>2023-05-16T13:58:54Z</time>
</trkpt>
<trkpt lat="49.039982948452234" lon="9.103084970265627">
<ele>180.60000000000002</ele>
<time>2023-05-16T13:58:55Z</time>
</trkpt>
<trkpt lat="49.040001975372434" lon="9.103037947788835">
<ele>180.60000000000002</ele>
<time>2023-05-16T13:58:56Z</time>
</trkpt>
<trkpt lat="49.04002192430198" lon="9.10298296250403">
<ele>180.60000000000002</ele>
<time>2023-05-16T13:58:57Z</time>
</trkpt>
<trkpt lat="49.04004296287894" lon="9.102927977219224">
<ele>180.60000000000002</ele>
<time>2023-05-16T13:58:58Z</time>
</trkpt>
<trkpt lat="49.04006299562752" lon="9.102872991934419">
<ele>180.60000000000002</ele>
<time>2023-05-16T13:58:59Z</time>
</trkpt>
<trkpt lat="49.04008193872869" lon="9.102814989164472">
<ele>180.60000000000002</ele>
<time>2023-05-16T13:59:00Z</time>
</trkpt>
<trkpt lat="49.04009694233537" lon="9.102764949202538">
<ele>180.60000000000002</ele>
<time>2023-05-16T13:59:01Z</time>
</trkpt>
<trkpt lat="49.040114963427186" lon="9.102712981402874">
<ele>180.60000000000002</ele>
<time>2023-05-16T13:59:02Z</time>
</trkpt>
<trkpt lat="49.040134996175766" lon="9.102657996118069">
<ele>180.60000000000002</ele>
<time>2023-05-16T13:59:03Z</time>
</trkpt>
<trkpt lat="49.040154945105314" lon="9.102599993348122">
<ele>180.60000000000002</ele>
<time>2023-05-16T13:59:04Z</time>
</trkpt>
<trkpt lat="49.040174977853894" lon="9.102546935901046">
<ele>180.39999999999998</ele>
<time>2023-05-16T13:59:05Z</time>
</trkpt>
<trkpt lat="49.04019492678344" lon="9.10248993895948">
<ele>180.39999999999998</ele>
<time>2023-05-16T13:59:06Z</time>
</trkpt>
<trkpt lat="49.040216971188784" lon="9.102429924532771">
<ele>180.39999999999998</ele>
<time>2023-05-16T13:59:07Z</time>
</trkpt>
<trkpt lat="49.04023298062384" lon="9.102366976439953">
<ele>180.39999999999998</ele>
<time>2023-05-16T13:59:08Z</time>
</trkpt>
<trkpt lat="49.04024999588728" lon="9.102301932871342">
<ele>180.39999999999998</ele>
<time>2023-05-16T13:59:09Z</time>
</trkpt>
<trkpt lat="49.04026793316007" lon="9.102234961465001">
<ele>180.39999999999998</ele>
<time>2023-05-16T13:59:10Z</time>
</trkpt>
<trkpt lat="49.040284948423505" lon="9.10216799005866">
<ele>180.39999999999998</ele>
<time>2023-05-16T13:59:11Z</time>
</trkpt>
<trkpt lat="49.040304981172085" lon="9.102101940661669">
<ele>180.60000000000002</ele>
<time>2023-05-16T13:59:12Z</time>
</trkpt>
<trkpt lat="49.04032199643552" lon="9.102034969255328">
<ele>180.60000000000002</ele>
<time>2023-05-16T13:59:13Z</time>
</trkpt>
<trkpt lat="49.04033691622317" lon="9.101972943171859">
<ele>180.60000000000002</ele>
<time>2023-05-16T13:59:14Z</time>
</trkpt>
<trkpt lat="49.040351919829845" lon="9.10191292874515">
<ele>180.60000000000002</ele>
<time>2023-05-16T13:59:15Z</time>
</trkpt>
<trkpt lat="49.04036499559879" lon="9.101854925975204">
<ele>180.60000000000002</ele>
<time>2023-05-16T13:59:16Z</time>
</trkpt>
<trkpt lat="49.04037798754871" lon="9.10180295817554">
<ele>180.60000000000002</ele>
<time>2023-05-16T13:59:17Z</time>
</trkpt>
<trkpt lat="49.040392991155386" lon="9.101757947355509">
<ele>180.60000000000002</ele>
<time>2023-05-16T13:59:18Z</time>
</trkpt>
<trkpt lat="49.04040296562016" lon="9.101716959849">
<ele>180.60000000000002</ele>
<time>2023-05-16T13:59:19Z</time>
</trkpt>
<trkpt lat="49.040412940084934" lon="9.101682929322124">
<ele>180.60000000000002</ele>
<time>2023-05-16T13:59:20Z</time>
</trkpt>
<trkpt lat="49.04041796922684" lon="9.101651916280389">
<ele>180.60000000000002</ele>
<time>2023-05-16T13:59:21Z</time>
</trkpt>
<trkpt lat="49.04042199254036" lon="9.101622998714447">
<ele>180.60000000000002</ele>
<time>2023-05-16T13:59:22Z</time>
</trkpt>
<trkpt lat="49.04042693786323" lon="9.101596930995584">
<ele>180.60000000000002</ele>
<time>2023-05-16T13:59:23Z</time>
</trkpt>
<trkpt lat="49.04042995534837" lon="9.101571952924132">
<ele>180.60000000000002</ele>
<time>2023-05-16T13:59:24Z</time>
</trkpt>
<trkpt lat="49.04043699614704" lon="9.101547980681062">
<ele>180.60000000000002</ele>
<time>2023-05-16T13:59:25Z</time>
</trkpt>
<trkpt lat="49.04044697061181" lon="9.10152199678123">
<ele>180.60000000000002</ele>
<time>2023-05-16T13:59:26Z</time>
</trkpt>
<trkpt lat="49.040456945076585" lon="9.101491989567876">
<ele>180.60000000000002</ele>
<time>2023-05-16T13:59:27Z</time>
</trkpt>
<trkpt lat="49.04046792536974" lon="9.101457959041">
<ele>180.60000000000002</ele>
<time>2023-05-16T13:59:28Z</time>
</trkpt>
<trkpt lat="49.040476977825165" lon="9.101427951827645">
<ele>180.60000000000002</ele>
<time>2023-05-16T13:59:29Z</time>
</trkpt>
<trkpt lat="49.04048292897642" lon="9.101397944614291">
<ele>180.60000000000002</ele>
<time>2023-05-16T13:59:30Z</time>
</trkpt>
<trkpt lat="49.04049198143184" lon="9.101367937400937">
<ele>180.39999999999998</ele>
<time>2023-05-16T13:59:31Z</time>
</trkpt>
<trkpt lat="49.040501955896616" lon="9.101337930187583">
<ele>180.39999999999998</ele>
<time>2023-05-16T13:59:32Z</time>
</trkpt>
<trkpt lat="49.04051193036139" lon="9.101302977651358">
<ele>180.60000000000002</ele>
<time>2023-05-16T13:59:33Z</time>
</trkpt>
<trkpt lat="49.040519976988435" lon="9.10126299597323">
<ele>180.60000000000002</ele>
<time>2023-05-16T13:59:34Z</time>
</trkpt>
<trkpt lat="49.04052793979645" lon="9.101217985153198">
<ele>180.60000000000002</ele>
<time>2023-05-16T13:59:35Z</time>
</trkpt>
<trkpt lat="49.04053992591798" lon="9.101169956848025">
<ele>180.60000000000002</ele>
<time>2023-05-16T13:59:36Z</time>
</trkpt>
<trkpt lat="49.0405529178679" lon="9.10111497156322">
<ele>180.60000000000002</ele>
<time>2023-05-16T13:59:37Z</time>
</trkpt>
<trkpt lat="49.040564987808466" lon="9.101062919944525">
<ele>180.79999999999995</ele>
<time>2023-05-16T13:59:38Z</time>
</trkpt>
<trkpt lat="49.04057496227324" lon="9.101012963801622">
<ele>180.79999999999995</ele>
<time>2023-05-16T13:59:39Z</time>
</trkpt>
<trkpt lat="49.040584936738014" lon="9.100962923839688">
<ele>180.79999999999995</ele>
<time>2023-05-16T13:59:40Z</time>
</trkpt>
<trkpt lat="49.04059499502182" lon="9.100907938554883">
<ele>180.79999999999995</ele>
<time>2023-05-16T13:59:41Z</time>
</trkpt>
<trkpt lat="49.040606981143355" lon="9.100849935784936">
<ele>180.79999999999995</ele>
<time>2023-05-16T13:59:42Z</time>
</trkpt>
<trkpt lat="49.04062299057841" lon="9.10079293884337">
<ele>180.79999999999995</ele>
<time>2023-05-16T13:59:43Z</time>
</trkpt>
<trkpt lat="49.04063992202282" lon="9.100729990750551">
<ele>180.79999999999995</ele>
<time>2023-05-16T13:59:44Z</time>
</trkpt>
<trkpt lat="49.04065794311464" lon="9.10066494718194">
<ele>180.79999999999995</ele>
<time>2023-05-16T13:59:45Z</time>
</trkpt>
<trkpt lat="49.040672946721315" lon="9.1005979757756">
<ele>180.79999999999995</ele>
<time>2023-05-16T13:59:46Z</time>
</trkpt>
<trkpt lat="49.040689961984754" lon="9.100529998540878">
<ele>180.79999999999995</ele>
<time>2023-05-16T13:59:47Z</time>
</trkpt>
<trkpt lat="49.04070496559143" lon="9.100462943315506">
<ele>180.79999999999995</ele>
<time>2023-05-16T13:59:48Z</time>
</trkpt>
<trkpt lat="49.04072198085487" lon="9.100396977737546">
<ele>180.79999999999995</ele>
<time>2023-05-16T13:59:49Z</time>
</trkpt>
<trkpt lat="49.04073799028993" lon="9.100324977189302">
<ele>180.79999999999995</ele>
<time>2023-05-16T13:59:50Z</time>
</trkpt>
<trkpt lat="49.04075492173433" lon="9.100246941670775">
<ele>180.79999999999995</ele>
<time>2023-05-16T13:59:51Z</time>
</trkpt>
<trkpt lat="49.04077294282615" lon="9.10016999579966">
<ele>180.79999999999995</ele>
<time>2023-05-16T13:59:52Z</time>
</trkpt>
<trkpt lat="49.04078995808959" lon="9.100089948624372">
<ele>181</ele>
<time>2023-05-16T13:59:53Z</time>
</trkpt>
<trkpt lat="49.04080496169627" lon="9.100009985268116">
<ele>181</ele>
<time>2023-05-16T13:59:54Z</time>
</trkpt>
<trkpt lat="49.0408169478178" lon="9.099929938092828">
<ele>181</ele>
<time>2023-05-16T13:59:55Z</time>
</trkpt>
<trkpt lat="49.04082792811096" lon="9.099849974736571">
<ele>181</ele>
<time>2023-05-16T13:59:56Z</time>
</trkpt>
<trkpt lat="49.04083798639476" lon="9.099771939218044">
<ele>181</ele>
<time>2023-05-16T13:59:57Z</time>
</trkpt>
<trkpt lat="49.040844943374395" lon="9.0996999386698">
<ele>181</ele>
<time>2023-05-16T13:59:58Z</time>
</trkpt>
<trkpt lat="49.0408499725163" lon="9.099636990576982">
<ele>181</ele>
<time>2023-05-16T13:59:59Z</time>
</trkpt>
<trkpt lat="49.04085491783917" lon="9.099576976150274">
<ele>181</ele>
<time>2023-05-16T14:00:00Z</time>
</trkpt>
<trkpt lat="49.04085793532431" lon="9.09952693618834">
<ele>181</ele>
<time>2023-05-16T14:00:01Z</time>
</trkpt>
<trkpt lat="49.040861958637834" lon="9.099486954510212">
<ele>181.20000000000005</ele>
<time>2023-05-16T14:00:02Z</time>
</trkpt>
<trkpt lat="49.040862964466214" lon="9.099444961175323">
<ele>181.20000000000005</ele>
<time>2023-05-16T14:00:03Z</time>
</trkpt>
<trkpt lat="49.040861958637834" lon="9.099399950355291">
<ele>181.20000000000005</ele>
<time>2023-05-16T14:00:04Z</time>
</trkpt>
<trkpt lat="49.04085491783917" lon="9.099346976727247">
<ele>181.20000000000005</ele>
<time>2023-05-16T14:00:05Z</time>
</trkpt>
<trkpt lat="49.04085198417306" lon="9.099284950643778">
<ele>181.39999999999998</ele>
<time>2023-05-16T14:00:06Z</time>
</trkpt>
<trkpt lat="49.04084695503116" lon="9.099216973409057">
<ele>181.39999999999998</ele>
<time>2023-05-16T14:00:07Z</time>
</trkpt>
<trkpt lat="49.040841925889254" lon="9.099151929840446">
<ele>181.39999999999998</ele>
<time>2023-05-16T14:00:08Z</time>
</trkpt>
<trkpt lat="49.040839998051524" lon="9.099089987576008">
<ele>181.39999999999998</ele>
<time>2023-05-16T14:00:09Z</time>
</trkpt>
<trkpt lat="49.040839998051524" lon="9.0990299731493">
<ele>181.39999999999998</ele>
<time>2023-05-16T14:00:10Z</time>
</trkpt>
<trkpt lat="49.04083798639476" lon="9.098974987864494">
<ele>181.60000000000002</ele>
<time>2023-05-16T14:00:11Z</time>
</trkpt>
<trkpt lat="49.04083295725286" lon="9.098916985094547">
<ele>181.60000000000002</ele>
<time>2023-05-16T14:00:12Z</time>
</trkpt>
<trkpt lat="49.04082692228258" lon="9.098861999809742">
<ele>181.79999999999995</ele>
<time>2023-05-16T14:00:13Z</time>
</trkpt>
<trkpt lat="49.040819965302944" lon="9.098804919049144">
<ele>181.79999999999995</ele>
<time>2023-05-16T14:00:14Z</time>
</trkpt>
<trkpt lat="49.04081292450428" lon="9.098747922107577">
<ele>182</ele>
<time>2023-05-16T14:00:15Z</time>
</trkpt>
<trkpt lat="49.04080797918141" lon="9.09868698567152">
<ele>182</ele>
<time>2023-05-16T14:00:16Z</time>
</trkpt>
<trkpt lat="49.04080697335303" lon="9.09862495958805">
<ele>182</ele>
<time>2023-05-16T14:00:17Z</time>
</trkpt>
<trkpt lat="49.04080496169627" lon="9.0985619276762">
<ele>182.20000000000005</ele>
<time>2023-05-16T14:00:18Z</time>
</trkpt>
<trkpt lat="49.040801944211125" lon="9.098496967926621">
<ele>182.20000000000005</ele>
<time>2023-05-16T14:00:19Z</time>
</trkpt>
<trkpt lat="49.0407979208976" lon="9.09843192435801">
<ele>182.20000000000005</ele>
<time>2023-05-16T14:00:20Z</time>
</trkpt>
<trkpt lat="49.04079498723149" lon="9.098367970436811">
<ele>182.39999999999998</ele>
<time>2023-05-16T14:00:21Z</time>
</trkpt>
<trkpt lat="49.04079297557473" lon="9.098306950181723">
<ele>182.39999999999998</ele>
<time>2023-05-16T14:00:22Z</time>
</trkpt>
<trkpt lat="49.04079196974635" lon="9.098242996260524">
<ele>182.39999999999998</ele>
<time>2023-05-16T14:00:23Z</time>
</trkpt>
<trkpt lat="49.04079196974635" lon="9.098182981833816">
<ele>182.39999999999998</ele>
<time>2023-05-16T14:00:24Z</time>
</trkpt>
<trkpt lat="49.04079196974635" lon="9.098124979063869">
<ele>182.60000000000002</ele>
<time>2023-05-16T14:00:25Z</time>
</trkpt>
<trkpt lat="49.04079498723149" lon="9.098071921616793">
<ele>182.60000000000002</ele>
<time>2023-05-16T14:00:26Z</time>
</trkpt>
<trkpt lat="49.040796998888254" lon="9.098017942160368">
<ele>182.60000000000002</ele>
<time>2023-05-16T14:00:27Z</time>
</trkpt>
<trkpt lat="49.040801944211125" lon="9.097967986017466">
<ele>182.60000000000002</ele>
<time>2023-05-16T14:00:28Z</time>
</trkpt>
<trkpt lat="49.040802950039506" lon="9.097919957712293">
<ele>182.60000000000002</ele>
<time>2023-05-16T14:00:29Z</time>
</trkpt>
<trkpt lat="49.04080496169627" lon="9.0978729352355">
<ele>182.60000000000002</ele>
<time>2023-05-16T14:00:30Z</time>
</trkpt>
<trkpt lat="49.04080496169627" lon="9.097826918587089">
<ele>182.60000000000002</ele>
<time>2023-05-16T14:00:31Z</time>
</trkpt>
<trkpt lat="49.04080496169627" lon="9.09778199158609">
<ele>182.60000000000002</ele>
<time>2023-05-16T14:00:32Z</time>
</trkpt>
<trkpt lat="49.04080797918141" lon="9.097737986594439">
<ele>182.60000000000002</ele>
<time>2023-05-16T14:00:33Z</time>
</trkpt>
<trkpt lat="49.0408119186759" lon="9.097689958289266">
<ele>182.60000000000002</ele>
<time>2023-05-16T14:00:34Z</time>
</trkpt>
<trkpt lat="49.04081493616104" lon="9.097639918327332">
<ele>182.79999999999995</ele>
<time>2023-05-16T14:00:35Z</time>
</trkpt>
<trkpt lat="49.04081795364618" lon="9.097587950527668">
<ele>182.79999999999995</ele>
<time>2023-05-16T14:00:36Z</time>
</trkpt>
<trkpt lat="49.040822982788086" lon="9.097539922222495">
<ele>182.79999999999995</ele>
<time>2023-05-16T14:00:37Z</time>
</trkpt>
<trkpt lat="49.04082792811096" lon="9.097494995221496">
<ele>182.79999999999995</ele>
<time>2023-05-16T14:00:38Z</time>
</trkpt>
<trkpt lat="49.04083295725286" lon="9.097444955259562">
<ele>182.79999999999995</ele>
<time>2023-05-16T14:00:39Z</time>
</trkpt>
<trkpt lat="49.04083496890962" lon="9.097392987459898">
<ele>182.79999999999995</ele>
<time>2023-05-16T14:00:40Z</time>
</trkpt>
<trkpt lat="49.04083295725286" lon="9.097341941669583">
<ele>182.79999999999995</ele>
<time>2023-05-16T14:00:41Z</time>
</trkpt>
<trkpt lat="49.04083195142448" lon="9.09728997386992">
<ele>182.79999999999995</ele>
<time>2023-05-16T14:00:42Z</time>
</trkpt>
<trkpt lat="49.04083195142448" lon="9.097236916422844">
<ele>182.79999999999995</ele>
<time>2023-05-16T14:00:43Z</time>
</trkpt>
<trkpt lat="49.04082993976772" lon="9.09718494862318">
<ele>182.79999999999995</ele>
<time>2023-05-16T14:00:44Z</time>
</trkpt>
<trkpt lat="49.04083295725286" lon="9.097137926146388">
<ele>182.79999999999995</ele>
<time>2023-05-16T14:00:45Z</time>
</trkpt>
<trkpt lat="49.04083195142448" lon="9.097089981660247">
<ele>182.79999999999995</ele>
<time>2023-05-16T14:00:46Z</time>
</trkpt>
<trkpt lat="49.04082993976772" lon="9.097039941698313">
<ele>183</ele>
<time>2023-05-16T14:00:47Z</time>
</trkpt>
<trkpt lat="49.04082993976772" lon="9.096991997212172">
<ele>183</ele>
<time>2023-05-16T14:00:48Z</time>
</trkpt>
<trkpt lat="49.04082792811096" lon="9.09694497473538">
<ele>183</ele>
<time>2023-05-16T14:00:49Z</time>
</trkpt>
<trkpt lat="49.04082792811096" lon="9.096899963915348">
<ele>183</ele>
<time>2023-05-16T14:00:50Z</time>
</trkpt>
<trkpt lat="49.04082692228258" lon="9.096856964752078">
<ele>183</ele>
<time>2023-05-16T14:00:51Z</time>
</trkpt>
<trkpt lat="49.04082499444485" lon="9.09681698307395">
<ele>183</ele>
<time>2023-05-16T14:00:52Z</time>
</trkpt>
<trkpt lat="49.040822982788086" lon="9.09677792340517">
<ele>183</ele>
<time>2023-05-16T14:00:53Z</time>
</trkpt>
<trkpt lat="49.040819965302944" lon="9.096744982525706">
<ele>183</ele>
<time>2023-05-16T14:00:54Z</time>
</trkpt>
<trkpt lat="49.04081493616104" lon="9.096716986969113">
<ele>183</ele>
<time>2023-05-16T14:00:55Z</time>
</trkpt>
<trkpt lat="49.0408119186759" lon="9.096692930907011">
<ele>183</ele>
<time>2023-05-16T14:00:56Z</time>
</trkpt>
<trkpt lat="49.04080797918141" lon="9.096674993634224">
<ele>183.20000000000005</ele>
<time>2023-05-16T14:00:57Z</time>
</trkpt>
<trkpt lat="49.04080496169627" lon="9.096652949228883">
<ele>183.20000000000005</ele>
<time>2023-05-16T14:00:58Z</time>
</trkpt>
<trkpt lat="49.04080496169627" lon="9.096631994470954">
<ele>183.20000000000005</ele>
<time>2023-05-16T14:00:59Z</time>
</trkpt>
<trkpt lat="49.04080496169627" lon="9.096607938408852">
<ele>183.20000000000005</ele>
<time>2023-05-16T14:01:00Z</time>
</trkpt>
<trkpt lat="49.04080697335303" lon="9.096589917317033">
<ele>183.20000000000005</ele>
<time>2023-05-16T14:01:01Z</time>
</trkpt>
<trkpt lat="49.04080496169627" lon="9.096572985872626">
<ele>183.20000000000005</ele>
<time>2023-05-16T14:01:02Z</time>
</trkpt>
<trkpt lat="49.0407979208976" lon="9.096552953124046">
<ele>183.20000000000005</ele>
<time>2023-05-16T14:01:03Z</time>
</trkpt>
<trkpt lat="49.04078794643283" lon="9.096532920375466">
<ele>183.20000000000005</ele>
<time>2023-05-16T14:01:04Z</time>
</trkpt>
<trkpt lat="49.040776966139674" lon="9.096507942304015">
<ele>183.20000000000005</ele>
<time>2023-05-16T14:01:05Z</time>
</trkpt>
<trkpt lat="49.04076498001814" lon="9.096481958404183">
<ele>183.20000000000005</ele>
<time>2023-05-16T14:01:06Z</time>
</trkpt>
<trkpt lat="49.04075198806822" lon="9.096456980332732">
<ele>183.20000000000005</ele>
<time>2023-05-16T14:01:07Z</time>
</trkpt>
<trkpt lat="49.040734972804785" lon="9.096436947584152">
<ele>183.20000000000005</ele>
<time>2023-05-16T14:01:08Z</time>
</trkpt>
<trkpt lat="49.04071996919811" lon="9.096417920663953">
<ele>183.20000000000005</ele>
<time>2023-05-16T14:01:09Z</time>
</trkpt>
<trkpt lat="49.04070496559143" lon="9.096394954249263">
<ele>183.20000000000005</ele>
<time>2023-05-16T14:01:10Z</time>
</trkpt>
<trkpt lat="49.040692979469895" lon="9.09636695869267">
<ele>183.20000000000005</ele>
<time>2023-05-16T14:01:11Z</time>
</trkpt>
<trkpt lat="49.04068199917674" lon="9.096337957307696">
<ele>183.20000000000005</ele>
<time>2023-05-16T14:01:12Z</time>
</trkpt>
<trkpt lat="49.040672946721315" lon="9.096309961751103">
<ele>183.20000000000005</ele>
<time>2023-05-16T14:01:13Z</time>
</trkpt>
<trkpt lat="49.040666995570064" lon="9.096284983679652">
<ele>183.20000000000005</ele>
<time>2023-05-16T14:01:14Z</time>
</trkpt>
<trkpt lat="49.04065794311464" lon="9.09625799395144">
<ele>183.20000000000005</ele>
<time>2023-05-16T14:01:15Z</time>
</trkpt>
<trkpt lat="49.040649980306625" lon="9.096234943717718">
<ele>183.20000000000005</ele>
<time>2023-05-16T14:01:16Z</time>
</trkpt>
<trkpt lat="49.04064293950796" lon="9.09621499478817">
<ele>183</ele>
<time>2023-05-16T14:01:17Z</time>
</trkpt>
<trkpt lat="49.04063698835671" lon="9.096197979524732">
<ele>183</ele>
<time>2023-05-16T14:01:18Z</time>
</trkpt>
<trkpt lat="49.04063195921481" lon="9.096184987574816">
<ele>183</ele>
<time>2023-05-16T14:01:19Z</time>
</trkpt>
<trkpt lat="49.04065299779177" lon="9.096134947612882">
<ele>182.60000000000002</ele>
<time>2023-05-16T14:01:19Z</time>
</trkpt>
<trkpt lat="49.0406649839133" lon="9.096126984804869">
<ele>182.60000000000002</ele>
<time>2023-05-16T14:01:20Z</time>
</trkpt>
<trkpt lat="49.04067697003484" lon="9.096121955662966">
<ele>182.60000000000002</ele>
<time>2023-05-16T14:01:21Z</time>
</trkpt>
<trkpt lat="49.04068493284285" lon="9.096116926521063">
<ele>182.60000000000002</ele>
<time>2023-05-16T14:01:22Z</time>
</trkpt>
<trkpt lat="49.04068795032799" lon="9.096111981198192">
<ele>182.60000000000002</ele>
<time>2023-05-16T14:01:23Z</time>
</trkpt>
<trkpt lat="49.04069792479277" lon="9.09610996954143">
<ele>182.60000000000002</ele>
<time>2023-05-16T14:01:24Z</time>
</trkpt>
<trkpt lat="49.040714940056205" lon="9.09610795788467">
<ele>182.79999999999995</ele>
<time>2023-05-16T14:01:25Z</time>
</trkpt>
<trkpt lat="49.04072692617774" lon="9.096116926521063">
<ele>182.79999999999995</ele>
<time>2023-05-16T14:01:26Z</time>
</trkpt>
<trkpt lat="49.040732961148024" lon="9.096099995076656">
<ele>182.79999999999995</ele>
<time>2023-05-16T14:01:27Z</time>
</trkpt>
<trkpt lat="49.040736984461546" lon="9.096069987863302">
<ele>182.79999999999995</ele>
<time>2023-05-16T14:01:28Z</time>
</trkpt>
<trkpt lat="49.04073799028993" lon="9.096024977043271">
<ele>182.79999999999995</ele>
<time>2023-05-16T14:01:29Z</time>
</trkpt>
<trkpt lat="49.040736984461546" lon="9.095982983708382">
<ele>182.79999999999995</ele>
<time>2023-05-16T14:01:30Z</time>
</trkpt>
<trkpt lat="49.040736984461546" lon="9.095934955403209">
<ele>183</ele>
<time>2023-05-16T14:01:31Z</time>
</trkpt>
<trkpt lat="49.040732961148024" lon="9.095882987603545">
<ele>183</ele>
<time>2023-05-16T14:01:32Z</time>
</trkpt>
<trkpt lat="49.04072793200612" lon="9.09582993015647">
<ele>183</ele>
<time>2023-05-16T14:01:33Z</time>
</trkpt>
<trkpt lat="49.04072994366288" lon="9.095776956528425">
<ele>183</ele>
<time>2023-05-16T14:01:34Z</time>
</trkpt>
<trkpt lat="49.04072994366288" lon="9.095724988728762">
<ele>183</ele>
<time>2023-05-16T14:01:35Z</time>
</trkpt>
<trkpt lat="49.04072793200612" lon="9.095676960423589">
<ele>183</ele>
<time>2023-05-16T14:01:36Z</time>
</trkpt>
<trkpt lat="49.04072298668325" lon="9.0956349670887">
<ele>183</ele>
<time>2023-05-16T14:01:37Z</time>
</trkpt>
<trkpt lat="49.040714940056205" lon="9.095597919076681">
<ele>183</ele>
<time>2023-05-16T14:01:38Z</time>
</trkpt>
<trkpt lat="49.04070295393467" lon="9.09554997459054">
<ele>183</ele>
<time>2023-05-16T14:01:39Z</time>
</trkpt>
<trkpt lat="49.040692979469895" lon="9.095496917143464">
<ele>183</ele>
<time>2023-05-16T14:01:40Z</time>
</trkpt>
<trkpt lat="49.04067495837808" lon="9.09546297043562">
<ele>183</ele>
<time>2023-05-16T14:01:41Z</time>
</trkpt>
<trkpt lat="49.04066791757941" lon="9.095429945737123">
<ele>183</ele>
<time>2023-05-16T14:01:42Z</time>
</trkpt>
<trkpt lat="49.04065794311464" lon="9.09539993852377">
<ele>183</ele>
<time>2023-05-16T14:01:43Z</time>
</trkpt>
<trkpt lat="49.04065794311464" lon="9.095362974330783">
<ele>183</ele>
<time>2023-05-16T14:01:44Z</time>
</trkpt>
<trkpt lat="49.0406599547714" lon="9.095327937975526">
<ele>183</ele>
<time>2023-05-16T14:01:45Z</time>
</trkpt>
<trkpt lat="49.0406599547714" lon="9.095297930762172">
<ele>183.20000000000005</ele>
<time>2023-05-16T14:01:46Z</time>
</trkpt>
<trkpt lat="49.04065693728626" lon="9.09527194686234">
<ele>183.20000000000005</ele>
<time>2023-05-16T14:01:47Z</time>
</trkpt>
<trkpt lat="49.040649980306625" lon="9.09524797461927">
<ele>183.20000000000005</ele>
<time>2023-05-16T14:01:48Z</time>
</trkpt>
<trkpt lat="49.040646962821484" lon="9.09520698711276">
<ele>183.20000000000005</ele>
<time>2023-05-16T14:01:49Z</time>
</trkpt>
<trkpt lat="49.040629947558045" lon="9.095156947150826">
<ele>183.20000000000005</ele>
<time>2023-05-16T14:01:50Z</time>
</trkpt>
<trkpt lat="49.040607986971736" lon="9.095096932724118">
<ele>183.20000000000005</ele>
<time>2023-05-16T14:01:51Z</time>
</trkpt>
<trkpt lat="49.04059692285955" lon="9.095042953267694">
<ele>183.20000000000005</ele>
<time>2023-05-16T14:01:52Z</time>
</trkpt>
<trkpt lat="49.04058191925287" lon="9.094981933012605">
<ele>183.20000000000005</ele>
<time>2023-05-16T14:01:53Z</time>
</trkpt>
<trkpt lat="49.0405719447881" lon="9.094922924414277">
<ele>183.20000000000005</ele>
<time>2023-05-16T14:01:54Z</time>
</trkpt>
<trkpt lat="49.040562976151705" lon="9.0948629938066">
<ele>183.20000000000005</ele>
<time>2023-05-16T14:01:55Z</time>
</trkpt>
<trkpt lat="49.04055694118142" lon="9.094801973551512">
<ele>183.20000000000005</ele>
<time>2023-05-16T14:01:56Z</time>
</trkpt>
<trkpt lat="49.04055199585855" lon="9.094742964953184">
<ele>183.20000000000005</ele>
<time>2023-05-16T14:01:57Z</time>
</trkpt>
<trkpt lat="49.04053992591798" lon="9.094684962183237">
<ele>183.20000000000005</ele>
<time>2023-05-16T14:01:58Z</time>
</trkpt>
<trkpt lat="49.040537998080254" lon="9.094624947756529">
<ele>183.20000000000005</ele>
<time>2023-05-16T14:01:59Z</time>
</trkpt>
<trkpt lat="49.04053296893835" lon="9.094566944986582">
<ele>183</ele>
<time>2023-05-16T14:02:00Z</time>
</trkpt>
<trkpt lat="49.040537998080254" lon="9.094512965530157">
<ele>183</ele>
<time>2023-05-16T14:02:01Z</time>
</trkpt>
<trkpt lat="49.040537998080254" lon="9.094461919739842">
<ele>183</ele>
<time>2023-05-16T14:02:02Z</time>
</trkpt>
<trkpt lat="49.04053498059511" lon="9.09441196359694">
<ele>183</ele>
<time>2023-05-16T14:02:03Z</time>
</trkpt>
<trkpt lat="49.04052793979645" lon="9.094357984140515">
<ele>183</ele>
<time>2023-05-16T14:02:04Z</time>
</trkpt>
<trkpt lat="49.040521988645196" lon="9.09430492669344">
<ele>183</ele>
<time>2023-05-16T14:02:05Z</time>
</trkpt>
<trkpt lat="49.04051293618977" lon="9.094252958893776">
<ele>183</ele>
<time>2023-05-16T14:02:06Z</time>
</trkpt>
<trkpt lat="49.04051293618977" lon="9.094217922538519">
<ele>183</ele>
<time>2023-05-16T14:02:07Z</time>
</trkpt>
<trkpt lat="49.04051695950329" lon="9.094187999144197">
<ele>183</ele>
<time>2023-05-16T14:02:08Z</time>
</trkpt>
<trkpt lat="49.04051494784653" lon="9.094159919768572">
<ele>183</ele>
<time>2023-05-16T14:02:09Z</time>
</trkpt>
<trkpt lat="49.040519976988435" lon="9.094131924211979">
<ele>183</ele>
<time>2023-05-16T14:02:10Z</time>
</trkpt>
<trkpt lat="49.040517965331674" lon="9.094104934483767">
<ele>183</ele>
<time>2023-05-16T14:02:11Z</time>
</trkpt>
<trkpt lat="49.04051494784653" lon="9.094076938927174">
<ele>183</ele>
<time>2023-05-16T14:02:12Z</time>
</trkpt>
<trkpt lat="49.040521988645196" lon="9.094041986390948">
<ele>183</ele>
<time>2023-05-16T14:02:13Z</time>
</trkpt>
<trkpt lat="49.040517965331674" lon="9.094011979177594">
<ele>183</ele>
<time>2023-05-16T14:02:14Z</time>
</trkpt>
<trkpt lat="49.04051695950329" lon="9.093984989449382">
<ele>183</ele>
<time>2023-05-16T14:02:15Z</time>
</trkpt>
<trkpt lat="49.040519976988435" lon="9.093949953094125">
<ele>183</ele>
<time>2023-05-16T14:02:16Z</time>
</trkpt>
<trkpt lat="49.04053498059511" lon="9.093922963365912">
<ele>183</ele>
<time>2023-05-16T14:02:17Z</time>
</trkpt>
<trkpt lat="49.0405529178679" lon="9.093891950324178">
<ele>183.20000000000005</ele>
<time>2023-05-16T14:02:18Z</time>
</trkpt>
<trkpt lat="49.04057697393" lon="9.093864960595965">
<ele>183.20000000000005</ele>
<time>2023-05-16T14:02:19Z</time>
</trkpt>
<trkpt lat="49.04059994034469" lon="9.093836965039372">
<ele>183.20000000000005</ele>
<time>2023-05-16T14:02:20Z</time>
</trkpt>
<trkpt lat="49.040626930072904" lon="9.093804946169257">
<ele>183.39999999999998</ele>
<time>2023-05-16T14:02:21Z</time>
</trkpt>
<trkpt lat="49.04065299779177" lon="9.093777956441045">
<ele>183.39999999999998</ele>
<time>2023-05-16T14:02:22Z</time>
</trkpt>
<trkpt lat="49.04068199917674" lon="9.093744931742549">
<ele>183.39999999999998</ele>
<time>2023-05-16T14:02:23Z</time>
</trkpt>
<trkpt lat="49.04070295393467" lon="9.093706961721182">
<ele>183.60000000000002</ele>
<time>2023-05-16T14:02:24Z</time>
</trkpt>
<trkpt lat="49.04072499834001" lon="9.093662956729531">
<ele>183.60000000000002</ele>
<time>2023-05-16T14:02:25Z</time>
</trkpt>
<trkpt lat="49.04074494726956" lon="9.093626998364925">
<ele>183.79999999999995</ele>
<time>2023-05-16T14:02:26Z</time>
</trkpt>
<trkpt lat="49.04076296836138" lon="9.093579975888133">
<ele>183.79999999999995</ele>
<time>2023-05-16T14:02:27Z</time>
</trkpt>
<trkpt lat="49.04078199528158" lon="9.093546951189637">
<ele>184</ele>
<time>2023-05-16T14:02:28Z</time>
</trkpt>
<trkpt lat="49.040801944211125" lon="9.093521973118186">
<ele>184</ele>
<time>2023-05-16T14:02:29Z</time>
</trkpt>
<trkpt lat="49.040819965302944" lon="9.093496995046735">
<ele>184</ele>
<time>2023-05-16T14:02:30Z</time>
</trkpt>
<trkpt lat="49.040839998051524" lon="9.093476962298155">
<ele>184.20000000000005</ele>
<time>2023-05-16T14:02:31Z</time>
</trkpt>
<trkpt lat="49.04085994698107" lon="9.093456929549575">
<ele>184.20000000000005</ele>
<time>2023-05-16T14:02:32Z</time>
</trkpt>
<trkpt lat="49.040884925052524" lon="9.093437986448407">
<ele>184.39999999999998</ele>
<time>2023-05-16T14:02:33Z</time>
</trkpt>
<trkpt lat="49.04090998694301" lon="9.093424994498491">
<ele>184.39999999999998</ele>
<time>2023-05-16T14:02:34Z</time>
</trkpt>
<trkpt lat="49.0409329533577" lon="9.093419965356588">
<ele>184.60000000000002</ele>
<time>2023-05-16T14:02:35Z</time>
</trkpt>
<trkpt lat="49.04096698388457" lon="9.093412924557924">
<ele>184.60000000000002</ele>
<time>2023-05-16T14:02:36Z</time>
</trkpt>
<trkpt lat="49.04099799692631" lon="9.093406973406672">
<ele>184.79999999999995</ele>
<time>2023-05-16T14:02:37Z</time>
</trkpt>
<trkpt lat="49.04102792032063" lon="9.093397920951247">
<ele>185</ele>
<time>2023-05-16T14:02:38Z</time>
</trkpt>
<trkpt lat="49.041059939190745" lon="9.093394987285137">
<ele>185.20000000000005</ele>
<time>2023-05-16T14:02:39Z</time>
</trkpt>
<trkpt lat="49.04109195806086" lon="9.093386940658092">
<ele>185.20000000000005</ele>
<time>2023-05-16T14:02:40Z</time>
</trkpt>
<trkpt lat="49.04111794196069" lon="9.093377972021699">
<ele>185.39999999999998</ele>
<time>2023-05-16T14:02:41Z</time>
</trkpt>
<trkpt lat="49.041142920032144" lon="9.093369925394654">
<ele>185.60000000000002</ele>
<time>2023-05-16T14:02:42Z</time>
</trkpt>
<trkpt lat="49.04117695055902" lon="9.093357939273119">
<ele>185.60000000000002</ele>
<time>2023-05-16T14:02:43Z</time>
</trkpt>
<trkpt lat="49.041206957772374" lon="9.093334972858429">
<ele>185.79999999999995</ele>
<time>2023-05-16T14:02:44Z</time>
</trkpt>
<trkpt lat="49.04123495332897" lon="9.093314940109849">
<ele>186</ele>
<time>2023-05-16T14:02:45Z</time>
</trkpt>
<trkpt lat="49.04126294888556" lon="9.093302953988314">
<ele>186</ele>
<time>2023-05-16T14:02:46Z</time>
</trkpt>
<trkpt lat="49.04128792695701" lon="9.09329297952354">
<ele>186.20000000000005</ele>
<time>2023-05-16T14:02:47Z</time>
</trkpt>
<trkpt lat="49.041314916685224" lon="9.093282921239734">
<ele>186.20000000000005</ele>
<time>2023-05-16T14:02:48Z</time>
</trkpt>
<trkpt lat="49.04134299606085" lon="9.093266995623708">
<ele>186.39999999999998</ele>
<time>2023-05-16T14:02:49Z</time>
</trkpt>
<trkpt lat="49.04137694276869" lon="9.093259954825044">
<ele>186.60000000000002</ele>
<time>2023-05-16T14:02:50Z</time>
</trkpt>
<trkpt lat="49.041402926668525" lon="9.09325492568314">
<ele>186.79999999999995</ele>
<time>2023-05-16T14:02:51Z</time>
</trkpt>
<trkpt lat="49.041424971073866" lon="9.093242939561605">
<ele>186.79999999999995</ele>
<time>2023-05-16T14:02:52Z</time>
</trkpt>
<trkpt lat="49.041442992165685" lon="9.093236988410354">
<ele>187</ele>
<time>2023-05-16T14:02:53Z</time>
</trkpt>
<trkpt lat="49.04146294109523" lon="9.09322994761169">
<ele>187.20000000000005</ele>
<time>2023-05-16T14:02:54Z</time>
</trkpt>
<trkpt lat="49.04149697162211" lon="9.09323195926845">
<ele>187.20000000000005</ele>
<time>2023-05-16T14:02:55Z</time>
</trkpt>
<trkpt lat="49.04151692055166" lon="9.093234976753592">
<ele>187.39999999999998</ele>
<time>2023-05-16T14:02:56Z</time>
</trkpt>
<trkpt lat="49.04153795912862" lon="9.093247968703508">
<ele>187.60000000000002</ele>
<time>2023-05-16T14:02:57Z</time>
</trkpt>
<trkpt lat="49.04156494885683" lon="9.093252997845411">
<ele>187.60000000000002</ele>
<time>2023-05-16T14:02:58Z</time>
</trkpt>
<trkpt lat="49.041596967726946" lon="9.093264983966947">
<ele>187.79999999999995</ele>
<time>2023-05-16T14:02:59Z</time>
</trkpt>
<trkpt lat="49.04162798076868" lon="9.09327495843172">
<ele>188</ele>
<time>2023-05-16T14:03:00Z</time>
</trkpt>
<trkpt lat="49.041659999638796" lon="9.093284932896495">
<ele>188</ele>
<time>2023-05-16T14:03:01Z</time>
</trkpt>
<trkpt lat="49.041682966053486" lon="9.093307983130217">
<ele>188</ele>
<time>2023-05-16T14:03:02Z</time>
</trkpt>
<trkpt lat="49.041704926639795" lon="9.093326926231384">
<ele>188.20000000000005</ele>
<time>2023-05-16T14:03:03Z</time>
</trkpt>
<trkpt lat="49.04172697104514" lon="9.09333698451519">
<ele>188.20000000000005</ele>
<time>2023-05-16T14:03:04Z</time>
</trkpt>
<trkpt lat="49.041747925803065" lon="9.09333799034357">
<ele>188.20000000000005</ele>
<time>2023-05-16T14:03:05Z</time>
</trkpt>
<trkpt lat="49.04177499935031" lon="9.093341929838061">
<ele>188.39999999999998</ele>
<time>2023-05-16T14:03:06Z</time>
</trkpt>
<trkpt lat="49.04180693440139" lon="9.093347964808345">
<ele>188.39999999999998</ele>
<time>2023-05-16T14:03:07Z</time>
</trkpt>
<trkpt lat="49.04183694161475" lon="9.09335995092988">
<ele>188.39999999999998</ele>
<time>2023-05-16T14:03:08Z</time>
</trkpt>
<trkpt lat="49.0418669488281" lon="9.093374954536557">
<ele>188.39999999999998</ele>
<time>2023-05-16T14:03:09Z</time>
</trkpt>
<trkpt lat="49.041897961869836" lon="9.09338291734457">
<ele>188.60000000000002</ele>
<time>2023-05-16T14:03:10Z</time>
</trkpt>
<trkpt lat="49.04192796908319" lon="9.093389958143234">
<ele>188.60000000000002</ele>
<time>2023-05-16T14:03:11Z</time>
</trkpt>
<trkpt lat="49.0419549588114" lon="9.093397920951247">
<ele>188.60000000000002</ele>
<time>2023-05-16T14:03:12Z</time>
</trkpt>
<trkpt lat="49.04197993688285" lon="9.093412924557924">
<ele>188.79999999999995</ele>
<time>2023-05-16T14:03:13Z</time>
</trkpt>
<trkpt lat="49.042001981288195" lon="9.093432957306504">
<ele>188.79999999999995</ele>
<time>2023-05-16T14:03:14Z</time>
</trkpt>
<trkpt lat="49.042026959359646" lon="9.093447960913181">
<ele>189</ele>
<time>2023-05-16T14:03:15Z</time>
</trkpt>
<trkpt lat="49.04205294325948" lon="9.093459947034717">
<ele>189</ele>
<time>2023-05-16T14:03:16Z</time>
</trkpt>
<trkpt lat="49.04207498766482" lon="9.093476962298155">
<ele>189</ele>
<time>2023-05-16T14:03:17Z</time>
</trkpt>
<trkpt lat="49.04209996573627" lon="9.093494983389974">
<ele>189.20000000000005</ele>
<time>2023-05-16T14:03:18Z</time>
</trkpt>
<trkpt lat="49.042129972949624" lon="9.093502946197987">
<ele>189.20000000000005</ele>
<time>2023-05-16T14:03:19Z</time>
</trkpt>
<trkpt lat="49.042154951021075" lon="9.093506969511509">
<ele>189.20000000000005</ele>
<time>2023-05-16T14:03:20Z</time>
</trkpt>
<trkpt lat="49.04218696989119" lon="9.09350998699665">
<ele>189.39999999999998</ele>
<time>2023-05-16T14:03:21Z</time>
</trkpt>
<trkpt lat="49.04221496544778" lon="9.093514932319522">
<ele>189.39999999999998</ele>
<time>2023-05-16T14:03:22Z</time>
</trkpt>
<trkpt lat="49.042242961004376" lon="9.093514932319522">
<ele>189.39999999999998</ele>
<time>2023-05-16T14:03:23Z</time>
</trkpt>
<trkpt lat="49.04226793907583" lon="9.093517949804664">
<ele>189.60000000000002</ele>
<time>2023-05-16T14:03:24Z</time>
</trkpt>
<trkpt lat="49.04229995794594" lon="9.093524990603328">
<ele>189.60000000000002</ele>
<time>2023-05-16T14:03:25Z</time>
</trkpt>
<trkpt lat="49.0423299651593" lon="9.093529935926199">
<ele>189.60000000000002</ele>
<time>2023-05-16T14:03:26Z</time>
</trkpt>
<trkpt lat="49.04235997237265" lon="9.093541922047734">
<ele>189.79999999999995</ele>
<time>2023-05-16T14:03:27Z</time>
</trkpt>
<trkpt lat="49.04238696210086" lon="9.093547957018018">
<ele>189.79999999999995</ele>
<time>2023-05-16T14:03:28Z</time>
</trkpt>
<trkpt lat="49.042412946000695" lon="9.09355198033154">
<ele>190</ele>
<time>2023-05-16T14:03:29Z</time>
</trkpt>
<trkpt lat="49.042437924072146" lon="9.093554997816682">
<ele>190</ele>
<time>2023-05-16T14:03:30Z</time>
</trkpt>
<trkpt lat="49.04246499761939" lon="9.09355198033154">
<ele>190</ele>
<time>2023-05-16T14:03:31Z</time>
</trkpt>
<trkpt lat="49.04248997569084" lon="9.093559943139553">
<ele>190.20000000000005</ele>
<time>2023-05-16T14:03:32Z</time>
</trkpt>
<trkpt lat="49.04251294210553" lon="9.093569917604327">
<ele>190.20000000000005</ele>
<time>2023-05-16T14:03:33Z</time>
</trkpt>
<trkpt lat="49.04253792017698" lon="9.093572935089469">
<ele>190.39999999999998</ele>
<time>2023-05-16T14:03:34Z</time>
</trkpt>
<trkpt lat="49.042559964582324" lon="9.093577964231372">
<ele>190.39999999999998</ele>
<time>2023-05-16T14:03:35Z</time>
</trkpt>
<trkpt lat="49.04258192516863" lon="9.093584921211004">
<ele>190.39999999999998</ele>
<time>2023-05-16T14:03:36Z</time>
</trkpt>
<trkpt lat="49.04260195791721" lon="9.093591962009668">
<ele>190.60000000000002</ele>
<time>2023-05-16T14:03:37Z</time>
</trkpt>
<trkpt lat="49.04261796735227" lon="9.093596991151571">
<ele>190.60000000000002</ele>
<time>2023-05-16T14:03:38Z</time>
</trkpt>
<trkpt lat="49.04263297095895" lon="9.093596991151571">
<ele>190.79999999999995</ele>
<time>2023-05-16T14:03:39Z</time>
</trkpt>
<trkpt lat="49.04264495708048" lon="9.093596991151571">
<ele>190.79999999999995</ele>
<time>2023-05-16T14:03:40Z</time>
</trkpt>
<trkpt lat="49.042652919888496" lon="9.093596991151571">
<ele>190.79999999999995</ele>
<time>2023-05-16T14:03:41Z</time>
</trkpt>
<trkpt lat="49.04266691766679" lon="9.093596991151571">
<ele>190.79999999999995</ele>
<time>2023-05-16T14:03:42Z</time>
</trkpt>
<trkpt lat="49.04268292710185" lon="9.093579975888133">
<ele>191</ele>
<time>2023-05-16T14:03:43Z</time>
</trkpt>
<trkpt lat="49.04269692488015" lon="9.093572935089469">
<ele>191</ele>
<time>2023-05-16T14:03:44Z</time>
</trkpt>
<trkpt lat="49.04270497150719" lon="9.093564972281456">
<ele>191</ele>
<time>2023-05-16T14:03:45Z</time>
</trkpt>
<trkpt lat="49.0427269320935" lon="9.093556925654411">
<ele>191.20000000000005</ele>
<time>2023-05-16T14:03:46Z</time>
</trkpt>
<trkpt lat="49.04274696484208" lon="9.093547957018018">
<ele>191.20000000000005</ele>
<time>2023-05-16T14:03:47Z</time>
</trkpt>
<trkpt lat="49.04276297427714" lon="9.093537982553244">
<ele>191.20000000000005</ele>
<time>2023-05-16T14:03:48Z</time>
</trkpt>
<trkpt lat="49.042781917378306" lon="9.093519961461425">
<ele>191.20000000000005</ele>
<time>2023-05-16T14:03:49Z</time>
</trkpt>
<trkpt lat="49.04280496761203" lon="9.093504957854748">
<ele>191.20000000000005</ele>
<time>2023-05-16T14:03:50Z</time>
</trkpt>
<trkpt lat="49.04282793402672" lon="9.093491965904832">
<ele>191.39999999999998</ele>
<time>2023-05-16T14:03:51Z</time>
</trkpt>
<trkpt lat="49.04285693541169" lon="9.093467993661761">
<ele>191.39999999999998</ele>
<time>2023-05-16T14:03:52Z</time>
</trkpt>
<trkpt lat="49.04287998564541" lon="9.0934469550848">
<ele>191.39999999999998</ele>
<time>2023-05-16T14:03:53Z</time>
</trkpt>
<trkpt lat="49.04289993457496" lon="9.093431951478124">
<ele>191.20000000000005</ele>
<time>2023-05-16T14:03:54Z</time>
</trkpt>
<trkpt lat="49.04292298480868" lon="9.093417953699827">
<ele>191.20000000000005</ele>
<time>2023-05-16T14:03:55Z</time>
</trkpt>
<trkpt lat="49.04294293373823" lon="9.093407979235053">
<ele>191.20000000000005</ele>
<time>2023-05-16T14:03:56Z</time>
</trkpt>
<trkpt lat="49.04296296648681" lon="9.093391969799995">
<ele>191.20000000000005</ele>
<time>2023-05-16T14:03:57Z</time>
</trkpt>
<trkpt lat="49.04298199340701" lon="9.09337998367846">
<ele>191.20000000000005</ele>
<time>2023-05-16T14:03:58Z</time>
</trkpt>
<trkpt lat="49.0429999306798" lon="9.093369925394654">
<ele>191.20000000000005</ele>
<time>2023-05-16T14:03:59Z</time>
</trkpt>
<trkpt lat="49.04301795177162" lon="9.09335995092988">
<ele>191.20000000000005</ele>
<time>2023-05-16T14:04:00Z</time>
</trkpt>
<trkpt lat="49.043034967035055" lon="9.093351988121867">
<ele>191.20000000000005</ele>
<time>2023-05-16T14:04:01Z</time>
</trkpt>
<trkpt lat="49.04305198229849" lon="9.093347964808345">
<ele>191.20000000000005</ele>
<time>2023-05-16T14:04:02Z</time>
</trkpt>
<trkpt lat="49.04306799173355" lon="9.093352993950248">
<ele>191.20000000000005</ele>
<time>2023-05-16T14:04:03Z</time>
</trkpt>
<trkpt lat="49.043079977855086" lon="9.093366991728544">
<ele>191.20000000000005</ele>
<time>2023-05-16T14:04:04Z</time>
</trkpt>
<trkpt lat="49.04308995231986" lon="9.093387946486473">
<ele>191.20000000000005</ele>
<time>2023-05-16T14:04:05Z</time>
</trkpt>
<trkpt lat="49.04309498146176" lon="9.093406973406672">
<ele>191.20000000000005</ele>
<time>2023-05-16T14:04:06Z</time>
</trkpt>
<trkpt lat="49.043099926784635" lon="9.09342197701335">
<ele>191.20000000000005</ele>
<time>2023-05-16T14:04:07Z</time>
</trkpt>
<trkpt lat="49.04310495592654" lon="9.09344494342804">
<ele>191.20000000000005</ele>
<time>2023-05-16T14:04:08Z</time>
</trkpt>
<trkpt lat="49.04311291873455" lon="9.09346497617662">
<ele>191.20000000000005</ele>
<time>2023-05-16T14:04:09Z</time>
</trkpt>
<trkpt lat="49.04312498867512" lon="9.09348794259131">
<ele>191.20000000000005</ele>
<time>2023-05-16T14:04:10Z</time>
</trkpt>
<trkpt lat="49.043139992281795" lon="9.09350797533989">
<ele>191.20000000000005</ele>
<time>2023-05-16T14:04:11Z</time>
</trkpt>
<trkpt lat="49.04315792955458" lon="9.093517949804664">
<ele>191</ele>
<time>2023-05-16T14:04:12Z</time>
</trkpt>
<trkpt lat="49.04317494481802" lon="9.093522978946567">
<ele>191</ele>
<time>2023-05-16T14:04:13Z</time>
</trkpt>
<trkpt lat="49.0431949775666" lon="9.093529935926199">
<ele>191</ele>
<time>2023-05-16T14:04:14Z</time>
</trkpt>
<trkpt lat="49.04321693815291" lon="9.093529935926199">
<ele>191</ele>
<time>2023-05-16T14:04:15Z</time>
</trkpt>
<trkpt lat="49.04323697090149" lon="9.09353194758296">
<ele>190.79999999999995</ele>
<time>2023-05-16T14:04:16Z</time>
</trkpt>
<trkpt lat="49.04325792565942" lon="9.093527924269438">
<ele>190.79999999999995</ele>
<time>2023-05-16T14:04:17Z</time>
</trkpt>
<trkpt lat="49.04327997006476" lon="9.093527924269438">
<ele>190.79999999999995</ele>
<time>2023-05-16T14:04:18Z</time>
</trkpt>
<trkpt lat="49.04330695979297" lon="9.09353295341134">
<ele>190.60000000000002</ele>
<time>2023-05-16T14:04:19Z</time>
</trkpt>
<trkpt lat="49.04334199614823" lon="9.093524990603328">
<ele>190.60000000000002</ele>
<time>2023-05-16T14:04:20Z</time>
</trkpt>
<trkpt lat="49.043377954512835" lon="9.093517949804664">
<ele>190.39999999999998</ele>
<time>2023-05-16T14:04:21Z</time>
</trkpt>
<trkpt lat="49.04341693036258" lon="9.093519961461425">
<ele>190.39999999999998</ele>
<time>2023-05-16T14:04:22Z</time>
</trkpt>
<trkpt lat="49.04346194118261" lon="9.09350797533989">
<ele>190.20000000000005</ele>
<time>2023-05-16T14:04:23Z</time>
</trkpt>
<trkpt lat="49.04350494034588" lon="9.093494983389974">
<ele>190.20000000000005</ele>
<time>2023-05-16T14:04:24Z</time>
</trkpt>
<trkpt lat="49.04354299418628" lon="9.09348995424807">
<ele>190</ele>
<time>2023-05-16T14:04:25Z</time>
</trkpt>
<trkpt lat="49.04358297586441" lon="9.093484925106168">
<ele>190</ele>
<time>2023-05-16T14:04:26Z</time>
</trkpt>
<trkpt lat="49.04362798668444" lon="9.093476962298155">
<ele>189.79999999999995</ele>
<time>2023-05-16T14:04:27Z</time>
</trkpt>
<trkpt lat="49.04366796836257" lon="9.093467993661761">
<ele>189.79999999999995</ele>
<time>2023-05-16T14:04:28Z</time>
</trkpt>
<trkpt lat="49.043702920898795" lon="9.093462964519858">
<ele>189.79999999999995</ele>
<time>2023-05-16T14:04:29Z</time>
</trkpt>
<trkpt lat="49.04373493976891" lon="9.093454917892814">
<ele>189.60000000000002</ele>
<time>2023-05-16T14:04:30Z</time>
</trkpt>
<trkpt lat="49.043766958639026" lon="9.093449972569942">
<ele>189.60000000000002</ele>
<time>2023-05-16T14:04:31Z</time>
</trkpt>
<trkpt lat="49.04380199499428" lon="9.093439998105168">
<ele>189.60000000000002</ele>
<time>2023-05-16T14:04:32Z</time>
</trkpt>
<trkpt lat="49.043832924216986" lon="9.093427928164601">
<ele>189.39999999999998</ele>
<time>2023-05-16T14:04:33Z</time>
</trkpt>
<trkpt lat="49.04386695474386" lon="9.093416947871447">
<ele>189.39999999999998</ele>
<time>2023-05-16T14:04:34Z</time>
</trkpt>
<trkpt lat="49.04390199109912" lon="9.093406973406672">
<ele>189.39999999999998</ele>
<time>2023-05-16T14:04:35Z</time>
</trkpt>
<trkpt lat="49.04394197277725" lon="9.093394987285137">
<ele>189.39999999999998</ele>
<time>2023-05-16T14:04:36Z</time>
</trkpt>
<trkpt lat="49.04397692531347" lon="9.093386940658092">
<ele>189.20000000000005</ele>
<time>2023-05-16T14:04:37Z</time>
</trkpt>
<trkpt lat="49.04400995001197" lon="9.093374954536557">
<ele>189.20000000000005</ele>
<time>2023-05-16T14:04:38Z</time>
</trkpt>
<trkpt lat="49.044042974710464" lon="9.093361962586641">
<ele>189.20000000000005</ele>
<time>2023-05-16T14:04:39Z</time>
</trkpt>
<trkpt lat="49.04408999718726" lon="9.093344947323203">
<ele>189.20000000000005</ele>
<time>2023-05-16T14:04:40Z</time>
</trkpt>
<trkpt lat="49.04412293806672" lon="9.093327932059765">
<ele>189</ele>
<time>2023-05-16T14:04:41Z</time>
</trkpt>
<trkpt lat="49.04416291974485" lon="9.093312928453088">
<ele>189</ele>
<time>2023-05-16T14:04:42Z</time>
</trkpt>
<trkpt lat="49.044194938614964" lon="9.093301948159933">
<ele>189</ele>
<time>2023-05-16T14:04:43Z</time>
</trkpt>
<trkpt lat="49.04422494582832" lon="9.093286944553256">
<ele>189</ele>
<time>2023-05-16T14:04:44Z</time>
</trkpt>
<trkpt lat="49.044257970526814" lon="9.093279987573624">
<ele>189</ele>
<time>2023-05-16T14:04:45Z</time>
</trkpt>
<trkpt lat="49.0442949347198" lon="9.093271940946579">
<ele>189</ele>
<time>2023-05-16T14:04:46Z</time>
</trkpt>
<trkpt lat="49.04432997107506" lon="9.093261966481805">
<ele>189</ele>
<time>2023-05-16T14:04:47Z</time>
</trkpt>
<trkpt lat="49.04436492361128" lon="9.09325199201703">
<ele>189</ele>
<time>2023-05-16T14:04:48Z</time>
</trkpt>
<trkpt lat="49.0443969424814" lon="9.093232965096831">
<ele>189</ele>
<time>2023-05-16T14:04:49Z</time>
</trkpt>
<trkpt lat="49.044429967179894" lon="9.093217961490154">
<ele>188.79999999999995</ele>
<time>2023-05-16T14:04:50Z</time>
</trkpt>
<trkpt lat="49.04446693137288" lon="9.093206981197">
<ele>188.79999999999995</ele>
<time>2023-05-16T14:04:51Z</time>
</trkpt>
<trkpt lat="49.04450498521328" lon="9.0931879542768">
<ele>188.79999999999995</ele>
<time>2023-05-16T14:04:52Z</time>
</trkpt>
<trkpt lat="49.04454295523465" lon="9.093176973983645">
<ele>188.79999999999995</ele>
<time>2023-05-16T14:04:53Z</time>
</trkpt>
<trkpt lat="49.044581931084394" lon="9.093172950670123">
<ele>188.79999999999995</ele>
<time>2023-05-16T14:04:54Z</time>
</trkpt>
<trkpt lat="49.04461797326803" lon="9.093162976205349">
<ele>188.79999999999995</ele>
<time>2023-05-16T14:04:55Z</time>
</trkpt>
<trkpt lat="49.04465694911778" lon="9.093149984255433">
<ele>188.79999999999995</ele>
<time>2023-05-16T14:04:56Z</time>
</trkpt>
<trkpt lat="49.04469994828105" lon="9.093137998133898">
<ele>188.79999999999995</ele>
<time>2023-05-16T14:04:57Z</time>
</trkpt>
<trkpt lat="49.04474294744432" lon="9.09312299452722">
<ele>188.79999999999995</ele>
<time>2023-05-16T14:04:58Z</time>
</trkpt>
<trkpt lat="49.04478695243597" lon="9.09310296177864">
<ele>188.79999999999995</ele>
<time>2023-05-16T14:04:59Z</time>
</trkpt>
<trkpt lat="49.04483296908438" lon="9.093086952343583">
<ele>188.79999999999995</ele>
<time>2023-05-16T14:05:00Z</time>
</trkpt>
<trkpt lat="49.044879991561174" lon="9.093071948736906">
<ele>188.79999999999995</ele>
<time>2023-05-16T14:05:01Z</time>
</trkpt>
<trkpt lat="49.044921984896064" lon="9.093056945130229">
<ele>188.79999999999995</ele>
<time>2023-05-16T14:05:02Z</time>
</trkpt>
<trkpt lat="49.04495995491743" lon="9.09303992986679">
<ele>188.79999999999995</ele>
<time>2023-05-16T14:05:03Z</time>
</trkpt>
<trkpt lat="49.0449979249388" lon="9.093024926260114">
<ele>188.79999999999995</ele>
<time>2023-05-16T14:05:04Z</time>
</trkpt>
<trkpt lat="49.045034972950816" lon="9.093011934310198">
<ele>188.60000000000002</ele>
<time>2023-05-16T14:05:05Z</time>
</trkpt>
<trkpt lat="49.0450719371438" lon="9.09299693070352">
<ele>188.60000000000002</ele>
<time>2023-05-16T14:05:06Z</time>
</trkpt>
<trkpt lat="49.04510697349906" lon="9.092982932925224">
<ele>188.60000000000002</ele>
<time>2023-05-16T14:05:07Z</time>
</trkpt>
<trkpt lat="49.045142931863666" lon="9.092969940975308">
<ele>188.60000000000002</ele>
<time>2023-05-16T14:05:08Z</time>
</trkpt>
<trkpt lat="49.04517696239054" lon="9.092957954853773">
<ele>188.60000000000002</ele>
<time>2023-05-16T14:05:09Z</time>
</trkpt>
<trkpt lat="49.04520998708904" lon="9.092947980388999">
<ele>188.60000000000002</ele>
<time>2023-05-16T14:05:10Z</time>
</trkpt>
<trkpt lat="49.04524192214012" lon="9.092936916276813">
<ele>188.60000000000002</ele>
<time>2023-05-16T14:05:11Z</time>
</trkpt>
<trkpt lat="49.04527494683862" lon="9.092922918498516">
<ele>188.60000000000002</ele>
<time>2023-05-16T14:05:12Z</time>
</trkpt>
<trkpt lat="49.04530495405197" lon="9.0929099265486">
<ele>188.60000000000002</ele>
<time>2023-05-16T14:05:13Z</time>
</trkpt>
<trkpt lat="49.045332949608564" lon="9.092901963740587">
<ele>188.60000000000002</ele>
<time>2023-05-16T14:05:14Z</time>
</trkpt>
<trkpt lat="49.045357927680016" lon="9.092897940427065">
<ele>188.60000000000002</ele>
<time>2023-05-16T14:05:15Z</time>
</trkpt>
<trkpt lat="49.04538198374212" lon="9.092892995104194">
<ele>188.60000000000002</ele>
<time>2023-05-16T14:05:16Z</time>
</trkpt>
<trkpt lat="49.04540796764195" lon="9.09288696013391">
<ele>188.60000000000002</ele>
<time>2023-05-16T14:05:17Z</time>
</trkpt>
<trkpt lat="49.04543495737016" lon="9.092879919335246">
<ele>188.79999999999995</ele>
<time>2023-05-16T14:05:18Z</time>
</trkpt>
<trkpt lat="49.045464964583516" lon="9.09286793321371">
<ele>188.79999999999995</ele>
<time>2023-05-16T14:05:19Z</time>
</trkpt>
<trkpt lat="49.04549991711974" lon="9.092857958748937">
<ele>188.79999999999995</ele>
<time>2023-05-16T14:05:20Z</time>
</trkpt>
<trkpt lat="49.04553696513176" lon="9.09284496679902">
<ele>188.79999999999995</ele>
<time>2023-05-16T14:05:21Z</time>
</trkpt>
<trkpt lat="49.04557493515313" lon="9.092832980677485">
<ele>188.79999999999995</ele>
<time>2023-05-16T14:05:22Z</time>
</trkpt>
<trkpt lat="49.045612988993526" lon="9.092826945707202">
<ele>188.79999999999995</ele>
<time>2023-05-16T14:05:23Z</time>
</trkpt>
<trkpt lat="49.045652970671654" lon="9.092817977070808">
<ele>188.79999999999995</ele>
<time>2023-05-16T14:05:24Z</time>
</trkpt>
<trkpt lat="49.0456919465214" lon="9.092809930443764">
<ele>188.79999999999995</ele>
<time>2023-05-16T14:05:25Z</time>
</trkpt>
<trkpt lat="49.04573192819953" lon="9.092794926837087">
<ele>188.79999999999995</ele>
<time>2023-05-16T14:05:26Z</time>
</trkpt>
<trkpt lat="49.04577199369669" lon="9.092784952372313">
<ele>189</ele>
<time>2023-05-16T14:05:27Z</time>
</trkpt>
<trkpt lat="49.04580996371806" lon="9.092771960422397">
<ele>189</ele>
<time>2023-05-16T14:05:28Z</time>
</trkpt>
<trkpt lat="49.045847933739424" lon="9.092759974300861">
<ele>189</ele>
<time>2023-05-16T14:05:29Z</time>
</trkpt>
<trkpt lat="49.04588992707431" lon="9.092742959037423">
<ele>189</ele>
<time>2023-05-16T14:05:30Z</time>
</trkpt>
<trkpt lat="49.0459319204092" lon="9.092724937945604">
<ele>189</ele>
<time>2023-05-16T14:05:31Z</time>
</trkpt>
<trkpt lat="49.04597299173474" lon="9.092707922682166">
<ele>189</ele>
<time>2023-05-16T14:05:32Z</time>
</trkpt>
<trkpt lat="49.04601297341287" lon="9.092692919075489">
<ele>189</ele>
<time>2023-05-16T14:05:33Z</time>
</trkpt>
<trkpt lat="49.046052955091" lon="9.092679927125573">
<ele>189</ele>
<time>2023-05-16T14:05:34Z</time>
</trkpt>
<trkpt lat="49.04609193094075" lon="9.092667941004038">
<ele>189</ele>
<time>2023-05-16T14:05:35Z</time>
</trkpt>
<trkpt lat="49.046129984781146" lon="9.092654949054122">
<ele>189</ele>
<time>2023-05-16T14:05:36Z</time>
</trkpt>
<trkpt lat="49.046169966459274" lon="9.092642962932587">
<ele>189</ele>
<time>2023-05-16T14:05:37Z</time>
</trkpt>
<trkpt lat="49.04620793648064" lon="9.09262997098267">
<ele>189</ele>
<time>2023-05-16T14:05:38Z</time>
</trkpt>
<trkpt lat="49.04624992981553" lon="9.092619996517897">
<ele>189</ele>
<time>2023-05-16T14:05:39Z</time>
</trkpt>
<trkpt lat="49.04628798365593" lon="9.09260993823409">
<ele>189</ele>
<time>2023-05-16T14:05:40Z</time>
</trkpt>
<trkpt lat="49.04633198864758" lon="9.092594934627414">
<ele>189</ele>
<time>2023-05-16T14:05:41Z</time>
</trkpt>
<trkpt lat="49.04637297615409" lon="9.092576997354627">
<ele>189</ele>
<time>2023-05-16T14:05:42Z</time>
</trkpt>
<trkpt lat="49.04641295783222" lon="9.092559982091188">
<ele>189</ele>
<time>2023-05-16T14:05:43Z</time>
</trkpt>
<trkpt lat="49.04645495116711" lon="9.092544978484511">
<ele>189</ele>
<time>2023-05-16T14:05:44Z</time>
</trkpt>
<trkpt lat="49.04649996198714" lon="9.092527963221073">
<ele>189</ele>
<time>2023-05-16T14:05:45Z</time>
</trkpt>
<trkpt lat="49.04654296115041" lon="9.092509942129254">
<ele>189</ele>
<time>2023-05-16T14:05:46Z</time>
</trkpt>
<trkpt lat="49.04658797197044" lon="9.092491921037436">
<ele>189</ele>
<time>2023-05-16T14:05:47Z</time>
</trkpt>
<trkpt lat="49.04663298279047" lon="9.092474989593029">
<ele>189</ele>
<time>2023-05-16T14:05:48Z</time>
</trkpt>
<trkpt lat="49.0466779936105" lon="9.092452945187688">
<ele>189</ele>
<time>2023-05-16T14:05:49Z</time>
</trkpt>
<trkpt lat="49.04672199860215" lon="9.092422937974334">
<ele>189</ele>
<time>2023-05-16T14:05:50Z</time>
</trkpt>
<trkpt lat="49.04676499776542" lon="9.09238999709487">
<ele>189</ele>
<time>2023-05-16T14:05:51Z</time>
</trkpt>
<trkpt lat="49.04680699110031" lon="9.09235194325447">
<ele>189</ele>
<time>2023-05-16T14:05:52Z</time>
</trkpt>
<trkpt lat="49.04684697277844" lon="9.092309949919581">
<ele>189</ele>
<time>2023-05-16T14:05:53Z</time>
</trkpt>
<trkpt lat="49.04688494279981" lon="9.092267956584692">
<ele>189</ele>
<time>2023-05-16T14:05:54Z</time>
</trkpt>
<trkpt lat="49.046921990811825" lon="9.092226969078183">
<ele>189</ele>
<time>2023-05-16T14:05:55Z</time>
</trkpt>
<trkpt lat="49.04695996083319" lon="9.092182964086533">
<ele>189</ele>
<time>2023-05-16T14:05:56Z</time>
</trkpt>
<trkpt lat="49.04699994251132" lon="9.092139964923263">
<ele>189.20000000000005</ele>
<time>2023-05-16T14:05:57Z</time>
</trkpt>
<trkpt lat="49.04703992418945" lon="9.092096965759993">
<ele>189.20000000000005</ele>
<time>2023-05-16T14:05:58Z</time>
</trkpt>
<trkpt lat="49.04707998968661" lon="9.092054972425103">
<ele>189.20000000000005</ele>
<time>2023-05-16T14:05:59Z</time>
</trkpt>
<trkpt lat="49.04711997136474" lon="9.092012979090214">
<ele>189.39999999999998</ele>
<time>2023-05-16T14:06:00Z</time>
</trkpt>
<trkpt lat="49.047159953042865" lon="9.091971991583705">
<ele>189.39999999999998</ele>
<time>2023-05-16T14:06:01Z</time>
</trkpt>
<trkpt lat="49.047202952206135" lon="9.091929998248816">
<ele>189.60000000000002</ele>
<time>2023-05-16T14:06:02Z</time>
</trkpt>
<trkpt lat="49.047246957197785" lon="9.091889932751656">
<ele>189.60000000000002</ele>
<time>2023-05-16T14:06:03Z</time>
</trkpt>
<trkpt lat="49.04729196801782" lon="9.091851962730289">
<ele>189.79999999999995</ele>
<time>2023-05-16T14:06:04Z</time>
</trkpt>
<trkpt lat="49.04733697883785" lon="9.091816926375031">
<ele>189.79999999999995</ele>
<time>2023-05-16T14:06:05Z</time>
</trkpt>
<trkpt lat="49.04738198965788" lon="9.091786919161677">
<ele>189.79999999999995</ele>
<time>2023-05-16T14:06:06Z</time>
</trkpt>
<trkpt lat="49.04742691665888" lon="9.091754984110594">
<ele>190</ele>
<time>2023-05-16T14:06:07Z</time>
</trkpt>
<trkpt lat="49.04747192747891" lon="9.091722965240479">
<ele>190</ele>
<time>2023-05-16T14:06:08Z</time>
</trkpt>
<trkpt lat="49.04751492664218" lon="9.091686923056841">
<ele>190.20000000000005</ele>
<time>2023-05-16T14:06:09Z</time>
</trkpt>
<trkpt lat="49.04755691997707" lon="9.091646941378713">
<ele>190.20000000000005</ele>
<time>2023-05-16T14:06:10Z</time>
</trkpt>
<trkpt lat="49.04759799130261" lon="9.091609977185726">
<ele>190.39999999999998</ele>
<time>2023-05-16T14:06:11Z</time>
</trkpt>
<trkpt lat="49.04764199629426" lon="9.09157494083047">
<ele>190.39999999999998</ele>
<time>2023-05-16T14:06:12Z</time>
</trkpt>
<trkpt lat="49.04768298380077" lon="9.091539988294244">
<ele>190.39999999999998</ele>
<time>2023-05-16T14:06:13Z</time>
</trkpt>
<trkpt lat="49.04772195965052" lon="9.091504951938987">
<ele>190.60000000000002</ele>
<time>2023-05-16T14:06:14Z</time>
</trkpt>
<trkpt lat="49.04775498434901" lon="9.091471927240491">
<ele>190.60000000000002</ele>
<time>2023-05-16T14:06:15Z</time>
</trkpt>
<trkpt lat="49.047786919400096" lon="9.091441920027137">
<ele>190.60000000000002</ele>
<time>2023-05-16T14:06:16Z</time>
</trkpt>
<trkpt lat="49.04781499877572" lon="9.091417947784066">
<ele>190.79999999999995</ele>
<time>2023-05-16T14:06:17Z</time>
</trkpt>
<trkpt lat="49.04784198850393" lon="9.091394981369376">
<ele>190.79999999999995</ele>
<time>2023-05-16T14:06:18Z</time>
</trkpt>
<trkpt lat="49.047866966575384" lon="9.091369919478893">
<ele>190.79999999999995</ele>
<time>2023-05-16T14:06:19Z</time>
</trkpt>
<trkpt lat="49.047889932990074" lon="9.091347958892584">
<ele>191</ele>
<time>2023-05-16T14:06:20Z</time>
</trkpt>
<trkpt lat="49.04791692271829" lon="9.091322980821133">
<ele>191</ele>
<time>2023-05-16T14:06:21Z</time>
</trkpt>
<trkpt lat="49.04794793576002" lon="9.091301942244172">
<ele>191</ele>
<time>2023-05-16T14:06:22Z</time>
</trkpt>
<trkpt lat="49.0479819662869" lon="9.091276964172721">
<ele>191</ele>
<time>2023-05-16T14:06:23Z</time>
</trkpt>
<trkpt lat="49.048017924651504" lon="9.091249974444509">
<ele>191</ele>
<time>2023-05-16T14:06:24Z</time>
</trkpt>
<trkpt lat="49.04805698432028" lon="9.091219967231154">
<ele>191.20000000000005</ele>
<time>2023-05-16T14:06:25Z</time>
</trkpt>
<trkpt lat="49.04809495434165" lon="9.091191971674562">
<ele>191.20000000000005</ele>
<time>2023-05-16T14:06:26Z</time>
</trkpt>
<trkpt lat="49.04813694767654" lon="9.091159952804446">
<ele>191</ele>
<time>2023-05-16T14:06:27Z</time>
</trkpt>
<trkpt lat="49.04818195849657" lon="9.091127933934331">
<ele>191</ele>
<time>2023-05-16T14:06:28Z</time>
</trkpt>
<trkpt lat="49.0482269693166" lon="9.091096920892596">
<ele>191</ele>
<time>2023-05-16T14:06:29Z</time>
</trkpt>
<trkpt lat="49.04826996847987" lon="9.091064985841513">
<ele>191</ele>
<time>2023-05-16T14:06:30Z</time>
</trkpt>
<trkpt lat="49.04831296764314" lon="9.091034978628159">
<ele>191</ele>
<time>2023-05-16T14:06:31Z</time>
</trkpt>
<trkpt lat="49.04835697263479" lon="9.091006983071566">
<ele>191</ele>
<time>2023-05-16T14:06:32Z</time>
</trkpt>
<trkpt lat="49.04839997179806" lon="9.090977981686592">
<ele>191</ele>
<time>2023-05-16T14:06:33Z</time>
</trkpt>
<trkpt lat="49.04844196513295" lon="9.09094998613">
<ele>191</ele>
<time>2023-05-16T14:06:34Z</time>
</trkpt>
<trkpt lat="49.04848194681108" lon="9.090921990573406">
<ele>191</ele>
<time>2023-05-16T14:06:35Z</time>
</trkpt>
<trkpt lat="49.04852293431759" lon="9.090891983360052">
<ele>191</ele>
<time>2023-05-16T14:06:36Z</time>
</trkpt>
<trkpt lat="49.04856299981475" lon="9.090862981975079">
<ele>191</ele>
<time>2023-05-16T14:06:37Z</time>
</trkpt>
<trkpt lat="49.048601975664496" lon="9.090836998075247">
<ele>191.20000000000005</ele>
<time>2023-05-16T14:06:38Z</time>
</trkpt>
<trkpt lat="49.04863994568586" lon="9.090809924528003">
<ele>191.20000000000005</ele>
<time>2023-05-16T14:06:39Z</time>
</trkpt>
<trkpt lat="49.04867699369788" lon="9.09078293479979">
<ele>191.20000000000005</ele>
<time>2023-05-16T14:06:40Z</time>
</trkpt>
<trkpt lat="49.04871496371925" lon="9.090756950899959">
<ele>191.20000000000005</ele>
<time>2023-05-16T14:06:41Z</time>
</trkpt>
<trkpt lat="49.048751927912235" lon="9.09073499031365">
<ele>191.39999999999998</ele>
<time>2023-05-16T14:06:42Z</time>
</trkpt>
<trkpt lat="49.048791993409395" lon="9.090711940079927">
<ele>191.39999999999998</ele>
<time>2023-05-16T14:06:43Z</time>
</trkpt>
<trkpt lat="49.04882996343076" lon="9.090687967836857">
<ele>191.39999999999998</ele>
<time>2023-05-16T14:06:44Z</time>
</trkpt>
<trkpt lat="49.04886793345213" lon="9.090667935088277">
<ele>191.60000000000002</ele>
<time>2023-05-16T14:06:45Z</time>
</trkpt>
<trkpt lat="49.04890699312091" lon="9.090644968673587">
<ele>191.60000000000002</ele>
<time>2023-05-16T14:06:46Z</time>
</trkpt>
<trkpt lat="49.048944963142276" lon="9.090619990602136">
<ele>191.79999999999995</ele>
<time>2023-05-16T14:06:47Z</time>
</trkpt>
<trkpt lat="49.04898293316364" lon="9.090599957853556">
<ele>191.79999999999995</ele>
<time>2023-05-16T14:06:48Z</time>
</trkpt>
<trkpt lat="49.0490229986608" lon="9.090577997267246">
<ele>191.79999999999995</ele>
<time>2023-05-16T14:06:49Z</time>
</trkpt>
<trkpt lat="49.04906197451055" lon="9.090554947033525">
<ele>192</ele>
<time>2023-05-16T14:06:50Z</time>
</trkpt>
<trkpt lat="49.04910296201706" lon="9.090534998103976">
<ele>192</ele>
<time>2023-05-16T14:06:51Z</time>
</trkpt>
<trkpt lat="49.04914495535195" lon="9.090512953698635">
<ele>192</ele>
<time>2023-05-16T14:06:52Z</time>
</trkpt>
<trkpt lat="49.049182925373316" lon="9.090491998940706">
<ele>192</ele>
<time>2023-05-16T14:06:53Z</time>
</trkpt>
<trkpt lat="49.049221985042095" lon="9.090471966192126">
<ele>192.20000000000005</ele>
<time>2023-05-16T14:06:54Z</time>
</trkpt>
<trkpt lat="49.04925995506346" lon="9.090451933443546">
<ele>192.20000000000005</ele>
<time>2023-05-16T14:06:55Z</time>
</trkpt>
<trkpt lat="49.04929993674159" lon="9.090432990342379">
<ele>192.39999999999998</ele>
<time>2023-05-16T14:06:56Z</time>
</trkpt>
<trkpt lat="49.04933698475361" lon="9.090416980907321">
<ele>192.39999999999998</ele>
<time>2023-05-16T14:06:57Z</time>
</trkpt>
<trkpt lat="49.049371937289834" lon="9.090397953987122">
<ele>192.39999999999998</ele>
<time>2023-05-16T14:06:58Z</time>
</trkpt>
<trkpt lat="49.04940194450319" lon="9.090382950380445">
<ele>192.60000000000002</ele>
<time>2023-05-16T14:06:59Z</time>
</trkpt>
<trkpt lat="49.04942197725177" lon="9.09037197008729">
<ele>192.60000000000002</ele>
<time>2023-05-16T14:07:00Z</time>
</trkpt>
<trkpt lat="49.04943999834359" lon="9.090362917631865">
<ele>192.60000000000002</ele>
<time>2023-05-16T14:07:01Z</time>
</trkpt>
<trkpt lat="49.0494529902935" lon="9.090357972308993">
<ele>192.60000000000002</ele>
<time>2023-05-16T14:07:02Z</time>
</trkpt>
<trkpt lat="49.049461958929896" lon="9.090354954823852">
<ele>192.60000000000002</ele>
<time>2023-05-16T14:07:03Z</time>
</trkpt>
<trkpt lat="49.04946992173791" lon="9.09035294316709">
<ele>192.60000000000002</ele>
<time>2023-05-16T14:07:04Z</time>
</trkpt>
<trkpt lat="49.049479980021715" lon="9.090349925681949">
<ele>192.60000000000002</ele>
<time>2023-05-16T14:07:05Z</time>
</trkpt>
<trkpt lat="49.04948299750686" lon="9.090346992015839">
<ele>192.60000000000002</ele>
<time>2023-05-16T14:07:06Z</time>
</trkpt>
<trkpt lat="49.04949699528515" lon="9.090356966480613">
<ele>192.39999999999998</ele>
<time>2023-05-16T14:07:08Z</time>
</trkpt>
<trkpt lat="49.04951493255794" lon="9.090412957593799">
<ele>192</ele>
<time>2023-05-16T14:07:10Z</time>
</trkpt>
<trkpt lat="49.04951493255794" lon="9.09041496925056">
<ele>192</ele>
<time>2023-05-16T14:07:11Z</time>
</trkpt>
<trkpt lat="49.0495169442147" lon="9.090417986735702">
<ele>192</ele>
<time>2023-05-16T14:07:12Z</time>
</trkpt>
<trkpt lat="49.04951996169984" lon="9.090482946485281">
<ele>192.20000000000005</ele>
<time>2023-05-16T14:07:12Z</time>
</trkpt>
<trkpt lat="49.04953194782138" lon="9.090514965355396">
<ele>192.20000000000005</ele>
<time>2023-05-16T14:07:13Z</time>
</trkpt>
<trkpt lat="49.04955298639834" lon="9.090534998103976">
<ele>192.20000000000005</ele>
<time>2023-05-16T14:07:14Z</time>
</trkpt>
<trkpt lat="49.04957796446979" lon="9.090536925941706">
<ele>192.20000000000005</ele>
<time>2023-05-16T14:07:15Z</time>
</trkpt>
<trkpt lat="49.049609983339906" lon="9.090527957305312">
<ele>192.20000000000005</ele>
<time>2023-05-16T14:07:16Z</time>
</trkpt>
<trkpt lat="49.04964493587613" lon="9.090516977012157">
<ele>192.20000000000005</ele>
<time>2023-05-16T14:07:17Z</time>
</trkpt>
<trkpt lat="49.04968692921102" lon="9.090509936213493">
<ele>192.20000000000005</ele>
<time>2023-05-16T14:07:18Z</time>
</trkpt>
<trkpt lat="49.04972699470818" lon="9.090509936213493">
<ele>192.20000000000005</ele>
<time>2023-05-16T14:07:19Z</time>
</trkpt>
<trkpt lat="49.04976798221469" lon="9.090506918728352">
<ele>192.20000000000005</ele>
<time>2023-05-16T14:07:20Z</time>
</trkpt>
<trkpt lat="49.04980997554958" lon="9.090502979233861">
<ele>192.39999999999998</ele>
<time>2023-05-16T14:07:21Z</time>
</trkpt>
<trkpt lat="49.04984995722771" lon="9.09049996174872">
<ele>192.39999999999998</ele>
<time>2023-05-16T14:07:22Z</time>
</trkpt>
<trkpt lat="49.049891950562596" lon="9.090492920950055">
<ele>192.39999999999998</ele>
<time>2023-05-16T14:07:23Z</time>
</trkpt>
<trkpt lat="49.049931932240725" lon="9.090489987283945">
<ele>192.39999999999998</ele>
<time>2023-05-16T14:07:24Z</time>
</trkpt>
<trkpt lat="49.04996696859598" lon="9.090487975627184">
<ele>192.39999999999998</ele>
<time>2023-05-16T14:07:25Z</time>
</trkpt>
<trkpt lat="49.05000292696059" lon="9.090496944263577">
<ele>192.60000000000002</ele>
<time>2023-05-16T14:07:26Z</time>
</trkpt>
<trkpt lat="49.050036957487464" lon="9.0905199944973">
<ele>192.60000000000002</ele>
<time>2023-05-16T14:07:27Z</time>
</trkpt>
<trkpt lat="49.05006998218596" lon="9.090541955083609">
<ele>192.60000000000002</ele>
<time>2023-05-16T14:07:28Z</time>
</trkpt>
<trkpt lat="49.050104934722185" lon="9.090547990053892">
<ele>192.60000000000002</ele>
<time>2023-05-16T14:07:29Z</time>
</trkpt>
<trkpt lat="49.0501419827342" lon="9.090539943426847">
<ele>192.60000000000002</ele>
<time>2023-05-16T14:07:30Z</time>
</trkpt>
<trkpt lat="49.05017794109881" lon="9.090527957305312">
<ele>192.60000000000002</ele>
<time>2023-05-16T14:07:31Z</time>
</trkpt>
<trkpt lat="49.05021792277694" lon="9.090517982840538">
<ele>192.60000000000002</ele>
<time>2023-05-16T14:07:32Z</time>
</trkpt>
<trkpt lat="49.05025999993086" lon="9.090506918728352">
<ele>192.60000000000002</ele>
<time>2023-05-16T14:07:33Z</time>
</trkpt>
<trkpt lat="49.05029998160899" lon="9.090494932606816">
<ele>192.60000000000002</ele>
<time>2023-05-16T14:07:34Z</time>
</trkpt>
<trkpt lat="49.050339963287115" lon="9.090484958142042">
<ele>192.60000000000002</ele>
<time>2023-05-16T14:07:35Z</time>
</trkpt>
<trkpt lat="49.0503769274801" lon="9.090469954535365">
<ele>192.60000000000002</ele>
<time>2023-05-16T14:07:36Z</time>
</trkpt>
<trkpt lat="49.05041699297726" lon="9.09045696258545">
<ele>192.60000000000002</ele>
<time>2023-05-16T14:07:37Z</time>
</trkpt>
<trkpt lat="49.05045697465539" lon="9.090444976463914">
<ele>192.60000000000002</ele>
<time>2023-05-16T14:07:38Z</time>
</trkpt>
<trkpt lat="49.05049695633352" lon="9.090429972857237">
<ele>192.60000000000002</ele>
<time>2023-05-16T14:07:39Z</time>
</trkpt>
<trkpt lat="49.050534926354885" lon="9.090416980907321">
<ele>192.60000000000002</ele>
<time>2023-05-16T14:07:40Z</time>
</trkpt>
<trkpt lat="49.050576919689775" lon="9.090401977300644">
<ele>192.60000000000002</ele>
<time>2023-05-16T14:07:41Z</time>
</trkpt>
<trkpt lat="49.05061497353017" lon="9.090386973693967">
<ele>192.60000000000002</ele>
<time>2023-05-16T14:07:42Z</time>
</trkpt>
<trkpt lat="49.05065294355154" lon="9.09037197008729">
<ele>192.60000000000002</ele>
<time>2023-05-16T14:07:43Z</time>
</trkpt>
<trkpt lat="49.05069292522967" lon="9.09035294316709">
<ele>192.60000000000002</ele>
<time>2023-05-16T14:07:44Z</time>
</trkpt>
<trkpt lat="49.05073299072683" lon="9.090336933732033">
<ele>192.60000000000002</ele>
<time>2023-05-16T14:07:45Z</time>
</trkpt>
<trkpt lat="49.05077498406172" lon="9.090321930125356">
<ele>192.60000000000002</ele>
<time>2023-05-16T14:07:46Z</time>
</trkpt>
<trkpt lat="49.050814965739846" lon="9.09030994400382">
<ele>192.60000000000002</ele>
<time>2023-05-16T14:07:47Z</time>
</trkpt>
<trkpt lat="49.050854947417974" lon="9.090294940397143">
<ele>192.60000000000002</ele>
<time>2023-05-16T14:07:48Z</time>
</trkpt>
<trkpt lat="49.050896940752864" lon="9.090276919305325">
<ele>192.60000000000002</ele>
<time>2023-05-16T14:07:49Z</time>
</trkpt>
<trkpt lat="49.05093792825937" lon="9.090259987860918">
<ele>192.60000000000002</ele>
<time>2023-05-16T14:07:50Z</time>
</trkpt>
<trkpt lat="49.05097992159426" lon="9.090246995911002">
<ele>192.60000000000002</ele>
<time>2023-05-16T14:07:51Z</time>
</trkpt>
<trkpt lat="49.05101998709142" lon="9.090232998132706">
<ele>192.60000000000002</ele>
<time>2023-05-16T14:07:52Z</time>
</trkpt>
<trkpt lat="49.05106198042631" lon="9.09022193402052">
<ele>192.39999999999998</ele>
<time>2023-05-16T14:07:53Z</time>
</trkpt>
<trkpt lat="49.05110497958958" lon="9.090206930413842">
<ele>192.39999999999998</ele>
<time>2023-05-16T14:07:54Z</time>
</trkpt>
<trkpt lat="49.05114697292447" lon="9.090191926807165">
<ele>192.39999999999998</ele>
<time>2023-05-16T14:07:55Z</time>
</trkpt>
<trkpt lat="49.05118796043098" lon="9.090176923200488">
<ele>192.39999999999998</ele>
<time>2023-05-16T14:07:56Z</time>
</trkpt>
<trkpt lat="49.05123196542263" lon="9.090161919593811">
<ele>192.39999999999998</ele>
<time>2023-05-16T14:07:57Z</time>
</trkpt>
<trkpt lat="49.05127295292914" lon="9.090146999806166">
<ele>192.39999999999998</ele>
<time>2023-05-16T14:07:58Z</time>
</trkpt>
<trkpt lat="49.05131293460727" lon="9.09013694152236">
<ele>192.60000000000002</ele>
<time>2023-05-16T14:07:59Z</time>
</trkpt>
<trkpt lat="49.05135693959892" lon="9.090121937915683">
<ele>192.60000000000002</ele>
<time>2023-05-16T14:08:00Z</time>
</trkpt>
<trkpt lat="49.05140295624733" lon="9.090107940137386">
<ele>192.60000000000002</ele>
<time>2023-05-16T14:08:01Z</time>
</trkpt>
<trkpt lat="49.05144796706736" lon="9.090099977329373">
<ele>192.60000000000002</ele>
<time>2023-05-16T14:08:02Z</time>
</trkpt>
<trkpt lat="49.05149197205901" lon="9.090089919045568">
<ele>192.60000000000002</ele>
<time>2023-05-16T14:08:03Z</time>
</trkpt>
<trkpt lat="49.05153698287904" lon="9.090081956237555">
<ele>192.60000000000002</ele>
<time>2023-05-16T14:08:04Z</time>
</trkpt>
<trkpt lat="49.05157998204231" lon="9.09007198177278">
<ele>192.60000000000002</ele>
<time>2023-05-16T14:08:05Z</time>
</trkpt>
<trkpt lat="49.05162692070007" lon="9.090054966509342">
<ele>192.60000000000002</ele>
<time>2023-05-16T14:08:06Z</time>
</trkpt>
<trkpt lat="49.051672937348485" lon="9.090036945417523">
<ele>192.60000000000002</ele>
<time>2023-05-16T14:08:07Z</time>
</trkpt>
<trkpt lat="49.05172197148204" lon="9.090022947639227">
<ele>192.60000000000002</ele>
<time>2023-05-16T14:08:08Z</time>
</trkpt>
<trkpt lat="49.05177192762494" lon="9.090009955689311">
<ele>192.60000000000002</ele>
<time>2023-05-16T14:08:09Z</time>
</trkpt>
<trkpt lat="49.051819955930114" lon="9.089996963739395">
<ele>192.39999999999998</ele>
<time>2023-05-16T14:08:10Z</time>
</trkpt>
<trkpt lat="49.051866978406906" lon="9.089981960132718">
<ele>192.39999999999998</ele>
<time>2023-05-16T14:08:11Z</time>
</trkpt>
<trkpt lat="49.05191299505532" lon="9.089966956526041">
<ele>192.39999999999998</ele>
<time>2023-05-16T14:08:12Z</time>
</trkpt>
<trkpt lat="49.05195993371308" lon="9.089949941262603">
<ele>192.39999999999998</ele>
<time>2023-05-16T14:08:13Z</time>
</trkpt>
<trkpt lat="49.05200796201825" lon="9.089934937655926">
<ele>192.39999999999998</ele>
<time>2023-05-16T14:08:14Z</time>
</trkpt>
<trkpt lat="49.052056996151805" lon="9.089917922392488">
<ele>192.39999999999998</ele>
<time>2023-05-16T14:08:15Z</time>
</trkpt>
<trkpt lat="49.052104940637946" lon="9.08989797346294">
<ele>192.39999999999998</ele>
<time>2023-05-16T14:08:16Z</time>
</trkpt>
<trkpt lat="49.05215296894312" lon="9.089881964027882">
<ele>192.20000000000005</ele>
<time>2023-05-16T14:08:17Z</time>
</trkpt>
<trkpt lat="49.05220292508602" lon="9.089864948764443">
<ele>192.20000000000005</ele>
<time>2023-05-16T14:08:18Z</time>
</trkpt>
<trkpt lat="49.05225497670472" lon="9.089846927672625">
<ele>192.20000000000005</ele>
<time>2023-05-16T14:08:19Z</time>
</trkpt>
<trkpt lat="49.05230493284762" lon="9.089827984571457">
<ele>192.20000000000005</ele>
<time>2023-05-16T14:08:20Z</time>
</trkpt>
<trkpt lat="49.052356984466314" lon="9.089806945994496">
<ele>192.20000000000005</ele>
<time>2023-05-16T14:08:21Z</time>
</trkpt>
<trkpt lat="49.05240694060922" lon="9.089782973751426">
<ele>192.20000000000005</ele>
<time>2023-05-16T14:08:22Z</time>
</trkpt>
<trkpt lat="49.05245698057115" lon="9.089759923517704">
<ele>192.20000000000005</ele>
<time>2023-05-16T14:08:23Z</time>
</trkpt>
<trkpt lat="49.05250299721956" lon="9.089734945446253">
<ele>192.20000000000005</ele>
<time>2023-05-16T14:08:24Z</time>
</trkpt>
<trkpt lat="49.05254993587732" lon="9.089704938232899">
<ele>192.20000000000005</ele>
<time>2023-05-16T14:08:25Z</time>
</trkpt>
<trkpt lat="49.052596958354115" lon="9.089672919362783">
<ele>192.20000000000005</ele>
<time>2023-05-16T14:08:26Z</time>
</trkpt>
<trkpt lat="49.05264498665929" lon="9.08963997848332">
<ele>192.20000000000005</ele>
<time>2023-05-16T14:08:27Z</time>
</trkpt>
<trkpt lat="49.05269192531705" lon="9.089604942128062">
<ele>192.20000000000005</ele>
<time>2023-05-16T14:08:28Z</time>
</trkpt>
<trkpt lat="49.05273794196546" lon="9.089572923257947">
<ele>192.20000000000005</ele>
<time>2023-05-16T14:08:29Z</time>
</trkpt>
<trkpt lat="49.05278295278549" lon="9.089539982378483">
<ele>192</ele>
<time>2023-05-16T14:08:30Z</time>
</trkpt>
<trkpt lat="49.05282695777714" lon="9.089506957679987">
<ele>192</ele>
<time>2023-05-16T14:08:31Z</time>
</trkpt>
<trkpt lat="49.05286995694041" lon="9.089474938809872">
<ele>191.79999999999995</ele>
<time>2023-05-16T14:08:32Z</time>
</trkpt>
<trkpt lat="49.0529119502753" lon="9.089442919939756">
<ele>191.60000000000002</ele>
<time>2023-05-16T14:08:33Z</time>
</trkpt>
<trkpt lat="49.05295293778181" lon="9.089409979060292">
<ele>191.60000000000002</ele>
<time>2023-05-16T14:08:34Z</time>
</trkpt>
<trkpt lat="49.0529949311167" lon="9.089379971846938">
<ele>191.39999999999998</ele>
<time>2023-05-16T14:08:35Z</time>
</trkpt>
<trkpt lat="49.05303692445159" lon="9.089351976290345">
<ele>191.20000000000005</ele>
<time>2023-05-16T14:08:36Z</time>
</trkpt>
<trkpt lat="49.05307992361486" lon="9.089324986562133">
<ele>191.20000000000005</ele>
<time>2023-05-16T14:08:37Z</time>
</trkpt>
<trkpt lat="49.05312292277813" lon="9.08929799683392">
<ele>191</ele>
<time>2023-05-16T14:08:38Z</time>
</trkpt>
<trkpt lat="49.05316994525492" lon="9.089271929115057">
<ele>191</ele>
<time>2023-05-16T14:08:39Z</time>
</trkpt>
<trkpt lat="49.05321495607495" lon="9.089247956871986">
<ele>191</ele>
<time>2023-05-16T14:08:40Z</time>
</trkpt>
<trkpt lat="49.053261978551745" lon="9.089224990457296">
<ele>190.79999999999995</ele>
<time>2023-05-16T14:08:41Z</time>
</trkpt>
<trkpt lat="49.05330799520016" lon="9.089201940223575">
<ele>190.79999999999995</ele>
<time>2023-05-16T14:08:42Z</time>
</trkpt>
<trkpt lat="49.05335493385792" lon="9.089179979637265">
<ele>190.60000000000002</ele>
<time>2023-05-16T14:08:43Z</time>
</trkpt>
<trkpt lat="49.05339994467795" lon="9.089159946888685">
<ele>190.60000000000002</ele>
<time>2023-05-16T14:08:44Z</time>
</trkpt>
<trkpt lat="49.05344294384122" lon="9.089137986302376">
<ele>190.39999999999998</ele>
<time>2023-05-16T14:08:45Z</time>
</trkpt>
<trkpt lat="49.05348493717611" lon="9.089116947725415">
<ele>190.39999999999998</ele>
<time>2023-05-16T14:08:46Z</time>
</trkpt>
<trkpt lat="49.05352491885424" lon="9.089097920805216">
<ele>190.20000000000005</ele>
<time>2023-05-16T14:08:47Z</time>
</trkpt>
<trkpt lat="49.053562972694635" lon="9.089079983532429">
<ele>190.20000000000005</ele>
<time>2023-05-16T14:08:48Z</time>
</trkpt>
<trkpt lat="49.05359792523086" lon="9.08906196244061">
<ele>190</ele>
<time>2023-05-16T14:08:49Z</time>
</trkpt>
<trkpt lat="49.053627932444215" lon="9.08903799019754">
<ele>190</ele>
<time>2023-05-16T14:08:50Z</time>
</trkpt>
<trkpt lat="49.053649976849556" lon="9.089004965499043">
<ele>189.79999999999995</ele>
<time>2023-05-16T14:08:51Z</time>
</trkpt>
<trkpt lat="49.05366498045623" lon="9.088962972164154">
<ele>189.79999999999995</ele>
<time>2023-05-16T14:08:52Z</time>
</trkpt>
<trkpt lat="49.053672943264246" lon="9.088922990486026">
<ele>189.79999999999995</ele>
<time>2023-05-16T14:08:53Z</time>
</trkpt>
<trkpt lat="49.05368199571967" lon="9.088882924988866">
<ele>189.79999999999995</ele>
<time>2023-05-16T14:08:54Z</time>
</trkpt>
<trkpt lat="49.05368794687092" lon="9.088836992159486">
<ele>190</ele>
<time>2023-05-16T14:08:55Z</time>
</trkpt>
<trkpt lat="49.053691970184445" lon="9.088786952197552">
<ele>190</ele>
<time>2023-05-16T14:08:56Z</time>
</trkpt>
<trkpt lat="49.05368492938578" lon="9.088732972741127">
<ele>190</ele>
<time>2023-05-16T14:08:57Z</time>
</trkpt>
<trkpt lat="49.05367495492101" lon="9.088676981627941">
<ele>190</ele>
<time>2023-05-16T14:08:58Z</time>
</trkpt>
<trkpt lat="49.05366498045623" lon="9.088619984686375">
<ele>190</ele>
<time>2023-05-16T14:08:59Z</time>
</trkpt>
<trkpt lat="49.05365995131433" lon="9.088559970259666">
<ele>190</ele>
<time>2023-05-16T14:09:00Z</time>
</trkpt>
<trkpt lat="49.05365793965757" lon="9.08850196748972">
<ele>190</ele>
<time>2023-05-16T14:09:01Z</time>
</trkpt>
<trkpt lat="49.05365995131433" lon="9.088446982204914">
<ele>190</ele>
<time>2023-05-16T14:09:02Z</time>
</trkpt>
<trkpt lat="49.053667997941375" lon="9.088386967778206">
<ele>190</ele>
<time>2023-05-16T14:09:03Z</time>
</trkpt>
<trkpt lat="49.05368199571967" lon="9.088327959179878">
<ele>190</ele>
<time>2023-05-16T14:09:04Z</time>
</trkpt>
<trkpt lat="49.05369699932635" lon="9.088274985551834">
<ele>190</ele>
<time>2023-05-16T14:09:05Z</time>
</trkpt>
<trkpt lat="49.0537169482559" lon="9.088219916447997">
<ele>190</ele>
<time>2023-05-16T14:09:06Z</time>
</trkpt>
<trkpt lat="49.05373698100448" lon="9.088164931163192">
<ele>190</ele>
<time>2023-05-16T14:09:07Z</time>
</trkpt>
<trkpt lat="49.053754918277264" lon="9.088106928393245">
<ele>190</ele>
<time>2023-05-16T14:09:08Z</time>
</trkpt>
<trkpt lat="49.053776962682605" lon="9.088049931451678">
<ele>189.79999999999995</ele>
<time>2023-05-16T14:09:09Z</time>
</trkpt>
<trkpt lat="49.053799929097295" lon="9.087992934510112">
<ele>189.79999999999995</ele>
<time>2023-05-16T14:09:10Z</time>
</trkpt>
<trkpt lat="49.053821973502636" lon="9.087934931740165">
<ele>189.60000000000002</ele>
<time>2023-05-16T14:09:11Z</time>
</trkpt>
<trkpt lat="49.053842928260565" lon="9.087876928970218">
<ele>189.60000000000002</ele>
<time>2023-05-16T14:09:12Z</time>
</trkpt>
<trkpt lat="49.053864972665906" lon="9.08781792037189">
<ele>189.39999999999998</ele>
<time>2023-05-16T14:09:13Z</time>
</trkpt>
<trkpt lat="49.053886933252215" lon="9.087761929258704">
<ele>189.20000000000005</ele>
<time>2023-05-16T14:09:14Z</time>
</trkpt>
<trkpt lat="49.053904954344034" lon="9.087704932317138">
<ele>189.20000000000005</ele>
<time>2023-05-16T14:09:15Z</time>
</trkpt>
<trkpt lat="49.05392196960747" lon="9.08764692954719">
<ele>189</ele>
<time>2023-05-16T14:09:16Z</time>
</trkpt>
<trkpt lat="49.05393797904253" lon="9.087586998939514">
<ele>188.79999999999995</ele>
<time>2023-05-16T14:09:17Z</time>
</trkpt>
<trkpt lat="49.0539569221437" lon="9.087524972856045">
<ele>188.60000000000002</ele>
<time>2023-05-16T14:09:18Z</time>
</trkpt>
<trkpt lat="49.05397695489228" lon="9.087467975914478">
<ele>188.39999999999998</ele>
<time>2023-05-16T14:09:19Z</time>
</trkpt>
<trkpt lat="49.053992964327335" lon="9.087411984801292">
<ele>188.39999999999998</ele>
<time>2023-05-16T14:09:20Z</time>
</trkpt>
<trkpt lat="49.05400495044887" lon="9.087352976202965">
<ele>188.39999999999998</ele>
<time>2023-05-16T14:09:21Z</time>
</trkpt>
<trkpt lat="49.054014924913645" lon="9.087291955947876">
<ele>188.39999999999998</ele>
<time>2023-05-16T14:09:22Z</time>
</trkpt>
<trkpt lat="49.05402791686356" lon="9.087231941521168">
<ele>188.39999999999998</ele>
<time>2023-05-16T14:09:23Z</time>
</trkpt>
<trkpt lat="49.05403998680413" lon="9.08716999925673">
<ele>188.20000000000005</ele>
<time>2023-05-16T14:09:24Z</time>
</trkpt>
<trkpt lat="49.0540499612689" lon="9.087104955688119">
<ele>188.20000000000005</ele>
<time>2023-05-16T14:09:25Z</time>
</trkpt>
<trkpt lat="49.054059935733676" lon="9.087041923776269">
<ele>188.20000000000005</ele>
<time>2023-05-16T14:09:26Z</time>
</trkpt>
<trkpt lat="49.05406999401748" lon="9.08697796985507">
<ele>188.20000000000005</ele>
<time>2023-05-16T14:09:27Z</time>
</trkpt>
<trkpt lat="49.05408198013902" lon="9.086912926286459">
<ele>188.20000000000005</ele>
<time>2023-05-16T14:09:28Z</time>
</trkpt>
<trkpt lat="49.05409195460379" lon="9.086846960708499">
<ele>188.20000000000005</ele>
<time>2023-05-16T14:09:29Z</time>
</trkpt>
<trkpt lat="49.054099917411804" lon="9.086782922968268">
<ele>188.20000000000005</ele>
<time>2023-05-16T14:09:30Z</time>
</trkpt>
<trkpt lat="49.05410796403885" lon="9.08671997487545">
<ele>188.20000000000005</ele>
<time>2023-05-16T14:09:31Z</time>
</trkpt>
<trkpt lat="49.054119950160384" lon="9.0866569429636">
<ele>188.20000000000005</ele>
<time>2023-05-16T14:09:32Z</time>
</trkpt>
<trkpt lat="49.05412799678743" lon="9.08658997155726">
<ele>188.20000000000005</ele>
<time>2023-05-16T14:09:33Z</time>
</trkpt>
<trkpt lat="49.054139982908964" lon="9.086522916331887">
<ele>188</ele>
<time>2023-05-16T14:09:34Z</time>
</trkpt>
<trkpt lat="49.05414995737374" lon="9.086456950753927">
<ele>188</ele>
<time>2023-05-16T14:09:35Z</time>
</trkpt>
<trkpt lat="49.05415993183851" lon="9.086387967690825">
<ele>188</ele>
<time>2023-05-16T14:09:36Z</time>
</trkpt>
<trkpt lat="49.05416797846556" lon="9.086319990456104">
<ele>187.79999999999995</ele>
<time>2023-05-16T14:09:37Z</time>
</trkpt>
<trkpt lat="49.05417694710195" lon="9.086251929402351">
<ele>187.79999999999995</ele>
<time>2023-05-16T14:09:38Z</time>
</trkpt>
<trkpt lat="49.054186921566725" lon="9.08618495799601">
<ele>187.79999999999995</ele>
<time>2023-05-16T14:09:39Z</time>
</trkpt>
<trkpt lat="49.05419798567891" lon="9.08611698076129">
<ele>187.60000000000002</ele>
<time>2023-05-16T14:09:40Z</time>
</trkpt>
<trkpt lat="49.05420997180045" lon="9.086044980213046">
<ele>187.60000000000002</ele>
<time>2023-05-16T14:09:41Z</time>
</trkpt>
<trkpt lat="49.05421793460846" lon="9.085974991321564">
<ele>187.60000000000002</ele>
<time>2023-05-16T14:09:42Z</time>
</trkpt>
<trkpt lat="49.054227992892265" lon="9.08590491861105">
<ele>187.60000000000002</ele>
<time>2023-05-16T14:09:43Z</time>
</trkpt>
<trkpt lat="49.05423796735704" lon="9.085834929719567">
<ele>187.39999999999998</ele>
<time>2023-05-16T14:09:44Z</time>
</trkpt>
<trkpt lat="49.054247941821814" lon="9.085766952484846">
<ele>187.39999999999998</ele>
<time>2023-05-16T14:09:45Z</time>
</trkpt>
<trkpt lat="49.05425791628659" lon="9.085699981078506">
<ele>187.39999999999998</ele>
<time>2023-05-16T14:09:46Z</time>
</trkpt>
<trkpt lat="49.054267974570394" lon="9.085634937509894">
<ele>187.20000000000005</ele>
<time>2023-05-16T14:09:47Z</time>
</trkpt>
<trkpt lat="49.05427794903517" lon="9.085567966103554">
<ele>187.20000000000005</ele>
<time>2023-05-16T14:09:48Z</time>
</trkpt>
<trkpt lat="49.0542899351567" lon="9.085501916706562">
<ele>187.20000000000005</ele>
<time>2023-05-16T14:09:49Z</time>
</trkpt>
<trkpt lat="49.05430192127824" lon="9.08543293364346">
<ele>187.20000000000005</ele>
<time>2023-05-16T14:09:50Z</time>
</trkpt>
<trkpt lat="49.054314997047186" lon="9.085362944751978">
<ele>187</ele>
<time>2023-05-16T14:09:51Z</time>
</trkpt>
<trkpt lat="49.05432698316872" lon="9.085291950032115">
<ele>187</ele>
<time>2023-05-16T14:09:52Z</time>
</trkpt>
<trkpt lat="49.054336957633495" lon="9.085219949483871">
<ele>187</ele>
<time>2023-05-16T14:09:53Z</time>
</trkpt>
<trkpt lat="49.05434693209827" lon="9.085146943107247">
<ele>187</ele>
<time>2023-05-16T14:09:54Z</time>
</trkpt>
<trkpt lat="49.054357996210456" lon="9.085072930902243">
<ele>186.79999999999995</ele>
<time>2023-05-16T14:09:55Z</time>
</trkpt>
<trkpt lat="49.05436998233199" lon="9.084999924525619">
<ele>186.79999999999995</ele>
<time>2023-05-16T14:09:56Z</time>
</trkpt>
<trkpt lat="49.05438297428191" lon="9.084927923977375">
<ele>186.79999999999995</ele>
<time>2023-05-16T14:09:57Z</time>
</trkpt>
<trkpt lat="49.0543969720602" lon="9.084856929257512">
<ele>186.60000000000002</ele>
<time>2023-05-16T14:09:58Z</time>
</trkpt>
<trkpt lat="49.05440996401012" lon="9.084784928709269">
<ele>186.60000000000002</ele>
<time>2023-05-16T14:09:59Z</time>
</trkpt>
<trkpt lat="49.054421950131655" lon="9.084709994494915">
<ele>186.39999999999998</ele>
<time>2023-05-16T14:10:00Z</time>
</trkpt>
<trkpt lat="49.05443293042481" lon="9.08463497646153">
<ele>186.39999999999998</ele>
<time>2023-05-16T14:10:01Z</time>
</trkpt>
<trkpt lat="49.054446928203106" lon="9.084557946771383">
<ele>186.20000000000005</ele>
<time>2023-05-16T14:10:02Z</time>
</trkpt>
<trkpt lat="49.05446193180978" lon="9.084481922909617">
<ele>186</ele>
<time>2023-05-16T14:10:03Z</time>
</trkpt>
<trkpt lat="49.05447693541646" lon="9.084406988695264">
<ele>185.79999999999995</ele>
<time>2023-05-16T14:10:04Z</time>
</trkpt>
<trkpt lat="49.05449495650828" lon="9.084331970661879">
<ele>185.60000000000002</ele>
<time>2023-05-16T14:10:05Z</time>
</trkpt>
<trkpt lat="49.0545129776001" lon="9.084257958456874">
<ele>185.20000000000005</ele>
<time>2023-05-16T14:10:06Z</time>
</trkpt>
<trkpt lat="49.054529992863536" lon="9.084186963737011">
<ele>185</ele>
<time>2023-05-16T14:10:07Z</time>
</trkpt>
<trkpt lat="49.054551953449845" lon="9.084111945703626">
<ele>184.79999999999995</ele>
<time>2023-05-16T14:10:08Z</time>
</trkpt>
<trkpt lat="49.054574919864535" lon="9.084037933498621">
<ele>184.60000000000002</ele>
<time>2023-05-16T14:10:09Z</time>
</trkpt>
<trkpt lat="49.05460199341178" lon="9.083961993455887">
<ele>184.39999999999998</ele>
<time>2023-05-16T14:10:10Z</time>
</trkpt>
<trkpt lat="49.05462797731161" lon="9.083881946280599">
<ele>184.39999999999998</ele>
<time>2023-05-16T14:10:11Z</time>
</trkpt>
<trkpt lat="49.054657984524965" lon="9.083799971267581">
<ele>184.20000000000005</ele>
<time>2023-05-16T14:10:12Z</time>
</trkpt>
<trkpt lat="49.05468991957605" lon="9.083719924092293">
<ele>184.20000000000005</ele>
<time>2023-05-16T14:10:13Z</time>
</trkpt>
<trkpt lat="49.054721938446164" lon="9.083642978221178">
<ele>184</ele>
<time>2023-05-16T14:10:14Z</time>
</trkpt>
<trkpt lat="49.05475194565952" lon="9.08356293104589">
<ele>184</ele>
<time>2023-05-16T14:10:15Z</time>
</trkpt>
<trkpt lat="49.05478295870125" lon="9.083482967689633">
<ele>183.79999999999995</ele>
<time>2023-05-16T14:10:16Z</time>
</trkpt>
<trkpt lat="49.05481497757137" lon="9.083404932171106">
<ele>183.79999999999995</ele>
<time>2023-05-16T14:10:17Z</time>
</trkpt>
<trkpt lat="49.05484791845083" lon="9.083327986299992">
<ele>183.60000000000002</ele>
<time>2023-05-16T14:10:18Z</time>
</trkpt>
<trkpt lat="49.05488295480609" lon="9.083252968266606">
<ele>183.39999999999998</ele>
<time>2023-05-16T14:10:19Z</time>
</trkpt>
<trkpt lat="49.054916985332966" lon="9.083177950233221">
<ele>183.39999999999998</ele>
<time>2023-05-16T14:10:20Z</time>
</trkpt>
<trkpt lat="49.05495294369757" lon="9.083101926371455">
<ele>183.20000000000005</ele>
<time>2023-05-16T14:10:21Z</time>
</trkpt>
<trkpt lat="49.05499191954732" lon="9.083027997985482">
<ele>183</ele>
<time>2023-05-16T14:10:22Z</time>
</trkpt>
<trkpt lat="49.05502997338772" lon="9.082952979952097">
<ele>183</ele>
<time>2023-05-16T14:10:23Z</time>
</trkpt>
<trkpt lat="49.055067943409085" lon="9.082877961918712">
<ele>182.79999999999995</ele>
<time>2023-05-16T14:10:24Z</time>
</trkpt>
<trkpt lat="49.05510792508721" lon="9.082804955542088">
<ele>182.60000000000002</ele>
<time>2023-05-16T14:10:25Z</time>
</trkpt>
<trkpt lat="49.05514698475599" lon="9.082731949165463">
<ele>182.39999999999998</ele>
<time>2023-05-16T14:10:26Z</time>
</trkpt>
<trkpt lat="49.0551829431206" lon="9.082656931132078">
<ele>182.39999999999998</ele>
<time>2023-05-16T14:10:27Z</time>
</trkpt>
<trkpt lat="49.05522191897035" lon="9.082582918927073">
<ele>182.20000000000005</ele>
<time>2023-05-16T14:10:28Z</time>
</trkpt>
<trkpt lat="49.055259972810745" lon="9.08251192420721">
<ele>181.79999999999995</ele>
<time>2023-05-16T14:10:29Z</time>
</trkpt>
<trkpt lat="49.05529995448887" lon="9.082437995821238">
<ele>181.60000000000002</ele>
<time>2023-05-16T14:10:30Z</time>
</trkpt>
<trkpt lat="49.05534295365214" lon="9.082366917282343">
<ele>181.39999999999998</ele>
<time>2023-05-16T14:10:31Z</time>
</trkpt>
<trkpt lat="49.055386958643794" lon="9.08229298889637">
<ele>181.20000000000005</ele>
<time>2023-05-16T14:10:32Z</time>
</trkpt>
<trkpt lat="49.055431969463825" lon="9.082216965034604">
<ele>181</ele>
<time>2023-05-16T14:10:33Z</time>
</trkpt>
<trkpt lat="49.055474968627095" lon="9.082139935344458">
<ele>180.60000000000002</ele>
<time>2023-05-16T14:10:34Z</time>
</trkpt>
<trkpt lat="49.055519979447126" lon="9.082062989473343">
<ele>180.39999999999998</ele>
<time>2023-05-16T14:10:35Z</time>
</trkpt>
<trkpt lat="49.05556691810489" lon="9.081981936469674">
<ele>180</ele>
<time>2023-05-16T14:10:36Z</time>
</trkpt>
<trkpt lat="49.0556129347533" lon="9.081896943971515">
<ele>179.60000000000002</ele>
<time>2023-05-16T14:10:37Z</time>
</trkpt>
<trkpt lat="49.05566196888685" lon="9.081809939816594">
<ele>179.20000000000005</ele>
<time>2023-05-16T14:10:38Z</time>
</trkpt>
<trkpt lat="49.055714942514896" lon="9.081717990338802">
<ele>178.79999999999995</ele>
<time>2023-05-16T14:10:39Z</time>
</trkpt>
<trkpt lat="49.05576799996197" lon="9.081622939556837">
<ele>178.39999999999998</ele>
<time>2023-05-16T14:10:40Z</time>
</trkpt>
<trkpt lat="49.05582298524678" lon="9.08152193762362">
<ele>177.79999999999995</ele>
<time>2023-05-16T14:10:41Z</time>
</trkpt>
<trkpt lat="49.05587797053158" lon="9.081414984539151">
<ele>177.39999999999998</ele>
<time>2023-05-16T14:10:42Z</time>
</trkpt>
<trkpt lat="49.05593295581639" lon="9.081304930150509">
<ele>176.79999999999995</ele>
<time>2023-05-16T14:10:43Z</time>
</trkpt>
<trkpt lat="49.055989952757955" lon="9.081181967630982">
<ele>176.39999999999998</ele>
<time>2023-05-16T14:10:44Z</time>
</trkpt>
<trkpt lat="49.05604192055762" lon="9.081084989011288">
<ele>175.79999999999995</ele>
<time>2023-05-16T14:10:45Z</time>
</trkpt>
<trkpt lat="49.056096989661455" lon="9.080967977643013">
<ele>175.20000000000005</ele>
<time>2023-05-16T14:10:46Z</time>
</trkpt>
<trkpt lat="49.0561499632895" lon="9.080851972103119">
<ele>174.60000000000002</ele>
<time>2023-05-16T14:10:47Z</time>
</trkpt>
<trkpt lat="49.05621198937297" lon="9.080734960734844">
<ele>174.20000000000005</ele>
<time>2023-05-16T14:10:48Z</time>
</trkpt>
<trkpt lat="49.056272925809026" lon="9.08063798211515">
<ele>173.60000000000002</ele>
<time>2023-05-16T14:10:49Z</time>
</trkpt>
<trkpt lat="49.05634492635727" lon="9.080536980181932">
<ele>173</ele>
<time>2023-05-16T14:10:50Z</time>
</trkpt>
<trkpt lat="49.05641198158264" lon="9.080436984077096">
<ele>172.39999999999998</ele>
<time>2023-05-16T14:10:51Z</time>
</trkpt>
<trkpt lat="49.05646797269583" lon="9.08033992163837">
<ele>171.79999999999995</ele>
<time>2023-05-16T14:10:52Z</time>
</trkpt>
<trkpt lat="49.05651994049549" lon="9.0802329685539">
<ele>171.39999999999998</ele>
<time>2023-05-16T14:10:53Z</time>
</trkpt>
<trkpt lat="49.0565799549222" lon="9.08012199215591">
<ele>170.79999999999995</ele>
<time>2023-05-16T14:10:54Z</time>
</trkpt>
<trkpt lat="49.05664298683405" lon="9.080032976344228">
<ele>170</ele>
<time>2023-05-16T14:10:55Z</time>
</trkpt>
<trkpt lat="49.05670694075525" lon="9.079957958310843">
<ele>169.39999999999998</ele>
<time>2023-05-16T14:10:56Z</time>
</trkpt>
<trkpt lat="49.0567699726671" lon="9.07988796941936">
<ele>168.79999999999995</ele>
<time>2023-05-16T14:10:57Z</time>
</trkpt>
<trkpt lat="49.05683199875057" lon="9.079826949164271">
<ele>168.39999999999998</ele>
<time>2023-05-16T14:10:58Z</time>
</trkpt>
<trkpt lat="49.056891929358244" lon="9.079764923080802">
<ele>168</ele>
<time>2023-05-16T14:10:59Z</time>
</trkpt>
<trkpt lat="49.05694993212819" lon="9.079709937795997">
<ele>167.79999999999995</ele>
<time>2023-05-16T14:11:00Z</time>
</trkpt>
<trkpt lat="49.05700692906976" lon="9.079661993309855">
<ele>167.60000000000002</ele>
<time>2023-05-16T14:11:01Z</time>
</trkpt>
<trkpt lat="49.05705998651683" lon="9.079612959176302">
<ele>167.60000000000002</ele>
<time>2023-05-16T14:11:02Z</time>
</trkpt>
<trkpt lat="49.0571119543165" lon="9.079564930871129">
<ele>167.60000000000002</ele>
<time>2023-05-16T14:11:03Z</time>
</trkpt>
<trkpt lat="49.05716199427843" lon="9.079517992213368">
<ele>167.79999999999995</ele>
<time>2023-05-16T14:11:04Z</time>
</trkpt>
<trkpt lat="49.05720993876457" lon="9.079472981393337">
<ele>168</ele>
<time>2023-05-16T14:11:05Z</time>
</trkpt>
<trkpt lat="49.057257967069745" lon="9.079424953088164">
<ele>168</ele>
<time>2023-05-16T14:11:06Z</time>
</trkpt>
<trkpt lat="49.05730691738427" lon="9.079379942268133">
<ele>168.20000000000005</ele>
<time>2023-05-16T14:11:07Z</time>
</trkpt>
<trkpt lat="49.05735796317458" lon="9.079331997781992">
<ele>168.20000000000005</ele>
<time>2023-05-16T14:11:08Z</time>
</trkpt>
<trkpt lat="49.057407919317484" lon="9.079282963648438">
<ele>168.20000000000005</ele>
<time>2023-05-16T14:11:09Z</time>
</trkpt>
<trkpt lat="49.05745997093618" lon="9.079232923686504">
<ele>168.20000000000005</ele>
<time>2023-05-16T14:11:10Z</time>
</trkpt>
<trkpt lat="49.05751193873584" lon="9.079189924523234">
<ele>168.20000000000005</ele>
<time>2023-05-16T14:11:11Z</time>
</trkpt>
<trkpt lat="49.05756298452616" lon="9.079144997522235">
<ele>168.20000000000005</ele>
<time>2023-05-16T14:11:12Z</time>
</trkpt>
<trkpt lat="49.05761696398258" lon="9.079097975045443">
<ele>168.20000000000005</ele>
<time>2023-05-16T14:11:13Z</time>
</trkpt>
<trkpt lat="49.057669937610626" lon="9.07905195839703">
<ele>168.20000000000005</ele>
<time>2023-05-16T14:11:14Z</time>
</trkpt>
<trkpt lat="49.05772198922932" lon="9.079006947577">
<ele>168.20000000000005</ele>
<time>2023-05-16T14:11:15Z</time>
</trkpt>
<trkpt lat="49.057772951200604" lon="9.078959925100207">
<ele>168.20000000000005</ele>
<time>2023-05-16T14:11:16Z</time>
</trkpt>
<trkpt lat="49.05782693065703" lon="9.078911980614066">
<ele>168.20000000000005</ele>
<time>2023-05-16T14:11:17Z</time>
</trkpt>
<trkpt lat="49.057879988104105" lon="9.078866969794035">
<ele>168.20000000000005</ele>
<time>2023-05-16T14:11:18Z</time>
</trkpt>
<trkpt lat="49.05793195590377" lon="9.078822964802384">
<ele>168.20000000000005</ele>
<time>2023-05-16T14:11:19Z</time>
</trkpt>
<trkpt lat="49.0579819958657" lon="9.078779965639114">
<ele>168</ele>
<time>2023-05-16T14:11:20Z</time>
</trkpt>
<trkpt lat="49.05802792869508" lon="9.078736966475844">
<ele>168</ele>
<time>2023-05-16T14:11:21Z</time>
</trkpt>
<trkpt lat="49.05807796865702" lon="9.078691955655813">
<ele>168</ele>
<time>2023-05-16T14:11:22Z</time>
</trkpt>
<trkpt lat="49.05812792479992" lon="9.078646944835782">
<ele>167.79999999999995</ele>
<time>2023-05-16T14:11:23Z</time>
</trkpt>
<trkpt lat="49.058179976418614" lon="9.07860193401575">
<ele>167.79999999999995</ele>
<time>2023-05-16T14:11:24Z</time>
</trkpt>
<trkpt lat="49.05823194421828" lon="9.07855499535799">
<ele>167.60000000000002</ele>
<time>2023-05-16T14:11:25Z</time>
</trkpt>
<trkpt lat="49.05828491784632" lon="9.078509984537959">
<ele>167.60000000000002</ele>
<time>2023-05-16T14:11:26Z</time>
</trkpt>
<trkpt lat="49.05834199860692" lon="9.0784699190408">
<ele>167.39999999999998</ele>
<time>2023-05-16T14:11:27Z</time>
</trkpt>
<trkpt lat="49.058397989720106" lon="9.078436978161335">
<ele>167.20000000000005</ele>
<time>2023-05-16T14:11:28Z</time>
</trkpt>
<trkpt lat="49.05845498666167" lon="9.078401941806078">
<ele>167</ele>
<time>2023-05-16T14:11:29Z</time>
</trkpt>
<trkpt lat="49.05850796028972" lon="9.078366989269853">
<ele>167</ele>
<time>2023-05-16T14:11:30Z</time>
</trkpt>
<trkpt lat="49.05855791643262" lon="9.078322984278202">
<ele>166.79999999999995</ele>
<time>2023-05-16T14:11:31Z</time>
</trkpt>
<trkpt lat="49.05860493890941" lon="9.078277973458171">
<ele>166.60000000000002</ele>
<time>2023-05-16T14:11:32Z</time>
</trkpt>
<trkpt lat="49.05864793807268" lon="9.07823195680976">
<ele>166.60000000000002</ele>
<time>2023-05-16T14:11:33Z</time>
</trkpt>
<trkpt lat="49.05869194306433" lon="9.078182922676206">
<ele>166.39999999999998</ele>
<time>2023-05-16T14:11:34Z</time>
</trkpt>
<trkpt lat="49.05873695388436" lon="9.078136989846826">
<ele>166.20000000000005</ele>
<time>2023-05-16T14:11:35Z</time>
</trkpt>
<trkpt lat="49.058782970532775" lon="9.078086949884892">
<ele>166.20000000000005</ele>
<time>2023-05-16T14:11:36Z</time>
</trkpt>
<trkpt lat="49.0588319208473" lon="9.078034982085228">
<ele>166</ele>
<time>2023-05-16T14:11:37Z</time>
</trkpt>
<trkpt lat="49.05887994915247" lon="9.077981924638152">
<ele>165.79999999999995</ele>
<time>2023-05-16T14:11:38Z</time>
</trkpt>
<trkpt lat="49.05892797745764" lon="9.077927945181727">
<ele>165.60000000000002</ele>
<time>2023-05-16T14:11:39Z</time>
</trkpt>
<trkpt lat="49.058974999934435" lon="9.077876983210444">
<ele>165.39999999999998</ele>
<time>2023-05-16T14:11:40Z</time>
</trkpt>
<trkpt lat="49.059021938592196" lon="9.07782493159175">
<ele>165.20000000000005</ele>
<time>2023-05-16T14:11:41Z</time>
</trkpt>
<trkpt lat="49.05906795524061" lon="9.077772963792086">
<ele>165</ele>
<time>2023-05-16T14:11:42Z</time>
</trkpt>
<trkpt lat="49.05911296606064" lon="9.077719990164042">
<ele>164.60000000000002</ele>
<time>2023-05-16T14:11:43Z</time>
</trkpt>
<trkpt lat="49.05915697105229" lon="9.07767497934401">
<ele>164.20000000000005</ele>
<time>2023-05-16T14:11:44Z</time>
</trkpt>
<trkpt lat="49.05919997021556" lon="9.077624939382076">
<ele>164</ele>
<time>2023-05-16T14:11:45Z</time>
</trkpt>
<trkpt lat="49.059237940236926" lon="9.077576994895935">
<ele>163.60000000000002</ele>
<time>2023-05-16T14:11:46Z</time>
</trkpt>
<trkpt lat="49.059276999905705" lon="9.077522931620479">
<ele>163.20000000000005</ele>
<time>2023-05-16T14:11:47Z</time>
</trkpt>
<trkpt lat="49.05931496992707" lon="9.077466940507293">
<ele>163</ele>
<time>2023-05-16T14:11:48Z</time>
</trkpt>
<trkpt lat="49.05934799462557" lon="9.077412961050868">
<ele>162.79999999999995</ele>
<time>2023-05-16T14:11:49Z</time>
</trkpt>
<trkpt lat="49.05937992967665" lon="9.077356969937682">
<ele>162.79999999999995</ele>
<time>2023-05-16T14:11:50Z</time>
</trkpt>
<trkpt lat="49.05941295437515" lon="9.077299972996116">
<ele>162.79999999999995</ele>
<time>2023-05-16T14:11:51Z</time>
</trkpt>
<trkpt lat="49.05944497324526" lon="9.07724297605455">
<ele>162.79999999999995</ele>
<time>2023-05-16T14:11:52Z</time>
</trkpt>
<trkpt lat="49.05947699211538" lon="9.077186984941363">
<ele>162.79999999999995</ele>
<time>2023-05-16T14:11:53Z</time>
</trkpt>
<trkpt lat="49.05950699932873" lon="9.077129987999797">
<ele>162.79999999999995</ele>
<time>2023-05-16T14:11:54Z</time>
</trkpt>
<trkpt lat="49.059534994885325" lon="9.077069973573089">
<ele>162.60000000000002</ele>
<time>2023-05-16T14:11:55Z</time>
</trkpt>
<trkpt lat="49.05956299044192" lon="9.077006941661239">
<ele>162.60000000000002</ele>
<time>2023-05-16T14:11:56Z</time>
</trkpt>
<trkpt lat="49.05959199182689" lon="9.076944999396801">
<ele>162.60000000000002</ele>
<time>2023-05-16T14:11:57Z</time>
</trkpt>
<trkpt lat="49.059621999040246" lon="9.076882973313332">
<ele>162.60000000000002</ele>
<time>2023-05-16T14:11:58Z</time>
</trkpt>
<trkpt lat="49.05965192243457" lon="9.07681792974472">
<ele>162.60000000000002</ele>
<time>2023-05-16T14:11:59Z</time>
</trkpt>
<trkpt lat="49.05967991799116" lon="9.076752969995141">
<ele>162.60000000000002</ele>
<time>2023-05-16T14:12:00Z</time>
</trkpt>
<trkpt lat="49.059709925204515" lon="9.07668499276042">
<ele>162.60000000000002</ele>
<time>2023-05-16T14:12:01Z</time>
</trkpt>
<trkpt lat="49.05974294990301" lon="9.076619949191809">
<ele>162.39999999999998</ele>
<time>2023-05-16T14:12:02Z</time>
</trkpt>
<trkpt lat="49.05977698042989" lon="9.076547948643565">
<ele>162.39999999999998</ele>
<time>2023-05-16T14:12:03Z</time>
</trkpt>
<trkpt lat="49.059812938794494" lon="9.076476953923702">
<ele>162.39999999999998</ele>
<time>2023-05-16T14:12:04Z</time>
</trkpt>
<trkpt lat="49.05984998680651" lon="9.0764079708606">
<ele>162.39999999999998</ele>
<time>2023-05-16T14:12:05Z</time>
</trkpt>
<trkpt lat="49.05988996848464" lon="9.076337981969118">
<ele>162.20000000000005</ele>
<time>2023-05-16T14:12:06Z</time>
</trkpt>
<trkpt lat="49.05992793850601" lon="9.076267993077636">
<ele>162.20000000000005</ele>
<time>2023-05-16T14:12:07Z</time>
</trkpt>
<trkpt lat="49.059967920184135" lon="9.076197920367122">
<ele>162.20000000000005</ele>
<time>2023-05-16T14:12:08Z</time>
</trkpt>
<trkpt lat="49.060007985681295" lon="9.0761299431324">
<ele>162.20000000000005</ele>
<time>2023-05-16T14:12:09Z</time>
</trkpt>
<trkpt lat="49.060047967359424" lon="9.076064983382821">
<ele>162</ele>
<time>2023-05-16T14:12:10Z</time>
</trkpt>
<trkpt lat="49.06008794903755" lon="9.075997928157449">
<ele>162</ele>
<time>2023-05-16T14:12:11Z</time>
</trkpt>
<trkpt lat="49.06012994237244" lon="9.075936991721392">
<ele>162</ele>
<time>2023-05-16T14:12:12Z</time>
</trkpt>
<trkpt lat="49.06017193570733" lon="9.075874965637922">
<ele>162</ele>
<time>2023-05-16T14:12:13Z</time>
</trkpt>
<trkpt lat="49.06021191738546" lon="9.075807994231582">
<ele>162</ele>
<time>2023-05-16T14:12:14Z</time>
</trkpt>
<trkpt lat="49.06025491654873" lon="9.07574194483459">
<ele>162</ele>
<time>2023-05-16T14:12:15Z</time>
</trkpt>
<trkpt lat="49.06029699370265" lon="9.07567497342825">
<ele>162</ele>
<time>2023-05-16T14:12:16Z</time>
</trkpt>
<trkpt lat="49.06033798120916" lon="9.075609929859638">
<ele>162</ele>
<time>2023-05-16T14:12:17Z</time>
</trkpt>
<trkpt lat="49.06038198620081" lon="9.075544970110059">
<ele>161.79999999999995</ele>
<time>2023-05-16T14:12:18Z</time>
</trkpt>
<trkpt lat="49.06042699702084" lon="9.075477998703718">
<ele>161.60000000000002</ele>
<time>2023-05-16T14:12:19Z</time>
</trkpt>
<trkpt lat="49.06047192402184" lon="9.075414966791868">
<ele>161.39999999999998</ele>
<time>2023-05-16T14:12:20Z</time>
</trkpt>
<trkpt lat="49.060521963983774" lon="9.07535495236516">
<ele>161.20000000000005</ele>
<time>2023-05-16T14:12:21Z</time>
</trkpt>
<trkpt lat="49.06056999228895" lon="9.07528999261558">
<ele>160.79999999999995</ele>
<time>2023-05-16T14:12:22Z</time>
</trkpt>
<trkpt lat="49.06061793677509" lon="9.07522494904697">
<ele>160.60000000000002</ele>
<time>2023-05-16T14:12:23Z</time>
</trkpt>
<trkpt lat="49.06066797673702" lon="9.07515998929739">
<ele>160.39999999999998</ele>
<time>2023-05-16T14:12:24Z</time>
</trkpt>
<trkpt lat="49.060716927051544" lon="9.075091928243637">
<ele>160</ele>
<time>2023-05-16T14:12:25Z</time>
</trkpt>
<trkpt lat="49.06076696701348" lon="9.075022945180535">
<ele>159.79999999999995</ele>
<time>2023-05-16T14:12:26Z</time>
</trkpt>
<trkpt lat="49.06081792898476" lon="9.074956979602575">
<ele>159.39999999999998</ele>
<time>2023-05-16T14:12:27Z</time>
</trkpt>
<trkpt lat="49.060867968946695" lon="9.074884979054332">
<ele>159</ele>
<time>2023-05-16T14:12:28Z</time>
</trkpt>
<trkpt lat="49.0609179250896" lon="9.074811972677708">
<ele>158.60000000000002</ele>
<time>2023-05-16T14:12:29Z</time>
</trkpt>
<trkpt lat="49.06096796505153" lon="9.074737960472703">
<ele>158</ele>
<time>2023-05-16T14:12:30Z</time>
</trkpt>
<trkpt lat="49.061016999185085" lon="9.074661936610937">
<ele>157.39999999999998</ele>
<time>2023-05-16T14:12:31Z</time>
</trkpt>
<trkpt lat="49.061061926186085" lon="9.074584990739822">
<ele>156.79999999999995</ele>
<time>2023-05-16T14:12:32Z</time>
</trkpt>
<trkpt lat="49.061104925349355" lon="9.074504943564534">
<ele>156.20000000000005</ele>
<time>2023-05-16T14:12:33Z</time>
</trkpt>
<trkpt lat="49.061149936169386" lon="9.07442799769342">
<ele>155.79999999999995</ele>
<time>2023-05-16T14:12:34Z</time>
</trkpt>
<trkpt lat="49.061192935332656" lon="9.074351973831654">
<ele>155.39999999999998</ele>
<time>2023-05-16T14:12:35Z</time>
</trkpt>
<trkpt lat="49.06123694032431" lon="9.07427997328341">
<ele>155.20000000000005</ele>
<time>2023-05-16T14:12:36Z</time>
</trkpt>
<trkpt lat="49.06128195114434" lon="9.074202943593264">
<ele>155.20000000000005</ele>
<time>2023-05-16T14:12:37Z</time>
</trkpt>
<trkpt lat="49.06132495030761" lon="9.074124991893768">
<ele>155</ele>
<time>2023-05-16T14:12:38Z</time>
</trkpt>
<trkpt lat="49.06136794947088" lon="9.074049973860383">
<ele>155.20000000000005</ele>
<time>2023-05-16T14:12:39Z</time>
</trkpt>
<trkpt lat="49.06141296029091" lon="9.073972944170237">
<ele>155.20000000000005</ele>
<time>2023-05-16T14:12:40Z</time>
</trkpt>
<trkpt lat="49.0614599827677" lon="9.07389692030847">
<ele>155.20000000000005</ele>
<time>2023-05-16T14:12:41Z</time>
</trkpt>
<trkpt lat="49.06150499358773" lon="9.073819974437356">
<ele>155.20000000000005</ele>
<time>2023-05-16T14:12:42Z</time>
</trkpt>
<trkpt lat="49.06154992058873" lon="9.07374294474721">
<ele>155.20000000000005</ele>
<time>2023-05-16T14:12:43Z</time>
</trkpt>
<trkpt lat="49.061596943065524" lon="9.073671950027347">
<ele>155.20000000000005</ele>
<time>2023-05-16T14:12:44Z</time>
</trkpt>
<trkpt lat="49.061639942228794" lon="9.073599949479103">
<ele>155.20000000000005</ele>
<time>2023-05-16T14:12:45Z</time>
</trkpt>
<trkpt lat="49.06168193556368" lon="9.07352794893086">
<ele>155.20000000000005</ele>
<time>2023-05-16T14:12:46Z</time>
</trkpt>
<trkpt lat="49.06172493472695" lon="9.073452930897474">
<ele>155.20000000000005</ele>
<time>2023-05-16T14:12:47Z</time>
</trkpt>
<trkpt lat="49.061769945546985" lon="9.073381936177611">
<ele>155.20000000000005</ele>
<time>2023-05-16T14:12:48Z</time>
</trkpt>
<trkpt lat="49.061812944710255" lon="9.07331295311451">
<ele>155.20000000000005</ele>
<time>2023-05-16T14:12:49Z</time>
</trkpt>
<trkpt lat="49.061857955530286" lon="9.073244975879788">
<ele>155</ele>
<time>2023-05-16T14:12:50Z</time>
</trkpt>
<trkpt lat="49.061901960521936" lon="9.073174986988306">
<ele>155</ele>
<time>2023-05-16T14:12:51Z</time>
</trkpt>
<trkpt lat="49.061942948028445" lon="9.073104998096824">
<ele>155</ele>
<time>2023-05-16T14:12:52Z</time>
</trkpt>
<trkpt lat="49.061984941363335" lon="9.07303693704307">
<ele>154.79999999999995</ele>
<time>2023-05-16T14:12:53Z</time>
</trkpt>
<trkpt lat="49.062027940526605" lon="9.07296996563673">
<ele>154.60000000000002</ele>
<time>2023-05-16T14:12:54Z</time>
</trkpt>
<trkpt lat="49.062069933861494" lon="9.072904922068119">
<ele>154.60000000000002</ele>
<time>2023-05-16T14:12:55Z</time>
</trkpt>
<trkpt lat="49.062112933024764" lon="9.072837950661778">
<ele>154.39999999999998</ele>
<time>2023-05-16T14:12:56Z</time>
</trkpt>
<trkpt lat="49.062156938016415" lon="9.072771985083818">
<ele>154.20000000000005</ele>
<time>2023-05-16T14:12:57Z</time>
</trkpt>
<trkpt lat="49.062199937179685" lon="9.072706941515207">
<ele>154</ele>
<time>2023-05-16T14:12:58Z</time>
</trkpt>
<trkpt lat="49.062244947999716" lon="9.072641981765628">
<ele>153.79999999999995</ele>
<time>2023-05-16T14:12:59Z</time>
</trkpt>
<trkpt lat="49.062287947162986" lon="9.072574926540256">
<ele>153.79999999999995</ele>
<time>2023-05-16T14:13:00Z</time>
</trkpt>
<trkpt lat="49.062331952154636" lon="9.072507955133915">
<ele>153.60000000000002</ele>
<time>2023-05-16T14:13:01Z</time>
</trkpt>
<trkpt lat="49.06237696297467" lon="9.072441989555955">
<ele>153.39999999999998</ele>
<time>2023-05-16T14:13:02Z</time>
</trkpt>
<trkpt lat="49.06241996213794" lon="9.072377951815724">
<ele>153.39999999999998</ele>
<time>2023-05-16T14:13:03Z</time>
</trkpt>
<trkpt lat="49.06246296130121" lon="9.072316931560636">
<ele>153.39999999999998</ele>
<time>2023-05-16T14:13:04Z</time>
</trkpt>
<trkpt lat="49.0625049546361" lon="9.072257922962308">
<ele>153.39999999999998</ele>
<time>2023-05-16T14:13:05Z</time>
</trkpt>
<trkpt lat="49.06254795379937" lon="9.07219992019236">
<ele>153.20000000000005</ele>
<time>2023-05-16T14:13:06Z</time>
</trkpt>
<trkpt lat="49.062589947134256" lon="9.072146946564317">
<ele>153.20000000000005</ele>
<time>2023-05-16T14:13:07Z</time>
</trkpt>
<trkpt lat="49.062629928812385" lon="9.072092967107892">
<ele>153.20000000000005</ele>
<time>2023-05-16T14:13:08Z</time>
</trkpt>
<trkpt lat="49.062671922147274" lon="9.07204695045948">
<ele>153.20000000000005</ele>
<time>2023-05-16T14:13:09Z</time>
</trkpt>
<trkpt lat="49.062711987644434" lon="9.071997916325927">
<ele>153.20000000000005</ele>
<time>2023-05-16T14:13:10Z</time>
</trkpt>
<trkpt lat="49.06275196932256" lon="9.071951983496547">
<ele>153.20000000000005</ele>
<time>2023-05-16T14:13:11Z</time>
</trkpt>
<trkpt lat="49.06278792768717" lon="9.071902949362993">
<ele>153.20000000000005</ele>
<time>2023-05-16T14:13:12Z</time>
</trkpt>
<trkpt lat="49.062824975699186" lon="9.07185492105782">
<ele>153.20000000000005</ele>
<time>2023-05-16T14:13:13Z</time>
</trkpt>
<trkpt lat="49.06286294572055" lon="9.07180798240006">
<ele>153.20000000000005</ele>
<time>2023-05-16T14:13:14Z</time>
</trkpt>
<trkpt lat="49.0629019215703" lon="9.07176699489355">
<ele>153.20000000000005</ele>
<time>2023-05-16T14:13:15Z</time>
</trkpt>
<trkpt lat="49.06293796375394" lon="9.071726929396391">
<ele>153.20000000000005</ele>
<time>2023-05-16T14:13:16Z</time>
</trkpt>
<trkpt lat="49.062974927946925" lon="9.071686947718263">
<ele>153.20000000000005</ele>
<time>2023-05-16T14:13:17Z</time>
</trkpt>
<trkpt lat="49.06300996430218" lon="9.071647971868515">
<ele>153.20000000000005</ele>
<time>2023-05-16T14:13:18Z</time>
</trkpt>
<trkpt lat="49.06304491683841" lon="9.071611929684877">
<ele>153.20000000000005</ele>
<time>2023-05-16T14:13:19Z</time>
</trkpt>
<trkpt lat="49.063081964850426" lon="9.071576977148652">
<ele>153.20000000000005</ele>
<time>2023-05-16T14:13:20Z</time>
</trkpt>
<trkpt lat="49.06311498954892" lon="9.071539929136634">
<ele>153.20000000000005</ele>
<time>2023-05-16T14:13:21Z</time>
</trkpt>
<trkpt lat="49.06314994208515" lon="9.071504976600409">
<ele>153.20000000000005</ele>
<time>2023-05-16T14:13:22Z</time>
</trkpt>
<trkpt lat="49.063186990097165" lon="9.071476981043816">
<ele>153.20000000000005</ele>
<time>2023-05-16T14:13:23Z</time>
</trkpt>
<trkpt lat="49.06322294846177" lon="9.071461977437139">
<ele>153.20000000000005</ele>
<time>2023-05-16T14:13:24Z</time>
</trkpt>
<trkpt lat="49.06325798481703" lon="9.071457954123616">
<ele>153.20000000000005</ele>
<time>2023-05-16T14:13:25Z</time>
</trkpt>
<trkpt lat="49.063294949010015" lon="9.07146298326552">
<ele>153.20000000000005</ele>
<time>2023-05-16T14:13:26Z</time>
</trkpt>
<trkpt lat="49.06332998536527" lon="9.07146692276001">
<ele>153.39999999999998</ele>
<time>2023-05-16T14:13:27Z</time>
</trkpt>
<trkpt lat="49.063362926244736" lon="9.071461977437139">
<ele>153.39999999999998</ele>
<time>2023-05-16T14:13:28Z</time>
</trkpt>
<trkpt lat="49.06339293345809" lon="9.071447979658842">
<ele>153.39999999999998</ele>
<time>2023-05-16T14:13:29Z</time>
</trkpt>
<trkpt lat="49.06341698952019" lon="9.071426941081882">
<ele>153.39999999999998</ele>
<time>2023-05-16T14:13:30Z</time>
</trkpt>
<trkpt lat="49.06343693844974" lon="9.071407997980714">
<ele>153.39999999999998</ele>
<time>2023-05-16T14:13:31Z</time>
</trkpt>
<trkpt lat="49.0634529478848" lon="9.071389976888895">
<ele>153.39999999999998</ele>
<time>2023-05-16T14:13:32Z</time>
</trkpt>
<trkpt lat="49.063466945663095" lon="9.071371955797076">
<ele>153.39999999999998</ele>
<time>2023-05-16T14:13:33Z</time>
</trkpt>
<trkpt lat="49.06348194926977" lon="9.0713569521904">
<ele>153.39999999999998</ele>
<time>2023-05-16T14:13:34Z</time>
</trkpt>
<trkpt lat="49.06349795870483" lon="9.071344966068864">
<ele>153.60000000000002</ele>
<time>2023-05-16T14:13:35Z</time>
</trkpt>
<trkpt lat="49.06351991929114" lon="9.071329962462187">
<ele>153.60000000000002</ele>
<time>2023-05-16T14:13:36Z</time>
</trkpt>
<trkpt lat="49.06354296952486" lon="9.071311941370368">
<ele>153.60000000000002</ele>
<time>2023-05-16T14:13:37Z</time>
</trkpt>
<trkpt lat="49.06356694176793" lon="9.071296937763691">
<ele>153.60000000000002</ele>
<time>2023-05-16T14:13:38Z</time>
</trkpt>
<trkpt lat="49.06359191983938" lon="9.071284951642156">
<ele>153.60000000000002</ele>
<time>2023-05-16T14:13:39Z</time>
</trkpt>
<trkpt lat="49.063617987558246" lon="9.071279922500253">
<ele>153.60000000000002</ele>
<time>2023-05-16T14:13:40Z</time>
</trkpt>
<trkpt lat="49.06364497728646" lon="9.071274977177382">
<ele>153.60000000000002</ele>
<time>2023-05-16T14:13:41Z</time>
</trkpt>
<trkpt lat="49.06367297284305" lon="9.071269948035479">
<ele>153.79999999999995</ele>
<time>2023-05-16T14:13:42Z</time>
</trkpt>
<trkpt lat="49.06369996257126" lon="9.071259973570704">
<ele>153.79999999999995</ele>
<time>2023-05-16T14:13:43Z</time>
</trkpt>
<trkpt lat="49.06372292898595" lon="9.071236923336983">
<ele>153.79999999999995</ele>
<time>2023-05-16T14:13:44Z</time>
</trkpt>
<trkpt lat="49.06373793259263" lon="9.071199959143996">
<ele>154</ele>
<time>2023-05-16T14:13:45Z</time>
</trkpt>
<trkpt lat="49.063747990876436" lon="9.071152936667204">
<ele>154</ele>
<time>2023-05-16T14:13:46Z</time>
</trkpt>
<trkpt lat="49.06375796534121" lon="9.07109996303916">
<ele>154</ele>
<time>2023-05-16T14:13:47Z</time>
</trkpt>
<trkpt lat="49.06377296894789" lon="9.071044977754354">
<ele>154</ele>
<time>2023-05-16T14:13:48Z</time>
</trkpt>
<trkpt lat="49.063787972554564" lon="9.07098999246955">
<ele>154</ele>
<time>2023-05-16T14:13:49Z</time>
</trkpt>
<trkpt lat="49.06380197033286" lon="9.070934923365712">
<ele>154</ele>
<time>2023-05-16T14:13:50Z</time>
</trkpt>
<trkpt lat="49.06381797976792" lon="9.070879938080907">
<ele>154</ele>
<time>2023-05-16T14:13:51Z</time>
</trkpt>
<trkpt lat="49.06383792869747" lon="9.070826964452863">
<ele>154</ele>
<time>2023-05-16T14:13:52Z</time>
</trkpt>
<trkpt lat="49.06385796144605" lon="9.0707749966532">
<ele>153.79999999999995</ele>
<time>2023-05-16T14:13:53Z</time>
</trkpt>
<trkpt lat="49.06387799419463" lon="9.070721939206123">
<ele>153.79999999999995</ele>
<time>2023-05-16T14:13:54Z</time>
</trkpt>
<trkpt lat="49.063899954780936" lon="9.070671983063221">
<ele>153.79999999999995</ele>
<time>2023-05-16T14:13:55Z</time>
</trkpt>
<trkpt lat="49.06392199918628" lon="9.070614986121655">
<ele>153.79999999999995</ele>
<time>2023-05-16T14:13:56Z</time>
</trkpt>
<trkpt lat="49.063939936459064" lon="9.070554971694946">
<ele>153.79999999999995</ele>
<time>2023-05-16T14:13:57Z</time>
</trkpt>
<trkpt lat="49.06395795755088" lon="9.070487916469574">
<ele>153.79999999999995</ele>
<time>2023-05-16T14:13:58Z</time>
</trkpt>
<trkpt lat="49.06397497281432" lon="9.070421950891614">
<ele>153.79999999999995</ele>
<time>2023-05-16T14:13:59Z</time>
</trkpt>
<trkpt lat="49.06399198807776" lon="9.070354979485273">
<ele>153.79999999999995</ele>
<time>2023-05-16T14:14:00Z</time>
</trkpt>
<trkpt lat="49.06400699168444" lon="9.070291947573423">
<ele>153.60000000000002</ele>
<time>2023-05-16T14:14:01Z</time>
</trkpt>
<trkpt lat="49.064021995291114" lon="9.070227993652225">
<ele>153.60000000000002</ele>
<time>2023-05-16T14:14:02Z</time>
</trkpt>
<trkpt lat="49.06404295004904" lon="9.070159932598472">
<ele>153.60000000000002</ele>
<time>2023-05-16T14:14:03Z</time>
</trkpt>
<trkpt lat="49.064064994454384" lon="9.070087932050228">
<ele>153.39999999999998</ele>
<time>2023-05-16T14:14:04Z</time>
</trkpt>
<trkpt lat="49.06408494338393" lon="9.070014925673604">
<ele>153.39999999999998</ele>
<time>2023-05-16T14:14:05Z</time>
</trkpt>
<trkpt lat="49.06410497613251" lon="9.06994292512536">
<ele>153.39999999999998</ele>
<time>2023-05-16T14:14:06Z</time>
</trkpt>
<trkpt lat="49.06412693671882" lon="9.069867990911007">
<ele>153.20000000000005</ele>
<time>2023-05-16T14:14:07Z</time>
</trkpt>
<trkpt lat="49.06414797529578" lon="9.069794984534383">
<ele>153.20000000000005</ele>
<time>2023-05-16T14:14:08Z</time>
</trkpt>
<trkpt lat="49.06417194753885" lon="9.06972298398614">
<ele>153</ele>
<time>2023-05-16T14:14:09Z</time>
</trkpt>
<trkpt lat="49.064194997772574" lon="9.069649977609515">
<ele>153</ele>
<time>2023-05-16T14:14:10Z</time>
</trkpt>
<trkpt lat="49.064216958358884" lon="9.069579988718033">
<ele>153</ele>
<time>2023-05-16T14:14:11Z</time>
</trkpt>
<trkpt lat="49.064237996935844" lon="9.069504970684648">
<ele>152.79999999999995</ele>
<time>2023-05-16T14:14:12Z</time>
</trkpt>
<trkpt lat="49.06425794586539" lon="9.069432970136404">
<ele>152.79999999999995</ele>
<time>2023-05-16T14:14:13Z</time>
</trkpt>
<trkpt lat="49.064279990270734" lon="9.069366920739412">
<ele>152.79999999999995</ele>
<time>2023-05-16T14:14:14Z</time>
</trkpt>
<trkpt lat="49.06430195085704" lon="9.069299949333072">
<ele>152.79999999999995</ele>
<time>2023-05-16T14:14:15Z</time>
</trkpt>
<trkpt lat="49.06431997194886" lon="9.06923197209835">
<ele>152.60000000000002</ele>
<time>2023-05-16T14:14:16Z</time>
</trkpt>
<trkpt lat="49.06434293836355" lon="9.069164916872978">
<ele>152.60000000000002</ele>
<time>2023-05-16T14:14:17Z</time>
</trkpt>
<trkpt lat="49.064366994425654" lon="9.069096939638257">
<ele>152.60000000000002</ele>
<time>2023-05-16T14:14:18Z</time>
</trkpt>
<trkpt lat="49.06438794918358" lon="9.069032985717058">
<ele>152.60000000000002</ele>
<time>2023-05-16T14:14:19Z</time>
</trkpt>
<trkpt lat="49.064412927255034" lon="9.068967942148447">
<ele>152.60000000000002</ele>
<time>2023-05-16T14:14:20Z</time>
</trkpt>
<trkpt lat="49.06443698331714" lon="9.068899964913726">
<ele>152.39999999999998</ele>
<time>2023-05-16T14:14:21Z</time>
</trkpt>
<trkpt lat="49.06445994973183" lon="9.068831987679005">
<ele>152.39999999999998</ele>
<time>2023-05-16T14:14:22Z</time>
</trkpt>
<trkpt lat="49.064476964995265" lon="9.068757975474">
<ele>152.39999999999998</ele>
<time>2023-05-16T14:14:23Z</time>
</trkpt>
<trkpt lat="49.064496997743845" lon="9.068689998239279">
<ele>152.39999999999998</ele>
<time>2023-05-16T14:14:24Z</time>
</trkpt>
<trkpt lat="49.06451493501663" lon="9.068624954670668">
<ele>152.39999999999998</ele>
<time>2023-05-16T14:14:25Z</time>
</trkpt>
<trkpt lat="49.06453697942197" lon="9.068561922758818">
<ele>152.39999999999998</ele>
<time>2023-05-16T14:14:26Z</time>
</trkpt>
<trkpt lat="49.06455198302865" lon="9.068491933867335">
<ele>152.60000000000002</ele>
<time>2023-05-16T14:14:27Z</time>
</trkpt>
<trkpt lat="49.06456992030144" lon="9.068427979946136">
<ele>152.60000000000002</ele>
<time>2023-05-16T14:14:28Z</time>
</trkpt>
<trkpt lat="49.064587941393256" lon="9.068362936377525">
<ele>152.60000000000002</ele>
<time>2023-05-16T14:14:29Z</time>
</trkpt>
<trkpt lat="49.06460294499993" lon="9.068296970799565">
<ele>152.60000000000002</ele>
<time>2023-05-16T14:14:30Z</time>
</trkpt>
<trkpt lat="49.06461493112147" lon="9.068226981908083">
<ele>152.60000000000002</ele>
<time>2023-05-16T14:14:31Z</time>
</trkpt>
<trkpt lat="49.06462197192013" lon="9.068151963874698">
<ele>152.60000000000002</ele>
<time>2023-05-16T14:14:32Z</time>
</trkpt>
<trkpt lat="49.064627923071384" lon="9.068077951669693">
<ele>152.60000000000002</ele>
<time>2023-05-16T14:14:33Z</time>
</trkpt>
<trkpt lat="49.06463496387005" lon="9.068004945293069">
<ele>152.60000000000002</ele>
<time>2023-05-16T14:14:34Z</time>
</trkpt>
<trkpt lat="49.06463999301195" lon="9.067934956401587">
<ele>152.60000000000002</ele>
<time>2023-05-16T14:14:35Z</time>
</trkpt>
<trkpt lat="49.064649967476726" lon="9.067869996652007">
<ele>152.60000000000002</ele>
<time>2023-05-16T14:14:36Z</time>
</trkpt>
<trkpt lat="49.06465692445636" lon="9.067801935598254">
<ele>152.60000000000002</ele>
<time>2023-05-16T14:14:37Z</time>
</trkpt>
<trkpt lat="49.06465692445636" lon="9.067714931443334">
<ele>152.60000000000002</ele>
<time>2023-05-16T14:14:38Z</time>
</trkpt>
<trkpt lat="49.06465298496187" lon="9.067636979743838">
<ele>152.60000000000002</ele>
<time>2023-05-16T14:14:39Z</time>
</trkpt>
<trkpt lat="49.0646599419415" lon="9.06755693256855">
<ele>152.60000000000002</ele>
<time>2023-05-16T14:14:40Z</time>
</trkpt>
<trkpt lat="49.0646649710834" lon="9.067484932020307">
<ele>152.60000000000002</ele>
<time>2023-05-16T14:14:41Z</time>
</trkpt>
<trkpt lat="49.0646649710834" lon="9.067406980320811">
<ele>152.60000000000002</ele>
<time>2023-05-16T14:14:42Z</time>
</trkpt>
<trkpt lat="49.0646649710834" lon="9.067329950630665">
<ele>152.60000000000002</ele>
<time>2023-05-16T14:14:43Z</time>
</trkpt>
<trkpt lat="49.06466195359826" lon="9.06725199893117">
<ele>152.39999999999998</ele>
<time>2023-05-16T14:14:44Z</time>
</trkpt>
<trkpt lat="49.06465793028474" lon="9.067174969241023">
<ele>152.39999999999998</ele>
<time>2023-05-16T14:14:45Z</time>
</trkpt>
<trkpt lat="49.06465692445636" lon="9.067097939550877">
<ele>152.39999999999998</ele>
<time>2023-05-16T14:14:46Z</time>
</trkpt>
<trkpt lat="49.06465499661863" lon="9.067026944831014">
<ele>152.39999999999998</ele>
<time>2023-05-16T14:14:47Z</time>
</trkpt>
<trkpt lat="49.06465298496187" lon="9.066949998959899">
<ele>152.39999999999998</ele>
<time>2023-05-16T14:14:48Z</time>
</trkpt>
<trkpt lat="49.06465499661863" lon="9.066871963441372">
<ele>152.39999999999998</ele>
<time>2023-05-16T14:14:49Z</time>
</trkpt>
<trkpt lat="49.06465793028474" lon="9.066797951236367">
<ele>152.39999999999998</ele>
<time>2023-05-16T14:14:50Z</time>
</trkpt>
<trkpt lat="49.064666982740164" lon="9.066732991486788">
<ele>152.39999999999998</ele>
<time>2023-05-16T14:14:51Z</time>
</trkpt>
<trkpt lat="49.06467997469008" lon="9.06667691655457">
<ele>152.39999999999998</ele>
<time>2023-05-16T14:14:52Z</time>
</trkpt>
<trkpt lat="49.06469497829676" lon="9.066626960411668">
<ele>152.39999999999998</ele>
<time>2023-05-16T14:14:53Z</time>
</trkpt>
<trkpt lat="49.064712999388576" lon="9.066576920449734">
<ele>152.39999999999998</ele>
<time>2023-05-16T14:14:54Z</time>
</trkpt>
<trkpt lat="49.06473194248974" lon="9.066529981791973">
<ele>152.39999999999998</ele>
<time>2023-05-16T14:14:55Z</time>
</trkpt>
<trkpt lat="49.0647619497031" lon="9.066499974578619">
<ele>152.39999999999998</ele>
<time>2023-05-16T14:14:56Z</time>
</trkpt>
<trkpt lat="49.06479497440159" lon="9.066472984850407">
<ele>152.39999999999998</ele>
<time>2023-05-16T14:14:57Z</time>
</trkpt>
<trkpt lat="49.06482992693782" lon="9.066454963758588">
<ele>152.39999999999998</ele>
<time>2023-05-16T14:14:58Z</time>
</trkpt>
<trkpt lat="49.06486999243498" lon="9.066436942666769">
<ele>152.39999999999998</ele>
<time>2023-05-16T14:14:59Z</time>
</trkpt>
<trkpt lat="49.064907962456346" lon="9.06641992740333">
<ele>152.39999999999998</ele>
<time>2023-05-16T14:15:00Z</time>
</trkpt>
<trkpt lat="49.064947944134474" lon="9.066404923796654">
<ele>152.20000000000005</ele>
<time>2023-05-16T14:15:01Z</time>
</trkpt>
<trkpt lat="49.06498993746936" lon="9.066399978473783">
<ele>152.20000000000005</ele>
<time>2023-05-16T14:15:02Z</time>
</trkpt>
<trkpt lat="49.065034948289394" lon="9.066402995958924">
<ele>152.20000000000005</ele>
<time>2023-05-16T14:15:03Z</time>
</trkpt>
<trkpt lat="49.065077947452664" lon="9.066404923796654">
<ele>152.20000000000005</ele>
<time>2023-05-16T14:15:04Z</time>
</trkpt>
<trkpt lat="49.065122958272696" lon="9.066409952938557">
<ele>152.20000000000005</ele>
<time>2023-05-16T14:15:05Z</time>
</trkpt>
<trkpt lat="49.06516998074949" lon="9.066417999565601">
<ele>152</ele>
<time>2023-05-16T14:15:06Z</time>
</trkpt>
<trkpt lat="49.06521499156952" lon="9.066426968201995">
<ele>152</ele>
<time>2023-05-16T14:15:07Z</time>
</trkpt>
<trkpt lat="49.06525991857052" lon="9.066429985687137">
<ele>152</ele>
<time>2023-05-16T14:15:08Z</time>
</trkpt>
<trkpt lat="49.06529797241092" lon="9.06643794849515">
<ele>152</ele>
<time>2023-05-16T14:15:09Z</time>
</trkpt>
<trkpt lat="49.065334936603904" lon="9.066447922959924">
<ele>151.79999999999995</ele>
<time>2023-05-16T14:15:10Z</time>
</trkpt>
<trkpt lat="49.06536695547402" lon="9.06645798124373">
<ele>151.79999999999995</ele>
<time>2023-05-16T14:15:11Z</time>
</trkpt>
<trkpt lat="49.06539293937385" lon="9.066464938223362">
<ele>151.79999999999995</ele>
<time>2023-05-16T14:15:12Z</time>
</trkpt>
<trkpt lat="49.06541498377919" lon="9.066466949880123">
<ele>151.79999999999995</ele>
<time>2023-05-16T14:15:13Z</time>
</trkpt>
<trkpt lat="49.06543199904263" lon="9.066466949880123">
<ele>151.79999999999995</ele>
<time>2023-05-16T14:15:14Z</time>
</trkpt>
<trkpt lat="49.06545496545732" lon="9.066472984850407">
<ele>151.79999999999995</ele>
<time>2023-05-16T14:15:15Z</time>
</trkpt>
<trkpt lat="49.0654749982059" lon="9.06648295931518">
<ele>151.79999999999995</ele>
<time>2023-05-16T14:15:16Z</time>
</trkpt>
<trkpt lat="49.06549695879221" lon="9.066494945436716">
<ele>151.60000000000002</ele>
<time>2023-05-16T14:15:17Z</time>
</trkpt>
<trkpt lat="49.06551699154079" lon="9.06650491990149">
<ele>151.60000000000002</ele>
<time>2023-05-16T14:15:18Z</time>
</trkpt>
<trkpt lat="49.06553492881358" lon="9.066517995670438">
<ele>151.60000000000002</ele>
<time>2023-05-16T14:15:19Z</time>
</trkpt>
<trkpt lat="49.065552949905396" lon="9.066529981791973">
<ele>151.60000000000002</ele>
<time>2023-05-16T14:15:20Z</time>
</trkpt>
<trkpt lat="49.06556795351207" lon="9.066537944599986">
<ele>151.60000000000002</ele>
<time>2023-05-16T14:15:21Z</time>
</trkpt>
<trkpt lat="49.06557792797685" lon="9.066542973741889">
<ele>151.60000000000002</ele>
<time>2023-05-16T14:15:22Z</time>
</trkpt>
<trkpt lat="49.06558496877551" lon="9.066542973741889">
<ele>151.60000000000002</ele>
<time>2023-05-16T14:15:23Z</time>
</trkpt>
<trkpt lat="49.06559192575514" lon="9.066542973741889">
<ele>151.60000000000002</ele>
<time>2023-05-16T14:15:24Z</time>
</trkpt>
<trkpt lat="49.06559796072543" lon="9.066507937386632">
<ele>151.60000000000002</ele>
<time>2023-05-16T14:15:24Z</time>
</trkpt>
<trkpt lat="49.06559192575514" lon="9.066506931558251">
<ele>151.60000000000002</ele>
<time>2023-05-16T14:15:25Z</time>
</trkpt>
<trkpt lat="49.06557792797685" lon="9.066492933779955">
<ele>151.60000000000002</ele>
<time>2023-05-16T14:15:26Z</time>
</trkpt>
<trkpt lat="49.0655579790473" lon="9.066484970971942">
<ele>151.60000000000002</ele>
<time>2023-05-16T14:15:27Z</time>
</trkpt>
<trkpt lat="49.06553492881358" lon="9.0664819534868">
<ele>151.60000000000002</ele>
<time>2023-05-16T14:15:28Z</time>
</trkpt>
<trkpt lat="49.065506933256984" lon="9.066476924344897">
<ele>151.60000000000002</ele>
<time>2023-05-16T14:15:29Z</time>
</trkpt>
<trkpt lat="49.06547298654914" lon="9.066466949880123">
<ele>151.60000000000002</ele>
<time>2023-05-16T14:15:30Z</time>
</trkpt>
<trkpt lat="49.06543795019388" lon="9.066451946273446">
<ele>151.60000000000002</ele>
<time>2023-05-16T14:15:31Z</time>
</trkpt>
<trkpt lat="49.065399980172515" lon="9.066436942666769">
<ele>151.60000000000002</ele>
<time>2023-05-16T14:15:32Z</time>
</trkpt>
<trkpt lat="49.06535999849439" lon="9.066426968201995">
<ele>151.60000000000002</ele>
<time>2023-05-16T14:15:33Z</time>
</trkpt>
<trkpt lat="49.06531699933112" lon="9.066417999565601">
<ele>151.60000000000002</ele>
<time>2023-05-16T14:15:34Z</time>
</trkpt>
<trkpt lat="49.065274922177196" lon="9.066411964595318">
<ele>151.60000000000002</ele>
<time>2023-05-16T14:15:35Z</time>
</trkpt>
<trkpt lat="49.065232928842306" lon="9.066399978473783">
<ele>151.60000000000002</ele>
<time>2023-05-16T14:15:36Z</time>
</trkpt>
<trkpt lat="49.06519294716418" lon="9.066387992352247">
<ele>151.60000000000002</ele>
<time>2023-05-16T14:15:37Z</time>
</trkpt>
<trkpt lat="49.06515497714281" lon="9.06637692824006">
<ele>151.60000000000002</ele>
<time>2023-05-16T14:15:38Z</time>
</trkpt>
<trkpt lat="49.06511499546468" lon="9.066366953775287">
<ele>151.60000000000002</ele>
<time>2023-05-16T14:15:39Z</time>
</trkpt>
<trkpt lat="49.065079959109426" lon="9.066357985138893">
<ele>151.60000000000002</ele>
<time>2023-05-16T14:15:40Z</time>
</trkpt>
<trkpt lat="49.06504299491644" lon="9.066344993188977">
<ele>151.60000000000002</ele>
<time>2023-05-16T14:15:41Z</time>
</trkpt>
<trkpt lat="49.06500795856118" lon="9.066324960440397">
<ele>151.60000000000002</ele>
<time>2023-05-16T14:15:42Z</time>
</trkpt>
<trkpt lat="49.06497795134783" lon="9.066292941570282">
<ele>151.60000000000002</ele>
<time>2023-05-16T14:15:43Z</time>
</trkpt>
<trkpt lat="49.06495498493314" lon="9.066251954063773">
<ele>151.60000000000002</ele>
<time>2023-05-16T14:15:44Z</time>
</trkpt>
<trkpt lat="49.0649429988116" lon="9.066197974607348">
<ele>151.60000000000002</ele>
<time>2023-05-16T14:15:45Z</time>
</trkpt>
<trkpt lat="49.0649379696697" lon="9.066139971837401">
<ele>151.60000000000002</ele>
<time>2023-05-16T14:15:46Z</time>
</trkpt>
<trkpt lat="49.06493495218456" lon="9.066077945753932">
<ele>151.60000000000002</ele>
<time>2023-05-16T14:15:47Z</time>
</trkpt>
<trkpt lat="49.064931934699416" lon="9.066012986004353">
<ele>151.60000000000002</ele>
<time>2023-05-16T14:15:48Z</time>
</trkpt>
<trkpt lat="49.064929923042655" lon="9.065949954092503">
<ele>151.60000000000002</ele>
<time>2023-05-16T14:15:49Z</time>
</trkpt>
<trkpt lat="49.0649379696697" lon="9.065892957150936">
<ele>151.60000000000002</ele>
<time>2023-05-16T14:15:50Z</time>
</trkpt>
<trkpt lat="49.06494492664933" lon="9.065841995179653">
<ele>151.60000000000002</ele>
<time>2023-05-16T14:15:51Z</time>
</trkpt>
<trkpt lat="49.064949955791235" lon="9.065782986581326">
<ele>151.60000000000002</ele>
<time>2023-05-16T14:15:52Z</time>
</trkpt>
<trkpt lat="49.06495297327638" lon="9.06572699546814">
<ele>151.60000000000002</ele>
<time>2023-05-16T14:15:53Z</time>
</trkpt>
<trkpt lat="49.06495993025601" lon="9.065674943849444">
<ele>151.60000000000002</ele>
<time>2023-05-16T14:15:54Z</time>
</trkpt>
<trkpt lat="49.06496495939791" lon="9.065632950514555">
<ele>151.60000000000002</ele>
<time>2023-05-16T14:15:55Z</time>
</trkpt>
<trkpt lat="49.064969988539815" lon="9.065594980493188">
<ele>151.60000000000002</ele>
<time>2023-05-16T14:15:56Z</time>
</trkpt>
<trkpt lat="49.06496697105467" lon="9.06555994413793">
<ele>151.60000000000002</ele>
<time>2023-05-16T14:15:57Z</time>
</trkpt>
<trkpt lat="49.064971916377544" lon="9.065529936924577">
<ele>151.60000000000002</ele>
<time>2023-05-16T14:15:58Z</time>
</trkpt>
<trkpt lat="49.06497996300459" lon="9.065502947196364">
<ele>151.60000000000002</ele>
<time>2023-05-16T14:15:59Z</time>
</trkpt>
<trkpt lat="49.06498691998422" lon="9.06547193415463">
<ele>151.60000000000002</ele>
<time>2023-05-16T14:16:00Z</time>
</trkpt>
<trkpt lat="49.06498993746936" lon="9.065431952476501">
<ele>151.60000000000002</ele>
<time>2023-05-16T14:16:01Z</time>
</trkpt>
<trkpt lat="49.064991949126124" lon="9.06538492999971">
<ele>151.60000000000002</ele>
<time>2023-05-16T14:16:02Z</time>
</trkpt>
<trkpt lat="49.06499697826803" lon="9.065337991341949">
<ele>151.60000000000002</ele>
<time>2023-05-16T14:16:03Z</time>
</trkpt>
<trkpt lat="49.0650019235909" lon="9.065287951380014">
<ele>151.60000000000002</ele>
<time>2023-05-16T14:16:04Z</time>
</trkpt>
<trkpt lat="49.06500494107604" lon="9.06523296609521">
<ele>151.60000000000002</ele>
<time>2023-05-16T14:16:05Z</time>
</trkpt>
<trkpt lat="49.06500795856118" lon="9.065181920304894">
<ele>151.60000000000002</ele>
<time>2023-05-16T14:16:06Z</time>
</trkpt>
<trkpt lat="49.065012987703085" lon="9.065131964161992">
<ele>151.60000000000002</ele>
<time>2023-05-16T14:16:07Z</time>
</trkpt>
<trkpt lat="49.065016927197576" lon="9.065081924200058">
<ele>151.60000000000002</ele>
<time>2023-05-16T14:16:08Z</time>
</trkpt>
<trkpt lat="49.06501994468272" lon="9.065027944743633">
<ele>151.60000000000002</ele>
<time>2023-05-16T14:16:09Z</time>
</trkpt>
<trkpt lat="49.06502296216786" lon="9.06497698277235">
<ele>151.60000000000002</ele>
<time>2023-05-16T14:16:10Z</time>
</trkpt>
<trkpt lat="49.06502799130976" lon="9.064926942810416">
<ele>151.60000000000002</ele>
<time>2023-05-16T14:16:11Z</time>
</trkpt>
<trkpt lat="49.06502991914749" lon="9.064871957525611">
<ele>151.79999999999995</ele>
<time>2023-05-16T14:16:12Z</time>
</trkpt>
<trkpt lat="49.06503193080425" lon="9.064817978069186">
<ele>151.79999999999995</ele>
<time>2023-05-16T14:16:13Z</time>
</trkpt>
<trkpt lat="49.06503293663263" lon="9.06475997529924">
<ele>151.79999999999995</ele>
<time>2023-05-16T14:16:14Z</time>
</trkpt>
<trkpt lat="49.065037965774536" lon="9.06469794921577">
<ele>152</ele>
<time>2023-05-16T14:16:15Z</time>
</trkpt>
<trkpt lat="49.06504198908806" lon="9.064639946445823">
<ele>152</ele>
<time>2023-05-16T14:16:16Z</time>
</trkpt>
<trkpt lat="49.06504299491644" lon="9.064584961161017">
<ele>152.20000000000005</ele>
<time>2023-05-16T14:16:17Z</time>
</trkpt>
<trkpt lat="49.06504299491644" lon="9.064527964219451">
<ele>152.20000000000005</ele>
<time>2023-05-16T14:16:18Z</time>
</trkpt>
<trkpt lat="49.06504492275417" lon="9.064471973106265">
<ele>152.39999999999998</ele>
<time>2023-05-16T14:16:19Z</time>
</trkpt>
<trkpt lat="49.06504794023931" lon="9.064414976164699">
<ele>152.39999999999998</ele>
<time>2023-05-16T14:16:20Z</time>
</trkpt>
<trkpt lat="49.06505196355283" lon="9.06435295008123">
<ele>152.60000000000002</ele>
<time>2023-05-16T14:16:21Z</time>
</trkpt>
<trkpt lat="49.065054981037974" lon="9.064292935654521">
<ele>152.60000000000002</ele>
<time>2023-05-16T14:16:22Z</time>
</trkpt>
<trkpt lat="49.06506193801761" lon="9.064232921227813">
<ele>152.60000000000002</ele>
<time>2023-05-16T14:16:23Z</time>
</trkpt>
<trkpt lat="49.06506495550275" lon="9.064172990620136">
<ele>152.79999999999995</ele>
<time>2023-05-16T14:16:24Z</time>
</trkpt>
<trkpt lat="49.06506998464465" lon="9.06411498785019">
<ele>152.79999999999995</ele>
<time>2023-05-16T14:16:25Z</time>
</trkpt>
<trkpt lat="49.06507492996752" lon="9.064049944281578">
<ele>153</ele>
<time>2023-05-16T14:16:26Z</time>
</trkpt>
<trkpt lat="49.06508297659457" lon="9.063982972875237">
<ele>153</ele>
<time>2023-05-16T14:16:27Z</time>
</trkpt>
<trkpt lat="49.06508792191744" lon="9.063917929306626">
<ele>153.20000000000005</ele>
<time>2023-05-16T14:16:28Z</time>
</trkpt>
<trkpt lat="49.06509194523096" lon="9.063854981213808">
<ele>153.20000000000005</ele>
<time>2023-05-16T14:16:29Z</time>
</trkpt>
<trkpt lat="49.06509194523096" lon="9.063796978443861">
<ele>153.39999999999998</ele>
<time>2023-05-16T14:16:30Z</time>
</trkpt>
<trkpt lat="49.0650899335742" lon="9.063734952360392">
<ele>153.39999999999998</ele>
<time>2023-05-16T14:16:31Z</time>
</trkpt>
<trkpt lat="49.0650899335742" lon="9.063671920448542">
<ele>153.60000000000002</ele>
<time>2023-05-16T14:16:32Z</time>
</trkpt>
<trkpt lat="49.06508792191744" lon="9.063612995669246">
<ele>153.60000000000002</ele>
<time>2023-05-16T14:16:33Z</time>
</trkpt>
<trkpt lat="49.06508699990809" lon="9.063556920737028">
<ele>153.79999999999995</ele>
<time>2023-05-16T14:16:34Z</time>
</trkpt>
<trkpt lat="49.065079959109426" lon="9.063497995957732">
<ele>153.79999999999995</ele>
<time>2023-05-16T14:16:35Z</time>
</trkpt>
<trkpt lat="49.06506797298789" lon="9.063436975702643">
<ele>154</ele>
<time>2023-05-16T14:16:36Z</time>
</trkpt>
<trkpt lat="49.065059926360846" lon="9.063376961275935">
<ele>154.20000000000005</ele>
<time>2023-05-16T14:16:37Z</time>
</trkpt>
<trkpt lat="49.065056992694736" lon="9.063316946849227">
<ele>154.20000000000005</ele>
<time>2023-05-16T14:16:38Z</time>
</trkpt>
<trkpt lat="49.06505296938121" lon="9.063251987099648">
<ele>154.39999999999998</ele>
<time>2023-05-16T14:16:39Z</time>
</trkpt>
<trkpt lat="49.06504995189607" lon="9.063187949359417">
<ele>154.39999999999998</ele>
<time>2023-05-16T14:16:40Z</time>
</trkpt>
<trkpt lat="49.06505196355283" lon="9.063124917447567">
<ele>154.60000000000002</ele>
<time>2023-05-16T14:16:41Z</time>
</trkpt>
<trkpt lat="49.06505296938121" lon="9.063054928556085">
<ele>154.79999999999995</ele>
<time>2023-05-16T14:16:42Z</time>
</trkpt>
<trkpt lat="49.065054981037974" lon="9.062987957149744">
<ele>154.79999999999995</ele>
<time>2023-05-16T14:16:43Z</time>
</trkpt>
<trkpt lat="49.065056992694736" lon="9.062921991571784">
<ele>155</ele>
<time>2023-05-16T14:16:44Z</time>
</trkpt>
<trkpt lat="49.065059926360846" lon="9.06285292468965">
<ele>155</ele>
<time>2023-05-16T14:16:45Z</time>
</trkpt>
<trkpt lat="49.065059926360846" lon="9.062787964940071">
<ele>155</ele>
<time>2023-05-16T14:16:46Z</time>
</trkpt>
<trkpt lat="49.065057998523116" lon="9.062721999362111">
<ele>155.20000000000005</ele>
<time>2023-05-16T14:16:47Z</time>
</trkpt>
<trkpt lat="49.06506294384599" lon="9.0626569557935">
<ele>155.20000000000005</ele>
<time>2023-05-16T14:16:48Z</time>
</trkpt>
<trkpt lat="49.06506696715951" lon="9.06259291805327">
<ele>155.39999999999998</ele>
<time>2023-05-16T14:16:49Z</time>
</trkpt>
<trkpt lat="49.06506495550275" lon="9.06252695247531">
<ele>155.39999999999998</ele>
<time>2023-05-16T14:16:50Z</time>
</trkpt>
<trkpt lat="49.065059926360846" lon="9.062457969412208">
<ele>155.39999999999998</ele>
<time>2023-05-16T14:16:51Z</time>
</trkpt>
<trkpt lat="49.065059926360846" lon="9.062394937500358">
<ele>155.60000000000002</ele>
<time>2023-05-16T14:16:52Z</time>
</trkpt>
<trkpt lat="49.06506495550275" lon="9.06233693473041">
<ele>155.60000000000002</ele>
<time>2023-05-16T14:16:53Z</time>
</trkpt>
<trkpt lat="49.06506797298789" lon="9.062286978587508">
<ele>155.79999999999995</ele>
<time>2023-05-16T14:16:54Z</time>
</trkpt>
<trkpt lat="49.06507291831076" lon="9.062239956110716">
<ele>155.79999999999995</ele>
<time>2023-05-16T14:16:55Z</time>
</trkpt>
<trkpt lat="49.06508498825133" lon="9.062197962775826">
<ele>155.79999999999995</ele>
<time>2023-05-16T14:16:56Z</time>
</trkpt>
<trkpt lat="49.06510795466602" lon="9.062171978875995">
<ele>155.79999999999995</ele>
<time>2023-05-16T14:16:57Z</time>
</trkpt>
<trkpt lat="49.06513796187937" lon="9.062142977491021">
<ele>156</ele>
<time>2023-05-16T14:16:58Z</time>
</trkpt>
<trkpt lat="49.065166963264346" lon="9.062107941135764">
<ele>156</ele>
<time>2023-05-16T14:16:59Z</time>
</trkpt>
<trkpt lat="49.06517995521426" lon="9.062064941972494">
<ele>156.20000000000005</ele>
<time>2023-05-16T14:17:00Z</time>
</trkpt>
<trkpt lat="49.06517995521426" lon="9.062021942809224">
<ele>156.39999999999998</ele>
<time>2023-05-16T14:17:01Z</time>
</trkpt>
<trkpt lat="49.06517492607236" lon="9.061974920332432">
<ele>156.60000000000002</ele>
<time>2023-05-16T14:17:02Z</time>
</trkpt>
<trkpt lat="49.06516998074949" lon="9.06192496418953">
<ele>157</ele>
<time>2023-05-16T14:17:03Z</time>
</trkpt>
<trkpt lat="49.065164951607585" lon="9.061874924227595">
<ele>157.20000000000005</ele>
<time>2023-05-16T14:17:04Z</time>
</trkpt>
<trkpt lat="49.065162939950824" lon="9.061824968084693">
<ele>157.39999999999998</ele>
<time>2023-05-16T14:17:05Z</time>
</trkpt>
<trkpt lat="49.06516193412244" lon="9.061772916465998">
<ele>157.60000000000002</ele>
<time>2023-05-16T14:17:06Z</time>
</trkpt>
<trkpt lat="49.065162939950824" lon="9.061722960323095">
<ele>158</ele>
<time>2023-05-16T14:17:07Z</time>
</trkpt>
<trkpt lat="49.06516193412244" lon="9.06166797503829">
<ele>158.20000000000005</ele>
<time>2023-05-16T14:17:08Z</time>
</trkpt>
<trkpt lat="49.06516193412244" lon="9.061612989753485">
<ele>158.20000000000005</ele>
<time>2023-05-16T14:17:09Z</time>
</trkpt>
<trkpt lat="49.06515799462795" lon="9.061557920649648">
<ele>158.39999999999998</ele>
<time>2023-05-16T14:17:10Z</time>
</trkpt>
<trkpt lat="49.06515296548605" lon="9.0614999178797">
<ele>158.60000000000002</ele>
<time>2023-05-16T14:17:11Z</time>
</trkpt>
<trkpt lat="49.06515195965767" lon="9.061442920938134">
<ele>158.79999999999995</ele>
<time>2023-05-16T14:17:12Z</time>
</trkpt>
<trkpt lat="49.06514994800091" lon="9.061387935653329">
<ele>158.79999999999995</ele>
<time>2023-05-16T14:17:13Z</time>
</trkpt>
<trkpt lat="49.06514793634415" lon="9.061329932883382">
<ele>159</ele>
<time>2023-05-16T14:17:14Z</time>
</trkpt>
<trkpt lat="49.06514793634415" lon="9.061274947598577">
<ele>159.20000000000005</ele>
<time>2023-05-16T14:17:15Z</time>
</trkpt>
<trkpt lat="49.06514994800091" lon="9.061221973970532">
<ele>159.20000000000005</ele>
<time>2023-05-16T14:17:16Z</time>
</trkpt>
<trkpt lat="49.06514793634415" lon="9.061164977028966">
<ele>159.39999999999998</ele>
<time>2023-05-16T14:17:17Z</time>
</trkpt>
<trkpt lat="49.065144918859005" lon="9.0611079800874">
<ele>159.60000000000002</ele>
<time>2023-05-16T14:17:18Z</time>
</trkpt>
<trkpt lat="49.065144918859005" lon="9.061056934297085">
<ele>159.60000000000002</ele>
<time>2023-05-16T14:17:19Z</time>
</trkpt>
<trkpt lat="49.065141985192895" lon="9.061006978154182">
<ele>159.79999999999995</ele>
<time>2023-05-16T14:17:20Z</time>
</trkpt>
<trkpt lat="49.06513192690909" lon="9.060952998697758">
<ele>160</ele>
<time>2023-05-16T14:17:21Z</time>
</trkpt>
<trkpt lat="49.065121952444315" lon="9.06089792959392">
<ele>160</ele>
<time>2023-05-16T14:17:22Z</time>
</trkpt>
<trkpt lat="49.06510996632278" lon="9.060842944309115">
<ele>160.20000000000005</ele>
<time>2023-05-16T14:17:23Z</time>
</trkpt>
<trkpt lat="49.065097980201244" lon="9.06078695319593">
<ele>160.39999999999998</ele>
<time>2023-05-16T14:17:24Z</time>
</trkpt>
<trkpt lat="49.06508792191744" lon="9.060729956254363">
<ele>160.39999999999998</ele>
<time>2023-05-16T14:17:25Z</time>
</trkpt>
<trkpt lat="49.065076941624284" lon="9.060671953484416">
<ele>160.60000000000002</ele>
<time>2023-05-16T14:17:26Z</time>
</trkpt>
<trkpt lat="49.06506495550275" lon="9.06061495654285">
<ele>160.60000000000002</ele>
<time>2023-05-16T14:17:27Z</time>
</trkpt>
<trkpt lat="49.06505296938121" lon="9.060561982914805">
<ele>160.79999999999995</ele>
<time>2023-05-16T14:17:28Z</time>
</trkpt>
<trkpt lat="49.06504492275417" lon="9.06050993129611">
<ele>160.79999999999995</ele>
<time>2023-05-16T14:17:29Z</time>
</trkpt>
<trkpt lat="49.065036959946156" lon="9.060456957668066">
<ele>161</ele>
<time>2023-05-16T14:17:30Z</time>
</trkpt>
<trkpt lat="49.06502799130976" lon="9.06040197238326">
<ele>161</ele>
<time>2023-05-16T14:17:31Z</time>
</trkpt>
<trkpt lat="49.065016927197576" lon="9.060344975441694">
<ele>161.20000000000005</ele>
<time>2023-05-16T14:17:32Z</time>
</trkpt>
<trkpt lat="49.0650069527328" lon="9.060286972671747">
<ele>161.20000000000005</ele>
<time>2023-05-16T14:17:33Z</time>
</trkpt>
<trkpt lat="49.064992954954505" lon="9.06022796407342">
<ele>161.39999999999998</ele>
<time>2023-05-16T14:17:34Z</time>
</trkpt>
<trkpt lat="49.06498197466135" lon="9.060167949646711">
<ele>161.39999999999998</ele>
<time>2023-05-16T14:17:35Z</time>
</trkpt>
<trkpt lat="49.064969988539815" lon="9.060109946876764">
<ele>161.60000000000002</ele>
<time>2023-05-16T14:17:36Z</time>
</trkpt>
<trkpt lat="49.06495498493314" lon="9.060049932450056">
<ele>161.60000000000002</ele>
<time>2023-05-16T14:17:37Z</time>
</trkpt>
<trkpt lat="49.06494199298322" lon="9.059991929680109">
<ele>161.79999999999995</ele>
<time>2023-05-16T14:17:38Z</time>
</trkpt>
<trkpt lat="49.0649329405278" lon="9.059934932738543">
<ele>162</ele>
<time>2023-05-16T14:17:39Z</time>
</trkpt>
<trkpt lat="49.06492196023464" lon="9.059876929968596">
<ele>162</ele>
<time>2023-05-16T14:17:40Z</time>
</trkpt>
<trkpt lat="49.06491198576987" lon="9.059817921370268">
<ele>162.20000000000005</ele>
<time>2023-05-16T14:17:41Z</time>
</trkpt>
<trkpt lat="49.06489295884967" lon="9.05975698493421">
<ele>162.39999999999998</ele>
<time>2023-05-16T14:17:42Z</time>
</trkpt>
<trkpt lat="49.06487694941461" lon="9.059694958850741">
<ele>162.60000000000002</ele>
<time>2023-05-16T14:17:43Z</time>
</trkpt>
<trkpt lat="49.064862951636314" lon="9.059632932767272">
<ele>162.79999999999995</ele>
<time>2023-05-16T14:17:44Z</time>
</trkpt>
<trkpt lat="49.06485297717154" lon="9.059574929997325">
<ele>163</ele>
<time>2023-05-16T14:17:45Z</time>
</trkpt>
<trkpt lat="49.06483696773648" lon="9.059516927227378">
<ele>163.20000000000005</ele>
<time>2023-05-16T14:17:46Z</time>
</trkpt>
<trkpt lat="49.0648169349879" lon="9.05945498496294">
<ele>163.20000000000005</ele>
<time>2023-05-16T14:17:47Z</time>
</trkpt>
<trkpt lat="49.064797991886735" lon="9.059396982192993">
<ele>163.39999999999998</ele>
<time>2023-05-16T14:17:48Z</time>
</trkpt>
<trkpt lat="49.064779970794916" lon="9.059336967766285">
<ele>163.39999999999998</ele>
<time>2023-05-16T14:17:49Z</time>
</trkpt>
<trkpt lat="49.0647619497031" lon="9.059274941682816">
<ele>163.60000000000002</ele>
<time>2023-05-16T14:17:50Z</time>
</trkpt>
<trkpt lat="49.0647429227829" lon="9.059211993589997">
<ele>163.60000000000002</ele>
<time>2023-05-16T14:17:51Z</time>
</trkpt>
<trkpt lat="49.06472699716687" lon="9.059144938364625">
<ele>163.79999999999995</ele>
<time>2023-05-16T14:17:52Z</time>
</trkpt>
<trkpt lat="49.06470696441829" lon="9.059082996100187">
<ele>163.79999999999995</ele>
<time>2023-05-16T14:17:53Z</time>
</trkpt>
<trkpt lat="49.06468693166971" lon="9.059021975845098">
<ele>164</ele>
<time>2023-05-16T14:17:54Z</time>
</trkpt>
<trkpt lat="49.064667988568544" lon="9.058959949761629">
<ele>164</ele>
<time>2023-05-16T14:17:55Z</time>
</trkpt>
<trkpt lat="49.064649967476726" lon="9.05889691784978">
<ele>164</ele>
<time>2023-05-16T14:17:56Z</time>
</trkpt>
<trkpt lat="49.06463194638491" lon="9.05883296392858">
<ele>164.20000000000005</ele>
<time>2023-05-16T14:17:57Z</time>
</trkpt>
<trkpt lat="49.06461493112147" lon="9.05876993201673">
<ele>164.20000000000005</ele>
<time>2023-05-16T14:17:58Z</time>
</trkpt>
<trkpt lat="49.06459799967706" lon="9.058706983923912">
<ele>164.20000000000005</ele>
<time>2023-05-16T14:17:59Z</time>
</trkpt>
<trkpt lat="49.06457997858524" lon="9.058644957840443">
<ele>164.39999999999998</ele>
<time>2023-05-16T14:18:00Z</time>
</trkpt>
<trkpt lat="49.064561957493424" lon="9.058581925928593">
<ele>164.39999999999998</ele>
<time>2023-05-16T14:18:01Z</time>
</trkpt>
<trkpt lat="49.064542930573225" lon="9.058517972007394">
<ele>164.60000000000002</ele>
<time>2023-05-16T14:18:02Z</time>
</trkpt>
<trkpt lat="49.06452792696655" lon="9.058452928438783">
<ele>164.79999999999995</ele>
<time>2023-05-16T14:18:03Z</time>
</trkpt>
<trkpt lat="49.06451493501663" lon="9.058386962860823">
<ele>164.79999999999995</ele>
<time>2023-05-16T14:18:04Z</time>
</trkpt>
<trkpt lat="49.0645029488951" lon="9.058319991454482">
<ele>165</ele>
<time>2023-05-16T14:18:05Z</time>
</trkpt>
<trkpt lat="49.06449297443032" lon="9.058254947885871">
<ele>165</ele>
<time>2023-05-16T14:18:06Z</time>
</trkpt>
<trkpt lat="49.06448299996555" lon="9.058191999793053">
<ele>165.20000000000005</ele>
<time>2023-05-16T14:18:07Z</time>
</trkpt>
<trkpt lat="49.06447294168174" lon="9.058126956224442">
<ele>165.20000000000005</ele>
<time>2023-05-16T14:18:08Z</time>
</trkpt>
<trkpt lat="49.06446296721697" lon="9.058059984818101">
<ele>165.39999999999998</ele>
<time>2023-05-16T14:18:09Z</time>
</trkpt>
<trkpt lat="49.064452992752194" lon="9.05799494124949">
<ele>165.39999999999998</ele>
<time>2023-05-16T14:18:10Z</time>
</trkpt>
<trkpt lat="49.06444293446839" lon="9.057926964014769">
<ele>165.39999999999998</ele>
<time>2023-05-16T14:18:11Z</time>
</trkpt>
<trkpt lat="49.064432960003614" lon="9.057857980951667">
<ele>165.39999999999998</ele>
<time>2023-05-16T14:18:12Z</time>
</trkpt>
<trkpt lat="49.0644249971956" lon="9.057789919897914">
<ele>165.60000000000002</ele>
<time>2023-05-16T14:18:13Z</time>
</trkpt>
<trkpt lat="49.06441795639694" lon="9.057719931006432">
<ele>165.60000000000002</ele>
<time>2023-05-16T14:18:14Z</time>
</trkpt>
<trkpt lat="49.06440798193216" lon="9.057647930458188">
<ele>165.60000000000002</ele>
<time>2023-05-16T14:18:15Z</time>
</trkpt>
<trkpt lat="49.06439691781998" lon="9.057579953223467">
<ele>165.79999999999995</ele>
<time>2023-05-16T14:18:16Z</time>
</trkpt>
<trkpt lat="49.0643869433552" lon="9.057511975988746">
<ele>165.79999999999995</ele>
<time>2023-05-16T14:18:17Z</time>
</trkpt>
<trkpt lat="49.06437696889043" lon="9.057444920763373">
<ele>166</ele>
<time>2023-05-16T14:18:18Z</time>
</trkpt>
<trkpt lat="49.064366994425654" lon="9.057376943528652">
<ele>166</ele>
<time>2023-05-16T14:18:19Z</time>
</trkpt>
<trkpt lat="49.06435693614185" lon="9.05730695463717">
<ele>166.20000000000005</ele>
<time>2023-05-16T14:18:20Z</time>
</trkpt>
<trkpt lat="49.064346961677074" lon="9.057236965745687">
<ele>166.20000000000005</ele>
<time>2023-05-16T14:18:21Z</time>
</trkpt>
<trkpt lat="49.0643369872123" lon="9.057166976854205">
<ele>166.20000000000005</ele>
<time>2023-05-16T14:18:22Z</time>
</trkpt>
<trkpt lat="49.064322989434004" lon="9.057099921628833">
<ele>166.39999999999998</ele>
<time>2023-05-16T14:18:23Z</time>
</trkpt>
<trkpt lat="49.064304968342185" lon="9.057034961879253">
<ele>166.39999999999998</ele>
<time>2023-05-16T14:18:24Z</time>
</trkpt>
<trkpt lat="49.064284935593605" lon="9.056971929967403">
<ele>166.39999999999998</ele>
<time>2023-05-16T14:18:25Z</time>
</trkpt>
<trkpt lat="49.064262975007296" lon="9.056909987702966">
<ele>166.39999999999998</ele>
<time>2023-05-16T14:18:26Z</time>
</trkpt>
<trkpt lat="49.06424495391548" lon="9.056847961619496">
<ele>166.39999999999998</ele>
<time>2023-05-16T14:18:27Z</time>
</trkpt>
<trkpt lat="49.0642299503088" lon="9.056787947192788">
<ele>166.39999999999998</ele>
<time>2023-05-16T14:18:28Z</time>
</trkpt>
<trkpt lat="49.06421494670212" lon="9.056729944422841">
<ele>166.60000000000002</ele>
<time>2023-05-16T14:18:29Z</time>
</trkpt>
<trkpt lat="49.06420296058059" lon="9.056671941652894">
<ele>166.79999999999995</ele>
<time>2023-05-16T14:18:30Z</time>
</trkpt>
<trkpt lat="49.06419298611581" lon="9.056611927226186">
<ele>166.79999999999995</ele>
<time>2023-05-16T14:18:31Z</time>
</trkpt>
<trkpt lat="49.06418292783201" lon="9.056549984961748">
<ele>167</ele>
<time>2023-05-16T14:18:32Z</time>
</trkpt>
<trkpt lat="49.06417295336723" lon="9.056487958878279">
<ele>167</ele>
<time>2023-05-16T14:18:33Z</time>
</trkpt>
<trkpt lat="49.06416297890246" lon="9.05642693862319">
<ele>167.20000000000005</ele>
<time>2023-05-16T14:18:34Z</time>
</trkpt>
<trkpt lat="49.064151998609304" lon="9.056362984701991">
<ele>167.39999999999998</ele>
<time>2023-05-16T14:18:35Z</time>
</trkpt>
<trkpt lat="49.06413992866874" lon="9.056299952790141">
<ele>167.39999999999998</ele>
<time>2023-05-16T14:18:36Z</time>
</trkpt>
<trkpt lat="49.0641279425472" lon="9.056234993040562">
<ele>167.60000000000002</ele>
<time>2023-05-16T14:18:37Z</time>
</trkpt>
<trkpt lat="49.06411796808243" lon="9.05616793781519">
<ele>167.79999999999995</ele>
<time>2023-05-16T14:18:38Z</time>
</trkpt>
<trkpt lat="49.06410497613251" lon="9.05610297806561">
<ele>167.79999999999995</ele>
<time>2023-05-16T14:18:39Z</time>
</trkpt>
<trkpt lat="49.064089972525835" lon="9.056034917011857">
<ele>168</ele>
<time>2023-05-16T14:18:40Z</time>
</trkpt>
<trkpt lat="49.06407698057592" lon="9.055966939777136">
<ele>168</ele>
<time>2023-05-16T14:18:41Z</time>
</trkpt>
<trkpt lat="49.06406298279762" lon="9.055892927572131">
<ele>168</ele>
<time>2023-05-16T14:18:42Z</time>
</trkpt>
<trkpt lat="49.06404999084771" lon="9.055821932852268">
<ele>168</ele>
<time>2023-05-16T14:18:43Z</time>
</trkpt>
<trkpt lat="49.06403699889779" lon="9.055746998637915">
<ele>168.20000000000005</ele>
<time>2023-05-16T14:18:44Z</time>
</trkpt>
<trkpt lat="49.06402291730046" lon="9.05567198060453">
<ele>168.20000000000005</ele>
<time>2023-05-16T14:18:45Z</time>
</trkpt>
<trkpt lat="49.06400992535055" lon="9.055596962571144">
<ele>168.20000000000005</ele>
<time>2023-05-16T14:18:46Z</time>
</trkpt>
<trkpt lat="49.06399492174387" lon="9.055519932880998">
<ele>168.20000000000005</ele>
<time>2023-05-16T14:18:47Z</time>
</trkpt>
<trkpt lat="49.06397991813719" lon="9.055441981181502">
<ele>168.20000000000005</ele>
<time>2023-05-16T14:18:48Z</time>
</trkpt>
<trkpt lat="49.06396692618728" lon="9.055362939834595">
<ele>168.39999999999998</ele>
<time>2023-05-16T14:18:49Z</time>
</trkpt>
<trkpt lat="49.0639569517225" lon="9.055282976478338">
<ele>168.39999999999998</ele>
<time>2023-05-16T14:18:50Z</time>
</trkpt>
<trkpt lat="49.06394496560097" lon="9.055204940959811">
<ele>168.39999999999998</ele>
<time>2023-05-16T14:18:51Z</time>
</trkpt>
<trkpt lat="49.06393197365105" lon="9.055126989260316">
<ele>168.60000000000002</ele>
<time>2023-05-16T14:18:52Z</time>
</trkpt>
<trkpt lat="49.063916970044374" lon="9.05504995957017">
<ele>168.60000000000002</ele>
<time>2023-05-16T14:18:53Z</time>
</trkpt>
<trkpt lat="49.063899954780936" lon="9.054972929880023">
<ele>168.60000000000002</ele>
<time>2023-05-16T14:18:54Z</time>
</trkpt>
<trkpt lat="49.06388495117426" lon="9.054896989837289">
<ele>168.60000000000002</ele>
<time>2023-05-16T14:18:55Z</time>
</trkpt>
<trkpt lat="49.06386994756758" lon="9.054819960147142">
<ele>168.39999999999998</ele>
<time>2023-05-16T14:18:56Z</time>
</trkpt>
<trkpt lat="49.063856955617666" lon="9.054744942113757">
<ele>168.39999999999998</ele>
<time>2023-05-16T14:18:57Z</time>
</trkpt>
<trkpt lat="49.06384295783937" lon="9.054667996242642">
<ele>168.20000000000005</ele>
<time>2023-05-16T14:18:58Z</time>
</trkpt>
<trkpt lat="49.063829965889454" lon="9.054587949067354">
<ele>168.20000000000005</ele>
<time>2023-05-16T14:18:59Z</time>
</trkpt>
<trkpt lat="49.06381697393954" lon="9.054509997367859">
<ele>168.20000000000005</ele>
<time>2023-05-16T14:19:00Z</time>
</trkpt>
<trkpt lat="49.06380297616124" lon="9.05442995019257">
<ele>168</ele>
<time>2023-05-16T14:19:01Z</time>
</trkpt>
<trkpt lat="49.063789984211326" lon="9.054352920502424">
<ele>168</ele>
<time>2023-05-16T14:19:02Z</time>
</trkpt>
<trkpt lat="49.06377699226141" lon="9.054272957146168">
<ele>168</ele>
<time>2023-05-16T14:19:03Z</time>
</trkpt>
<trkpt lat="49.06376198865473" lon="9.05419492162764">
<ele>168</ele>
<time>2023-05-16T14:19:04Z</time>
</trkpt>
<trkpt lat="49.063746985048056" lon="9.054112946614623">
<ele>168</ele>
<time>2023-05-16T14:19:05Z</time>
</trkpt>
<trkpt lat="49.06373298726976" lon="9.054032983258367">
<ele>167.79999999999995</ele>
<time>2023-05-16T14:19:06Z</time>
</trkpt>
<trkpt lat="49.06372192315757" lon="9.053952936083078">
<ele>167.79999999999995</ele>
<time>2023-05-16T14:19:07Z</time>
</trkpt>
<trkpt lat="49.063707925379276" lon="9.053871966898441">
<ele>167.79999999999995</ele>
<time>2023-05-16T14:19:08Z</time>
</trkpt>
<trkpt lat="49.06369493342936" lon="9.053791919723153">
<ele>167.79999999999995</ele>
<time>2023-05-16T14:19:09Z</time>
</trkpt>
<trkpt lat="49.063681941479445" lon="9.053709944710135">
<ele>167.79999999999995</ele>
<time>2023-05-16T14:19:10Z</time>
</trkpt>
<trkpt lat="49.06366693787277" lon="9.053627969697118">
<ele>167.60000000000002</ele>
<time>2023-05-16T14:19:11Z</time>
</trkpt>
<trkpt lat="49.06365193426609" lon="9.05354792252183">
<ele>167.60000000000002</ele>
<time>2023-05-16T14:19:12Z</time>
</trkpt>
<trkpt lat="49.06363693065941" lon="9.053469970822334">
<ele>167.39999999999998</ele>
<time>2023-05-16T14:19:13Z</time>
</trkpt>
<trkpt lat="49.063621927052736" lon="9.053389923647046">
<ele>167.39999999999998</ele>
<time>2023-05-16T14:19:14Z</time>
</trkpt>
<trkpt lat="49.06360792927444" lon="9.05331197194755">
<ele>167.39999999999998</ele>
<time>2023-05-16T14:19:15Z</time>
</trkpt>
<trkpt lat="49.063594937324524" lon="9.053231924772263">
<ele>167.39999999999998</ele>
<time>2023-05-16T14:19:16Z</time>
</trkpt>
<trkpt lat="49.06357993371785" lon="9.053147938102484">
<ele>167.39999999999998</ele>
<time>2023-05-16T14:19:17Z</time>
</trkpt>
<trkpt lat="49.06356291845441" lon="9.053062945604324">
<ele>167.39999999999998</ele>
<time>2023-05-16T14:19:18Z</time>
</trkpt>
<trkpt lat="49.06354799866676" lon="9.052979964762926">
<ele>167.39999999999998</ele>
<time>2023-05-16T14:19:19Z</time>
</trkpt>
<trkpt lat="49.063534922897816" lon="9.052892960608006">
<ele>167.20000000000005</ele>
<time>2023-05-16T14:19:20Z</time>
</trkpt>
<trkpt lat="49.0635219309479" lon="9.052807968109846">
<ele>167.20000000000005</ele>
<time>2023-05-16T14:19:21Z</time>
</trkpt>
<trkpt lat="49.0635079331696" lon="9.052719958126545">
<ele>167.20000000000005</ele>
<time>2023-05-16T14:19:22Z</time>
</trkpt>
<trkpt lat="49.063491923734546" lon="9.052634965628386">
<ele>167.20000000000005</ele>
<time>2023-05-16T14:19:23Z</time>
</trkpt>
<trkpt lat="49.06347692012787" lon="9.052547961473465">
<ele>167</ele>
<time>2023-05-16T14:19:24Z</time>
</trkpt>
<trkpt lat="49.06346292234957" lon="9.052464980632067">
<ele>167</ele>
<time>2023-05-16T14:19:25Z</time>
</trkpt>
<trkpt lat="49.063447918742895" lon="9.052382921800017">
<ele>167</ele>
<time>2023-05-16T14:19:26Z</time>
</trkpt>
<trkpt lat="49.06343492679298" lon="9.052297929301858">
<ele>166.79999999999995</ele>
<time>2023-05-16T14:19:27Z</time>
</trkpt>
<trkpt lat="49.0634199231863" lon="9.05221494846046">
<ele>166.79999999999995</ele>
<time>2023-05-16T14:19:28Z</time>
</trkpt>
<trkpt lat="49.063402991741896" lon="9.052132973447442">
<ele>166.79999999999995</ele>
<time>2023-05-16T14:19:29Z</time>
</trkpt>
<trkpt lat="49.06338798813522" lon="9.052049992606044">
<ele>166.79999999999995</ele>
<time>2023-05-16T14:19:30Z</time>
</trkpt>
<trkpt lat="49.06337197870016" lon="9.051966927945614">
<ele>166.79999999999995</ele>
<time>2023-05-16T14:19:31Z</time>
</trkpt>
<trkpt lat="49.06335496343672" lon="9.051884952932596">
<ele>166.79999999999995</ele>
<time>2023-05-16T14:19:32Z</time>
</trkpt>
<trkpt lat="49.063339959830046" lon="9.051797948777676">
<ele>166.79999999999995</ele>
<time>2023-05-16T14:19:33Z</time>
</trkpt>
<trkpt lat="49.06332495622337" lon="9.051712956279516">
<ele>166.79999999999995</ele>
<time>2023-05-16T14:19:34Z</time>
</trkpt>
<trkpt lat="49.06331196427345" lon="9.051627963781357">
<ele>166.79999999999995</ele>
<time>2023-05-16T14:19:35Z</time>
</trkpt>
<trkpt lat="49.063297966495156" lon="9.051542971283197">
<ele>166.79999999999995</ele>
<time>2023-05-16T14:19:36Z</time>
</trkpt>
<trkpt lat="49.06328296288848" lon="9.051457978785038">
<ele>166.79999999999995</ele>
<time>2023-05-16T14:19:37Z</time>
</trkpt>
<trkpt lat="49.0632679592818" lon="9.051371980458498">
<ele>166.79999999999995</ele>
<time>2023-05-16T14:19:38Z</time>
</trkpt>
<trkpt lat="49.063254967331886" lon="9.051284976303577">
<ele>166.79999999999995</ele>
<time>2023-05-16T14:19:39Z</time>
</trkpt>
<trkpt lat="49.06324197538197" lon="9.051196966320276">
<ele>166.79999999999995</ele>
<time>2023-05-16T14:19:40Z</time>
</trkpt>
<trkpt lat="49.063231917098165" lon="9.051111973822117">
<ele>166.79999999999995</ele>
<time>2023-05-16T14:19:41Z</time>
</trkpt>
<trkpt lat="49.06321791931987" lon="9.051021952182055">
<ele>166.79999999999995</ele>
<time>2023-05-16T14:19:42Z</time>
</trkpt>
<trkpt lat="49.06320693902671" lon="9.050932936370373">
<ele>166.79999999999995</ele>
<time>2023-05-16T14:19:43Z</time>
</trkpt>
<trkpt lat="49.06319696456194" lon="9.050842998549342">
<ele>166.79999999999995</ele>
<time>2023-05-16T14:19:44Z</time>
</trkpt>
<trkpt lat="49.063184978440404" lon="9.050754988566041">
<ele>166.79999999999995</ele>
<time>2023-05-16T14:19:45Z</time>
</trkpt>
<trkpt lat="49.06317693181336" lon="9.050664966925979">
<ele>166.79999999999995</ele>
<time>2023-05-16T14:19:46Z</time>
</trkpt>
<trkpt lat="49.063167963176966" lon="9.050574945285916">
<ele>166.79999999999995</ele>
<time>2023-05-16T14:19:47Z</time>
</trkpt>
<trkpt lat="49.06315798871219" lon="9.050486935302615">
<ele>166.79999999999995</ele>
<time>2023-05-16T14:19:48Z</time>
</trkpt>
<trkpt lat="49.063147930428386" lon="9.050397919490933">
<ele>166.79999999999995</ele>
<time>2023-05-16T14:19:49Z</time>
</trkpt>
<trkpt lat="49.06313795596361" lon="9.050311921164393">
<ele>166.79999999999995</ele>
<time>2023-05-16T14:19:50Z</time>
</trkpt>
<trkpt lat="49.06312798149884" lon="9.050224917009473">
<ele>166.79999999999995</ele>
<time>2023-05-16T14:19:51Z</time>
</trkpt>
<trkpt lat="49.06311792321503" lon="9.050139924511313">
<ele>166.79999999999995</ele>
<time>2023-05-16T14:19:52Z</time>
</trkpt>
<trkpt lat="49.06310996040702" lon="9.050052920356393">
<ele>166.79999999999995</ele>
<time>2023-05-16T14:19:53Z</time>
</trkpt>
<trkpt lat="49.063101997599006" lon="9.049967927858233">
<ele>166.79999999999995</ele>
<time>2023-05-16T14:19:54Z</time>
</trkpt>
<trkpt lat="49.0630919393152" lon="9.049884947016835">
<ele>166.79999999999995</ele>
<time>2023-05-16T14:19:55Z</time>
</trkpt>
<trkpt lat="49.063081964850426" lon="9.049799954518676">
<ele>166.79999999999995</ele>
<time>2023-05-16T14:19:56Z</time>
</trkpt>
<trkpt lat="49.06307199038565" lon="9.049716973677278">
<ele>166.79999999999995</ele>
<time>2023-05-16T14:19:57Z</time>
</trkpt>
<trkpt lat="49.063059920445085" lon="9.049631981179118">
<ele>166.60000000000002</ele>
<time>2023-05-16T14:19:58Z</time>
</trkpt>
<trkpt lat="49.06305195763707" lon="9.049546988680959">
<ele>166.60000000000002</ele>
<time>2023-05-16T14:19:59Z</time>
</trkpt>
<trkpt lat="49.06304298900068" lon="9.0494619961828">
<ele>166.39999999999998</ele>
<time>2023-05-16T14:20:00Z</time>
</trkpt>
<trkpt lat="49.06303293071687" lon="9.049374992027879">
<ele>166.20000000000005</ele>
<time>2023-05-16T14:20:01Z</time>
</trkpt>
<trkpt lat="49.06302195042372" lon="9.049287987872958">
<ele>166</ele>
<time>2023-05-16T14:20:02Z</time>
</trkpt>
<trkpt lat="49.06300795264542" lon="9.049197966232896">
<ele>165.79999999999995</ele>
<time>2023-05-16T14:20:03Z</time>
</trkpt>
<trkpt lat="49.06299797818065" lon="9.049109956249595">
<ele>165.60000000000002</ele>
<time>2023-05-16T14:20:04Z</time>
</trkpt>
<trkpt lat="49.06298699788749" lon="9.049022952094674">
<ele>165.39999999999998</ele>
<time>2023-05-16T14:20:05Z</time>
</trkpt>
<trkpt lat="49.062974927946925" lon="9.048936953768134">
<ele>165.20000000000005</ele>
<time>2023-05-16T14:20:06Z</time>
</trkpt>
<trkpt lat="49.06296495348215" lon="9.048849949613214">
<ele>165</ele>
<time>2023-05-16T14:20:07Z</time>
</trkpt>
<trkpt lat="49.062952967360616" lon="9.048762945458293">
<ele>165</ele>
<time>2023-05-16T14:20:08Z</time>
</trkpt>
<trkpt lat="49.06294299289584" lon="9.04867191798985">
<ele>165</ele>
<time>2023-05-16T14:20:09Z</time>
</trkpt>
<trkpt lat="49.0629349462688" lon="9.04858198016882">
<ele>165</ele>
<time>2023-05-16T14:20:10Z</time>
</trkpt>
<trkpt lat="49.06292296014726" lon="9.048489946871996">
<ele>164.79999999999995</ele>
<time>2023-05-16T14:20:11Z</time>
</trkpt>
<trkpt lat="49.06291197985411" lon="9.048397997394204">
<ele>164.79999999999995</ele>
<time>2023-05-16T14:20:12Z</time>
</trkpt>
<trkpt lat="49.0629019215703" lon="9.048304958269">
<ele>164.79999999999995</ele>
<time>2023-05-16T14:20:13Z</time>
</trkpt>
<trkpt lat="49.06289295293391" lon="9.048211919143796">
<ele>164.79999999999995</ele>
<time>2023-05-16T14:20:14Z</time>
</trkpt>
<trkpt lat="49.06288297846913" lon="9.048119969666004">
<ele>164.60000000000002</ele>
<time>2023-05-16T14:20:15Z</time>
</trkpt>
<trkpt lat="49.06287493184209" lon="9.048029948025942">
<ele>164.60000000000002</ele>
<time>2023-05-16T14:20:16Z</time>
</trkpt>
<trkpt lat="49.062864957377315" lon="9.04794193804264">
<ele>164.39999999999998</ele>
<time>2023-05-16T14:20:17Z</time>
</trkpt>
<trkpt lat="49.06285297125578" lon="9.04785493388772">
<ele>164.39999999999998</ele>
<time>2023-05-16T14:20:18Z</time>
</trkpt>
<trkpt lat="49.062842996791005" lon="9.047766923904419">
<ele>164.20000000000005</ele>
<time>2023-05-16T14:20:19Z</time>
</trkpt>
<trkpt lat="49.06283495016396" lon="9.047679919749498">
<ele>164.20000000000005</ele>
<time>2023-05-16T14:20:20Z</time>
</trkpt>
<trkpt lat="49.06283193267882" lon="9.047591993585229">
<ele>164</ele>
<time>2023-05-16T14:20:21Z</time>
</trkpt>
<trkpt lat="49.06283193267882" lon="9.047499960288405">
<ele>164</ele>
<time>2023-05-16T14:20:22Z</time>
</trkpt>
<trkpt lat="49.06283193267882" lon="9.047409938648343">
<ele>164</ele>
<time>2023-05-16T14:20:23Z</time>
</trkpt>
<trkpt lat="49.06283193267882" lon="9.047317989170551">
<ele>163.79999999999995</ele>
<time>2023-05-16T14:20:24Z</time>
</trkpt>
<trkpt lat="49.06283193267882" lon="9.047227967530489">
<ele>163.79999999999995</ele>
<time>2023-05-16T14:20:25Z</time>
</trkpt>
<trkpt lat="49.06283193267882" lon="9.047137945890427">
<ele>163.79999999999995</ele>
<time>2023-05-16T14:20:26Z</time>
</trkpt>
<trkpt lat="49.0628329385072" lon="9.047047924250364">
<ele>163.60000000000002</ele>
<time>2023-05-16T14:20:27Z</time>
</trkpt>
<trkpt lat="49.0628329385072" lon="9.046959998086095">
<ele>163.60000000000002</ele>
<time>2023-05-16T14:20:28Z</time>
</trkpt>
<trkpt lat="49.0628329385072" lon="9.046869976446033">
<ele>163.39999999999998</ele>
<time>2023-05-16T14:20:29Z</time>
</trkpt>
<trkpt lat="49.0628329385072" lon="9.046781966462731">
<ele>163.39999999999998</ele>
<time>2023-05-16T14:20:30Z</time>
</trkpt>
<trkpt lat="49.0628329385072" lon="9.046691944822669">
<ele>163.39999999999998</ele>
<time>2023-05-16T14:20:31Z</time>
</trkpt>
<trkpt lat="49.0628329385072" lon="9.046604940667748">
<ele>163.20000000000005</ele>
<time>2023-05-16T14:20:32Z</time>
</trkpt>
<trkpt lat="49.0628329385072" lon="9.046516930684447">
<ele>163.20000000000005</ele>
<time>2023-05-16T14:20:33Z</time>
</trkpt>
<trkpt lat="49.0628329385072" lon="9.046427998691797">
<ele>163</ele>
<time>2023-05-16T14:20:34Z</time>
</trkpt>
<trkpt lat="49.0628329385072" lon="9.046341916546226">
<ele>162.79999999999995</ele>
<time>2023-05-16T14:20:35Z</time>
</trkpt>
<trkpt lat="49.0628329385072" lon="9.046254996210337">
<ele>162.79999999999995</ele>
<time>2023-05-16T14:20:36Z</time>
</trkpt>
<trkpt lat="49.0628329385072" lon="9.046166986227036">
<ele>162.60000000000002</ele>
<time>2023-05-16T14:20:37Z</time>
</trkpt>
<trkpt lat="49.06283193267882" lon="9.046077970415354">
<ele>162.60000000000002</ele>
<time>2023-05-16T14:20:38Z</time>
</trkpt>
<trkpt lat="49.06282992102206" lon="9.045987948775291">
<ele>162.39999999999998</ele>
<time>2023-05-16T14:20:39Z</time>
</trkpt>
<trkpt lat="49.06282799318433" lon="9.04589993879199">
<ele>162.39999999999998</ele>
<time>2023-05-16T14:20:40Z</time>
</trkpt>
<trkpt lat="49.06282799318433" lon="9.04581192880869">
<ele>162.20000000000005</ele>
<time>2023-05-16T14:20:41Z</time>
</trkpt>
<trkpt lat="49.06282799318433" lon="9.04572693631053">
<ele>162</ele>
<time>2023-05-16T14:20:42Z</time>
</trkpt>
<trkpt lat="49.06282992102206" lon="9.04564194381237">
<ele>161.79999999999995</ele>
<time>2023-05-16T14:20:43Z</time>
</trkpt>
<trkpt lat="49.06283193267882" lon="9.045557957142591">
<ele>161.79999999999995</ele>
<time>2023-05-16T14:20:44Z</time>
</trkpt>
<trkpt lat="49.06283193267882" lon="9.045476987957954">
<ele>161.60000000000002</ele>
<time>2023-05-16T14:20:45Z</time>
</trkpt>
<trkpt lat="49.06282992102206" lon="9.045396940782666">
<ele>161.39999999999998</ele>
<time>2023-05-16T14:20:46Z</time>
</trkpt>
<trkpt lat="49.06282992102206" lon="9.045319994911551">
<ele>161.20000000000005</ele>
<time>2023-05-16T14:20:47Z</time>
</trkpt>
<trkpt lat="49.06283193267882" lon="9.045242965221405">
<ele>161</ele>
<time>2023-05-16T14:20:48Z</time>
</trkpt>
<trkpt lat="49.0628379676491" lon="9.04516794718802">
<ele>160.79999999999995</ele>
<time>2023-05-16T14:20:49Z</time>
</trkpt>
<trkpt lat="49.062844924628735" lon="9.045096952468157">
<ele>160.79999999999995</ele>
<time>2023-05-16T14:20:50Z</time>
</trkpt>
<trkpt lat="49.0628519654274" lon="9.045024951919913">
<ele>160.79999999999995</ele>
<time>2023-05-16T14:20:51Z</time>
</trkpt>
<trkpt lat="49.06285992823541" lon="9.04495295137167">
<ele>160.79999999999995</ele>
<time>2023-05-16T14:20:52Z</time>
</trkpt>
<trkpt lat="49.06287199817598" lon="9.044877933338284">
<ele>161</ele>
<time>2023-05-16T14:20:53Z</time>
</trkpt>
<trkpt lat="49.062884990125895" lon="9.04479998163879">
<ele>161</ele>
<time>2023-05-16T14:20:54Z</time>
</trkpt>
<trkpt lat="49.06289999373257" lon="9.044722951948643">
<ele>161</ele>
<time>2023-05-16T14:20:55Z</time>
</trkpt>
<trkpt lat="49.06291298568249" lon="9.044641982764006">
<ele>161.20000000000005</ele>
<time>2023-05-16T14:20:56Z</time>
</trkpt>
<trkpt lat="49.06292497180402" lon="9.044559923931956">
<ele>161.20000000000005</ele>
<time>2023-05-16T14:20:57Z</time>
</trkpt>
<trkpt lat="49.06293796375394" lon="9.044474931433797">
<ele>161.20000000000005</ele>
<time>2023-05-16T14:20:58Z</time>
</trkpt>
<trkpt lat="49.062949949875474" lon="9.044387927278876">
<ele>161.20000000000005</ele>
<time>2023-05-16T14:20:59Z</time>
</trkpt>
<trkpt lat="49.06296294182539" lon="9.044302934780717">
<ele>161.20000000000005</ele>
<time>2023-05-16T14:21:00Z</time>
</trkpt>
<trkpt lat="49.062974927946925" lon="9.044217942282557">
<ele>161.20000000000005</ele>
<time>2023-05-16T14:21:01Z</time>
</trkpt>
<trkpt lat="49.06298791989684" lon="9.04413697309792">
<ele>161.20000000000005</ele>
<time>2023-05-16T14:21:02Z</time>
</trkpt>
<trkpt lat="49.06300191767514" lon="9.044059943407774">
<ele>161.39999999999998</ele>
<time>2023-05-16T14:21:03Z</time>
</trkpt>
<trkpt lat="49.063012981787324" lon="9.043984925374389">
<ele>161.39999999999998</ele>
<time>2023-05-16T14:21:04Z</time>
</trkpt>
<trkpt lat="49.063027985394" lon="9.043912924826145">
<ele>161.39999999999998</ele>
<time>2023-05-16T14:21:05Z</time>
</trkpt>
<trkpt lat="49.06304491683841" lon="9.043839918449521">
<ele>161.60000000000002</ele>
<time>2023-05-16T14:21:06Z</time>
</trkpt>
<trkpt lat="49.063061932101846" lon="9.043766995891929">
<ele>161.60000000000002</ele>
<time>2023-05-16T14:21:07Z</time>
</trkpt>
<trkpt lat="49.063081964850426" lon="9.043691977858543">
<ele>161.60000000000002</ele>
<time>2023-05-16T14:21:08Z</time>
</trkpt>
<trkpt lat="49.063101997599006" lon="9.043616959825158">
<ele>161.60000000000002</ele>
<time>2023-05-16T14:21:09Z</time>
</trkpt>
<trkpt lat="49.063121946528554" lon="9.043542947620153">
<ele>161.60000000000002</ele>
<time>2023-05-16T14:21:10Z</time>
</trkpt>
<trkpt lat="49.063141979277134" lon="9.043472958728671">
<ele>161.60000000000002</ele>
<time>2023-05-16T14:21:11Z</time>
</trkpt>
<trkpt lat="49.06316192820668" lon="9.043406993150711">
<ele>161.79999999999995</ele>
<time>2023-05-16T14:21:12Z</time>
</trkpt>
<trkpt lat="49.0631799492985" lon="9.043337926268578">
<ele>161.79999999999995</ele>
<time>2023-05-16T14:21:13Z</time>
</trkpt>
<trkpt lat="49.06319797039032" lon="9.043271960690618">
<ele>161.79999999999995</ele>
<time>2023-05-16T14:21:14Z</time>
</trkpt>
<trkpt lat="49.06321498565376" lon="9.043204989284277">
<ele>161.79999999999995</ele>
<time>2023-05-16T14:21:15Z</time>
</trkpt>
<trkpt lat="49.063232922926545" lon="9.043132988736033">
<ele>161.79999999999995</ele>
<time>2023-05-16T14:21:16Z</time>
</trkpt>
<trkpt lat="49.063252955675125" lon="9.043062999844551">
<ele>161.79999999999995</ele>
<time>2023-05-16T14:21:17Z</time>
</trkpt>
<trkpt lat="49.063271982595325" lon="9.042992927134037">
<ele>161.79999999999995</ele>
<time>2023-05-16T14:21:18Z</time>
</trkpt>
<trkpt lat="49.06329193152487" lon="9.042922938242555">
<ele>161.60000000000002</ele>
<time>2023-05-16T14:21:19Z</time>
</trkpt>
<trkpt lat="49.06331196427345" lon="9.042857978492975">
<ele>161.60000000000002</ele>
<time>2023-05-16T14:21:20Z</time>
</trkpt>
<trkpt lat="49.06332998536527" lon="9.042789917439222">
<ele>161.60000000000002</ele>
<time>2023-05-16T14:21:21Z</time>
</trkpt>
<trkpt lat="49.06334792263806" lon="9.04271992854774">
<ele>161.60000000000002</ele>
<time>2023-05-16T14:21:22Z</time>
</trkpt>
<trkpt lat="49.0633649379015" lon="9.042646922171116">
<ele>161.60000000000002</ele>
<time>2023-05-16T14:21:23Z</time>
</trkpt>
<trkpt lat="49.063382958993316" lon="9.042571987956762">
<ele>161.60000000000002</ele>
<time>2023-05-16T14:21:24Z</time>
</trkpt>
<trkpt lat="49.063404919579625" lon="9.042494958266616">
<ele>161.60000000000002</ele>
<time>2023-05-16T14:21:25Z</time>
</trkpt>
<trkpt lat="49.063426963984966" lon="9.042416922748089">
<ele>161.39999999999998</ele>
<time>2023-05-16T14:21:26Z</time>
</trkpt>
<trkpt lat="49.063449930399656" lon="9.042336959391832">
<ele>161.39999999999998</ele>
<time>2023-05-16T14:21:27Z</time>
</trkpt>
<trkpt lat="49.063471974805" lon="9.042256996035576">
<ele>161.20000000000005</ele>
<time>2023-05-16T14:21:28Z</time>
</trkpt>
<trkpt lat="49.063491923734546" lon="9.042177954688668">
<ele>161.20000000000005</ele>
<time>2023-05-16T14:21:29Z</time>
</trkpt>
<trkpt lat="49.063512962311506" lon="9.042104948312044">
<ele>161</ele>
<time>2023-05-16T14:21:30Z</time>
</trkpt>
<trkpt lat="49.063531989231706" lon="9.042029930278659">
<ele>160.60000000000002</ele>
<time>2023-05-16T14:21:31Z</time>
</trkpt>
<trkpt lat="49.06354992650449" lon="9.041957929730415">
<ele>160.39999999999998</ele>
<time>2023-05-16T14:21:32Z</time>
</trkpt>
<trkpt lat="49.06356995925307" lon="9.041884923353791">
<ele>160.20000000000005</ele>
<time>2023-05-16T14:21:33Z</time>
</trkpt>
<trkpt lat="49.06358697451651" lon="9.041812922805548">
<ele>160</ele>
<time>2023-05-16T14:21:34Z</time>
</trkpt>
<trkpt lat="49.06360298395157" lon="9.041741928085685">
<ele>159.79999999999995</ele>
<time>2023-05-16T14:21:35Z</time>
</trkpt>
<trkpt lat="49.063617987558246" lon="9.041669927537441">
<ele>159.60000000000002</ele>
<time>2023-05-16T14:21:36Z</time>
</trkpt>
<trkpt lat="49.06363299116492" lon="9.041592981666327">
<ele>159.60000000000002</ele>
<time>2023-05-16T14:21:37Z</time>
</trkpt>
<trkpt lat="49.0636429656297" lon="9.041512934491038">
<ele>159.39999999999998</ele>
<time>2023-05-16T14:21:38Z</time>
</trkpt>
<trkpt lat="49.06364992260933" lon="9.041431965306401">
<ele>159.20000000000005</ele>
<time>2023-05-16T14:21:39Z</time>
</trkpt>
<trkpt lat="49.06365495175123" lon="9.041347978636622">
<ele>159</ele>
<time>2023-05-16T14:21:40Z</time>
</trkpt>
<trkpt lat="49.06365495175123" lon="9.041264997795224">
<ele>159</ele>
<time>2023-05-16T14:21:41Z</time>
</trkpt>
<trkpt lat="49.06365294009447" lon="9.041179921478033">
<ele>159</ele>
<time>2023-05-16T14:21:42Z</time>
</trkpt>
<trkpt lat="49.06365294009447" lon="9.041091995313764">
<ele>158.79999999999995</ele>
<time>2023-05-16T14:21:43Z</time>
</trkpt>
<trkpt lat="49.06365495175123" lon="9.041001973673701">
<ele>158.79999999999995</ele>
<time>2023-05-16T14:21:44Z</time>
</trkpt>
<trkpt lat="49.06365495175123" lon="9.040907928720117">
<ele>158.79999999999995</ele>
<time>2023-05-16T14:21:45Z</time>
</trkpt>
<trkpt lat="49.06365696340799" lon="9.040812961757183">
<ele>158.79999999999995</ele>
<time>2023-05-16T14:21:46Z</time>
</trkpt>
<trkpt lat="49.063657969236374" lon="9.040716988965869">
<ele>158.60000000000002</ele>
<time>2023-05-16T14:21:47Z</time>
</trkpt>
<trkpt lat="49.063659980893135" lon="9.040616992861032">
<ele>158.60000000000002</ele>
<time>2023-05-16T14:21:48Z</time>
</trkpt>
<trkpt lat="49.063659980893135" lon="9.040521942079067">
<ele>158.60000000000002</ele>
<time>2023-05-16T14:21:49Z</time>
</trkpt>
<trkpt lat="49.063659980893135" lon="9.040424963459373">
<ele>158.60000000000002</ele>
<time>2023-05-16T14:21:50Z</time>
</trkpt>
<trkpt lat="49.063657969236374" lon="9.040329996496439">
<ele>158.60000000000002</ele>
<time>2023-05-16T14:21:51Z</time>
</trkpt>
<trkpt lat="49.063657969236374" lon="9.040236957371235">
<ele>158.60000000000002</ele>
<time>2023-05-16T14:21:52Z</time>
</trkpt>
<trkpt lat="49.063659980893135" lon="9.040146935731173">
<ele>158.39999999999998</ele>
<time>2023-05-16T14:21:53Z</time>
</trkpt>
<trkpt lat="49.06366299837828" lon="9.040056997910142">
<ele>158.39999999999998</ele>
<time>2023-05-16T14:21:54Z</time>
</trkpt>
<trkpt lat="49.06366693787277" lon="9.03996697627008">
<ele>158.39999999999998</ele>
<time>2023-05-16T14:21:55Z</time>
</trkpt>
<trkpt lat="49.06366693787277" lon="9.039876954630017">
<ele>158.20000000000005</ele>
<time>2023-05-16T14:21:56Z</time>
</trkpt>
<trkpt lat="49.06366794370115" lon="9.039784921333194">
<ele>158.20000000000005</ele>
<time>2023-05-16T14:21:57Z</time>
</trkpt>
<trkpt lat="49.06366995535791" lon="9.039696995168924">
<ele>158.20000000000005</ele>
<time>2023-05-16T14:21:58Z</time>
</trkpt>
<trkpt lat="49.06366995535791" lon="9.039607979357243">
<ele>158.20000000000005</ele>
<time>2023-05-16T14:21:59Z</time>
</trkpt>
<trkpt lat="49.06366794370115" lon="9.039519969373941">
<ele>158.20000000000005</ele>
<time>2023-05-16T14:22:00Z</time>
</trkpt>
<trkpt lat="49.06366995535791" lon="9.03943296521902">
<ele>158.20000000000005</ele>
<time>2023-05-16T14:22:01Z</time>
</trkpt>
<trkpt lat="49.06367297284305" lon="9.03934696689248">
<ele>158.20000000000005</ele>
<time>2023-05-16T14:22:02Z</time>
</trkpt>
<trkpt lat="49.06367498449981" lon="9.03925996273756">
<ele>158.20000000000005</ele>
<time>2023-05-16T14:22:03Z</time>
</trkpt>
<trkpt lat="49.06367498449981" lon="9.0391749702394">
<ele>158</ele>
<time>2023-05-16T14:22:04Z</time>
</trkpt>
<trkpt lat="49.06367498449981" lon="9.039096934720874">
<ele>158</ele>
<time>2023-05-16T14:22:05Z</time>
</trkpt>
<trkpt lat="49.06367699615657" lon="9.03902292251587">
<ele>158</ele>
<time>2023-05-16T14:22:06Z</time>
</trkpt>
<trkpt lat="49.06367699615657" lon="9.038951927796006">
<ele>157.79999999999995</ele>
<time>2023-05-16T14:22:07Z</time>
</trkpt>
<trkpt lat="49.06367699615657" lon="9.038881938904524">
<ele>157.79999999999995</ele>
<time>2023-05-16T14:22:08Z</time>
</trkpt>
<trkpt lat="49.063682947307825" lon="9.03880993835628">
<ele>157.60000000000002</ele>
<time>2023-05-16T14:22:09Z</time>
</trkpt>
<trkpt lat="49.06369199976325" lon="9.038739949464798">
<ele>157.60000000000002</ele>
<time>2023-05-16T14:22:10Z</time>
</trkpt>
<trkpt lat="49.063702980056405" lon="9.038666943088174">
<ele>157.60000000000002</ele>
<time>2023-05-16T14:22:11Z</time>
</trkpt>
<trkpt lat="49.06371999531984" lon="9.038596954196692">
<ele>157.60000000000002</ele>
<time>2023-05-16T14:22:12Z</time>
</trkpt>
<trkpt lat="49.06373793259263" lon="9.038524953648448">
<ele>157.60000000000002</ele>
<time>2023-05-16T14:22:13Z</time>
</trkpt>
<trkpt lat="49.06375997699797" lon="9.038449935615063">
<ele>157.60000000000002</ele>
<time>2023-05-16T14:22:14Z</time>
</trkpt>
<trkpt lat="49.06377992592752" lon="9.038374917581677">
<ele>157.39999999999998</ele>
<time>2023-05-16T14:22:15Z</time>
</trkpt>
<trkpt lat="49.0637999586761" lon="9.038296965882182">
<ele>157.39999999999998</ele>
<time>2023-05-16T14:22:16Z</time>
</trkpt>
<trkpt lat="49.06381797976792" lon="9.038219936192036">
<ele>157.39999999999998</ele>
<time>2023-05-16T14:22:17Z</time>
</trkpt>
<trkpt lat="49.06383994035423" lon="9.038142990320921">
<ele>157.39999999999998</ele>
<time>2023-05-16T14:22:18Z</time>
</trkpt>
<trkpt lat="49.06386299058795" lon="9.038064954802394">
<ele>157.20000000000005</ele>
<time>2023-05-16T14:22:19Z</time>
</trkpt>
<trkpt lat="49.06388696283102" lon="9.037986919283867">
<ele>157.20000000000005</ele>
<time>2023-05-16T14:22:20Z</time>
</trkpt>
<trkpt lat="49.0639069955796" lon="9.03790494427085">
<ele>157.20000000000005</ele>
<time>2023-05-16T14:22:21Z</time>
</trkpt>
<trkpt lat="49.06392694450915" lon="9.037822969257832">
<ele>157</ele>
<time>2023-05-16T14:22:22Z</time>
</trkpt>
<trkpt lat="49.06394798308611" lon="9.037741916254163">
<ele>157</ele>
<time>2023-05-16T14:22:23Z</time>
</trkpt>
<trkpt lat="49.06397296115756" lon="9.037659941241145">
<ele>157</ele>
<time>2023-05-16T14:22:24Z</time>
</trkpt>
<trkpt lat="49.06399492174387" lon="9.037579977884889">
<ele>157</ele>
<time>2023-05-16T14:22:25Z</time>
</trkpt>
<trkpt lat="49.06401495449245" lon="9.03749791905284">
<ele>156.79999999999995</ele>
<time>2023-05-16T14:22:26Z</time>
</trkpt>
<trkpt lat="49.06403196975589" lon="9.037416949868202">
<ele>156.79999999999995</ele>
<time>2023-05-16T14:22:27Z</time>
</trkpt>
<trkpt lat="49.064046973362565" lon="9.037337992340326">
<ele>156.79999999999995</ele>
<time>2023-05-16T14:22:28Z</time>
</trkpt>
<trkpt lat="49.06405493617058" lon="9.0372599568218">
<ele>156.60000000000002</ele>
<time>2023-05-16T14:22:29Z</time>
</trkpt>
<trkpt lat="49.064051918685436" lon="9.037184938788414">
<ele>156.60000000000002</ele>
<time>2023-05-16T14:22:30Z</time>
</trkpt>
<trkpt lat="49.06403297558427" lon="9.037126936018467">
<ele>156.60000000000002</ele>
<time>2023-05-16T14:22:31Z</time>
</trkpt>
<trkpt lat="49.06399995088577" lon="9.037091983482242">
<ele>156.39999999999998</ele>
<time>2023-05-16T14:22:32Z</time>
</trkpt>
<trkpt lat="49.06395795755088" lon="9.037066921591759">
<ele>156.39999999999998</ele>
<time>2023-05-16T14:22:33Z</time>
</trkpt>
<trkpt lat="49.06391294673085" lon="9.037042949348688">
<ele>156.39999999999998</ele>
<time>2023-05-16T14:22:34Z</time>
</trkpt>
<trkpt lat="49.06386693008244" lon="9.037012942135334">
<ele>156.39999999999998</ele>
<time>2023-05-16T14:22:35Z</time>
</trkpt>
<trkpt lat="49.06381999142468" lon="9.036986958235502">
<ele>156.39999999999998</ele>
<time>2023-05-16T14:22:36Z</time>
</trkpt>
<trkpt lat="49.06377498060465" lon="9.036954939365387">
<ele>156.39999999999998</ele>
<time>2023-05-16T14:22:37Z</time>
</trkpt>
<trkpt lat="49.06372996978462" lon="9.036926943808794">
<ele>156.60000000000002</ele>
<time>2023-05-16T14:22:38Z</time>
</trkpt>
<trkpt lat="49.06368697062135" lon="9.036894924938679">
<ele>156.60000000000002</ele>
<time>2023-05-16T14:22:39Z</time>
</trkpt>
<trkpt lat="49.0636429656297" lon="9.036862989887595">
<ele>156.60000000000002</ele>
<time>2023-05-16T14:22:40Z</time>
</trkpt>
<trkpt lat="49.06359996646643" lon="9.03683197684586">
<ele>156.60000000000002</ele>
<time>2023-05-16T14:22:41Z</time>
</trkpt>
<trkpt lat="49.063554955646396" lon="9.036797946318984">
<ele>156.60000000000002</ele>
<time>2023-05-16T14:22:42Z</time>
</trkpt>
<trkpt lat="49.06350692734122" lon="9.036771962419152">
<ele>156.60000000000002</ele>
<time>2023-05-16T14:22:43Z</time>
</trkpt>
<trkpt lat="49.0634579770267" lon="9.036746984347701">
<ele>156.60000000000002</ele>
<time>2023-05-16T14:22:44Z</time>
</trkpt>
<trkpt lat="49.06341196037829" lon="9.036719994619489">
<ele>156.79999999999995</ele>
<time>2023-05-16T14:22:45Z</time>
</trkpt>
<trkpt lat="49.0633649379015" lon="9.036687975749373">
<ele>156.79999999999995</ele>
<time>2023-05-16T14:22:46Z</time>
</trkpt>
<trkpt lat="49.063316993415356" lon="9.036656962707639">
<ele>156.79999999999995</ele>
<time>2023-05-16T14:22:47Z</time>
</trkpt>
<trkpt lat="49.06326997093856" lon="9.036627961322665">
<ele>157</ele>
<time>2023-05-16T14:22:48Z</time>
</trkpt>
<trkpt lat="49.06322496011853" lon="9.03659694828093">
<ele>157</ele>
<time>2023-05-16T14:22:49Z</time>
</trkpt>
<trkpt lat="49.06317693181336" lon="9.036562917754054">
<ele>157</ele>
<time>2023-05-16T14:22:50Z</time>
</trkpt>
<trkpt lat="49.06313192099333" lon="9.036527965217829">
<ele>157.20000000000005</ele>
<time>2023-05-16T14:22:51Z</time>
</trkpt>
<trkpt lat="49.06308699399233" lon="9.036494940519333">
<ele>157.20000000000005</ele>
<time>2023-05-16T14:22:52Z</time>
</trkpt>
<trkpt lat="49.063039971515536" lon="9.036461999639869">
<ele>157.39999999999998</ele>
<time>2023-05-16T14:22:53Z</time>
</trkpt>
<trkpt lat="49.06299194321036" lon="9.036432998254895">
<ele>157.39999999999998</ele>
<time>2023-05-16T14:22:54Z</time>
</trkpt>
<trkpt lat="49.06294793821871" lon="9.03640491887927">
<ele>157.60000000000002</ele>
<time>2023-05-16T14:22:55Z</time>
</trkpt>
<trkpt lat="49.06290292739868" lon="9.036376923322678">
<ele>157.60000000000002</ele>
<time>2023-05-16T14:22:56Z</time>
</trkpt>
<trkpt lat="49.06285791657865" lon="9.036349933594465">
<ele>157.79999999999995</ele>
<time>2023-05-16T14:22:57Z</time>
</trkpt>
<trkpt lat="49.06281298957765" lon="9.036322943866253">
<ele>157.79999999999995</ele>
<time>2023-05-16T14:22:58Z</time>
</trkpt>
<trkpt lat="49.06277493573725" lon="9.036296959966421">
<ele>157.79999999999995</ele>
<time>2023-05-16T14:22:59Z</time>
</trkpt>
<trkpt lat="49.062734954059124" lon="9.036266952753067">
<ele>157.79999999999995</ele>
<time>2023-05-16T14:23:00Z</time>
</trkpt>
<trkpt lat="49.06269798986614" lon="9.036241974681616">
<ele>158</ele>
<time>2023-05-16T14:23:01Z</time>
</trkpt>
<trkpt lat="49.06266295351088" lon="9.036214984953403">
<ele>158</ele>
<time>2023-05-16T14:23:02Z</time>
</trkpt>
<trkpt lat="49.062629928812385" lon="9.03618698939681">
<ele>158</ele>
<time>2023-05-16T14:23:03Z</time>
</trkpt>
<trkpt lat="49.06260193325579" lon="9.036147929728031">
<ele>158</ele>
<time>2023-05-16T14:23:04Z</time>
</trkpt>
<trkpt lat="49.06258198432624" lon="9.036097973585129">
<ele>158.20000000000005</ele>
<time>2023-05-16T14:23:05Z</time>
</trkpt>
<trkpt lat="49.06257695518434" lon="9.03603795915842">
<ele>158.20000000000005</ele>
<time>2023-05-16T14:23:06Z</time>
</trkpt>
<trkpt lat="49.06257796101272" lon="9.03597199358046">
<ele>158.20000000000005</ele>
<time>2023-05-16T14:23:07Z</time>
</trkpt>
<trkpt lat="49.062587935477495" lon="9.035897981375456">
<ele>158.20000000000005</ele>
<time>2023-05-16T14:23:08Z</time>
</trkpt>
<trkpt lat="49.06259992159903" lon="9.035824974998832">
<ele>158.39999999999998</ele>
<time>2023-05-16T14:23:09Z</time>
</trkpt>
<trkpt lat="49.06261693686247" lon="9.035752974450588">
<ele>158.39999999999998</ele>
<time>2023-05-16T14:23:10Z</time>
</trkpt>
<trkpt lat="49.062632946297526" lon="9.035677956417203">
<ele>158.39999999999998</ele>
<time>2023-05-16T14:23:11Z</time>
</trkpt>
<trkpt lat="49.062652979046106" lon="9.035601932555437">
<ele>158.60000000000002</ele>
<time>2023-05-16T14:23:12Z</time>
</trkpt>
<trkpt lat="49.062669994309545" lon="9.03552196919918">
<ele>158.60000000000002</ele>
<time>2023-05-16T14:23:13Z</time>
</trkpt>
<trkpt lat="49.06268793158233" lon="9.035441922023892">
<ele>158.79999999999995</ele>
<time>2023-05-16T14:23:14Z</time>
</trkpt>
<trkpt lat="49.06270494684577" lon="9.035357935354114">
<ele>159</ele>
<time>2023-05-16T14:23:15Z</time>
</trkpt>
<trkpt lat="49.06272296793759" lon="9.035272942855954">
<ele>159.20000000000005</ele>
<time>2023-05-16T14:23:16Z</time>
</trkpt>
<trkpt lat="49.06274199485779" lon="9.035187950357795">
<ele>159.39999999999998</ele>
<time>2023-05-16T14:23:17Z</time>
</trkpt>
<trkpt lat="49.06276294961572" lon="9.035102957859635">
<ele>159.60000000000002</ele>
<time>2023-05-16T14:23:18Z</time>
</trkpt>
<trkpt lat="49.062781976535916" lon="9.035021988674998">
<ele>159.79999999999995</ele>
<time>2023-05-16T14:23:19Z</time>
</trkpt>
<trkpt lat="49.062799997627735" lon="9.034936996176839">
<ele>160</ele>
<time>2023-05-16T14:23:20Z</time>
</trkpt>
<trkpt lat="49.06281692907214" lon="9.034852925688028">
<ele>160</ele>
<time>2023-05-16T14:23:21Z</time>
</trkpt>
<trkpt lat="49.06283495016396" lon="9.03476994484663">
<ele>160.20000000000005</ele>
<time>2023-05-16T14:23:22Z</time>
</trkpt>
<trkpt lat="49.0628519654274" lon="9.034686964005232">
<ele>160.39999999999998</ele>
<time>2023-05-16T14:23:23Z</time>
</trkpt>
<trkpt lat="49.06286998651922" lon="9.034604988992214">
<ele>160.60000000000002</ele>
<time>2023-05-16T14:23:24Z</time>
</trkpt>
<trkpt lat="49.062887923792005" lon="9.034521924331784">
<ele>160.79999999999995</ele>
<time>2023-05-16T14:23:25Z</time>
</trkpt>
<trkpt lat="49.062906950712204" lon="9.034441960975528">
<ele>161</ele>
<time>2023-05-16T14:23:26Z</time>
</trkpt>
<trkpt lat="49.06292296014726" lon="9.03436291962862">
<ele>161.20000000000005</ele>
<time>2023-05-16T14:23:27Z</time>
</trkpt>
<trkpt lat="49.0629399754107" lon="9.034286979585886">
<ele>161.20000000000005</ele>
<time>2023-05-16T14:23:28Z</time>
</trkpt>
<trkpt lat="49.06295699067414" lon="9.034214979037642">
<ele>161.39999999999998</ele>
<time>2023-05-16T14:23:29Z</time>
</trkpt>
<trkpt lat="49.062971994280815" lon="9.034142978489399">
<ele>161.39999999999998</ele>
<time>2023-05-16T14:23:30Z</time>
</trkpt>
<trkpt lat="49.06298791989684" lon="9.034071983769536">
<ele>161.60000000000002</ele>
<time>2023-05-16T14:23:31Z</time>
</trkpt>
<trkpt lat="49.06300292350352" lon="9.033999983221292">
<ele>161.60000000000002</ele>
<time>2023-05-16T14:23:32Z</time>
</trkpt>
<trkpt lat="49.063019938766956" lon="9.033927982673049">
<ele>161.79999999999995</ele>
<time>2023-05-16T14:23:33Z</time>
</trkpt>
<trkpt lat="49.06303494237363" lon="9.033856987953186">
<ele>161.79999999999995</ele>
<time>2023-05-16T14:23:34Z</time>
</trkpt>
<trkpt lat="49.06304793432355" lon="9.033784987404943">
<ele>162</ele>
<time>2023-05-16T14:23:35Z</time>
</trkpt>
<trkpt lat="49.063061932101846" lon="9.033712986856699">
<ele>162</ele>
<time>2023-05-16T14:23:36Z</time>
</trkpt>
<trkpt lat="49.06307299621403" lon="9.033642997965217">
<ele>162.20000000000005</ele>
<time>2023-05-16T14:23:37Z</time>
</trkpt>
<trkpt lat="49.06308799982071" lon="9.033576948568225">
<ele>162.20000000000005</ele>
<time>2023-05-16T14:23:38Z</time>
</trkpt>
<trkpt lat="49.063102919608355" lon="9.033509977161884">
<ele>162.20000000000005</ele>
<time>2023-05-16T14:23:39Z</time>
</trkpt>
<trkpt lat="49.06311792321503" lon="9.033444933593273">
<ele>162.20000000000005</ele>
<time>2023-05-16T14:23:40Z</time>
</trkpt>
<trkpt lat="49.06313292682171" lon="9.033379973843694">
<ele>162.20000000000005</ele>
<time>2023-05-16T14:23:41Z</time>
</trkpt>
<trkpt lat="49.063146924600005" lon="9.033316941931844">
<ele>162.20000000000005</ele>
<time>2023-05-16T14:23:42Z</time>
</trkpt>
<trkpt lat="49.06315798871219" lon="9.033251982182264">
<ele>162.20000000000005</ele>
<time>2023-05-16T14:23:43Z</time>
</trkpt>
<trkpt lat="49.06317198649049" lon="9.033186938613653">
<ele>162.20000000000005</ele>
<time>2023-05-16T14:23:44Z</time>
</trkpt>
<trkpt lat="49.063184978440404" lon="9.033122984692454">
<ele>162.20000000000005</ele>
<time>2023-05-16T14:23:45Z</time>
</trkpt>
<trkpt lat="49.06319797039032" lon="9.033059952780604">
<ele>162.20000000000005</ele>
<time>2023-05-16T14:23:46Z</time>
</trkpt>
<trkpt lat="49.063212973997" lon="9.033001950010657">
<ele>162.20000000000005</ele>
<time>2023-05-16T14:23:47Z</time>
</trkpt>
<trkpt lat="49.063231917098165" lon="9.032946964725852">
<ele>162.20000000000005</ele>
<time>2023-05-16T14:23:48Z</time>
</trkpt>
<trkpt lat="49.06325697898865" lon="9.03290195390582">
<ele>162.20000000000005</ele>
<time>2023-05-16T14:23:49Z</time>
</trkpt>
<trkpt lat="49.06328991986811" lon="9.032871946692467">
<ele>162</ele>
<time>2023-05-16T14:23:50Z</time>
</trkpt>
<trkpt lat="49.06332998536527" lon="9.032852919772267">
<ele>162</ele>
<time>2023-05-16T14:23:51Z</time>
</trkpt>
<trkpt lat="49.06337298452854" lon="9.032844956964254">
<ele>162</ele>
<time>2023-05-16T14:23:52Z</time>
</trkpt>
<trkpt lat="49.06341799534857" lon="9.032841939479113">
<ele>162</ele>
<time>2023-05-16T14:23:53Z</time>
</trkpt>
<trkpt lat="49.063467951491475" lon="9.032842945307493">
<ele>162</ele>
<time>2023-05-16T14:23:54Z</time>
</trkpt>
<trkpt lat="49.06351698562503" lon="9.032851997762918">
<ele>162</ele>
<time>2023-05-16T14:23:55Z</time>
</trkpt>
<trkpt lat="49.06356694176793" lon="9.032861972227693">
<ele>162</ele>
<time>2023-05-16T14:23:56Z</time>
</trkpt>
<trkpt lat="49.063614970073104" lon="9.032874964177608">
<ele>161.79999999999995</ele>
<time>2023-05-16T14:23:57Z</time>
</trkpt>
<trkpt lat="49.063664926216006" lon="9.032887956127524">
<ele>161.79999999999995</ele>
<time>2023-05-16T14:23:58Z</time>
</trkpt>
<trkpt lat="49.06371496617794" lon="9.032902959734201">
<ele>161.60000000000002</ele>
<time>2023-05-16T14:23:59Z</time>
</trkpt>
<trkpt lat="49.06376299448311" lon="9.032914945855737">
<ele>161.39999999999998</ele>
<time>2023-05-16T14:24:00Z</time>
</trkpt>
<trkpt lat="49.063812950626016" lon="9.03292492032051">
<ele>161.39999999999998</ele>
<time>2023-05-16T14:24:01Z</time>
</trkpt>
<trkpt lat="49.06386299058795" lon="9.032936990261078">
<ele>161.20000000000005</ele>
<time>2023-05-16T14:24:02Z</time>
</trkpt>
<trkpt lat="49.06391194090247" lon="9.032946964725852">
<ele>161</ele>
<time>2023-05-16T14:24:03Z</time>
</trkpt>
<trkpt lat="49.063959969207644" lon="9.032954927533865">
<ele>160.79999999999995</ele>
<time>2023-05-16T14:24:04Z</time>
</trkpt>
<trkpt lat="49.06400799751282" lon="9.03296297416091">
<ele>160.79999999999995</ele>
<time>2023-05-16T14:24:05Z</time>
</trkpt>
<trkpt lat="49.06405493617058" lon="9.032976971939206">
<ele>160.60000000000002</ele>
<time>2023-05-16T14:24:06Z</time>
</trkpt>
<trkpt lat="49.06410296447575" lon="9.032989963889122">
<ele>160.39999999999998</ele>
<time>2023-05-16T14:24:07Z</time>
</trkpt>
<trkpt lat="49.06414998695254" lon="9.033004967495799">
<ele>160.39999999999998</ele>
<time>2023-05-16T14:24:08Z</time>
</trkpt>
<trkpt lat="49.064197931438684" lon="9.033016953617334">
<ele>160.20000000000005</ele>
<time>2023-05-16T14:24:09Z</time>
</trkpt>
<trkpt lat="49.06424696557224" lon="9.033022988587618">
<ele>160.20000000000005</ele>
<time>2023-05-16T14:24:10Z</time>
</trkpt>
<trkpt lat="49.06429692171514" lon="9.03302994556725">
<ele>160</ele>
<time>2023-05-16T14:24:11Z</time>
</trkpt>
<trkpt lat="49.064347967505455" lon="9.033039920032024">
<ele>160</ele>
<time>2023-05-16T14:24:12Z</time>
</trkpt>
<trkpt lat="49.06439993530512" lon="9.033051989972591">
<ele>159.79999999999995</ele>
<time>2023-05-16T14:24:13Z</time>
</trkpt>
<trkpt lat="49.064452992752194" lon="9.033059952780604">
<ele>159.79999999999995</ele>
<time>2023-05-16T14:24:14Z</time>
</trkpt>
<trkpt lat="49.06450697220862" lon="9.03307193890214">
<ele>159.60000000000002</ele>
<time>2023-05-16T14:24:15Z</time>
</trkpt>
<trkpt lat="49.0645579341799" lon="9.033081997185946">
<ele>159.60000000000002</ele>
<time>2023-05-16T14:24:16Z</time>
</trkpt>
<trkpt lat="49.0646099857986" lon="9.0330929774791">
<ele>159.39999999999998</ele>
<time>2023-05-16T14:24:17Z</time>
</trkpt>
<trkpt lat="49.06465793028474" lon="9.033107981085777">
<ele>159.20000000000005</ele>
<time>2023-05-16T14:24:18Z</time>
</trkpt>
<trkpt lat="49.06470696441829" lon="9.033122984692454">
<ele>159.20000000000005</ele>
<time>2023-05-16T14:24:19Z</time>
</trkpt>
<trkpt lat="49.064752981066704" lon="9.033137988299131">
<ele>159</ele>
<time>2023-05-16T14:24:20Z</time>
</trkpt>
<trkpt lat="49.064796986058354" lon="9.033146956935525">
<ele>159</ele>
<time>2023-05-16T14:24:21Z</time>
</trkpt>
<trkpt lat="49.06483797356486" lon="9.033137988299131">
<ele>159</ele>
<time>2023-05-16T14:24:22Z</time>
</trkpt>
<trkpt lat="49.06487292610109" lon="9.033112926408648">
<ele>159.20000000000005</ele>
<time>2023-05-16T14:24:23Z</time>
</trkpt>
<trkpt lat="49.06489999964833" lon="9.03307294473052">
<ele>159.20000000000005</ele>
<time>2023-05-16T14:24:24Z</time>
</trkpt>
<trkpt lat="49.06491793692112" lon="9.033026928082108">
<ele>159.20000000000005</ele>
<time>2023-05-16T14:24:25Z</time>
</trkpt>
<trkpt lat="49.064931934699416" lon="9.032969931140542">
<ele>159.20000000000005</ele>
<time>2023-05-16T14:24:26Z</time>
</trkpt>
<trkpt lat="49.0649429988116" lon="9.032906983047724">
<ele>159.20000000000005</ele>
<time>2023-05-16T14:24:27Z</time>
</trkpt>
<trkpt lat="49.06495498493314" lon="9.032842945307493">
<ele>159.20000000000005</ele>
<time>2023-05-16T14:24:28Z</time>
</trkpt>
<trkpt lat="49.064967976883054" lon="9.032777985557914">
<ele>159.20000000000005</ele>
<time>2023-05-16T14:24:29Z</time>
</trkpt>
<trkpt lat="49.06498197466135" lon="9.03270992450416">
<ele>159.20000000000005</ele>
<time>2023-05-16T14:24:30Z</time>
</trkpt>
<trkpt lat="49.064991949126124" lon="9.032639935612679">
<ele>159.20000000000005</ele>
<time>2023-05-16T14:24:31Z</time>
</trkpt>
<trkpt lat="49.06500494107604" lon="9.032566929236054">
<ele>159.20000000000005</ele>
<time>2023-05-16T14:24:32Z</time>
</trkpt>
<trkpt lat="49.065017933025956" lon="9.03249291703105">
<ele>159.20000000000005</ele>
<time>2023-05-16T14:24:33Z</time>
</trkpt>
<trkpt lat="49.06503293663263" lon="9.032421922311187">
<ele>159.39999999999998</ele>
<time>2023-05-16T14:24:34Z</time>
</trkpt>
<trkpt lat="49.06504693441093" lon="9.032346988096833">
<ele>159.39999999999998</ele>
<time>2023-05-16T14:24:35Z</time>
</trkpt>
<trkpt lat="49.06506193801761" lon="9.032271970063448">
<ele>159.39999999999998</ele>
<time>2023-05-16T14:24:36Z</time>
</trkpt>
<trkpt lat="49.06507492996752" lon="9.032196952030063">
<ele>159.39999999999998</ele>
<time>2023-05-16T14:24:37Z</time>
</trkpt>
<trkpt lat="49.06508792191744" lon="9.032121933996677">
<ele>159.39999999999998</ele>
<time>2023-05-16T14:24:38Z</time>
</trkpt>
<trkpt lat="49.065102925524116" lon="9.032047921791673">
<ele>159.39999999999998</ele>
<time>2023-05-16T14:24:39Z</time>
</trkpt>
<trkpt lat="49.06511692330241" lon="9.03197298757732">
<ele>159.39999999999998</ele>
<time>2023-05-16T14:24:40Z</time>
</trkpt>
<trkpt lat="49.06513192690909" lon="9.031901992857456">
<ele>159.39999999999998</ele>
<time>2023-05-16T14:24:41Z</time>
</trkpt>
<trkpt lat="49.065146930515766" lon="9.031827980652452">
<ele>159.39999999999998</ele>
<time>2023-05-16T14:24:42Z</time>
</trkpt>
<trkpt lat="49.065162939950824" lon="9.031756985932589">
<ele>159.39999999999998</ele>
<time>2023-05-16T14:24:43Z</time>
</trkpt>
<trkpt lat="49.06517693772912" lon="9.031684985384345">
<ele>159.39999999999998</ele>
<time>2023-05-16T14:24:44Z</time>
</trkpt>
<trkpt lat="49.065187918022275" lon="9.031614996492863">
<ele>159.39999999999998</ele>
<time>2023-05-16T14:24:45Z</time>
</trkpt>
<trkpt lat="49.06519998796284" lon="9.03154794126749">
<ele>159.39999999999998</ele>
<time>2023-05-16T14:24:46Z</time>
</trkpt>
<trkpt lat="49.06521197408438" lon="9.03148197568953">
<ele>159.39999999999998</ele>
<time>2023-05-16T14:24:47Z</time>
</trkpt>
<trkpt lat="49.06522496603429" lon="9.031419949606061">
<ele>159.20000000000005</ele>
<time>2023-05-16T14:24:48Z</time>
</trkpt>
<trkpt lat="49.06523695215583" lon="9.031361946836114">
<ele>159.20000000000005</ele>
<time>2023-05-16T14:24:49Z</time>
</trkpt>
<trkpt lat="49.0652469266206" lon="9.031301932409406">
<ele>159.20000000000005</ele>
<time>2023-05-16T14:24:50Z</time>
</trkpt>
<trkpt lat="49.06525497324765" lon="9.0312469471246">
<ele>159.20000000000005</ele>
<time>2023-05-16T14:24:51Z</time>
</trkpt>
<trkpt lat="49.06526695936918" lon="9.031194979324937">
<ele>159</ele>
<time>2023-05-16T14:24:52Z</time>
</trkpt>
<trkpt lat="49.06527693383396" lon="9.031144939363003">
<ele>159</ele>
<time>2023-05-16T14:24:53Z</time>
</trkpt>
<trkpt lat="49.065284980461" lon="9.031096994876862">
<ele>159</ele>
<time>2023-05-16T14:24:54Z</time>
</trkpt>
<trkpt lat="49.06529696658254" lon="9.031042931601405">
<ele>159</ele>
<time>2023-05-16T14:24:55Z</time>
</trkpt>
<trkpt lat="49.06530492939055" lon="9.03098694048822">
<ele>158.79999999999995</ele>
<time>2023-05-16T14:24:56Z</time>
</trkpt>
<trkpt lat="49.06531699933112" lon="9.030929943546653">
<ele>158.79999999999995</ele>
<time>2023-05-16T14:24:57Z</time>
</trkpt>
<trkpt lat="49.06532697379589" lon="9.030874958261847">
<ele>158.60000000000002</ele>
<time>2023-05-16T14:24:58Z</time>
</trkpt>
<trkpt lat="49.065337954089046" lon="9.030819972977042">
<ele>158.60000000000002</ele>
<time>2023-05-16T14:24:59Z</time>
</trkpt>
<trkpt lat="49.06535195186734" lon="9.030761970207095">
<ele>158.39999999999998</ele>
<time>2023-05-16T14:25:00Z</time>
</trkpt>
<trkpt lat="49.0653629321605" lon="9.03070698492229">
<ele>158.39999999999998</ele>
<time>2023-05-16T14:25:01Z</time>
</trkpt>
<trkpt lat="49.06537491828203" lon="9.030647976323962">
<ele>158.39999999999998</ele>
<time>2023-05-16T14:25:02Z</time>
</trkpt>
<trkpt lat="49.0653869882226" lon="9.030592991039157">
<ele>158.20000000000005</ele>
<time>2023-05-16T14:25:03Z</time>
</trkpt>
<trkpt lat="49.065397968515754" lon="9.030536999925971">
<ele>158.20000000000005</ele>
<time>2023-05-16T14:25:04Z</time>
</trkpt>
<trkpt lat="49.06540794298053" lon="9.030482936650515">
<ele>158.20000000000005</ele>
<time>2023-05-16T14:25:05Z</time>
</trkpt>
<trkpt lat="49.0654179174453" lon="9.030437925830483">
<ele>158</ele>
<time>2023-05-16T14:25:06Z</time>
</trkpt>
<trkpt lat="49.06542797572911" lon="9.030399955809116">
<ele>158</ele>
<time>2023-05-16T14:25:07Z</time>
</trkpt>
<trkpt lat="49.0654369443655" lon="9.03036491945386">
<ele>158</ele>
<time>2023-05-16T14:25:08Z</time>
</trkpt>
<trkpt lat="49.065444990992546" lon="9.030334996059537">
<ele>157.79999999999995</ele>
<time>2023-05-16T14:25:09Z</time>
</trkpt>
<trkpt lat="49.06545194797218" lon="9.030312951654196">
<ele>157.79999999999995</ele>
<time>2023-05-16T14:25:10Z</time>
</trkpt>
<trkpt lat="49.06545697711408" lon="9.030296942219138">
<ele>157.79999999999995</ele>
<time>2023-05-16T14:25:11Z</time>
</trkpt>
<trkpt lat="49.06545798294246" lon="9.030291996896267">
<ele>157.60000000000002</ele>
<time>2023-05-16T14:25:12Z</time>
</trkpt>
<trkpt lat="49.065484972670674" lon="9.030202981084585">
<ele>157</ele>
<time>2023-05-16T14:25:15Z</time>
</trkpt>
<trkpt lat="49.06549293547869" lon="9.03017196804285">
<ele>157</ele>
<time>2023-05-16T14:25:16Z</time>
</trkpt>
<trkpt lat="49.06549997627735" lon="9.030136931687593">
<ele>157</ele>
<time>2023-05-16T14:25:17Z</time>
</trkpt>
<trkpt lat="49.065506933256984" lon="9.030094938352704">
<ele>157</ele>
<time>2023-05-16T14:25:18Z</time>
</trkpt>
<trkpt lat="49.06551296822727" lon="9.030047999694943">
<ele>157</ele>
<time>2023-05-16T14:25:19Z</time>
</trkpt>
<trkpt lat="49.06551799736917" lon="9.030001983046532">
<ele>157</ele>
<time>2023-05-16T14:25:20Z</time>
</trkpt>
<trkpt lat="49.06551799736917" lon="9.029952948912978">
<ele>157</ele>
<time>2023-05-16T14:25:21Z</time>
</trkpt>
<trkpt lat="49.06551699154079" lon="9.029904920607805">
<ele>156.79999999999995</ele>
<time>2023-05-16T14:25:22Z</time>
</trkpt>
<trkpt lat="49.06551699154079" lon="9.029854964464903">
<ele>156.79999999999995</ele>
<time>2023-05-16T14:25:23Z</time>
</trkpt>
<trkpt lat="49.06551296822727" lon="9.02980299666524">
<ele>156.79999999999995</ele>
<time>2023-05-16T14:25:24Z</time>
</trkpt>
<trkpt lat="49.065507939085364" lon="9.029752956703305">
<ele>156.79999999999995</ele>
<time>2023-05-16T14:25:25Z</time>
</trkpt>
<trkpt lat="49.06550299376249" lon="9.0296979714185">
<ele>157</ele>
<time>2023-05-16T14:25:26Z</time>
</trkpt>
<trkpt lat="49.06549796462059" lon="9.029637956991792">
<ele>157</ele>
<time>2023-05-16T14:25:27Z</time>
</trkpt>
<trkpt lat="49.065489917993546" lon="9.029579954221845">
<ele>157</ele>
<time>2023-05-16T14:25:28Z</time>
</trkpt>
<trkpt lat="49.06547994352877" lon="9.029519939795136">
<ele>157</ele>
<time>2023-05-16T14:25:29Z</time>
</trkpt>
<trkpt lat="49.065469969064" lon="9.029457997530699">
<ele>157</ele>
<time>2023-05-16T14:25:30Z</time>
</trkpt>
<trkpt lat="49.06545697711408" lon="9.029391948133707">
<ele>157</ele>
<time>2023-05-16T14:25:31Z</time>
</trkpt>
<trkpt lat="49.065442979335785" lon="9.029321959242225">
<ele>157</ele>
<time>2023-05-16T14:25:32Z</time>
</trkpt>
<trkpt lat="49.06543199904263" lon="9.029252976179123">
<ele>157</ele>
<time>2023-05-16T14:25:33Z</time>
</trkpt>
<trkpt lat="49.065422946587205" lon="9.02918298728764">
<ele>157</ele>
<time>2023-05-16T14:25:34Z</time>
</trkpt>
<trkpt lat="49.06541297212243" lon="9.029114926233888">
<ele>157</ele>
<time>2023-05-16T14:25:35Z</time>
</trkpt>
<trkpt lat="49.06540299765766" lon="9.02905298396945">
<ele>157</ele>
<time>2023-05-16T14:25:36Z</time>
</trkpt>
<trkpt lat="49.06539293937385" lon="9.028991963714361">
<ele>157</ele>
<time>2023-05-16T14:25:37Z</time>
</trkpt>
<trkpt lat="49.065379947423935" lon="9.02892499230802">
<ele>156.79999999999995</ele>
<time>2023-05-16T14:25:38Z</time>
</trkpt>
<trkpt lat="49.06536695547402" lon="9.028851985931396">
<ele>156.79999999999995</ele>
<time>2023-05-16T14:25:39Z</time>
</trkpt>
<trkpt lat="49.06535195186734" lon="9.028772944584489">
<ele>156.79999999999995</ele>
<time>2023-05-16T14:25:40Z</time>
</trkpt>
<trkpt lat="49.06533996574581" lon="9.028691975399852">
<ele>156.60000000000002</ele>
<time>2023-05-16T14:25:41Z</time>
</trkpt>
<trkpt lat="49.06532797962427" lon="9.028609916567802">
<ele>156.60000000000002</ele>
<time>2023-05-16T14:25:42Z</time>
</trkpt>
<trkpt lat="49.065314987674356" lon="9.028532970696688">
<ele>156.39999999999998</ele>
<time>2023-05-16T14:25:43Z</time>
</trkpt>
<trkpt lat="49.06529797241092" lon="9.02845493517816">
<ele>156.39999999999998</ele>
<time>2023-05-16T14:25:44Z</time>
</trkpt>
<trkpt lat="49.06528296880424" lon="9.028379917144775">
<ele>156.20000000000005</ele>
<time>2023-05-16T14:25:45Z</time>
</trkpt>
<trkpt lat="49.06526796519756" lon="9.028307916596532">
<ele>156.20000000000005</ele>
<time>2023-05-16T14:25:46Z</time>
</trkpt>
<trkpt lat="49.065252961590886" lon="9.02823499403894">
<ele>156</ele>
<time>2023-05-16T14:25:47Z</time>
</trkpt>
<trkpt lat="49.06523795798421" lon="9.028159976005554">
<ele>156</ele>
<time>2023-05-16T14:25:48Z</time>
</trkpt>
<trkpt lat="49.06522194854915" lon="9.028084957972169">
<ele>156</ele>
<time>2023-05-16T14:25:49Z</time>
</trkpt>
<trkpt lat="49.06520493328571" lon="9.028007928282022">
<ele>156</ele>
<time>2023-05-16T14:25:50Z</time>
</trkpt>
<trkpt lat="49.065186996012926" lon="9.027929976582527">
<ele>155.79999999999995</ele>
<time>2023-05-16T14:25:51Z</time>
</trkpt>
<trkpt lat="49.06516998074949" lon="9.027847917750478">
<ele>155.79999999999995</ele>
<time>2023-05-16T14:25:52Z</time>
</trkpt>
<trkpt lat="49.06515195965767" lon="9.02776694856584">
<ele>155.79999999999995</ele>
<time>2023-05-16T14:25:53Z</time>
</trkpt>
<trkpt lat="49.06513192690909" lon="9.027686985209584">
<ele>155.79999999999995</ele>
<time>2023-05-16T14:25:54Z</time>
</trkpt>
<trkpt lat="49.06511197797954" lon="9.027609955519438">
<ele>155.79999999999995</ele>
<time>2023-05-16T14:25:55Z</time>
</trkpt>
<trkpt lat="49.0650899335742" lon="9.027532925829291">
<ele>155.79999999999995</ele>
<time>2023-05-16T14:25:56Z</time>
</trkpt>
<trkpt lat="49.06506797298789" lon="9.027456985786557">
<ele>155.79999999999995</ele>
<time>2023-05-16T14:25:57Z</time>
</trkpt>
<trkpt lat="49.06504693441093" lon="9.02737794443965">
<ele>155.79999999999995</ele>
<time>2023-05-16T14:25:58Z</time>
</trkpt>
<trkpt lat="49.06502497382462" lon="9.027297981083393">
<ele>155.79999999999995</ele>
<time>2023-05-16T14:25:59Z</time>
</trkpt>
<trkpt lat="49.06500292941928" lon="9.027216928079724">
<ele>155.79999999999995</ele>
<time>2023-05-16T14:26:00Z</time>
</trkpt>
<trkpt lat="49.06498197466135" lon="9.027131935581565">
<ele>155.79999999999995</ele>
<time>2023-05-16T14:26:01Z</time>
</trkpt>
<trkpt lat="49.06495791859925" lon="9.027046943083405">
<ele>155.79999999999995</ele>
<time>2023-05-16T14:26:02Z</time>
</trkpt>
<trkpt lat="49.0649329405278" lon="9.026962956413627">
<ele>155.60000000000002</ele>
<time>2023-05-16T14:26:03Z</time>
</trkpt>
<trkpt lat="49.06490997411311" lon="9.026877963915467">
<ele>155.60000000000002</ele>
<time>2023-05-16T14:26:04Z</time>
</trkpt>
<trkpt lat="49.064884996041656" lon="9.02679699473083">
<ele>155.60000000000002</ele>
<time>2023-05-16T14:26:05Z</time>
</trkpt>
<trkpt lat="49.06485993415117" lon="9.026716947555542">
<ele>155.60000000000002</ele>
<time>2023-05-16T14:26:06Z</time>
</trkpt>
<trkpt lat="49.06483495607972" lon="9.026634972542524">
<ele>155.39999999999998</ele>
<time>2023-05-16T14:26:07Z</time>
</trkpt>
<trkpt lat="49.06480997800827" lon="9.026554925367236">
<ele>155.39999999999998</ele>
<time>2023-05-16T14:26:08Z</time>
</trkpt>
<trkpt lat="49.06478298828006" lon="9.026471944525838">
<ele>155.39999999999998</ele>
<time>2023-05-16T14:26:09Z</time>
</trkpt>
<trkpt lat="49.064756920561194" lon="9.02638996951282">
<ele>155.39999999999998</ele>
<time>2023-05-16T14:26:10Z</time>
</trkpt>
<trkpt lat="49.06472993083298" lon="9.026307994499803">
<ele>155.20000000000005</ele>
<time>2023-05-16T14:26:11Z</time>
</trkpt>
<trkpt lat="49.06470294110477" lon="9.026227947324514">
<ele>155.20000000000005</ele>
<time>2023-05-16T14:26:12Z</time>
</trkpt>
<trkpt lat="49.06467997469008" lon="9.026146978139877">
<ele>155.20000000000005</ele>
<time>2023-05-16T14:26:13Z</time>
</trkpt>
<trkpt lat="49.06465692445636" lon="9.026064919307828">
<ele>155.20000000000005</ele>
<time>2023-05-16T14:26:14Z</time>
</trkpt>
<trkpt lat="49.06463194638491" lon="9.02598294429481">
<ele>155.20000000000005</ele>
<time>2023-05-16T14:26:15Z</time>
</trkpt>
<trkpt lat="49.06460294499993" lon="9.025904992595315">
<ele>155.20000000000005</ele>
<time>2023-05-16T14:26:16Z</time>
</trkpt>
<trkpt lat="49.0645769611001" lon="9.025824945420027">
<ele>155.20000000000005</ele>
<time>2023-05-16T14:26:17Z</time>
</trkpt>
<trkpt lat="49.06454997137189" lon="9.025747999548912">
<ele>155.20000000000005</ele>
<time>2023-05-16T14:26:18Z</time>
</trkpt>
<trkpt lat="49.06452499330044" lon="9.025666946545243">
<ele>155.20000000000005</ele>
<time>2023-05-16T14:26:19Z</time>
</trkpt>
<trkpt lat="49.064497919753194" lon="9.025586983188987">
<ele>155.20000000000005</ele>
<time>2023-05-16T14:26:20Z</time>
</trkpt>
<trkpt lat="49.06447193585336" lon="9.02550995349884">
<ele>155.20000000000005</ele>
<time>2023-05-16T14:26:21Z</time>
</trkpt>
<trkpt lat="49.06444293446839" lon="9.025432923808694">
<ele>155.20000000000005</ele>
<time>2023-05-16T14:26:22Z</time>
</trkpt>
<trkpt lat="49.064412927255034" lon="9.02535991743207">
<ele>155.20000000000005</ele>
<time>2023-05-16T14:26:23Z</time>
</trkpt>
<trkpt lat="49.06438493169844" lon="9.025286994874477">
<ele>155.20000000000005</ele>
<time>2023-05-16T14:26:24Z</time>
</trkpt>
<trkpt lat="49.06435492448509" lon="9.025214994326234">
<ele>155.20000000000005</ele>
<time>2023-05-16T14:26:25Z</time>
</trkpt>
<trkpt lat="49.064322989434004" lon="9.025146933272481">
<ele>155.20000000000005</ele>
<time>2023-05-16T14:26:26Z</time>
</trkpt>
<trkpt lat="49.06429197639227" lon="9.02507795020938">
<ele>155.20000000000005</ele>
<time>2023-05-16T14:26:27Z</time>
</trkpt>
<trkpt lat="49.064259957522154" lon="9.025009972974658">
<ele>155.20000000000005</ele>
<time>2023-05-16T14:26:28Z</time>
</trkpt>
<trkpt lat="49.06422793865204" lon="9.024942917749286">
<ele>155.20000000000005</ele>
<time>2023-05-16T14:26:29Z</time>
</trkpt>
<trkpt lat="49.064194997772574" lon="9.024879969656467">
<ele>155.20000000000005</ele>
<time>2023-05-16T14:26:30Z</time>
</trkpt>
<trkpt lat="49.06416197307408" lon="9.024814926087856">
<ele>155.39999999999998</ele>
<time>2023-05-16T14:26:31Z</time>
</trkpt>
<trkpt lat="49.06412995420396" lon="9.02475499548018">
<ele>155.39999999999998</ele>
<time>2023-05-16T14:26:32Z</time>
</trkpt>
<trkpt lat="49.06409793533385" lon="9.024696992710233">
<ele>155.39999999999998</ele>
<time>2023-05-16T14:26:33Z</time>
</trkpt>
<trkpt lat="49.06406692229211" lon="9.024636978283525">
<ele>155.39999999999998</ele>
<time>2023-05-16T14:26:34Z</time>
</trkpt>
<trkpt lat="49.06403699889779" lon="9.024574952200055">
<ele>155.60000000000002</ele>
<time>2023-05-16T14:26:35Z</time>
</trkpt>
<trkpt lat="49.064004980027676" lon="9.024512926116586">
<ele>155.60000000000002</ele>
<time>2023-05-16T14:26:36Z</time>
</trkpt>
<trkpt lat="49.06396994367242" lon="9.024447966367006">
<ele>155.79999999999995</ele>
<time>2023-05-16T14:26:37Z</time>
</trkpt>
<trkpt lat="49.06393691897392" lon="9.024384934455156">
<ele>155.79999999999995</ele>
<time>2023-05-16T14:26:38Z</time>
</trkpt>
<trkpt lat="49.0639019664377" lon="9.024317963048816">
<ele>156</ele>
<time>2023-05-16T14:26:39Z</time>
</trkpt>
<trkpt lat="49.06386793591082" lon="9.024251997470856">
<ele>156</ele>
<time>2023-05-16T14:26:40Z</time>
</trkpt>
<trkpt lat="49.063832983374596" lon="9.024182930588722">
<ele>156</ele>
<time>2023-05-16T14:26:41Z</time>
</trkpt>
<trkpt lat="49.0637999586761" lon="9.024116965010762">
<ele>156.20000000000005</ele>
<time>2023-05-16T14:26:42Z</time>
</trkpt>
<trkpt lat="49.063767939805984" lon="9.02404798194766">
<ele>156.20000000000005</ele>
<time>2023-05-16T14:26:43Z</time>
</trkpt>
<trkpt lat="49.06373499892652" lon="9.023979920893908">
<ele>156.20000000000005</ele>
<time>2023-05-16T14:26:44Z</time>
</trkpt>
<trkpt lat="49.063701974228024" lon="9.023911943659186">
<ele>156.20000000000005</ele>
<time>2023-05-16T14:26:45Z</time>
</trkpt>
<trkpt lat="49.06366693787277" lon="9.023842960596085">
<ele>156.20000000000005</ele>
<time>2023-05-16T14:26:46Z</time>
</trkpt>
<trkpt lat="49.06363491900265" lon="9.023776995018125">
<ele>156.20000000000005</ele>
<time>2023-05-16T14:26:47Z</time>
</trkpt>
<trkpt lat="49.06360197812319" lon="9.023711951449513">
<ele>156.20000000000005</ele>
<time>2023-05-16T14:26:48Z</time>
</trkpt>
<trkpt lat="49.063571970909834" lon="9.023642968386412">
<ele>156.20000000000005</ele>
<time>2023-05-16T14:26:49Z</time>
</trkpt>
<trkpt lat="49.06354296952486" lon="9.0235779248178">
<ele>156.39999999999998</ele>
<time>2023-05-16T14:26:50Z</time>
</trkpt>
<trkpt lat="49.06351497396827" lon="9.023512965068221">
<ele>156.39999999999998</ele>
<time>2023-05-16T14:26:51Z</time>
</trkpt>
<trkpt lat="49.063489995896816" lon="9.023446999490261">
<ele>156.39999999999998</ele>
<time>2023-05-16T14:26:52Z</time>
</trkpt>
<trkpt lat="49.06346292234957" lon="9.02338296175003">
<ele>156.60000000000002</ele>
<time>2023-05-16T14:26:53Z</time>
</trkpt>
<trkpt lat="49.06343299895525" lon="9.023321941494942">
<ele>156.60000000000002</ele>
<time>2023-05-16T14:26:54Z</time>
</trkpt>
<trkpt lat="49.063404919579625" lon="9.023256981745362">
<ele>156.79999999999995</ele>
<time>2023-05-16T14:26:55Z</time>
</trkpt>
<trkpt lat="49.06337197870016" lon="9.02318799868226">
<ele>156.79999999999995</ele>
<time>2023-05-16T14:26:56Z</time>
</trkpt>
<trkpt lat="49.06334691680968" lon="9.023117925971746">
<ele>157</ele>
<time>2023-05-16T14:26:57Z</time>
</trkpt>
<trkpt lat="49.06332294456661" lon="9.023047937080264">
<ele>157.20000000000005</ele>
<time>2023-05-16T14:26:58Z</time>
</trkpt>
<trkpt lat="49.06330198980868" lon="9.02297493070364">
<ele>157.39999999999998</ele>
<time>2023-05-16T14:26:59Z</time>
</trkpt>
<trkpt lat="49.063277933746576" lon="9.022897984832525">
<ele>157.39999999999998</ele>
<time>2023-05-16T14:27:00Z</time>
</trkpt>
<trkpt lat="49.063254967331886" lon="9.02282296679914">
<ele>157.60000000000002</ele>
<time>2023-05-16T14:27:01Z</time>
</trkpt>
<trkpt lat="49.063231917098165" lon="9.022747948765755">
<ele>157.79999999999995</ele>
<time>2023-05-16T14:27:02Z</time>
</trkpt>
<trkpt lat="49.063207944855094" lon="9.02267293073237">
<ele>158</ele>
<time>2023-05-16T14:27:03Z</time>
</trkpt>
<trkpt lat="49.063189923763275" lon="9.022596990689635">
<ele>158</ele>
<time>2023-05-16T14:27:04Z</time>
</trkpt>
<trkpt lat="49.06317299231887" lon="9.022519960999489">
<ele>158.20000000000005</ele>
<time>2023-05-16T14:27:05Z</time>
</trkpt>
<trkpt lat="49.06315798871219" lon="9.022439997643232">
<ele>158.20000000000005</ele>
<time>2023-05-16T14:27:06Z</time>
</trkpt>
<trkpt lat="49.06313996762037" lon="9.022362967953086">
<ele>158.39999999999998</ele>
<time>2023-05-16T14:27:07Z</time>
</trkpt>
<trkpt lat="49.063122952356935" lon="9.022282920777798">
<ele>158.39999999999998</ele>
<time>2023-05-16T14:27:08Z</time>
</trkpt>
<trkpt lat="49.063104931265116" lon="9.022204969078302">
<ele>158.39999999999998</ele>
<time>2023-05-16T14:27:09Z</time>
</trkpt>
<trkpt lat="49.06308699399233" lon="9.022127939388156">
<ele>158.39999999999998</ele>
<time>2023-05-16T14:27:10Z</time>
</trkpt>
<trkpt lat="49.06307199038565" lon="9.02204998768866">
<ele>158.39999999999998</ele>
<time>2023-05-16T14:27:11Z</time>
</trkpt>
<trkpt lat="49.063059920445085" lon="9.021971952170134">
<ele>158.39999999999998</ele>
<time>2023-05-16T14:27:12Z</time>
</trkpt>
<trkpt lat="49.06304692849517" lon="9.021896934136748">
<ele>158.60000000000002</ele>
<time>2023-05-16T14:27:13Z</time>
</trkpt>
<trkpt lat="49.06303192488849" lon="9.021822921931744">
<ele>158.60000000000002</ele>
<time>2023-05-16T14:27:14Z</time>
</trkpt>
<trkpt lat="49.063014993444085" lon="9.02175192721188">
<ele>158.79999999999995</ele>
<time>2023-05-16T14:27:15Z</time>
</trkpt>
<trkpt lat="49.06300191767514" lon="9.021676992997527">
<ele>158.79999999999995</ele>
<time>2023-05-16T14:27:16Z</time>
</trkpt>
<trkpt lat="49.0629899315536" lon="9.021594934165478">
<ele>159</ele>
<time>2023-05-16T14:27:17Z</time>
</trkpt>
<trkpt lat="49.06297794543207" lon="9.021507930010557">
<ele>159</ele>
<time>2023-05-16T14:27:18Z</time>
</trkpt>
<trkpt lat="49.062971994280815" lon="9.021419920027256">
<ele>159</ele>
<time>2023-05-16T14:27:19Z</time>
</trkpt>
<trkpt lat="49.06296797096729" lon="9.021327970549464">
<ele>158.79999999999995</ele>
<time>2023-05-16T14:27:20Z</time>
</trkpt>
<trkpt lat="49.06296696513891" lon="9.021236943081021">
<ele>158.79999999999995</ele>
<time>2023-05-16T14:27:21Z</time>
</trkpt>
<trkpt lat="49.062969982624054" lon="9.02114499360323">
<ele>158.79999999999995</ele>
<time>2023-05-16T14:27:22Z</time>
</trkpt>
<trkpt lat="49.062972916290164" lon="9.021054971963167">
<ele>158.79999999999995</ele>
<time>2023-05-16T14:27:23Z</time>
</trkpt>
<trkpt lat="49.062976939603686" lon="9.020967967808247">
<ele>158.79999999999995</ele>
<time>2023-05-16T14:27:24Z</time>
</trkpt>
<trkpt lat="49.062976939603686" lon="9.020879957824945">
<ele>158.60000000000002</ele>
<time>2023-05-16T14:27:25Z</time>
</trkpt>
<trkpt lat="49.062976939603686" lon="9.020794965326786">
<ele>158.60000000000002</ele>
<time>2023-05-16T14:27:26Z</time>
</trkpt>
<trkpt lat="49.06297995708883" lon="9.020711984485388">
<ele>158.60000000000002</ele>
<time>2023-05-16T14:27:27Z</time>
</trkpt>
<trkpt lat="49.06298699788749" lon="9.020627997815609">
<ele>158.39999999999998</ele>
<time>2023-05-16T14:27:28Z</time>
</trkpt>
<trkpt lat="49.06298791989684" lon="9.020542921498418">
<ele>158.39999999999998</ele>
<time>2023-05-16T14:27:29Z</time>
</trkpt>
<trkpt lat="49.0629899315536" lon="9.020456923171878">
<ele>158.20000000000005</ele>
<time>2023-05-16T14:27:30Z</time>
</trkpt>
<trkpt lat="49.0629899315536" lon="9.020369919016957">
<ele>158.20000000000005</ele>
<time>2023-05-16T14:27:31Z</time>
</trkpt>
<trkpt lat="49.06299194321036" lon="9.020281992852688">
<ele>158.20000000000005</ele>
<time>2023-05-16T14:27:32Z</time>
</trkpt>
<trkpt lat="49.06299194321036" lon="9.020192977041006">
<ele>158.20000000000005</ele>
<time>2023-05-16T14:27:33Z</time>
</trkpt>
<trkpt lat="49.062994960695505" lon="9.020104967057705">
<ele>158.20000000000005</ele>
<time>2023-05-16T14:27:34Z</time>
</trkpt>
<trkpt lat="49.06299797818065" lon="9.020014945417643">
<ele>158.20000000000005</ele>
<time>2023-05-16T14:27:35Z</time>
</trkpt>
<trkpt lat="49.06300191767514" lon="9.01992492377758">
<ele>158.20000000000005</ele>
<time>2023-05-16T14:27:36Z</time>
</trkpt>
<trkpt lat="49.06300292350352" lon="9.01983791962266">
<ele>158.20000000000005</ele>
<time>2023-05-16T14:27:37Z</time>
</trkpt>
<trkpt lat="49.06300292350352" lon="9.01975192129612">
<ele>158.20000000000005</ele>
<time>2023-05-16T14:27:38Z</time>
</trkpt>
<trkpt lat="49.06300493516028" lon="9.0196649171412">
<ele>158.20000000000005</ele>
<time>2023-05-16T14:27:39Z</time>
</trkpt>
<trkpt lat="49.06300694681704" lon="9.01957992464304">
<ele>158.20000000000005</ele>
<time>2023-05-16T14:27:40Z</time>
</trkpt>
<trkpt lat="49.06300694681704" lon="9.01949493214488">
<ele>158.20000000000005</ele>
<time>2023-05-16T14:27:41Z</time>
</trkpt>
<trkpt lat="49.06300795264542" lon="9.01940993964672">
<ele>158.20000000000005</ele>
<time>2023-05-16T14:27:42Z</time>
</trkpt>
<trkpt lat="49.06300996430218" lon="9.0193229354918">
<ele>158.20000000000005</ele>
<time>2023-05-16T14:27:43Z</time>
</trkpt>
<trkpt lat="49.06301197595894" lon="9.01923299767077">
<ele>158.20000000000005</ele>
<time>2023-05-16T14:27:44Z</time>
</trkpt>
<trkpt lat="49.063014993444085" lon="9.019142976030707">
<ele>158.20000000000005</ele>
<time>2023-05-16T14:27:45Z</time>
</trkpt>
<trkpt lat="49.063016921281815" lon="9.019052954390645">
<ele>158</ele>
<time>2023-05-16T14:27:46Z</time>
</trkpt>
<trkpt lat="49.063016921281815" lon="9.018964944407344">
<ele>158</ele>
<time>2023-05-16T14:27:47Z</time>
</trkpt>
<trkpt lat="49.063017927110195" lon="9.018879951909184">
<ele>157.79999999999995</ele>
<time>2023-05-16T14:27:48Z</time>
</trkpt>
<trkpt lat="49.063019938766956" lon="9.018792947754264">
<ele>157.79999999999995</ele>
<time>2023-05-16T14:27:49Z</time>
</trkpt>
<trkpt lat="49.0630229562521" lon="9.018709966912866">
<ele>157.60000000000002</ele>
<time>2023-05-16T14:27:50Z</time>
</trkpt>
<trkpt lat="49.06302697956562" lon="9.018626986071467">
<ele>157.39999999999998</ele>
<time>2023-05-16T14:27:51Z</time>
</trkpt>
<trkpt lat="49.06302999705076" lon="9.018544927239418">
<ele>157.39999999999998</ele>
<time>2023-05-16T14:27:52Z</time>
</trkpt>
<trkpt lat="49.06302999705076" lon="9.01846194639802">
<ele>157.20000000000005</ele>
<time>2023-05-16T14:27:53Z</time>
</trkpt>
<trkpt lat="49.06303192488849" lon="9.0183749422431">
<ele>157.20000000000005</ele>
<time>2023-05-16T14:27:54Z</time>
</trkpt>
<trkpt lat="49.06302999705076" lon="9.018286932259798">
<ele>157</ele>
<time>2023-05-16T14:27:55Z</time>
</trkpt>
<trkpt lat="49.06303192488849" lon="9.018197916448116">
<ele>157</ele>
<time>2023-05-16T14:27:56Z</time>
</trkpt>
<trkpt lat="49.06303192488849" lon="9.018107978627086">
<ele>156.79999999999995</ele>
<time>2023-05-16T14:27:57Z</time>
</trkpt>
<trkpt lat="49.06303192488849" lon="9.018019968643785">
<ele>156.79999999999995</ele>
<time>2023-05-16T14:27:58Z</time>
</trkpt>
<trkpt lat="49.06303293071687" lon="9.017927935346961">
<ele>156.79999999999995</ele>
<time>2023-05-16T14:27:59Z</time>
</trkpt>
<trkpt lat="49.06303494237363" lon="9.01783699169755">
<ele>156.79999999999995</ele>
<time>2023-05-16T14:28:00Z</time>
</trkpt>
<trkpt lat="49.06303494237363" lon="9.017742946743965">
<ele>156.60000000000002</ele>
<time>2023-05-16T14:28:01Z</time>
</trkpt>
<trkpt lat="49.063036954030395" lon="9.017651919275522">
<ele>156.60000000000002</ele>
<time>2023-05-16T14:28:02Z</time>
</trkpt>
<trkpt lat="49.063037959858775" lon="9.01755996979773">
<ele>156.60000000000002</ele>
<time>2023-05-16T14:28:03Z</time>
</trkpt>
<trkpt lat="49.0630419831723" lon="9.01747296564281">
<ele>156.39999999999998</ele>
<time>2023-05-16T14:28:04Z</time>
</trkpt>
<trkpt lat="49.06304298900068" lon="9.017381938174367">
<ele>156.39999999999998</ele>
<time>2023-05-16T14:28:05Z</time>
</trkpt>
<trkpt lat="49.06304692849517" lon="9.017292922362685">
<ele>156.39999999999998</ele>
<time>2023-05-16T14:28:06Z</time>
</trkpt>
<trkpt lat="49.06304994598031" lon="9.017206924036145">
<ele>156.39999999999998</ele>
<time>2023-05-16T14:28:07Z</time>
</trkpt>
<trkpt lat="49.06305195763707" lon="9.017121931537986">
<ele>156.39999999999998</ele>
<time>2023-05-16T14:28:08Z</time>
</trkpt>
<trkpt lat="49.06305296346545" lon="9.017039956524968">
<ele>156.39999999999998</ele>
<time>2023-05-16T14:28:09Z</time>
</trkpt>
<trkpt lat="49.06305497512221" lon="9.016959993168712">
<ele>156.60000000000002</ele>
<time>2023-05-16T14:28:10Z</time>
</trkpt>
<trkpt lat="49.063056986778975" lon="9.016882963478565">
<ele>156.60000000000002</ele>
<time>2023-05-16T14:28:11Z</time>
</trkpt>
<trkpt lat="49.063056986778975" lon="9.0168069396168">
<ele>156.60000000000002</ele>
<time>2023-05-16T14:28:12Z</time>
</trkpt>
<trkpt lat="49.063057992607355" lon="9.016727982088923">
<ele>156.60000000000002</ele>
<time>2023-05-16T14:28:13Z</time>
</trkpt>
<trkpt lat="49.063059920445085" lon="9.016646929085255">
<ele>156.60000000000002</ele>
<time>2023-05-16T14:28:14Z</time>
</trkpt>
<trkpt lat="49.063062937930226" lon="9.016566965728998">
<ele>156.60000000000002</ele>
<time>2023-05-16T14:28:15Z</time>
</trkpt>
<trkpt lat="49.06306494958699" lon="9.016481973230839">
<ele>156.60000000000002</ele>
<time>2023-05-16T14:28:16Z</time>
</trkpt>
<trkpt lat="49.06306696124375" lon="9.01639798656106">
<ele>156.60000000000002</ele>
<time>2023-05-16T14:28:17Z</time>
</trkpt>
<trkpt lat="49.06306997872889" lon="9.01631492190063">
<ele>156.60000000000002</ele>
<time>2023-05-16T14:28:18Z</time>
</trkpt>
<trkpt lat="49.06306997872889" lon="9.016231941059232">
<ele>156.60000000000002</ele>
<time>2023-05-16T14:28:19Z</time>
</trkpt>
<trkpt lat="49.06307199038565" lon="9.016147954389453">
<ele>156.60000000000002</ele>
<time>2023-05-16T14:28:20Z</time>
</trkpt>
<trkpt lat="49.06307299621403" lon="9.016066985204816">
<ele>156.60000000000002</ele>
<time>2023-05-16T14:28:21Z</time>
</trkpt>
<trkpt lat="49.06307299621403" lon="9.015981992706656">
<ele>156.60000000000002</ele>
<time>2023-05-16T14:28:22Z</time>
</trkpt>
<trkpt lat="49.06307693570852" lon="9.015897922217846">
<ele>156.60000000000002</ele>
<time>2023-05-16T14:28:23Z</time>
</trkpt>
<trkpt lat="49.0630779415369" lon="9.015821982175112">
<ele>156.60000000000002</ele>
<time>2023-05-16T14:28:24Z</time>
</trkpt>
<trkpt lat="49.0630779415369" lon="9.015742940828204">
<ele>156.60000000000002</ele>
<time>2023-05-16T14:28:25Z</time>
</trkpt>
<trkpt lat="49.0630779415369" lon="9.015666916966438">
<ele>156.60000000000002</ele>
<time>2023-05-16T14:28:26Z</time>
</trkpt>
<trkpt lat="49.063079953193665" lon="9.015589971095324">
<ele>156.60000000000002</ele>
<time>2023-05-16T14:28:27Z</time>
</trkpt>
<trkpt lat="49.06308498233557" lon="9.015511935576797">
<ele>156.60000000000002</ele>
<time>2023-05-16T14:28:28Z</time>
</trkpt>
<trkpt lat="49.06308799982071" lon="9.01543297804892">
<ele>156.60000000000002</ele>
<time>2023-05-16T14:28:29Z</time>
</trkpt>
<trkpt lat="49.0630969684571" lon="9.015356954187155">
<ele>156.60000000000002</ele>
<time>2023-05-16T14:28:30Z</time>
</trkpt>
<trkpt lat="49.06310794875026" lon="9.01528193615377">
<ele>156.79999999999995</ele>
<time>2023-05-16T14:28:31Z</time>
</trkpt>
<trkpt lat="49.063121946528554" lon="9.015202978625894">
<ele>156.79999999999995</ele>
<time>2023-05-16T14:28:32Z</time>
</trkpt>
<trkpt lat="49.06313292682171" lon="9.015126954764128">
<ele>156.79999999999995</ele>
<time>2023-05-16T14:28:33Z</time>
</trkpt>
<trkpt lat="49.063142985105515" lon="9.015054954215884">
<ele>156.79999999999995</ele>
<time>2023-05-16T14:28:34Z</time>
</trkpt>
<trkpt lat="49.06315295957029" lon="9.01498295366764">
<ele>156.79999999999995</ele>
<time>2023-05-16T14:28:35Z</time>
</trkpt>
<trkpt lat="49.06316192820668" lon="9.014911958947778">
<ele>156.79999999999995</ele>
<time>2023-05-16T14:28:36Z</time>
</trkpt>
<trkpt lat="49.06316997483373" lon="9.014846999198198">
<ele>156.79999999999995</ele>
<time>2023-05-16T14:28:37Z</time>
</trkpt>
<trkpt lat="49.06317793764174" lon="9.014777932316065">
<ele>156.79999999999995</ele>
<time>2023-05-16T14:28:38Z</time>
</trkpt>
<trkpt lat="49.063186990097165" lon="9.014709955081344">
<ele>156.79999999999995</ele>
<time>2023-05-16T14:28:39Z</time>
</trkpt>
<trkpt lat="49.06319294124842" lon="9.0146379545331">
<ele>156.79999999999995</ele>
<time>2023-05-16T14:28:40Z</time>
</trkpt>
<trkpt lat="49.06319998204708" lon="9.014561930671334">
<ele>156.79999999999995</ele>
<time>2023-05-16T14:28:41Z</time>
</trkpt>
<trkpt lat="49.06320693902671" lon="9.014479955658317">
<ele>157</ele>
<time>2023-05-16T14:28:42Z</time>
</trkpt>
<trkpt lat="49.06321498565376" lon="9.014396974816918">
<ele>157</ele>
<time>2023-05-16T14:28:43Z</time>
</trkpt>
<trkpt lat="49.06321993097663" lon="9.014311982318759">
<ele>157</ele>
<time>2023-05-16T14:28:44Z</time>
</trkpt>
<trkpt lat="49.06322496011853" lon="9.0142269898206">
<ele>157</ele>
<time>2023-05-16T14:28:45Z</time>
</trkpt>
<trkpt lat="49.063227977603674" lon="9.01414199732244">
<ele>157</ele>
<time>2023-05-16T14:28:46Z</time>
</trkpt>
<trkpt lat="49.063232922926545" lon="9.014052981510758">
<ele>157.20000000000005</ele>
<time>2023-05-16T14:28:47Z</time>
</trkpt>
<trkpt lat="49.06323694624007" lon="9.013964971527457">
<ele>157.20000000000005</ele>
<time>2023-05-16T14:28:48Z</time>
</trkpt>
<trkpt lat="49.06323996372521" lon="9.013874949887395">
<ele>157.39999999999998</ele>
<time>2023-05-16T14:28:49Z</time>
</trkpt>
<trkpt lat="49.06324197538197" lon="9.013784928247333">
<ele>157.39999999999998</ele>
<time>2023-05-16T14:28:50Z</time>
</trkpt>
<trkpt lat="49.06324298121035" lon="9.01369297876954">
<ele>157.60000000000002</ele>
<time>2023-05-16T14:28:51Z</time>
</trkpt>
<trkpt lat="49.06324499286711" lon="9.013602957129478">
<ele>157.60000000000002</ele>
<time>2023-05-16T14:28:52Z</time>
</trkpt>
<trkpt lat="49.06324692070484" lon="9.013517964631319">
<ele>157.60000000000002</ele>
<time>2023-05-16T14:28:53Z</time>
</trkpt>
<trkpt lat="49.06324792653322" lon="9.01343498378992">
<ele>157.60000000000002</ele>
<time>2023-05-16T14:28:54Z</time>
</trkpt>
<trkpt lat="49.06324499286711" lon="9.013352924957871">
<ele>157.60000000000002</ele>
<time>2023-05-16T14:28:55Z</time>
</trkpt>
<trkpt lat="49.06324197538197" lon="9.013271955773234">
<ele>157.60000000000002</ele>
<time>2023-05-16T14:28:56Z</time>
</trkpt>
<trkpt lat="49.06323795206845" lon="9.013192998245358">
<ele>157.60000000000002</ele>
<time>2023-05-16T14:28:57Z</time>
</trkpt>
<trkpt lat="49.06323694624007" lon="9.01311295107007">
<ele>157.60000000000002</ele>
<time>2023-05-16T14:28:58Z</time>
</trkpt>
<trkpt lat="49.063232922926545" lon="9.013034999370575">
<ele>157.60000000000002</ele>
<time>2023-05-16T14:28:59Z</time>
</trkpt>
<trkpt lat="49.063231917098165" lon="9.01295998133719">
<ele>157.60000000000002</ele>
<time>2023-05-16T14:29:00Z</time>
</trkpt>
<trkpt lat="49.063231917098165" lon="9.012881945818663">
<ele>157.60000000000002</ele>
<time>2023-05-16T14:29:01Z</time>
</trkpt>
<trkpt lat="49.063231917098165" lon="9.012801982462406">
<ele>157.60000000000002</ele>
<time>2023-05-16T14:29:02Z</time>
</trkpt>
<trkpt lat="49.063232922926545" lon="9.012719923630357">
<ele>157.39999999999998</ele>
<time>2023-05-16T14:29:03Z</time>
</trkpt>
<trkpt lat="49.06323795206845" lon="9.012636942788959">
<ele>157.39999999999998</ele>
<time>2023-05-16T14:29:04Z</time>
</trkpt>
<trkpt lat="49.06324298121035" lon="9.012556979432702">
<ele>157.39999999999998</ele>
<time>2023-05-16T14:29:05Z</time>
</trkpt>
<trkpt lat="49.06324499286711" lon="9.012479949742556">
<ele>157.39999999999998</ele>
<time>2023-05-16T14:29:06Z</time>
</trkpt>
<trkpt lat="49.06324692070484" lon="9.01240493170917">
<ele>157.39999999999998</ele>
<time>2023-05-16T14:29:07Z</time>
</trkpt>
<trkpt lat="49.06324792653322" lon="9.012329997494817">
<ele>157.20000000000005</ele>
<time>2023-05-16T14:29:08Z</time>
</trkpt>
<trkpt lat="49.06324993818998" lon="9.012257996946573">
<ele>157.20000000000005</ele>
<time>2023-05-16T14:29:09Z</time>
</trkpt>
<trkpt lat="49.063252955675125" lon="9.01218499056995">
<ele>157.20000000000005</ele>
<time>2023-05-16T14:29:10Z</time>
</trkpt>
<trkpt lat="49.063252955675125" lon="9.012117935344577">
<ele>157.20000000000005</ele>
<time>2023-05-16T14:29:11Z</time>
</trkpt>
<trkpt lat="49.063254967331886" lon="9.012052975594997">
<ele>157.20000000000005</ele>
<time>2023-05-16T14:29:12Z</time>
</trkpt>
<trkpt lat="49.06325697898865" lon="9.01199497282505">
<ele>157</ele>
<time>2023-05-16T14:29:13Z</time>
</trkpt>
<trkpt lat="49.06325798481703" lon="9.0119319409132">
<ele>157</ele>
<time>2023-05-16T14:29:14Z</time>
</trkpt>
<trkpt lat="49.06325999647379" lon="9.011871926486492">
<ele>157</ele>
<time>2023-05-16T14:29:15Z</time>
</trkpt>
<trkpt lat="49.06326192431152" lon="9.011807972565293">
<ele>157</ele>
<time>2023-05-16T14:29:16Z</time>
</trkpt>
<trkpt lat="49.0632629301399" lon="9.011742928996682">
<ele>156.79999999999995</ele>
<time>2023-05-16T14:29:17Z</time>
</trkpt>
<trkpt lat="49.0632679592818" lon="9.011679980903864">
<ele>156.79999999999995</ele>
<time>2023-05-16T14:29:18Z</time>
</trkpt>
<trkpt lat="49.0632679592818" lon="9.011614937335253">
<ele>156.79999999999995</ele>
<time>2023-05-16T14:29:19Z</time>
</trkpt>
<trkpt lat="49.06326997093856" lon="9.011546960100532">
<ele>156.79999999999995</ele>
<time>2023-05-16T14:29:20Z</time>
</trkpt>
<trkpt lat="49.06326997093856" lon="9.011472947895527">
<ele>156.79999999999995</ele>
<time>2023-05-16T14:29:21Z</time>
</trkpt>
<trkpt lat="49.063272988423705" lon="9.011397929862142">
<ele>156.79999999999995</ele>
<time>2023-05-16T14:29:22Z</time>
</trkpt>
<trkpt lat="49.0632819570601" lon="9.011322995647788">
<ele>156.79999999999995</ele>
<time>2023-05-16T14:29:23Z</time>
</trkpt>
<trkpt lat="49.06329193152487" lon="9.011236997321248">
<ele>156.79999999999995</ele>
<time>2023-05-16T14:29:24Z</time>
</trkpt>
<trkpt lat="49.06330299563706" lon="9.011146975681186">
<ele>156.79999999999995</ele>
<time>2023-05-16T14:29:25Z</time>
</trkpt>
<trkpt lat="49.063317999243736" lon="9.011057959869504">
<ele>156.79999999999995</ele>
<time>2023-05-16T14:29:26Z</time>
</trkpt>
<trkpt lat="49.06332797370851" lon="9.010967938229442">
<ele>156.79999999999995</ele>
<time>2023-05-16T14:29:27Z</time>
</trkpt>
<trkpt lat="49.063337948173285" lon="9.01087498292327">
<ele>156.79999999999995</ele>
<time>2023-05-16T14:29:28Z</time>
</trkpt>
<trkpt lat="49.06334297731519" lon="9.010782949626446">
<ele>156.79999999999995</ele>
<time>2023-05-16T14:29:29Z</time>
</trkpt>
<trkpt lat="49.06335496343672" lon="9.010687982663512">
<ele>156.79999999999995</ele>
<time>2023-05-16T14:29:30Z</time>
</trkpt>
<trkpt lat="49.0633699670434" lon="9.010594943538308">
<ele>156.79999999999995</ele>
<time>2023-05-16T14:29:31Z</time>
</trkpt>
<trkpt lat="49.06338798813522" lon="9.010502994060516">
<ele>156.79999999999995</ele>
<time>2023-05-16T14:29:32Z</time>
</trkpt>
<trkpt lat="49.063404919579625" lon="9.010411966592073">
<ele>156.79999999999995</ele>
<time>2023-05-16T14:29:33Z</time>
</trkpt>
<trkpt lat="49.0634199231863" lon="9.01031993329525">
<ele>156.79999999999995</ele>
<time>2023-05-16T14:29:34Z</time>
</trkpt>
<trkpt lat="49.06343492679298" lon="9.010226977989078">
<ele>156.79999999999995</ele>
<time>2023-05-16T14:29:35Z</time>
</trkpt>
<trkpt lat="49.063447918742895" lon="9.010134944692254">
<ele>156.79999999999995</ele>
<time>2023-05-16T14:29:36Z</time>
</trkpt>
<trkpt lat="49.06346191652119" lon="9.010041989386082">
<ele>156.79999999999995</ele>
<time>2023-05-16T14:29:37Z</time>
</trkpt>
<trkpt lat="49.063471974805" lon="9.0099529735744">
<ele>156.79999999999995</ele>
<time>2023-05-16T14:29:38Z</time>
</trkpt>
<trkpt lat="49.06348496675491" lon="9.009862951934338">
<ele>157</ele>
<time>2023-05-16T14:29:39Z</time>
</trkpt>
<trkpt lat="49.063491923734546" lon="9.009776953607798">
<ele>157</ele>
<time>2023-05-16T14:29:40Z</time>
</trkpt>
<trkpt lat="49.06349494121969" lon="9.009687937796116">
<ele>157</ele>
<time>2023-05-16T14:29:41Z</time>
</trkpt>
<trkpt lat="49.063492929562926" lon="9.009602945297956">
<ele>157</ele>
<time>2023-05-16T14:29:42Z</time>
</trkpt>
<trkpt lat="49.063489995896816" lon="9.009516946971416">
<ele>157</ele>
<time>2023-05-16T14:29:43Z</time>
</trkpt>
<trkpt lat="49.063486978411674" lon="9.009431954473257">
<ele>157</ele>
<time>2023-05-16T14:29:44Z</time>
</trkpt>
<trkpt lat="49.06348194926977" lon="9.00934997946024">
<ele>157</ele>
<time>2023-05-16T14:29:45Z</time>
</trkpt>
<trkpt lat="49.06347499229014" lon="9.00926792062819">
<ele>157</ele>
<time>2023-05-16T14:29:46Z</time>
</trkpt>
<trkpt lat="49.063467951491475" lon="9.009186951443553">
<ele>157</ele>
<time>2023-05-16T14:29:47Z</time>
</trkpt>
<trkpt lat="49.06346191652119" lon="9.009107993915677">
<ele>157</ele>
<time>2023-05-16T14:29:48Z</time>
</trkpt>
<trkpt lat="49.0634529478848" lon="9.009032975882292">
<ele>157</ele>
<time>2023-05-16T14:29:49Z</time>
</trkpt>
<trkpt lat="49.063442973420024" lon="9.00896499864757">
<ele>157</ele>
<time>2023-05-16T14:29:50Z</time>
</trkpt>
<trkpt lat="49.06342796981335" lon="9.008896937593818">
<ele>156.79999999999995</ele>
<time>2023-05-16T14:29:51Z</time>
</trkpt>
<trkpt lat="49.06341497786343" lon="9.008822925388813">
<ele>156.79999999999995</ele>
<time>2023-05-16T14:29:52Z</time>
</trkpt>
<trkpt lat="49.063399974256754" lon="9.00875293649733">
<ele>156.79999999999995</ele>
<time>2023-05-16T14:29:53Z</time>
</trkpt>
<trkpt lat="49.063382958993316" lon="9.008682947605848">
<ele>156.79999999999995</ele>
<time>2023-05-16T14:29:54Z</time>
</trkpt>
<trkpt lat="49.06336694955826" lon="9.008612958714366">
<ele>156.79999999999995</ele>
<time>2023-05-16T14:29:55Z</time>
</trkpt>
<trkpt lat="49.06334792263806" lon="9.008541963994503">
<ele>156.79999999999995</ele>
<time>2023-05-16T14:29:56Z</time>
</trkpt>
<trkpt lat="49.06333199702203" lon="9.008472980931401">
<ele>156.79999999999995</ele>
<time>2023-05-16T14:29:57Z</time>
</trkpt>
<trkpt lat="49.063317999243736" lon="9.008404919877648">
<ele>156.79999999999995</ele>
<time>2023-05-16T14:29:58Z</time>
</trkpt>
<trkpt lat="49.06330492347479" lon="9.008337948471308">
<ele>156.79999999999995</ele>
<time>2023-05-16T14:29:59Z</time>
</trkpt>
<trkpt lat="49.06328991986811" lon="9.008271982893348">
<ele>156.79999999999995</ele>
<time>2023-05-16T14:30:00Z</time>
</trkpt>
<trkpt lat="49.063272988423705" lon="9.00821196846664">
<ele>156.79999999999995</ele>
<time>2023-05-16T14:30:01Z</time>
</trkpt>
<trkpt lat="49.06325697898865" lon="9.00814994238317">
<ele>156.79999999999995</ele>
<time>2023-05-16T14:30:02Z</time>
</trkpt>
<trkpt lat="49.06324197538197" lon="9.00808498263359">
<ele>156.79999999999995</ele>
<time>2023-05-16T14:30:03Z</time>
</trkpt>
<trkpt lat="49.063227977603674" lon="9.00802195072174">
<ele>156.79999999999995</ele>
<time>2023-05-16T14:30:04Z</time>
</trkpt>
<trkpt lat="49.06321498565376" lon="9.007961936295033">
<ele>156.79999999999995</ele>
<time>2023-05-16T14:30:05Z</time>
</trkpt>
<trkpt lat="49.06320199370384" lon="9.007901921868324">
<ele>156.79999999999995</ele>
<time>2023-05-16T14:30:06Z</time>
</trkpt>
<trkpt lat="49.063189923763275" lon="9.007841991260648">
<ele>156.79999999999995</ele>
<time>2023-05-16T14:30:07Z</time>
</trkpt>
<trkpt lat="49.0631799492985" lon="9.007784994319081">
<ele>156.79999999999995</ele>
<time>2023-05-16T14:30:08Z</time>
</trkpt>
<trkpt lat="49.063166957348585" lon="9.007724979892373">
<ele>156.79999999999995</ele>
<time>2023-05-16T14:30:09Z</time>
</trkpt>
<trkpt lat="49.06315295957029" lon="9.007659936323762">
<ele>156.79999999999995</ele>
<time>2023-05-16T14:30:10Z</time>
</trkpt>
<trkpt lat="49.06313996762037" lon="9.007597994059324">
<ele>156.79999999999995</ele>
<time>2023-05-16T14:30:11Z</time>
</trkpt>
<trkpt lat="49.06312798149884" lon="9.007536973804235">
<ele>156.79999999999995</ele>
<time>2023-05-16T14:30:12Z</time>
</trkpt>
<trkpt lat="49.06311691738665" lon="9.007476959377527">
<ele>156.79999999999995</ele>
<time>2023-05-16T14:30:13Z</time>
</trkpt>
<trkpt lat="49.063102919608355" lon="9.0074179507792">
<ele>156.79999999999995</ele>
<time>2023-05-16T14:30:14Z</time>
</trkpt>
<trkpt lat="49.06308799982071" lon="9.00735693052411">
<ele>156.79999999999995</ele>
<time>2023-05-16T14:30:15Z</time>
</trkpt>
<trkpt lat="49.06307199038565" lon="9.007296999916434">
<ele>156.79999999999995</ele>
<time>2023-05-16T14:30:16Z</time>
</trkpt>
<trkpt lat="49.063056986778975" lon="9.007239919155836">
<ele>156.79999999999995</ele>
<time>2023-05-16T14:30:17Z</time>
</trkpt>
<trkpt lat="49.063039971515536" lon="9.007186945527792">
<ele>156.79999999999995</ele>
<time>2023-05-16T14:30:18Z</time>
</trkpt>
<trkpt lat="49.0630229562521" lon="9.007131960242987">
<ele>156.79999999999995</ele>
<time>2023-05-16T14:30:19Z</time>
</trkpt>
<trkpt lat="49.06300493516028" lon="9.007072951644659">
<ele>156.79999999999995</ele>
<time>2023-05-16T14:30:20Z</time>
</trkpt>
<trkpt lat="49.06298699788749" lon="9.007014948874712">
<ele>156.79999999999995</ele>
<time>2023-05-16T14:30:21Z</time>
</trkpt>
<trkpt lat="49.062972916290164" lon="9.006957951933146">
<ele>156.79999999999995</ele>
<time>2023-05-16T14:30:22Z</time>
</trkpt>
<trkpt lat="49.06296797096729" lon="9.00690196081996">
<ele>156.79999999999995</ele>
<time>2023-05-16T14:30:23Z</time>
</trkpt>
<trkpt lat="49.062969982624054" lon="9.006846975535154">
<ele>156.79999999999995</ele>
<time>2023-05-16T14:30:24Z</time>
</trkpt>
<trkpt lat="49.062972916290164" lon="9.006791990250349">
<ele>156.79999999999995</ele>
<time>2023-05-16T14:30:25Z</time>
</trkpt>
<trkpt lat="49.062976939603686" lon="9.006737926974893">
<ele>156.79999999999995</ele>
<time>2023-05-16T14:30:26Z</time>
</trkpt>
<trkpt lat="49.06298498623073" lon="9.006689982488751">
<ele>156.79999999999995</ele>
<time>2023-05-16T14:30:27Z</time>
</trkpt>
<trkpt lat="49.062994960695505" lon="9.00664497166872">
<ele>156.79999999999995</ele>
<time>2023-05-16T14:30:28Z</time>
</trkpt>
<trkpt lat="49.063016921281815" lon="9.00660297833383">
<ele>156.79999999999995</ele>
<time>2023-05-16T14:30:29Z</time>
</trkpt>
<trkpt lat="49.06304793432355" lon="9.006566936150193">
<ele>156.79999999999995</ele>
<time>2023-05-16T14:30:30Z</time>
</trkpt>
<trkpt lat="49.06308699399233" lon="9.00653793476522">
<ele>156.79999999999995</ele>
<time>2023-05-16T14:30:31Z</time>
</trkpt>
<trkpt lat="49.0631299931556" lon="9.006522931158543">
<ele>156.79999999999995</ele>
<time>2023-05-16T14:30:32Z</time>
</trkpt>
<trkpt lat="49.06317299231887" lon="9.006512956693769">
<ele>156.79999999999995</ele>
<time>2023-05-16T14:30:33Z</time>
</trkpt>
<trkpt lat="49.06321993097663" lon="9.006509939208627">
<ele>156.79999999999995</ele>
<time>2023-05-16T14:30:34Z</time>
</trkpt>
<trkpt lat="49.06326997093856" lon="9.006506921723485">
<ele>156.79999999999995</ele>
<time>2023-05-16T14:30:35Z</time>
</trkpt>
<trkpt lat="49.063319927081466" lon="9.006507927551866">
<ele>156.79999999999995</ele>
<time>2023-05-16T14:30:36Z</time>
</trkpt>
<trkpt lat="49.06337197870016" lon="9.006509939208627">
<ele>156.79999999999995</ele>
<time>2023-05-16T14:30:37Z</time>
</trkpt>
<trkpt lat="49.063424952328205" lon="9.006509939208627">
<ele>156.79999999999995</ele>
<time>2023-05-16T14:30:38Z</time>
</trkpt>
<trkpt lat="49.06347792595625" lon="9.006507927551866">
<ele>156.79999999999995</ele>
<time>2023-05-16T14:30:39Z</time>
</trkpt>
<trkpt lat="49.063532995060086" lon="9.006507927551866">
<ele>156.79999999999995</ele>
<time>2023-05-16T14:30:40Z</time>
</trkpt>
<trkpt lat="49.06358798034489" lon="9.006506921723485">
<ele>156.79999999999995</ele>
<time>2023-05-16T14:30:41Z</time>
</trkpt>
<trkpt lat="49.06364497728646" lon="9.006506921723485">
<ele>156.79999999999995</ele>
<time>2023-05-16T14:30:42Z</time>
</trkpt>
<trkpt lat="49.06369996257126" lon="9.006507927551866">
<ele>156.79999999999995</ele>
<time>2023-05-16T14:30:43Z</time>
</trkpt>
<trkpt lat="49.06375796534121" lon="9.006511950865388">
<ele>156.79999999999995</ele>
<time>2023-05-16T14:30:44Z</time>
</trkpt>
<trkpt lat="49.06381496228278" lon="9.00651496835053">
<ele>156.79999999999995</ele>
<time>2023-05-16T14:30:45Z</time>
</trkpt>
<trkpt lat="49.06387195922434" lon="9.006522931158543">
<ele>156.79999999999995</ele>
<time>2023-05-16T14:30:46Z</time>
</trkpt>
<trkpt lat="49.06392795033753" lon="9.006534917280078">
<ele>156.79999999999995</ele>
<time>2023-05-16T14:30:47Z</time>
</trkpt>
<trkpt lat="49.063982935622334" lon="9.006547993049026">
<ele>156.79999999999995</ele>
<time>2023-05-16T14:30:48Z</time>
</trkpt>
<trkpt lat="49.0640399325639" lon="9.006561990827322">
<ele>156.79999999999995</ele>
<time>2023-05-16T14:30:49Z</time>
</trkpt>
<trkpt lat="49.06409793533385" lon="9.006576994433999">
<ele>156.79999999999995</ele>
<time>2023-05-16T14:30:50Z</time>
</trkpt>
<trkpt lat="49.064154932275414" lon="9.006591998040676">
<ele>156.60000000000002</ele>
<time>2023-05-16T14:30:51Z</time>
</trkpt>
<trkpt lat="49.06420991756022" lon="9.006606917828321">
<ele>156.60000000000002</ele>
<time>2023-05-16T14:30:52Z</time>
</trkpt>
<trkpt lat="49.06426699832082" lon="9.006621921434999">
<ele>156.60000000000002</ele>
<time>2023-05-16T14:30:53Z</time>
</trkpt>
<trkpt lat="49.064322989434004" lon="9.006634997203946">
<ele>156.60000000000002</ele>
<time>2023-05-16T14:30:54Z</time>
</trkpt>
<trkpt lat="49.06437797471881" lon="9.006646983325481">
<ele>156.60000000000002</ele>
<time>2023-05-16T14:30:55Z</time>
</trkpt>
<trkpt lat="49.064432960003614" lon="9.006652934476733">
<ele>156.60000000000002</ele>
<time>2023-05-16T14:30:56Z</time>
</trkpt>
<trkpt lat="49.06448693946004" lon="9.006662992760539">
<ele>156.60000000000002</ele>
<time>2023-05-16T14:30:57Z</time>
</trkpt>
<trkpt lat="49.064541924744844" lon="9.006669949740171">
<ele>156.79999999999995</ele>
<time>2023-05-16T14:30:58Z</time>
</trkpt>
<trkpt lat="49.06459699384868" lon="9.006677996367216">
<ele>156.79999999999995</ele>
<time>2023-05-16T14:30:59Z</time>
</trkpt>
<trkpt lat="49.064649967476726" lon="9.006682941690087">
<ele>156.79999999999995</ele>
<time>2023-05-16T14:31:00Z</time>
</trkpt>
<trkpt lat="49.0646979957819" lon="9.00668696500361">
<ele>156.79999999999995</ele>
<time>2023-05-16T14:31:01Z</time>
</trkpt>
<trkpt lat="49.06474694609642" lon="9.006691994145513">
<ele>156.79999999999995</ele>
<time>2023-05-16T14:31:02Z</time>
</trkpt>
<trkpt lat="49.06479497440159" lon="9.006692999973893">
<ele>157</ele>
<time>2023-05-16T14:31:03Z</time>
</trkpt>
<trkpt lat="49.064841996878386" lon="9.006694927811623">
<ele>157</ele>
<time>2023-05-16T14:31:04Z</time>
</trkpt>
<trkpt lat="49.06488994136453" lon="9.006694927811623">
<ele>157.20000000000005</ele>
<time>2023-05-16T14:31:05Z</time>
</trkpt>
<trkpt lat="49.0649379696697" lon="9.006691994145513">
<ele>157.39999999999998</ele>
<time>2023-05-16T14:31:06Z</time>
</trkpt>
<trkpt lat="49.06498499214649" lon="9.00668797083199">
<ele>157.39999999999998</ele>
<time>2023-05-16T14:31:07Z</time>
</trkpt>
<trkpt lat="49.06503193080425" lon="9.006684953346848">
<ele>157.60000000000002</ele>
<time>2023-05-16T14:31:08Z</time>
</trkpt>
<trkpt lat="49.065077947452664" lon="9.006679924204946">
<ele>157.79999999999995</ele>
<time>2023-05-16T14:31:09Z</time>
</trkpt>
<trkpt lat="49.065119940787554" lon="9.006674978882074">
<ele>157.79999999999995</ele>
<time>2023-05-16T14:31:10Z</time>
</trkpt>
<trkpt lat="49.06515799462795" lon="9.006671961396933">
<ele>158</ele>
<time>2023-05-16T14:31:11Z</time>
</trkpt>
<trkpt lat="49.06519294716418" lon="9.006669949740171">
<ele>158</ele>
<time>2023-05-16T14:31:12Z</time>
</trkpt>
<trkpt lat="49.065226977691054" lon="9.006669949740171">
<ele>158.20000000000005</ele>
<time>2023-05-16T14:31:13Z</time>
</trkpt>
<trkpt lat="49.06525799073279" lon="9.00666693225503">
<ele>158.39999999999998</ele>
<time>2023-05-16T14:31:14Z</time>
</trkpt>
<trkpt lat="49.06528992578387" lon="9.006662992760539">
<ele>158.60000000000002</ele>
<time>2023-05-16T14:31:15Z</time>
</trkpt>
<trkpt lat="49.06532295048237" lon="9.006661986932158">
<ele>158.60000000000002</ele>
<time>2023-05-16T14:31:16Z</time>
</trkpt>
<trkpt lat="49.065354969352484" lon="9.006659975275397">
<ele>158.79999999999995</ele>
<time>2023-05-16T14:31:17Z</time>
</trkpt>
<trkpt lat="49.06538799405098" lon="9.006657963618636">
<ele>159</ele>
<time>2023-05-16T14:31:18Z</time>
</trkpt>
<trkpt lat="49.06541992910206" lon="9.006656957790256">
<ele>159.20000000000005</ele>
<time>2023-05-16T14:31:19Z</time>
</trkpt>
<trkpt lat="49.06544993631542" lon="9.006657963618636">
<ele>159.39999999999998</ele>
<time>2023-05-16T14:31:20Z</time>
</trkpt>
<trkpt lat="49.06547994352877" lon="9.006662992760539">
<ele>159.79999999999995</ele>
<time>2023-05-16T14:31:21Z</time>
</trkpt>
<trkpt lat="49.065509950742126" lon="9.00666793808341">
<ele>160</ele>
<time>2023-05-16T14:31:22Z</time>
</trkpt>
<trkpt lat="49.06553794629872" lon="9.006676990538836">
<ele>160.20000000000005</ele>
<time>2023-05-16T14:31:23Z</time>
</trkpt>
<trkpt lat="49.06556694768369" lon="9.006684953346848">
<ele>160.39999999999998</ele>
<time>2023-05-16T14:31:24Z</time>
</trkpt>
<trkpt lat="49.065596954897046" lon="9.006696939468384">
<ele>160.79999999999995</ele>
<time>2023-05-16T14:31:25Z</time>
</trkpt>
<trkpt lat="49.0656269621104" lon="9.00671194307506">
<ele>161</ele>
<time>2023-05-16T14:31:26Z</time>
</trkpt>
<trkpt lat="49.06565294601023" lon="9.006726946681738">
<ele>161.20000000000005</ele>
<time>2023-05-16T14:31:27Z</time>
</trkpt>
<trkpt lat="49.06567499041557" lon="9.006744967773557">
<ele>161.39999999999998</ele>
<time>2023-05-16T14:31:28Z</time>
</trkpt>
<trkpt lat="49.06569493934512" lon="9.006771957501769">
<ele>161.60000000000002</ele>
<time>2023-05-16T14:31:29Z</time>
</trkpt>
<trkpt lat="49.06571296043694" lon="9.006806993857026">
<ele>161.79999999999995</ele>
<time>2023-05-16T14:31:30Z</time>
</trkpt>
<trkpt lat="49.06572695821524" lon="9.006846975535154">
<ele>162</ele>
<time>2023-05-16T14:31:31Z</time>
</trkpt>
<trkpt lat="49.06573492102325" lon="9.006884945556521">
<ele>162</ele>
<time>2023-05-16T14:31:32Z</time>
</trkpt>
<trkpt lat="49.06574699096382" lon="9.00692199356854">
<ele>162.20000000000005</ele>
<time>2023-05-16T14:31:33Z</time>
</trkpt>
<trkpt lat="49.065761994570494" lon="9.006954934448004">
<ele>162.20000000000005</ele>
<time>2023-05-16T14:31:34Z</time>
</trkpt>
<trkpt lat="49.06578194350004" lon="9.006986953318119">
<ele>162.39999999999998</ele>
<time>2023-05-16T14:31:35Z</time>
</trkpt>
<trkpt lat="49.065804993733764" lon="9.00701293721795">
<ele>162.60000000000002</ele>
<time>2023-05-16T14:31:36Z</time>
</trkpt>
<trkpt lat="49.065831983461976" lon="9.007034981623292">
<ele>162.79999999999995</ele>
<time>2023-05-16T14:31:37Z</time>
</trkpt>
<trkpt lat="49.06586299650371" lon="9.007044956088066">
<ele>162.79999999999995</ele>
<time>2023-05-16T14:31:38Z</time>
</trkpt>
<trkpt lat="49.06589291989803" lon="9.007041938602924">
<ele>163</ele>
<time>2023-05-16T14:31:39Z</time>
</trkpt>
<trkpt lat="49.06592292711139" lon="9.007024923339486">
<ele>163.20000000000005</ele>
<time>2023-05-16T14:31:40Z</time>
</trkpt>
<trkpt lat="49.0659499168396" lon="9.006996927782893">
<ele>163.20000000000005</ele>
<time>2023-05-16T14:31:41Z</time>
</trkpt>
<trkpt lat="49.06597196124494" lon="9.006966920569539">
<ele>163.39999999999998</ele>
<time>2023-05-16T14:31:42Z</time>
</trkpt>
<trkpt lat="49.065982941538095" lon="9.006932973861694">
<ele>163.60000000000002</ele>
<time>2023-05-16T14:31:43Z</time>
</trkpt>
<trkpt lat="49.06598797068" lon="9.006892992183566">
<ele>163.79999999999995</ele>
<time>2023-05-16T14:31:44Z</time>
</trkpt>
<trkpt lat="49.06598998233676" lon="9.006849993020296">
<ele>163.79999999999995</ele>
<time>2023-05-16T14:31:45Z</time>
</trkpt>
<trkpt lat="49.06598696485162" lon="9.006806993857026">
<ele>164</ele>
<time>2023-05-16T14:31:46Z</time>
</trkpt>
<trkpt lat="49.065979924052954" lon="9.006761983036995">
<ele>164</ele>
<time>2023-05-16T14:31:47Z</time>
</trkpt>
<trkpt lat="49.06597296707332" lon="9.0067099314183">
<ele>164</ele>
<time>2023-05-16T14:31:48Z</time>
</trkpt>
<trkpt lat="49.06596994958818" lon="9.006651928648353">
<ele>164</ele>
<time>2023-05-16T14:31:49Z</time>
</trkpt>
<trkpt lat="49.06597196124494" lon="9.006591998040676">
<ele>164</ele>
<time>2023-05-16T14:31:50Z</time>
</trkpt>
<trkpt lat="49.06597196124494" lon="9.006534917280078">
<ele>164</ele>
<time>2023-05-16T14:31:51Z</time>
</trkpt>
<trkpt lat="49.06597196124494" lon="9.006484961137176">
<ele>163.79999999999995</ele>
<time>2023-05-16T14:31:52Z</time>
</trkpt>
<trkpt lat="49.06596793793142" lon="9.006441961973906">
<ele>163.79999999999995</ele>
<time>2023-05-16T14:31:53Z</time>
</trkpt>
<trkpt lat="49.06596198678017" lon="9.006401980295777">
<ele>163.79999999999995</ele>
<time>2023-05-16T14:31:54Z</time>
</trkpt>
<trkpt lat="49.06595293432474" lon="9.006362920626998">
<ele>163.79999999999995</ele>
<time>2023-05-16T14:31:55Z</time>
</trkpt>
<trkpt lat="49.06594195403159" lon="9.006334925070405">
<ele>163.79999999999995</ele>
<time>2023-05-16T14:31:56Z</time>
</trkpt>
<trkpt lat="49.06593197956681" lon="9.006306929513812">
<ele>163.79999999999995</ele>
<time>2023-05-16T14:31:57Z</time>
</trkpt>
<trkpt lat="49.06592695042491" lon="9.006276922300458">
<ele>163.79999999999995</ele>
<time>2023-05-16T14:31:58Z</time>
</trkpt>
<trkpt lat="49.06592192128301" lon="9.006251944229007">
<ele>163.79999999999995</ele>
<time>2023-05-16T14:31:59Z</time>
</trkpt>
<trkpt lat="49.065917981788516" lon="9.00623694062233">
<ele>163.79999999999995</ele>
<time>2023-05-16T14:32:00Z</time>
</trkpt>
<trkpt lat="49.065917981788516" lon="9.006224954500794">
<ele>163.79999999999995</ele>
<time>2023-05-16T14:32:01Z</time>
</trkpt>
<trkpt lat="49.065891997888684" lon="9.006146918982267">
<ele>163.20000000000005</ele>
<time>2023-05-16T14:32:01Z</time>
</trkpt>
<trkpt lat="49.06588797457516" lon="9.006124958395958">
<ele>163.20000000000005</ele>
<time>2023-05-16T14:32:02Z</time>
</trkpt>
<trkpt lat="49.06588495709002" lon="9.006101991981268">
<ele>163.20000000000005</ele>
<time>2023-05-16T14:32:03Z</time>
</trkpt>
<trkpt lat="49.06588193960488" lon="9.006067961454391">
<ele>163.20000000000005</ele>
<time>2023-05-16T14:32:04Z</time>
</trkpt>
<trkpt lat="49.065874982625246" lon="9.006027979776263">
<ele>163.20000000000005</ele>
<time>2023-05-16T14:32:05Z</time>
</trkpt>
<trkpt lat="49.06586794182658" lon="9.005984980612993">
<ele>163.20000000000005</ele>
<time>2023-05-16T14:32:06Z</time>
</trkpt>
<trkpt lat="49.06586299650371" lon="9.00593695230782">
<ele>163.20000000000005</ele>
<time>2023-05-16T14:32:07Z</time>
</trkpt>
<trkpt lat="49.06585696153343" lon="9.005881967023015">
<ele>163.20000000000005</ele>
<time>2023-05-16T14:32:08Z</time>
</trkpt>
<trkpt lat="49.065854949876666" lon="9.005822958424687">
<ele>163.20000000000005</ele>
<time>2023-05-16T14:32:09Z</time>
</trkpt>
<trkpt lat="49.065847992897034" lon="9.005759926512837">
<ele>163.20000000000005</ele>
<time>2023-05-16T14:32:10Z</time>
</trkpt>
<trkpt lat="49.06584698706865" lon="9.005692955106497">
<ele>163.20000000000005</ele>
<time>2023-05-16T14:32:11Z</time>
</trkpt>
<trkpt lat="49.06584698706865" lon="9.005624977871776">
<ele>163.20000000000005</ele>
<time>2023-05-16T14:32:12Z</time>
</trkpt>
<trkpt lat="49.065847992897034" lon="9.005554988980293">
<ele>163.20000000000005</ele>
<time>2023-05-16T14:32:13Z</time>
</trkpt>
<trkpt lat="49.06584698706865" lon="9.00548198260367">
<ele>163.20000000000005</ele>
<time>2023-05-16T14:32:14Z</time>
</trkpt>
<trkpt lat="49.06584992073476" lon="9.005406964570284">
<ele>163.20000000000005</ele>
<time>2023-05-16T14:32:15Z</time>
</trkpt>
<trkpt lat="49.065852938219905" lon="9.005329934880137">
<ele>163.20000000000005</ele>
<time>2023-05-16T14:32:16Z</time>
</trkpt>
<trkpt lat="49.06585997901857" lon="9.005251983180642">
<ele>163.20000000000005</ele>
<time>2023-05-16T14:32:17Z</time>
</trkpt>
<trkpt lat="49.06586492434144" lon="9.005174953490496">
<ele>163.20000000000005</ele>
<time>2023-05-16T14:32:18Z</time>
</trkpt>
<trkpt lat="49.065872970968485" lon="9.00509993545711">
<ele>163.20000000000005</ele>
<time>2023-05-16T14:32:19Z</time>
</trkpt>
<trkpt lat="49.06587992794812" lon="9.005027934908867">
<ele>163.20000000000005</ele>
<time>2023-05-16T14:32:20Z</time>
</trkpt>
<trkpt lat="49.06588797457516" lon="9.004952916875482">
<ele>163.20000000000005</ele>
<time>2023-05-16T14:32:21Z</time>
</trkpt>
<trkpt lat="49.065897949039936" lon="9.00487999431789">
<ele>163.20000000000005</ele>
<time>2023-05-16T14:32:22Z</time>
</trkpt>
<trkpt lat="49.06590297818184" lon="9.004809921607375">
<ele>163.20000000000005</ele>
<time>2023-05-16T14:32:23Z</time>
</trkpt>
<trkpt lat="49.06590792350471" lon="9.004737921059132">
<ele>163.20000000000005</ele>
<time>2023-05-16T14:32:24Z</time>
</trkpt>
<trkpt lat="49.065914964303374" lon="9.004671955481172">
<ele>163.20000000000005</ele>
<time>2023-05-16T14:32:25Z</time>
</trkpt>
<trkpt lat="49.06592192128301" lon="9.004612946882844">
<ele>163.20000000000005</ele>
<time>2023-05-16T14:32:26Z</time>
</trkpt>
<trkpt lat="49.06592996791005" lon="9.004556955769658">
<ele>163.20000000000005</ele>
<time>2023-05-16T14:32:27Z</time>
</trkpt>
<trkpt lat="49.065937930718064" lon="9.004511944949627">
<ele>163.20000000000005</ele>
<time>2023-05-16T14:32:28Z</time>
</trkpt>
<trkpt lat="49.06594798900187" lon="9.00447498075664">
<ele>163</ele>
<time>2023-05-16T14:32:29Z</time>
</trkpt>
<trkpt lat="49.065959975123405" lon="9.004449918866158">
<ele>163</ele>
<time>2023-05-16T14:32:30Z</time>
</trkpt>
<trkpt lat="49.06597196124494" lon="9.004421923309565">
<ele>163</ele>
<time>2023-05-16T14:32:31Z</time>
</trkpt>
<trkpt lat="49.06597497873008" lon="9.004391999915242">
<ele>163</ele>
<time>2023-05-16T14:32:32Z</time>
</trkpt>
<trkpt lat="49.06596994958818" lon="9.004357969388366">
<ele>163</ele>
<time>2023-05-16T14:32:33Z</time>
</trkpt>
<trkpt lat="49.06596693210304" lon="9.004319999366999">
<ele>162.79999999999995</ele>
<time>2023-05-16T14:32:34Z</time>
</trkpt>
<trkpt lat="49.06597296707332" lon="9.004267947748303">
<ele>162.79999999999995</ele>
<time>2023-05-16T14:32:35Z</time>
</trkpt>
<trkpt lat="49.06598495319486" lon="9.004211956635118">
<ele>162.79999999999995</ele>
<time>2023-05-16T14:32:36Z</time>
</trkpt>
<trkpt lat="49.066001968458295" lon="9.00415294803679">
<ele>162.79999999999995</ele>
<time>2023-05-16T14:32:37Z</time>
</trkpt>
<trkpt lat="49.06601697206497" lon="9.004097962751985">
<ele>162.79999999999995</ele>
<time>2023-05-16T14:32:38Z</time>
</trkpt>
<trkpt lat="49.06603298150003" lon="9.004041971638799">
<ele>162.79999999999995</ele>
<time>2023-05-16T14:32:39Z</time>
</trkpt>
<trkpt lat="49.06604999676347" lon="9.003987992182374">
<ele>162.79999999999995</ele>
<time>2023-05-16T14:32:40Z</time>
</trkpt>
<trkpt lat="49.066067934036255" lon="9.003932923078537">
<ele>162.79999999999995</ele>
<time>2023-05-16T14:32:41Z</time>
</trkpt>
<trkpt lat="49.06609299592674" lon="9.003881961107254">
<ele>162.79999999999995</ele>
<time>2023-05-16T14:32:42Z</time>
</trkpt>
<trkpt lat="49.06611696816981" lon="9.0038329269737">
<ele>162.79999999999995</ele>
<time>2023-05-16T14:32:43Z</time>
</trkpt>
<trkpt lat="49.06613691709936" lon="9.003772996366024">
<ele>163</ele>
<time>2023-05-16T14:32:44Z</time>
</trkpt>
<trkpt lat="49.06615795567632" lon="9.003704935312271">
<ele>163</ele>
<time>2023-05-16T14:32:45Z</time>
</trkpt>
<trkpt lat="49.0661779884249" lon="9.003634946420789">
<ele>163</ele>
<time>2023-05-16T14:32:46Z</time>
</trkpt>
<trkpt lat="49.06620196066797" lon="9.003562945872545">
<ele>163</ele>
<time>2023-05-16T14:32:47Z</time>
</trkpt>
<trkpt lat="49.06622693873942" lon="9.003491951152682">
<ele>163.20000000000005</ele>
<time>2023-05-16T14:32:48Z</time>
</trkpt>
<trkpt lat="49.06624998897314" lon="9.003419950604439">
<ele>163.20000000000005</ele>
<time>2023-05-16T14:32:49Z</time>
</trkpt>
<trkpt lat="49.06627496704459" lon="9.003347950056195">
<ele>163.20000000000005</ele>
<time>2023-05-16T14:32:50Z</time>
</trkpt>
<trkpt lat="49.06629793345928" lon="9.003274943679571">
<ele>163.20000000000005</ele>
<time>2023-05-16T14:32:51Z</time>
</trkpt>
<trkpt lat="49.066321989521384" lon="9.003204954788089">
<ele>163.39999999999998</ele>
<time>2023-05-16T14:32:52Z</time>
</trkpt>
<trkpt lat="49.066344955936074" lon="9.003134965896606">
<ele>163.39999999999998</ele>
<time>2023-05-16T14:32:53Z</time>
</trkpt>
<trkpt lat="49.066366916522384" lon="9.003061959519982">
<ele>163.60000000000002</ele>
<time>2023-05-16T14:32:54Z</time>
</trkpt>
<trkpt lat="49.066389966756105" lon="9.002987947314978">
<ele>163.60000000000002</ele>
<time>2023-05-16T14:32:55Z</time>
</trkpt>
<trkpt lat="49.066409999504685" lon="9.002916952595115">
<ele>163.79999999999995</ele>
<time>2023-05-16T14:32:56Z</time>
</trkpt>
<trkpt lat="49.066432965919375" lon="9.00284294039011">
<ele>163.79999999999995</ele>
<time>2023-05-16T14:32:57Z</time>
</trkpt>
<trkpt lat="49.066456938162446" lon="9.002767922356725">
<ele>164</ele>
<time>2023-05-16T14:32:58Z</time>
</trkpt>
<trkpt lat="49.066474959254265" lon="9.002702962607145">
<ele>164.20000000000005</ele>
<time>2023-05-16T14:32:59Z</time>
</trkpt>
<trkpt lat="49.066496919840574" lon="9.002639930695295">
<ele>164.39999999999998</ele>
<time>2023-05-16T14:33:00Z</time>
</trkpt>
<trkpt lat="49.066516952589154" lon="9.002579916268587">
<ele>164.60000000000002</ele>
<time>2023-05-16T14:33:01Z</time>
</trkpt>
<trkpt lat="49.06653497368097" lon="9.002516968175769">
<ele>164.79999999999995</ele>
<time>2023-05-16T14:33:02Z</time>
</trkpt>
<trkpt lat="49.06655492261052" lon="9.002449996769428">
<ele>164.79999999999995</ele>
<time>2023-05-16T14:33:03Z</time>
</trkpt>
<trkpt lat="49.06657797284424" lon="9.002384953200817">
<ele>165</ele>
<time>2023-05-16T14:33:04Z</time>
</trkpt>
<trkpt lat="49.066601945087314" lon="9.002322927117348">
<ele>165.20000000000005</ele>
<time>2023-05-16T14:33:05Z</time>
</trkpt>
<trkpt lat="49.066624995321035" lon="9.00226199068129">
<ele>165.39999999999998</ele>
<time>2023-05-16T14:33:06Z</time>
</trkpt>
<trkpt lat="49.06664192676544" lon="9.002194935455918">
<ele>165.39999999999998</ele>
<time>2023-05-16T14:33:07Z</time>
</trkpt>
<trkpt lat="49.06665491871536" lon="9.002126958221197">
<ele>165.39999999999998</ele>
<time>2023-05-16T14:33:08Z</time>
</trkpt>
<trkpt lat="49.066664976999164" lon="9.002057975158095">
<ele>165.39999999999998</ele>
<time>2023-05-16T14:33:09Z</time>
</trkpt>
<trkpt lat="49.06667495146394" lon="9.001991925761104">
<ele>165.60000000000002</ele>
<time>2023-05-16T14:33:10Z</time>
</trkpt>
<trkpt lat="49.06668299809098" lon="9.001922942698002">
<ele>165.60000000000002</ele>
<time>2023-05-16T14:33:11Z</time>
</trkpt>
<trkpt lat="49.066689955070615" lon="9.001861922442913">
<ele>165.79999999999995</ele>
<time>2023-05-16T14:33:12Z</time>
</trkpt>
<trkpt lat="49.06669699586928" lon="9.001797968521714">
<ele>165.79999999999995</ele>
<time>2023-05-16T14:33:13Z</time>
</trkpt>
<trkpt lat="49.06670294702053" lon="9.001736948266625">
<ele>165.79999999999995</ele>
<time>2023-05-16T14:33:14Z</time>
</trkpt>
<trkpt lat="49.06670495867729" lon="9.001674922183156">
<ele>166</ele>
<time>2023-05-16T14:33:15Z</time>
</trkpt>
<trkpt lat="49.06670495867729" lon="9.001611974090338">
<ele>166</ele>
<time>2023-05-16T14:33:16Z</time>
</trkpt>
<trkpt lat="49.06669992953539" lon="9.00155195966363">
<ele>166</ele>
<time>2023-05-16T14:33:17Z</time>
</trkpt>
<trkpt lat="49.066691966727376" lon="9.00148993358016">
<ele>166.20000000000005</ele>
<time>2023-05-16T14:33:18Z</time>
</trkpt>
<trkpt lat="49.06668492592871" lon="9.001426985487342">
<ele>166.20000000000005</ele>
<time>2023-05-16T14:33:19Z</time>
</trkpt>
<trkpt lat="49.0666769631207" lon="9.00135699659586">
<ele>166.39999999999998</ele>
<time>2023-05-16T14:33:20Z</time>
</trkpt>
<trkpt lat="49.066669922322035" lon="9.001286923885345">
<ele>166.39999999999998</ele>
<time>2023-05-16T14:33:21Z</time>
</trkpt>
<trkpt lat="49.06666195951402" lon="9.001219952479005">
<ele>166.39999999999998</ele>
<time>2023-05-16T14:33:22Z</time>
</trkpt>
<trkpt lat="49.06665693037212" lon="9.001152981072664">
<ele>166.39999999999998</ele>
<time>2023-05-16T14:33:23Z</time>
</trkpt>
<trkpt lat="49.06665299087763" lon="9.001087937504053">
<ele>166.39999999999998</ele>
<time>2023-05-16T14:33:24Z</time>
</trkpt>
<trkpt lat="49.066646955907345" lon="9.001022977754474">
<ele>166.39999999999998</ele>
<time>2023-05-16T14:33:25Z</time>
</trkpt>
<trkpt lat="49.06664192676544" lon="9.00095491670072">
<ele>166.39999999999998</ele>
<time>2023-05-16T14:33:26Z</time>
</trkpt>
<trkpt lat="49.06663999892771" lon="9.000886939466">
<ele>166.39999999999998</ele>
<time>2023-05-16T14:33:27Z</time>
</trkpt>
<trkpt lat="49.066644944250584" lon="9.00082197971642">
<ele>166.39999999999998</ele>
<time>2023-05-16T14:33:28Z</time>
</trkpt>
<trkpt lat="49.06664192676544" lon="9.00075794197619">
<ele>166.60000000000002</ele>
<time>2023-05-16T14:33:29Z</time>
</trkpt>
<trkpt lat="49.06663195230067" lon="9.000694993883371">
<ele>166.79999999999995</ele>
<time>2023-05-16T14:33:30Z</time>
</trkpt>
<trkpt lat="49.06661493703723" lon="9.000627938657999">
<ele>166.79999999999995</ele>
<time>2023-05-16T14:33:31Z</time>
</trkpt>
<trkpt lat="49.06659993343055" lon="9.000559961423278">
<ele>167</ele>
<time>2023-05-16T14:33:32Z</time>
</trkpt>
<trkpt lat="49.06658694148064" lon="9.000496929511428">
<ele>167</ele>
<time>2023-05-16T14:33:33Z</time>
</trkpt>
<trkpt lat="49.06657797284424" lon="9.0004379209131">
<ele>167.20000000000005</ele>
<time>2023-05-16T14:33:34Z</time>
</trkpt>
<trkpt lat="49.06657294370234" lon="9.000384947285056">
<ele>167.39999999999998</ele>
<time>2023-05-16T14:33:35Z</time>
</trkpt>
<trkpt lat="49.06657797284424" lon="9.000332979485393">
<ele>167.60000000000002</ele>
<time>2023-05-16T14:33:36Z</time>
</trkpt>
<trkpt lat="49.06657797284424" lon="9.000276988372207">
<ele>167.60000000000002</ele>
<time>2023-05-16T14:33:37Z</time>
</trkpt>
<trkpt lat="49.06659498810768" lon="9.000229965895414">
<ele>167.79999999999995</ele>
<time>2023-05-16T14:33:38Z</time>
</trkpt>
<trkpt lat="49.066601945087314" lon="9.00017799809575">
<ele>168</ele>
<time>2023-05-16T14:33:39Z</time>
</trkpt>
<trkpt lat="49.06659792177379" lon="9.000124940648675">
<ele>168</ele>
<time>2023-05-16T14:33:40Z</time>
</trkpt>
<trkpt lat="49.06659699976444" lon="9.00007196702063">
<ele>168.20000000000005</ele>
<time>2023-05-16T14:33:41Z</time>
</trkpt>
<trkpt lat="49.06659498810768" lon="9.000012958422303">
<ele>168.39999999999998</ele>
<time>2023-05-16T14:33:42Z</time>
</trkpt>
<trkpt lat="49.06659197062254" lon="8.99996199645102">
<ele>168.39999999999998</ele>
<time>2023-05-16T14:33:43Z</time>
</trkpt>
<trkpt lat="49.066584929823875" lon="8.99991799145937">
<ele>168.60000000000002</ele>
<time>2023-05-16T14:33:44Z</time>
</trkpt>
<trkpt lat="49.06657294370234" lon="8.999871974810958">
<ele>168.79999999999995</ele>
<time>2023-05-16T14:33:45Z</time>
</trkpt>
<trkpt lat="49.066562969237566" lon="8.99983199313283">
<ele>168.79999999999995</ele>
<time>2023-05-16T14:33:46Z</time>
</trkpt>
<trkpt lat="49.06655794009566" lon="8.999784970656037">
<ele>169</ele>
<time>2023-05-16T14:33:47Z</time>
</trkpt>
<trkpt lat="49.06655693426728" lon="8.999742977321148">
<ele>169.20000000000005</ele>
<time>2023-05-16T14:33:48Z</time>
</trkpt>
<trkpt lat="49.06655794009566" lon="8.99970693513751">
<ele>169.39999999999998</ele>
<time>2023-05-16T14:33:49Z</time>
</trkpt>
<trkpt lat="49.066561963409185" lon="8.999672988429666">
<ele>169.60000000000002</ele>
<time>2023-05-16T14:33:50Z</time>
</trkpt>
<trkpt lat="49.06656799837947" lon="8.999642981216311">
<ele>169.60000000000002</ele>
<time>2023-05-16T14:33:51Z</time>
</trkpt>
<trkpt lat="49.0665749553591" lon="8.999607944861054">
<ele>169.79999999999995</ele>
<time>2023-05-16T14:33:52Z</time>
</trkpt>
<trkpt lat="49.06658794730902" lon="8.999589923769236">
<ele>170</ele>
<time>2023-05-16T14:33:53Z</time>
</trkpt>
<trkpt lat="49.066604962572455" lon="8.9995779376477">
<ele>170</ele>
<time>2023-05-16T14:33:54Z</time>
</trkpt>
<trkpt lat="49.066621977835894" lon="8.999564945697784">
<ele>170.20000000000005</ele>
<time>2023-05-16T14:33:55Z</time>
</trkpt>
<trkpt lat="49.06663698144257" lon="8.999547930434346">
<ele>170.20000000000005</ele>
<time>2023-05-16T14:33:56Z</time>
</trkpt>
<trkpt lat="49.06665299087763" lon="8.999537955969572">
<ele>170.39999999999998</ele>
<time>2023-05-16T14:33:57Z</time>
</trkpt>
<trkpt lat="49.066669922322035" lon="8.999526975676417">
<ele>170.39999999999998</ele>
<time>2023-05-16T14:33:58Z</time>
</trkpt>
<trkpt lat="49.06668693758547" lon="8.999522952362895">
<ele>170.39999999999998</ele>
<time>2023-05-16T14:33:59Z</time>
</trkpt>
<trkpt lat="49.066689955070615" lon="8.999499985948205">
<ele>170.39999999999998</ele>
<time>2023-05-16T14:34:00Z</time>
</trkpt>
<trkpt lat="49.06670697033405" lon="8.999499985948205">
<ele>170.39999999999998</ele>
<time>2023-05-16T14:34:01Z</time>
</trkpt>
<trkpt lat="49.0667269192636" lon="8.999502919614315">
<ele>170.60000000000002</ele>
<time>2023-05-16T14:34:02Z</time>
</trkpt>
<trkpt lat="49.06673999503255" lon="8.99951197206974">
<ele>170.60000000000002</ele>
<time>2023-05-16T14:34:03Z</time>
</trkpt>
<trkpt lat="49.066754998639226" lon="8.999526975676417">
<ele>170.60000000000002</ele>
<time>2023-05-16T14:34:04Z</time>
</trkpt>
<trkpt lat="49.06677193008363" lon="8.999544996768236">
<ele>170.60000000000002</ele>
<time>2023-05-16T14:34:05Z</time>
</trkpt>
<trkpt lat="49.06678793951869" lon="8.999562934041023">
<ele>170.60000000000002</ele>
<time>2023-05-16T14:34:06Z</time>
</trkpt>
<trkpt lat="49.06680998392403" lon="8.999582966789603">
<ele>170.60000000000002</ele>
<time>2023-05-16T14:34:07Z</time>
</trkpt>
<trkpt lat="49.06683295033872" lon="8.999604927375913">
<ele>170.60000000000002</ele>
<time>2023-05-16T14:34:08Z</time>
</trkpt>
<trkpt lat="49.06684694811702" lon="8.999624960124493">
<ele>170.79999999999995</ele>
<time>2023-05-16T14:34:09Z</time>
</trkpt>
<trkpt lat="49.06685499474406" lon="8.999647926539183">
<ele>170.79999999999995</ele>
<time>2023-05-16T14:34:10Z</time>
</trkpt>
<trkpt lat="49.066862957552075" lon="8.999667959287763">
<ele>170.79999999999995</ele>
<time>2023-05-16T14:34:11Z</time>
</trkpt>
<trkpt lat="49.06686999835074" lon="8.9996849745512">
<ele>170.79999999999995</ele>
<time>2023-05-16T14:34:12Z</time>
</trkpt>
<trkpt lat="49.066879972815514" lon="8.999699978157878">
<ele>170.79999999999995</ele>
<time>2023-05-16T14:34:13Z</time>
</trkpt>
<trkpt lat="49.06689195893705" lon="8.999701989814639">
<ele>171</ele>
<time>2023-05-16T14:34:14Z</time>
</trkpt>
<trkpt lat="49.066902939230204" lon="8.999694949015975">
<ele>171</ele>
<time>2023-05-16T14:34:15Z</time>
</trkpt>
<trkpt lat="49.066904950886965" lon="8.999694949015975">
<ele>171</ele>
<time>2023-05-16T14:34:16Z</time>
</trkpt>
<trkpt lat="49.06690796837211" lon="8.999692937359214">
<ele>171.20000000000005</ele>
<time>2023-05-16T14:34:17Z</time>
</trkpt>
<trkpt lat="49.06691492535174" lon="8.99968195706606">
<ele>171.20000000000005</ele>
<time>2023-05-16T14:34:18Z</time>
</trkpt>
<trkpt lat="49.066922971978784" lon="8.99968195706606">
<ele>171.20000000000005</ele>
<time>2023-05-16T14:34:19Z</time>
</trkpt>
<trkpt lat="49.0669219661504" lon="8.999667959287763">
<ele>171.20000000000005</ele>
<time>2023-05-16T14:34:20Z</time>
</trkpt>
<trkpt lat="49.066929928958416" lon="8.999646920710802">
<ele>171.39999999999998</ele>
<time>2023-05-16T14:34:21Z</time>
</trkpt>
<trkpt lat="49.06693495810032" lon="8.99963996373117">
<ele>171.39999999999998</ele>
<time>2023-05-16T14:34:22Z</time>
</trkpt>
<trkpt lat="49.06693797558546" lon="8.999621942639351">
<ele>171.39999999999998</ele>
<time>2023-05-16T14:34:23Z</time>
</trkpt>
<trkpt lat="49.06693696975708" lon="8.999622948467731">
<ele>171.39999999999998</ele>
<time>2023-05-16T14:34:24Z</time>
</trkpt>
<trkpt lat="49.066929928958416" lon="8.999607944861054">
<ele>171.39999999999998</ele>
<time>2023-05-16T14:34:25Z</time>
</trkpt>
<trkpt lat="49.066924983635545" lon="8.999594952911139">
<ele>171.39999999999998</ele>
<time>2023-05-16T14:34:26Z</time>
</trkpt>
<trkpt lat="49.06691794283688" lon="8.999584978446364">
<ele>171.39999999999998</ele>
<time>2023-05-16T14:34:27Z</time>
</trkpt>
<trkpt lat="49.06691299751401" lon="8.999582966789603">
<ele>171.60000000000002</ele>
<time>2023-05-16T14:34:28Z</time>
</trkpt>
<trkpt lat="49.06690796837211" lon="8.999586990103126">
<ele>171.60000000000002</ele>
<time>2023-05-16T14:34:29Z</time>
</trkpt>
<trkpt lat="49.06691492535174" lon="8.999591935425997">
<ele>171.60000000000002</ele>
<time>2023-05-16T14:34:30Z</time>
</trkpt>
<trkpt lat="49.06691492535174" lon="8.999594952911139">
<ele>171.60000000000002</ele>
<time>2023-05-16T14:34:31Z</time>
</trkpt>
<trkpt lat="49.06689497642219" lon="8.999637952074409">
<ele>171.60000000000002</ele>
<time>2023-05-16T14:34:31Z</time>
</trkpt>
<trkpt lat="49.06689296476543" lon="8.999642981216311">
<ele>171.39999999999998</ele>
<time>2023-05-16T14:34:32Z</time>
</trkpt>
<trkpt lat="49.06689195893705" lon="8.999642981216311">
<ele>171.39999999999998</ele>
<time>2023-05-16T14:34:33Z</time>
</trkpt>
<trkpt lat="49.06688994728029" lon="8.99963996373117">
<ele>171.39999999999998</ele>
<time>2023-05-16T14:34:34Z</time>
</trkpt>
<trkpt lat="49.06688994728029" lon="8.99963996373117">
<ele>171.39999999999998</ele>
</trkpt>
</trkseg>
</trk>
</gpx>